<?xml version="1.0" encoding="UTF-8" standalone="no" ?>
<gpx xmlns="http://www.topografix.com/GPX/1/1" xmlns:xsi="http://www.w3.org/2001/XMLSchema-instance" xsi:schemaLocation="http://www.topografix.com/GPX/1/1 http://www.topografix.com/GPX/1/1/gpx.xsd" version="1.1" creator="VisuGPX - https://www.visugpx.com">
  <metadata>
    <name>Rando Vernou mai 2011 - parcours 40 km</name>
    <desc><![CDATA[40 km en théorie, organisée par des footeux après la 3ème mi-temps :)]]></desc>
  </metadata>
  <trk>
    <name><![CDATA[2011-05-01 08:28]]></name>
    <desc><![CDATA[Vernou]]></desc>
    <trkseg>
      <trkpt lat="47.4284" lon="0.84712">
        <ele>106</ele>
        <time>2011-05-01T06:28:11Z</time>
      </trkpt>
      <trkpt lat="47.42844" lon="0.84711">
        <ele>106</ele>
        <time>2011-05-01T06:28:17Z</time>
      </trkpt>
      <trkpt lat="47.42844" lon="0.84711">
        <ele>106</ele>
        <time>2011-05-01T06:28:17Z</time>
      </trkpt>
      <trkpt lat="47.42844" lon="0.84711">
        <ele>105</ele>
        <time>2011-05-01T06:29:25Z</time>
      </trkpt>
      <trkpt lat="47.42841" lon="0.84706">
        <ele>106</ele>
        <time>2011-05-01T06:29:28Z</time>
      </trkpt>
      <trkpt lat="47.42841" lon="0.84706">
        <ele>106</ele>
        <time>2011-05-01T06:29:28Z</time>
      </trkpt>
      <trkpt lat="47.42841" lon="0.84706">
        <ele>106</ele>
        <time>2011-05-01T06:29:29Z</time>
      </trkpt>
      <trkpt lat="47.42838" lon="0.847">
        <ele>107</ele>
        <time>2011-05-01T06:29:31Z</time>
      </trkpt>
      <trkpt lat="47.42831" lon="0.84697">
        <ele>108</ele>
        <time>2011-05-01T06:29:34Z</time>
      </trkpt>
      <trkpt lat="47.42826" lon="0.84695">
        <ele>109</ele>
        <time>2011-05-01T06:29:36Z</time>
      </trkpt>
      <trkpt lat="47.4282" lon="0.84694">
        <ele>109</ele>
        <time>2011-05-01T06:29:38Z</time>
      </trkpt>
      <trkpt lat="47.42814" lon="0.84693">
        <ele>108</ele>
        <time>2011-05-01T06:29:40Z</time>
      </trkpt>
      <trkpt lat="47.42808" lon="0.84691">
        <ele>108</ele>
        <time>2011-05-01T06:29:42Z</time>
      </trkpt>
      <trkpt lat="47.42803" lon="0.84691">
        <ele>108</ele>
        <time>2011-05-01T06:29:44Z</time>
      </trkpt>
      <trkpt lat="47.42798" lon="0.84689">
        <ele>108</ele>
        <time>2011-05-01T06:29:47Z</time>
      </trkpt>
      <trkpt lat="47.42792" lon="0.84684">
        <ele>111</ele>
        <time>2011-05-01T06:29:50Z</time>
      </trkpt>
      <trkpt lat="47.42787" lon="0.84678">
        <ele>112</ele>
        <time>2011-05-01T06:29:52Z</time>
      </trkpt>
      <trkpt lat="47.4279" lon="0.84671">
        <ele>112</ele>
        <time>2011-05-01T06:29:59Z</time>
      </trkpt>
      <trkpt lat="47.42794" lon="0.84665">
        <ele>113</ele>
        <time>2011-05-01T06:30:01Z</time>
      </trkpt>
      <trkpt lat="47.42797" lon="0.84661">
        <ele>113</ele>
        <time>2011-05-01T06:30:03Z</time>
      </trkpt>
      <trkpt lat="47.42803" lon="0.84656">
        <ele>114</ele>
        <time>2011-05-01T06:30:06Z</time>
      </trkpt>
      <trkpt lat="47.42808" lon="0.84651">
        <ele>113</ele>
        <time>2011-05-01T06:30:09Z</time>
      </trkpt>
      <trkpt lat="47.42811" lon="0.84644">
        <ele>113</ele>
        <time>2011-05-01T06:30:12Z</time>
      </trkpt>
      <trkpt lat="47.42814" lon="0.84636">
        <ele>112</ele>
        <time>2011-05-01T06:30:14Z</time>
      </trkpt>
      <trkpt lat="47.42818" lon="0.84629">
        <ele>111</ele>
        <time>2011-05-01T06:30:17Z</time>
      </trkpt>
      <trkpt lat="47.42822" lon="0.84625">
        <ele>110</ele>
        <time>2011-05-01T06:30:19Z</time>
      </trkpt>
      <trkpt lat="47.42825" lon="0.84618">
        <ele>109</ele>
        <time>2011-05-01T06:30:21Z</time>
      </trkpt>
      <trkpt lat="47.4283" lon="0.84614">
        <ele>109</ele>
        <time>2011-05-01T06:30:23Z</time>
      </trkpt>
      <trkpt lat="47.42835" lon="0.84609">
        <ele>111</ele>
        <time>2011-05-01T06:30:25Z</time>
      </trkpt>
      <trkpt lat="47.42839" lon="0.84604">
        <ele>112</ele>
        <time>2011-05-01T06:30:27Z</time>
      </trkpt>
      <trkpt lat="47.42847" lon="0.84602">
        <ele>113</ele>
        <time>2011-05-01T06:30:30Z</time>
      </trkpt>
      <trkpt lat="47.42852" lon="0.84604">
        <ele>113</ele>
        <time>2011-05-01T06:30:32Z</time>
      </trkpt>
      <trkpt lat="47.42858" lon="0.84607">
        <ele>114</ele>
        <time>2011-05-01T06:30:34Z</time>
      </trkpt>
      <trkpt lat="47.42864" lon="0.84611">
        <ele>113</ele>
        <time>2011-05-01T06:30:36Z</time>
      </trkpt>
      <trkpt lat="47.42871" lon="0.84614">
        <ele>112</ele>
        <time>2011-05-01T06:30:38Z</time>
      </trkpt>
      <trkpt lat="47.42876" lon="0.84618">
        <ele>113</ele>
        <time>2011-05-01T06:30:40Z</time>
      </trkpt>
      <trkpt lat="47.42882" lon="0.84623">
        <ele>112</ele>
        <time>2011-05-01T06:30:42Z</time>
      </trkpt>
      <trkpt lat="47.42886" lon="0.84626">
        <ele>111</ele>
        <time>2011-05-01T06:30:43Z</time>
      </trkpt>
      <trkpt lat="47.42892" lon="0.84631">
        <ele>110</ele>
        <time>2011-05-01T06:30:45Z</time>
      </trkpt>
      <trkpt lat="47.42899" lon="0.84635">
        <ele>111</ele>
        <time>2011-05-01T06:30:47Z</time>
      </trkpt>
      <trkpt lat="47.42903" lon="0.84639">
        <ele>111</ele>
        <time>2011-05-01T06:30:48Z</time>
      </trkpt>
      <trkpt lat="47.42909" lon="0.84641">
        <ele>111</ele>
        <time>2011-05-01T06:30:50Z</time>
      </trkpt>
      <trkpt lat="47.42917" lon="0.84645">
        <ele>110</ele>
        <time>2011-05-01T06:30:52Z</time>
      </trkpt>
      <trkpt lat="47.42924" lon="0.84648">
        <ele>110</ele>
        <time>2011-05-01T06:30:54Z</time>
      </trkpt>
      <trkpt lat="47.42932" lon="0.84652">
        <ele>110</ele>
        <time>2011-05-01T06:30:56Z</time>
      </trkpt>
      <trkpt lat="47.42939" lon="0.84658">
        <ele>110</ele>
        <time>2011-05-01T06:30:58Z</time>
      </trkpt>
      <trkpt lat="47.42947" lon="0.84661">
        <ele>109</ele>
        <time>2011-05-01T06:31:00Z</time>
      </trkpt>
      <trkpt lat="47.42951" lon="0.84664">
        <ele>108</ele>
        <time>2011-05-01T06:31:01Z</time>
      </trkpt>
      <trkpt lat="47.42955" lon="0.84669">
        <ele>108</ele>
        <time>2011-05-01T06:31:02Z</time>
      </trkpt>
      <trkpt lat="47.42961" lon="0.84673">
        <ele>104</ele>
        <time>2011-05-01T06:31:03Z</time>
      </trkpt>
      <trkpt lat="47.42969" lon="0.84677">
        <ele>102</ele>
        <time>2011-05-01T06:31:05Z</time>
      </trkpt>
      <trkpt lat="47.42973" lon="0.8468">
        <ele>100</ele>
        <time>2011-05-01T06:31:06Z</time>
      </trkpt>
      <trkpt lat="47.42978" lon="0.84682">
        <ele>100</ele>
        <time>2011-05-01T06:31:07Z</time>
      </trkpt>
      <trkpt lat="47.42986" lon="0.84686">
        <ele>101</ele>
        <time>2011-05-01T06:31:09Z</time>
      </trkpt>
      <trkpt lat="47.42994" lon="0.8469">
        <ele>102</ele>
        <time>2011-05-01T06:31:11Z</time>
      </trkpt>
      <trkpt lat="47.42998" lon="0.84692">
        <ele>101</ele>
        <time>2011-05-01T06:31:12Z</time>
      </trkpt>
      <trkpt lat="47.43006" lon="0.84697">
        <ele>100</ele>
        <time>2011-05-01T06:31:14Z</time>
      </trkpt>
      <trkpt lat="47.43014" lon="0.84701">
        <ele>100</ele>
        <time>2011-05-01T06:31:16Z</time>
      </trkpt>
      <trkpt lat="47.43021" lon="0.84707">
        <ele>99</ele>
        <time>2011-05-01T06:31:18Z</time>
      </trkpt>
      <trkpt lat="47.43028" lon="0.84712">
        <ele>99</ele>
        <time>2011-05-01T06:31:20Z</time>
      </trkpt>
      <trkpt lat="47.43035" lon="0.84716">
        <ele>99</ele>
        <time>2011-05-01T06:31:22Z</time>
      </trkpt>
      <trkpt lat="47.43042" lon="0.8472">
        <ele>100</ele>
        <time>2011-05-01T06:31:24Z</time>
      </trkpt>
      <trkpt lat="47.4305" lon="0.84724">
        <ele>99</ele>
        <time>2011-05-01T06:31:26Z</time>
      </trkpt>
      <trkpt lat="47.43057" lon="0.84728">
        <ele>99</ele>
        <time>2011-05-01T06:31:28Z</time>
      </trkpt>
      <trkpt lat="47.43063" lon="0.84732">
        <ele>99</ele>
        <time>2011-05-01T06:31:30Z</time>
      </trkpt>
      <trkpt lat="47.4307" lon="0.84735">
        <ele>100</ele>
        <time>2011-05-01T06:31:32Z</time>
      </trkpt>
      <trkpt lat="47.43078" lon="0.84737">
        <ele>100</ele>
        <time>2011-05-01T06:31:34Z</time>
      </trkpt>
      <trkpt lat="47.43085" lon="0.84738">
        <ele>100</ele>
        <time>2011-05-01T06:31:36Z</time>
      </trkpt>
      <trkpt lat="47.43092" lon="0.84738">
        <ele>100</ele>
        <time>2011-05-01T06:31:38Z</time>
      </trkpt>
      <trkpt lat="47.431" lon="0.84736">
        <ele>100</ele>
        <time>2011-05-01T06:31:40Z</time>
      </trkpt>
      <trkpt lat="47.43107" lon="0.84732">
        <ele>100</ele>
        <time>2011-05-01T06:31:42Z</time>
      </trkpt>
      <trkpt lat="47.43115" lon="0.84728">
        <ele>100</ele>
        <time>2011-05-01T06:31:44Z</time>
      </trkpt>
      <trkpt lat="47.43121" lon="0.84724">
        <ele>99</ele>
        <time>2011-05-01T06:31:46Z</time>
      </trkpt>
      <trkpt lat="47.43128" lon="0.84719">
        <ele>98</ele>
        <time>2011-05-01T06:31:48Z</time>
      </trkpt>
      <trkpt lat="47.43135" lon="0.84714">
        <ele>97</ele>
        <time>2011-05-01T06:31:50Z</time>
      </trkpt>
      <trkpt lat="47.43141" lon="0.8471">
        <ele>97</ele>
        <time>2011-05-01T06:31:52Z</time>
      </trkpt>
      <trkpt lat="47.43148" lon="0.84705">
        <ele>97</ele>
        <time>2011-05-01T06:31:54Z</time>
      </trkpt>
      <trkpt lat="47.43154" lon="0.84701">
        <ele>98</ele>
        <time>2011-05-01T06:31:56Z</time>
      </trkpt>
      <trkpt lat="47.43161" lon="0.84696">
        <ele>98</ele>
        <time>2011-05-01T06:31:58Z</time>
      </trkpt>
      <trkpt lat="47.43167" lon="0.84691">
        <ele>98</ele>
        <time>2011-05-01T06:32:00Z</time>
      </trkpt>
      <trkpt lat="47.43174" lon="0.84685">
        <ele>99</ele>
        <time>2011-05-01T06:32:02Z</time>
      </trkpt>
      <trkpt lat="47.43181" lon="0.84681">
        <ele>99</ele>
        <time>2011-05-01T06:32:04Z</time>
      </trkpt>
      <trkpt lat="47.43188" lon="0.84678">
        <ele>98</ele>
        <time>2011-05-01T06:32:06Z</time>
      </trkpt>
      <trkpt lat="47.43194" lon="0.84675">
        <ele>99</ele>
        <time>2011-05-01T06:32:08Z</time>
      </trkpt>
      <trkpt lat="47.43201" lon="0.84672">
        <ele>99</ele>
        <time>2011-05-01T06:32:10Z</time>
      </trkpt>
      <trkpt lat="47.43208" lon="0.8467">
        <ele>99</ele>
        <time>2011-05-01T06:32:12Z</time>
      </trkpt>
      <trkpt lat="47.43214" lon="0.84668">
        <ele>100</ele>
        <time>2011-05-01T06:32:14Z</time>
      </trkpt>
      <trkpt lat="47.43221" lon="0.84668">
        <ele>100</ele>
        <time>2011-05-01T06:32:16Z</time>
      </trkpt>
      <trkpt lat="47.43228" lon="0.84666">
        <ele>100</ele>
        <time>2011-05-01T06:32:18Z</time>
      </trkpt>
      <trkpt lat="47.43234" lon="0.84666">
        <ele>100</ele>
        <time>2011-05-01T06:32:20Z</time>
      </trkpt>
      <trkpt lat="47.43241" lon="0.84666">
        <ele>100</ele>
        <time>2011-05-01T06:32:22Z</time>
      </trkpt>
      <trkpt lat="47.43248" lon="0.84666">
        <ele>101</ele>
        <time>2011-05-01T06:32:24Z</time>
      </trkpt>
      <trkpt lat="47.43254" lon="0.84667">
        <ele>101</ele>
        <time>2011-05-01T06:32:26Z</time>
      </trkpt>
      <trkpt lat="47.43261" lon="0.84667">
        <ele>102</ele>
        <time>2011-05-01T06:32:28Z</time>
      </trkpt>
      <trkpt lat="47.43268" lon="0.84667">
        <ele>102</ele>
        <time>2011-05-01T06:32:30Z</time>
      </trkpt>
      <trkpt lat="47.43274" lon="0.84668">
        <ele>102</ele>
        <time>2011-05-01T06:32:32Z</time>
      </trkpt>
      <trkpt lat="47.43282" lon="0.84668">
        <ele>103</ele>
        <time>2011-05-01T06:32:34Z</time>
      </trkpt>
      <trkpt lat="47.43289" lon="0.84668">
        <ele>103</ele>
        <time>2011-05-01T06:32:36Z</time>
      </trkpt>
      <trkpt lat="47.43294" lon="0.84669">
        <ele>104</ele>
        <time>2011-05-01T06:32:38Z</time>
      </trkpt>
      <trkpt lat="47.43298" lon="0.84669">
        <ele>103</ele>
        <time>2011-05-01T06:32:40Z</time>
      </trkpt>
      <trkpt lat="47.43298" lon="0.84662">
        <ele>104</ele>
        <time>2011-05-01T06:32:42Z</time>
      </trkpt>
      <trkpt lat="47.43298" lon="0.84652">
        <ele>104</ele>
        <time>2011-05-01T06:32:44Z</time>
      </trkpt>
      <trkpt lat="47.43295" lon="0.84643">
        <ele>105</ele>
        <time>2011-05-01T06:32:46Z</time>
      </trkpt>
      <trkpt lat="47.43293" lon="0.84634">
        <ele>105</ele>
        <time>2011-05-01T06:32:48Z</time>
      </trkpt>
      <trkpt lat="47.43292" lon="0.84624">
        <ele>104</ele>
        <time>2011-05-01T06:32:50Z</time>
      </trkpt>
      <trkpt lat="47.43288" lon="0.84614">
        <ele>105</ele>
        <time>2011-05-01T06:32:52Z</time>
      </trkpt>
      <trkpt lat="47.43286" lon="0.84606">
        <ele>105</ele>
        <time>2011-05-01T06:32:54Z</time>
      </trkpt>
      <trkpt lat="47.43284" lon="0.84597">
        <ele>105</ele>
        <time>2011-05-01T06:32:56Z</time>
      </trkpt>
      <trkpt lat="47.43284" lon="0.84588">
        <ele>105</ele>
        <time>2011-05-01T06:32:58Z</time>
      </trkpt>
      <trkpt lat="47.43281" lon="0.84579">
        <ele>106</ele>
        <time>2011-05-01T06:33:00Z</time>
      </trkpt>
      <trkpt lat="47.43278" lon="0.84571">
        <ele>106</ele>
        <time>2011-05-01T06:33:02Z</time>
      </trkpt>
      <trkpt lat="47.43276" lon="0.84562">
        <ele>107</ele>
        <time>2011-05-01T06:33:04Z</time>
      </trkpt>
      <trkpt lat="47.43274" lon="0.84553">
        <ele>106</ele>
        <time>2011-05-01T06:33:06Z</time>
      </trkpt>
      <trkpt lat="47.43273" lon="0.84543">
        <ele>106</ele>
        <time>2011-05-01T06:33:08Z</time>
      </trkpt>
      <trkpt lat="47.43272" lon="0.84533">
        <ele>106</ele>
        <time>2011-05-01T06:33:10Z</time>
      </trkpt>
      <trkpt lat="47.43269" lon="0.84523">
        <ele>106</ele>
        <time>2011-05-01T06:33:12Z</time>
      </trkpt>
      <trkpt lat="47.43268" lon="0.84514">
        <ele>106</ele>
        <time>2011-05-01T06:33:14Z</time>
      </trkpt>
      <trkpt lat="47.43267" lon="0.84506">
        <ele>106</ele>
        <time>2011-05-01T06:33:16Z</time>
      </trkpt>
      <trkpt lat="47.43267" lon="0.84497">
        <ele>107</ele>
        <time>2011-05-01T06:33:18Z</time>
      </trkpt>
      <trkpt lat="47.43265" lon="0.84488">
        <ele>108</ele>
        <time>2011-05-01T06:33:20Z</time>
      </trkpt>
      <trkpt lat="47.43263" lon="0.84481">
        <ele>108</ele>
        <time>2011-05-01T06:33:22Z</time>
      </trkpt>
      <trkpt lat="47.43262" lon="0.84469">
        <ele>108</ele>
        <time>2011-05-01T06:33:24Z</time>
      </trkpt>
      <trkpt lat="47.43262" lon="0.84461">
        <ele>108</ele>
        <time>2011-05-01T06:33:26Z</time>
      </trkpt>
      <trkpt lat="47.43262" lon="0.84451">
        <ele>109</ele>
        <time>2011-05-01T06:33:28Z</time>
      </trkpt>
      <trkpt lat="47.43261" lon="0.84441">
        <ele>110</ele>
        <time>2011-05-01T06:33:30Z</time>
      </trkpt>
      <trkpt lat="47.43261" lon="0.84433">
        <ele>110</ele>
        <time>2011-05-01T06:33:32Z</time>
      </trkpt>
      <trkpt lat="47.43261" lon="0.84424">
        <ele>111</ele>
        <time>2011-05-01T06:33:34Z</time>
      </trkpt>
      <trkpt lat="47.43261" lon="0.84414">
        <ele>112</ele>
        <time>2011-05-01T06:33:36Z</time>
      </trkpt>
      <trkpt lat="47.43261" lon="0.84405">
        <ele>112</ele>
        <time>2011-05-01T06:33:38Z</time>
      </trkpt>
      <trkpt lat="47.43261" lon="0.84397">
        <ele>112</ele>
        <time>2011-05-01T06:33:40Z</time>
      </trkpt>
      <trkpt lat="47.43261" lon="0.84387">
        <ele>112</ele>
        <time>2011-05-01T06:33:42Z</time>
      </trkpt>
      <trkpt lat="47.4326" lon="0.84378">
        <ele>113</ele>
        <time>2011-05-01T06:33:44Z</time>
      </trkpt>
      <trkpt lat="47.4326" lon="0.84369">
        <ele>113</ele>
        <time>2011-05-01T06:33:46Z</time>
      </trkpt>
      <trkpt lat="47.43259" lon="0.8436">
        <ele>114</ele>
        <time>2011-05-01T06:33:48Z</time>
      </trkpt>
      <trkpt lat="47.43259" lon="0.8435">
        <ele>115</ele>
        <time>2011-05-01T06:33:50Z</time>
      </trkpt>
      <trkpt lat="47.43257" lon="0.84342">
        <ele>117</ele>
        <time>2011-05-01T06:33:52Z</time>
      </trkpt>
      <trkpt lat="47.43254" lon="0.84332">
        <ele>116</ele>
        <time>2011-05-01T06:33:54Z</time>
      </trkpt>
      <trkpt lat="47.43254" lon="0.84323">
        <ele>117</ele>
        <time>2011-05-01T06:33:56Z</time>
      </trkpt>
      <trkpt lat="47.43253" lon="0.84313">
        <ele>118</ele>
        <time>2011-05-01T06:33:58Z</time>
      </trkpt>
      <trkpt lat="47.43251" lon="0.84304">
        <ele>119</ele>
        <time>2011-05-01T06:34:00Z</time>
      </trkpt>
      <trkpt lat="47.43249" lon="0.84295">
        <ele>119</ele>
        <time>2011-05-01T06:34:02Z</time>
      </trkpt>
      <trkpt lat="47.43247" lon="0.84285">
        <ele>119</ele>
        <time>2011-05-01T06:34:04Z</time>
      </trkpt>
      <trkpt lat="47.43247" lon="0.84274">
        <ele>119</ele>
        <time>2011-05-01T06:34:06Z</time>
      </trkpt>
      <trkpt lat="47.43245" lon="0.84265">
        <ele>119</ele>
        <time>2011-05-01T06:34:08Z</time>
      </trkpt>
      <trkpt lat="47.43242" lon="0.84256">
        <ele>118</ele>
        <time>2011-05-01T06:34:10Z</time>
      </trkpt>
      <trkpt lat="47.43241" lon="0.84246">
        <ele>119</ele>
        <time>2011-05-01T06:34:12Z</time>
      </trkpt>
      <trkpt lat="47.43239" lon="0.84238">
        <ele>119</ele>
        <time>2011-05-01T06:34:14Z</time>
      </trkpt>
      <trkpt lat="47.43238" lon="0.8423">
        <ele>119</ele>
        <time>2011-05-01T06:34:16Z</time>
      </trkpt>
      <trkpt lat="47.43235" lon="0.8422">
        <ele>119</ele>
        <time>2011-05-01T06:34:18Z</time>
      </trkpt>
      <trkpt lat="47.43234" lon="0.84212">
        <ele>120</ele>
        <time>2011-05-01T06:34:20Z</time>
      </trkpt>
      <trkpt lat="47.43231" lon="0.84202">
        <ele>119</ele>
        <time>2011-05-01T06:34:22Z</time>
      </trkpt>
      <trkpt lat="47.43229" lon="0.84192">
        <ele>120</ele>
        <time>2011-05-01T06:34:24Z</time>
      </trkpt>
      <trkpt lat="47.43228" lon="0.84181">
        <ele>121</ele>
        <time>2011-05-01T06:34:26Z</time>
      </trkpt>
      <trkpt lat="47.43226" lon="0.84172">
        <ele>120</ele>
        <time>2011-05-01T06:34:28Z</time>
      </trkpt>
      <trkpt lat="47.43224" lon="0.84164">
        <ele>121</ele>
        <time>2011-05-01T06:34:30Z</time>
      </trkpt>
      <trkpt lat="47.43223" lon="0.84153">
        <ele>121</ele>
        <time>2011-05-01T06:34:32Z</time>
      </trkpt>
      <trkpt lat="47.43223" lon="0.84145">
        <ele>121</ele>
        <time>2011-05-01T06:34:34Z</time>
      </trkpt>
      <trkpt lat="47.43223" lon="0.84135">
        <ele>121</ele>
        <time>2011-05-01T06:34:36Z</time>
      </trkpt>
      <trkpt lat="47.43224" lon="0.84126">
        <ele>123</ele>
        <time>2011-05-01T06:34:38Z</time>
      </trkpt>
      <trkpt lat="47.43227" lon="0.84118">
        <ele>124</ele>
        <time>2011-05-01T06:34:40Z</time>
      </trkpt>
      <trkpt lat="47.43226" lon="0.84108">
        <ele>124</ele>
        <time>2011-05-01T06:34:42Z</time>
      </trkpt>
      <trkpt lat="47.43224" lon="0.84098">
        <ele>125</ele>
        <time>2011-05-01T06:34:44Z</time>
      </trkpt>
      <trkpt lat="47.43219" lon="0.84087">
        <ele>124</ele>
        <time>2011-05-01T06:34:46Z</time>
      </trkpt>
      <trkpt lat="47.43217" lon="0.84081">
        <ele>125</ele>
        <time>2011-05-01T06:34:47Z</time>
      </trkpt>
      <trkpt lat="47.43214" lon="0.84071">
        <ele>126</ele>
        <time>2011-05-01T06:34:49Z</time>
      </trkpt>
      <trkpt lat="47.4321" lon="0.8406">
        <ele>127</ele>
        <time>2011-05-01T06:34:51Z</time>
      </trkpt>
      <trkpt lat="47.43208" lon="0.8405">
        <ele>128</ele>
        <time>2011-05-01T06:34:53Z</time>
      </trkpt>
      <trkpt lat="47.43205" lon="0.84042">
        <ele>128</ele>
        <time>2011-05-01T06:34:55Z</time>
      </trkpt>
      <trkpt lat="47.43204" lon="0.84033">
        <ele>128</ele>
        <time>2011-05-01T06:34:57Z</time>
      </trkpt>
      <trkpt lat="47.43202" lon="0.84023">
        <ele>128</ele>
        <time>2011-05-01T06:34:59Z</time>
      </trkpt>
      <trkpt lat="47.43201" lon="0.84015">
        <ele>128</ele>
        <time>2011-05-01T06:35:01Z</time>
      </trkpt>
      <trkpt lat="47.432" lon="0.84005">
        <ele>129</ele>
        <time>2011-05-01T06:35:03Z</time>
      </trkpt>
      <trkpt lat="47.432" lon="0.83994">
        <ele>129</ele>
        <time>2011-05-01T06:35:05Z</time>
      </trkpt>
      <trkpt lat="47.432" lon="0.83984">
        <ele>130</ele>
        <time>2011-05-01T06:35:07Z</time>
      </trkpt>
      <trkpt lat="47.43201" lon="0.83974">
        <ele>130</ele>
        <time>2011-05-01T06:35:09Z</time>
      </trkpt>
      <trkpt lat="47.43199" lon="0.83965">
        <ele>130</ele>
        <time>2011-05-01T06:35:11Z</time>
      </trkpt>
      <trkpt lat="47.43193" lon="0.83962">
        <ele>131</ele>
        <time>2011-05-01T06:35:13Z</time>
      </trkpt>
      <trkpt lat="47.43188" lon="0.83958">
        <ele>132</ele>
        <time>2011-05-01T06:35:15Z</time>
      </trkpt>
      <trkpt lat="47.43183" lon="0.83957">
        <ele>132</ele>
        <time>2011-05-01T06:35:17Z</time>
      </trkpt>
      <trkpt lat="47.43178" lon="0.83958">
        <ele>132</ele>
        <time>2011-05-01T06:35:19Z</time>
      </trkpt>
      <trkpt lat="47.43171" lon="0.83961">
        <ele>133</ele>
        <time>2011-05-01T06:35:21Z</time>
      </trkpt>
      <trkpt lat="47.43165" lon="0.83963">
        <ele>133</ele>
        <time>2011-05-01T06:35:23Z</time>
      </trkpt>
      <trkpt lat="47.43159" lon="0.83964">
        <ele>133</ele>
        <time>2011-05-01T06:35:25Z</time>
      </trkpt>
      <trkpt lat="47.43153" lon="0.83966">
        <ele>133</ele>
        <time>2011-05-01T06:35:27Z</time>
      </trkpt>
      <trkpt lat="47.43147" lon="0.83969">
        <ele>133</ele>
        <time>2011-05-01T06:35:29Z</time>
      </trkpt>
      <trkpt lat="47.43142" lon="0.83971">
        <ele>133</ele>
        <time>2011-05-01T06:35:31Z</time>
      </trkpt>
      <trkpt lat="47.43136" lon="0.83974">
        <ele>132</ele>
        <time>2011-05-01T06:35:33Z</time>
      </trkpt>
      <trkpt lat="47.43131" lon="0.83976">
        <ele>134</ele>
        <time>2011-05-01T06:35:35Z</time>
      </trkpt>
      <trkpt lat="47.43125" lon="0.83977">
        <ele>135</ele>
        <time>2011-05-01T06:35:37Z</time>
      </trkpt>
      <trkpt lat="47.4312" lon="0.83979">
        <ele>135</ele>
        <time>2011-05-01T06:35:39Z</time>
      </trkpt>
      <trkpt lat="47.43114" lon="0.8398">
        <ele>136</ele>
        <time>2011-05-01T06:35:41Z</time>
      </trkpt>
      <trkpt lat="47.43109" lon="0.83982">
        <ele>136</ele>
        <time>2011-05-01T06:35:43Z</time>
      </trkpt>
      <trkpt lat="47.43104" lon="0.83983">
        <ele>136</ele>
        <time>2011-05-01T06:35:45Z</time>
      </trkpt>
      <trkpt lat="47.43098" lon="0.83985">
        <ele>136</ele>
        <time>2011-05-01T06:35:47Z</time>
      </trkpt>
      <trkpt lat="47.43092" lon="0.83987">
        <ele>137</ele>
        <time>2011-05-01T06:35:49Z</time>
      </trkpt>
      <trkpt lat="47.43085" lon="0.83988">
        <ele>138</ele>
        <time>2011-05-01T06:35:51Z</time>
      </trkpt>
      <trkpt lat="47.43079" lon="0.83991">
        <ele>137</ele>
        <time>2011-05-01T06:35:53Z</time>
      </trkpt>
      <trkpt lat="47.43074" lon="0.83993">
        <ele>138</ele>
        <time>2011-05-01T06:35:55Z</time>
      </trkpt>
      <trkpt lat="47.43068" lon="0.83996">
        <ele>137</ele>
        <time>2011-05-01T06:35:57Z</time>
      </trkpt>
      <trkpt lat="47.43062" lon="0.84">
        <ele>139</ele>
        <time>2011-05-01T06:35:59Z</time>
      </trkpt>
      <trkpt lat="47.43057" lon="0.84002">
        <ele>139</ele>
        <time>2011-05-01T06:36:01Z</time>
      </trkpt>
      <trkpt lat="47.43052" lon="0.84007">
        <ele>139</ele>
        <time>2011-05-01T06:36:03Z</time>
      </trkpt>
      <trkpt lat="47.43046" lon="0.8401">
        <ele>139</ele>
        <time>2011-05-01T06:36:05Z</time>
      </trkpt>
      <trkpt lat="47.4304" lon="0.84012">
        <ele>139</ele>
        <time>2011-05-01T06:36:07Z</time>
      </trkpt>
      <trkpt lat="47.43034" lon="0.84016">
        <ele>140</ele>
        <time>2011-05-01T06:36:09Z</time>
      </trkpt>
      <trkpt lat="47.43029" lon="0.84021">
        <ele>140</ele>
        <time>2011-05-01T06:36:11Z</time>
      </trkpt>
      <trkpt lat="47.43023" lon="0.84025">
        <ele>140</ele>
        <time>2011-05-01T06:36:13Z</time>
      </trkpt>
      <trkpt lat="47.43017" lon="0.8403">
        <ele>140</ele>
        <time>2011-05-01T06:36:15Z</time>
      </trkpt>
      <trkpt lat="47.43011" lon="0.84034">
        <ele>141</ele>
        <time>2011-05-01T06:36:17Z</time>
      </trkpt>
      <trkpt lat="47.43005" lon="0.84039">
        <ele>141</ele>
        <time>2011-05-01T06:36:19Z</time>
      </trkpt>
      <trkpt lat="47.42998" lon="0.84044">
        <ele>141</ele>
        <time>2011-05-01T06:36:21Z</time>
      </trkpt>
      <trkpt lat="47.42992" lon="0.84047">
        <ele>141</ele>
        <time>2011-05-01T06:36:23Z</time>
      </trkpt>
      <trkpt lat="47.42987" lon="0.84051">
        <ele>141</ele>
        <time>2011-05-01T06:36:25Z</time>
      </trkpt>
      <trkpt lat="47.42981" lon="0.84055">
        <ele>141</ele>
        <time>2011-05-01T06:36:27Z</time>
      </trkpt>
      <trkpt lat="47.42974" lon="0.84059">
        <ele>141</ele>
        <time>2011-05-01T06:36:29Z</time>
      </trkpt>
      <trkpt lat="47.42967" lon="0.84064">
        <ele>142</ele>
        <time>2011-05-01T06:36:31Z</time>
      </trkpt>
      <trkpt lat="47.42961" lon="0.84068">
        <ele>143</ele>
        <time>2011-05-01T06:36:33Z</time>
      </trkpt>
      <trkpt lat="47.42956" lon="0.84072">
        <ele>143</ele>
        <time>2011-05-01T06:36:35Z</time>
      </trkpt>
      <trkpt lat="47.42948" lon="0.8407">
        <ele>142</ele>
        <time>2011-05-01T06:36:37Z</time>
      </trkpt>
      <trkpt lat="47.42945" lon="0.84062">
        <ele>141</ele>
        <time>2011-05-01T06:36:39Z</time>
      </trkpt>
      <trkpt lat="47.42944" lon="0.84054">
        <ele>141</ele>
        <time>2011-05-01T06:36:41Z</time>
      </trkpt>
      <trkpt lat="47.42943" lon="0.84044">
        <ele>141</ele>
        <time>2011-05-01T06:36:43Z</time>
      </trkpt>
      <trkpt lat="47.42941" lon="0.84035">
        <ele>141</ele>
        <time>2011-05-01T06:36:45Z</time>
      </trkpt>
      <trkpt lat="47.4294" lon="0.84025">
        <ele>141</ele>
        <time>2011-05-01T06:36:47Z</time>
      </trkpt>
      <trkpt lat="47.42939" lon="0.84015">
        <ele>141</ele>
        <time>2011-05-01T06:36:49Z</time>
      </trkpt>
      <trkpt lat="47.42938" lon="0.84005">
        <ele>140</ele>
        <time>2011-05-01T06:36:51Z</time>
      </trkpt>
      <trkpt lat="47.42937" lon="0.83996">
        <ele>141</ele>
        <time>2011-05-01T06:36:53Z</time>
      </trkpt>
      <trkpt lat="47.42936" lon="0.83986">
        <ele>140</ele>
        <time>2011-05-01T06:36:55Z</time>
      </trkpt>
      <trkpt lat="47.42935" lon="0.83977">
        <ele>141</ele>
        <time>2011-05-01T06:36:57Z</time>
      </trkpt>
      <trkpt lat="47.42934" lon="0.83967">
        <ele>141</ele>
        <time>2011-05-01T06:36:59Z</time>
      </trkpt>
      <trkpt lat="47.42933" lon="0.83958">
        <ele>141</ele>
        <time>2011-05-01T06:37:01Z</time>
      </trkpt>
      <trkpt lat="47.42931" lon="0.83949">
        <ele>141</ele>
        <time>2011-05-01T06:37:03Z</time>
      </trkpt>
      <trkpt lat="47.42931" lon="0.83941">
        <ele>141</ele>
        <time>2011-05-01T06:37:05Z</time>
      </trkpt>
      <trkpt lat="47.4293" lon="0.83933">
        <ele>142</ele>
        <time>2011-05-01T06:37:07Z</time>
      </trkpt>
      <trkpt lat="47.42928" lon="0.83927">
        <ele>143</ele>
        <time>2011-05-01T06:37:12Z</time>
      </trkpt>
      <trkpt lat="47.4293" lon="0.83933">
        <ele>141</ele>
        <time>2011-05-01T06:37:19Z</time>
      </trkpt>
      <trkpt lat="47.42928" lon="0.83927">
        <ele>142</ele>
        <time>2011-05-01T06:37:34Z</time>
      </trkpt>
      <trkpt lat="47.42923" lon="0.8393">
        <ele>142</ele>
        <time>2011-05-01T06:37:56Z</time>
      </trkpt>
      <trkpt lat="47.42917" lon="0.8393">
        <ele>142</ele>
        <time>2011-05-01T06:37:58Z</time>
      </trkpt>
      <trkpt lat="47.42912" lon="0.8393">
        <ele>142</ele>
        <time>2011-05-01T06:38:00Z</time>
      </trkpt>
      <trkpt lat="47.42907" lon="0.8393">
        <ele>142</ele>
        <time>2011-05-01T06:38:02Z</time>
      </trkpt>
      <trkpt lat="47.42902" lon="0.83931">
        <ele>142</ele>
        <time>2011-05-01T06:38:04Z</time>
      </trkpt>
      <trkpt lat="47.42896" lon="0.83931">
        <ele>142</ele>
        <time>2011-05-01T06:38:06Z</time>
      </trkpt>
      <trkpt lat="47.42891" lon="0.8393">
        <ele>143</ele>
        <time>2011-05-01T06:38:08Z</time>
      </trkpt>
      <trkpt lat="47.42887" lon="0.83924">
        <ele>143</ele>
        <time>2011-05-01T06:38:10Z</time>
      </trkpt>
      <trkpt lat="47.42885" lon="0.83917">
        <ele>144</ele>
        <time>2011-05-01T06:38:12Z</time>
      </trkpt>
      <trkpt lat="47.42883" lon="0.8391">
        <ele>144</ele>
        <time>2011-05-01T06:38:14Z</time>
      </trkpt>
      <trkpt lat="47.42879" lon="0.839">
        <ele>144</ele>
        <time>2011-05-01T06:38:16Z</time>
      </trkpt>
      <trkpt lat="47.42876" lon="0.83891">
        <ele>144</ele>
        <time>2011-05-01T06:38:18Z</time>
      </trkpt>
      <trkpt lat="47.42874" lon="0.83884">
        <ele>145</ele>
        <time>2011-05-01T06:38:19Z</time>
      </trkpt>
      <trkpt lat="47.42871" lon="0.83873">
        <ele>145</ele>
        <time>2011-05-01T06:38:21Z</time>
      </trkpt>
      <trkpt lat="47.42869" lon="0.83863">
        <ele>145</ele>
        <time>2011-05-01T06:38:23Z</time>
      </trkpt>
      <trkpt lat="47.42866" lon="0.83852">
        <ele>145</ele>
        <time>2011-05-01T06:38:25Z</time>
      </trkpt>
      <trkpt lat="47.42863" lon="0.83842">
        <ele>145</ele>
        <time>2011-05-01T06:38:27Z</time>
      </trkpt>
      <trkpt lat="47.42859" lon="0.83831">
        <ele>145</ele>
        <time>2011-05-01T06:38:29Z</time>
      </trkpt>
      <trkpt lat="47.42856" lon="0.83821">
        <ele>145</ele>
        <time>2011-05-01T06:38:31Z</time>
      </trkpt>
      <trkpt lat="47.42854" lon="0.83812">
        <ele>146</ele>
        <time>2011-05-01T06:38:33Z</time>
      </trkpt>
      <trkpt lat="47.42852" lon="0.83802">
        <ele>146</ele>
        <time>2011-05-01T06:38:35Z</time>
      </trkpt>
      <trkpt lat="47.4285" lon="0.83791">
        <ele>146</ele>
        <time>2011-05-01T06:38:37Z</time>
      </trkpt>
      <trkpt lat="47.42847" lon="0.83782">
        <ele>146</ele>
        <time>2011-05-01T06:38:39Z</time>
      </trkpt>
      <trkpt lat="47.42845" lon="0.83771">
        <ele>146</ele>
        <time>2011-05-01T06:38:41Z</time>
      </trkpt>
      <trkpt lat="47.42843" lon="0.8376">
        <ele>147</ele>
        <time>2011-05-01T06:38:43Z</time>
      </trkpt>
      <trkpt lat="47.42839" lon="0.83749">
        <ele>148</ele>
        <time>2011-05-01T06:38:45Z</time>
      </trkpt>
      <trkpt lat="47.42837" lon="0.83738">
        <ele>149</ele>
        <time>2011-05-01T06:38:47Z</time>
      </trkpt>
      <trkpt lat="47.42834" lon="0.83728">
        <ele>148</ele>
        <time>2011-05-01T06:38:49Z</time>
      </trkpt>
      <trkpt lat="47.42831" lon="0.83717">
        <ele>146</ele>
        <time>2011-05-01T06:38:51Z</time>
      </trkpt>
      <trkpt lat="47.4283" lon="0.83706">
        <ele>146</ele>
        <time>2011-05-01T06:38:53Z</time>
      </trkpt>
      <trkpt lat="47.42828" lon="0.83695">
        <ele>146</ele>
        <time>2011-05-01T06:38:55Z</time>
      </trkpt>
      <trkpt lat="47.42826" lon="0.83684">
        <ele>146</ele>
        <time>2011-05-01T06:38:57Z</time>
      </trkpt>
      <trkpt lat="47.42824" lon="0.83672">
        <ele>147</ele>
        <time>2011-05-01T06:38:59Z</time>
      </trkpt>
      <trkpt lat="47.42821" lon="0.83662">
        <ele>146</ele>
        <time>2011-05-01T06:39:01Z</time>
      </trkpt>
      <trkpt lat="47.4282" lon="0.83653">
        <ele>147</ele>
        <time>2011-05-01T06:39:03Z</time>
      </trkpt>
      <trkpt lat="47.42818" lon="0.83643">
        <ele>147</ele>
        <time>2011-05-01T06:39:05Z</time>
      </trkpt>
      <trkpt lat="47.42816" lon="0.83633">
        <ele>147</ele>
        <time>2011-05-01T06:39:07Z</time>
      </trkpt>
      <trkpt lat="47.42813" lon="0.83622">
        <ele>148</ele>
        <time>2011-05-01T06:39:09Z</time>
      </trkpt>
      <trkpt lat="47.42811" lon="0.8361">
        <ele>149</ele>
        <time>2011-05-01T06:39:11Z</time>
      </trkpt>
      <trkpt lat="47.42811" lon="0.836">
        <ele>150</ele>
        <time>2011-05-01T06:39:13Z</time>
      </trkpt>
      <trkpt lat="47.42808" lon="0.83589">
        <ele>149</ele>
        <time>2011-05-01T06:39:15Z</time>
      </trkpt>
      <trkpt lat="47.42806" lon="0.83577">
        <ele>150</ele>
        <time>2011-05-01T06:39:17Z</time>
      </trkpt>
      <trkpt lat="47.42805" lon="0.83566">
        <ele>150</ele>
        <time>2011-05-01T06:39:19Z</time>
      </trkpt>
      <trkpt lat="47.42804" lon="0.83554">
        <ele>150</ele>
        <time>2011-05-01T06:39:21Z</time>
      </trkpt>
      <trkpt lat="47.42803" lon="0.83542">
        <ele>150</ele>
        <time>2011-05-01T06:39:23Z</time>
      </trkpt>
      <trkpt lat="47.42801" lon="0.83536">
        <ele>150</ele>
        <time>2011-05-01T06:39:24Z</time>
      </trkpt>
      <trkpt lat="47.42798" lon="0.83523">
        <ele>149</ele>
        <time>2011-05-01T06:39:26Z</time>
      </trkpt>
      <trkpt lat="47.42796" lon="0.83511">
        <ele>149</ele>
        <time>2011-05-01T06:39:28Z</time>
      </trkpt>
      <trkpt lat="47.42794" lon="0.83505">
        <ele>149</ele>
        <time>2011-05-01T06:39:29Z</time>
      </trkpt>
      <trkpt lat="47.4279" lon="0.83492">
        <ele>148</ele>
        <time>2011-05-01T06:39:31Z</time>
      </trkpt>
      <trkpt lat="47.42788" lon="0.83486">
        <ele>148</ele>
        <time>2011-05-01T06:39:32Z</time>
      </trkpt>
      <trkpt lat="47.42784" lon="0.83482">
        <ele>148</ele>
        <time>2011-05-01T06:39:33Z</time>
      </trkpt>
      <trkpt lat="47.4278" lon="0.83479">
        <ele>147</ele>
        <time>2011-05-01T06:39:34Z</time>
      </trkpt>
      <trkpt lat="47.42772" lon="0.83484">
        <ele>147</ele>
        <time>2011-05-01T06:39:36Z</time>
      </trkpt>
      <trkpt lat="47.42764" lon="0.83486">
        <ele>147</ele>
        <time>2011-05-01T06:39:38Z</time>
      </trkpt>
      <trkpt lat="47.42755" lon="0.83483">
        <ele>147</ele>
        <time>2011-05-01T06:39:40Z</time>
      </trkpt>
      <trkpt lat="47.42751" lon="0.83479">
        <ele>147</ele>
        <time>2011-05-01T06:39:41Z</time>
      </trkpt>
      <trkpt lat="47.42746" lon="0.83467">
        <ele>148</ele>
        <time>2011-05-01T06:39:43Z</time>
      </trkpt>
      <trkpt lat="47.42744" lon="0.8346">
        <ele>148</ele>
        <time>2011-05-01T06:39:44Z</time>
      </trkpt>
      <trkpt lat="47.42742" lon="0.83453">
        <ele>148</ele>
        <time>2011-05-01T06:39:45Z</time>
      </trkpt>
      <trkpt lat="47.42742" lon="0.83445">
        <ele>148</ele>
        <time>2011-05-01T06:39:46Z</time>
      </trkpt>
      <trkpt lat="47.4274" lon="0.83437">
        <ele>148</ele>
        <time>2011-05-01T06:39:47Z</time>
      </trkpt>
      <trkpt lat="47.42739" lon="0.83428">
        <ele>148</ele>
        <time>2011-05-01T06:39:48Z</time>
      </trkpt>
      <trkpt lat="47.42737" lon="0.83422">
        <ele>148</ele>
        <time>2011-05-01T06:39:49Z</time>
      </trkpt>
      <trkpt lat="47.42736" lon="0.83414">
        <ele>148</ele>
        <time>2011-05-01T06:39:50Z</time>
      </trkpt>
      <trkpt lat="47.42734" lon="0.83407">
        <ele>148</ele>
        <time>2011-05-01T06:39:51Z</time>
      </trkpt>
      <trkpt lat="47.42733" lon="0.834">
        <ele>148</ele>
        <time>2011-05-01T06:39:52Z</time>
      </trkpt>
      <trkpt lat="47.42731" lon="0.83392">
        <ele>148</ele>
        <time>2011-05-01T06:39:53Z</time>
      </trkpt>
      <trkpt lat="47.42731" lon="0.83384">
        <ele>147</ele>
        <time>2011-05-01T06:39:54Z</time>
      </trkpt>
      <trkpt lat="47.4273" lon="0.83375">
        <ele>147</ele>
        <time>2011-05-01T06:39:55Z</time>
      </trkpt>
      <trkpt lat="47.42729" lon="0.83367">
        <ele>147</ele>
        <time>2011-05-01T06:39:56Z</time>
      </trkpt>
      <trkpt lat="47.42726" lon="0.83359">
        <ele>146</ele>
        <time>2011-05-01T06:39:57Z</time>
      </trkpt>
      <trkpt lat="47.42725" lon="0.83351">
        <ele>146</ele>
        <time>2011-05-01T06:39:58Z</time>
      </trkpt>
      <trkpt lat="47.42725" lon="0.83343">
        <ele>146</ele>
        <time>2011-05-01T06:39:59Z</time>
      </trkpt>
      <trkpt lat="47.42721" lon="0.83336">
        <ele>146</ele>
        <time>2011-05-01T06:40:01Z</time>
      </trkpt>
      <trkpt lat="47.42712" lon="0.83336">
        <ele>147</ele>
        <time>2011-05-01T06:40:03Z</time>
      </trkpt>
      <trkpt lat="47.42707" lon="0.83339">
        <ele>147</ele>
        <time>2011-05-01T06:40:04Z</time>
      </trkpt>
      <trkpt lat="47.42702" lon="0.83344">
        <ele>147</ele>
        <time>2011-05-01T06:40:05Z</time>
      </trkpt>
      <trkpt lat="47.42696" lon="0.83348">
        <ele>147</ele>
        <time>2011-05-01T06:40:06Z</time>
      </trkpt>
      <trkpt lat="47.42689" lon="0.83354">
        <ele>146</ele>
        <time>2011-05-01T06:40:07Z</time>
      </trkpt>
      <trkpt lat="47.42683" lon="0.83359">
        <ele>146</ele>
        <time>2011-05-01T06:40:08Z</time>
      </trkpt>
      <trkpt lat="47.42677" lon="0.83365">
        <ele>145</ele>
        <time>2011-05-01T06:40:09Z</time>
      </trkpt>
      <trkpt lat="47.42671" lon="0.8337">
        <ele>145</ele>
        <time>2011-05-01T06:40:10Z</time>
      </trkpt>
      <trkpt lat="47.42666" lon="0.83376">
        <ele>145</ele>
        <time>2011-05-01T06:40:11Z</time>
      </trkpt>
      <trkpt lat="47.4266" lon="0.83382">
        <ele>145</ele>
        <time>2011-05-01T06:40:12Z</time>
      </trkpt>
      <trkpt lat="47.42657" lon="0.83389">
        <ele>144</ele>
        <time>2011-05-01T06:40:13Z</time>
      </trkpt>
      <trkpt lat="47.42653" lon="0.83397">
        <ele>144</ele>
        <time>2011-05-01T06:40:14Z</time>
      </trkpt>
      <trkpt lat="47.4265" lon="0.83405">
        <ele>144</ele>
        <time>2011-05-01T06:40:15Z</time>
      </trkpt>
      <trkpt lat="47.42646" lon="0.83412">
        <ele>144</ele>
        <time>2011-05-01T06:40:16Z</time>
      </trkpt>
      <trkpt lat="47.42643" lon="0.8342">
        <ele>144</ele>
        <time>2011-05-01T06:40:17Z</time>
      </trkpt>
      <trkpt lat="47.42639" lon="0.83428">
        <ele>143</ele>
        <time>2011-05-01T06:40:18Z</time>
      </trkpt>
      <trkpt lat="47.42635" lon="0.83435">
        <ele>143</ele>
        <time>2011-05-01T06:40:19Z</time>
      </trkpt>
      <trkpt lat="47.42631" lon="0.83442">
        <ele>142</ele>
        <time>2011-05-01T06:40:20Z</time>
      </trkpt>
      <trkpt lat="47.42627" lon="0.83449">
        <ele>142</ele>
        <time>2011-05-01T06:40:21Z</time>
      </trkpt>
      <trkpt lat="47.42621" lon="0.83455">
        <ele>142</ele>
        <time>2011-05-01T06:40:22Z</time>
      </trkpt>
      <trkpt lat="47.42615" lon="0.83461">
        <ele>141</ele>
        <time>2011-05-01T06:40:23Z</time>
      </trkpt>
      <trkpt lat="47.4261" lon="0.83466">
        <ele>141</ele>
        <time>2011-05-01T06:40:24Z</time>
      </trkpt>
      <trkpt lat="47.42605" lon="0.83471">
        <ele>141</ele>
        <time>2011-05-01T06:40:25Z</time>
      </trkpt>
      <trkpt lat="47.42599" lon="0.83476">
        <ele>141</ele>
        <time>2011-05-01T06:40:26Z</time>
      </trkpt>
      <trkpt lat="47.42593" lon="0.8348">
        <ele>141</ele>
        <time>2011-05-01T06:40:27Z</time>
      </trkpt>
      <trkpt lat="47.42587" lon="0.83483">
        <ele>141</ele>
        <time>2011-05-01T06:40:28Z</time>
      </trkpt>
      <trkpt lat="47.42583" lon="0.83488">
        <ele>140</ele>
        <time>2011-05-01T06:40:29Z</time>
      </trkpt>
      <trkpt lat="47.42577" lon="0.83493">
        <ele>139</ele>
        <time>2011-05-01T06:40:30Z</time>
      </trkpt>
      <trkpt lat="47.42571" lon="0.83497">
        <ele>138</ele>
        <time>2011-05-01T06:40:31Z</time>
      </trkpt>
      <trkpt lat="47.42566" lon="0.83501">
        <ele>138</ele>
        <time>2011-05-01T06:40:32Z</time>
      </trkpt>
      <trkpt lat="47.42558" lon="0.83506">
        <ele>138</ele>
        <time>2011-05-01T06:40:33Z</time>
      </trkpt>
      <trkpt lat="47.42553" lon="0.83511">
        <ele>138</ele>
        <time>2011-05-01T06:40:34Z</time>
      </trkpt>
      <trkpt lat="47.42546" lon="0.83516">
        <ele>138</ele>
        <time>2011-05-01T06:40:35Z</time>
      </trkpt>
      <trkpt lat="47.4254" lon="0.8352">
        <ele>139</ele>
        <time>2011-05-01T06:40:36Z</time>
      </trkpt>
      <trkpt lat="47.42535" lon="0.83526">
        <ele>139</ele>
        <time>2011-05-01T06:40:37Z</time>
      </trkpt>
      <trkpt lat="47.42531" lon="0.83531">
        <ele>139</ele>
        <time>2011-05-01T06:40:38Z</time>
      </trkpt>
      <trkpt lat="47.42524" lon="0.83537">
        <ele>139</ele>
        <time>2011-05-01T06:40:40Z</time>
      </trkpt>
      <trkpt lat="47.42517" lon="0.83541">
        <ele>139</ele>
        <time>2011-05-01T06:40:42Z</time>
      </trkpt>
      <trkpt lat="47.42513" lon="0.83545">
        <ele>139</ele>
        <time>2011-05-01T06:40:44Z</time>
      </trkpt>
      <trkpt lat="47.42512" lon="0.83552">
        <ele>139</ele>
        <time>2011-05-01T06:40:49Z</time>
      </trkpt>
      <trkpt lat="47.42515" lon="0.83559">
        <ele>136</ele>
        <time>2011-05-01T06:41:02Z</time>
      </trkpt>
      <trkpt lat="47.42517" lon="0.83575">
        <ele>135</ele>
        <time>2011-05-01T06:41:04Z</time>
      </trkpt>
      <trkpt lat="47.42518" lon="0.83581">
        <ele>135</ele>
        <time>2011-05-01T06:41:05Z</time>
      </trkpt>
      <trkpt lat="47.42519" lon="0.83588">
        <ele>135</ele>
        <time>2011-05-01T06:41:06Z</time>
      </trkpt>
      <trkpt lat="47.42521" lon="0.83595">
        <ele>135</ele>
        <time>2011-05-01T06:41:07Z</time>
      </trkpt>
      <trkpt lat="47.42523" lon="0.83602">
        <ele>135</ele>
        <time>2011-05-01T06:41:08Z</time>
      </trkpt>
      <trkpt lat="47.42523" lon="0.83611">
        <ele>134</ele>
        <time>2011-05-01T06:41:09Z</time>
      </trkpt>
      <trkpt lat="47.42523" lon="0.8362">
        <ele>134</ele>
        <time>2011-05-01T06:41:10Z</time>
      </trkpt>
      <trkpt lat="47.42525" lon="0.83628">
        <ele>134</ele>
        <time>2011-05-01T06:41:11Z</time>
      </trkpt>
      <trkpt lat="47.42527" lon="0.83637">
        <ele>134</ele>
        <time>2011-05-01T06:41:12Z</time>
      </trkpt>
      <trkpt lat="47.42528" lon="0.83644">
        <ele>133</ele>
        <time>2011-05-01T06:41:13Z</time>
      </trkpt>
      <trkpt lat="47.4253" lon="0.83652">
        <ele>133</ele>
        <time>2011-05-01T06:41:14Z</time>
      </trkpt>
      <trkpt lat="47.42531" lon="0.83661">
        <ele>135</ele>
        <time>2011-05-01T06:41:15Z</time>
      </trkpt>
      <trkpt lat="47.42532" lon="0.83668">
        <ele>134</ele>
        <time>2011-05-01T06:41:16Z</time>
      </trkpt>
      <trkpt lat="47.42532" lon="0.83676">
        <ele>134</ele>
        <time>2011-05-01T06:41:17Z</time>
      </trkpt>
      <trkpt lat="47.42532" lon="0.83683">
        <ele>134</ele>
        <time>2011-05-01T06:41:18Z</time>
      </trkpt>
      <trkpt lat="47.42531" lon="0.8369">
        <ele>134</ele>
        <time>2011-05-01T06:41:19Z</time>
      </trkpt>
      <trkpt lat="47.42528" lon="0.83702">
        <ele>134</ele>
        <time>2011-05-01T06:41:21Z</time>
      </trkpt>
      <trkpt lat="47.42526" lon="0.83708">
        <ele>133</ele>
        <time>2011-05-01T06:41:22Z</time>
      </trkpt>
      <trkpt lat="47.42524" lon="0.83714">
        <ele>133</ele>
        <time>2011-05-01T06:41:23Z</time>
      </trkpt>
      <trkpt lat="47.42521" lon="0.83726">
        <ele>132</ele>
        <time>2011-05-01T06:41:25Z</time>
      </trkpt>
      <trkpt lat="47.42518" lon="0.83738">
        <ele>132</ele>
        <time>2011-05-01T06:41:27Z</time>
      </trkpt>
      <trkpt lat="47.42516" lon="0.83746">
        <ele>131</ele>
        <time>2011-05-01T06:41:28Z</time>
      </trkpt>
      <trkpt lat="47.42514" lon="0.83752">
        <ele>131</ele>
        <time>2011-05-01T06:41:29Z</time>
      </trkpt>
      <trkpt lat="47.42512" lon="0.83759">
        <ele>131</ele>
        <time>2011-05-01T06:41:30Z</time>
      </trkpt>
      <trkpt lat="47.4251" lon="0.83768">
        <ele>131</ele>
        <time>2011-05-01T06:41:31Z</time>
      </trkpt>
      <trkpt lat="47.4251" lon="0.83776">
        <ele>131</ele>
        <time>2011-05-01T06:41:32Z</time>
      </trkpt>
      <trkpt lat="47.42511" lon="0.83784">
        <ele>130</ele>
        <time>2011-05-01T06:41:33Z</time>
      </trkpt>
      <trkpt lat="47.42512" lon="0.83793">
        <ele>130</ele>
        <time>2011-05-01T06:41:34Z</time>
      </trkpt>
      <trkpt lat="47.42515" lon="0.83802">
        <ele>130</ele>
        <time>2011-05-01T06:41:35Z</time>
      </trkpt>
      <trkpt lat="47.42518" lon="0.83811">
        <ele>130</ele>
        <time>2011-05-01T06:41:36Z</time>
      </trkpt>
      <trkpt lat="47.42521" lon="0.83821">
        <ele>130</ele>
        <time>2011-05-01T06:41:37Z</time>
      </trkpt>
      <trkpt lat="47.42525" lon="0.83832">
        <ele>130</ele>
        <time>2011-05-01T06:41:38Z</time>
      </trkpt>
      <trkpt lat="47.42528" lon="0.83842">
        <ele>130</ele>
        <time>2011-05-01T06:41:39Z</time>
      </trkpt>
      <trkpt lat="47.42532" lon="0.83853">
        <ele>130</ele>
        <time>2011-05-01T06:41:40Z</time>
      </trkpt>
      <trkpt lat="47.42536" lon="0.83864">
        <ele>130</ele>
        <time>2011-05-01T06:41:41Z</time>
      </trkpt>
      <trkpt lat="47.42539" lon="0.83874">
        <ele>130</ele>
        <time>2011-05-01T06:41:42Z</time>
      </trkpt>
      <trkpt lat="47.42542" lon="0.83884">
        <ele>130</ele>
        <time>2011-05-01T06:41:43Z</time>
      </trkpt>
      <trkpt lat="47.42546" lon="0.83896">
        <ele>130</ele>
        <time>2011-05-01T06:41:44Z</time>
      </trkpt>
      <trkpt lat="47.42549" lon="0.83908">
        <ele>130</ele>
        <time>2011-05-01T06:41:45Z</time>
      </trkpt>
      <trkpt lat="47.42554" lon="0.83919">
        <ele>131</ele>
        <time>2011-05-01T06:41:46Z</time>
      </trkpt>
      <trkpt lat="47.42558" lon="0.83931">
        <ele>130</ele>
        <time>2011-05-01T06:41:47Z</time>
      </trkpt>
      <trkpt lat="47.42562" lon="0.83942">
        <ele>130</ele>
        <time>2011-05-01T06:41:48Z</time>
      </trkpt>
      <trkpt lat="47.42567" lon="0.83955">
        <ele>130</ele>
        <time>2011-05-01T06:41:49Z</time>
      </trkpt>
      <trkpt lat="47.42571" lon="0.83966">
        <ele>130</ele>
        <time>2011-05-01T06:41:50Z</time>
      </trkpt>
      <trkpt lat="47.42576" lon="0.83978">
        <ele>130</ele>
        <time>2011-05-01T06:41:51Z</time>
      </trkpt>
      <trkpt lat="47.4258" lon="0.83989">
        <ele>130</ele>
        <time>2011-05-01T06:41:52Z</time>
      </trkpt>
      <trkpt lat="47.42584" lon="0.84001">
        <ele>130</ele>
        <time>2011-05-01T06:41:53Z</time>
      </trkpt>
      <trkpt lat="47.42589" lon="0.84012">
        <ele>130</ele>
        <time>2011-05-01T06:41:54Z</time>
      </trkpt>
      <trkpt lat="47.42593" lon="0.84021">
        <ele>130</ele>
        <time>2011-05-01T06:41:55Z</time>
      </trkpt>
      <trkpt lat="47.426" lon="0.84031">
        <ele>130</ele>
        <time>2011-05-01T06:41:56Z</time>
      </trkpt>
      <trkpt lat="47.42605" lon="0.8404">
        <ele>130</ele>
        <time>2011-05-01T06:41:57Z</time>
      </trkpt>
      <trkpt lat="47.42611" lon="0.8405">
        <ele>130</ele>
        <time>2011-05-01T06:41:58Z</time>
      </trkpt>
      <trkpt lat="47.42618" lon="0.8406">
        <ele>130</ele>
        <time>2011-05-01T06:41:59Z</time>
      </trkpt>
      <trkpt lat="47.42624" lon="0.8407">
        <ele>130</ele>
        <time>2011-05-01T06:42:00Z</time>
      </trkpt>
      <trkpt lat="47.42632" lon="0.84086">
        <ele>129</ele>
        <time>2011-05-01T06:42:01Z</time>
      </trkpt>
      <trkpt lat="47.42638" lon="0.84101">
        <ele>128</ele>
        <time>2011-05-01T06:42:02Z</time>
      </trkpt>
      <trkpt lat="47.42643" lon="0.84115">
        <ele>128</ele>
        <time>2011-05-01T06:42:03Z</time>
      </trkpt>
      <trkpt lat="47.42646" lon="0.84128">
        <ele>127</ele>
        <time>2011-05-01T06:42:04Z</time>
      </trkpt>
      <trkpt lat="47.42648" lon="0.8414">
        <ele>127</ele>
        <time>2011-05-01T06:42:05Z</time>
      </trkpt>
      <trkpt lat="47.42646" lon="0.84159">
        <ele>127</ele>
        <time>2011-05-01T06:42:06Z</time>
      </trkpt>
      <trkpt lat="47.42645" lon="0.84174">
        <ele>126</ele>
        <time>2011-05-01T06:42:07Z</time>
      </trkpt>
      <trkpt lat="47.42642" lon="0.84188">
        <ele>126</ele>
        <time>2011-05-01T06:42:08Z</time>
      </trkpt>
      <trkpt lat="47.42637" lon="0.84196">
        <ele>125</ele>
        <time>2011-05-01T06:42:09Z</time>
      </trkpt>
      <trkpt lat="47.42635" lon="0.84205">
        <ele>124</ele>
        <time>2011-05-01T06:42:10Z</time>
      </trkpt>
      <trkpt lat="47.42631" lon="0.84208">
        <ele>124</ele>
        <time>2011-05-01T06:42:11Z</time>
      </trkpt>
      <trkpt lat="47.42618" lon="0.8421">
        <ele>122</ele>
        <time>2011-05-01T06:42:14Z</time>
      </trkpt>
      <trkpt lat="47.4261" lon="0.84206">
        <ele>122</ele>
        <time>2011-05-01T06:42:16Z</time>
      </trkpt>
      <trkpt lat="47.42605" lon="0.84203">
        <ele>121</ele>
        <time>2011-05-01T06:42:17Z</time>
      </trkpt>
      <trkpt lat="47.426" lon="0.84202">
        <ele>121</ele>
        <time>2011-05-01T06:42:18Z</time>
      </trkpt>
      <trkpt lat="47.42592" lon="0.84195">
        <ele>121</ele>
        <time>2011-05-01T06:42:20Z</time>
      </trkpt>
      <trkpt lat="47.42588" lon="0.84191">
        <ele>121</ele>
        <time>2011-05-01T06:42:21Z</time>
      </trkpt>
      <trkpt lat="47.4258" lon="0.84186">
        <ele>120</ele>
        <time>2011-05-01T06:42:23Z</time>
      </trkpt>
      <trkpt lat="47.42575" lon="0.84184">
        <ele>120</ele>
        <time>2011-05-01T06:42:24Z</time>
      </trkpt>
      <trkpt lat="47.42569" lon="0.84184">
        <ele>120</ele>
        <time>2011-05-01T06:42:25Z</time>
      </trkpt>
      <trkpt lat="47.42564" lon="0.8418">
        <ele>120</ele>
        <time>2011-05-01T06:42:26Z</time>
      </trkpt>
      <trkpt lat="47.42558" lon="0.84176">
        <ele>120</ele>
        <time>2011-05-01T06:42:27Z</time>
      </trkpt>
      <trkpt lat="47.42553" lon="0.84172">
        <ele>120</ele>
        <time>2011-05-01T06:42:28Z</time>
      </trkpt>
      <trkpt lat="47.42548" lon="0.84168">
        <ele>119</ele>
        <time>2011-05-01T06:42:29Z</time>
      </trkpt>
      <trkpt lat="47.42541" lon="0.84164">
        <ele>119</ele>
        <time>2011-05-01T06:42:30Z</time>
      </trkpt>
      <trkpt lat="47.42534" lon="0.84159">
        <ele>119</ele>
        <time>2011-05-01T06:42:31Z</time>
      </trkpt>
      <trkpt lat="47.42528" lon="0.84156">
        <ele>119</ele>
        <time>2011-05-01T06:42:32Z</time>
      </trkpt>
      <trkpt lat="47.42522" lon="0.84153">
        <ele>119</ele>
        <time>2011-05-01T06:42:33Z</time>
      </trkpt>
      <trkpt lat="47.42515" lon="0.8415">
        <ele>118</ele>
        <time>2011-05-01T06:42:34Z</time>
      </trkpt>
      <trkpt lat="47.42508" lon="0.84146">
        <ele>118</ele>
        <time>2011-05-01T06:42:35Z</time>
      </trkpt>
      <trkpt lat="47.42502" lon="0.84142">
        <ele>118</ele>
        <time>2011-05-01T06:42:36Z</time>
      </trkpt>
      <trkpt lat="47.42495" lon="0.84139">
        <ele>118</ele>
        <time>2011-05-01T06:42:37Z</time>
      </trkpt>
      <trkpt lat="47.4249" lon="0.84134">
        <ele>118</ele>
        <time>2011-05-01T06:42:38Z</time>
      </trkpt>
      <trkpt lat="47.42484" lon="0.84131">
        <ele>117</ele>
        <time>2011-05-01T06:42:39Z</time>
      </trkpt>
      <trkpt lat="47.42479" lon="0.84127">
        <ele>117</ele>
        <time>2011-05-01T06:42:40Z</time>
      </trkpt>
      <trkpt lat="47.42473" lon="0.8412">
        <ele>117</ele>
        <time>2011-05-01T06:42:41Z</time>
      </trkpt>
      <trkpt lat="47.42469" lon="0.84114">
        <ele>116</ele>
        <time>2011-05-01T06:42:42Z</time>
      </trkpt>
      <trkpt lat="47.4246" lon="0.84112">
        <ele>115</ele>
        <time>2011-05-01T06:42:44Z</time>
      </trkpt>
      <trkpt lat="47.42453" lon="0.84112">
        <ele>115</ele>
        <time>2011-05-01T06:42:45Z</time>
      </trkpt>
      <trkpt lat="47.42448" lon="0.8411">
        <ele>116</ele>
        <time>2011-05-01T06:42:46Z</time>
      </trkpt>
      <trkpt lat="47.42442" lon="0.84108">
        <ele>116</ele>
        <time>2011-05-01T06:42:47Z</time>
      </trkpt>
      <trkpt lat="47.42437" lon="0.84106">
        <ele>115</ele>
        <time>2011-05-01T06:42:48Z</time>
      </trkpt>
      <trkpt lat="47.42431" lon="0.84105">
        <ele>115</ele>
        <time>2011-05-01T06:42:49Z</time>
      </trkpt>
      <trkpt lat="47.42427" lon="0.84101">
        <ele>115</ele>
        <time>2011-05-01T06:42:50Z</time>
      </trkpt>
      <trkpt lat="47.42422" lon="0.84099">
        <ele>115</ele>
        <time>2011-05-01T06:42:51Z</time>
      </trkpt>
      <trkpt lat="47.42418" lon="0.84095">
        <ele>115</ele>
        <time>2011-05-01T06:42:52Z</time>
      </trkpt>
      <trkpt lat="47.42413" lon="0.84092">
        <ele>114</ele>
        <time>2011-05-01T06:42:53Z</time>
      </trkpt>
      <trkpt lat="47.42407" lon="0.84089">
        <ele>114</ele>
        <time>2011-05-01T06:42:54Z</time>
      </trkpt>
      <trkpt lat="47.42401" lon="0.84085">
        <ele>114</ele>
        <time>2011-05-01T06:42:55Z</time>
      </trkpt>
      <trkpt lat="47.42395" lon="0.84083">
        <ele>113</ele>
        <time>2011-05-01T06:42:56Z</time>
      </trkpt>
      <trkpt lat="47.42388" lon="0.84082">
        <ele>113</ele>
        <time>2011-05-01T06:42:57Z</time>
      </trkpt>
      <trkpt lat="47.42383" lon="0.84081">
        <ele>113</ele>
        <time>2011-05-01T06:42:58Z</time>
      </trkpt>
      <trkpt lat="47.42376" lon="0.8408">
        <ele>113</ele>
        <time>2011-05-01T06:42:59Z</time>
      </trkpt>
      <trkpt lat="47.42369" lon="0.84082">
        <ele>113</ele>
        <time>2011-05-01T06:43:00Z</time>
      </trkpt>
      <trkpt lat="47.42362" lon="0.8408">
        <ele>112</ele>
        <time>2011-05-01T06:43:01Z</time>
      </trkpt>
      <trkpt lat="47.42355" lon="0.84079">
        <ele>112</ele>
        <time>2011-05-01T06:43:02Z</time>
      </trkpt>
      <trkpt lat="47.42347" lon="0.84078">
        <ele>112</ele>
        <time>2011-05-01T06:43:03Z</time>
      </trkpt>
      <trkpt lat="47.4234" lon="0.84076">
        <ele>112</ele>
        <time>2011-05-01T06:43:04Z</time>
      </trkpt>
      <trkpt lat="47.42333" lon="0.84074">
        <ele>111</ele>
        <time>2011-05-01T06:43:05Z</time>
      </trkpt>
      <trkpt lat="47.42327" lon="0.84072">
        <ele>110</ele>
        <time>2011-05-01T06:43:06Z</time>
      </trkpt>
      <trkpt lat="47.42321" lon="0.84072">
        <ele>109</ele>
        <time>2011-05-01T06:43:07Z</time>
      </trkpt>
      <trkpt lat="47.42314" lon="0.84068">
        <ele>108</ele>
        <time>2011-05-01T06:43:08Z</time>
      </trkpt>
      <trkpt lat="47.42307" lon="0.84066">
        <ele>108</ele>
        <time>2011-05-01T06:43:09Z</time>
      </trkpt>
      <trkpt lat="47.423" lon="0.84064">
        <ele>107</ele>
        <time>2011-05-01T06:43:10Z</time>
      </trkpt>
      <trkpt lat="47.42294" lon="0.84062">
        <ele>107</ele>
        <time>2011-05-01T06:43:11Z</time>
      </trkpt>
      <trkpt lat="47.42287" lon="0.84059">
        <ele>106</ele>
        <time>2011-05-01T06:43:12Z</time>
      </trkpt>
      <trkpt lat="47.42281" lon="0.84056">
        <ele>106</ele>
        <time>2011-05-01T06:43:13Z</time>
      </trkpt>
      <trkpt lat="47.42275" lon="0.84054">
        <ele>106</ele>
        <time>2011-05-01T06:43:14Z</time>
      </trkpt>
      <trkpt lat="47.42269" lon="0.84053">
        <ele>107</ele>
        <time>2011-05-01T06:43:15Z</time>
      </trkpt>
      <trkpt lat="47.42264" lon="0.84049">
        <ele>106</ele>
        <time>2011-05-01T06:43:16Z</time>
      </trkpt>
      <trkpt lat="47.42259" lon="0.84047">
        <ele>106</ele>
        <time>2011-05-01T06:43:17Z</time>
      </trkpt>
      <trkpt lat="47.42249" lon="0.84045">
        <ele>106</ele>
        <time>2011-05-01T06:43:19Z</time>
      </trkpt>
      <trkpt lat="47.42243" lon="0.84042">
        <ele>104</ele>
        <time>2011-05-01T06:43:21Z</time>
      </trkpt>
      <trkpt lat="47.42236" lon="0.84039">
        <ele>104</ele>
        <time>2011-05-01T06:43:23Z</time>
      </trkpt>
      <trkpt lat="47.42229" lon="0.84035">
        <ele>104</ele>
        <time>2011-05-01T06:43:25Z</time>
      </trkpt>
      <trkpt lat="47.42223" lon="0.8403">
        <ele>104</ele>
        <time>2011-05-01T06:43:27Z</time>
      </trkpt>
      <trkpt lat="47.42216" lon="0.84028">
        <ele>104</ele>
        <time>2011-05-01T06:43:29Z</time>
      </trkpt>
      <trkpt lat="47.4221" lon="0.84025">
        <ele>104</ele>
        <time>2011-05-01T06:43:31Z</time>
      </trkpt>
      <trkpt lat="47.42204" lon="0.84021">
        <ele>104</ele>
        <time>2011-05-01T06:43:33Z</time>
      </trkpt>
      <trkpt lat="47.42199" lon="0.84019">
        <ele>104</ele>
        <time>2011-05-01T06:43:35Z</time>
      </trkpt>
      <trkpt lat="47.42192" lon="0.84017">
        <ele>104</ele>
        <time>2011-05-01T06:43:37Z</time>
      </trkpt>
      <trkpt lat="47.42186" lon="0.84014">
        <ele>105</ele>
        <time>2011-05-01T06:43:39Z</time>
      </trkpt>
      <trkpt lat="47.42178" lon="0.84012">
        <ele>105</ele>
        <time>2011-05-01T06:43:41Z</time>
      </trkpt>
      <trkpt lat="47.42171" lon="0.84012">
        <ele>106</ele>
        <time>2011-05-01T06:43:43Z</time>
      </trkpt>
      <trkpt lat="47.42163" lon="0.84012">
        <ele>105</ele>
        <time>2011-05-01T06:43:45Z</time>
      </trkpt>
      <trkpt lat="47.42156" lon="0.84011">
        <ele>105</ele>
        <time>2011-05-01T06:43:47Z</time>
      </trkpt>
      <trkpt lat="47.4215" lon="0.84012">
        <ele>106</ele>
        <time>2011-05-01T06:43:49Z</time>
      </trkpt>
      <trkpt lat="47.42143" lon="0.84009">
        <ele>106</ele>
        <time>2011-05-01T06:43:51Z</time>
      </trkpt>
      <trkpt lat="47.4214" lon="0.84004">
        <ele>106</ele>
        <time>2011-05-01T06:43:53Z</time>
      </trkpt>
      <trkpt lat="47.42136" lon="0.83996">
        <ele>108</ele>
        <time>2011-05-01T06:43:55Z</time>
      </trkpt>
      <trkpt lat="47.42136" lon="0.83988">
        <ele>107</ele>
        <time>2011-05-01T06:43:57Z</time>
      </trkpt>
      <trkpt lat="47.42137" lon="0.83979">
        <ele>107</ele>
        <time>2011-05-01T06:43:59Z</time>
      </trkpt>
      <trkpt lat="47.42136" lon="0.83968">
        <ele>108</ele>
        <time>2011-05-01T06:44:01Z</time>
      </trkpt>
      <trkpt lat="47.42135" lon="0.83959">
        <ele>109</ele>
        <time>2011-05-01T06:44:03Z</time>
      </trkpt>
      <trkpt lat="47.42134" lon="0.83949">
        <ele>110</ele>
        <time>2011-05-01T06:44:05Z</time>
      </trkpt>
      <trkpt lat="47.42134" lon="0.83941">
        <ele>111</ele>
        <time>2011-05-01T06:44:07Z</time>
      </trkpt>
      <trkpt lat="47.42132" lon="0.83928">
        <ele>111</ele>
        <time>2011-05-01T06:44:09Z</time>
      </trkpt>
      <trkpt lat="47.4213" lon="0.8392">
        <ele>112</ele>
        <time>2011-05-01T06:44:11Z</time>
      </trkpt>
      <trkpt lat="47.4213" lon="0.8391">
        <ele>114</ele>
        <time>2011-05-01T06:44:13Z</time>
      </trkpt>
      <trkpt lat="47.4213" lon="0.83899">
        <ele>115</ele>
        <time>2011-05-01T06:44:15Z</time>
      </trkpt>
      <trkpt lat="47.42132" lon="0.83889">
        <ele>116</ele>
        <time>2011-05-01T06:44:17Z</time>
      </trkpt>
      <trkpt lat="47.42132" lon="0.83879">
        <ele>116</ele>
        <time>2011-05-01T06:44:19Z</time>
      </trkpt>
      <trkpt lat="47.42133" lon="0.83872">
        <ele>118</ele>
        <time>2011-05-01T06:44:21Z</time>
      </trkpt>
      <trkpt lat="47.42133" lon="0.83865">
        <ele>120</ele>
        <time>2011-05-01T06:44:23Z</time>
      </trkpt>
      <trkpt lat="47.42133" lon="0.83858">
        <ele>120</ele>
        <time>2011-05-01T06:44:25Z</time>
      </trkpt>
      <trkpt lat="47.42133" lon="0.8385">
        <ele>121</ele>
        <time>2011-05-01T06:44:27Z</time>
      </trkpt>
      <trkpt lat="47.42135" lon="0.8384">
        <ele>123</ele>
        <time>2011-05-01T06:44:30Z</time>
      </trkpt>
      <trkpt lat="47.42135" lon="0.83832">
        <ele>123</ele>
        <time>2011-05-01T06:44:33Z</time>
      </trkpt>
      <trkpt lat="47.42136" lon="0.83825">
        <ele>124</ele>
        <time>2011-05-01T06:44:36Z</time>
      </trkpt>
      <trkpt lat="47.42136" lon="0.83816">
        <ele>125</ele>
        <time>2011-05-01T06:44:39Z</time>
      </trkpt>
      <trkpt lat="47.42139" lon="0.8381">
        <ele>127</ele>
        <time>2011-05-01T06:44:42Z</time>
      </trkpt>
      <trkpt lat="47.42142" lon="0.83804">
        <ele>128</ele>
        <time>2011-05-01T06:44:45Z</time>
      </trkpt>
      <trkpt lat="47.42145" lon="0.83797">
        <ele>131</ele>
        <time>2011-05-01T06:44:48Z</time>
      </trkpt>
      <trkpt lat="47.42147" lon="0.83789">
        <ele>134</ele>
        <time>2011-05-01T06:44:51Z</time>
      </trkpt>
      <trkpt lat="47.42147" lon="0.83781">
        <ele>135</ele>
        <time>2011-05-01T06:44:54Z</time>
      </trkpt>
      <trkpt lat="47.42146" lon="0.83774">
        <ele>136</ele>
        <time>2011-05-01T06:44:57Z</time>
      </trkpt>
      <trkpt lat="47.42146" lon="0.83765">
        <ele>136</ele>
        <time>2011-05-01T06:45:00Z</time>
      </trkpt>
      <trkpt lat="47.42145" lon="0.83758">
        <ele>137</ele>
        <time>2011-05-01T06:45:03Z</time>
      </trkpt>
      <trkpt lat="47.4214" lon="0.83753">
        <ele>139</ele>
        <time>2011-05-01T06:45:07Z</time>
      </trkpt>
      <trkpt lat="47.42143" lon="0.83748">
        <ele>138</ele>
        <time>2011-05-01T06:45:16Z</time>
      </trkpt>
      <trkpt lat="47.42147" lon="0.83742">
        <ele>139</ele>
        <time>2011-05-01T06:45:24Z</time>
      </trkpt>
      <trkpt lat="47.4215" lon="0.83736">
        <ele>141</ele>
        <time>2011-05-01T06:45:29Z</time>
      </trkpt>
      <trkpt lat="47.42156" lon="0.83729">
        <ele>143</ele>
        <time>2011-05-01T06:45:32Z</time>
      </trkpt>
      <trkpt lat="47.42159" lon="0.83724">
        <ele>143</ele>
        <time>2011-05-01T06:45:34Z</time>
      </trkpt>
      <trkpt lat="47.42163" lon="0.83719">
        <ele>144</ele>
        <time>2011-05-01T06:45:36Z</time>
      </trkpt>
      <trkpt lat="47.42166" lon="0.83714">
        <ele>144</ele>
        <time>2011-05-01T06:45:38Z</time>
      </trkpt>
      <trkpt lat="47.42171" lon="0.83707">
        <ele>144</ele>
        <time>2011-05-01T06:45:41Z</time>
      </trkpt>
      <trkpt lat="47.42174" lon="0.83701">
        <ele>145</ele>
        <time>2011-05-01T06:45:44Z</time>
      </trkpt>
      <trkpt lat="47.42178" lon="0.83696">
        <ele>146</ele>
        <time>2011-05-01T06:45:48Z</time>
      </trkpt>
      <trkpt lat="47.42181" lon="0.8369">
        <ele>145</ele>
        <time>2011-05-01T06:45:52Z</time>
      </trkpt>
      <trkpt lat="47.42185" lon="0.83685">
        <ele>146</ele>
        <time>2011-05-01T06:45:56Z</time>
      </trkpt>
      <trkpt lat="47.42189" lon="0.83678">
        <ele>146</ele>
        <time>2011-05-01T06:45:59Z</time>
      </trkpt>
      <trkpt lat="47.42193" lon="0.83672">
        <ele>147</ele>
        <time>2011-05-01T06:46:03Z</time>
      </trkpt>
      <trkpt lat="47.42195" lon="0.83663">
        <ele>147</ele>
        <time>2011-05-01T06:46:07Z</time>
      </trkpt>
      <trkpt lat="47.42198" lon="0.83656">
        <ele>147</ele>
        <time>2011-05-01T06:46:10Z</time>
      </trkpt>
      <trkpt lat="47.422" lon="0.83649">
        <ele>148</ele>
        <time>2011-05-01T06:46:13Z</time>
      </trkpt>
      <trkpt lat="47.42202" lon="0.83641">
        <ele>147</ele>
        <time>2011-05-01T06:46:16Z</time>
      </trkpt>
      <trkpt lat="47.42204" lon="0.83634">
        <ele>147</ele>
        <time>2011-05-01T06:46:19Z</time>
      </trkpt>
      <trkpt lat="47.42206" lon="0.83627">
        <ele>147</ele>
        <time>2011-05-01T06:46:22Z</time>
      </trkpt>
      <trkpt lat="47.42207" lon="0.83619">
        <ele>147</ele>
        <time>2011-05-01T06:46:25Z</time>
      </trkpt>
      <trkpt lat="47.42209" lon="0.83613">
        <ele>146</ele>
        <time>2011-05-01T06:46:28Z</time>
      </trkpt>
      <trkpt lat="47.4221" lon="0.83605">
        <ele>146</ele>
        <time>2011-05-01T06:46:31Z</time>
      </trkpt>
      <trkpt lat="47.42212" lon="0.83597">
        <ele>147</ele>
        <time>2011-05-01T06:46:34Z</time>
      </trkpt>
      <trkpt lat="47.42214" lon="0.83588">
        <ele>147</ele>
        <time>2011-05-01T06:46:37Z</time>
      </trkpt>
      <trkpt lat="47.42215" lon="0.83579">
        <ele>146</ele>
        <time>2011-05-01T06:46:40Z</time>
      </trkpt>
      <trkpt lat="47.42216" lon="0.83572">
        <ele>146</ele>
        <time>2011-05-01T06:46:42Z</time>
      </trkpt>
      <trkpt lat="47.42217" lon="0.83565">
        <ele>146</ele>
        <time>2011-05-01T06:46:45Z</time>
      </trkpt>
      <trkpt lat="47.42218" lon="0.83557">
        <ele>145</ele>
        <time>2011-05-01T06:46:48Z</time>
      </trkpt>
      <trkpt lat="47.4222" lon="0.8355">
        <ele>146</ele>
        <time>2011-05-01T06:46:51Z</time>
      </trkpt>
      <trkpt lat="47.42221" lon="0.83541">
        <ele>146</ele>
        <time>2011-05-01T06:46:54Z</time>
      </trkpt>
      <trkpt lat="47.42222" lon="0.83532">
        <ele>146</ele>
        <time>2011-05-01T06:46:57Z</time>
      </trkpt>
      <trkpt lat="47.42222" lon="0.83525">
        <ele>146</ele>
        <time>2011-05-01T06:47:01Z</time>
      </trkpt>
      <trkpt lat="47.42219" lon="0.83518">
        <ele>146</ele>
        <time>2011-05-01T06:47:05Z</time>
      </trkpt>
      <trkpt lat="47.42221" lon="0.83525">
        <ele>146</ele>
        <time>2011-05-01T06:47:10Z</time>
      </trkpt>
      <trkpt lat="47.4222" lon="0.83532">
        <ele>147</ele>
        <time>2011-05-01T06:47:13Z</time>
      </trkpt>
      <trkpt lat="47.42219" lon="0.83539">
        <ele>147</ele>
        <time>2011-05-01T06:47:16Z</time>
      </trkpt>
      <trkpt lat="47.42224" lon="0.8354">
        <ele>146</ele>
        <time>2011-05-01T06:47:20Z</time>
      </trkpt>
      <trkpt lat="47.42224" lon="0.83533">
        <ele>146</ele>
        <time>2011-05-01T06:47:25Z</time>
      </trkpt>
      <trkpt lat="47.42222" lon="0.83526">
        <ele>147</ele>
        <time>2011-05-01T06:49:50Z</time>
      </trkpt>
      <trkpt lat="47.42222" lon="0.83518">
        <ele>146</ele>
        <time>2011-05-01T06:49:53Z</time>
      </trkpt>
      <trkpt lat="47.42221" lon="0.83508">
        <ele>146</ele>
        <time>2011-05-01T06:49:56Z</time>
      </trkpt>
      <trkpt lat="47.42222" lon="0.83499">
        <ele>146</ele>
        <time>2011-05-01T06:49:58Z</time>
      </trkpt>
      <trkpt lat="47.42223" lon="0.8349">
        <ele>146</ele>
        <time>2011-05-01T06:50:00Z</time>
      </trkpt>
      <trkpt lat="47.42222" lon="0.83481">
        <ele>145</ele>
        <time>2011-05-01T06:50:02Z</time>
      </trkpt>
      <trkpt lat="47.42222" lon="0.83471">
        <ele>146</ele>
        <time>2011-05-01T06:50:04Z</time>
      </trkpt>
      <trkpt lat="47.42222" lon="0.8346">
        <ele>145</ele>
        <time>2011-05-01T06:50:06Z</time>
      </trkpt>
      <trkpt lat="47.42222" lon="0.83448">
        <ele>145</ele>
        <time>2011-05-01T06:50:08Z</time>
      </trkpt>
      <trkpt lat="47.42221" lon="0.83437">
        <ele>145</ele>
        <time>2011-05-01T06:50:10Z</time>
      </trkpt>
      <trkpt lat="47.42222" lon="0.83426">
        <ele>145</ele>
        <time>2011-05-01T06:50:12Z</time>
      </trkpt>
      <trkpt lat="47.42222" lon="0.83416">
        <ele>146</ele>
        <time>2011-05-01T06:50:14Z</time>
      </trkpt>
      <trkpt lat="47.42224" lon="0.83404">
        <ele>146</ele>
        <time>2011-05-01T06:50:16Z</time>
      </trkpt>
      <trkpt lat="47.42225" lon="0.83392">
        <ele>146</ele>
        <time>2011-05-01T06:50:18Z</time>
      </trkpt>
      <trkpt lat="47.42226" lon="0.8338">
        <ele>146</ele>
        <time>2011-05-01T06:50:20Z</time>
      </trkpt>
      <trkpt lat="47.42228" lon="0.83368">
        <ele>146</ele>
        <time>2011-05-01T06:50:22Z</time>
      </trkpt>
      <trkpt lat="47.4223" lon="0.83355">
        <ele>146</ele>
        <time>2011-05-01T06:50:24Z</time>
      </trkpt>
      <trkpt lat="47.42231" lon="0.83343">
        <ele>147</ele>
        <time>2011-05-01T06:50:26Z</time>
      </trkpt>
      <trkpt lat="47.42234" lon="0.8333">
        <ele>147</ele>
        <time>2011-05-01T06:50:28Z</time>
      </trkpt>
      <trkpt lat="47.42236" lon="0.83318">
        <ele>147</ele>
        <time>2011-05-01T06:50:30Z</time>
      </trkpt>
      <trkpt lat="47.42239" lon="0.83306">
        <ele>147</ele>
        <time>2011-05-01T06:50:32Z</time>
      </trkpt>
      <trkpt lat="47.42242" lon="0.83293">
        <ele>147</ele>
        <time>2011-05-01T06:50:34Z</time>
      </trkpt>
      <trkpt lat="47.42243" lon="0.83286">
        <ele>147</ele>
        <time>2011-05-01T06:50:35Z</time>
      </trkpt>
      <trkpt lat="47.42245" lon="0.8328">
        <ele>147</ele>
        <time>2011-05-01T06:50:36Z</time>
      </trkpt>
      <trkpt lat="47.42247" lon="0.83273">
        <ele>147</ele>
        <time>2011-05-01T06:50:37Z</time>
      </trkpt>
      <trkpt lat="47.42249" lon="0.83266">
        <ele>147</ele>
        <time>2011-05-01T06:50:38Z</time>
      </trkpt>
      <trkpt lat="47.42251" lon="0.8326">
        <ele>147</ele>
        <time>2011-05-01T06:50:39Z</time>
      </trkpt>
      <trkpt lat="47.42254" lon="0.83249">
        <ele>147</ele>
        <time>2011-05-01T06:50:41Z</time>
      </trkpt>
      <trkpt lat="47.42256" lon="0.83243">
        <ele>147</ele>
        <time>2011-05-01T06:50:42Z</time>
      </trkpt>
      <trkpt lat="47.42259" lon="0.83237">
        <ele>148</ele>
        <time>2011-05-01T06:50:43Z</time>
      </trkpt>
      <trkpt lat="47.42261" lon="0.83231">
        <ele>147</ele>
        <time>2011-05-01T06:50:44Z</time>
      </trkpt>
      <trkpt lat="47.42263" lon="0.83225">
        <ele>147</ele>
        <time>2011-05-01T06:50:45Z</time>
      </trkpt>
      <trkpt lat="47.42267" lon="0.83214">
        <ele>147</ele>
        <time>2011-05-01T06:50:47Z</time>
      </trkpt>
      <trkpt lat="47.42269" lon="0.83207">
        <ele>147</ele>
        <time>2011-05-01T06:50:48Z</time>
      </trkpt>
      <trkpt lat="47.42272" lon="0.83202">
        <ele>147</ele>
        <time>2011-05-01T06:50:49Z</time>
      </trkpt>
      <trkpt lat="47.42274" lon="0.83195">
        <ele>147</ele>
        <time>2011-05-01T06:50:50Z</time>
      </trkpt>
      <trkpt lat="47.42276" lon="0.83189">
        <ele>148</ele>
        <time>2011-05-01T06:50:51Z</time>
      </trkpt>
      <trkpt lat="47.42278" lon="0.83183">
        <ele>148</ele>
        <time>2011-05-01T06:50:52Z</time>
      </trkpt>
      <trkpt lat="47.4228" lon="0.83177">
        <ele>148</ele>
        <time>2011-05-01T06:50:53Z</time>
      </trkpt>
      <trkpt lat="47.42283" lon="0.8317">
        <ele>148</ele>
        <time>2011-05-01T06:50:54Z</time>
      </trkpt>
      <trkpt lat="47.42287" lon="0.83159">
        <ele>149</ele>
        <time>2011-05-01T06:50:56Z</time>
      </trkpt>
      <trkpt lat="47.42289" lon="0.83153">
        <ele>149</ele>
        <time>2011-05-01T06:50:57Z</time>
      </trkpt>
      <trkpt lat="47.42291" lon="0.83147">
        <ele>149</ele>
        <time>2011-05-01T06:50:58Z</time>
      </trkpt>
      <trkpt lat="47.42295" lon="0.83134">
        <ele>149</ele>
        <time>2011-05-01T06:51:00Z</time>
      </trkpt>
      <trkpt lat="47.42297" lon="0.83128">
        <ele>149</ele>
        <time>2011-05-01T06:51:01Z</time>
      </trkpt>
      <trkpt lat="47.423" lon="0.83115">
        <ele>149</ele>
        <time>2011-05-01T06:51:03Z</time>
      </trkpt>
      <trkpt lat="47.42301" lon="0.83108">
        <ele>149</ele>
        <time>2011-05-01T06:51:04Z</time>
      </trkpt>
      <trkpt lat="47.42303" lon="0.83095">
        <ele>149</ele>
        <time>2011-05-01T06:51:06Z</time>
      </trkpt>
      <trkpt lat="47.42303" lon="0.83082">
        <ele>149</ele>
        <time>2011-05-01T06:51:08Z</time>
      </trkpt>
      <trkpt lat="47.42303" lon="0.83069">
        <ele>149</ele>
        <time>2011-05-01T06:51:10Z</time>
      </trkpt>
      <trkpt lat="47.42303" lon="0.83056">
        <ele>148</ele>
        <time>2011-05-01T06:51:12Z</time>
      </trkpt>
      <trkpt lat="47.42303" lon="0.83049">
        <ele>149</ele>
        <time>2011-05-01T06:51:13Z</time>
      </trkpt>
      <trkpt lat="47.42302" lon="0.83042">
        <ele>149</ele>
        <time>2011-05-01T06:51:14Z</time>
      </trkpt>
      <trkpt lat="47.42302" lon="0.83029">
        <ele>148</ele>
        <time>2011-05-01T06:51:16Z</time>
      </trkpt>
      <trkpt lat="47.42301" lon="0.83022">
        <ele>148</ele>
        <time>2011-05-01T06:51:17Z</time>
      </trkpt>
      <trkpt lat="47.423" lon="0.8301">
        <ele>149</ele>
        <time>2011-05-01T06:51:19Z</time>
      </trkpt>
      <trkpt lat="47.423" lon="0.82998">
        <ele>148</ele>
        <time>2011-05-01T06:51:21Z</time>
      </trkpt>
      <trkpt lat="47.42304" lon="0.82996">
        <ele>148</ele>
        <time>2011-05-01T06:51:22Z</time>
      </trkpt>
      <trkpt lat="47.4231" lon="0.8299">
        <ele>148</ele>
        <time>2011-05-01T06:51:24Z</time>
      </trkpt>
      <trkpt lat="47.42319" lon="0.82989">
        <ele>148</ele>
        <time>2011-05-01T06:51:26Z</time>
      </trkpt>
      <trkpt lat="47.42328" lon="0.82986">
        <ele>148</ele>
        <time>2011-05-01T06:51:28Z</time>
      </trkpt>
      <trkpt lat="47.42337" lon="0.82984">
        <ele>148</ele>
        <time>2011-05-01T06:51:30Z</time>
      </trkpt>
      <trkpt lat="47.42345" lon="0.82981">
        <ele>148</ele>
        <time>2011-05-01T06:51:32Z</time>
      </trkpt>
      <trkpt lat="47.42354" lon="0.82979">
        <ele>148</ele>
        <time>2011-05-01T06:51:34Z</time>
      </trkpt>
      <trkpt lat="47.42362" lon="0.82976">
        <ele>148</ele>
        <time>2011-05-01T06:51:36Z</time>
      </trkpt>
      <trkpt lat="47.42371" lon="0.82973">
        <ele>148</ele>
        <time>2011-05-01T06:51:38Z</time>
      </trkpt>
      <trkpt lat="47.42375" lon="0.82971">
        <ele>148</ele>
        <time>2011-05-01T06:51:39Z</time>
      </trkpt>
      <trkpt lat="47.42384" lon="0.82968">
        <ele>148</ele>
        <time>2011-05-01T06:51:41Z</time>
      </trkpt>
      <trkpt lat="47.42392" lon="0.82967">
        <ele>149</ele>
        <time>2011-05-01T06:51:43Z</time>
      </trkpt>
      <trkpt lat="47.424" lon="0.82964">
        <ele>149</ele>
        <time>2011-05-01T06:51:45Z</time>
      </trkpt>
      <trkpt lat="47.42408" lon="0.8296">
        <ele>149</ele>
        <time>2011-05-01T06:51:47Z</time>
      </trkpt>
      <trkpt lat="47.42416" lon="0.82958">
        <ele>149</ele>
        <time>2011-05-01T06:51:49Z</time>
      </trkpt>
      <trkpt lat="47.42423" lon="0.82954">
        <ele>149</ele>
        <time>2011-05-01T06:51:51Z</time>
      </trkpt>
      <trkpt lat="47.42431" lon="0.82951">
        <ele>149</ele>
        <time>2011-05-01T06:51:53Z</time>
      </trkpt>
      <trkpt lat="47.42438" lon="0.82948">
        <ele>149</ele>
        <time>2011-05-01T06:51:55Z</time>
      </trkpt>
      <trkpt lat="47.42442" lon="0.82945">
        <ele>149</ele>
        <time>2011-05-01T06:51:56Z</time>
      </trkpt>
      <trkpt lat="47.4245" lon="0.82941">
        <ele>148</ele>
        <time>2011-05-01T06:51:58Z</time>
      </trkpt>
      <trkpt lat="47.42457" lon="0.82936">
        <ele>148</ele>
        <time>2011-05-01T06:52:00Z</time>
      </trkpt>
      <trkpt lat="47.42464" lon="0.82932">
        <ele>149</ele>
        <time>2011-05-01T06:52:02Z</time>
      </trkpt>
      <trkpt lat="47.42468" lon="0.8293">
        <ele>149</ele>
        <time>2011-05-01T06:52:03Z</time>
      </trkpt>
      <trkpt lat="47.42476" lon="0.82924">
        <ele>148</ele>
        <time>2011-05-01T06:52:05Z</time>
      </trkpt>
      <trkpt lat="47.42483" lon="0.82918">
        <ele>149</ele>
        <time>2011-05-01T06:52:07Z</time>
      </trkpt>
      <trkpt lat="47.42487" lon="0.82914">
        <ele>149</ele>
        <time>2011-05-01T06:52:08Z</time>
      </trkpt>
      <trkpt lat="47.42491" lon="0.8291">
        <ele>149</ele>
        <time>2011-05-01T06:52:09Z</time>
      </trkpt>
      <trkpt lat="47.42495" lon="0.82906">
        <ele>149</ele>
        <time>2011-05-01T06:52:10Z</time>
      </trkpt>
      <trkpt lat="47.42498" lon="0.82903">
        <ele>149</ele>
        <time>2011-05-01T06:52:11Z</time>
      </trkpt>
      <trkpt lat="47.42506" lon="0.82896">
        <ele>149</ele>
        <time>2011-05-01T06:52:13Z</time>
      </trkpt>
      <trkpt lat="47.42514" lon="0.8289">
        <ele>149</ele>
        <time>2011-05-01T06:52:15Z</time>
      </trkpt>
      <trkpt lat="47.4252" lon="0.82883">
        <ele>150</ele>
        <time>2011-05-01T06:52:17Z</time>
      </trkpt>
      <trkpt lat="47.42528" lon="0.82876">
        <ele>149</ele>
        <time>2011-05-01T06:52:19Z</time>
      </trkpt>
      <trkpt lat="47.42532" lon="0.82873">
        <ele>149</ele>
        <time>2011-05-01T06:52:20Z</time>
      </trkpt>
      <trkpt lat="47.42539" lon="0.82867">
        <ele>149</ele>
        <time>2011-05-01T06:52:22Z</time>
      </trkpt>
      <trkpt lat="47.42546" lon="0.82861">
        <ele>150</ele>
        <time>2011-05-01T06:52:24Z</time>
      </trkpt>
      <trkpt lat="47.4255" lon="0.82858">
        <ele>149</ele>
        <time>2011-05-01T06:52:25Z</time>
      </trkpt>
      <trkpt lat="47.42558" lon="0.82853">
        <ele>150</ele>
        <time>2011-05-01T06:52:27Z</time>
      </trkpt>
      <trkpt lat="47.42566" lon="0.82849">
        <ele>150</ele>
        <time>2011-05-01T06:52:29Z</time>
      </trkpt>
      <trkpt lat="47.42575" lon="0.82845">
        <ele>150</ele>
        <time>2011-05-01T06:52:31Z</time>
      </trkpt>
      <trkpt lat="47.42579" lon="0.82844">
        <ele>150</ele>
        <time>2011-05-01T06:52:32Z</time>
      </trkpt>
      <trkpt lat="47.42588" lon="0.8284">
        <ele>150</ele>
        <time>2011-05-01T06:52:34Z</time>
      </trkpt>
      <trkpt lat="47.42596" lon="0.82838">
        <ele>150</ele>
        <time>2011-05-01T06:52:36Z</time>
      </trkpt>
      <trkpt lat="47.42605" lon="0.82835">
        <ele>150</ele>
        <time>2011-05-01T06:52:38Z</time>
      </trkpt>
      <trkpt lat="47.4261" lon="0.82834">
        <ele>150</ele>
        <time>2011-05-01T06:52:39Z</time>
      </trkpt>
      <trkpt lat="47.42618" lon="0.8283">
        <ele>150</ele>
        <time>2011-05-01T06:52:41Z</time>
      </trkpt>
      <trkpt lat="47.42627" lon="0.82828">
        <ele>149</ele>
        <time>2011-05-01T06:52:43Z</time>
      </trkpt>
      <trkpt lat="47.42632" lon="0.82826">
        <ele>149</ele>
        <time>2011-05-01T06:52:44Z</time>
      </trkpt>
      <trkpt lat="47.4264" lon="0.82823">
        <ele>149</ele>
        <time>2011-05-01T06:52:46Z</time>
      </trkpt>
      <trkpt lat="47.42649" lon="0.8282">
        <ele>149</ele>
        <time>2011-05-01T06:52:48Z</time>
      </trkpt>
      <trkpt lat="47.42658" lon="0.82818">
        <ele>149</ele>
        <time>2011-05-01T06:52:50Z</time>
      </trkpt>
      <trkpt lat="47.42666" lon="0.82816">
        <ele>150</ele>
        <time>2011-05-01T06:52:52Z</time>
      </trkpt>
      <trkpt lat="47.42675" lon="0.82814">
        <ele>150</ele>
        <time>2011-05-01T06:52:54Z</time>
      </trkpt>
      <trkpt lat="47.42684" lon="0.82813">
        <ele>149</ele>
        <time>2011-05-01T06:52:56Z</time>
      </trkpt>
      <trkpt lat="47.42692" lon="0.82812">
        <ele>149</ele>
        <time>2011-05-01T06:52:58Z</time>
      </trkpt>
      <trkpt lat="47.42701" lon="0.82814">
        <ele>150</ele>
        <time>2011-05-01T06:53:00Z</time>
      </trkpt>
      <trkpt lat="47.42709" lon="0.82818">
        <ele>150</ele>
        <time>2011-05-01T06:53:02Z</time>
      </trkpt>
      <trkpt lat="47.42717" lon="0.82825">
        <ele>150</ele>
        <time>2011-05-01T06:53:04Z</time>
      </trkpt>
      <trkpt lat="47.42724" lon="0.82831">
        <ele>150</ele>
        <time>2011-05-01T06:53:06Z</time>
      </trkpt>
      <trkpt lat="47.42728" lon="0.82835">
        <ele>151</ele>
        <time>2011-05-01T06:53:07Z</time>
      </trkpt>
      <trkpt lat="47.42735" lon="0.82843">
        <ele>150</ele>
        <time>2011-05-01T06:53:09Z</time>
      </trkpt>
      <trkpt lat="47.42742" lon="0.8285">
        <ele>151</ele>
        <time>2011-05-01T06:53:11Z</time>
      </trkpt>
      <trkpt lat="47.42747" lon="0.82853">
        <ele>151</ele>
        <time>2011-05-01T06:53:12Z</time>
      </trkpt>
      <trkpt lat="47.42751" lon="0.82856">
        <ele>151</ele>
        <time>2011-05-01T06:53:13Z</time>
      </trkpt>
      <trkpt lat="47.42759" lon="0.8286">
        <ele>151</ele>
        <time>2011-05-01T06:53:15Z</time>
      </trkpt>
      <trkpt lat="47.42764" lon="0.82861">
        <ele>150</ele>
        <time>2011-05-01T06:53:16Z</time>
      </trkpt>
      <trkpt lat="47.42773" lon="0.82864">
        <ele>150</ele>
        <time>2011-05-01T06:53:18Z</time>
      </trkpt>
      <trkpt lat="47.42781" lon="0.82865">
        <ele>150</ele>
        <time>2011-05-01T06:53:20Z</time>
      </trkpt>
      <trkpt lat="47.4279" lon="0.82865">
        <ele>151</ele>
        <time>2011-05-01T06:53:22Z</time>
      </trkpt>
      <trkpt lat="47.42798" lon="0.82865">
        <ele>150</ele>
        <time>2011-05-01T06:53:24Z</time>
      </trkpt>
      <trkpt lat="47.42806" lon="0.82862">
        <ele>150</ele>
        <time>2011-05-01T06:53:26Z</time>
      </trkpt>
      <trkpt lat="47.42815" lon="0.82861">
        <ele>150</ele>
        <time>2011-05-01T06:53:28Z</time>
      </trkpt>
      <trkpt lat="47.42824" lon="0.82859">
        <ele>150</ele>
        <time>2011-05-01T06:53:30Z</time>
      </trkpt>
      <trkpt lat="47.42833" lon="0.82857">
        <ele>150</ele>
        <time>2011-05-01T06:53:32Z</time>
      </trkpt>
      <trkpt lat="47.42841" lon="0.82854">
        <ele>150</ele>
        <time>2011-05-01T06:53:34Z</time>
      </trkpt>
      <trkpt lat="47.4285" lon="0.82852">
        <ele>150</ele>
        <time>2011-05-01T06:53:36Z</time>
      </trkpt>
      <trkpt lat="47.42854" lon="0.8285">
        <ele>151</ele>
        <time>2011-05-01T06:53:37Z</time>
      </trkpt>
      <trkpt lat="47.42861" lon="0.82846">
        <ele>151</ele>
        <time>2011-05-01T06:53:39Z</time>
      </trkpt>
      <trkpt lat="47.42869" lon="0.82844">
        <ele>151</ele>
        <time>2011-05-01T06:53:41Z</time>
      </trkpt>
      <trkpt lat="47.42877" lon="0.8284">
        <ele>150</ele>
        <time>2011-05-01T06:53:43Z</time>
      </trkpt>
      <trkpt lat="47.42886" lon="0.82838">
        <ele>150</ele>
        <time>2011-05-01T06:53:45Z</time>
      </trkpt>
      <trkpt lat="47.42895" lon="0.82835">
        <ele>150</ele>
        <time>2011-05-01T06:53:47Z</time>
      </trkpt>
      <trkpt lat="47.429" lon="0.82833">
        <ele>149</ele>
        <time>2011-05-01T06:53:48Z</time>
      </trkpt>
      <trkpt lat="47.42905" lon="0.82831">
        <ele>149</ele>
        <time>2011-05-01T06:53:49Z</time>
      </trkpt>
      <trkpt lat="47.42909" lon="0.82828">
        <ele>149</ele>
        <time>2011-05-01T06:53:50Z</time>
      </trkpt>
      <trkpt lat="47.42914" lon="0.82826">
        <ele>149</ele>
        <time>2011-05-01T06:53:51Z</time>
      </trkpt>
      <trkpt lat="47.42919" lon="0.82824">
        <ele>148</ele>
        <time>2011-05-01T06:53:52Z</time>
      </trkpt>
      <trkpt lat="47.42924" lon="0.82822">
        <ele>148</ele>
        <time>2011-05-01T06:53:53Z</time>
      </trkpt>
      <trkpt lat="47.42929" lon="0.8282">
        <ele>149</ele>
        <time>2011-05-01T06:53:54Z</time>
      </trkpt>
      <trkpt lat="47.42934" lon="0.82817">
        <ele>149</ele>
        <time>2011-05-01T06:53:55Z</time>
      </trkpt>
      <trkpt lat="47.42938" lon="0.82815">
        <ele>148</ele>
        <time>2011-05-01T06:53:56Z</time>
      </trkpt>
      <trkpt lat="47.42944" lon="0.82813">
        <ele>148</ele>
        <time>2011-05-01T06:53:57Z</time>
      </trkpt>
      <trkpt lat="47.42948" lon="0.8281">
        <ele>148</ele>
        <time>2011-05-01T06:53:58Z</time>
      </trkpt>
      <trkpt lat="47.42953" lon="0.82808">
        <ele>148</ele>
        <time>2011-05-01T06:53:59Z</time>
      </trkpt>
      <trkpt lat="47.42959" lon="0.82806">
        <ele>148</ele>
        <time>2011-05-01T06:54:00Z</time>
      </trkpt>
      <trkpt lat="47.42963" lon="0.82804">
        <ele>148</ele>
        <time>2011-05-01T06:54:01Z</time>
      </trkpt>
      <trkpt lat="47.42968" lon="0.82802">
        <ele>148</ele>
        <time>2011-05-01T06:54:02Z</time>
      </trkpt>
      <trkpt lat="47.42973" lon="0.828">
        <ele>148</ele>
        <time>2011-05-01T06:54:03Z</time>
      </trkpt>
      <trkpt lat="47.42978" lon="0.82799">
        <ele>148</ele>
        <time>2011-05-01T06:54:04Z</time>
      </trkpt>
      <trkpt lat="47.42982" lon="0.82796">
        <ele>148</ele>
        <time>2011-05-01T06:54:05Z</time>
      </trkpt>
      <trkpt lat="47.42986" lon="0.82794">
        <ele>148</ele>
        <time>2011-05-01T06:54:06Z</time>
      </trkpt>
      <trkpt lat="47.42994" lon="0.82788">
        <ele>147</ele>
        <time>2011-05-01T06:54:08Z</time>
      </trkpt>
      <trkpt lat="47.42995" lon="0.82778">
        <ele>148</ele>
        <time>2011-05-01T06:54:10Z</time>
      </trkpt>
      <trkpt lat="47.42996" lon="0.82768">
        <ele>147</ele>
        <time>2011-05-01T06:54:12Z</time>
      </trkpt>
      <trkpt lat="47.42995" lon="0.82759">
        <ele>147</ele>
        <time>2011-05-01T06:54:14Z</time>
      </trkpt>
      <trkpt lat="47.42994" lon="0.8275">
        <ele>148</ele>
        <time>2011-05-01T06:54:16Z</time>
      </trkpt>
      <trkpt lat="47.42993" lon="0.82742">
        <ele>148</ele>
        <time>2011-05-01T06:54:18Z</time>
      </trkpt>
      <trkpt lat="47.42992" lon="0.82732">
        <ele>148</ele>
        <time>2011-05-01T06:54:20Z</time>
      </trkpt>
      <trkpt lat="47.42988" lon="0.82723">
        <ele>149</ele>
        <time>2011-05-01T06:54:22Z</time>
      </trkpt>
      <trkpt lat="47.42985" lon="0.82715">
        <ele>149</ele>
        <time>2011-05-01T06:54:24Z</time>
      </trkpt>
      <trkpt lat="47.42981" lon="0.82707">
        <ele>149</ele>
        <time>2011-05-01T06:54:26Z</time>
      </trkpt>
      <trkpt lat="47.42977" lon="0.82698">
        <ele>149</ele>
        <time>2011-05-01T06:54:28Z</time>
      </trkpt>
      <trkpt lat="47.42973" lon="0.8269">
        <ele>149</ele>
        <time>2011-05-01T06:54:30Z</time>
      </trkpt>
      <trkpt lat="47.4297" lon="0.8268">
        <ele>149</ele>
        <time>2011-05-01T06:54:32Z</time>
      </trkpt>
      <trkpt lat="47.42965" lon="0.82671">
        <ele>150</ele>
        <time>2011-05-01T06:54:34Z</time>
      </trkpt>
      <trkpt lat="47.4296" lon="0.82661">
        <ele>149</ele>
        <time>2011-05-01T06:54:36Z</time>
      </trkpt>
      <trkpt lat="47.42957" lon="0.82655">
        <ele>149</ele>
        <time>2011-05-01T06:54:37Z</time>
      </trkpt>
      <trkpt lat="47.42955" lon="0.82649">
        <ele>150</ele>
        <time>2011-05-01T06:54:38Z</time>
      </trkpt>
      <trkpt lat="47.42952" lon="0.82643">
        <ele>150</ele>
        <time>2011-05-01T06:54:39Z</time>
      </trkpt>
      <trkpt lat="47.42949" lon="0.82637">
        <ele>150</ele>
        <time>2011-05-01T06:54:40Z</time>
      </trkpt>
      <trkpt lat="47.42946" lon="0.82631">
        <ele>150</ele>
        <time>2011-05-01T06:54:41Z</time>
      </trkpt>
      <trkpt lat="47.42944" lon="0.82624">
        <ele>150</ele>
        <time>2011-05-01T06:54:42Z</time>
      </trkpt>
      <trkpt lat="47.42942" lon="0.82618">
        <ele>149</ele>
        <time>2011-05-01T06:54:43Z</time>
      </trkpt>
      <trkpt lat="47.42937" lon="0.82606">
        <ele>149</ele>
        <time>2011-05-01T06:54:45Z</time>
      </trkpt>
      <trkpt lat="47.42934" lon="0.82601">
        <ele>150</ele>
        <time>2011-05-01T06:54:46Z</time>
      </trkpt>
      <trkpt lat="47.4293" lon="0.82596">
        <ele>150</ele>
        <time>2011-05-01T06:54:47Z</time>
      </trkpt>
      <trkpt lat="47.42926" lon="0.8259">
        <ele>150</ele>
        <time>2011-05-01T06:54:48Z</time>
      </trkpt>
      <trkpt lat="47.42922" lon="0.82586">
        <ele>150</ele>
        <time>2011-05-01T06:54:49Z</time>
      </trkpt>
      <trkpt lat="47.42918" lon="0.8258">
        <ele>150</ele>
        <time>2011-05-01T06:54:50Z</time>
      </trkpt>
      <trkpt lat="47.42915" lon="0.82574">
        <ele>149</ele>
        <time>2011-05-01T06:54:51Z</time>
      </trkpt>
      <trkpt lat="47.42912" lon="0.82568">
        <ele>150</ele>
        <time>2011-05-01T06:54:52Z</time>
      </trkpt>
      <trkpt lat="47.42905" lon="0.82558">
        <ele>150</ele>
        <time>2011-05-01T06:54:54Z</time>
      </trkpt>
      <trkpt lat="47.42901" lon="0.82552">
        <ele>150</ele>
        <time>2011-05-01T06:54:55Z</time>
      </trkpt>
      <trkpt lat="47.42899" lon="0.82546">
        <ele>150</ele>
        <time>2011-05-01T06:54:56Z</time>
      </trkpt>
      <trkpt lat="47.42896" lon="0.82539">
        <ele>150</ele>
        <time>2011-05-01T06:54:57Z</time>
      </trkpt>
      <trkpt lat="47.42895" lon="0.82532">
        <ele>150</ele>
        <time>2011-05-01T06:54:58Z</time>
      </trkpt>
      <trkpt lat="47.42895" lon="0.82524">
        <ele>150</ele>
        <time>2011-05-01T06:54:59Z</time>
      </trkpt>
      <trkpt lat="47.42898" lon="0.82517">
        <ele>150</ele>
        <time>2011-05-01T06:55:00Z</time>
      </trkpt>
      <trkpt lat="47.429" lon="0.8251">
        <ele>150</ele>
        <time>2011-05-01T06:55:01Z</time>
      </trkpt>
      <trkpt lat="47.42902" lon="0.82503">
        <ele>150</ele>
        <time>2011-05-01T06:55:02Z</time>
      </trkpt>
      <trkpt lat="47.42905" lon="0.82496">
        <ele>150</ele>
        <time>2011-05-01T06:55:03Z</time>
      </trkpt>
      <trkpt lat="47.42907" lon="0.82489">
        <ele>150</ele>
        <time>2011-05-01T06:55:04Z</time>
      </trkpt>
      <trkpt lat="47.42909" lon="0.82483">
        <ele>150</ele>
        <time>2011-05-01T06:55:05Z</time>
      </trkpt>
      <trkpt lat="47.42912" lon="0.82469">
        <ele>150</ele>
        <time>2011-05-01T06:55:07Z</time>
      </trkpt>
      <trkpt lat="47.42915" lon="0.82456">
        <ele>149</ele>
        <time>2011-05-01T06:55:09Z</time>
      </trkpt>
      <trkpt lat="47.42916" lon="0.82449">
        <ele>149</ele>
        <time>2011-05-01T06:55:10Z</time>
      </trkpt>
      <trkpt lat="47.42916" lon="0.82441">
        <ele>149</ele>
        <time>2011-05-01T06:55:11Z</time>
      </trkpt>
      <trkpt lat="47.42918" lon="0.82418">
        <ele>149</ele>
        <time>2011-05-01T06:55:14Z</time>
      </trkpt>
      <trkpt lat="47.42917" lon="0.82411">
        <ele>149</ele>
        <time>2011-05-01T06:55:15Z</time>
      </trkpt>
      <trkpt lat="47.42916" lon="0.82403">
        <ele>149</ele>
        <time>2011-05-01T06:55:16Z</time>
      </trkpt>
      <trkpt lat="47.42916" lon="0.82396">
        <ele>150</ele>
        <time>2011-05-01T06:55:17Z</time>
      </trkpt>
      <trkpt lat="47.42915" lon="0.82389">
        <ele>150</ele>
        <time>2011-05-01T06:55:18Z</time>
      </trkpt>
      <trkpt lat="47.42914" lon="0.82382">
        <ele>150</ele>
        <time>2011-05-01T06:55:19Z</time>
      </trkpt>
      <trkpt lat="47.42913" lon="0.82375">
        <ele>151</ele>
        <time>2011-05-01T06:55:20Z</time>
      </trkpt>
      <trkpt lat="47.42908" lon="0.82363">
        <ele>151</ele>
        <time>2011-05-01T06:55:22Z</time>
      </trkpt>
      <trkpt lat="47.42902" lon="0.82352">
        <ele>151</ele>
        <time>2011-05-01T06:55:24Z</time>
      </trkpt>
      <trkpt lat="47.42899" lon="0.82346">
        <ele>150</ele>
        <time>2011-05-01T06:55:25Z</time>
      </trkpt>
      <trkpt lat="47.42896" lon="0.82341">
        <ele>150</ele>
        <time>2011-05-01T06:55:26Z</time>
      </trkpt>
      <trkpt lat="47.42893" lon="0.82336">
        <ele>150</ele>
        <time>2011-05-01T06:55:27Z</time>
      </trkpt>
      <trkpt lat="47.42889" lon="0.82331">
        <ele>150</ele>
        <time>2011-05-01T06:55:28Z</time>
      </trkpt>
      <trkpt lat="47.42886" lon="0.82327">
        <ele>150</ele>
        <time>2011-05-01T06:55:29Z</time>
      </trkpt>
      <trkpt lat="47.42882" lon="0.82322">
        <ele>149</ele>
        <time>2011-05-01T06:55:30Z</time>
      </trkpt>
      <trkpt lat="47.42878" lon="0.82318">
        <ele>150</ele>
        <time>2011-05-01T06:55:31Z</time>
      </trkpt>
      <trkpt lat="47.42874" lon="0.82314">
        <ele>151</ele>
        <time>2011-05-01T06:55:32Z</time>
      </trkpt>
      <trkpt lat="47.42871" lon="0.82309">
        <ele>151</ele>
        <time>2011-05-01T06:55:33Z</time>
      </trkpt>
      <trkpt lat="47.42866" lon="0.82305">
        <ele>151</ele>
        <time>2011-05-01T06:55:34Z</time>
      </trkpt>
      <trkpt lat="47.42862" lon="0.82301">
        <ele>151</ele>
        <time>2011-05-01T06:55:35Z</time>
      </trkpt>
      <trkpt lat="47.42858" lon="0.82297">
        <ele>151</ele>
        <time>2011-05-01T06:55:36Z</time>
      </trkpt>
      <trkpt lat="47.42855" lon="0.82293">
        <ele>151</ele>
        <time>2011-05-01T06:55:37Z</time>
      </trkpt>
      <trkpt lat="47.4285" lon="0.8229">
        <ele>151</ele>
        <time>2011-05-01T06:55:38Z</time>
      </trkpt>
      <trkpt lat="47.42842" lon="0.82283">
        <ele>151</ele>
        <time>2011-05-01T06:55:40Z</time>
      </trkpt>
      <trkpt lat="47.42834" lon="0.82276">
        <ele>152</ele>
        <time>2011-05-01T06:55:42Z</time>
      </trkpt>
      <trkpt lat="47.4283" lon="0.82271">
        <ele>152</ele>
        <time>2011-05-01T06:55:43Z</time>
      </trkpt>
      <trkpt lat="47.42826" lon="0.82267">
        <ele>153</ele>
        <time>2011-05-01T06:55:44Z</time>
      </trkpt>
      <trkpt lat="47.42818" lon="0.8226">
        <ele>153</ele>
        <time>2011-05-01T06:55:46Z</time>
      </trkpt>
      <trkpt lat="47.42814" lon="0.82257">
        <ele>152</ele>
        <time>2011-05-01T06:55:47Z</time>
      </trkpt>
      <trkpt lat="47.42809" lon="0.82255">
        <ele>152</ele>
        <time>2011-05-01T06:55:48Z</time>
      </trkpt>
      <trkpt lat="47.42802" lon="0.82248">
        <ele>153</ele>
        <time>2011-05-01T06:55:50Z</time>
      </trkpt>
      <trkpt lat="47.42798" lon="0.82239">
        <ele>152</ele>
        <time>2011-05-01T06:55:52Z</time>
      </trkpt>
      <trkpt lat="47.42802" lon="0.82233">
        <ele>153</ele>
        <time>2011-05-01T06:55:54Z</time>
      </trkpt>
      <trkpt lat="47.42806" lon="0.82225">
        <ele>153</ele>
        <time>2011-05-01T06:55:56Z</time>
      </trkpt>
      <trkpt lat="47.4281" lon="0.82216">
        <ele>153</ele>
        <time>2011-05-01T06:55:58Z</time>
      </trkpt>
      <trkpt lat="47.42812" lon="0.82208">
        <ele>152</ele>
        <time>2011-05-01T06:56:00Z</time>
      </trkpt>
      <trkpt lat="47.42815" lon="0.82198">
        <ele>152</ele>
        <time>2011-05-01T06:56:02Z</time>
      </trkpt>
      <trkpt lat="47.42818" lon="0.82189">
        <ele>153</ele>
        <time>2011-05-01T06:56:04Z</time>
      </trkpt>
      <trkpt lat="47.42821" lon="0.8218">
        <ele>152</ele>
        <time>2011-05-01T06:56:06Z</time>
      </trkpt>
      <trkpt lat="47.42825" lon="0.8217">
        <ele>153</ele>
        <time>2011-05-01T06:56:08Z</time>
      </trkpt>
      <trkpt lat="47.42828" lon="0.82161">
        <ele>153</ele>
        <time>2011-05-01T06:56:10Z</time>
      </trkpt>
      <trkpt lat="47.42831" lon="0.82152">
        <ele>153</ele>
        <time>2011-05-01T06:56:12Z</time>
      </trkpt>
      <trkpt lat="47.42834" lon="0.82142">
        <ele>153</ele>
        <time>2011-05-01T06:56:14Z</time>
      </trkpt>
      <trkpt lat="47.42838" lon="0.82132">
        <ele>153</ele>
        <time>2011-05-01T06:56:16Z</time>
      </trkpt>
      <trkpt lat="47.42841" lon="0.82123">
        <ele>154</ele>
        <time>2011-05-01T06:56:18Z</time>
      </trkpt>
      <trkpt lat="47.42845" lon="0.82114">
        <ele>153</ele>
        <time>2011-05-01T06:56:20Z</time>
      </trkpt>
      <trkpt lat="47.42849" lon="0.82103">
        <ele>153</ele>
        <time>2011-05-01T06:56:22Z</time>
      </trkpt>
      <trkpt lat="47.42854" lon="0.82093">
        <ele>152</ele>
        <time>2011-05-01T06:56:24Z</time>
      </trkpt>
      <trkpt lat="47.42858" lon="0.82082">
        <ele>152</ele>
        <time>2011-05-01T06:56:26Z</time>
      </trkpt>
      <trkpt lat="47.42861" lon="0.82077">
        <ele>152</ele>
        <time>2011-05-01T06:56:27Z</time>
      </trkpt>
      <trkpt lat="47.42865" lon="0.82067">
        <ele>152</ele>
        <time>2011-05-01T06:56:29Z</time>
      </trkpt>
      <trkpt lat="47.4287" lon="0.82057">
        <ele>151</ele>
        <time>2011-05-01T06:56:31Z</time>
      </trkpt>
      <trkpt lat="47.42872" lon="0.82051">
        <ele>151</ele>
        <time>2011-05-01T06:56:32Z</time>
      </trkpt>
      <trkpt lat="47.42878" lon="0.82041">
        <ele>151</ele>
        <time>2011-05-01T06:56:34Z</time>
      </trkpt>
      <trkpt lat="47.42883" lon="0.8203">
        <ele>151</ele>
        <time>2011-05-01T06:56:36Z</time>
      </trkpt>
      <trkpt lat="47.42889" lon="0.82022">
        <ele>151</ele>
        <time>2011-05-01T06:56:38Z</time>
      </trkpt>
      <trkpt lat="47.42892" lon="0.82017">
        <ele>151</ele>
        <time>2011-05-01T06:56:39Z</time>
      </trkpt>
      <trkpt lat="47.42898" lon="0.82008">
        <ele>151</ele>
        <time>2011-05-01T06:56:41Z</time>
      </trkpt>
      <trkpt lat="47.42904" lon="0.82">
        <ele>151</ele>
        <time>2011-05-01T06:56:43Z</time>
      </trkpt>
      <trkpt lat="47.42909" lon="0.81992">
        <ele>151</ele>
        <time>2011-05-01T06:56:45Z</time>
      </trkpt>
      <trkpt lat="47.42915" lon="0.81983">
        <ele>151</ele>
        <time>2011-05-01T06:56:47Z</time>
      </trkpt>
      <trkpt lat="47.4292" lon="0.81975">
        <ele>151</ele>
        <time>2011-05-01T06:56:49Z</time>
      </trkpt>
      <trkpt lat="47.42926" lon="0.81966">
        <ele>152</ele>
        <time>2011-05-01T06:56:51Z</time>
      </trkpt>
      <trkpt lat="47.42931" lon="0.81959">
        <ele>152</ele>
        <time>2011-05-01T06:56:53Z</time>
      </trkpt>
      <trkpt lat="47.42937" lon="0.81951">
        <ele>151</ele>
        <time>2011-05-01T06:56:55Z</time>
      </trkpt>
      <trkpt lat="47.42944" lon="0.81944">
        <ele>152</ele>
        <time>2011-05-01T06:56:57Z</time>
      </trkpt>
      <trkpt lat="47.42948" lon="0.8194">
        <ele>152</ele>
        <time>2011-05-01T06:56:58Z</time>
      </trkpt>
      <trkpt lat="47.42954" lon="0.81933">
        <ele>151</ele>
        <time>2011-05-01T06:57:00Z</time>
      </trkpt>
      <trkpt lat="47.4296" lon="0.81925">
        <ele>151</ele>
        <time>2011-05-01T06:57:02Z</time>
      </trkpt>
      <trkpt lat="47.42967" lon="0.81918">
        <ele>151</ele>
        <time>2011-05-01T06:57:04Z</time>
      </trkpt>
      <trkpt lat="47.42974" lon="0.81912">
        <ele>151</ele>
        <time>2011-05-01T06:57:06Z</time>
      </trkpt>
      <trkpt lat="47.42982" lon="0.81906">
        <ele>152</ele>
        <time>2011-05-01T06:57:08Z</time>
      </trkpt>
      <trkpt lat="47.4299" lon="0.81901">
        <ele>152</ele>
        <time>2011-05-01T06:57:10Z</time>
      </trkpt>
      <trkpt lat="47.42997" lon="0.81895">
        <ele>152</ele>
        <time>2011-05-01T06:57:12Z</time>
      </trkpt>
      <trkpt lat="47.43005" lon="0.8189">
        <ele>152</ele>
        <time>2011-05-01T06:57:14Z</time>
      </trkpt>
      <trkpt lat="47.43012" lon="0.81885">
        <ele>152</ele>
        <time>2011-05-01T06:57:16Z</time>
      </trkpt>
      <trkpt lat="47.4302" lon="0.81879">
        <ele>153</ele>
        <time>2011-05-01T06:57:18Z</time>
      </trkpt>
      <trkpt lat="47.43028" lon="0.81874">
        <ele>153</ele>
        <time>2011-05-01T06:57:20Z</time>
      </trkpt>
      <trkpt lat="47.43036" lon="0.8187">
        <ele>154</ele>
        <time>2011-05-01T06:57:22Z</time>
      </trkpt>
      <trkpt lat="47.43044" lon="0.81865">
        <ele>153</ele>
        <time>2011-05-01T06:57:24Z</time>
      </trkpt>
      <trkpt lat="47.43052" lon="0.81862">
        <ele>152</ele>
        <time>2011-05-01T06:57:26Z</time>
      </trkpt>
      <trkpt lat="47.43059" lon="0.81857">
        <ele>152</ele>
        <time>2011-05-01T06:57:28Z</time>
      </trkpt>
      <trkpt lat="47.43063" lon="0.81856">
        <ele>152</ele>
        <time>2011-05-01T06:57:29Z</time>
      </trkpt>
      <trkpt lat="47.43068" lon="0.81854">
        <ele>153</ele>
        <time>2011-05-01T06:57:30Z</time>
      </trkpt>
      <trkpt lat="47.43076" lon="0.81851">
        <ele>153</ele>
        <time>2011-05-01T06:57:32Z</time>
      </trkpt>
      <trkpt lat="47.43084" lon="0.81848">
        <ele>154</ele>
        <time>2011-05-01T06:57:34Z</time>
      </trkpt>
      <trkpt lat="47.43092" lon="0.81846">
        <ele>154</ele>
        <time>2011-05-01T06:57:36Z</time>
      </trkpt>
      <trkpt lat="47.43101" lon="0.81844">
        <ele>153</ele>
        <time>2011-05-01T06:57:38Z</time>
      </trkpt>
      <trkpt lat="47.43109" lon="0.81843">
        <ele>154</ele>
        <time>2011-05-01T06:57:40Z</time>
      </trkpt>
      <trkpt lat="47.43116" lon="0.81842">
        <ele>153</ele>
        <time>2011-05-01T06:57:42Z</time>
      </trkpt>
      <trkpt lat="47.43124" lon="0.81841">
        <ele>153</ele>
        <time>2011-05-01T06:57:44Z</time>
      </trkpt>
      <trkpt lat="47.43133" lon="0.81842">
        <ele>154</ele>
        <time>2011-05-01T06:57:46Z</time>
      </trkpt>
      <trkpt lat="47.43141" lon="0.81842">
        <ele>154</ele>
        <time>2011-05-01T06:57:48Z</time>
      </trkpt>
      <trkpt lat="47.4315" lon="0.81841">
        <ele>154</ele>
        <time>2011-05-01T06:57:50Z</time>
      </trkpt>
      <trkpt lat="47.43154" lon="0.8184">
        <ele>154</ele>
        <time>2011-05-01T06:57:51Z</time>
      </trkpt>
      <trkpt lat="47.43163" lon="0.8184">
        <ele>155</ele>
        <time>2011-05-01T06:57:53Z</time>
      </trkpt>
      <trkpt lat="47.4317" lon="0.81841">
        <ele>155</ele>
        <time>2011-05-01T06:57:55Z</time>
      </trkpt>
      <trkpt lat="47.43178" lon="0.81841">
        <ele>155</ele>
        <time>2011-05-01T06:57:57Z</time>
      </trkpt>
      <trkpt lat="47.43184" lon="0.81841">
        <ele>155</ele>
        <time>2011-05-01T06:57:59Z</time>
      </trkpt>
      <trkpt lat="47.43191" lon="0.81841">
        <ele>155</ele>
        <time>2011-05-01T06:58:01Z</time>
      </trkpt>
      <trkpt lat="47.43198" lon="0.81841">
        <ele>156</ele>
        <time>2011-05-01T06:58:03Z</time>
      </trkpt>
      <trkpt lat="47.43206" lon="0.81838">
        <ele>156</ele>
        <time>2011-05-01T06:58:05Z</time>
      </trkpt>
      <trkpt lat="47.43212" lon="0.81834">
        <ele>156</ele>
        <time>2011-05-01T06:58:07Z</time>
      </trkpt>
      <trkpt lat="47.43219" lon="0.81828">
        <ele>156</ele>
        <time>2011-05-01T06:58:09Z</time>
      </trkpt>
      <trkpt lat="47.43225" lon="0.81821">
        <ele>156</ele>
        <time>2011-05-01T06:58:11Z</time>
      </trkpt>
      <trkpt lat="47.43232" lon="0.81814">
        <ele>156</ele>
        <time>2011-05-01T06:58:13Z</time>
      </trkpt>
      <trkpt lat="47.43238" lon="0.81806">
        <ele>157</ele>
        <time>2011-05-01T06:58:15Z</time>
      </trkpt>
      <trkpt lat="47.43244" lon="0.81799">
        <ele>157</ele>
        <time>2011-05-01T06:58:17Z</time>
      </trkpt>
      <trkpt lat="47.43249" lon="0.8179">
        <ele>157</ele>
        <time>2011-05-01T06:58:19Z</time>
      </trkpt>
      <trkpt lat="47.43255" lon="0.81782">
        <ele>157</ele>
        <time>2011-05-01T06:58:21Z</time>
      </trkpt>
      <trkpt lat="47.43261" lon="0.81773">
        <ele>157</ele>
        <time>2011-05-01T06:58:23Z</time>
      </trkpt>
      <trkpt lat="47.43267" lon="0.81765">
        <ele>157</ele>
        <time>2011-05-01T06:58:25Z</time>
      </trkpt>
      <trkpt lat="47.43272" lon="0.81757">
        <ele>157</ele>
        <time>2011-05-01T06:58:27Z</time>
      </trkpt>
      <trkpt lat="47.43277" lon="0.81749">
        <ele>156</ele>
        <time>2011-05-01T06:58:29Z</time>
      </trkpt>
      <trkpt lat="47.43283" lon="0.81741">
        <ele>157</ele>
        <time>2011-05-01T06:58:31Z</time>
      </trkpt>
      <trkpt lat="47.43289" lon="0.81732">
        <ele>157</ele>
        <time>2011-05-01T06:58:33Z</time>
      </trkpt>
      <trkpt lat="47.43294" lon="0.81724">
        <ele>157</ele>
        <time>2011-05-01T06:58:35Z</time>
      </trkpt>
      <trkpt lat="47.433" lon="0.81716">
        <ele>157</ele>
        <time>2011-05-01T06:58:37Z</time>
      </trkpt>
      <trkpt lat="47.43306" lon="0.81708">
        <ele>157</ele>
        <time>2011-05-01T06:58:39Z</time>
      </trkpt>
      <trkpt lat="47.43312" lon="0.81699">
        <ele>158</ele>
        <time>2011-05-01T06:58:41Z</time>
      </trkpt>
      <trkpt lat="47.43318" lon="0.81692">
        <ele>158</ele>
        <time>2011-05-01T06:58:43Z</time>
      </trkpt>
      <trkpt lat="47.43325" lon="0.81687">
        <ele>158</ele>
        <time>2011-05-01T06:58:45Z</time>
      </trkpt>
      <trkpt lat="47.43333" lon="0.81683">
        <ele>158</ele>
        <time>2011-05-01T06:58:47Z</time>
      </trkpt>
      <trkpt lat="47.43341" lon="0.8168">
        <ele>158</ele>
        <time>2011-05-01T06:58:49Z</time>
      </trkpt>
      <trkpt lat="47.43348" lon="0.81678">
        <ele>158</ele>
        <time>2011-05-01T06:58:51Z</time>
      </trkpt>
      <trkpt lat="47.43356" lon="0.81675">
        <ele>158</ele>
        <time>2011-05-01T06:58:53Z</time>
      </trkpt>
      <trkpt lat="47.43364" lon="0.81673">
        <ele>158</ele>
        <time>2011-05-01T06:58:55Z</time>
      </trkpt>
      <trkpt lat="47.43372" lon="0.8167">
        <ele>158</ele>
        <time>2011-05-01T06:58:57Z</time>
      </trkpt>
      <trkpt lat="47.43379" lon="0.81668">
        <ele>158</ele>
        <time>2011-05-01T06:58:59Z</time>
      </trkpt>
      <trkpt lat="47.43388" lon="0.81665">
        <ele>158</ele>
        <time>2011-05-01T06:59:01Z</time>
      </trkpt>
      <trkpt lat="47.43392" lon="0.81662">
        <ele>158</ele>
        <time>2011-05-01T06:59:02Z</time>
      </trkpt>
      <trkpt lat="47.43399" lon="0.81661">
        <ele>158</ele>
        <time>2011-05-01T06:59:04Z</time>
      </trkpt>
      <trkpt lat="47.43404" lon="0.81659">
        <ele>158</ele>
        <time>2011-05-01T06:59:05Z</time>
      </trkpt>
      <trkpt lat="47.43412" lon="0.81657">
        <ele>159</ele>
        <time>2011-05-01T06:59:07Z</time>
      </trkpt>
      <trkpt lat="47.4342" lon="0.81656">
        <ele>158</ele>
        <time>2011-05-01T06:59:09Z</time>
      </trkpt>
      <trkpt lat="47.43428" lon="0.81653">
        <ele>158</ele>
        <time>2011-05-01T06:59:11Z</time>
      </trkpt>
      <trkpt lat="47.43436" lon="0.81651">
        <ele>158</ele>
        <time>2011-05-01T06:59:13Z</time>
      </trkpt>
      <trkpt lat="47.43444" lon="0.81648">
        <ele>158</ele>
        <time>2011-05-01T06:59:15Z</time>
      </trkpt>
      <trkpt lat="47.43452" lon="0.81645">
        <ele>158</ele>
        <time>2011-05-01T06:59:17Z</time>
      </trkpt>
      <trkpt lat="47.4346" lon="0.81642">
        <ele>159</ele>
        <time>2011-05-01T06:59:19Z</time>
      </trkpt>
      <trkpt lat="47.43468" lon="0.81639">
        <ele>159</ele>
        <time>2011-05-01T06:59:21Z</time>
      </trkpt>
      <trkpt lat="47.43476" lon="0.81636">
        <ele>159</ele>
        <time>2011-05-01T06:59:23Z</time>
      </trkpt>
      <trkpt lat="47.43483" lon="0.81632">
        <ele>159</ele>
        <time>2011-05-01T06:59:25Z</time>
      </trkpt>
      <trkpt lat="47.43491" lon="0.81629">
        <ele>159</ele>
        <time>2011-05-01T06:59:27Z</time>
      </trkpt>
      <trkpt lat="47.435" lon="0.81626">
        <ele>159</ele>
        <time>2011-05-01T06:59:29Z</time>
      </trkpt>
      <trkpt lat="47.43506" lon="0.81623">
        <ele>158</ele>
        <time>2011-05-01T06:59:31Z</time>
      </trkpt>
      <trkpt lat="47.43512" lon="0.81619">
        <ele>159</ele>
        <time>2011-05-01T06:59:33Z</time>
      </trkpt>
      <trkpt lat="47.43519" lon="0.81615">
        <ele>158</ele>
        <time>2011-05-01T06:59:35Z</time>
      </trkpt>
      <trkpt lat="47.43527" lon="0.8161">
        <ele>158</ele>
        <time>2011-05-01T06:59:37Z</time>
      </trkpt>
      <trkpt lat="47.43534" lon="0.81604">
        <ele>158</ele>
        <time>2011-05-01T06:59:39Z</time>
      </trkpt>
      <trkpt lat="47.43541" lon="0.81599">
        <ele>158</ele>
        <time>2011-05-01T06:59:41Z</time>
      </trkpt>
      <trkpt lat="47.43548" lon="0.81592">
        <ele>158</ele>
        <time>2011-05-01T06:59:43Z</time>
      </trkpt>
      <trkpt lat="47.43554" lon="0.81586">
        <ele>158</ele>
        <time>2011-05-01T06:59:45Z</time>
      </trkpt>
      <trkpt lat="47.43561" lon="0.81579">
        <ele>158</ele>
        <time>2011-05-01T06:59:47Z</time>
      </trkpt>
      <trkpt lat="47.43568" lon="0.81571">
        <ele>158</ele>
        <time>2011-05-01T06:59:49Z</time>
      </trkpt>
      <trkpt lat="47.43574" lon="0.81563">
        <ele>158</ele>
        <time>2011-05-01T06:59:51Z</time>
      </trkpt>
      <trkpt lat="47.43581" lon="0.81557">
        <ele>158</ele>
        <time>2011-05-01T06:59:53Z</time>
      </trkpt>
      <trkpt lat="47.43585" lon="0.81553">
        <ele>158</ele>
        <time>2011-05-01T06:59:54Z</time>
      </trkpt>
      <trkpt lat="47.43592" lon="0.81547">
        <ele>158</ele>
        <time>2011-05-01T06:59:56Z</time>
      </trkpt>
      <trkpt lat="47.436" lon="0.81541">
        <ele>159</ele>
        <time>2011-05-01T06:59:58Z</time>
      </trkpt>
      <trkpt lat="47.43608" lon="0.81536">
        <ele>159</ele>
        <time>2011-05-01T07:00:00Z</time>
      </trkpt>
      <trkpt lat="47.43613" lon="0.81533">
        <ele>159</ele>
        <time>2011-05-01T07:00:01Z</time>
      </trkpt>
      <trkpt lat="47.43617" lon="0.81529">
        <ele>159</ele>
        <time>2011-05-01T07:00:02Z</time>
      </trkpt>
      <trkpt lat="47.43623" lon="0.81524">
        <ele>160</ele>
        <time>2011-05-01T07:00:04Z</time>
      </trkpt>
      <trkpt lat="47.4363" lon="0.81518">
        <ele>160</ele>
        <time>2011-05-01T07:00:06Z</time>
      </trkpt>
      <trkpt lat="47.43636" lon="0.81513">
        <ele>160</ele>
        <time>2011-05-01T07:00:08Z</time>
      </trkpt>
      <trkpt lat="47.43643" lon="0.81508">
        <ele>160</ele>
        <time>2011-05-01T07:00:10Z</time>
      </trkpt>
      <trkpt lat="47.43649" lon="0.81501">
        <ele>160</ele>
        <time>2011-05-01T07:00:12Z</time>
      </trkpt>
      <trkpt lat="47.43655" lon="0.81494">
        <ele>160</ele>
        <time>2011-05-01T07:00:14Z</time>
      </trkpt>
      <trkpt lat="47.43662" lon="0.81488">
        <ele>160</ele>
        <time>2011-05-01T07:00:16Z</time>
      </trkpt>
      <trkpt lat="47.43668" lon="0.81481">
        <ele>161</ele>
        <time>2011-05-01T07:00:18Z</time>
      </trkpt>
      <trkpt lat="47.43674" lon="0.81474">
        <ele>161</ele>
        <time>2011-05-01T07:00:20Z</time>
      </trkpt>
      <trkpt lat="47.4368" lon="0.81467">
        <ele>161</ele>
        <time>2011-05-01T07:00:22Z</time>
      </trkpt>
      <trkpt lat="47.43685" lon="0.8146">
        <ele>161</ele>
        <time>2011-05-01T07:00:24Z</time>
      </trkpt>
      <trkpt lat="47.43691" lon="0.81453">
        <ele>161</ele>
        <time>2011-05-01T07:00:26Z</time>
      </trkpt>
      <trkpt lat="47.43697" lon="0.81446">
        <ele>162</ele>
        <time>2011-05-01T07:00:28Z</time>
      </trkpt>
      <trkpt lat="47.43703" lon="0.81438">
        <ele>162</ele>
        <time>2011-05-01T07:00:30Z</time>
      </trkpt>
      <trkpt lat="47.4371" lon="0.81431">
        <ele>162</ele>
        <time>2011-05-01T07:00:32Z</time>
      </trkpt>
      <trkpt lat="47.43715" lon="0.81427">
        <ele>162</ele>
        <time>2011-05-01T07:00:33Z</time>
      </trkpt>
      <trkpt lat="47.43723" lon="0.81421">
        <ele>161</ele>
        <time>2011-05-01T07:00:35Z</time>
      </trkpt>
      <trkpt lat="47.43728" lon="0.81418">
        <ele>161</ele>
        <time>2011-05-01T07:00:36Z</time>
      </trkpt>
      <trkpt lat="47.43732" lon="0.81416">
        <ele>161</ele>
        <time>2011-05-01T07:00:37Z</time>
      </trkpt>
      <trkpt lat="47.43737" lon="0.81414">
        <ele>161</ele>
        <time>2011-05-01T07:00:38Z</time>
      </trkpt>
      <trkpt lat="47.43742" lon="0.81411">
        <ele>160</ele>
        <time>2011-05-01T07:00:39Z</time>
      </trkpt>
      <trkpt lat="47.43747" lon="0.8141">
        <ele>160</ele>
        <time>2011-05-01T07:00:40Z</time>
      </trkpt>
      <trkpt lat="47.43752" lon="0.81408">
        <ele>160</ele>
        <time>2011-05-01T07:00:41Z</time>
      </trkpt>
      <trkpt lat="47.43758" lon="0.81407">
        <ele>159</ele>
        <time>2011-05-01T07:00:42Z</time>
      </trkpt>
      <trkpt lat="47.43763" lon="0.81405">
        <ele>159</ele>
        <time>2011-05-01T07:00:43Z</time>
      </trkpt>
      <trkpt lat="47.43768" lon="0.81403">
        <ele>159</ele>
        <time>2011-05-01T07:00:44Z</time>
      </trkpt>
      <trkpt lat="47.43773" lon="0.81401">
        <ele>158</ele>
        <time>2011-05-01T07:00:45Z</time>
      </trkpt>
      <trkpt lat="47.43779" lon="0.81399">
        <ele>158</ele>
        <time>2011-05-01T07:00:46Z</time>
      </trkpt>
      <trkpt lat="47.43784" lon="0.81398">
        <ele>158</ele>
        <time>2011-05-01T07:00:47Z</time>
      </trkpt>
      <trkpt lat="47.4379" lon="0.81395">
        <ele>158</ele>
        <time>2011-05-01T07:00:48Z</time>
      </trkpt>
      <trkpt lat="47.43796" lon="0.81394">
        <ele>157</ele>
        <time>2011-05-01T07:00:49Z</time>
      </trkpt>
      <trkpt lat="47.43802" lon="0.81392">
        <ele>157</ele>
        <time>2011-05-01T07:00:50Z</time>
      </trkpt>
      <trkpt lat="47.43808" lon="0.81392">
        <ele>157</ele>
        <time>2011-05-01T07:00:51Z</time>
      </trkpt>
      <trkpt lat="47.43815" lon="0.81391">
        <ele>157</ele>
        <time>2011-05-01T07:00:52Z</time>
      </trkpt>
      <trkpt lat="47.43823" lon="0.81393">
        <ele>157</ele>
        <time>2011-05-01T07:00:53Z</time>
      </trkpt>
      <trkpt lat="47.43829" lon="0.81396">
        <ele>156</ele>
        <time>2011-05-01T07:00:54Z</time>
      </trkpt>
      <trkpt lat="47.43836" lon="0.81401">
        <ele>156</ele>
        <time>2011-05-01T07:00:55Z</time>
      </trkpt>
      <trkpt lat="47.43842" lon="0.81406">
        <ele>156</ele>
        <time>2011-05-01T07:00:56Z</time>
      </trkpt>
      <trkpt lat="47.43848" lon="0.81411">
        <ele>155</ele>
        <time>2011-05-01T07:00:57Z</time>
      </trkpt>
      <trkpt lat="47.43855" lon="0.81417">
        <ele>155</ele>
        <time>2011-05-01T07:00:58Z</time>
      </trkpt>
      <trkpt lat="47.43861" lon="0.81422">
        <ele>155</ele>
        <time>2011-05-01T07:00:59Z</time>
      </trkpt>
      <trkpt lat="47.43867" lon="0.81428">
        <ele>154</ele>
        <time>2011-05-01T07:01:00Z</time>
      </trkpt>
      <trkpt lat="47.43873" lon="0.81433">
        <ele>154</ele>
        <time>2011-05-01T07:01:01Z</time>
      </trkpt>
      <trkpt lat="47.43879" lon="0.81438">
        <ele>153</ele>
        <time>2011-05-01T07:01:02Z</time>
      </trkpt>
      <trkpt lat="47.43886" lon="0.81444">
        <ele>152</ele>
        <time>2011-05-01T07:01:03Z</time>
      </trkpt>
      <trkpt lat="47.43892" lon="0.8145">
        <ele>152</ele>
        <time>2011-05-01T07:01:04Z</time>
      </trkpt>
      <trkpt lat="47.43898" lon="0.81455">
        <ele>151</ele>
        <time>2011-05-01T07:01:05Z</time>
      </trkpt>
      <trkpt lat="47.43904" lon="0.81461">
        <ele>151</ele>
        <time>2011-05-01T07:01:06Z</time>
      </trkpt>
      <trkpt lat="47.43911" lon="0.81466">
        <ele>151</ele>
        <time>2011-05-01T07:01:07Z</time>
      </trkpt>
      <trkpt lat="47.43918" lon="0.8147">
        <ele>150</ele>
        <time>2011-05-01T07:01:08Z</time>
      </trkpt>
      <trkpt lat="47.43924" lon="0.81476">
        <ele>150</ele>
        <time>2011-05-01T07:01:09Z</time>
      </trkpt>
      <trkpt lat="47.43931" lon="0.81481">
        <ele>149</ele>
        <time>2011-05-01T07:01:10Z</time>
      </trkpt>
      <trkpt lat="47.43938" lon="0.81486">
        <ele>149</ele>
        <time>2011-05-01T07:01:11Z</time>
      </trkpt>
      <trkpt lat="47.43958" lon="0.81504">
        <ele>148</ele>
        <time>2011-05-01T07:01:14Z</time>
      </trkpt>
      <trkpt lat="47.43965" lon="0.8151">
        <ele>148</ele>
        <time>2011-05-01T07:01:15Z</time>
      </trkpt>
      <trkpt lat="47.43972" lon="0.81516">
        <ele>148</ele>
        <time>2011-05-01T07:01:16Z</time>
      </trkpt>
      <trkpt lat="47.43979" lon="0.81521">
        <ele>147</ele>
        <time>2011-05-01T07:01:17Z</time>
      </trkpt>
      <trkpt lat="47.43986" lon="0.81528">
        <ele>147</ele>
        <time>2011-05-01T07:01:18Z</time>
      </trkpt>
      <trkpt lat="47.43993" lon="0.81534">
        <ele>147</ele>
        <time>2011-05-01T07:01:19Z</time>
      </trkpt>
      <trkpt lat="47.44" lon="0.8154">
        <ele>146</ele>
        <time>2011-05-01T07:01:20Z</time>
      </trkpt>
      <trkpt lat="47.44007" lon="0.81546">
        <ele>146</ele>
        <time>2011-05-01T07:01:21Z</time>
      </trkpt>
      <trkpt lat="47.44014" lon="0.81552">
        <ele>146</ele>
        <time>2011-05-01T07:01:22Z</time>
      </trkpt>
      <trkpt lat="47.44021" lon="0.81558">
        <ele>146</ele>
        <time>2011-05-01T07:01:23Z</time>
      </trkpt>
      <trkpt lat="47.44028" lon="0.81564">
        <ele>146</ele>
        <time>2011-05-01T07:01:24Z</time>
      </trkpt>
      <trkpt lat="47.44034" lon="0.81571">
        <ele>146</ele>
        <time>2011-05-01T07:01:25Z</time>
      </trkpt>
      <trkpt lat="47.44041" lon="0.81577">
        <ele>146</ele>
        <time>2011-05-01T07:01:26Z</time>
      </trkpt>
      <trkpt lat="47.44048" lon="0.81584">
        <ele>145</ele>
        <time>2011-05-01T07:01:27Z</time>
      </trkpt>
      <trkpt lat="47.44055" lon="0.8159">
        <ele>145</ele>
        <time>2011-05-01T07:01:28Z</time>
      </trkpt>
      <trkpt lat="47.44062" lon="0.81595">
        <ele>144</ele>
        <time>2011-05-01T07:01:29Z</time>
      </trkpt>
      <trkpt lat="47.44069" lon="0.81601">
        <ele>144</ele>
        <time>2011-05-01T07:01:30Z</time>
      </trkpt>
      <trkpt lat="47.44077" lon="0.81606">
        <ele>144</ele>
        <time>2011-05-01T07:01:31Z</time>
      </trkpt>
      <trkpt lat="47.44085" lon="0.81612">
        <ele>143</ele>
        <time>2011-05-01T07:01:32Z</time>
      </trkpt>
      <trkpt lat="47.44093" lon="0.81616">
        <ele>142</ele>
        <time>2011-05-01T07:01:33Z</time>
      </trkpt>
      <trkpt lat="47.44102" lon="0.81619">
        <ele>142</ele>
        <time>2011-05-01T07:01:34Z</time>
      </trkpt>
      <trkpt lat="47.4411" lon="0.81623">
        <ele>142</ele>
        <time>2011-05-01T07:01:35Z</time>
      </trkpt>
      <trkpt lat="47.4412" lon="0.81629">
        <ele>142</ele>
        <time>2011-05-01T07:01:36Z</time>
      </trkpt>
      <trkpt lat="47.44128" lon="0.81634">
        <ele>142</ele>
        <time>2011-05-01T07:01:37Z</time>
      </trkpt>
      <trkpt lat="47.44137" lon="0.8164">
        <ele>142</ele>
        <time>2011-05-01T07:01:38Z</time>
      </trkpt>
      <trkpt lat="47.44146" lon="0.81649">
        <ele>142</ele>
        <time>2011-05-01T07:01:39Z</time>
      </trkpt>
      <trkpt lat="47.44155" lon="0.8166">
        <ele>141</ele>
        <time>2011-05-01T07:01:40Z</time>
      </trkpt>
      <trkpt lat="47.44164" lon="0.8167">
        <ele>141</ele>
        <time>2011-05-01T07:01:41Z</time>
      </trkpt>
      <trkpt lat="47.44174" lon="0.81678">
        <ele>140</ele>
        <time>2011-05-01T07:01:42Z</time>
      </trkpt>
      <trkpt lat="47.44181" lon="0.81687">
        <ele>139</ele>
        <time>2011-05-01T07:01:43Z</time>
      </trkpt>
      <trkpt lat="47.44191" lon="0.81694">
        <ele>138</ele>
        <time>2011-05-01T07:01:44Z</time>
      </trkpt>
      <trkpt lat="47.44199" lon="0.81702">
        <ele>137</ele>
        <time>2011-05-01T07:01:45Z</time>
      </trkpt>
      <trkpt lat="47.44208" lon="0.81706">
        <ele>136</ele>
        <time>2011-05-01T07:01:46Z</time>
      </trkpt>
      <trkpt lat="47.44214" lon="0.81709">
        <ele>136</ele>
        <time>2011-05-01T07:01:47Z</time>
      </trkpt>
      <trkpt lat="47.4422" lon="0.8171">
        <ele>136</ele>
        <time>2011-05-01T07:01:48Z</time>
      </trkpt>
      <trkpt lat="47.44227" lon="0.81714">
        <ele>135</ele>
        <time>2011-05-01T07:01:50Z</time>
      </trkpt>
      <trkpt lat="47.4423" lon="0.81723">
        <ele>135</ele>
        <time>2011-05-01T07:01:52Z</time>
      </trkpt>
      <trkpt lat="47.4423" lon="0.81732">
        <ele>134</ele>
        <time>2011-05-01T07:01:54Z</time>
      </trkpt>
      <trkpt lat="47.4423" lon="0.81745">
        <ele>134</ele>
        <time>2011-05-01T07:01:56Z</time>
      </trkpt>
      <trkpt lat="47.44232" lon="0.81754">
        <ele>134</ele>
        <time>2011-05-01T07:01:58Z</time>
      </trkpt>
      <trkpt lat="47.44232" lon="0.81762">
        <ele>134</ele>
        <time>2011-05-01T07:02:00Z</time>
      </trkpt>
      <trkpt lat="47.44232" lon="0.81769">
        <ele>134</ele>
        <time>2011-05-01T07:02:02Z</time>
      </trkpt>
      <trkpt lat="47.44232" lon="0.81776">
        <ele>134</ele>
        <time>2011-05-01T07:02:04Z</time>
      </trkpt>
      <trkpt lat="47.44233" lon="0.81785">
        <ele>134</ele>
        <time>2011-05-01T07:02:07Z</time>
      </trkpt>
      <trkpt lat="47.44233" lon="0.81792">
        <ele>134</ele>
        <time>2011-05-01T07:02:10Z</time>
      </trkpt>
      <trkpt lat="47.44231" lon="0.818">
        <ele>134</ele>
        <time>2011-05-01T07:02:14Z</time>
      </trkpt>
      <trkpt lat="47.44232" lon="0.81808">
        <ele>135</ele>
        <time>2011-05-01T07:02:52Z</time>
      </trkpt>
      <trkpt lat="47.44232" lon="0.81816">
        <ele>134</ele>
        <time>2011-05-01T07:02:55Z</time>
      </trkpt>
      <trkpt lat="47.44232" lon="0.81825">
        <ele>134</ele>
        <time>2011-05-01T07:02:57Z</time>
      </trkpt>
      <trkpt lat="47.44232" lon="0.81835">
        <ele>134</ele>
        <time>2011-05-01T07:02:59Z</time>
      </trkpt>
      <trkpt lat="47.44231" lon="0.81846">
        <ele>134</ele>
        <time>2011-05-01T07:03:01Z</time>
      </trkpt>
      <trkpt lat="47.4423" lon="0.81858">
        <ele>134</ele>
        <time>2011-05-01T07:03:03Z</time>
      </trkpt>
      <trkpt lat="47.4423" lon="0.81865">
        <ele>134</ele>
        <time>2011-05-01T07:03:04Z</time>
      </trkpt>
      <trkpt lat="47.44228" lon="0.81879">
        <ele>134</ele>
        <time>2011-05-01T07:03:06Z</time>
      </trkpt>
      <trkpt lat="47.44227" lon="0.81885">
        <ele>134</ele>
        <time>2011-05-01T07:03:07Z</time>
      </trkpt>
      <trkpt lat="47.44226" lon="0.81898">
        <ele>134</ele>
        <time>2011-05-01T07:03:09Z</time>
      </trkpt>
      <trkpt lat="47.44225" lon="0.81906">
        <ele>134</ele>
        <time>2011-05-01T07:03:10Z</time>
      </trkpt>
      <trkpt lat="47.44225" lon="0.81912">
        <ele>134</ele>
        <time>2011-05-01T07:03:11Z</time>
      </trkpt>
      <trkpt lat="47.44224" lon="0.81919">
        <ele>134</ele>
        <time>2011-05-01T07:03:12Z</time>
      </trkpt>
      <trkpt lat="47.44224" lon="0.81927">
        <ele>134</ele>
        <time>2011-05-01T07:03:13Z</time>
      </trkpt>
      <trkpt lat="47.44223" lon="0.81934">
        <ele>133</ele>
        <time>2011-05-01T07:03:14Z</time>
      </trkpt>
      <trkpt lat="47.44222" lon="0.81941">
        <ele>134</ele>
        <time>2011-05-01T07:03:15Z</time>
      </trkpt>
      <trkpt lat="47.44221" lon="0.81949">
        <ele>134</ele>
        <time>2011-05-01T07:03:16Z</time>
      </trkpt>
      <trkpt lat="47.44219" lon="0.81957">
        <ele>133</ele>
        <time>2011-05-01T07:03:17Z</time>
      </trkpt>
      <trkpt lat="47.44218" lon="0.81964">
        <ele>133</ele>
        <time>2011-05-01T07:03:18Z</time>
      </trkpt>
      <trkpt lat="47.44217" lon="0.81972">
        <ele>133</ele>
        <time>2011-05-01T07:03:19Z</time>
      </trkpt>
      <trkpt lat="47.44215" lon="0.81981">
        <ele>133</ele>
        <time>2011-05-01T07:03:20Z</time>
      </trkpt>
      <trkpt lat="47.44214" lon="0.81988">
        <ele>133</ele>
        <time>2011-05-01T07:03:21Z</time>
      </trkpt>
      <trkpt lat="47.44212" lon="0.81996">
        <ele>132</ele>
        <time>2011-05-01T07:03:22Z</time>
      </trkpt>
      <trkpt lat="47.4421" lon="0.82003">
        <ele>133</ele>
        <time>2011-05-01T07:03:23Z</time>
      </trkpt>
      <trkpt lat="47.44208" lon="0.8201">
        <ele>132</ele>
        <time>2011-05-01T07:03:24Z</time>
      </trkpt>
      <trkpt lat="47.44206" lon="0.82017">
        <ele>132</ele>
        <time>2011-05-01T07:03:25Z</time>
      </trkpt>
      <trkpt lat="47.44204" lon="0.82024">
        <ele>132</ele>
        <time>2011-05-01T07:03:26Z</time>
      </trkpt>
      <trkpt lat="47.44201" lon="0.8203">
        <ele>133</ele>
        <time>2011-05-01T07:03:27Z</time>
      </trkpt>
      <trkpt lat="47.44198" lon="0.82037">
        <ele>133</ele>
        <time>2011-05-01T07:03:28Z</time>
      </trkpt>
      <trkpt lat="47.44196" lon="0.82043">
        <ele>133</ele>
        <time>2011-05-01T07:03:29Z</time>
      </trkpt>
      <trkpt lat="47.44193" lon="0.8205">
        <ele>133</ele>
        <time>2011-05-01T07:03:30Z</time>
      </trkpt>
      <trkpt lat="47.4419" lon="0.82056">
        <ele>133</ele>
        <time>2011-05-01T07:03:31Z</time>
      </trkpt>
      <trkpt lat="47.44188" lon="0.82062">
        <ele>132</ele>
        <time>2011-05-01T07:03:32Z</time>
      </trkpt>
      <trkpt lat="47.44184" lon="0.82068">
        <ele>132</ele>
        <time>2011-05-01T07:03:33Z</time>
      </trkpt>
      <trkpt lat="47.44181" lon="0.82074">
        <ele>132</ele>
        <time>2011-05-01T07:03:34Z</time>
      </trkpt>
      <trkpt lat="47.44178" lon="0.8208">
        <ele>132</ele>
        <time>2011-05-01T07:03:35Z</time>
      </trkpt>
      <trkpt lat="47.44174" lon="0.82085">
        <ele>132</ele>
        <time>2011-05-01T07:03:36Z</time>
      </trkpt>
      <trkpt lat="47.44171" lon="0.8209">
        <ele>132</ele>
        <time>2011-05-01T07:03:37Z</time>
      </trkpt>
      <trkpt lat="47.44167" lon="0.82096">
        <ele>132</ele>
        <time>2011-05-01T07:03:38Z</time>
      </trkpt>
      <trkpt lat="47.44164" lon="0.82101">
        <ele>132</ele>
        <time>2011-05-01T07:03:39Z</time>
      </trkpt>
      <trkpt lat="47.4416" lon="0.82107">
        <ele>132</ele>
        <time>2011-05-01T07:03:40Z</time>
      </trkpt>
      <trkpt lat="47.44157" lon="0.82113">
        <ele>132</ele>
        <time>2011-05-01T07:03:41Z</time>
      </trkpt>
      <trkpt lat="47.44153" lon="0.82118">
        <ele>132</ele>
        <time>2011-05-01T07:03:42Z</time>
      </trkpt>
      <trkpt lat="47.4415" lon="0.82124">
        <ele>132</ele>
        <time>2011-05-01T07:03:43Z</time>
      </trkpt>
      <trkpt lat="47.44146" lon="0.82129">
        <ele>132</ele>
        <time>2011-05-01T07:03:44Z</time>
      </trkpt>
      <trkpt lat="47.44143" lon="0.82135">
        <ele>132</ele>
        <time>2011-05-01T07:03:45Z</time>
      </trkpt>
      <trkpt lat="47.44139" lon="0.8214">
        <ele>132</ele>
        <time>2011-05-01T07:03:46Z</time>
      </trkpt>
      <trkpt lat="47.44136" lon="0.82146">
        <ele>132</ele>
        <time>2011-05-01T07:03:47Z</time>
      </trkpt>
      <trkpt lat="47.44132" lon="0.82152">
        <ele>132</ele>
        <time>2011-05-01T07:03:48Z</time>
      </trkpt>
      <trkpt lat="47.44129" lon="0.82158">
        <ele>132</ele>
        <time>2011-05-01T07:03:49Z</time>
      </trkpt>
      <trkpt lat="47.44126" lon="0.82164">
        <ele>132</ele>
        <time>2011-05-01T07:03:50Z</time>
      </trkpt>
      <trkpt lat="47.44123" lon="0.8217">
        <ele>132</ele>
        <time>2011-05-01T07:03:51Z</time>
      </trkpt>
      <trkpt lat="47.4412" lon="0.82176">
        <ele>132</ele>
        <time>2011-05-01T07:03:52Z</time>
      </trkpt>
      <trkpt lat="47.44117" lon="0.82182">
        <ele>132</ele>
        <time>2011-05-01T07:03:53Z</time>
      </trkpt>
      <trkpt lat="47.44114" lon="0.8219">
        <ele>132</ele>
        <time>2011-05-01T07:03:55Z</time>
      </trkpt>
      <trkpt lat="47.44107" lon="0.8219">
        <ele>131</ele>
        <time>2011-05-01T07:03:59Z</time>
      </trkpt>
      <trkpt lat="47.44103" lon="0.82184">
        <ele>131</ele>
        <time>2011-05-01T07:04:02Z</time>
      </trkpt>
      <trkpt lat="47.44098" lon="0.82178">
        <ele>131</ele>
        <time>2011-05-01T07:04:04Z</time>
      </trkpt>
      <trkpt lat="47.44096" lon="0.82172">
        <ele>130</ele>
        <time>2011-05-01T07:04:06Z</time>
      </trkpt>
      <trkpt lat="47.44092" lon="0.82165">
        <ele>131</ele>
        <time>2011-05-01T07:04:08Z</time>
      </trkpt>
      <trkpt lat="47.44087" lon="0.82156">
        <ele>131</ele>
        <time>2011-05-01T07:04:11Z</time>
      </trkpt>
      <trkpt lat="47.44082" lon="0.82151">
        <ele>130</ele>
        <time>2011-05-01T07:04:14Z</time>
      </trkpt>
      <trkpt lat="47.44077" lon="0.82147">
        <ele>130</ele>
        <time>2011-05-01T07:04:16Z</time>
      </trkpt>
      <trkpt lat="47.44071" lon="0.82144">
        <ele>130</ele>
        <time>2011-05-01T07:04:18Z</time>
      </trkpt>
      <trkpt lat="47.44064" lon="0.82139">
        <ele>129</ele>
        <time>2011-05-01T07:04:20Z</time>
      </trkpt>
      <trkpt lat="47.44058" lon="0.82135">
        <ele>130</ele>
        <time>2011-05-01T07:04:23Z</time>
      </trkpt>
      <trkpt lat="47.44053" lon="0.82134">
        <ele>131</ele>
        <time>2011-05-01T07:04:25Z</time>
      </trkpt>
      <trkpt lat="47.44048" lon="0.82131">
        <ele>132</ele>
        <time>2011-05-01T07:04:28Z</time>
      </trkpt>
      <trkpt lat="47.44042" lon="0.82129">
        <ele>133</ele>
        <time>2011-05-01T07:04:30Z</time>
      </trkpt>
      <trkpt lat="47.44038" lon="0.8213">
        <ele>133</ele>
        <time>2011-05-01T07:04:33Z</time>
      </trkpt>
      <trkpt lat="47.44032" lon="0.82132">
        <ele>133</ele>
        <time>2011-05-01T07:04:35Z</time>
      </trkpt>
      <trkpt lat="47.44026" lon="0.8213">
        <ele>134</ele>
        <time>2011-05-01T07:04:37Z</time>
      </trkpt>
      <trkpt lat="47.44021" lon="0.8213">
        <ele>135</ele>
        <time>2011-05-01T07:04:39Z</time>
      </trkpt>
      <trkpt lat="47.44015" lon="0.82128">
        <ele>136</ele>
        <time>2011-05-01T07:04:42Z</time>
      </trkpt>
      <trkpt lat="47.44009" lon="0.82125">
        <ele>136</ele>
        <time>2011-05-01T07:04:45Z</time>
      </trkpt>
      <trkpt lat="47.44004" lon="0.82121">
        <ele>138</ele>
        <time>2011-05-01T07:04:50Z</time>
      </trkpt>
      <trkpt lat="47.43999" lon="0.82112">
        <ele>138</ele>
        <time>2011-05-01T07:04:53Z</time>
      </trkpt>
      <trkpt lat="47.43994" lon="0.8211">
        <ele>138</ele>
        <time>2011-05-01T07:04:55Z</time>
      </trkpt>
      <trkpt lat="47.43989" lon="0.82106">
        <ele>137</ele>
        <time>2011-05-01T07:04:58Z</time>
      </trkpt>
      <trkpt lat="47.43985" lon="0.82102">
        <ele>138</ele>
        <time>2011-05-01T07:05:00Z</time>
      </trkpt>
      <trkpt lat="47.43979" lon="0.82098">
        <ele>137</ele>
        <time>2011-05-01T07:05:02Z</time>
      </trkpt>
      <trkpt lat="47.43973" lon="0.82098">
        <ele>138</ele>
        <time>2011-05-01T07:05:04Z</time>
      </trkpt>
      <trkpt lat="47.43968" lon="0.82093">
        <ele>139</ele>
        <time>2011-05-01T07:05:06Z</time>
      </trkpt>
      <trkpt lat="47.43962" lon="0.82091">
        <ele>140</ele>
        <time>2011-05-01T07:05:08Z</time>
      </trkpt>
      <trkpt lat="47.43956" lon="0.8209">
        <ele>140</ele>
        <time>2011-05-01T07:05:10Z</time>
      </trkpt>
      <trkpt lat="47.4395" lon="0.82087">
        <ele>140</ele>
        <time>2011-05-01T07:05:12Z</time>
      </trkpt>
      <trkpt lat="47.43945" lon="0.82086">
        <ele>139</ele>
        <time>2011-05-01T07:05:13Z</time>
      </trkpt>
      <trkpt lat="47.43937" lon="0.82084">
        <ele>138</ele>
        <time>2011-05-01T07:05:15Z</time>
      </trkpt>
      <trkpt lat="47.43929" lon="0.82085">
        <ele>141</ele>
        <time>2011-05-01T07:05:17Z</time>
      </trkpt>
      <trkpt lat="47.43924" lon="0.82085">
        <ele>142</ele>
        <time>2011-05-01T07:05:18Z</time>
      </trkpt>
      <trkpt lat="47.43918" lon="0.82085">
        <ele>144</ele>
        <time>2011-05-01T07:05:19Z</time>
      </trkpt>
      <trkpt lat="47.43912" lon="0.82084">
        <ele>145</ele>
        <time>2011-05-01T07:05:21Z</time>
      </trkpt>
      <trkpt lat="47.43905" lon="0.82083">
        <ele>146</ele>
        <time>2011-05-01T07:05:23Z</time>
      </trkpt>
      <trkpt lat="47.43898" lon="0.82083">
        <ele>147</ele>
        <time>2011-05-01T07:05:25Z</time>
      </trkpt>
      <trkpt lat="47.43893" lon="0.82081">
        <ele>147</ele>
        <time>2011-05-01T07:05:27Z</time>
      </trkpt>
      <trkpt lat="47.43887" lon="0.82083">
        <ele>148</ele>
        <time>2011-05-01T07:05:29Z</time>
      </trkpt>
      <trkpt lat="47.43881" lon="0.82083">
        <ele>149</ele>
        <time>2011-05-01T07:05:32Z</time>
      </trkpt>
      <trkpt lat="47.43876" lon="0.82082">
        <ele>151</ele>
        <time>2011-05-01T07:05:35Z</time>
      </trkpt>
      <trkpt lat="47.43871" lon="0.8208">
        <ele>151</ele>
        <time>2011-05-01T07:05:37Z</time>
      </trkpt>
      <trkpt lat="47.43866" lon="0.82081">
        <ele>150</ele>
        <time>2011-05-01T07:05:39Z</time>
      </trkpt>
      <trkpt lat="47.43862" lon="0.82082">
        <ele>151</ele>
        <time>2011-05-01T07:05:42Z</time>
      </trkpt>
      <trkpt lat="47.43856" lon="0.82081">
        <ele>152</ele>
        <time>2011-05-01T07:05:45Z</time>
      </trkpt>
      <trkpt lat="47.43851" lon="0.8208">
        <ele>153</ele>
        <time>2011-05-01T07:05:47Z</time>
      </trkpt>
      <trkpt lat="47.43845" lon="0.82078">
        <ele>153</ele>
        <time>2011-05-01T07:05:50Z</time>
      </trkpt>
      <trkpt lat="47.4384" lon="0.82077">
        <ele>154</ele>
        <time>2011-05-01T07:05:54Z</time>
      </trkpt>
      <trkpt lat="47.43838" lon="0.82082">
        <ele>154</ele>
        <time>2011-05-01T07:05:59Z</time>
      </trkpt>
      <trkpt lat="47.43839" lon="0.82091">
        <ele>153</ele>
        <time>2011-05-01T07:06:04Z</time>
      </trkpt>
      <trkpt lat="47.4384" lon="0.82099">
        <ele>153</ele>
        <time>2011-05-01T07:06:07Z</time>
      </trkpt>
      <trkpt lat="47.43842" lon="0.82107">
        <ele>151</ele>
        <time>2011-05-01T07:06:09Z</time>
      </trkpt>
      <trkpt lat="47.4384" lon="0.82114">
        <ele>150</ele>
        <time>2011-05-01T07:06:11Z</time>
      </trkpt>
      <trkpt lat="47.4384" lon="0.82122">
        <ele>150</ele>
        <time>2011-05-01T07:06:14Z</time>
      </trkpt>
      <trkpt lat="47.43838" lon="0.82131">
        <ele>149</ele>
        <time>2011-05-01T07:06:18Z</time>
      </trkpt>
      <trkpt lat="47.43838" lon="0.82138">
        <ele>149</ele>
        <time>2011-05-01T07:06:21Z</time>
      </trkpt>
      <trkpt lat="47.4384" lon="0.82145">
        <ele>148</ele>
        <time>2011-05-01T07:06:24Z</time>
      </trkpt>
      <trkpt lat="47.4384" lon="0.82153">
        <ele>149</ele>
        <time>2011-05-01T07:06:26Z</time>
      </trkpt>
      <trkpt lat="47.4384" lon="0.82161">
        <ele>149</ele>
        <time>2011-05-01T07:06:28Z</time>
      </trkpt>
      <trkpt lat="47.43839" lon="0.8217">
        <ele>150</ele>
        <time>2011-05-01T07:06:30Z</time>
      </trkpt>
      <trkpt lat="47.4384" lon="0.82179">
        <ele>150</ele>
        <time>2011-05-01T07:06:32Z</time>
      </trkpt>
      <trkpt lat="47.4384" lon="0.82187">
        <ele>150</ele>
        <time>2011-05-01T07:06:34Z</time>
      </trkpt>
      <trkpt lat="47.43842" lon="0.82195">
        <ele>150</ele>
        <time>2011-05-01T07:06:36Z</time>
      </trkpt>
      <trkpt lat="47.43842" lon="0.82204">
        <ele>150</ele>
        <time>2011-05-01T07:06:38Z</time>
      </trkpt>
      <trkpt lat="47.43842" lon="0.82213">
        <ele>150</ele>
        <time>2011-05-01T07:06:40Z</time>
      </trkpt>
      <trkpt lat="47.43845" lon="0.82222">
        <ele>153</ele>
        <time>2011-05-01T07:06:42Z</time>
      </trkpt>
      <trkpt lat="47.43848" lon="0.82232">
        <ele>157</ele>
        <time>2011-05-01T07:06:44Z</time>
      </trkpt>
      <trkpt lat="47.43849" lon="0.8224">
        <ele>158</ele>
        <time>2011-05-01T07:06:46Z</time>
      </trkpt>
      <trkpt lat="47.43848" lon="0.82247">
        <ele>157</ele>
        <time>2011-05-01T07:06:48Z</time>
      </trkpt>
      <trkpt lat="47.43848" lon="0.82257">
        <ele>157</ele>
        <time>2011-05-01T07:06:50Z</time>
      </trkpt>
      <trkpt lat="47.43848" lon="0.82265">
        <ele>156</ele>
        <time>2011-05-01T07:06:52Z</time>
      </trkpt>
      <trkpt lat="47.43848" lon="0.82274">
        <ele>156</ele>
        <time>2011-05-01T07:06:54Z</time>
      </trkpt>
      <trkpt lat="47.43849" lon="0.82282">
        <ele>157</ele>
        <time>2011-05-01T07:06:56Z</time>
      </trkpt>
      <trkpt lat="47.43849" lon="0.82292">
        <ele>156</ele>
        <time>2011-05-01T07:06:58Z</time>
      </trkpt>
      <trkpt lat="47.43849" lon="0.82301">
        <ele>156</ele>
        <time>2011-05-01T07:07:00Z</time>
      </trkpt>
      <trkpt lat="47.4385" lon="0.82311">
        <ele>156</ele>
        <time>2011-05-01T07:07:02Z</time>
      </trkpt>
      <trkpt lat="47.4385" lon="0.82321">
        <ele>156</ele>
        <time>2011-05-01T07:07:04Z</time>
      </trkpt>
      <trkpt lat="47.4385" lon="0.82332">
        <ele>155</ele>
        <time>2011-05-01T07:07:06Z</time>
      </trkpt>
      <trkpt lat="47.43851" lon="0.82342">
        <ele>156</ele>
        <time>2011-05-01T07:07:08Z</time>
      </trkpt>
      <trkpt lat="47.4385" lon="0.82353">
        <ele>154</ele>
        <time>2011-05-01T07:07:10Z</time>
      </trkpt>
      <trkpt lat="47.43849" lon="0.82364">
        <ele>154</ele>
        <time>2011-05-01T07:07:12Z</time>
      </trkpt>
      <trkpt lat="47.4385" lon="0.82374">
        <ele>154</ele>
        <time>2011-05-01T07:07:14Z</time>
      </trkpt>
      <trkpt lat="47.43854" lon="0.82384">
        <ele>154</ele>
        <time>2011-05-01T07:07:16Z</time>
      </trkpt>
      <trkpt lat="47.43864" lon="0.82382">
        <ele>152</ele>
        <time>2011-05-01T07:07:18Z</time>
      </trkpt>
      <trkpt lat="47.43871" lon="0.82381">
        <ele>150</ele>
        <time>2011-05-01T07:07:20Z</time>
      </trkpt>
      <trkpt lat="47.43878" lon="0.82382">
        <ele>151</ele>
        <time>2011-05-01T07:07:22Z</time>
      </trkpt>
      <trkpt lat="47.43886" lon="0.82381">
        <ele>151</ele>
        <time>2011-05-01T07:07:24Z</time>
      </trkpt>
      <trkpt lat="47.43891" lon="0.82381">
        <ele>151</ele>
        <time>2011-05-01T07:07:25Z</time>
      </trkpt>
      <trkpt lat="47.439" lon="0.82379">
        <ele>150</ele>
        <time>2011-05-01T07:07:27Z</time>
      </trkpt>
      <trkpt lat="47.43905" lon="0.82379">
        <ele>149</ele>
        <time>2011-05-01T07:07:28Z</time>
      </trkpt>
      <trkpt lat="47.43914" lon="0.8238">
        <ele>148</ele>
        <time>2011-05-01T07:07:30Z</time>
      </trkpt>
      <trkpt lat="47.43918" lon="0.82389">
        <ele>148</ele>
        <time>2011-05-01T07:07:32Z</time>
      </trkpt>
      <trkpt lat="47.43918" lon="0.82401">
        <ele>149</ele>
        <time>2011-05-01T07:07:34Z</time>
      </trkpt>
      <trkpt lat="47.4392" lon="0.8241">
        <ele>149</ele>
        <time>2011-05-01T07:07:36Z</time>
      </trkpt>
      <trkpt lat="47.43922" lon="0.82419">
        <ele>148</ele>
        <time>2011-05-01T07:07:38Z</time>
      </trkpt>
      <trkpt lat="47.43923" lon="0.82428">
        <ele>149</ele>
        <time>2011-05-01T07:07:40Z</time>
      </trkpt>
      <trkpt lat="47.43923" lon="0.82438">
        <ele>149</ele>
        <time>2011-05-01T07:07:42Z</time>
      </trkpt>
      <trkpt lat="47.43924" lon="0.82448">
        <ele>149</ele>
        <time>2011-05-01T07:07:44Z</time>
      </trkpt>
      <trkpt lat="47.43925" lon="0.82457">
        <ele>150</ele>
        <time>2011-05-01T07:07:46Z</time>
      </trkpt>
      <trkpt lat="47.43925" lon="0.82467">
        <ele>150</ele>
        <time>2011-05-01T07:07:48Z</time>
      </trkpt>
      <trkpt lat="47.43926" lon="0.82476">
        <ele>150</ele>
        <time>2011-05-01T07:07:50Z</time>
      </trkpt>
      <trkpt lat="47.43927" lon="0.82486">
        <ele>151</ele>
        <time>2011-05-01T07:07:52Z</time>
      </trkpt>
      <trkpt lat="47.43927" lon="0.82496">
        <ele>151</ele>
        <time>2011-05-01T07:07:54Z</time>
      </trkpt>
      <trkpt lat="47.43927" lon="0.82506">
        <ele>151</ele>
        <time>2011-05-01T07:07:56Z</time>
      </trkpt>
      <trkpt lat="47.43928" lon="0.82516">
        <ele>151</ele>
        <time>2011-05-01T07:07:58Z</time>
      </trkpt>
      <trkpt lat="47.43927" lon="0.82527">
        <ele>152</ele>
        <time>2011-05-01T07:08:00Z</time>
      </trkpt>
      <trkpt lat="47.43928" lon="0.82538">
        <ele>152</ele>
        <time>2011-05-01T07:08:02Z</time>
      </trkpt>
      <trkpt lat="47.43927" lon="0.82549">
        <ele>152</ele>
        <time>2011-05-01T07:08:04Z</time>
      </trkpt>
      <trkpt lat="47.43928" lon="0.82557">
        <ele>152</ele>
        <time>2011-05-01T07:08:06Z</time>
      </trkpt>
      <trkpt lat="47.43928" lon="0.82566">
        <ele>152</ele>
        <time>2011-05-01T07:08:08Z</time>
      </trkpt>
      <trkpt lat="47.43928" lon="0.82575">
        <ele>152</ele>
        <time>2011-05-01T07:08:10Z</time>
      </trkpt>
      <trkpt lat="47.43928" lon="0.82584">
        <ele>152</ele>
        <time>2011-05-01T07:08:12Z</time>
      </trkpt>
      <trkpt lat="47.43927" lon="0.82591">
        <ele>152</ele>
        <time>2011-05-01T07:08:14Z</time>
      </trkpt>
      <trkpt lat="47.43927" lon="0.82598">
        <ele>152</ele>
        <time>2011-05-01T07:08:16Z</time>
      </trkpt>
      <trkpt lat="47.43927" lon="0.82605">
        <ele>153</ele>
        <time>2011-05-01T07:08:18Z</time>
      </trkpt>
      <trkpt lat="47.43926" lon="0.82612">
        <ele>153</ele>
        <time>2011-05-01T07:08:20Z</time>
      </trkpt>
      <trkpt lat="47.43924" lon="0.8262">
        <ele>152</ele>
        <time>2011-05-01T07:08:22Z</time>
      </trkpt>
      <trkpt lat="47.4392" lon="0.82624">
        <ele>153</ele>
        <time>2011-05-01T07:08:24Z</time>
      </trkpt>
      <trkpt lat="47.43915" lon="0.82622">
        <ele>153</ele>
        <time>2011-05-01T07:08:26Z</time>
      </trkpt>
      <trkpt lat="47.43909" lon="0.8262">
        <ele>153</ele>
        <time>2011-05-01T07:08:29Z</time>
      </trkpt>
      <trkpt lat="47.43904" lon="0.82617">
        <ele>153</ele>
        <time>2011-05-01T07:08:31Z</time>
      </trkpt>
      <trkpt lat="47.43899" lon="0.82614">
        <ele>154</ele>
        <time>2011-05-01T07:08:33Z</time>
      </trkpt>
      <trkpt lat="47.43893" lon="0.82612">
        <ele>153</ele>
        <time>2011-05-01T07:08:35Z</time>
      </trkpt>
      <trkpt lat="47.43887" lon="0.82611">
        <ele>153</ele>
        <time>2011-05-01T07:08:37Z</time>
      </trkpt>
      <trkpt lat="47.4388" lon="0.8261">
        <ele>153</ele>
        <time>2011-05-01T07:08:39Z</time>
      </trkpt>
      <trkpt lat="47.43874" lon="0.82612">
        <ele>153</ele>
        <time>2011-05-01T07:08:41Z</time>
      </trkpt>
      <trkpt lat="47.43868" lon="0.82612">
        <ele>152</ele>
        <time>2011-05-01T07:08:43Z</time>
      </trkpt>
      <trkpt lat="47.43859" lon="0.82614">
        <ele>152</ele>
        <time>2011-05-01T07:08:45Z</time>
      </trkpt>
      <trkpt lat="47.43851" lon="0.82615">
        <ele>154</ele>
        <time>2011-05-01T07:08:47Z</time>
      </trkpt>
      <trkpt lat="47.43844" lon="0.82616">
        <ele>154</ele>
        <time>2011-05-01T07:08:49Z</time>
      </trkpt>
      <trkpt lat="47.43837" lon="0.82618">
        <ele>153</ele>
        <time>2011-05-01T07:08:51Z</time>
      </trkpt>
      <trkpt lat="47.43829" lon="0.82621">
        <ele>154</ele>
        <time>2011-05-01T07:08:53Z</time>
      </trkpt>
      <trkpt lat="47.43821" lon="0.82623">
        <ele>154</ele>
        <time>2011-05-01T07:08:55Z</time>
      </trkpt>
      <trkpt lat="47.43813" lon="0.82626">
        <ele>153</ele>
        <time>2011-05-01T07:08:57Z</time>
      </trkpt>
      <trkpt lat="47.43805" lon="0.82628">
        <ele>154</ele>
        <time>2011-05-01T07:08:59Z</time>
      </trkpt>
      <trkpt lat="47.43798" lon="0.82631">
        <ele>153</ele>
        <time>2011-05-01T07:09:01Z</time>
      </trkpt>
      <trkpt lat="47.43791" lon="0.82633">
        <ele>154</ele>
        <time>2011-05-01T07:09:03Z</time>
      </trkpt>
      <trkpt lat="47.43783" lon="0.82637">
        <ele>154</ele>
        <time>2011-05-01T07:09:05Z</time>
      </trkpt>
      <trkpt lat="47.43775" lon="0.82639">
        <ele>154</ele>
        <time>2011-05-01T07:09:07Z</time>
      </trkpt>
      <trkpt lat="47.43767" lon="0.82642">
        <ele>154</ele>
        <time>2011-05-01T07:09:09Z</time>
      </trkpt>
      <trkpt lat="47.43758" lon="0.82646">
        <ele>154</ele>
        <time>2011-05-01T07:09:11Z</time>
      </trkpt>
      <trkpt lat="47.43749" lon="0.82648">
        <ele>154</ele>
        <time>2011-05-01T07:09:13Z</time>
      </trkpt>
      <trkpt lat="47.43744" lon="0.8265">
        <ele>154</ele>
        <time>2011-05-01T07:09:14Z</time>
      </trkpt>
      <trkpt lat="47.43735" lon="0.82653">
        <ele>154</ele>
        <time>2011-05-01T07:09:16Z</time>
      </trkpt>
      <trkpt lat="47.43726" lon="0.82655">
        <ele>155</ele>
        <time>2011-05-01T07:09:18Z</time>
      </trkpt>
      <trkpt lat="47.43722" lon="0.82658">
        <ele>155</ele>
        <time>2011-05-01T07:09:19Z</time>
      </trkpt>
      <trkpt lat="47.43717" lon="0.82659">
        <ele>155</ele>
        <time>2011-05-01T07:09:20Z</time>
      </trkpt>
      <trkpt lat="47.43712" lon="0.82662">
        <ele>155</ele>
        <time>2011-05-01T07:09:21Z</time>
      </trkpt>
      <trkpt lat="47.43708" lon="0.82666">
        <ele>154</ele>
        <time>2011-05-01T07:09:22Z</time>
      </trkpt>
      <trkpt lat="47.43703" lon="0.82667">
        <ele>154</ele>
        <time>2011-05-01T07:09:23Z</time>
      </trkpt>
      <trkpt lat="47.43698" lon="0.82668">
        <ele>154</ele>
        <time>2011-05-01T07:09:24Z</time>
      </trkpt>
      <trkpt lat="47.43693" lon="0.8267">
        <ele>154</ele>
        <time>2011-05-01T07:09:25Z</time>
      </trkpt>
      <trkpt lat="47.43685" lon="0.82673">
        <ele>155</ele>
        <time>2011-05-01T07:09:27Z</time>
      </trkpt>
      <trkpt lat="47.43676" lon="0.82675">
        <ele>155</ele>
        <time>2011-05-01T07:09:29Z</time>
      </trkpt>
      <trkpt lat="47.43668" lon="0.82677">
        <ele>154</ele>
        <time>2011-05-01T07:09:31Z</time>
      </trkpt>
      <trkpt lat="47.43664" lon="0.82681">
        <ele>154</ele>
        <time>2011-05-01T07:09:33Z</time>
      </trkpt>
      <trkpt lat="47.43659" lon="0.8268">
        <ele>155</ele>
        <time>2011-05-01T07:09:35Z</time>
      </trkpt>
      <trkpt lat="47.43659" lon="0.82687">
        <ele>157</ele>
        <time>2011-05-01T07:09:45Z</time>
      </trkpt>
      <trkpt lat="47.43664" lon="0.82689">
        <ele>158</ele>
        <time>2011-05-01T07:09:48Z</time>
      </trkpt>
      <trkpt lat="47.43669" lon="0.82684">
        <ele>157</ele>
        <time>2011-05-01T07:09:51Z</time>
      </trkpt>
      <trkpt lat="47.43674" lon="0.82681">
        <ele>157</ele>
        <time>2011-05-01T07:09:54Z</time>
      </trkpt>
      <trkpt lat="47.4368" lon="0.82678">
        <ele>157</ele>
        <time>2011-05-01T07:09:57Z</time>
      </trkpt>
      <trkpt lat="47.43684" lon="0.82677">
        <ele>157</ele>
        <time>2011-05-01T07:09:59Z</time>
      </trkpt>
      <trkpt lat="47.4369" lon="0.82675">
        <ele>157</ele>
        <time>2011-05-01T07:10:01Z</time>
      </trkpt>
      <trkpt lat="47.43696" lon="0.82672">
        <ele>157</ele>
        <time>2011-05-01T07:10:03Z</time>
      </trkpt>
      <trkpt lat="47.43702" lon="0.82669">
        <ele>157</ele>
        <time>2011-05-01T07:10:05Z</time>
      </trkpt>
      <trkpt lat="47.43709" lon="0.82667">
        <ele>156</ele>
        <time>2011-05-01T07:10:07Z</time>
      </trkpt>
      <trkpt lat="47.43716" lon="0.82665">
        <ele>156</ele>
        <time>2011-05-01T07:10:09Z</time>
      </trkpt>
      <trkpt lat="47.43724" lon="0.82662">
        <ele>156</ele>
        <time>2011-05-01T07:10:11Z</time>
      </trkpt>
      <trkpt lat="47.43732" lon="0.82661">
        <ele>156</ele>
        <time>2011-05-01T07:10:13Z</time>
      </trkpt>
      <trkpt lat="47.43739" lon="0.82659">
        <ele>156</ele>
        <time>2011-05-01T07:10:15Z</time>
      </trkpt>
      <trkpt lat="47.43747" lon="0.82656">
        <ele>155</ele>
        <time>2011-05-01T07:10:17Z</time>
      </trkpt>
      <trkpt lat="47.43754" lon="0.82654">
        <ele>156</ele>
        <time>2011-05-01T07:10:19Z</time>
      </trkpt>
      <trkpt lat="47.43761" lon="0.8265">
        <ele>157</ele>
        <time>2011-05-01T07:10:21Z</time>
      </trkpt>
      <trkpt lat="47.43767" lon="0.82647">
        <ele>157</ele>
        <time>2011-05-01T07:10:23Z</time>
      </trkpt>
      <trkpt lat="47.43775" lon="0.82646">
        <ele>157</ele>
        <time>2011-05-01T07:10:25Z</time>
      </trkpt>
      <trkpt lat="47.43782" lon="0.82645">
        <ele>155</ele>
        <time>2011-05-01T07:10:27Z</time>
      </trkpt>
      <trkpt lat="47.43788" lon="0.8264">
        <ele>154</ele>
        <time>2011-05-01T07:10:29Z</time>
      </trkpt>
      <trkpt lat="47.43794" lon="0.82638">
        <ele>154</ele>
        <time>2011-05-01T07:10:31Z</time>
      </trkpt>
      <trkpt lat="47.438" lon="0.82636">
        <ele>154</ele>
        <time>2011-05-01T07:10:33Z</time>
      </trkpt>
      <trkpt lat="47.43807" lon="0.82634">
        <ele>154</ele>
        <time>2011-05-01T07:10:35Z</time>
      </trkpt>
      <trkpt lat="47.43813" lon="0.82633">
        <ele>155</ele>
        <time>2011-05-01T07:10:37Z</time>
      </trkpt>
      <trkpt lat="47.4382" lon="0.82631">
        <ele>156</ele>
        <time>2011-05-01T07:10:39Z</time>
      </trkpt>
      <trkpt lat="47.43826" lon="0.82629">
        <ele>156</ele>
        <time>2011-05-01T07:10:41Z</time>
      </trkpt>
      <trkpt lat="47.43833" lon="0.82626">
        <ele>156</ele>
        <time>2011-05-01T07:10:43Z</time>
      </trkpt>
      <trkpt lat="47.4384" lon="0.82623">
        <ele>156</ele>
        <time>2011-05-01T07:10:45Z</time>
      </trkpt>
      <trkpt lat="47.43847" lon="0.82621">
        <ele>156</ele>
        <time>2011-05-01T07:10:47Z</time>
      </trkpt>
      <trkpt lat="47.43854" lon="0.82619">
        <ele>155</ele>
        <time>2011-05-01T07:10:49Z</time>
      </trkpt>
      <trkpt lat="47.43862" lon="0.82617">
        <ele>156</ele>
        <time>2011-05-01T07:10:51Z</time>
      </trkpt>
      <trkpt lat="47.43871" lon="0.82615">
        <ele>155</ele>
        <time>2011-05-01T07:10:53Z</time>
      </trkpt>
      <trkpt lat="47.43879" lon="0.82614">
        <ele>155</ele>
        <time>2011-05-01T07:10:55Z</time>
      </trkpt>
      <trkpt lat="47.43884" lon="0.82614">
        <ele>154</ele>
        <time>2011-05-01T07:10:56Z</time>
      </trkpt>
      <trkpt lat="47.43889" lon="0.82614">
        <ele>154</ele>
        <time>2011-05-01T07:10:57Z</time>
      </trkpt>
      <trkpt lat="47.43894" lon="0.82617">
        <ele>155</ele>
        <time>2011-05-01T07:10:58Z</time>
      </trkpt>
      <trkpt lat="47.43899" lon="0.8262">
        <ele>155</ele>
        <time>2011-05-01T07:10:59Z</time>
      </trkpt>
      <trkpt lat="47.43903" lon="0.82622">
        <ele>155</ele>
        <time>2011-05-01T07:11:00Z</time>
      </trkpt>
      <trkpt lat="47.43908" lon="0.82624">
        <ele>155</ele>
        <time>2011-05-01T07:11:01Z</time>
      </trkpt>
      <trkpt lat="47.43916" lon="0.82626">
        <ele>155</ele>
        <time>2011-05-01T07:11:03Z</time>
      </trkpt>
      <trkpt lat="47.43922" lon="0.82631">
        <ele>155</ele>
        <time>2011-05-01T07:11:05Z</time>
      </trkpt>
      <trkpt lat="47.43925" lon="0.82638">
        <ele>155</ele>
        <time>2011-05-01T07:11:08Z</time>
      </trkpt>
      <trkpt lat="47.43933" lon="0.82646">
        <ele>155</ele>
        <time>2011-05-01T07:11:18Z</time>
      </trkpt>
      <trkpt lat="47.4394" lon="0.82652">
        <ele>154</ele>
        <time>2011-05-01T07:11:20Z</time>
      </trkpt>
      <trkpt lat="47.43947" lon="0.82657">
        <ele>154</ele>
        <time>2011-05-01T07:11:22Z</time>
      </trkpt>
      <trkpt lat="47.43952" lon="0.82659">
        <ele>154</ele>
        <time>2011-05-01T07:11:23Z</time>
      </trkpt>
      <trkpt lat="47.43953" lon="0.82669">
        <ele>155</ele>
        <time>2011-05-01T07:11:24Z</time>
      </trkpt>
      <trkpt lat="47.43956" lon="0.82675">
        <ele>155</ele>
        <time>2011-05-01T07:11:25Z</time>
      </trkpt>
      <trkpt lat="47.4396" lon="0.82678">
        <ele>156</ele>
        <time>2011-05-01T07:11:26Z</time>
      </trkpt>
      <trkpt lat="47.43967" lon="0.82684">
        <ele>156</ele>
        <time>2011-05-01T07:11:28Z</time>
      </trkpt>
      <trkpt lat="47.43973" lon="0.82688">
        <ele>156</ele>
        <time>2011-05-01T07:11:30Z</time>
      </trkpt>
      <trkpt lat="47.43978" lon="0.82692">
        <ele>155</ele>
        <time>2011-05-01T07:11:32Z</time>
      </trkpt>
      <trkpt lat="47.43983" lon="0.82696">
        <ele>155</ele>
        <time>2011-05-01T07:11:34Z</time>
      </trkpt>
      <trkpt lat="47.4399" lon="0.827">
        <ele>155</ele>
        <time>2011-05-01T07:11:36Z</time>
      </trkpt>
      <trkpt lat="47.43998" lon="0.82704">
        <ele>155</ele>
        <time>2011-05-01T07:11:38Z</time>
      </trkpt>
      <trkpt lat="47.44003" lon="0.82708">
        <ele>155</ele>
        <time>2011-05-01T07:11:39Z</time>
      </trkpt>
      <trkpt lat="47.44009" lon="0.82713">
        <ele>153</ele>
        <time>2011-05-01T07:11:41Z</time>
      </trkpt>
      <trkpt lat="47.44013" lon="0.82717">
        <ele>152</ele>
        <time>2011-05-01T07:11:43Z</time>
      </trkpt>
      <trkpt lat="47.44018" lon="0.8272">
        <ele>151</ele>
        <time>2011-05-01T07:11:45Z</time>
      </trkpt>
      <trkpt lat="47.44022" lon="0.82724">
        <ele>150</ele>
        <time>2011-05-01T07:11:47Z</time>
      </trkpt>
      <trkpt lat="47.44025" lon="0.82729">
        <ele>148</ele>
        <time>2011-05-01T07:11:49Z</time>
      </trkpt>
      <trkpt lat="47.44027" lon="0.82736">
        <ele>145</ele>
        <time>2011-05-01T07:11:51Z</time>
      </trkpt>
      <trkpt lat="47.44029" lon="0.82743">
        <ele>144</ele>
        <time>2011-05-01T07:11:54Z</time>
      </trkpt>
      <trkpt lat="47.44031" lon="0.82752">
        <ele>142</ele>
        <time>2011-05-01T07:11:57Z</time>
      </trkpt>
      <trkpt lat="47.44034" lon="0.82761">
        <ele>142</ele>
        <time>2011-05-01T07:12:00Z</time>
      </trkpt>
      <trkpt lat="47.44036" lon="0.82769">
        <ele>142</ele>
        <time>2011-05-01T07:12:02Z</time>
      </trkpt>
      <trkpt lat="47.44038" lon="0.82778">
        <ele>142</ele>
        <time>2011-05-01T07:12:05Z</time>
      </trkpt>
      <trkpt lat="47.44039" lon="0.82785">
        <ele>142</ele>
        <time>2011-05-01T07:12:07Z</time>
      </trkpt>
      <trkpt lat="47.44041" lon="0.82791">
        <ele>141</ele>
        <time>2011-05-01T07:12:08Z</time>
      </trkpt>
      <trkpt lat="47.44044" lon="0.828">
        <ele>139</ele>
        <time>2011-05-01T07:12:09Z</time>
      </trkpt>
      <trkpt lat="47.44047" lon="0.82813">
        <ele>138</ele>
        <time>2011-05-01T07:12:11Z</time>
      </trkpt>
      <trkpt lat="47.44049" lon="0.82819">
        <ele>138</ele>
        <time>2011-05-01T07:12:12Z</time>
      </trkpt>
      <trkpt lat="47.44052" lon="0.82828">
        <ele>137</ele>
        <time>2011-05-01T07:12:14Z</time>
      </trkpt>
      <trkpt lat="47.44055" lon="0.82833">
        <ele>137</ele>
        <time>2011-05-01T07:12:15Z</time>
      </trkpt>
      <trkpt lat="47.44058" lon="0.82839">
        <ele>138</ele>
        <time>2011-05-01T07:12:17Z</time>
      </trkpt>
      <trkpt lat="47.44058" lon="0.82847">
        <ele>137</ele>
        <time>2011-05-01T07:12:19Z</time>
      </trkpt>
      <trkpt lat="47.44058" lon="0.82856">
        <ele>136</ele>
        <time>2011-05-01T07:12:21Z</time>
      </trkpt>
      <trkpt lat="47.44057" lon="0.82864">
        <ele>137</ele>
        <time>2011-05-01T07:12:23Z</time>
      </trkpt>
      <trkpt lat="47.44056" lon="0.82873">
        <ele>136</ele>
        <time>2011-05-01T07:12:25Z</time>
      </trkpt>
      <trkpt lat="47.44055" lon="0.8288">
        <ele>136</ele>
        <time>2011-05-01T07:12:26Z</time>
      </trkpt>
      <trkpt lat="47.44054" lon="0.8289">
        <ele>136</ele>
        <time>2011-05-01T07:12:28Z</time>
      </trkpt>
      <trkpt lat="47.44053" lon="0.82903">
        <ele>137</ele>
        <time>2011-05-01T07:12:30Z</time>
      </trkpt>
      <trkpt lat="47.44053" lon="0.8291">
        <ele>137</ele>
        <time>2011-05-01T07:12:31Z</time>
      </trkpt>
      <trkpt lat="47.44053" lon="0.82918">
        <ele>136</ele>
        <time>2011-05-01T07:12:32Z</time>
      </trkpt>
      <trkpt lat="47.44052" lon="0.82926">
        <ele>137</ele>
        <time>2011-05-01T07:12:33Z</time>
      </trkpt>
      <trkpt lat="47.44051" lon="0.82936">
        <ele>135</ele>
        <time>2011-05-01T07:12:34Z</time>
      </trkpt>
      <trkpt lat="47.4405" lon="0.82944">
        <ele>135</ele>
        <time>2011-05-01T07:12:35Z</time>
      </trkpt>
      <trkpt lat="47.4405" lon="0.82952">
        <ele>134</ele>
        <time>2011-05-01T07:12:36Z</time>
      </trkpt>
      <trkpt lat="47.44048" lon="0.8296">
        <ele>134</ele>
        <time>2011-05-01T07:12:37Z</time>
      </trkpt>
      <trkpt lat="47.44047" lon="0.82968">
        <ele>134</ele>
        <time>2011-05-01T07:12:38Z</time>
      </trkpt>
      <trkpt lat="47.44045" lon="0.82975">
        <ele>134</ele>
        <time>2011-05-01T07:12:39Z</time>
      </trkpt>
      <trkpt lat="47.44044" lon="0.82983">
        <ele>134</ele>
        <time>2011-05-01T07:12:40Z</time>
      </trkpt>
      <trkpt lat="47.44042" lon="0.82992">
        <ele>134</ele>
        <time>2011-05-01T07:12:41Z</time>
      </trkpt>
      <trkpt lat="47.4404" lon="0.82999">
        <ele>134</ele>
        <time>2011-05-01T07:12:42Z</time>
      </trkpt>
      <trkpt lat="47.44038" lon="0.83008">
        <ele>135</ele>
        <time>2011-05-01T07:12:43Z</time>
      </trkpt>
      <trkpt lat="47.44035" lon="0.83016">
        <ele>135</ele>
        <time>2011-05-01T07:12:44Z</time>
      </trkpt>
      <trkpt lat="47.44034" lon="0.83025">
        <ele>135</ele>
        <time>2011-05-01T07:12:45Z</time>
      </trkpt>
      <trkpt lat="47.44032" lon="0.83034">
        <ele>135</ele>
        <time>2011-05-01T07:12:46Z</time>
      </trkpt>
      <trkpt lat="47.4403" lon="0.83042">
        <ele>135</ele>
        <time>2011-05-01T07:12:47Z</time>
      </trkpt>
      <trkpt lat="47.44027" lon="0.8305">
        <ele>135</ele>
        <time>2011-05-01T07:12:48Z</time>
      </trkpt>
      <trkpt lat="47.44025" lon="0.83058">
        <ele>134</ele>
        <time>2011-05-01T07:12:49Z</time>
      </trkpt>
      <trkpt lat="47.44022" lon="0.83065">
        <ele>133</ele>
        <time>2011-05-01T07:12:50Z</time>
      </trkpt>
      <trkpt lat="47.4402" lon="0.83073">
        <ele>132</ele>
        <time>2011-05-01T07:12:51Z</time>
      </trkpt>
      <trkpt lat="47.44018" lon="0.83081">
        <ele>132</ele>
        <time>2011-05-01T07:12:52Z</time>
      </trkpt>
      <trkpt lat="47.44015" lon="0.83089">
        <ele>132</ele>
        <time>2011-05-01T07:12:53Z</time>
      </trkpt>
      <trkpt lat="47.44014" lon="0.83097">
        <ele>132</ele>
        <time>2011-05-01T07:12:54Z</time>
      </trkpt>
      <trkpt lat="47.44012" lon="0.83104">
        <ele>132</ele>
        <time>2011-05-01T07:12:55Z</time>
      </trkpt>
      <trkpt lat="47.44009" lon="0.83112">
        <ele>132</ele>
        <time>2011-05-01T07:12:56Z</time>
      </trkpt>
      <trkpt lat="47.44006" lon="0.8312">
        <ele>132</ele>
        <time>2011-05-01T07:12:57Z</time>
      </trkpt>
      <trkpt lat="47.44004" lon="0.83128">
        <ele>132</ele>
        <time>2011-05-01T07:12:58Z</time>
      </trkpt>
      <trkpt lat="47.44002" lon="0.83136">
        <ele>132</ele>
        <time>2011-05-01T07:12:59Z</time>
      </trkpt>
      <trkpt lat="47.43998" lon="0.83144">
        <ele>131</ele>
        <time>2011-05-01T07:13:00Z</time>
      </trkpt>
      <trkpt lat="47.43996" lon="0.83151">
        <ele>131</ele>
        <time>2011-05-01T07:13:01Z</time>
      </trkpt>
      <trkpt lat="47.43993" lon="0.83159">
        <ele>132</ele>
        <time>2011-05-01T07:13:02Z</time>
      </trkpt>
      <trkpt lat="47.4399" lon="0.83166">
        <ele>132</ele>
        <time>2011-05-01T07:13:03Z</time>
      </trkpt>
      <trkpt lat="47.43988" lon="0.83173">
        <ele>132</ele>
        <time>2011-05-01T07:13:04Z</time>
      </trkpt>
      <trkpt lat="47.43987" lon="0.8318">
        <ele>132</ele>
        <time>2011-05-01T07:13:05Z</time>
      </trkpt>
      <trkpt lat="47.43983" lon="0.83191">
        <ele>132</ele>
        <time>2011-05-01T07:13:07Z</time>
      </trkpt>
      <trkpt lat="47.43977" lon="0.83195">
        <ele>131</ele>
        <time>2011-05-01T07:13:09Z</time>
      </trkpt>
      <trkpt lat="47.43972" lon="0.83193">
        <ele>130</ele>
        <time>2011-05-01T07:13:12Z</time>
      </trkpt>
      <trkpt lat="47.43968" lon="0.83189">
        <ele>127</ele>
        <time>2011-05-01T07:16:25Z</time>
      </trkpt>
      <trkpt lat="47.43964" lon="0.83186">
        <ele>127</ele>
        <time>2011-05-01T07:16:29Z</time>
      </trkpt>
      <trkpt lat="47.43957" lon="0.83182">
        <ele>126</ele>
        <time>2011-05-01T07:16:32Z</time>
      </trkpt>
      <trkpt lat="47.43952" lon="0.83178">
        <ele>125</ele>
        <time>2011-05-01T07:16:34Z</time>
      </trkpt>
      <trkpt lat="47.43947" lon="0.83176">
        <ele>125</ele>
        <time>2011-05-01T07:16:36Z</time>
      </trkpt>
      <trkpt lat="47.43942" lon="0.83173">
        <ele>125</ele>
        <time>2011-05-01T07:16:38Z</time>
      </trkpt>
      <trkpt lat="47.43937" lon="0.83169">
        <ele>124</ele>
        <time>2011-05-01T07:16:40Z</time>
      </trkpt>
      <trkpt lat="47.43932" lon="0.83164">
        <ele>125</ele>
        <time>2011-05-01T07:16:42Z</time>
      </trkpt>
      <trkpt lat="47.43926" lon="0.8316">
        <ele>125</ele>
        <time>2011-05-01T07:16:44Z</time>
      </trkpt>
      <trkpt lat="47.4392" lon="0.83155">
        <ele>126</ele>
        <time>2011-05-01T07:16:46Z</time>
      </trkpt>
      <trkpt lat="47.43912" lon="0.83151">
        <ele>126</ele>
        <time>2011-05-01T07:16:48Z</time>
      </trkpt>
      <trkpt lat="47.43906" lon="0.83146">
        <ele>126</ele>
        <time>2011-05-01T07:16:50Z</time>
      </trkpt>
      <trkpt lat="47.43901" lon="0.83144">
        <ele>126</ele>
        <time>2011-05-01T07:16:52Z</time>
      </trkpt>
      <trkpt lat="47.43895" lon="0.83144">
        <ele>127</ele>
        <time>2011-05-01T07:16:54Z</time>
      </trkpt>
      <trkpt lat="47.4389" lon="0.83147">
        <ele>128</ele>
        <time>2011-05-01T07:16:56Z</time>
      </trkpt>
      <trkpt lat="47.43886" lon="0.83151">
        <ele>129</ele>
        <time>2011-05-01T07:16:57Z</time>
      </trkpt>
      <trkpt lat="47.43879" lon="0.83157">
        <ele>130</ele>
        <time>2011-05-01T07:16:59Z</time>
      </trkpt>
      <trkpt lat="47.43873" lon="0.83166">
        <ele>131</ele>
        <time>2011-05-01T07:17:01Z</time>
      </trkpt>
      <trkpt lat="47.43869" lon="0.83174">
        <ele>131</ele>
        <time>2011-05-01T07:17:03Z</time>
      </trkpt>
      <trkpt lat="47.43866" lon="0.8318">
        <ele>131</ele>
        <time>2011-05-01T07:17:04Z</time>
      </trkpt>
      <trkpt lat="47.43861" lon="0.83189">
        <ele>131</ele>
        <time>2011-05-01T07:17:06Z</time>
      </trkpt>
      <trkpt lat="47.43858" lon="0.83199">
        <ele>130</ele>
        <time>2011-05-01T07:17:08Z</time>
      </trkpt>
      <trkpt lat="47.43854" lon="0.83208">
        <ele>129</ele>
        <time>2011-05-01T07:17:10Z</time>
      </trkpt>
      <trkpt lat="47.43852" lon="0.83214">
        <ele>129</ele>
        <time>2011-05-01T07:17:11Z</time>
      </trkpt>
      <trkpt lat="47.43848" lon="0.8322">
        <ele>130</ele>
        <time>2011-05-01T07:17:12Z</time>
      </trkpt>
      <trkpt lat="47.43842" lon="0.8323">
        <ele>132</ele>
        <time>2011-05-01T07:17:14Z</time>
      </trkpt>
      <trkpt lat="47.43839" lon="0.83235">
        <ele>133</ele>
        <time>2011-05-01T07:17:15Z</time>
      </trkpt>
      <trkpt lat="47.43837" lon="0.83241">
        <ele>134</ele>
        <time>2011-05-01T07:17:16Z</time>
      </trkpt>
      <trkpt lat="47.43832" lon="0.8325">
        <ele>134</ele>
        <time>2011-05-01T07:17:18Z</time>
      </trkpt>
      <trkpt lat="47.43828" lon="0.83256">
        <ele>136</ele>
        <time>2011-05-01T07:17:19Z</time>
      </trkpt>
      <trkpt lat="47.43823" lon="0.83265">
        <ele>136</ele>
        <time>2011-05-01T07:17:21Z</time>
      </trkpt>
      <trkpt lat="47.43818" lon="0.83273">
        <ele>136</ele>
        <time>2011-05-01T07:17:23Z</time>
      </trkpt>
      <trkpt lat="47.43812" lon="0.83275">
        <ele>136</ele>
        <time>2011-05-01T07:17:25Z</time>
      </trkpt>
      <trkpt lat="47.43806" lon="0.83273">
        <ele>136</ele>
        <time>2011-05-01T07:17:27Z</time>
      </trkpt>
      <trkpt lat="47.43798" lon="0.83268">
        <ele>136</ele>
        <time>2011-05-01T07:17:29Z</time>
      </trkpt>
      <trkpt lat="47.43793" lon="0.83261">
        <ele>136</ele>
        <time>2011-05-01T07:17:31Z</time>
      </trkpt>
      <trkpt lat="47.43786" lon="0.83254">
        <ele>136</ele>
        <time>2011-05-01T07:17:33Z</time>
      </trkpt>
      <trkpt lat="47.4378" lon="0.83244">
        <ele>137</ele>
        <time>2011-05-01T07:17:35Z</time>
      </trkpt>
      <trkpt lat="47.43776" lon="0.83241">
        <ele>137</ele>
        <time>2011-05-01T07:17:36Z</time>
      </trkpt>
      <trkpt lat="47.43769" lon="0.83232">
        <ele>137</ele>
        <time>2011-05-01T07:17:38Z</time>
      </trkpt>
      <trkpt lat="47.43762" lon="0.83224">
        <ele>137</ele>
        <time>2011-05-01T07:17:40Z</time>
      </trkpt>
      <trkpt lat="47.43756" lon="0.83215">
        <ele>137</ele>
        <time>2011-05-01T07:17:42Z</time>
      </trkpt>
      <trkpt lat="47.43749" lon="0.83207">
        <ele>138</ele>
        <time>2011-05-01T07:17:44Z</time>
      </trkpt>
      <trkpt lat="47.43742" lon="0.832">
        <ele>138</ele>
        <time>2011-05-01T07:17:46Z</time>
      </trkpt>
      <trkpt lat="47.43736" lon="0.83192">
        <ele>139</ele>
        <time>2011-05-01T07:17:48Z</time>
      </trkpt>
      <trkpt lat="47.43728" lon="0.83185">
        <ele>139</ele>
        <time>2011-05-01T07:17:50Z</time>
      </trkpt>
      <trkpt lat="47.43723" lon="0.83177">
        <ele>139</ele>
        <time>2011-05-01T07:17:52Z</time>
      </trkpt>
      <trkpt lat="47.43718" lon="0.83173">
        <ele>139</ele>
        <time>2011-05-01T07:17:53Z</time>
      </trkpt>
      <trkpt lat="47.43711" lon="0.83164">
        <ele>139</ele>
        <time>2011-05-01T07:17:55Z</time>
      </trkpt>
      <trkpt lat="47.43707" lon="0.8316">
        <ele>140</ele>
        <time>2011-05-01T07:17:56Z</time>
      </trkpt>
      <trkpt lat="47.43704" lon="0.83155">
        <ele>140</ele>
        <time>2011-05-01T07:17:57Z</time>
      </trkpt>
      <trkpt lat="47.43697" lon="0.83146">
        <ele>140</ele>
        <time>2011-05-01T07:17:59Z</time>
      </trkpt>
      <trkpt lat="47.43694" lon="0.8314">
        <ele>141</ele>
        <time>2011-05-01T07:18:00Z</time>
      </trkpt>
      <trkpt lat="47.4369" lon="0.83136">
        <ele>141</ele>
        <time>2011-05-01T07:18:01Z</time>
      </trkpt>
      <trkpt lat="47.43687" lon="0.83131">
        <ele>141</ele>
        <time>2011-05-01T07:18:02Z</time>
      </trkpt>
      <trkpt lat="47.43682" lon="0.83126">
        <ele>141</ele>
        <time>2011-05-01T07:18:03Z</time>
      </trkpt>
      <trkpt lat="47.43676" lon="0.83117">
        <ele>142</ele>
        <time>2011-05-01T07:18:05Z</time>
      </trkpt>
      <trkpt lat="47.43673" lon="0.83112">
        <ele>142</ele>
        <time>2011-05-01T07:18:06Z</time>
      </trkpt>
      <trkpt lat="47.43668" lon="0.83103">
        <ele>143</ele>
        <time>2011-05-01T07:18:08Z</time>
      </trkpt>
      <trkpt lat="47.43665" lon="0.83098">
        <ele>144</ele>
        <time>2011-05-01T07:18:09Z</time>
      </trkpt>
      <trkpt lat="47.43661" lon="0.83093">
        <ele>143</ele>
        <time>2011-05-01T07:18:10Z</time>
      </trkpt>
      <trkpt lat="47.43654" lon="0.83084">
        <ele>145</ele>
        <time>2011-05-01T07:18:12Z</time>
      </trkpt>
      <trkpt lat="47.43649" lon="0.83076">
        <ele>146</ele>
        <time>2011-05-01T07:18:14Z</time>
      </trkpt>
      <trkpt lat="47.43644" lon="0.83069">
        <ele>147</ele>
        <time>2011-05-01T07:18:16Z</time>
      </trkpt>
      <trkpt lat="47.43638" lon="0.83063">
        <ele>147</ele>
        <time>2011-05-01T07:18:18Z</time>
      </trkpt>
      <trkpt lat="47.43632" lon="0.83067">
        <ele>148</ele>
        <time>2011-05-01T07:18:20Z</time>
      </trkpt>
      <trkpt lat="47.43628" lon="0.83076">
        <ele>148</ele>
        <time>2011-05-01T07:18:22Z</time>
      </trkpt>
      <trkpt lat="47.43625" lon="0.83081">
        <ele>148</ele>
        <time>2011-05-01T07:18:23Z</time>
      </trkpt>
      <trkpt lat="47.43622" lon="0.83087">
        <ele>147</ele>
        <time>2011-05-01T07:18:24Z</time>
      </trkpt>
      <trkpt lat="47.4362" lon="0.83093">
        <ele>148</ele>
        <time>2011-05-01T07:18:25Z</time>
      </trkpt>
      <trkpt lat="47.43617" lon="0.83101">
        <ele>148</ele>
        <time>2011-05-01T07:18:26Z</time>
      </trkpt>
      <trkpt lat="47.43614" lon="0.8311">
        <ele>149</ele>
        <time>2011-05-01T07:18:27Z</time>
      </trkpt>
      <trkpt lat="47.43611" lon="0.83117">
        <ele>149</ele>
        <time>2011-05-01T07:18:28Z</time>
      </trkpt>
      <trkpt lat="47.43607" lon="0.83126">
        <ele>149</ele>
        <time>2011-05-01T07:18:29Z</time>
      </trkpt>
      <trkpt lat="47.43604" lon="0.83134">
        <ele>148</ele>
        <time>2011-05-01T07:18:30Z</time>
      </trkpt>
      <trkpt lat="47.436" lon="0.83142">
        <ele>148</ele>
        <time>2011-05-01T07:18:31Z</time>
      </trkpt>
      <trkpt lat="47.43597" lon="0.83151">
        <ele>148</ele>
        <time>2011-05-01T07:18:32Z</time>
      </trkpt>
      <trkpt lat="47.43593" lon="0.83158">
        <ele>149</ele>
        <time>2011-05-01T07:18:33Z</time>
      </trkpt>
      <trkpt lat="47.4359" lon="0.83167">
        <ele>149</ele>
        <time>2011-05-01T07:18:34Z</time>
      </trkpt>
      <trkpt lat="47.43586" lon="0.83175">
        <ele>148</ele>
        <time>2011-05-01T07:18:35Z</time>
      </trkpt>
      <trkpt lat="47.43583" lon="0.83183">
        <ele>148</ele>
        <time>2011-05-01T07:18:36Z</time>
      </trkpt>
      <trkpt lat="47.43579" lon="0.83191">
        <ele>147</ele>
        <time>2011-05-01T07:18:37Z</time>
      </trkpt>
      <trkpt lat="47.43575" lon="0.832">
        <ele>147</ele>
        <time>2011-05-01T07:18:38Z</time>
      </trkpt>
      <trkpt lat="47.43574" lon="0.83206">
        <ele>145</ele>
        <time>2011-05-01T07:18:39Z</time>
      </trkpt>
      <trkpt lat="47.43576" lon="0.83214">
        <ele>145</ele>
        <time>2011-05-01T07:18:40Z</time>
      </trkpt>
      <trkpt lat="47.43578" lon="0.83221">
        <ele>145</ele>
        <time>2011-05-01T07:18:41Z</time>
      </trkpt>
      <trkpt lat="47.43582" lon="0.83225">
        <ele>145</ele>
        <time>2011-05-01T07:18:42Z</time>
      </trkpt>
      <trkpt lat="47.43587" lon="0.83229">
        <ele>146</ele>
        <time>2011-05-01T07:18:43Z</time>
      </trkpt>
      <trkpt lat="47.43592" lon="0.83234">
        <ele>146</ele>
        <time>2011-05-01T07:18:44Z</time>
      </trkpt>
      <trkpt lat="47.43597" lon="0.83238">
        <ele>145</ele>
        <time>2011-05-01T07:18:45Z</time>
      </trkpt>
      <trkpt lat="47.43601" lon="0.8324">
        <ele>145</ele>
        <time>2011-05-01T07:18:46Z</time>
      </trkpt>
      <trkpt lat="47.43606" lon="0.83243">
        <ele>145</ele>
        <time>2011-05-01T07:18:47Z</time>
      </trkpt>
      <trkpt lat="47.4361" lon="0.83246">
        <ele>145</ele>
        <time>2011-05-01T07:18:48Z</time>
      </trkpt>
      <trkpt lat="47.43618" lon="0.83251">
        <ele>146</ele>
        <time>2011-05-01T07:18:50Z</time>
      </trkpt>
      <trkpt lat="47.43624" lon="0.83256">
        <ele>146</ele>
        <time>2011-05-01T07:18:52Z</time>
      </trkpt>
      <trkpt lat="47.43631" lon="0.83261">
        <ele>145</ele>
        <time>2011-05-01T07:18:54Z</time>
      </trkpt>
      <trkpt lat="47.43638" lon="0.83267">
        <ele>145</ele>
        <time>2011-05-01T07:18:56Z</time>
      </trkpt>
      <trkpt lat="47.43644" lon="0.83273">
        <ele>145</ele>
        <time>2011-05-01T07:18:58Z</time>
      </trkpt>
      <trkpt lat="47.43649" lon="0.83279">
        <ele>145</ele>
        <time>2011-05-01T07:19:00Z</time>
      </trkpt>
      <trkpt lat="47.43655" lon="0.83286">
        <ele>144</ele>
        <time>2011-05-01T07:19:02Z</time>
      </trkpt>
      <trkpt lat="47.43661" lon="0.83294">
        <ele>144</ele>
        <time>2011-05-01T07:19:04Z</time>
      </trkpt>
      <trkpt lat="47.43667" lon="0.83303">
        <ele>143</ele>
        <time>2011-05-01T07:19:06Z</time>
      </trkpt>
      <trkpt lat="47.43675" lon="0.8331">
        <ele>144</ele>
        <time>2011-05-01T07:19:08Z</time>
      </trkpt>
      <trkpt lat="47.43682" lon="0.83316">
        <ele>143</ele>
        <time>2011-05-01T07:19:10Z</time>
      </trkpt>
      <trkpt lat="47.43686" lon="0.8332">
        <ele>143</ele>
        <time>2011-05-01T07:19:11Z</time>
      </trkpt>
      <trkpt lat="47.4369" lon="0.83324">
        <ele>142</ele>
        <time>2011-05-01T07:19:12Z</time>
      </trkpt>
      <trkpt lat="47.43694" lon="0.83328">
        <ele>142</ele>
        <time>2011-05-01T07:19:13Z</time>
      </trkpt>
      <trkpt lat="47.43703" lon="0.83334">
        <ele>142</ele>
        <time>2011-05-01T07:19:15Z</time>
      </trkpt>
      <trkpt lat="47.43706" lon="0.83337">
        <ele>142</ele>
        <time>2011-05-01T07:19:16Z</time>
      </trkpt>
      <trkpt lat="47.4371" lon="0.83342">
        <ele>142</ele>
        <time>2011-05-01T07:19:17Z</time>
      </trkpt>
      <trkpt lat="47.43715" lon="0.83346">
        <ele>142</ele>
        <time>2011-05-01T07:19:18Z</time>
      </trkpt>
      <trkpt lat="47.43723" lon="0.83354">
        <ele>141</ele>
        <time>2011-05-01T07:19:20Z</time>
      </trkpt>
      <trkpt lat="47.43727" lon="0.83358">
        <ele>141</ele>
        <time>2011-05-01T07:19:21Z</time>
      </trkpt>
      <trkpt lat="47.43731" lon="0.83362">
        <ele>141</ele>
        <time>2011-05-01T07:19:22Z</time>
      </trkpt>
      <trkpt lat="47.43735" lon="0.83366">
        <ele>140</ele>
        <time>2011-05-01T07:19:23Z</time>
      </trkpt>
      <trkpt lat="47.43739" lon="0.8337">
        <ele>140</ele>
        <time>2011-05-01T07:19:24Z</time>
      </trkpt>
      <trkpt lat="47.43742" lon="0.83374">
        <ele>140</ele>
        <time>2011-05-01T07:19:25Z</time>
      </trkpt>
      <trkpt lat="47.4375" lon="0.8338">
        <ele>139</ele>
        <time>2011-05-01T07:19:27Z</time>
      </trkpt>
      <trkpt lat="47.43755" lon="0.83383">
        <ele>139</ele>
        <time>2011-05-01T07:19:28Z</time>
      </trkpt>
      <trkpt lat="47.43759" lon="0.83387">
        <ele>139</ele>
        <time>2011-05-01T07:19:29Z</time>
      </trkpt>
      <trkpt lat="47.43763" lon="0.83389">
        <ele>139</ele>
        <time>2011-05-01T07:19:30Z</time>
      </trkpt>
      <trkpt lat="47.43768" lon="0.83392">
        <ele>139</ele>
        <time>2011-05-01T07:19:31Z</time>
      </trkpt>
      <trkpt lat="47.43772" lon="0.83396">
        <ele>138</ele>
        <time>2011-05-01T07:19:32Z</time>
      </trkpt>
      <trkpt lat="47.43777" lon="0.83399">
        <ele>138</ele>
        <time>2011-05-01T07:19:33Z</time>
      </trkpt>
      <trkpt lat="47.43783" lon="0.83403">
        <ele>137</ele>
        <time>2011-05-01T07:19:34Z</time>
      </trkpt>
      <trkpt lat="47.43788" lon="0.83406">
        <ele>137</ele>
        <time>2011-05-01T07:19:35Z</time>
      </trkpt>
      <trkpt lat="47.43793" lon="0.83411">
        <ele>137</ele>
        <time>2011-05-01T07:19:36Z</time>
      </trkpt>
      <trkpt lat="47.43799" lon="0.83414">
        <ele>136</ele>
        <time>2011-05-01T07:19:37Z</time>
      </trkpt>
      <trkpt lat="47.43804" lon="0.83418">
        <ele>135</ele>
        <time>2011-05-01T07:19:38Z</time>
      </trkpt>
      <trkpt lat="47.4381" lon="0.83423">
        <ele>135</ele>
        <time>2011-05-01T07:19:39Z</time>
      </trkpt>
      <trkpt lat="47.43816" lon="0.83427">
        <ele>134</ele>
        <time>2011-05-01T07:19:40Z</time>
      </trkpt>
      <trkpt lat="47.43823" lon="0.83432">
        <ele>134</ele>
        <time>2011-05-01T07:19:41Z</time>
      </trkpt>
      <trkpt lat="47.43829" lon="0.83438">
        <ele>133</ele>
        <time>2011-05-01T07:19:42Z</time>
      </trkpt>
      <trkpt lat="47.43836" lon="0.83443">
        <ele>133</ele>
        <time>2011-05-01T07:19:43Z</time>
      </trkpt>
      <trkpt lat="47.43843" lon="0.83448">
        <ele>132</ele>
        <time>2011-05-01T07:19:44Z</time>
      </trkpt>
      <trkpt lat="47.43851" lon="0.83454">
        <ele>131</ele>
        <time>2011-05-01T07:19:45Z</time>
      </trkpt>
      <trkpt lat="47.4386" lon="0.83457">
        <ele>129</ele>
        <time>2011-05-01T07:19:46Z</time>
      </trkpt>
      <trkpt lat="47.43868" lon="0.83461">
        <ele>128</ele>
        <time>2011-05-01T07:19:47Z</time>
      </trkpt>
      <trkpt lat="47.43874" lon="0.83463">
        <ele>127</ele>
        <time>2011-05-01T07:19:48Z</time>
      </trkpt>
      <trkpt lat="47.43879" lon="0.83465">
        <ele>128</ele>
        <time>2011-05-01T07:19:49Z</time>
      </trkpt>
      <trkpt lat="47.43881" lon="0.83472">
        <ele>127</ele>
        <time>2011-05-01T07:19:51Z</time>
      </trkpt>
      <trkpt lat="47.43878" lon="0.83478">
        <ele>128</ele>
        <time>2011-05-01T07:19:53Z</time>
      </trkpt>
      <trkpt lat="47.43874" lon="0.83484">
        <ele>128</ele>
        <time>2011-05-01T07:19:55Z</time>
      </trkpt>
      <trkpt lat="47.43868" lon="0.83492">
        <ele>128</ele>
        <time>2011-05-01T07:19:57Z</time>
      </trkpt>
      <trkpt lat="47.43864" lon="0.83501">
        <ele>129</ele>
        <time>2011-05-01T07:19:59Z</time>
      </trkpt>
      <trkpt lat="47.43858" lon="0.83509">
        <ele>129</ele>
        <time>2011-05-01T07:20:01Z</time>
      </trkpt>
      <trkpt lat="47.43855" lon="0.83514">
        <ele>129</ele>
        <time>2011-05-01T07:20:02Z</time>
      </trkpt>
      <trkpt lat="47.43849" lon="0.83521">
        <ele>130</ele>
        <time>2011-05-01T07:20:04Z</time>
      </trkpt>
      <trkpt lat="47.43842" lon="0.83529">
        <ele>130</ele>
        <time>2011-05-01T07:20:06Z</time>
      </trkpt>
      <trkpt lat="47.43836" lon="0.83537">
        <ele>130</ele>
        <time>2011-05-01T07:20:08Z</time>
      </trkpt>
      <trkpt lat="47.43829" lon="0.83545">
        <ele>130</ele>
        <time>2011-05-01T07:20:10Z</time>
      </trkpt>
      <trkpt lat="47.43823" lon="0.83552">
        <ele>130</ele>
        <time>2011-05-01T07:20:12Z</time>
      </trkpt>
      <trkpt lat="47.43816" lon="0.8356">
        <ele>129</ele>
        <time>2011-05-01T07:20:14Z</time>
      </trkpt>
      <trkpt lat="47.43812" lon="0.83564">
        <ele>128</ele>
        <time>2011-05-01T07:20:15Z</time>
      </trkpt>
      <trkpt lat="47.43808" lon="0.83568">
        <ele>128</ele>
        <time>2011-05-01T07:20:16Z</time>
      </trkpt>
      <trkpt lat="47.43805" lon="0.83572">
        <ele>128</ele>
        <time>2011-05-01T07:20:17Z</time>
      </trkpt>
      <trkpt lat="47.438" lon="0.8358">
        <ele>128</ele>
        <time>2011-05-01T07:20:19Z</time>
      </trkpt>
      <trkpt lat="47.43802" lon="0.8359">
        <ele>127</ele>
        <time>2011-05-01T07:20:21Z</time>
      </trkpt>
      <trkpt lat="47.43806" lon="0.83597">
        <ele>128</ele>
        <time>2011-05-01T07:20:23Z</time>
      </trkpt>
      <trkpt lat="47.4381" lon="0.83604">
        <ele>128</ele>
        <time>2011-05-01T07:20:25Z</time>
      </trkpt>
      <trkpt lat="47.43814" lon="0.8361">
        <ele>128</ele>
        <time>2011-05-01T07:20:27Z</time>
      </trkpt>
      <trkpt lat="47.43819" lon="0.83618">
        <ele>127</ele>
        <time>2011-05-01T07:20:29Z</time>
      </trkpt>
      <trkpt lat="47.43824" lon="0.83626">
        <ele>127</ele>
        <time>2011-05-01T07:20:31Z</time>
      </trkpt>
      <trkpt lat="47.43829" lon="0.83634">
        <ele>126</ele>
        <time>2011-05-01T07:20:33Z</time>
      </trkpt>
      <trkpt lat="47.43834" lon="0.83645">
        <ele>125</ele>
        <time>2011-05-01T07:20:35Z</time>
      </trkpt>
      <trkpt lat="47.43838" lon="0.8365">
        <ele>125</ele>
        <time>2011-05-01T07:20:36Z</time>
      </trkpt>
      <trkpt lat="47.43844" lon="0.83661">
        <ele>124</ele>
        <time>2011-05-01T07:20:38Z</time>
      </trkpt>
      <trkpt lat="47.43848" lon="0.83667">
        <ele>124</ele>
        <time>2011-05-01T07:20:39Z</time>
      </trkpt>
      <trkpt lat="47.43852" lon="0.83673">
        <ele>124</ele>
        <time>2011-05-01T07:20:40Z</time>
      </trkpt>
      <trkpt lat="47.43856" lon="0.8368">
        <ele>124</ele>
        <time>2011-05-01T07:20:41Z</time>
      </trkpt>
      <trkpt lat="47.4386" lon="0.83686">
        <ele>123</ele>
        <time>2011-05-01T07:20:42Z</time>
      </trkpt>
      <trkpt lat="47.43864" lon="0.83694">
        <ele>123</ele>
        <time>2011-05-01T07:20:43Z</time>
      </trkpt>
      <trkpt lat="47.43868" lon="0.83701">
        <ele>123</ele>
        <time>2011-05-01T07:20:44Z</time>
      </trkpt>
      <trkpt lat="47.43873" lon="0.83707">
        <ele>122</ele>
        <time>2011-05-01T07:20:45Z</time>
      </trkpt>
      <trkpt lat="47.43878" lon="0.83713">
        <ele>121</ele>
        <time>2011-05-01T07:20:46Z</time>
      </trkpt>
      <trkpt lat="47.43884" lon="0.83719">
        <ele>121</ele>
        <time>2011-05-01T07:20:48Z</time>
      </trkpt>
      <trkpt lat="47.4389" lon="0.83718">
        <ele>120</ele>
        <time>2011-05-01T07:20:52Z</time>
      </trkpt>
      <trkpt lat="47.43896" lon="0.83712">
        <ele>120</ele>
        <time>2011-05-01T07:20:54Z</time>
      </trkpt>
      <trkpt lat="47.43903" lon="0.83712">
        <ele>120</ele>
        <time>2011-05-01T07:20:56Z</time>
      </trkpt>
      <trkpt lat="47.43909" lon="0.83717">
        <ele>119</ele>
        <time>2011-05-01T07:20:58Z</time>
      </trkpt>
      <trkpt lat="47.43916" lon="0.83725">
        <ele>119</ele>
        <time>2011-05-01T07:21:00Z</time>
      </trkpt>
      <trkpt lat="47.43922" lon="0.83733">
        <ele>119</ele>
        <time>2011-05-01T07:21:02Z</time>
      </trkpt>
      <trkpt lat="47.43928" lon="0.8374">
        <ele>119</ele>
        <time>2011-05-01T07:21:04Z</time>
      </trkpt>
      <trkpt lat="47.43933" lon="0.83747">
        <ele>119</ele>
        <time>2011-05-01T07:21:06Z</time>
      </trkpt>
      <trkpt lat="47.43939" lon="0.83753">
        <ele>119</ele>
        <time>2011-05-01T07:21:08Z</time>
      </trkpt>
      <trkpt lat="47.43945" lon="0.83756">
        <ele>119</ele>
        <time>2011-05-01T07:21:10Z</time>
      </trkpt>
      <trkpt lat="47.43951" lon="0.83753">
        <ele>119</ele>
        <time>2011-05-01T07:21:12Z</time>
      </trkpt>
      <trkpt lat="47.43954" lon="0.83745">
        <ele>119</ele>
        <time>2011-05-01T07:21:14Z</time>
      </trkpt>
      <trkpt lat="47.43954" lon="0.83736">
        <ele>119</ele>
        <time>2011-05-01T07:21:16Z</time>
      </trkpt>
      <trkpt lat="47.43954" lon="0.83726">
        <ele>119</ele>
        <time>2011-05-01T07:21:18Z</time>
      </trkpt>
      <trkpt lat="47.43953" lon="0.83716">
        <ele>120</ele>
        <time>2011-05-01T07:21:20Z</time>
      </trkpt>
      <trkpt lat="47.43953" lon="0.83706">
        <ele>120</ele>
        <time>2011-05-01T07:21:22Z</time>
      </trkpt>
      <trkpt lat="47.43953" lon="0.83697">
        <ele>119</ele>
        <time>2011-05-01T07:21:24Z</time>
      </trkpt>
      <trkpt lat="47.43953" lon="0.83688">
        <ele>120</ele>
        <time>2011-05-01T07:21:26Z</time>
      </trkpt>
      <trkpt lat="47.43955" lon="0.8368">
        <ele>122</ele>
        <time>2011-05-01T07:21:28Z</time>
      </trkpt>
      <trkpt lat="47.43957" lon="0.83672">
        <ele>122</ele>
        <time>2011-05-01T07:21:30Z</time>
      </trkpt>
      <trkpt lat="47.43959" lon="0.83663">
        <ele>123</ele>
        <time>2011-05-01T07:21:32Z</time>
      </trkpt>
      <trkpt lat="47.4396" lon="0.83656">
        <ele>123</ele>
        <time>2011-05-01T07:21:34Z</time>
      </trkpt>
      <trkpt lat="47.4396" lon="0.83648">
        <ele>122</ele>
        <time>2011-05-01T07:21:36Z</time>
      </trkpt>
      <trkpt lat="47.43961" lon="0.8364">
        <ele>123</ele>
        <time>2011-05-01T07:21:39Z</time>
      </trkpt>
      <trkpt lat="47.43962" lon="0.83632">
        <ele>122</ele>
        <time>2011-05-01T07:21:42Z</time>
      </trkpt>
      <trkpt lat="47.43968" lon="0.83633">
        <ele>122</ele>
        <time>2011-05-01T07:21:45Z</time>
      </trkpt>
      <trkpt lat="47.43972" lon="0.83637">
        <ele>122</ele>
        <time>2011-05-01T07:21:47Z</time>
      </trkpt>
      <trkpt lat="47.43976" lon="0.8364">
        <ele>123</ele>
        <time>2011-05-01T07:21:49Z</time>
      </trkpt>
      <trkpt lat="47.4398" lon="0.83642">
        <ele>123</ele>
        <time>2011-05-01T07:21:51Z</time>
      </trkpt>
      <trkpt lat="47.43986" lon="0.83643">
        <ele>124</ele>
        <time>2011-05-01T07:21:53Z</time>
      </trkpt>
      <trkpt lat="47.4399" lon="0.83645">
        <ele>125</ele>
        <time>2011-05-01T07:21:55Z</time>
      </trkpt>
      <trkpt lat="47.43996" lon="0.83646">
        <ele>127</ele>
        <time>2011-05-01T07:21:57Z</time>
      </trkpt>
      <trkpt lat="47.44" lon="0.83646">
        <ele>128</ele>
        <time>2011-05-01T07:21:59Z</time>
      </trkpt>
      <trkpt lat="47.44005" lon="0.83646">
        <ele>129</ele>
        <time>2011-05-01T07:22:01Z</time>
      </trkpt>
      <trkpt lat="47.44012" lon="0.83645">
        <ele>129</ele>
        <time>2011-05-01T07:22:04Z</time>
      </trkpt>
      <trkpt lat="47.44018" lon="0.83644">
        <ele>130</ele>
        <time>2011-05-01T07:22:07Z</time>
      </trkpt>
      <trkpt lat="47.44023" lon="0.83643">
        <ele>130</ele>
        <time>2011-05-01T07:22:09Z</time>
      </trkpt>
      <trkpt lat="47.44027" lon="0.83641">
        <ele>130</ele>
        <time>2011-05-01T07:22:11Z</time>
      </trkpt>
      <trkpt lat="47.44034" lon="0.83638">
        <ele>130</ele>
        <time>2011-05-01T07:22:14Z</time>
      </trkpt>
      <trkpt lat="47.44039" lon="0.83636">
        <ele>130</ele>
        <time>2011-05-01T07:22:16Z</time>
      </trkpt>
      <trkpt lat="47.44043" lon="0.83634">
        <ele>130</ele>
        <time>2011-05-01T07:22:18Z</time>
      </trkpt>
      <trkpt lat="47.44048" lon="0.83631">
        <ele>132</ele>
        <time>2011-05-01T07:22:20Z</time>
      </trkpt>
      <trkpt lat="47.44052" lon="0.83627">
        <ele>133</ele>
        <time>2011-05-01T07:22:22Z</time>
      </trkpt>
      <trkpt lat="47.44057" lon="0.83621">
        <ele>135</ele>
        <time>2011-05-01T07:22:25Z</time>
      </trkpt>
      <trkpt lat="47.44061" lon="0.83615">
        <ele>137</ele>
        <time>2011-05-01T07:22:28Z</time>
      </trkpt>
      <trkpt lat="47.44064" lon="0.83607">
        <ele>138</ele>
        <time>2011-05-01T07:22:31Z</time>
      </trkpt>
      <trkpt lat="47.44067" lon="0.83599">
        <ele>139</ele>
        <time>2011-05-01T07:22:34Z</time>
      </trkpt>
      <trkpt lat="47.4407" lon="0.83591">
        <ele>140</ele>
        <time>2011-05-01T07:22:37Z</time>
      </trkpt>
      <trkpt lat="47.44072" lon="0.83582">
        <ele>140</ele>
        <time>2011-05-01T07:22:40Z</time>
      </trkpt>
      <trkpt lat="47.44074" lon="0.83575">
        <ele>140</ele>
        <time>2011-05-01T07:22:43Z</time>
      </trkpt>
      <trkpt lat="47.44078" lon="0.8357">
        <ele>141</ele>
        <time>2011-05-01T07:22:46Z</time>
      </trkpt>
      <trkpt lat="47.44083" lon="0.83568">
        <ele>142</ele>
        <time>2011-05-01T07:22:48Z</time>
      </trkpt>
      <trkpt lat="47.44087" lon="0.83566">
        <ele>143</ele>
        <time>2011-05-01T07:22:50Z</time>
      </trkpt>
      <trkpt lat="47.44093" lon="0.83566">
        <ele>143</ele>
        <time>2011-05-01T07:22:53Z</time>
      </trkpt>
      <trkpt lat="47.441" lon="0.83565">
        <ele>143</ele>
        <time>2011-05-01T07:22:56Z</time>
      </trkpt>
      <trkpt lat="47.44105" lon="0.83564">
        <ele>143</ele>
        <time>2011-05-01T07:22:58Z</time>
      </trkpt>
      <trkpt lat="47.4411" lon="0.83563">
        <ele>143</ele>
        <time>2011-05-01T07:23:00Z</time>
      </trkpt>
      <trkpt lat="47.44115" lon="0.83562">
        <ele>143</ele>
        <time>2011-05-01T07:23:02Z</time>
      </trkpt>
      <trkpt lat="47.4412" lon="0.83561">
        <ele>142</ele>
        <time>2011-05-01T07:23:04Z</time>
      </trkpt>
      <trkpt lat="47.44129" lon="0.83546">
        <ele>144</ele>
        <time>2011-05-01T07:23:07Z</time>
      </trkpt>
      <trkpt lat="47.44135" lon="0.83542">
        <ele>145</ele>
        <time>2011-05-01T07:23:09Z</time>
      </trkpt>
      <trkpt lat="47.44142" lon="0.83543">
        <ele>144</ele>
        <time>2011-05-01T07:23:11Z</time>
      </trkpt>
      <trkpt lat="47.44147" lon="0.83546">
        <ele>144</ele>
        <time>2011-05-01T07:23:13Z</time>
      </trkpt>
      <trkpt lat="47.44152" lon="0.83544">
        <ele>144</ele>
        <time>2011-05-01T07:23:15Z</time>
      </trkpt>
      <trkpt lat="47.44158" lon="0.83542">
        <ele>144</ele>
        <time>2011-05-01T07:23:17Z</time>
      </trkpt>
      <trkpt lat="47.44164" lon="0.83542">
        <ele>145</ele>
        <time>2011-05-01T07:23:19Z</time>
      </trkpt>
      <trkpt lat="47.44168" lon="0.83545">
        <ele>146</ele>
        <time>2011-05-01T07:23:21Z</time>
      </trkpt>
      <trkpt lat="47.44173" lon="0.83546">
        <ele>146</ele>
        <time>2011-05-01T07:23:23Z</time>
      </trkpt>
      <trkpt lat="47.44179" lon="0.83547">
        <ele>146</ele>
        <time>2011-05-01T07:23:25Z</time>
      </trkpt>
      <trkpt lat="47.44184" lon="0.83548">
        <ele>146</ele>
        <time>2011-05-01T07:23:27Z</time>
      </trkpt>
      <trkpt lat="47.44189" lon="0.8355">
        <ele>146</ele>
        <time>2011-05-01T07:23:29Z</time>
      </trkpt>
      <trkpt lat="47.44195" lon="0.83552">
        <ele>147</ele>
        <time>2011-05-01T07:23:31Z</time>
      </trkpt>
      <trkpt lat="47.442" lon="0.83553">
        <ele>148</ele>
        <time>2011-05-01T07:23:33Z</time>
      </trkpt>
      <trkpt lat="47.44207" lon="0.83556">
        <ele>149</ele>
        <time>2011-05-01T07:23:36Z</time>
      </trkpt>
      <trkpt lat="47.44212" lon="0.83559">
        <ele>149</ele>
        <time>2011-05-01T07:23:38Z</time>
      </trkpt>
      <trkpt lat="47.44219" lon="0.8356">
        <ele>150</ele>
        <time>2011-05-01T07:23:41Z</time>
      </trkpt>
      <trkpt lat="47.44224" lon="0.8356">
        <ele>150</ele>
        <time>2011-05-01T07:23:44Z</time>
      </trkpt>
      <trkpt lat="47.44229" lon="0.8356">
        <ele>150</ele>
        <time>2011-05-01T07:23:47Z</time>
      </trkpt>
      <trkpt lat="47.44234" lon="0.83562">
        <ele>151</ele>
        <time>2011-05-01T07:23:50Z</time>
      </trkpt>
      <trkpt lat="47.44239" lon="0.83564">
        <ele>151</ele>
        <time>2011-05-01T07:23:53Z</time>
      </trkpt>
      <trkpt lat="47.44245" lon="0.83565">
        <ele>150</ele>
        <time>2011-05-01T07:23:56Z</time>
      </trkpt>
      <trkpt lat="47.4425" lon="0.83566">
        <ele>150</ele>
        <time>2011-05-01T07:23:59Z</time>
      </trkpt>
      <trkpt lat="47.44256" lon="0.83567">
        <ele>150</ele>
        <time>2011-05-01T07:24:02Z</time>
      </trkpt>
      <trkpt lat="47.44261" lon="0.83568">
        <ele>150</ele>
        <time>2011-05-01T07:24:05Z</time>
      </trkpt>
      <trkpt lat="47.44266" lon="0.8357">
        <ele>150</ele>
        <time>2011-05-01T07:24:09Z</time>
      </trkpt>
      <trkpt lat="47.44271" lon="0.83571">
        <ele>150</ele>
        <time>2011-05-01T07:24:14Z</time>
      </trkpt>
      <trkpt lat="47.44277" lon="0.83572">
        <ele>149</ele>
        <time>2011-05-01T07:24:18Z</time>
      </trkpt>
      <trkpt lat="47.44282" lon="0.83573">
        <ele>149</ele>
        <time>2011-05-01T07:24:21Z</time>
      </trkpt>
      <trkpt lat="47.44286" lon="0.83575">
        <ele>149</ele>
        <time>2011-05-01T07:24:25Z</time>
      </trkpt>
      <trkpt lat="47.44291" lon="0.83576">
        <ele>149</ele>
        <time>2011-05-01T07:24:29Z</time>
      </trkpt>
      <trkpt lat="47.44296" lon="0.83578">
        <ele>151</ele>
        <time>2011-05-01T07:24:33Z</time>
      </trkpt>
      <trkpt lat="47.44301" lon="0.83579">
        <ele>151</ele>
        <time>2011-05-01T07:24:38Z</time>
      </trkpt>
      <trkpt lat="47.44306" lon="0.83581">
        <ele>151</ele>
        <time>2011-05-01T07:24:43Z</time>
      </trkpt>
      <trkpt lat="47.44311" lon="0.83582">
        <ele>152</ele>
        <time>2011-05-01T07:24:48Z</time>
      </trkpt>
      <trkpt lat="47.44316" lon="0.83585">
        <ele>152</ele>
        <time>2011-05-01T07:24:51Z</time>
      </trkpt>
      <trkpt lat="47.44322" lon="0.83587">
        <ele>152</ele>
        <time>2011-05-01T07:24:54Z</time>
      </trkpt>
      <trkpt lat="47.44327" lon="0.83588">
        <ele>153</ele>
        <time>2011-05-01T07:24:57Z</time>
      </trkpt>
      <trkpt lat="47.44333" lon="0.83592">
        <ele>153</ele>
        <time>2011-05-01T07:25:00Z</time>
      </trkpt>
      <trkpt lat="47.44336" lon="0.83599">
        <ele>152</ele>
        <time>2011-05-01T07:25:03Z</time>
      </trkpt>
      <trkpt lat="47.4434" lon="0.83606">
        <ele>152</ele>
        <time>2011-05-01T07:25:06Z</time>
      </trkpt>
      <trkpt lat="47.44344" lon="0.83611">
        <ele>152</ele>
        <time>2011-05-01T07:25:09Z</time>
      </trkpt>
      <trkpt lat="47.44348" lon="0.83615">
        <ele>152</ele>
        <time>2011-05-01T07:25:12Z</time>
      </trkpt>
      <trkpt lat="47.44351" lon="0.83619">
        <ele>152</ele>
        <time>2011-05-01T07:25:15Z</time>
      </trkpt>
      <trkpt lat="47.44356" lon="0.83624">
        <ele>153</ele>
        <time>2011-05-01T07:25:19Z</time>
      </trkpt>
      <trkpt lat="47.44356" lon="0.83624">
        <ele>153</ele>
        <time>2011-05-01T07:25:19Z</time>
      </trkpt>
      <trkpt lat="47.44356" lon="0.83624">
        <ele>153</ele>
        <time>2011-05-01T07:25:22Z</time>
      </trkpt>
      <trkpt lat="47.4436" lon="0.8363">
        <ele>153</ele>
        <time>2011-05-01T07:25:55Z</time>
      </trkpt>
      <trkpt lat="47.44365" lon="0.83634">
        <ele>153</ele>
        <time>2011-05-01T07:25:57Z</time>
      </trkpt>
      <trkpt lat="47.44371" lon="0.83637">
        <ele>153</ele>
        <time>2011-05-01T07:25:59Z</time>
      </trkpt>
      <trkpt lat="47.44376" lon="0.83639">
        <ele>153</ele>
        <time>2011-05-01T07:26:01Z</time>
      </trkpt>
      <trkpt lat="47.44381" lon="0.83642">
        <ele>152</ele>
        <time>2011-05-01T07:26:03Z</time>
      </trkpt>
      <trkpt lat="47.44386" lon="0.83644">
        <ele>153</ele>
        <time>2011-05-01T07:26:05Z</time>
      </trkpt>
      <trkpt lat="47.44392" lon="0.83646">
        <ele>153</ele>
        <time>2011-05-01T07:26:07Z</time>
      </trkpt>
      <trkpt lat="47.44399" lon="0.83647">
        <ele>153</ele>
        <time>2011-05-01T07:26:09Z</time>
      </trkpt>
      <trkpt lat="47.44405" lon="0.83649">
        <ele>153</ele>
        <time>2011-05-01T07:26:11Z</time>
      </trkpt>
      <trkpt lat="47.44414" lon="0.8365">
        <ele>153</ele>
        <time>2011-05-01T07:26:14Z</time>
      </trkpt>
      <trkpt lat="47.4442" lon="0.83649">
        <ele>152</ele>
        <time>2011-05-01T07:26:16Z</time>
      </trkpt>
      <trkpt lat="47.44425" lon="0.8365">
        <ele>153</ele>
        <time>2011-05-01T07:26:18Z</time>
      </trkpt>
      <trkpt lat="47.4443" lon="0.83651">
        <ele>154</ele>
        <time>2011-05-01T07:26:20Z</time>
      </trkpt>
      <trkpt lat="47.44435" lon="0.83653">
        <ele>154</ele>
        <time>2011-05-01T07:26:22Z</time>
      </trkpt>
      <trkpt lat="47.4444" lon="0.83654">
        <ele>154</ele>
        <time>2011-05-01T07:26:24Z</time>
      </trkpt>
      <trkpt lat="47.44445" lon="0.83656">
        <ele>154</ele>
        <time>2011-05-01T07:26:26Z</time>
      </trkpt>
      <trkpt lat="47.44451" lon="0.83661">
        <ele>154</ele>
        <time>2011-05-01T07:26:28Z</time>
      </trkpt>
      <trkpt lat="47.44458" lon="0.83664">
        <ele>154</ele>
        <time>2011-05-01T07:26:30Z</time>
      </trkpt>
      <trkpt lat="47.44464" lon="0.83668">
        <ele>154</ele>
        <time>2011-05-01T07:26:32Z</time>
      </trkpt>
      <trkpt lat="47.44471" lon="0.83672">
        <ele>154</ele>
        <time>2011-05-01T07:26:34Z</time>
      </trkpt>
      <trkpt lat="47.44477" lon="0.83676">
        <ele>153</ele>
        <time>2011-05-01T07:26:36Z</time>
      </trkpt>
      <trkpt lat="47.44483" lon="0.83679">
        <ele>153</ele>
        <time>2011-05-01T07:26:38Z</time>
      </trkpt>
      <trkpt lat="47.4449" lon="0.83683">
        <ele>153</ele>
        <time>2011-05-01T07:26:40Z</time>
      </trkpt>
      <trkpt lat="47.44496" lon="0.83686">
        <ele>153</ele>
        <time>2011-05-01T07:26:42Z</time>
      </trkpt>
      <trkpt lat="47.44504" lon="0.83691">
        <ele>153</ele>
        <time>2011-05-01T07:26:44Z</time>
      </trkpt>
      <trkpt lat="47.44509" lon="0.83694">
        <ele>153</ele>
        <time>2011-05-01T07:26:45Z</time>
      </trkpt>
      <trkpt lat="47.44516" lon="0.83697">
        <ele>152</ele>
        <time>2011-05-01T07:26:46Z</time>
      </trkpt>
      <trkpt lat="47.44522" lon="0.83701">
        <ele>152</ele>
        <time>2011-05-01T07:26:47Z</time>
      </trkpt>
      <trkpt lat="47.44528" lon="0.83704">
        <ele>151</ele>
        <time>2011-05-01T07:26:48Z</time>
      </trkpt>
      <trkpt lat="47.44535" lon="0.83706">
        <ele>151</ele>
        <time>2011-05-01T07:26:49Z</time>
      </trkpt>
      <trkpt lat="47.44542" lon="0.8371">
        <ele>150</ele>
        <time>2011-05-01T07:26:50Z</time>
      </trkpt>
      <trkpt lat="47.44549" lon="0.83713">
        <ele>150</ele>
        <time>2011-05-01T07:26:51Z</time>
      </trkpt>
      <trkpt lat="47.44556" lon="0.83715">
        <ele>150</ele>
        <time>2011-05-01T07:26:52Z</time>
      </trkpt>
      <trkpt lat="47.44562" lon="0.83718">
        <ele>150</ele>
        <time>2011-05-01T07:26:53Z</time>
      </trkpt>
      <trkpt lat="47.44568" lon="0.83722">
        <ele>150</ele>
        <time>2011-05-01T07:26:54Z</time>
      </trkpt>
      <trkpt lat="47.44574" lon="0.83727">
        <ele>150</ele>
        <time>2011-05-01T07:26:55Z</time>
      </trkpt>
      <trkpt lat="47.44581" lon="0.83732">
        <ele>150</ele>
        <time>2011-05-01T07:26:56Z</time>
      </trkpt>
      <trkpt lat="47.44587" lon="0.83739">
        <ele>150</ele>
        <time>2011-05-01T07:26:57Z</time>
      </trkpt>
      <trkpt lat="47.44595" lon="0.83744">
        <ele>150</ele>
        <time>2011-05-01T07:26:58Z</time>
      </trkpt>
      <trkpt lat="47.44603" lon="0.8375">
        <ele>150</ele>
        <time>2011-05-01T07:26:59Z</time>
      </trkpt>
      <trkpt lat="47.4461" lon="0.83755">
        <ele>150</ele>
        <time>2011-05-01T07:27:00Z</time>
      </trkpt>
      <trkpt lat="47.44616" lon="0.83758">
        <ele>150</ele>
        <time>2011-05-01T07:27:01Z</time>
      </trkpt>
      <trkpt lat="47.44622" lon="0.83761">
        <ele>150</ele>
        <time>2011-05-01T07:27:02Z</time>
      </trkpt>
      <trkpt lat="47.44628" lon="0.8376">
        <ele>150</ele>
        <time>2011-05-01T07:27:03Z</time>
      </trkpt>
      <trkpt lat="47.44633" lon="0.83759">
        <ele>150</ele>
        <time>2011-05-01T07:27:04Z</time>
      </trkpt>
      <trkpt lat="47.44638" lon="0.83756">
        <ele>149</ele>
        <time>2011-05-01T07:27:05Z</time>
      </trkpt>
      <trkpt lat="47.44643" lon="0.83751">
        <ele>149</ele>
        <time>2011-05-01T07:27:06Z</time>
      </trkpt>
      <trkpt lat="47.44647" lon="0.83744">
        <ele>149</ele>
        <time>2011-05-01T07:27:07Z</time>
      </trkpt>
      <trkpt lat="47.44652" lon="0.83736">
        <ele>148</ele>
        <time>2011-05-01T07:27:08Z</time>
      </trkpt>
      <trkpt lat="47.44658" lon="0.83725">
        <ele>148</ele>
        <time>2011-05-01T07:27:09Z</time>
      </trkpt>
      <trkpt lat="47.44661" lon="0.83715">
        <ele>147</ele>
        <time>2011-05-01T07:27:10Z</time>
      </trkpt>
      <trkpt lat="47.44666" lon="0.83708">
        <ele>147</ele>
        <time>2011-05-01T07:27:11Z</time>
      </trkpt>
      <trkpt lat="47.44668" lon="0.837">
        <ele>146</ele>
        <time>2011-05-01T07:27:12Z</time>
      </trkpt>
      <trkpt lat="47.4467" lon="0.83692">
        <ele>146</ele>
        <time>2011-05-01T07:27:13Z</time>
      </trkpt>
      <trkpt lat="47.44674" lon="0.83685">
        <ele>145</ele>
        <time>2011-05-01T07:27:14Z</time>
      </trkpt>
      <trkpt lat="47.44676" lon="0.83679">
        <ele>144</ele>
        <time>2011-05-01T07:27:15Z</time>
      </trkpt>
      <trkpt lat="47.4468" lon="0.83673">
        <ele>144</ele>
        <time>2011-05-01T07:27:16Z</time>
      </trkpt>
      <trkpt lat="47.44684" lon="0.83662">
        <ele>144</ele>
        <time>2011-05-01T07:27:18Z</time>
      </trkpt>
      <trkpt lat="47.44688" lon="0.83658">
        <ele>144</ele>
        <time>2011-05-01T07:27:19Z</time>
      </trkpt>
      <trkpt lat="47.44692" lon="0.83652">
        <ele>145</ele>
        <time>2011-05-01T07:27:20Z</time>
      </trkpt>
      <trkpt lat="47.44696" lon="0.83648">
        <ele>145</ele>
        <time>2011-05-01T07:27:21Z</time>
      </trkpt>
      <trkpt lat="47.44701" lon="0.83644">
        <ele>145</ele>
        <time>2011-05-01T07:27:22Z</time>
      </trkpt>
      <trkpt lat="47.44709" lon="0.83643">
        <ele>145</ele>
        <time>2011-05-01T07:27:23Z</time>
      </trkpt>
      <trkpt lat="47.44714" lon="0.83642">
        <ele>142</ele>
        <time>2011-05-01T07:27:24Z</time>
      </trkpt>
      <trkpt lat="47.44721" lon="0.83642">
        <ele>140</ele>
        <time>2011-05-01T07:27:25Z</time>
      </trkpt>
      <trkpt lat="47.44728" lon="0.83642">
        <ele>139</ele>
        <time>2011-05-01T07:27:26Z</time>
      </trkpt>
      <trkpt lat="47.44736" lon="0.83644">
        <ele>138</ele>
        <time>2011-05-01T07:27:27Z</time>
      </trkpt>
      <trkpt lat="47.44744" lon="0.83646">
        <ele>137</ele>
        <time>2011-05-01T07:27:28Z</time>
      </trkpt>
      <trkpt lat="47.44752" lon="0.8365">
        <ele>137</ele>
        <time>2011-05-01T07:27:29Z</time>
      </trkpt>
      <trkpt lat="47.44758" lon="0.83656">
        <ele>136</ele>
        <time>2011-05-01T07:27:30Z</time>
      </trkpt>
      <trkpt lat="47.44766" lon="0.83662">
        <ele>135</ele>
        <time>2011-05-01T07:27:31Z</time>
      </trkpt>
      <trkpt lat="47.44774" lon="0.83668">
        <ele>134</ele>
        <time>2011-05-01T07:27:32Z</time>
      </trkpt>
      <trkpt lat="47.4478" lon="0.83672">
        <ele>134</ele>
        <time>2011-05-01T07:27:33Z</time>
      </trkpt>
      <trkpt lat="47.44788" lon="0.83677">
        <ele>133</ele>
        <time>2011-05-01T07:27:34Z</time>
      </trkpt>
      <trkpt lat="47.44793" lon="0.83681">
        <ele>132</ele>
        <time>2011-05-01T07:27:35Z</time>
      </trkpt>
      <trkpt lat="47.448" lon="0.83678">
        <ele>132</ele>
        <time>2011-05-01T07:27:36Z</time>
      </trkpt>
      <trkpt lat="47.44806" lon="0.83674">
        <ele>131</ele>
        <time>2011-05-01T07:27:37Z</time>
      </trkpt>
      <trkpt lat="47.4481" lon="0.83668">
        <ele>131</ele>
        <time>2011-05-01T07:27:38Z</time>
      </trkpt>
      <trkpt lat="47.44815" lon="0.83661">
        <ele>131</ele>
        <time>2011-05-01T07:27:39Z</time>
      </trkpt>
      <trkpt lat="47.4482" lon="0.83655">
        <ele>131</ele>
        <time>2011-05-01T07:27:40Z</time>
      </trkpt>
      <trkpt lat="47.44825" lon="0.8365">
        <ele>130</ele>
        <time>2011-05-01T07:27:41Z</time>
      </trkpt>
      <trkpt lat="47.44829" lon="0.83647">
        <ele>130</ele>
        <time>2011-05-01T07:27:42Z</time>
      </trkpt>
      <trkpt lat="47.44835" lon="0.83645">
        <ele>130</ele>
        <time>2011-05-01T07:27:44Z</time>
      </trkpt>
      <trkpt lat="47.44838" lon="0.8364">
        <ele>129</ele>
        <time>2011-05-01T07:27:46Z</time>
      </trkpt>
      <trkpt lat="47.44838" lon="0.83631">
        <ele>129</ele>
        <time>2011-05-01T07:27:49Z</time>
      </trkpt>
      <trkpt lat="47.44836" lon="0.83625">
        <ele>128</ele>
        <time>2011-05-01T07:27:52Z</time>
      </trkpt>
      <trkpt lat="47.44835" lon="0.83617">
        <ele>129</ele>
        <time>2011-05-01T07:27:56Z</time>
      </trkpt>
      <trkpt lat="47.44832" lon="0.8361">
        <ele>129</ele>
        <time>2011-05-01T07:28:00Z</time>
      </trkpt>
      <trkpt lat="47.44831" lon="0.83603">
        <ele>129</ele>
        <time>2011-05-01T07:28:03Z</time>
      </trkpt>
      <trkpt lat="47.44829" lon="0.83596">
        <ele>130</ele>
        <time>2011-05-01T07:28:06Z</time>
      </trkpt>
      <trkpt lat="47.44828" lon="0.8359">
        <ele>130</ele>
        <time>2011-05-01T07:28:09Z</time>
      </trkpt>
      <trkpt lat="47.44826" lon="0.83578">
        <ele>130</ele>
        <time>2011-05-01T07:28:14Z</time>
      </trkpt>
      <trkpt lat="47.44824" lon="0.8357">
        <ele>128</ele>
        <time>2011-05-01T07:28:18Z</time>
      </trkpt>
      <trkpt lat="47.44823" lon="0.83561">
        <ele>127</ele>
        <time>2011-05-01T07:28:21Z</time>
      </trkpt>
      <trkpt lat="47.44821" lon="0.83554">
        <ele>126</ele>
        <time>2011-05-01T07:28:56Z</time>
      </trkpt>
      <trkpt lat="47.44818" lon="0.83547">
        <ele>126</ele>
        <time>2011-05-01T07:28:58Z</time>
      </trkpt>
      <trkpt lat="47.44815" lon="0.8354">
        <ele>127</ele>
        <time>2011-05-01T07:29:00Z</time>
      </trkpt>
      <trkpt lat="47.44813" lon="0.8353">
        <ele>126</ele>
        <time>2011-05-01T07:29:02Z</time>
      </trkpt>
      <trkpt lat="47.44811" lon="0.8352">
        <ele>127</ele>
        <time>2011-05-01T07:29:04Z</time>
      </trkpt>
      <trkpt lat="47.44808" lon="0.8351">
        <ele>127</ele>
        <time>2011-05-01T07:29:06Z</time>
      </trkpt>
      <trkpt lat="47.44806" lon="0.83501">
        <ele>127</ele>
        <time>2011-05-01T07:29:08Z</time>
      </trkpt>
      <trkpt lat="47.44803" lon="0.83493">
        <ele>126</ele>
        <time>2011-05-01T07:29:10Z</time>
      </trkpt>
      <trkpt lat="47.448" lon="0.83484">
        <ele>127</ele>
        <time>2011-05-01T07:29:12Z</time>
      </trkpt>
      <trkpt lat="47.44798" lon="0.83474">
        <ele>127</ele>
        <time>2011-05-01T07:29:14Z</time>
      </trkpt>
      <trkpt lat="47.44795" lon="0.83464">
        <ele>127</ele>
        <time>2011-05-01T07:29:16Z</time>
      </trkpt>
      <trkpt lat="47.44792" lon="0.83454">
        <ele>127</ele>
        <time>2011-05-01T07:29:18Z</time>
      </trkpt>
      <trkpt lat="47.4479" lon="0.83446">
        <ele>128</ele>
        <time>2011-05-01T07:29:20Z</time>
      </trkpt>
      <trkpt lat="47.44786" lon="0.83436">
        <ele>128</ele>
        <time>2011-05-01T07:29:22Z</time>
      </trkpt>
      <trkpt lat="47.44783" lon="0.83427">
        <ele>128</ele>
        <time>2011-05-01T07:29:24Z</time>
      </trkpt>
      <trkpt lat="47.4478" lon="0.83419">
        <ele>129</ele>
        <time>2011-05-01T07:29:26Z</time>
      </trkpt>
      <trkpt lat="47.44776" lon="0.83411">
        <ele>129</ele>
        <time>2011-05-01T07:29:28Z</time>
      </trkpt>
      <trkpt lat="47.44772" lon="0.83403">
        <ele>130</ele>
        <time>2011-05-01T07:29:30Z</time>
      </trkpt>
      <trkpt lat="47.44767" lon="0.83395">
        <ele>130</ele>
        <time>2011-05-01T07:29:32Z</time>
      </trkpt>
      <trkpt lat="47.44762" lon="0.83388">
        <ele>129</ele>
        <time>2011-05-01T07:29:34Z</time>
      </trkpt>
      <trkpt lat="47.44757" lon="0.83381">
        <ele>129</ele>
        <time>2011-05-01T07:29:36Z</time>
      </trkpt>
      <trkpt lat="47.44753" lon="0.83372">
        <ele>129</ele>
        <time>2011-05-01T07:29:38Z</time>
      </trkpt>
      <trkpt lat="47.44749" lon="0.83363">
        <ele>129</ele>
        <time>2011-05-01T07:29:40Z</time>
      </trkpt>
      <trkpt lat="47.44745" lon="0.83354">
        <ele>129</ele>
        <time>2011-05-01T07:29:42Z</time>
      </trkpt>
      <trkpt lat="47.44742" lon="0.83345">
        <ele>130</ele>
        <time>2011-05-01T07:29:44Z</time>
      </trkpt>
      <trkpt lat="47.44739" lon="0.83334">
        <ele>130</ele>
        <time>2011-05-01T07:29:46Z</time>
      </trkpt>
      <trkpt lat="47.44737" lon="0.83323">
        <ele>130</ele>
        <time>2011-05-01T07:29:48Z</time>
      </trkpt>
      <trkpt lat="47.44735" lon="0.83313">
        <ele>130</ele>
        <time>2011-05-01T07:29:50Z</time>
      </trkpt>
      <trkpt lat="47.44733" lon="0.83302">
        <ele>130</ele>
        <time>2011-05-01T07:29:52Z</time>
      </trkpt>
      <trkpt lat="47.44731" lon="0.83292">
        <ele>131</ele>
        <time>2011-05-01T07:29:54Z</time>
      </trkpt>
      <trkpt lat="47.4473" lon="0.83286">
        <ele>131</ele>
        <time>2011-05-01T07:29:55Z</time>
      </trkpt>
      <trkpt lat="47.44728" lon="0.83277">
        <ele>131</ele>
        <time>2011-05-01T07:29:57Z</time>
      </trkpt>
      <trkpt lat="47.44727" lon="0.83265">
        <ele>131</ele>
        <time>2011-05-01T07:29:59Z</time>
      </trkpt>
      <trkpt lat="47.44724" lon="0.83254">
        <ele>132</ele>
        <time>2011-05-01T07:30:01Z</time>
      </trkpt>
      <trkpt lat="47.44722" lon="0.83241">
        <ele>132</ele>
        <time>2011-05-01T07:30:03Z</time>
      </trkpt>
      <trkpt lat="47.4472" lon="0.83234">
        <ele>132</ele>
        <time>2011-05-01T07:30:04Z</time>
      </trkpt>
      <trkpt lat="47.44718" lon="0.83221">
        <ele>135</ele>
        <time>2011-05-01T07:30:06Z</time>
      </trkpt>
      <trkpt lat="47.44717" lon="0.83215">
        <ele>136</ele>
        <time>2011-05-01T07:30:07Z</time>
      </trkpt>
      <trkpt lat="47.44714" lon="0.83204">
        <ele>137</ele>
        <time>2011-05-01T07:30:09Z</time>
      </trkpt>
      <trkpt lat="47.44711" lon="0.83193">
        <ele>137</ele>
        <time>2011-05-01T07:30:11Z</time>
      </trkpt>
      <trkpt lat="47.44709" lon="0.83182">
        <ele>138</ele>
        <time>2011-05-01T07:30:13Z</time>
      </trkpt>
      <trkpt lat="47.44708" lon="0.8317">
        <ele>138</ele>
        <time>2011-05-01T07:30:15Z</time>
      </trkpt>
      <trkpt lat="47.44708" lon="0.83159">
        <ele>139</ele>
        <time>2011-05-01T07:30:17Z</time>
      </trkpt>
      <trkpt lat="47.44706" lon="0.83147">
        <ele>140</ele>
        <time>2011-05-01T07:30:19Z</time>
      </trkpt>
      <trkpt lat="47.44705" lon="0.83136">
        <ele>139</ele>
        <time>2011-05-01T07:30:21Z</time>
      </trkpt>
      <trkpt lat="47.44705" lon="0.83124">
        <ele>139</ele>
        <time>2011-05-01T07:30:23Z</time>
      </trkpt>
      <trkpt lat="47.44704" lon="0.83112">
        <ele>139</ele>
        <time>2011-05-01T07:30:25Z</time>
      </trkpt>
      <trkpt lat="47.44703" lon="0.83102">
        <ele>139</ele>
        <time>2011-05-01T07:30:27Z</time>
      </trkpt>
      <trkpt lat="47.447" lon="0.83091">
        <ele>138</ele>
        <time>2011-05-01T07:30:29Z</time>
      </trkpt>
      <trkpt lat="47.447" lon="0.8308">
        <ele>138</ele>
        <time>2011-05-01T07:30:31Z</time>
      </trkpt>
      <trkpt lat="47.44697" lon="0.83067">
        <ele>139</ele>
        <time>2011-05-01T07:30:33Z</time>
      </trkpt>
      <trkpt lat="47.44696" lon="0.83056">
        <ele>139</ele>
        <time>2011-05-01T07:30:35Z</time>
      </trkpt>
      <trkpt lat="47.44694" lon="0.83044">
        <ele>139</ele>
        <time>2011-05-01T07:30:37Z</time>
      </trkpt>
      <trkpt lat="47.44691" lon="0.83034">
        <ele>139</ele>
        <time>2011-05-01T07:30:39Z</time>
      </trkpt>
      <trkpt lat="47.44689" lon="0.83022">
        <ele>138</ele>
        <time>2011-05-01T07:30:41Z</time>
      </trkpt>
      <trkpt lat="47.44686" lon="0.83012">
        <ele>138</ele>
        <time>2011-05-01T07:30:43Z</time>
      </trkpt>
      <trkpt lat="47.44684" lon="0.83001">
        <ele>139</ele>
        <time>2011-05-01T07:30:45Z</time>
      </trkpt>
      <trkpt lat="47.44685" lon="0.82991">
        <ele>139</ele>
        <time>2011-05-01T07:30:47Z</time>
      </trkpt>
      <trkpt lat="47.44692" lon="0.82977">
        <ele>139</ele>
        <time>2011-05-01T07:30:49Z</time>
      </trkpt>
      <trkpt lat="47.44695" lon="0.82969">
        <ele>138</ele>
        <time>2011-05-01T07:30:50Z</time>
      </trkpt>
      <trkpt lat="47.44697" lon="0.82962">
        <ele>138</ele>
        <time>2011-05-01T07:30:51Z</time>
      </trkpt>
      <trkpt lat="47.44699" lon="0.82954">
        <ele>137</ele>
        <time>2011-05-01T07:30:52Z</time>
      </trkpt>
      <trkpt lat="47.44703" lon="0.82946">
        <ele>138</ele>
        <time>2011-05-01T07:30:53Z</time>
      </trkpt>
      <trkpt lat="47.44708" lon="0.8294">
        <ele>137</ele>
        <time>2011-05-01T07:30:54Z</time>
      </trkpt>
      <trkpt lat="47.44713" lon="0.82936">
        <ele>137</ele>
        <time>2011-05-01T07:30:55Z</time>
      </trkpt>
      <trkpt lat="47.44719" lon="0.82934">
        <ele>137</ele>
        <time>2011-05-01T07:30:56Z</time>
      </trkpt>
      <trkpt lat="47.44725" lon="0.82932">
        <ele>138</ele>
        <time>2011-05-01T07:30:57Z</time>
      </trkpt>
      <trkpt lat="47.4473" lon="0.82931">
        <ele>138</ele>
        <time>2011-05-01T07:30:58Z</time>
      </trkpt>
      <trkpt lat="47.44736" lon="0.82929">
        <ele>138</ele>
        <time>2011-05-01T07:30:59Z</time>
      </trkpt>
      <trkpt lat="47.44742" lon="0.82928">
        <ele>139</ele>
        <time>2011-05-01T07:31:00Z</time>
      </trkpt>
      <trkpt lat="47.44748" lon="0.82927">
        <ele>139</ele>
        <time>2011-05-01T07:31:01Z</time>
      </trkpt>
      <trkpt lat="47.44753" lon="0.82926">
        <ele>139</ele>
        <time>2011-05-01T07:31:02Z</time>
      </trkpt>
      <trkpt lat="47.44758" lon="0.82924">
        <ele>138</ele>
        <time>2011-05-01T07:31:03Z</time>
      </trkpt>
      <trkpt lat="47.44766" lon="0.82922">
        <ele>138</ele>
        <time>2011-05-01T07:31:05Z</time>
      </trkpt>
      <trkpt lat="47.44771" lon="0.82919">
        <ele>138</ele>
        <time>2011-05-01T07:31:06Z</time>
      </trkpt>
      <trkpt lat="47.44776" lon="0.82917">
        <ele>139</ele>
        <time>2011-05-01T07:31:07Z</time>
      </trkpt>
      <trkpt lat="47.4478" lon="0.82916">
        <ele>140</ele>
        <time>2011-05-01T07:31:08Z</time>
      </trkpt>
      <trkpt lat="47.44785" lon="0.82916">
        <ele>142</ele>
        <time>2011-05-01T07:31:09Z</time>
      </trkpt>
      <trkpt lat="47.44791" lon="0.82915">
        <ele>142</ele>
        <time>2011-05-01T07:31:10Z</time>
      </trkpt>
      <trkpt lat="47.44796" lon="0.82913">
        <ele>143</ele>
        <time>2011-05-01T07:31:11Z</time>
      </trkpt>
      <trkpt lat="47.44801" lon="0.8291">
        <ele>143</ele>
        <time>2011-05-01T07:31:12Z</time>
      </trkpt>
      <trkpt lat="47.44806" lon="0.82909">
        <ele>143</ele>
        <time>2011-05-01T07:31:13Z</time>
      </trkpt>
      <trkpt lat="47.44812" lon="0.82906">
        <ele>142</ele>
        <time>2011-05-01T07:31:14Z</time>
      </trkpt>
      <trkpt lat="47.44816" lon="0.82904">
        <ele>142</ele>
        <time>2011-05-01T07:31:15Z</time>
      </trkpt>
      <trkpt lat="47.44826" lon="0.82901">
        <ele>142</ele>
        <time>2011-05-01T07:31:17Z</time>
      </trkpt>
      <trkpt lat="47.44835" lon="0.82898">
        <ele>143</ele>
        <time>2011-05-01T07:31:19Z</time>
      </trkpt>
      <trkpt lat="47.4484" lon="0.82897">
        <ele>143</ele>
        <time>2011-05-01T07:31:20Z</time>
      </trkpt>
      <trkpt lat="47.44848" lon="0.82895">
        <ele>143</ele>
        <time>2011-05-01T07:31:22Z</time>
      </trkpt>
      <trkpt lat="47.44853" lon="0.82895">
        <ele>144</ele>
        <time>2011-05-01T07:31:23Z</time>
      </trkpt>
      <trkpt lat="47.44858" lon="0.82894">
        <ele>144</ele>
        <time>2011-05-01T07:31:24Z</time>
      </trkpt>
      <trkpt lat="47.44863" lon="0.82892">
        <ele>144</ele>
        <time>2011-05-01T07:31:25Z</time>
      </trkpt>
      <trkpt lat="47.44872" lon="0.82889">
        <ele>145</ele>
        <time>2011-05-01T07:31:27Z</time>
      </trkpt>
      <trkpt lat="47.44877" lon="0.82888">
        <ele>145</ele>
        <time>2011-05-01T07:31:28Z</time>
      </trkpt>
      <trkpt lat="47.44882" lon="0.82886">
        <ele>146</ele>
        <time>2011-05-01T07:31:29Z</time>
      </trkpt>
      <trkpt lat="47.44887" lon="0.82884">
        <ele>146</ele>
        <time>2011-05-01T07:31:30Z</time>
      </trkpt>
      <trkpt lat="47.44892" lon="0.82883">
        <ele>145</ele>
        <time>2011-05-01T07:31:31Z</time>
      </trkpt>
      <trkpt lat="47.44897" lon="0.82881">
        <ele>146</ele>
        <time>2011-05-01T07:31:32Z</time>
      </trkpt>
      <trkpt lat="47.44902" lon="0.82879">
        <ele>146</ele>
        <time>2011-05-01T07:31:33Z</time>
      </trkpt>
      <trkpt lat="47.44907" lon="0.82877">
        <ele>146</ele>
        <time>2011-05-01T07:31:34Z</time>
      </trkpt>
      <trkpt lat="47.44912" lon="0.82875">
        <ele>146</ele>
        <time>2011-05-01T07:31:35Z</time>
      </trkpt>
      <trkpt lat="47.44921" lon="0.82872">
        <ele>146</ele>
        <time>2011-05-01T07:31:37Z</time>
      </trkpt>
      <trkpt lat="47.44925" lon="0.8287">
        <ele>146</ele>
        <time>2011-05-01T07:31:38Z</time>
      </trkpt>
      <trkpt lat="47.44934" lon="0.82868">
        <ele>146</ele>
        <time>2011-05-01T07:31:40Z</time>
      </trkpt>
      <trkpt lat="47.44942" lon="0.82867">
        <ele>146</ele>
        <time>2011-05-01T07:31:42Z</time>
      </trkpt>
      <trkpt lat="47.44949" lon="0.82864">
        <ele>147</ele>
        <time>2011-05-01T07:31:44Z</time>
      </trkpt>
      <trkpt lat="47.44955" lon="0.8286">
        <ele>147</ele>
        <time>2011-05-01T07:31:46Z</time>
      </trkpt>
      <trkpt lat="47.4496" lon="0.82856">
        <ele>147</ele>
        <time>2011-05-01T07:31:48Z</time>
      </trkpt>
      <trkpt lat="47.44966" lon="0.82857">
        <ele>147</ele>
        <time>2011-05-01T07:31:51Z</time>
      </trkpt>
      <trkpt lat="47.4497" lon="0.82858">
        <ele>147</ele>
        <time>2011-05-01T07:31:54Z</time>
      </trkpt>
      <trkpt lat="47.44975" lon="0.82858">
        <ele>148</ele>
        <time>2011-05-01T07:31:57Z</time>
      </trkpt>
      <trkpt lat="47.44981" lon="0.82858">
        <ele>148</ele>
        <time>2011-05-01T07:32:00Z</time>
      </trkpt>
      <trkpt lat="47.44988" lon="0.82858">
        <ele>149</ele>
        <time>2011-05-01T07:32:03Z</time>
      </trkpt>
      <trkpt lat="47.44994" lon="0.82858">
        <ele>148</ele>
        <time>2011-05-01T07:32:05Z</time>
      </trkpt>
      <trkpt lat="47.45001" lon="0.82859">
        <ele>149</ele>
        <time>2011-05-01T07:32:07Z</time>
      </trkpt>
      <trkpt lat="47.45008" lon="0.8286">
        <ele>149</ele>
        <time>2011-05-01T07:32:09Z</time>
      </trkpt>
      <trkpt lat="47.45015" lon="0.82862">
        <ele>149</ele>
        <time>2011-05-01T07:32:11Z</time>
      </trkpt>
      <trkpt lat="47.45021" lon="0.82863">
        <ele>149</ele>
        <time>2011-05-01T07:32:13Z</time>
      </trkpt>
      <trkpt lat="47.45029" lon="0.82864">
        <ele>149</ele>
        <time>2011-05-01T07:32:15Z</time>
      </trkpt>
      <trkpt lat="47.45036" lon="0.82865">
        <ele>149</ele>
        <time>2011-05-01T07:32:17Z</time>
      </trkpt>
      <trkpt lat="47.45042" lon="0.82867">
        <ele>149</ele>
        <time>2011-05-01T07:32:19Z</time>
      </trkpt>
      <trkpt lat="47.45048" lon="0.82868">
        <ele>149</ele>
        <time>2011-05-01T07:32:21Z</time>
      </trkpt>
      <trkpt lat="47.45055" lon="0.82869">
        <ele>149</ele>
        <time>2011-05-01T07:32:23Z</time>
      </trkpt>
      <trkpt lat="47.45061" lon="0.8287">
        <ele>149</ele>
        <time>2011-05-01T07:32:25Z</time>
      </trkpt>
      <trkpt lat="47.45068" lon="0.8287">
        <ele>149</ele>
        <time>2011-05-01T07:32:27Z</time>
      </trkpt>
      <trkpt lat="47.45074" lon="0.8287">
        <ele>149</ele>
        <time>2011-05-01T07:32:29Z</time>
      </trkpt>
      <trkpt lat="47.4508" lon="0.8287">
        <ele>149</ele>
        <time>2011-05-01T07:32:31Z</time>
      </trkpt>
      <trkpt lat="47.45086" lon="0.82868">
        <ele>149</ele>
        <time>2011-05-01T07:32:33Z</time>
      </trkpt>
      <trkpt lat="47.45093" lon="0.82868">
        <ele>149</ele>
        <time>2011-05-01T07:32:35Z</time>
      </trkpt>
      <trkpt lat="47.451" lon="0.82869">
        <ele>150</ele>
        <time>2011-05-01T07:32:37Z</time>
      </trkpt>
      <trkpt lat="47.45107" lon="0.82868">
        <ele>149</ele>
        <time>2011-05-01T07:32:39Z</time>
      </trkpt>
      <trkpt lat="47.45114" lon="0.82869">
        <ele>149</ele>
        <time>2011-05-01T07:32:41Z</time>
      </trkpt>
      <trkpt lat="47.45121" lon="0.82869">
        <ele>150</ele>
        <time>2011-05-01T07:32:43Z</time>
      </trkpt>
      <trkpt lat="47.45129" lon="0.8287">
        <ele>150</ele>
        <time>2011-05-01T07:32:45Z</time>
      </trkpt>
      <trkpt lat="47.45136" lon="0.82871">
        <ele>150</ele>
        <time>2011-05-01T07:32:47Z</time>
      </trkpt>
      <trkpt lat="47.45143" lon="0.82871">
        <ele>150</ele>
        <time>2011-05-01T07:32:49Z</time>
      </trkpt>
      <trkpt lat="47.4515" lon="0.82872">
        <ele>150</ele>
        <time>2011-05-01T07:32:51Z</time>
      </trkpt>
      <trkpt lat="47.45157" lon="0.82872">
        <ele>151</ele>
        <time>2011-05-01T07:32:53Z</time>
      </trkpt>
      <trkpt lat="47.45164" lon="0.82873">
        <ele>151</ele>
        <time>2011-05-01T07:32:55Z</time>
      </trkpt>
      <trkpt lat="47.4517" lon="0.82873">
        <ele>151</ele>
        <time>2011-05-01T07:32:57Z</time>
      </trkpt>
      <trkpt lat="47.45178" lon="0.82874">
        <ele>151</ele>
        <time>2011-05-01T07:32:59Z</time>
      </trkpt>
      <trkpt lat="47.45185" lon="0.82875">
        <ele>152</ele>
        <time>2011-05-01T07:33:01Z</time>
      </trkpt>
      <trkpt lat="47.45192" lon="0.82876">
        <ele>152</ele>
        <time>2011-05-01T07:33:03Z</time>
      </trkpt>
      <trkpt lat="47.452" lon="0.82878">
        <ele>152</ele>
        <time>2011-05-01T07:33:05Z</time>
      </trkpt>
      <trkpt lat="47.45208" lon="0.8288">
        <ele>152</ele>
        <time>2011-05-01T07:33:07Z</time>
      </trkpt>
      <trkpt lat="47.45215" lon="0.82881">
        <ele>152</ele>
        <time>2011-05-01T07:33:09Z</time>
      </trkpt>
      <trkpt lat="47.45222" lon="0.82883">
        <ele>153</ele>
        <time>2011-05-01T07:33:11Z</time>
      </trkpt>
      <trkpt lat="47.4523" lon="0.82885">
        <ele>154</ele>
        <time>2011-05-01T07:33:13Z</time>
      </trkpt>
      <trkpt lat="47.45238" lon="0.82887">
        <ele>154</ele>
        <time>2011-05-01T07:33:15Z</time>
      </trkpt>
      <trkpt lat="47.45246" lon="0.82889">
        <ele>154</ele>
        <time>2011-05-01T07:33:17Z</time>
      </trkpt>
      <trkpt lat="47.45254" lon="0.82892">
        <ele>154</ele>
        <time>2011-05-01T07:33:19Z</time>
      </trkpt>
      <trkpt lat="47.45261" lon="0.82895">
        <ele>155</ele>
        <time>2011-05-01T07:33:21Z</time>
      </trkpt>
      <trkpt lat="47.45269" lon="0.82898">
        <ele>155</ele>
        <time>2011-05-01T07:33:23Z</time>
      </trkpt>
      <trkpt lat="47.45277" lon="0.82901">
        <ele>156</ele>
        <time>2011-05-01T07:33:25Z</time>
      </trkpt>
      <trkpt lat="47.45284" lon="0.82904">
        <ele>156</ele>
        <time>2011-05-01T07:33:27Z</time>
      </trkpt>
      <trkpt lat="47.45292" lon="0.82908">
        <ele>156</ele>
        <time>2011-05-01T07:33:29Z</time>
      </trkpt>
      <trkpt lat="47.45299" lon="0.8291">
        <ele>155</ele>
        <time>2011-05-01T07:33:31Z</time>
      </trkpt>
      <trkpt lat="47.45304" lon="0.82912">
        <ele>155</ele>
        <time>2011-05-01T07:33:32Z</time>
      </trkpt>
      <trkpt lat="47.45311" lon="0.82914">
        <ele>155</ele>
        <time>2011-05-01T07:33:34Z</time>
      </trkpt>
      <trkpt lat="47.45318" lon="0.82917">
        <ele>155</ele>
        <time>2011-05-01T07:33:36Z</time>
      </trkpt>
      <trkpt lat="47.45326" lon="0.82919">
        <ele>155</ele>
        <time>2011-05-01T07:33:38Z</time>
      </trkpt>
      <trkpt lat="47.45332" lon="0.82922">
        <ele>155</ele>
        <time>2011-05-01T07:33:40Z</time>
      </trkpt>
      <trkpt lat="47.4534" lon="0.82924">
        <ele>155</ele>
        <time>2011-05-01T07:33:42Z</time>
      </trkpt>
      <trkpt lat="47.45345" lon="0.82926">
        <ele>154</ele>
        <time>2011-05-01T07:33:43Z</time>
      </trkpt>
      <trkpt lat="47.45353" lon="0.82928">
        <ele>154</ele>
        <time>2011-05-01T07:33:45Z</time>
      </trkpt>
      <trkpt lat="47.45362" lon="0.82931">
        <ele>154</ele>
        <time>2011-05-01T07:33:47Z</time>
      </trkpt>
      <trkpt lat="47.45371" lon="0.82934">
        <ele>154</ele>
        <time>2011-05-01T07:33:49Z</time>
      </trkpt>
      <trkpt lat="47.45379" lon="0.82932">
        <ele>154</ele>
        <time>2011-05-01T07:33:51Z</time>
      </trkpt>
      <trkpt lat="47.45387" lon="0.82933">
        <ele>153</ele>
        <time>2011-05-01T07:33:53Z</time>
      </trkpt>
      <trkpt lat="47.45395" lon="0.82933">
        <ele>153</ele>
        <time>2011-05-01T07:33:55Z</time>
      </trkpt>
      <trkpt lat="47.45404" lon="0.82933">
        <ele>152</ele>
        <time>2011-05-01T07:33:57Z</time>
      </trkpt>
      <trkpt lat="47.45412" lon="0.82934">
        <ele>152</ele>
        <time>2011-05-01T07:33:59Z</time>
      </trkpt>
      <trkpt lat="47.45419" lon="0.82935">
        <ele>152</ele>
        <time>2011-05-01T07:34:01Z</time>
      </trkpt>
      <trkpt lat="47.45419" lon="0.82935">
        <ele>152</ele>
        <time>2011-05-01T07:34:01Z</time>
      </trkpt>
      <trkpt lat="47.45419" lon="0.82935">
        <ele>152</ele>
        <time>2011-05-01T07:34:35Z</time>
      </trkpt>
      <trkpt lat="47.45425" lon="0.82937">
        <ele>153</ele>
        <time>2011-05-01T07:34:54Z</time>
      </trkpt>
      <trkpt lat="47.45432" lon="0.82938">
        <ele>153</ele>
        <time>2011-05-01T07:34:56Z</time>
      </trkpt>
      <trkpt lat="47.45438" lon="0.82938">
        <ele>152</ele>
        <time>2011-05-01T07:34:58Z</time>
      </trkpt>
      <trkpt lat="47.45442" lon="0.82936">
        <ele>152</ele>
        <time>2011-05-01T07:35:00Z</time>
      </trkpt>
      <trkpt lat="47.45448" lon="0.82935">
        <ele>152</ele>
        <time>2011-05-01T07:35:02Z</time>
      </trkpt>
      <trkpt lat="47.45454" lon="0.82932">
        <ele>152</ele>
        <time>2011-05-01T07:35:04Z</time>
      </trkpt>
      <trkpt lat="47.45461" lon="0.82928">
        <ele>152</ele>
        <time>2011-05-01T07:35:06Z</time>
      </trkpt>
      <trkpt lat="47.45468" lon="0.82925">
        <ele>152</ele>
        <time>2011-05-01T07:35:08Z</time>
      </trkpt>
      <trkpt lat="47.45476" lon="0.82922">
        <ele>152</ele>
        <time>2011-05-01T07:35:10Z</time>
      </trkpt>
      <trkpt lat="47.45483" lon="0.82918">
        <ele>152</ele>
        <time>2011-05-01T07:35:12Z</time>
      </trkpt>
      <trkpt lat="47.4549" lon="0.82914">
        <ele>152</ele>
        <time>2011-05-01T07:35:14Z</time>
      </trkpt>
      <trkpt lat="47.45497" lon="0.82911">
        <ele>152</ele>
        <time>2011-05-01T07:35:16Z</time>
      </trkpt>
      <trkpt lat="47.45502" lon="0.82909">
        <ele>152</ele>
        <time>2011-05-01T07:35:17Z</time>
      </trkpt>
      <trkpt lat="47.4551" lon="0.82905">
        <ele>152</ele>
        <time>2011-05-01T07:35:19Z</time>
      </trkpt>
      <trkpt lat="47.45515" lon="0.82902">
        <ele>152</ele>
        <time>2011-05-01T07:35:20Z</time>
      </trkpt>
      <trkpt lat="47.45519" lon="0.829">
        <ele>152</ele>
        <time>2011-05-01T07:35:21Z</time>
      </trkpt>
      <trkpt lat="47.45524" lon="0.82898">
        <ele>152</ele>
        <time>2011-05-01T07:35:22Z</time>
      </trkpt>
      <trkpt lat="47.45528" lon="0.82896">
        <ele>153</ele>
        <time>2011-05-01T07:35:23Z</time>
      </trkpt>
      <trkpt lat="47.45533" lon="0.82894">
        <ele>153</ele>
        <time>2011-05-01T07:35:24Z</time>
      </trkpt>
      <trkpt lat="47.45541" lon="0.8289">
        <ele>152</ele>
        <time>2011-05-01T07:35:26Z</time>
      </trkpt>
      <trkpt lat="47.45546" lon="0.82888">
        <ele>152</ele>
        <time>2011-05-01T07:35:27Z</time>
      </trkpt>
      <trkpt lat="47.45551" lon="0.82887">
        <ele>152</ele>
        <time>2011-05-01T07:35:28Z</time>
      </trkpt>
      <trkpt lat="47.4556" lon="0.82887">
        <ele>152</ele>
        <time>2011-05-01T07:35:30Z</time>
      </trkpt>
      <trkpt lat="47.4557" lon="0.82888">
        <ele>152</ele>
        <time>2011-05-01T07:35:32Z</time>
      </trkpt>
      <trkpt lat="47.45578" lon="0.82888">
        <ele>152</ele>
        <time>2011-05-01T07:35:34Z</time>
      </trkpt>
      <trkpt lat="47.45586" lon="0.82888">
        <ele>152</ele>
        <time>2011-05-01T07:35:36Z</time>
      </trkpt>
      <trkpt lat="47.45594" lon="0.8289">
        <ele>153</ele>
        <time>2011-05-01T07:35:38Z</time>
      </trkpt>
      <trkpt lat="47.45599" lon="0.82892">
        <ele>153</ele>
        <time>2011-05-01T07:35:39Z</time>
      </trkpt>
      <trkpt lat="47.45607" lon="0.82895">
        <ele>153</ele>
        <time>2011-05-01T07:35:41Z</time>
      </trkpt>
      <trkpt lat="47.45611" lon="0.82897">
        <ele>153</ele>
        <time>2011-05-01T07:35:42Z</time>
      </trkpt>
      <trkpt lat="47.45616" lon="0.82898">
        <ele>153</ele>
        <time>2011-05-01T07:35:43Z</time>
      </trkpt>
      <trkpt lat="47.4562" lon="0.82903">
        <ele>153</ele>
        <time>2011-05-01T07:35:44Z</time>
      </trkpt>
      <trkpt lat="47.45623" lon="0.82906">
        <ele>153</ele>
        <time>2011-05-01T07:35:45Z</time>
      </trkpt>
      <trkpt lat="47.45629" lon="0.82916">
        <ele>153</ele>
        <time>2011-05-01T07:35:47Z</time>
      </trkpt>
      <trkpt lat="47.45634" lon="0.82924">
        <ele>153</ele>
        <time>2011-05-01T07:35:49Z</time>
      </trkpt>
      <trkpt lat="47.45637" lon="0.82931">
        <ele>153</ele>
        <time>2011-05-01T07:35:50Z</time>
      </trkpt>
      <trkpt lat="47.45639" lon="0.82937">
        <ele>153</ele>
        <time>2011-05-01T07:35:51Z</time>
      </trkpt>
      <trkpt lat="47.45642" lon="0.82943">
        <ele>154</ele>
        <time>2011-05-01T07:35:52Z</time>
      </trkpt>
      <trkpt lat="47.45645" lon="0.82948">
        <ele>154</ele>
        <time>2011-05-01T07:35:53Z</time>
      </trkpt>
      <trkpt lat="47.45647" lon="0.82955">
        <ele>154</ele>
        <time>2011-05-01T07:35:54Z</time>
      </trkpt>
      <trkpt lat="47.45653" lon="0.82964">
        <ele>154</ele>
        <time>2011-05-01T07:35:56Z</time>
      </trkpt>
      <trkpt lat="47.45656" lon="0.8297">
        <ele>154</ele>
        <time>2011-05-01T07:35:57Z</time>
      </trkpt>
      <trkpt lat="47.45661" lon="0.8298">
        <ele>153</ele>
        <time>2011-05-01T07:35:59Z</time>
      </trkpt>
      <trkpt lat="47.45667" lon="0.8299">
        <ele>153</ele>
        <time>2011-05-01T07:36:01Z</time>
      </trkpt>
      <trkpt lat="47.45669" lon="0.82995">
        <ele>154</ele>
        <time>2011-05-01T07:36:02Z</time>
      </trkpt>
      <trkpt lat="47.45672" lon="0.83">
        <ele>154</ele>
        <time>2011-05-01T07:36:03Z</time>
      </trkpt>
      <trkpt lat="47.45675" lon="0.83006">
        <ele>154</ele>
        <time>2011-05-01T07:36:04Z</time>
      </trkpt>
      <trkpt lat="47.45678" lon="0.83011">
        <ele>154</ele>
        <time>2011-05-01T07:36:05Z</time>
      </trkpt>
      <trkpt lat="47.45682" lon="0.83015">
        <ele>154</ele>
        <time>2011-05-01T07:36:06Z</time>
      </trkpt>
      <trkpt lat="47.45688" lon="0.83026">
        <ele>154</ele>
        <time>2011-05-01T07:36:08Z</time>
      </trkpt>
      <trkpt lat="47.45691" lon="0.83031">
        <ele>154</ele>
        <time>2011-05-01T07:36:09Z</time>
      </trkpt>
      <trkpt lat="47.45694" lon="0.83036">
        <ele>154</ele>
        <time>2011-05-01T07:36:10Z</time>
      </trkpt>
      <trkpt lat="47.457" lon="0.83045">
        <ele>154</ele>
        <time>2011-05-01T07:36:12Z</time>
      </trkpt>
      <trkpt lat="47.45704" lon="0.8305">
        <ele>155</ele>
        <time>2011-05-01T07:36:13Z</time>
      </trkpt>
      <trkpt lat="47.4571" lon="0.83059">
        <ele>155</ele>
        <time>2011-05-01T07:36:15Z</time>
      </trkpt>
      <trkpt lat="47.45717" lon="0.83068">
        <ele>155</ele>
        <time>2011-05-01T07:36:17Z</time>
      </trkpt>
      <trkpt lat="47.45723" lon="0.83076">
        <ele>156</ele>
        <time>2011-05-01T07:36:19Z</time>
      </trkpt>
      <trkpt lat="47.4573" lon="0.83085">
        <ele>156</ele>
        <time>2011-05-01T07:36:21Z</time>
      </trkpt>
      <trkpt lat="47.45736" lon="0.83093">
        <ele>157</ele>
        <time>2011-05-01T07:36:23Z</time>
      </trkpt>
      <trkpt lat="47.45742" lon="0.83101">
        <ele>157</ele>
        <time>2011-05-01T07:36:25Z</time>
      </trkpt>
      <trkpt lat="47.45749" lon="0.83109">
        <ele>157</ele>
        <time>2011-05-01T07:36:27Z</time>
      </trkpt>
      <trkpt lat="47.45752" lon="0.83112">
        <ele>157</ele>
        <time>2011-05-01T07:36:28Z</time>
      </trkpt>
      <trkpt lat="47.45756" lon="0.83116">
        <ele>156</ele>
        <time>2011-05-01T07:36:29Z</time>
      </trkpt>
      <trkpt lat="47.45763" lon="0.83124">
        <ele>156</ele>
        <time>2011-05-01T07:36:31Z</time>
      </trkpt>
      <trkpt lat="47.4577" lon="0.83132">
        <ele>157</ele>
        <time>2011-05-01T07:36:33Z</time>
      </trkpt>
      <trkpt lat="47.45773" lon="0.83136">
        <ele>157</ele>
        <time>2011-05-01T07:36:34Z</time>
      </trkpt>
      <trkpt lat="47.4578" lon="0.83143">
        <ele>157</ele>
        <time>2011-05-01T07:36:36Z</time>
      </trkpt>
      <trkpt lat="47.45787" lon="0.8315">
        <ele>157</ele>
        <time>2011-05-01T07:36:38Z</time>
      </trkpt>
      <trkpt lat="47.45793" lon="0.83158">
        <ele>157</ele>
        <time>2011-05-01T07:36:40Z</time>
      </trkpt>
      <trkpt lat="47.458" lon="0.83165">
        <ele>157</ele>
        <time>2011-05-01T07:36:42Z</time>
      </trkpt>
      <trkpt lat="47.45807" lon="0.83173">
        <ele>157</ele>
        <time>2011-05-01T07:36:44Z</time>
      </trkpt>
      <trkpt lat="47.4581" lon="0.83178">
        <ele>157</ele>
        <time>2011-05-01T07:36:45Z</time>
      </trkpt>
      <trkpt lat="47.45816" lon="0.83186">
        <ele>156</ele>
        <time>2011-05-01T07:36:47Z</time>
      </trkpt>
      <trkpt lat="47.4582" lon="0.83191">
        <ele>157</ele>
        <time>2011-05-01T07:36:48Z</time>
      </trkpt>
      <trkpt lat="47.45822" lon="0.83197">
        <ele>157</ele>
        <time>2011-05-01T07:36:49Z</time>
      </trkpt>
      <trkpt lat="47.45828" lon="0.83207">
        <ele>157</ele>
        <time>2011-05-01T07:36:51Z</time>
      </trkpt>
      <trkpt lat="47.45831" lon="0.83213">
        <ele>156</ele>
        <time>2011-05-01T07:36:52Z</time>
      </trkpt>
      <trkpt lat="47.45834" lon="0.83219">
        <ele>156</ele>
        <time>2011-05-01T07:36:53Z</time>
      </trkpt>
      <trkpt lat="47.45836" lon="0.83225">
        <ele>156</ele>
        <time>2011-05-01T07:36:54Z</time>
      </trkpt>
      <trkpt lat="47.45839" lon="0.83231">
        <ele>156</ele>
        <time>2011-05-01T07:36:55Z</time>
      </trkpt>
      <trkpt lat="47.45842" lon="0.83237">
        <ele>156</ele>
        <time>2011-05-01T07:36:56Z</time>
      </trkpt>
      <trkpt lat="47.45845" lon="0.83243">
        <ele>156</ele>
        <time>2011-05-01T07:36:57Z</time>
      </trkpt>
      <trkpt lat="47.45848" lon="0.8325">
        <ele>155</ele>
        <time>2011-05-01T07:36:58Z</time>
      </trkpt>
      <trkpt lat="47.4585" lon="0.83257">
        <ele>155</ele>
        <time>2011-05-01T07:36:59Z</time>
      </trkpt>
      <trkpt lat="47.45853" lon="0.83263">
        <ele>155</ele>
        <time>2011-05-01T07:37:00Z</time>
      </trkpt>
      <trkpt lat="47.45856" lon="0.8327">
        <ele>154</ele>
        <time>2011-05-01T07:37:01Z</time>
      </trkpt>
      <trkpt lat="47.45859" lon="0.83277">
        <ele>154</ele>
        <time>2011-05-01T07:37:02Z</time>
      </trkpt>
      <trkpt lat="47.45863" lon="0.83284">
        <ele>153</ele>
        <time>2011-05-01T07:37:03Z</time>
      </trkpt>
      <trkpt lat="47.45867" lon="0.83291">
        <ele>153</ele>
        <time>2011-05-01T07:37:04Z</time>
      </trkpt>
      <trkpt lat="47.4587" lon="0.83298">
        <ele>153</ele>
        <time>2011-05-01T07:37:05Z</time>
      </trkpt>
      <trkpt lat="47.45875" lon="0.83305">
        <ele>152</ele>
        <time>2011-05-01T07:37:06Z</time>
      </trkpt>
      <trkpt lat="47.4588" lon="0.83312">
        <ele>152</ele>
        <time>2011-05-01T07:37:07Z</time>
      </trkpt>
      <trkpt lat="47.45884" lon="0.83318">
        <ele>152</ele>
        <time>2011-05-01T07:37:08Z</time>
      </trkpt>
      <trkpt lat="47.45889" lon="0.83326">
        <ele>151</ele>
        <time>2011-05-01T07:37:09Z</time>
      </trkpt>
      <trkpt lat="47.45893" lon="0.83333">
        <ele>150</ele>
        <time>2011-05-01T07:37:10Z</time>
      </trkpt>
      <trkpt lat="47.45898" lon="0.8334">
        <ele>150</ele>
        <time>2011-05-01T07:37:11Z</time>
      </trkpt>
      <trkpt lat="47.45904" lon="0.83347">
        <ele>149</ele>
        <time>2011-05-01T07:37:12Z</time>
      </trkpt>
      <trkpt lat="47.4591" lon="0.83353">
        <ele>149</ele>
        <time>2011-05-01T07:37:13Z</time>
      </trkpt>
      <trkpt lat="47.45916" lon="0.8336">
        <ele>148</ele>
        <time>2011-05-01T07:37:14Z</time>
      </trkpt>
      <trkpt lat="47.45922" lon="0.83366">
        <ele>148</ele>
        <time>2011-05-01T07:37:15Z</time>
      </trkpt>
      <trkpt lat="47.45928" lon="0.83372">
        <ele>148</ele>
        <time>2011-05-01T07:37:16Z</time>
      </trkpt>
      <trkpt lat="47.45933" lon="0.83378">
        <ele>147</ele>
        <time>2011-05-01T07:37:17Z</time>
      </trkpt>
      <trkpt lat="47.45938" lon="0.83384">
        <ele>148</ele>
        <time>2011-05-01T07:37:18Z</time>
      </trkpt>
      <trkpt lat="47.45942" lon="0.8339">
        <ele>148</ele>
        <time>2011-05-01T07:37:19Z</time>
      </trkpt>
      <trkpt lat="47.45946" lon="0.83395">
        <ele>148</ele>
        <time>2011-05-01T07:37:20Z</time>
      </trkpt>
      <trkpt lat="47.45949" lon="0.834">
        <ele>149</ele>
        <time>2011-05-01T07:37:21Z</time>
      </trkpt>
      <trkpt lat="47.45952" lon="0.83405">
        <ele>149</ele>
        <time>2011-05-01T07:37:22Z</time>
      </trkpt>
      <trkpt lat="47.45957" lon="0.83414">
        <ele>149</ele>
        <time>2011-05-01T07:37:24Z</time>
      </trkpt>
      <trkpt lat="47.45963" lon="0.83423">
        <ele>149</ele>
        <time>2011-05-01T07:37:26Z</time>
      </trkpt>
      <trkpt lat="47.45968" lon="0.83431">
        <ele>150</ele>
        <time>2011-05-01T07:37:28Z</time>
      </trkpt>
      <trkpt lat="47.45972" lon="0.83439">
        <ele>150</ele>
        <time>2011-05-01T07:37:30Z</time>
      </trkpt>
      <trkpt lat="47.45977" lon="0.83447">
        <ele>151</ele>
        <time>2011-05-01T07:37:32Z</time>
      </trkpt>
      <trkpt lat="47.45982" lon="0.83455">
        <ele>151</ele>
        <time>2011-05-01T07:37:34Z</time>
      </trkpt>
      <trkpt lat="47.45987" lon="0.83462">
        <ele>152</ele>
        <time>2011-05-01T07:37:36Z</time>
      </trkpt>
      <trkpt lat="47.45992" lon="0.8347">
        <ele>152</ele>
        <time>2011-05-01T07:37:38Z</time>
      </trkpt>
      <trkpt lat="47.45998" lon="0.83478">
        <ele>152</ele>
        <time>2011-05-01T07:37:40Z</time>
      </trkpt>
      <trkpt lat="47.46005" lon="0.83487">
        <ele>152</ele>
        <time>2011-05-01T07:37:42Z</time>
      </trkpt>
      <trkpt lat="47.46011" lon="0.83496">
        <ele>152</ele>
        <time>2011-05-01T07:37:44Z</time>
      </trkpt>
      <trkpt lat="47.46014" lon="0.83501">
        <ele>153</ele>
        <time>2011-05-01T07:37:45Z</time>
      </trkpt>
      <trkpt lat="47.4602" lon="0.8351">
        <ele>153</ele>
        <time>2011-05-01T07:37:47Z</time>
      </trkpt>
      <trkpt lat="47.46027" lon="0.83518">
        <ele>153</ele>
        <time>2011-05-01T07:37:49Z</time>
      </trkpt>
      <trkpt lat="47.4603" lon="0.83522">
        <ele>153</ele>
        <time>2011-05-01T07:37:50Z</time>
      </trkpt>
      <trkpt lat="47.46036" lon="0.8353">
        <ele>153</ele>
        <time>2011-05-01T07:37:52Z</time>
      </trkpt>
      <trkpt lat="47.4604" lon="0.83535">
        <ele>153</ele>
        <time>2011-05-01T07:37:53Z</time>
      </trkpt>
      <trkpt lat="47.46047" lon="0.83543">
        <ele>153</ele>
        <time>2011-05-01T07:37:55Z</time>
      </trkpt>
      <trkpt lat="47.46054" lon="0.83551">
        <ele>153</ele>
        <time>2011-05-01T07:37:57Z</time>
      </trkpt>
      <trkpt lat="47.4606" lon="0.8356">
        <ele>153</ele>
        <time>2011-05-01T07:37:59Z</time>
      </trkpt>
      <trkpt lat="47.46064" lon="0.83565">
        <ele>153</ele>
        <time>2011-05-01T07:38:00Z</time>
      </trkpt>
      <trkpt lat="47.46067" lon="0.83569">
        <ele>153</ele>
        <time>2011-05-01T07:38:01Z</time>
      </trkpt>
      <trkpt lat="47.46074" lon="0.83577">
        <ele>152</ele>
        <time>2011-05-01T07:38:03Z</time>
      </trkpt>
      <trkpt lat="47.46078" lon="0.83581">
        <ele>152</ele>
        <time>2011-05-01T07:38:04Z</time>
      </trkpt>
      <trkpt lat="47.46081" lon="0.83586">
        <ele>152</ele>
        <time>2011-05-01T07:38:05Z</time>
      </trkpt>
      <trkpt lat="47.46085" lon="0.8359">
        <ele>152</ele>
        <time>2011-05-01T07:38:06Z</time>
      </trkpt>
      <trkpt lat="47.46092" lon="0.83598">
        <ele>152</ele>
        <time>2011-05-01T07:38:08Z</time>
      </trkpt>
      <trkpt lat="47.46096" lon="0.83602">
        <ele>152</ele>
        <time>2011-05-01T07:38:09Z</time>
      </trkpt>
      <trkpt lat="47.46102" lon="0.83608">
        <ele>152</ele>
        <time>2011-05-01T07:38:11Z</time>
      </trkpt>
      <trkpt lat="47.46109" lon="0.83615">
        <ele>152</ele>
        <time>2011-05-01T07:38:13Z</time>
      </trkpt>
      <trkpt lat="47.46114" lon="0.83621">
        <ele>152</ele>
        <time>2011-05-01T07:38:15Z</time>
      </trkpt>
      <trkpt lat="47.4612" lon="0.83628">
        <ele>152</ele>
        <time>2011-05-01T07:38:17Z</time>
      </trkpt>
      <trkpt lat="47.46126" lon="0.83635">
        <ele>152</ele>
        <time>2011-05-01T07:38:19Z</time>
      </trkpt>
      <trkpt lat="47.46133" lon="0.83641">
        <ele>152</ele>
        <time>2011-05-01T07:38:21Z</time>
      </trkpt>
      <trkpt lat="47.46141" lon="0.83648">
        <ele>151</ele>
        <time>2011-05-01T07:38:23Z</time>
      </trkpt>
      <trkpt lat="47.46148" lon="0.83655">
        <ele>151</ele>
        <time>2011-05-01T07:38:25Z</time>
      </trkpt>
      <trkpt lat="47.46155" lon="0.83663">
        <ele>151</ele>
        <time>2011-05-01T07:38:27Z</time>
      </trkpt>
      <trkpt lat="47.46159" lon="0.83667">
        <ele>151</ele>
        <time>2011-05-01T07:38:28Z</time>
      </trkpt>
      <trkpt lat="47.46163" lon="0.83671">
        <ele>151</ele>
        <time>2011-05-01T07:38:29Z</time>
      </trkpt>
      <trkpt lat="47.46168" lon="0.83675">
        <ele>151</ele>
        <time>2011-05-01T07:38:30Z</time>
      </trkpt>
      <trkpt lat="47.46172" lon="0.83679">
        <ele>151</ele>
        <time>2011-05-01T07:38:31Z</time>
      </trkpt>
      <trkpt lat="47.46176" lon="0.83682">
        <ele>151</ele>
        <time>2011-05-01T07:38:32Z</time>
      </trkpt>
      <trkpt lat="47.46181" lon="0.83686">
        <ele>151</ele>
        <time>2011-05-01T07:38:33Z</time>
      </trkpt>
      <trkpt lat="47.46185" lon="0.8369">
        <ele>151</ele>
        <time>2011-05-01T07:38:34Z</time>
      </trkpt>
      <trkpt lat="47.46191" lon="0.83694">
        <ele>151</ele>
        <time>2011-05-01T07:38:35Z</time>
      </trkpt>
      <trkpt lat="47.46196" lon="0.83698">
        <ele>152</ele>
        <time>2011-05-01T07:38:36Z</time>
      </trkpt>
      <trkpt lat="47.46202" lon="0.83703">
        <ele>153</ele>
        <time>2011-05-01T07:38:37Z</time>
      </trkpt>
      <trkpt lat="47.46207" lon="0.83706">
        <ele>153</ele>
        <time>2011-05-01T07:38:38Z</time>
      </trkpt>
      <trkpt lat="47.46212" lon="0.8371">
        <ele>153</ele>
        <time>2011-05-01T07:38:39Z</time>
      </trkpt>
      <trkpt lat="47.46217" lon="0.83714">
        <ele>153</ele>
        <time>2011-05-01T07:38:40Z</time>
      </trkpt>
      <trkpt lat="47.46222" lon="0.83717">
        <ele>153</ele>
        <time>2011-05-01T07:38:41Z</time>
      </trkpt>
      <trkpt lat="47.46228" lon="0.8372">
        <ele>152</ele>
        <time>2011-05-01T07:38:42Z</time>
      </trkpt>
      <trkpt lat="47.46234" lon="0.83723">
        <ele>152</ele>
        <time>2011-05-01T07:38:43Z</time>
      </trkpt>
      <trkpt lat="47.46241" lon="0.83725">
        <ele>152</ele>
        <time>2011-05-01T07:38:44Z</time>
      </trkpt>
      <trkpt lat="47.46247" lon="0.83726">
        <ele>152</ele>
        <time>2011-05-01T07:38:45Z</time>
      </trkpt>
      <trkpt lat="47.46252" lon="0.83728">
        <ele>152</ele>
        <time>2011-05-01T07:38:46Z</time>
      </trkpt>
      <trkpt lat="47.46258" lon="0.8373">
        <ele>152</ele>
        <time>2011-05-01T07:38:47Z</time>
      </trkpt>
      <trkpt lat="47.46264" lon="0.83733">
        <ele>152</ele>
        <time>2011-05-01T07:38:48Z</time>
      </trkpt>
      <trkpt lat="47.4627" lon="0.83734">
        <ele>152</ele>
        <time>2011-05-01T07:38:49Z</time>
      </trkpt>
      <trkpt lat="47.46277" lon="0.83738">
        <ele>152</ele>
        <time>2011-05-01T07:38:50Z</time>
      </trkpt>
      <trkpt lat="47.46283" lon="0.83741">
        <ele>152</ele>
        <time>2011-05-01T07:38:51Z</time>
      </trkpt>
      <trkpt lat="47.46291" lon="0.83744">
        <ele>152</ele>
        <time>2011-05-01T07:38:52Z</time>
      </trkpt>
      <trkpt lat="47.46301" lon="0.83748">
        <ele>151</ele>
        <time>2011-05-01T07:38:53Z</time>
      </trkpt>
      <trkpt lat="47.46308" lon="0.83754">
        <ele>149</ele>
        <time>2011-05-01T07:38:54Z</time>
      </trkpt>
      <trkpt lat="47.46316" lon="0.83757">
        <ele>148</ele>
        <time>2011-05-01T07:38:55Z</time>
      </trkpt>
      <trkpt lat="47.46323" lon="0.83761">
        <ele>148</ele>
        <time>2011-05-01T07:38:56Z</time>
      </trkpt>
      <trkpt lat="47.4633" lon="0.83767">
        <ele>148</ele>
        <time>2011-05-01T07:38:57Z</time>
      </trkpt>
      <trkpt lat="47.46337" lon="0.83772">
        <ele>147</ele>
        <time>2011-05-01T07:38:58Z</time>
      </trkpt>
      <trkpt lat="47.46343" lon="0.83778">
        <ele>146</ele>
        <time>2011-05-01T07:38:59Z</time>
      </trkpt>
      <trkpt lat="47.4635" lon="0.83783">
        <ele>146</ele>
        <time>2011-05-01T07:39:00Z</time>
      </trkpt>
      <trkpt lat="47.46357" lon="0.83787">
        <ele>146</ele>
        <time>2011-05-01T07:39:01Z</time>
      </trkpt>
      <trkpt lat="47.46364" lon="0.83791">
        <ele>145</ele>
        <time>2011-05-01T07:39:02Z</time>
      </trkpt>
      <trkpt lat="47.4637" lon="0.83795">
        <ele>144</ele>
        <time>2011-05-01T07:39:03Z</time>
      </trkpt>
      <trkpt lat="47.46377" lon="0.83799">
        <ele>144</ele>
        <time>2011-05-01T07:39:04Z</time>
      </trkpt>
      <trkpt lat="47.46384" lon="0.83799">
        <ele>143</ele>
        <time>2011-05-01T07:39:05Z</time>
      </trkpt>
      <trkpt lat="47.46392" lon="0.83799">
        <ele>143</ele>
        <time>2011-05-01T07:39:06Z</time>
      </trkpt>
      <trkpt lat="47.464" lon="0.838">
        <ele>142</ele>
        <time>2011-05-01T07:39:07Z</time>
      </trkpt>
      <trkpt lat="47.46408" lon="0.83799">
        <ele>141</ele>
        <time>2011-05-01T07:39:08Z</time>
      </trkpt>
      <trkpt lat="47.46416" lon="0.83799">
        <ele>141</ele>
        <time>2011-05-01T07:39:09Z</time>
      </trkpt>
      <trkpt lat="47.46424" lon="0.838">
        <ele>140</ele>
        <time>2011-05-01T07:39:10Z</time>
      </trkpt>
      <trkpt lat="47.46433" lon="0.83799">
        <ele>139</ele>
        <time>2011-05-01T07:39:11Z</time>
      </trkpt>
      <trkpt lat="47.46441" lon="0.83798">
        <ele>139</ele>
        <time>2011-05-01T07:39:12Z</time>
      </trkpt>
      <trkpt lat="47.46449" lon="0.83797">
        <ele>139</ele>
        <time>2011-05-01T07:39:13Z</time>
      </trkpt>
      <trkpt lat="47.46457" lon="0.83797">
        <ele>139</ele>
        <time>2011-05-01T07:39:14Z</time>
      </trkpt>
      <trkpt lat="47.46464" lon="0.83797">
        <ele>139</ele>
        <time>2011-05-01T07:39:15Z</time>
      </trkpt>
      <trkpt lat="47.46471" lon="0.83798">
        <ele>138</ele>
        <time>2011-05-01T07:39:16Z</time>
      </trkpt>
      <trkpt lat="47.46478" lon="0.83798">
        <ele>138</ele>
        <time>2011-05-01T07:39:17Z</time>
      </trkpt>
      <trkpt lat="47.46484" lon="0.83798">
        <ele>137</ele>
        <time>2011-05-01T07:39:18Z</time>
      </trkpt>
      <trkpt lat="47.46491" lon="0.83799">
        <ele>137</ele>
        <time>2011-05-01T07:39:19Z</time>
      </trkpt>
      <trkpt lat="47.46497" lon="0.83799">
        <ele>137</ele>
        <time>2011-05-01T07:39:20Z</time>
      </trkpt>
      <trkpt lat="47.46503" lon="0.83798">
        <ele>136</ele>
        <time>2011-05-01T07:39:21Z</time>
      </trkpt>
      <trkpt lat="47.46509" lon="0.83799">
        <ele>136</ele>
        <time>2011-05-01T07:39:22Z</time>
      </trkpt>
      <trkpt lat="47.46515" lon="0.83798">
        <ele>136</ele>
        <time>2011-05-01T07:39:23Z</time>
      </trkpt>
      <trkpt lat="47.4652" lon="0.83799">
        <ele>136</ele>
        <time>2011-05-01T07:39:24Z</time>
      </trkpt>
      <trkpt lat="47.46526" lon="0.83799">
        <ele>136</ele>
        <time>2011-05-01T07:39:25Z</time>
      </trkpt>
      <trkpt lat="47.46534" lon="0.83803">
        <ele>136</ele>
        <time>2011-05-01T07:39:27Z</time>
      </trkpt>
      <trkpt lat="47.46537" lon="0.83812">
        <ele>136</ele>
        <time>2011-05-01T07:39:29Z</time>
      </trkpt>
      <trkpt lat="47.46533" lon="0.83823">
        <ele>136</ele>
        <time>2011-05-01T07:39:31Z</time>
      </trkpt>
      <trkpt lat="47.46529" lon="0.83829">
        <ele>136</ele>
        <time>2011-05-01T07:39:32Z</time>
      </trkpt>
      <trkpt lat="47.46526" lon="0.83835">
        <ele>136</ele>
        <time>2011-05-01T07:39:33Z</time>
      </trkpt>
      <trkpt lat="47.46522" lon="0.8384">
        <ele>137</ele>
        <time>2011-05-01T07:39:34Z</time>
      </trkpt>
      <trkpt lat="47.46519" lon="0.83846">
        <ele>137</ele>
        <time>2011-05-01T07:39:35Z</time>
      </trkpt>
      <trkpt lat="47.46515" lon="0.83852">
        <ele>136</ele>
        <time>2011-05-01T07:39:36Z</time>
      </trkpt>
      <trkpt lat="47.46513" lon="0.83859">
        <ele>136</ele>
        <time>2011-05-01T07:39:37Z</time>
      </trkpt>
      <trkpt lat="47.46509" lon="0.83865">
        <ele>136</ele>
        <time>2011-05-01T07:39:38Z</time>
      </trkpt>
      <trkpt lat="47.46503" lon="0.83873">
        <ele>135</ele>
        <time>2011-05-01T07:39:40Z</time>
      </trkpt>
      <trkpt lat="47.46498" lon="0.8388">
        <ele>135</ele>
        <time>2011-05-01T07:39:42Z</time>
      </trkpt>
      <trkpt lat="47.46491" lon="0.8389">
        <ele>135</ele>
        <time>2011-05-01T07:39:44Z</time>
      </trkpt>
      <trkpt lat="47.46485" lon="0.83897">
        <ele>136</ele>
        <time>2011-05-01T07:39:46Z</time>
      </trkpt>
      <trkpt lat="47.46478" lon="0.83903">
        <ele>136</ele>
        <time>2011-05-01T07:39:48Z</time>
      </trkpt>
      <trkpt lat="47.46472" lon="0.83911">
        <ele>136</ele>
        <time>2011-05-01T07:39:50Z</time>
      </trkpt>
      <trkpt lat="47.46466" lon="0.83919">
        <ele>137</ele>
        <time>2011-05-01T07:39:52Z</time>
      </trkpt>
      <trkpt lat="47.4646" lon="0.83926">
        <ele>137</ele>
        <time>2011-05-01T07:39:54Z</time>
      </trkpt>
      <trkpt lat="47.46453" lon="0.83933">
        <ele>136</ele>
        <time>2011-05-01T07:39:56Z</time>
      </trkpt>
      <trkpt lat="47.46446" lon="0.8394">
        <ele>136</ele>
        <time>2011-05-01T07:39:58Z</time>
      </trkpt>
      <trkpt lat="47.4644" lon="0.83948">
        <ele>136</ele>
        <time>2011-05-01T07:40:00Z</time>
      </trkpt>
      <trkpt lat="47.46433" lon="0.83956">
        <ele>136</ele>
        <time>2011-05-01T07:40:02Z</time>
      </trkpt>
      <trkpt lat="47.46431" lon="0.83963">
        <ele>136</ele>
        <time>2011-05-01T07:40:04Z</time>
      </trkpt>
      <trkpt lat="47.4643" lon="0.83971">
        <ele>136</ele>
        <time>2011-05-01T07:40:06Z</time>
      </trkpt>
      <trkpt lat="47.46433" lon="0.83977">
        <ele>136</ele>
        <time>2011-05-01T07:40:09Z</time>
      </trkpt>
      <trkpt lat="47.46439" lon="0.83978">
        <ele>136</ele>
        <time>2011-05-01T07:40:11Z</time>
      </trkpt>
      <trkpt lat="47.46446" lon="0.8398">
        <ele>136</ele>
        <time>2011-05-01T07:40:13Z</time>
      </trkpt>
      <trkpt lat="47.46451" lon="0.83984">
        <ele>136</ele>
        <time>2011-05-01T07:40:15Z</time>
      </trkpt>
      <trkpt lat="47.46457" lon="0.83988">
        <ele>136</ele>
        <time>2011-05-01T07:40:17Z</time>
      </trkpt>
      <trkpt lat="47.46462" lon="0.83992">
        <ele>136</ele>
        <time>2011-05-01T07:40:19Z</time>
      </trkpt>
      <trkpt lat="47.46466" lon="0.83996">
        <ele>137</ele>
        <time>2011-05-01T07:40:21Z</time>
      </trkpt>
      <trkpt lat="47.46474" lon="0.83998">
        <ele>137</ele>
        <time>2011-05-01T07:40:23Z</time>
      </trkpt>
      <trkpt lat="47.46479" lon="0.84001">
        <ele>137</ele>
        <time>2011-05-01T07:40:25Z</time>
      </trkpt>
      <trkpt lat="47.46486" lon="0.84006">
        <ele>137</ele>
        <time>2011-05-01T07:40:27Z</time>
      </trkpt>
      <trkpt lat="47.46492" lon="0.84012">
        <ele>137</ele>
        <time>2011-05-01T07:40:29Z</time>
      </trkpt>
      <trkpt lat="47.46494" lon="0.84018">
        <ele>138</ele>
        <time>2011-05-01T07:40:31Z</time>
      </trkpt>
      <trkpt lat="47.46497" lon="0.84023">
        <ele>138</ele>
        <time>2011-05-01T07:40:33Z</time>
      </trkpt>
      <trkpt lat="47.46502" lon="0.84031">
        <ele>138</ele>
        <time>2011-05-01T07:40:36Z</time>
      </trkpt>
      <trkpt lat="47.46503" lon="0.84038">
        <ele>138</ele>
        <time>2011-05-01T07:40:39Z</time>
      </trkpt>
      <trkpt lat="47.46501" lon="0.84045">
        <ele>139</ele>
        <time>2011-05-01T07:40:41Z</time>
      </trkpt>
      <trkpt lat="47.465" lon="0.84053">
        <ele>139</ele>
        <time>2011-05-01T07:40:43Z</time>
      </trkpt>
      <trkpt lat="47.465" lon="0.84061">
        <ele>138</ele>
        <time>2011-05-01T07:40:45Z</time>
      </trkpt>
      <trkpt lat="47.46501" lon="0.84068">
        <ele>138</ele>
        <time>2011-05-01T07:40:47Z</time>
      </trkpt>
      <trkpt lat="47.46502" lon="0.84075">
        <ele>138</ele>
        <time>2011-05-01T07:40:49Z</time>
      </trkpt>
      <trkpt lat="47.46506" lon="0.84079">
        <ele>137</ele>
        <time>2011-05-01T07:40:50Z</time>
      </trkpt>
      <trkpt lat="47.46509" lon="0.84089">
        <ele>138</ele>
        <time>2011-05-01T07:40:52Z</time>
      </trkpt>
      <trkpt lat="47.4651" lon="0.84096">
        <ele>138</ele>
        <time>2011-05-01T07:40:54Z</time>
      </trkpt>
      <trkpt lat="47.46508" lon="0.84104">
        <ele>137</ele>
        <time>2011-05-01T07:40:56Z</time>
      </trkpt>
      <trkpt lat="47.46507" lon="0.84116">
        <ele>138</ele>
        <time>2011-05-01T07:40:59Z</time>
      </trkpt>
      <trkpt lat="47.46507" lon="0.84123">
        <ele>139</ele>
        <time>2011-05-01T07:41:01Z</time>
      </trkpt>
      <trkpt lat="47.46508" lon="0.84133">
        <ele>140</ele>
        <time>2011-05-01T07:41:04Z</time>
      </trkpt>
      <trkpt lat="47.4651" lon="0.84142">
        <ele>141</ele>
        <time>2011-05-01T07:41:06Z</time>
      </trkpt>
      <trkpt lat="47.46513" lon="0.84151">
        <ele>141</ele>
        <time>2011-05-01T07:41:08Z</time>
      </trkpt>
      <trkpt lat="47.46515" lon="0.84158">
        <ele>142</ele>
        <time>2011-05-01T07:41:10Z</time>
      </trkpt>
      <trkpt lat="47.46518" lon="0.84167">
        <ele>142</ele>
        <time>2011-05-01T07:41:12Z</time>
      </trkpt>
      <trkpt lat="47.46519" lon="0.84174">
        <ele>142</ele>
        <time>2011-05-01T07:41:14Z</time>
      </trkpt>
      <trkpt lat="47.46521" lon="0.8418">
        <ele>143</ele>
        <time>2011-05-01T07:41:16Z</time>
      </trkpt>
      <trkpt lat="47.46522" lon="0.84188">
        <ele>145</ele>
        <time>2011-05-01T07:41:19Z</time>
      </trkpt>
      <trkpt lat="47.46522" lon="0.84196">
        <ele>147</ele>
        <time>2011-05-01T07:41:22Z</time>
      </trkpt>
      <trkpt lat="47.46523" lon="0.84205">
        <ele>149</ele>
        <time>2011-05-01T07:41:26Z</time>
      </trkpt>
      <trkpt lat="47.46527" lon="0.84211">
        <ele>151</ele>
        <time>2011-05-01T07:41:29Z</time>
      </trkpt>
      <trkpt lat="47.46529" lon="0.84219">
        <ele>150</ele>
        <time>2011-05-01T07:41:32Z</time>
      </trkpt>
      <trkpt lat="47.46531" lon="0.84228">
        <ele>151</ele>
        <time>2011-05-01T07:41:35Z</time>
      </trkpt>
      <trkpt lat="47.46536" lon="0.84234">
        <ele>152</ele>
        <time>2011-05-01T07:41:39Z</time>
      </trkpt>
      <trkpt lat="47.4654" lon="0.84241">
        <ele>152</ele>
        <time>2011-05-01T07:41:42Z</time>
      </trkpt>
      <trkpt lat="47.46542" lon="0.84246">
        <ele>152</ele>
        <time>2011-05-01T07:41:45Z</time>
      </trkpt>
      <trkpt lat="47.46546" lon="0.84251">
        <ele>152</ele>
        <time>2011-05-01T07:41:48Z</time>
      </trkpt>
      <trkpt lat="47.46549" lon="0.84257">
        <ele>153</ele>
        <time>2011-05-01T07:41:51Z</time>
      </trkpt>
      <trkpt lat="47.46554" lon="0.84262">
        <ele>152</ele>
        <time>2011-05-01T07:41:53Z</time>
      </trkpt>
      <trkpt lat="47.46557" lon="0.84271">
        <ele>151</ele>
        <time>2011-05-01T07:41:56Z</time>
      </trkpt>
      <trkpt lat="47.4656" lon="0.84277">
        <ele>152</ele>
        <time>2011-05-01T07:41:59Z</time>
      </trkpt>
      <trkpt lat="47.46562" lon="0.84285">
        <ele>152</ele>
        <time>2011-05-01T07:42:02Z</time>
      </trkpt>
      <trkpt lat="47.46563" lon="0.84292">
        <ele>153</ele>
        <time>2011-05-01T07:42:04Z</time>
      </trkpt>
      <trkpt lat="47.46564" lon="0.84299">
        <ele>153</ele>
        <time>2011-05-01T07:42:06Z</time>
      </trkpt>
      <trkpt lat="47.46564" lon="0.84307">
        <ele>153</ele>
        <time>2011-05-01T07:42:09Z</time>
      </trkpt>
      <trkpt lat="47.46566" lon="0.84315">
        <ele>155</ele>
        <time>2011-05-01T07:42:12Z</time>
      </trkpt>
      <trkpt lat="47.46566" lon="0.84323">
        <ele>156</ele>
        <time>2011-05-01T07:42:15Z</time>
      </trkpt>
      <trkpt lat="47.46561" lon="0.8433">
        <ele>152</ele>
        <time>2011-05-01T07:42:17Z</time>
      </trkpt>
      <trkpt lat="47.46558" lon="0.84335">
        <ele>151</ele>
        <time>2011-05-01T07:42:19Z</time>
      </trkpt>
      <trkpt lat="47.46554" lon="0.84341">
        <ele>150</ele>
        <time>2011-05-01T07:42:22Z</time>
      </trkpt>
      <trkpt lat="47.4655" lon="0.84345">
        <ele>151</ele>
        <time>2011-05-01T07:42:25Z</time>
      </trkpt>
      <trkpt lat="47.46546" lon="0.8435">
        <ele>151</ele>
        <time>2011-05-01T07:42:29Z</time>
      </trkpt>
      <trkpt lat="47.46542" lon="0.84355">
        <ele>151</ele>
        <time>2011-05-01T07:42:32Z</time>
      </trkpt>
      <trkpt lat="47.46537" lon="0.8436">
        <ele>153</ele>
        <time>2011-05-01T07:42:36Z</time>
      </trkpt>
      <trkpt lat="47.46532" lon="0.84364">
        <ele>153</ele>
        <time>2011-05-01T07:42:38Z</time>
      </trkpt>
      <trkpt lat="47.46527" lon="0.84367">
        <ele>154</ele>
        <time>2011-05-01T07:42:40Z</time>
      </trkpt>
      <trkpt lat="47.46524" lon="0.84373">
        <ele>154</ele>
        <time>2011-05-01T07:42:42Z</time>
      </trkpt>
      <trkpt lat="47.4652" lon="0.84378">
        <ele>155</ele>
        <time>2011-05-01T07:42:44Z</time>
      </trkpt>
      <trkpt lat="47.46515" lon="0.84383">
        <ele>156</ele>
        <time>2011-05-01T07:42:46Z</time>
      </trkpt>
      <trkpt lat="47.46512" lon="0.84387">
        <ele>157</ele>
        <time>2011-05-01T07:42:48Z</time>
      </trkpt>
      <trkpt lat="47.46505" lon="0.84392">
        <ele>159</ele>
        <time>2011-05-01T07:42:51Z</time>
      </trkpt>
      <trkpt lat="47.46499" lon="0.84397">
        <ele>159</ele>
        <time>2011-05-01T07:42:54Z</time>
      </trkpt>
      <trkpt lat="47.46494" lon="0.84403">
        <ele>157</ele>
        <time>2011-05-01T07:42:56Z</time>
      </trkpt>
      <trkpt lat="47.46488" lon="0.8441">
        <ele>157</ele>
        <time>2011-05-01T07:42:59Z</time>
      </trkpt>
      <trkpt lat="47.46482" lon="0.84415">
        <ele>157</ele>
        <time>2011-05-01T07:43:02Z</time>
      </trkpt>
      <trkpt lat="47.46478" lon="0.84419">
        <ele>157</ele>
        <time>2011-05-01T07:43:04Z</time>
      </trkpt>
      <trkpt lat="47.46474" lon="0.84425">
        <ele>158</ele>
        <time>2011-05-01T07:43:07Z</time>
      </trkpt>
      <trkpt lat="47.46471" lon="0.84436">
        <ele>160</ele>
        <time>2011-05-01T07:43:10Z</time>
      </trkpt>
      <trkpt lat="47.46469" lon="0.84442">
        <ele>160</ele>
        <time>2011-05-01T07:43:12Z</time>
      </trkpt>
      <trkpt lat="47.46468" lon="0.84453">
        <ele>161</ele>
        <time>2011-05-01T07:43:15Z</time>
      </trkpt>
      <trkpt lat="47.46468" lon="0.84462">
        <ele>160</ele>
        <time>2011-05-01T07:43:17Z</time>
      </trkpt>
      <trkpt lat="47.46468" lon="0.8447">
        <ele>160</ele>
        <time>2011-05-01T07:43:19Z</time>
      </trkpt>
      <trkpt lat="47.46467" lon="0.84477">
        <ele>160</ele>
        <time>2011-05-01T07:43:21Z</time>
      </trkpt>
      <trkpt lat="47.46467" lon="0.84484">
        <ele>159</ele>
        <time>2011-05-01T07:43:23Z</time>
      </trkpt>
      <trkpt lat="47.46466" lon="0.84491">
        <ele>159</ele>
        <time>2011-05-01T07:43:25Z</time>
      </trkpt>
      <trkpt lat="47.46465" lon="0.84499">
        <ele>159</ele>
        <time>2011-05-01T07:43:27Z</time>
      </trkpt>
      <trkpt lat="47.46462" lon="0.84506">
        <ele>160</ele>
        <time>2011-05-01T07:43:29Z</time>
      </trkpt>
      <trkpt lat="47.46456" lon="0.84511">
        <ele>160</ele>
        <time>2011-05-01T07:43:31Z</time>
      </trkpt>
      <trkpt lat="47.46452" lon="0.84516">
        <ele>160</ele>
        <time>2011-05-01T07:43:33Z</time>
      </trkpt>
      <trkpt lat="47.4645" lon="0.84523">
        <ele>161</ele>
        <time>2011-05-01T07:46:02Z</time>
      </trkpt>
      <trkpt lat="47.46446" lon="0.84527">
        <ele>162</ele>
        <time>2011-05-01T07:46:37Z</time>
      </trkpt>
      <trkpt lat="47.46441" lon="0.84528">
        <ele>162</ele>
        <time>2011-05-01T07:46:40Z</time>
      </trkpt>
      <trkpt lat="47.46434" lon="0.84528">
        <ele>162</ele>
        <time>2011-05-01T07:46:43Z</time>
      </trkpt>
      <trkpt lat="47.46429" lon="0.84529">
        <ele>161</ele>
        <time>2011-05-01T07:46:45Z</time>
      </trkpt>
      <trkpt lat="47.46424" lon="0.84529">
        <ele>161</ele>
        <time>2011-05-01T07:46:47Z</time>
      </trkpt>
      <trkpt lat="47.46418" lon="0.84529">
        <ele>161</ele>
        <time>2011-05-01T07:46:49Z</time>
      </trkpt>
      <trkpt lat="47.46412" lon="0.8453">
        <ele>161</ele>
        <time>2011-05-01T07:46:51Z</time>
      </trkpt>
      <trkpt lat="47.46405" lon="0.84531">
        <ele>161</ele>
        <time>2011-05-01T07:46:53Z</time>
      </trkpt>
      <trkpt lat="47.46398" lon="0.84531">
        <ele>161</ele>
        <time>2011-05-01T07:46:55Z</time>
      </trkpt>
      <trkpt lat="47.46391" lon="0.84532">
        <ele>161</ele>
        <time>2011-05-01T07:46:57Z</time>
      </trkpt>
      <trkpt lat="47.46385" lon="0.84534">
        <ele>160</ele>
        <time>2011-05-01T07:46:59Z</time>
      </trkpt>
      <trkpt lat="47.46378" lon="0.84536">
        <ele>160</ele>
        <time>2011-05-01T07:47:01Z</time>
      </trkpt>
      <trkpt lat="47.46371" lon="0.84536">
        <ele>161</ele>
        <time>2011-05-01T07:47:03Z</time>
      </trkpt>
      <trkpt lat="47.46364" lon="0.84537">
        <ele>161</ele>
        <time>2011-05-01T07:47:05Z</time>
      </trkpt>
      <trkpt lat="47.46357" lon="0.84538">
        <ele>161</ele>
        <time>2011-05-01T07:47:07Z</time>
      </trkpt>
      <trkpt lat="47.46349" lon="0.84539">
        <ele>161</ele>
        <time>2011-05-01T07:47:09Z</time>
      </trkpt>
      <trkpt lat="47.46341" lon="0.84542">
        <ele>160</ele>
        <time>2011-05-01T07:47:11Z</time>
      </trkpt>
      <trkpt lat="47.46334" lon="0.84543">
        <ele>160</ele>
        <time>2011-05-01T07:47:13Z</time>
      </trkpt>
      <trkpt lat="47.46326" lon="0.84544">
        <ele>160</ele>
        <time>2011-05-01T07:47:15Z</time>
      </trkpt>
      <trkpt lat="47.46318" lon="0.84545">
        <ele>160</ele>
        <time>2011-05-01T07:47:17Z</time>
      </trkpt>
      <trkpt lat="47.4631" lon="0.84546">
        <ele>160</ele>
        <time>2011-05-01T07:47:19Z</time>
      </trkpt>
      <trkpt lat="47.46301" lon="0.84547">
        <ele>160</ele>
        <time>2011-05-01T07:47:21Z</time>
      </trkpt>
      <trkpt lat="47.46296" lon="0.84547">
        <ele>160</ele>
        <time>2011-05-01T07:47:22Z</time>
      </trkpt>
      <trkpt lat="47.46288" lon="0.84548">
        <ele>160</ele>
        <time>2011-05-01T07:47:24Z</time>
      </trkpt>
      <trkpt lat="47.4628" lon="0.84548">
        <ele>160</ele>
        <time>2011-05-01T07:47:26Z</time>
      </trkpt>
      <trkpt lat="47.46272" lon="0.8455">
        <ele>160</ele>
        <time>2011-05-01T07:47:28Z</time>
      </trkpt>
      <trkpt lat="47.46265" lon="0.84555">
        <ele>160</ele>
        <time>2011-05-01T07:47:30Z</time>
      </trkpt>
      <trkpt lat="47.46265" lon="0.84563">
        <ele>160</ele>
        <time>2011-05-01T07:47:31Z</time>
      </trkpt>
      <trkpt lat="47.46265" lon="0.84573">
        <ele>160</ele>
        <time>2011-05-01T07:47:33Z</time>
      </trkpt>
      <trkpt lat="47.46268" lon="0.84581">
        <ele>160</ele>
        <time>2011-05-01T07:47:35Z</time>
      </trkpt>
      <trkpt lat="47.46271" lon="0.84589">
        <ele>161</ele>
        <time>2011-05-01T07:47:37Z</time>
      </trkpt>
      <trkpt lat="47.46275" lon="0.84597">
        <ele>160</ele>
        <time>2011-05-01T07:47:39Z</time>
      </trkpt>
      <trkpt lat="47.46279" lon="0.84606">
        <ele>159</ele>
        <time>2011-05-01T07:47:41Z</time>
      </trkpt>
      <trkpt lat="47.46282" lon="0.84616">
        <ele>159</ele>
        <time>2011-05-01T07:47:43Z</time>
      </trkpt>
      <trkpt lat="47.46287" lon="0.84626">
        <ele>159</ele>
        <time>2011-05-01T07:47:45Z</time>
      </trkpt>
      <trkpt lat="47.46292" lon="0.84636">
        <ele>159</ele>
        <time>2011-05-01T07:47:47Z</time>
      </trkpt>
      <trkpt lat="47.46296" lon="0.84646">
        <ele>159</ele>
        <time>2011-05-01T07:47:49Z</time>
      </trkpt>
      <trkpt lat="47.46299" lon="0.84651">
        <ele>160</ele>
        <time>2011-05-01T07:47:50Z</time>
      </trkpt>
      <trkpt lat="47.46302" lon="0.84656">
        <ele>159</ele>
        <time>2011-05-01T07:47:51Z</time>
      </trkpt>
      <trkpt lat="47.46308" lon="0.84666">
        <ele>159</ele>
        <time>2011-05-01T07:47:53Z</time>
      </trkpt>
      <trkpt lat="47.46314" lon="0.84675">
        <ele>159</ele>
        <time>2011-05-01T07:47:55Z</time>
      </trkpt>
      <trkpt lat="47.4632" lon="0.84684">
        <ele>159</ele>
        <time>2011-05-01T07:47:57Z</time>
      </trkpt>
      <trkpt lat="47.46323" lon="0.84689">
        <ele>160</ele>
        <time>2011-05-01T07:47:58Z</time>
      </trkpt>
      <trkpt lat="47.4633" lon="0.84697">
        <ele>160</ele>
        <time>2011-05-01T07:48:00Z</time>
      </trkpt>
      <trkpt lat="47.46336" lon="0.84705">
        <ele>159</ele>
        <time>2011-05-01T07:48:02Z</time>
      </trkpt>
      <trkpt lat="47.4634" lon="0.84714">
        <ele>160</ele>
        <time>2011-05-01T07:48:04Z</time>
      </trkpt>
      <trkpt lat="47.46342" lon="0.84721">
        <ele>159</ele>
        <time>2011-05-01T07:48:06Z</time>
      </trkpt>
      <trkpt lat="47.46338" lon="0.84726">
        <ele>159</ele>
        <time>2011-05-01T07:48:08Z</time>
      </trkpt>
      <trkpt lat="47.46333" lon="0.84728">
        <ele>158</ele>
        <time>2011-05-01T07:48:10Z</time>
      </trkpt>
      <trkpt lat="47.46326" lon="0.8473">
        <ele>158</ele>
        <time>2011-05-01T07:48:12Z</time>
      </trkpt>
      <trkpt lat="47.46318" lon="0.84734">
        <ele>158</ele>
        <time>2011-05-01T07:48:14Z</time>
      </trkpt>
      <trkpt lat="47.46311" lon="0.84736">
        <ele>158</ele>
        <time>2011-05-01T07:48:16Z</time>
      </trkpt>
      <trkpt lat="47.46303" lon="0.84738">
        <ele>158</ele>
        <time>2011-05-01T07:48:18Z</time>
      </trkpt>
      <trkpt lat="47.46295" lon="0.84741">
        <ele>158</ele>
        <time>2011-05-01T07:48:20Z</time>
      </trkpt>
      <trkpt lat="47.46291" lon="0.84744">
        <ele>158</ele>
        <time>2011-05-01T07:48:21Z</time>
      </trkpt>
      <trkpt lat="47.46283" lon="0.84746">
        <ele>158</ele>
        <time>2011-05-01T07:48:23Z</time>
      </trkpt>
      <trkpt lat="47.46278" lon="0.84746">
        <ele>158</ele>
        <time>2011-05-01T07:48:24Z</time>
      </trkpt>
      <trkpt lat="47.46269" lon="0.84748">
        <ele>159</ele>
        <time>2011-05-01T07:48:26Z</time>
      </trkpt>
      <trkpt lat="47.46264" lon="0.84748">
        <ele>159</ele>
        <time>2011-05-01T07:48:27Z</time>
      </trkpt>
      <trkpt lat="47.46256" lon="0.84751">
        <ele>158</ele>
        <time>2011-05-01T07:48:29Z</time>
      </trkpt>
      <trkpt lat="47.46248" lon="0.84754">
        <ele>158</ele>
        <time>2011-05-01T07:48:31Z</time>
      </trkpt>
      <trkpt lat="47.4624" lon="0.84757">
        <ele>158</ele>
        <time>2011-05-01T07:48:33Z</time>
      </trkpt>
      <trkpt lat="47.46235" lon="0.84757">
        <ele>158</ele>
        <time>2011-05-01T07:48:34Z</time>
      </trkpt>
      <trkpt lat="47.46226" lon="0.84759">
        <ele>158</ele>
        <time>2011-05-01T07:48:36Z</time>
      </trkpt>
      <trkpt lat="47.46218" lon="0.84758">
        <ele>158</ele>
        <time>2011-05-01T07:48:38Z</time>
      </trkpt>
      <trkpt lat="47.46213" lon="0.84759">
        <ele>158</ele>
        <time>2011-05-01T07:48:39Z</time>
      </trkpt>
      <trkpt lat="47.46207" lon="0.84757">
        <ele>158</ele>
        <time>2011-05-01T07:48:41Z</time>
      </trkpt>
      <trkpt lat="47.46199" lon="0.84752">
        <ele>157</ele>
        <time>2011-05-01T07:48:43Z</time>
      </trkpt>
      <trkpt lat="47.46192" lon="0.8475">
        <ele>157</ele>
        <time>2011-05-01T07:48:45Z</time>
      </trkpt>
      <trkpt lat="47.46185" lon="0.84749">
        <ele>158</ele>
        <time>2011-05-01T07:48:47Z</time>
      </trkpt>
      <trkpt lat="47.4618" lon="0.84746">
        <ele>157</ele>
        <time>2011-05-01T07:48:49Z</time>
      </trkpt>
      <trkpt lat="47.46173" lon="0.84743">
        <ele>156</ele>
        <time>2011-05-01T07:48:51Z</time>
      </trkpt>
      <trkpt lat="47.46167" lon="0.84742">
        <ele>156</ele>
        <time>2011-05-01T07:48:53Z</time>
      </trkpt>
      <trkpt lat="47.46162" lon="0.84741">
        <ele>156</ele>
        <time>2011-05-01T07:48:54Z</time>
      </trkpt>
      <trkpt lat="47.46155" lon="0.84737">
        <ele>155</ele>
        <time>2011-05-01T07:48:56Z</time>
      </trkpt>
      <trkpt lat="47.46148" lon="0.84738">
        <ele>155</ele>
        <time>2011-05-01T07:48:58Z</time>
      </trkpt>
      <trkpt lat="47.46141" lon="0.84735">
        <ele>155</ele>
        <time>2011-05-01T07:49:00Z</time>
      </trkpt>
      <trkpt lat="47.46133" lon="0.84733">
        <ele>156</ele>
        <time>2011-05-01T07:49:02Z</time>
      </trkpt>
      <trkpt lat="47.46129" lon="0.8473">
        <ele>155</ele>
        <time>2011-05-01T07:49:03Z</time>
      </trkpt>
      <trkpt lat="47.46122" lon="0.84727">
        <ele>155</ele>
        <time>2011-05-01T07:49:05Z</time>
      </trkpt>
      <trkpt lat="47.46114" lon="0.84725">
        <ele>154</ele>
        <time>2011-05-01T07:49:07Z</time>
      </trkpt>
      <trkpt lat="47.46107" lon="0.84722">
        <ele>155</ele>
        <time>2011-05-01T07:49:09Z</time>
      </trkpt>
      <trkpt lat="47.46098" lon="0.8472">
        <ele>155</ele>
        <time>2011-05-01T07:49:11Z</time>
      </trkpt>
      <trkpt lat="47.46089" lon="0.84716">
        <ele>154</ele>
        <time>2011-05-01T07:49:13Z</time>
      </trkpt>
      <trkpt lat="47.4608" lon="0.84716">
        <ele>154</ele>
        <time>2011-05-01T07:49:15Z</time>
      </trkpt>
      <trkpt lat="47.46074" lon="0.84715">
        <ele>153</ele>
        <time>2011-05-01T07:49:16Z</time>
      </trkpt>
      <trkpt lat="47.4607" lon="0.84715">
        <ele>153</ele>
        <time>2011-05-01T07:49:17Z</time>
      </trkpt>
      <trkpt lat="47.46062" lon="0.84714">
        <ele>153</ele>
        <time>2011-05-01T07:49:19Z</time>
      </trkpt>
      <trkpt lat="47.46054" lon="0.84713">
        <ele>153</ele>
        <time>2011-05-01T07:49:21Z</time>
      </trkpt>
      <trkpt lat="47.46046" lon="0.84715">
        <ele>153</ele>
        <time>2011-05-01T07:49:23Z</time>
      </trkpt>
      <trkpt lat="47.46037" lon="0.84713">
        <ele>154</ele>
        <time>2011-05-01T07:49:25Z</time>
      </trkpt>
      <trkpt lat="47.46032" lon="0.84712">
        <ele>154</ele>
        <time>2011-05-01T07:49:26Z</time>
      </trkpt>
      <trkpt lat="47.46026" lon="0.84713">
        <ele>154</ele>
        <time>2011-05-01T07:49:27Z</time>
      </trkpt>
      <trkpt lat="47.46021" lon="0.84715">
        <ele>154</ele>
        <time>2011-05-01T07:49:28Z</time>
      </trkpt>
      <trkpt lat="47.46015" lon="0.84715">
        <ele>154</ele>
        <time>2011-05-01T07:49:29Z</time>
      </trkpt>
      <trkpt lat="47.46008" lon="0.84719">
        <ele>155</ele>
        <time>2011-05-01T07:49:31Z</time>
      </trkpt>
      <trkpt lat="47.46" lon="0.84726">
        <ele>156</ele>
        <time>2011-05-01T07:49:33Z</time>
      </trkpt>
      <trkpt lat="47.45996" lon="0.84732">
        <ele>154</ele>
        <time>2011-05-01T07:49:34Z</time>
      </trkpt>
      <trkpt lat="47.45992" lon="0.84737">
        <ele>154</ele>
        <time>2011-05-01T07:49:35Z</time>
      </trkpt>
      <trkpt lat="47.45985" lon="0.84746">
        <ele>154</ele>
        <time>2011-05-01T07:49:37Z</time>
      </trkpt>
      <trkpt lat="47.45981" lon="0.8475">
        <ele>156</ele>
        <time>2011-05-01T07:49:38Z</time>
      </trkpt>
      <trkpt lat="47.45977" lon="0.84754">
        <ele>156</ele>
        <time>2011-05-01T07:49:39Z</time>
      </trkpt>
      <trkpt lat="47.4597" lon="0.84762">
        <ele>155</ele>
        <time>2011-05-01T07:49:41Z</time>
      </trkpt>
      <trkpt lat="47.45965" lon="0.84763">
        <ele>156</ele>
        <time>2011-05-01T07:49:42Z</time>
      </trkpt>
      <trkpt lat="47.4596" lon="0.84764">
        <ele>156</ele>
        <time>2011-05-01T07:49:43Z</time>
      </trkpt>
      <trkpt lat="47.45953" lon="0.84764">
        <ele>157</ele>
        <time>2011-05-01T07:49:45Z</time>
      </trkpt>
      <trkpt lat="47.45945" lon="0.8476">
        <ele>158</ele>
        <time>2011-05-01T07:49:47Z</time>
      </trkpt>
      <trkpt lat="47.45939" lon="0.84753">
        <ele>158</ele>
        <time>2011-05-01T07:49:49Z</time>
      </trkpt>
      <trkpt lat="47.45934" lon="0.84746">
        <ele>157</ele>
        <time>2011-05-01T07:49:51Z</time>
      </trkpt>
      <trkpt lat="47.45928" lon="0.8474">
        <ele>157</ele>
        <time>2011-05-01T07:49:53Z</time>
      </trkpt>
      <trkpt lat="47.4592" lon="0.84734">
        <ele>157</ele>
        <time>2011-05-01T07:49:55Z</time>
      </trkpt>
      <trkpt lat="47.45912" lon="0.84726">
        <ele>158</ele>
        <time>2011-05-01T07:49:57Z</time>
      </trkpt>
      <trkpt lat="47.45908" lon="0.8472">
        <ele>156</ele>
        <time>2011-05-01T07:49:59Z</time>
      </trkpt>
      <trkpt lat="47.45902" lon="0.84713">
        <ele>156</ele>
        <time>2011-05-01T07:50:01Z</time>
      </trkpt>
      <trkpt lat="47.45897" lon="0.84707">
        <ele>157</ele>
        <time>2011-05-01T07:50:03Z</time>
      </trkpt>
      <trkpt lat="47.45892" lon="0.84702">
        <ele>158</ele>
        <time>2011-05-01T07:50:05Z</time>
      </trkpt>
      <trkpt lat="47.45887" lon="0.84699">
        <ele>157</ele>
        <time>2011-05-01T07:50:07Z</time>
      </trkpt>
      <trkpt lat="47.45881" lon="0.84695">
        <ele>157</ele>
        <time>2011-05-01T07:50:09Z</time>
      </trkpt>
      <trkpt lat="47.45875" lon="0.84691">
        <ele>158</ele>
        <time>2011-05-01T07:50:11Z</time>
      </trkpt>
      <trkpt lat="47.45869" lon="0.84688">
        <ele>157</ele>
        <time>2011-05-01T07:50:13Z</time>
      </trkpt>
      <trkpt lat="47.45862" lon="0.84687">
        <ele>156</ele>
        <time>2011-05-01T07:50:15Z</time>
      </trkpt>
      <trkpt lat="47.45856" lon="0.84685">
        <ele>157</ele>
        <time>2011-05-01T07:50:17Z</time>
      </trkpt>
      <trkpt lat="47.45848" lon="0.84684">
        <ele>157</ele>
        <time>2011-05-01T07:50:19Z</time>
      </trkpt>
      <trkpt lat="47.45842" lon="0.84679">
        <ele>158</ele>
        <time>2011-05-01T07:50:21Z</time>
      </trkpt>
      <trkpt lat="47.45836" lon="0.84677">
        <ele>158</ele>
        <time>2011-05-01T07:50:23Z</time>
      </trkpt>
      <trkpt lat="47.4583" lon="0.84678">
        <ele>154</ele>
        <time>2011-05-01T07:50:59Z</time>
      </trkpt>
      <trkpt lat="47.45825" lon="0.84679">
        <ele>152</ele>
        <time>2011-05-01T07:51:04Z</time>
      </trkpt>
      <trkpt lat="47.45821" lon="0.84676">
        <ele>153</ele>
        <time>2011-05-01T07:51:07Z</time>
      </trkpt>
      <trkpt lat="47.45815" lon="0.84674">
        <ele>153</ele>
        <time>2011-05-01T07:51:10Z</time>
      </trkpt>
      <trkpt lat="47.45809" lon="0.8467">
        <ele>153</ele>
        <time>2011-05-01T07:51:13Z</time>
      </trkpt>
      <trkpt lat="47.45805" lon="0.84669">
        <ele>153</ele>
        <time>2011-05-01T07:51:15Z</time>
      </trkpt>
      <trkpt lat="47.45798" lon="0.84667">
        <ele>153</ele>
        <time>2011-05-01T07:51:18Z</time>
      </trkpt>
      <trkpt lat="47.45793" lon="0.84665">
        <ele>153</ele>
        <time>2011-05-01T07:51:20Z</time>
      </trkpt>
      <trkpt lat="47.45787" lon="0.84663">
        <ele>153</ele>
        <time>2011-05-01T07:51:23Z</time>
      </trkpt>
      <trkpt lat="47.45782" lon="0.84662">
        <ele>154</ele>
        <time>2011-05-01T07:51:25Z</time>
      </trkpt>
      <trkpt lat="47.45777" lon="0.84663">
        <ele>155</ele>
        <time>2011-05-01T07:51:27Z</time>
      </trkpt>
      <trkpt lat="47.45772" lon="0.84663">
        <ele>155</ele>
        <time>2011-05-01T07:51:29Z</time>
      </trkpt>
      <trkpt lat="47.45766" lon="0.84664">
        <ele>155</ele>
        <time>2011-05-01T07:51:31Z</time>
      </trkpt>
      <trkpt lat="47.45762" lon="0.84665">
        <ele>155</ele>
        <time>2011-05-01T07:51:33Z</time>
      </trkpt>
      <trkpt lat="47.45756" lon="0.84666">
        <ele>156</ele>
        <time>2011-05-01T07:51:35Z</time>
      </trkpt>
      <trkpt lat="47.4575" lon="0.84667">
        <ele>156</ele>
        <time>2011-05-01T07:51:37Z</time>
      </trkpt>
      <trkpt lat="47.45745" lon="0.84669">
        <ele>156</ele>
        <time>2011-05-01T07:51:39Z</time>
      </trkpt>
      <trkpt lat="47.45739" lon="0.8467">
        <ele>156</ele>
        <time>2011-05-01T07:51:41Z</time>
      </trkpt>
      <trkpt lat="47.45733" lon="0.84671">
        <ele>156</ele>
        <time>2011-05-01T07:51:43Z</time>
      </trkpt>
      <trkpt lat="47.45727" lon="0.84673">
        <ele>157</ele>
        <time>2011-05-01T07:51:45Z</time>
      </trkpt>
      <trkpt lat="47.45721" lon="0.84674">
        <ele>156</ele>
        <time>2011-05-01T07:51:47Z</time>
      </trkpt>
      <trkpt lat="47.45715" lon="0.84675">
        <ele>157</ele>
        <time>2011-05-01T07:51:49Z</time>
      </trkpt>
      <trkpt lat="47.45708" lon="0.84677">
        <ele>157</ele>
        <time>2011-05-01T07:51:51Z</time>
      </trkpt>
      <trkpt lat="47.45702" lon="0.84678">
        <ele>157</ele>
        <time>2011-05-01T07:51:53Z</time>
      </trkpt>
      <trkpt lat="47.45695" lon="0.8468">
        <ele>156</ele>
        <time>2011-05-01T07:51:55Z</time>
      </trkpt>
      <trkpt lat="47.45688" lon="0.84682">
        <ele>157</ele>
        <time>2011-05-01T07:51:57Z</time>
      </trkpt>
      <trkpt lat="47.45681" lon="0.84684">
        <ele>157</ele>
        <time>2011-05-01T07:51:59Z</time>
      </trkpt>
      <trkpt lat="47.45673" lon="0.84686">
        <ele>158</ele>
        <time>2011-05-01T07:52:01Z</time>
      </trkpt>
      <trkpt lat="47.45666" lon="0.84688">
        <ele>158</ele>
        <time>2011-05-01T07:52:03Z</time>
      </trkpt>
      <trkpt lat="47.45658" lon="0.84689">
        <ele>158</ele>
        <time>2011-05-01T07:52:05Z</time>
      </trkpt>
      <trkpt lat="47.4565" lon="0.84689">
        <ele>158</ele>
        <time>2011-05-01T07:52:07Z</time>
      </trkpt>
      <trkpt lat="47.45642" lon="0.84689">
        <ele>158</ele>
        <time>2011-05-01T07:52:09Z</time>
      </trkpt>
      <trkpt lat="47.45633" lon="0.84688">
        <ele>158</ele>
        <time>2011-05-01T07:52:11Z</time>
      </trkpt>
      <trkpt lat="47.45624" lon="0.84686">
        <ele>158</ele>
        <time>2011-05-01T07:52:13Z</time>
      </trkpt>
      <trkpt lat="47.45616" lon="0.84683">
        <ele>158</ele>
        <time>2011-05-01T07:52:15Z</time>
      </trkpt>
      <trkpt lat="47.45608" lon="0.84678">
        <ele>158</ele>
        <time>2011-05-01T07:52:17Z</time>
      </trkpt>
      <trkpt lat="47.45601" lon="0.84674">
        <ele>158</ele>
        <time>2011-05-01T07:52:19Z</time>
      </trkpt>
      <trkpt lat="47.45595" lon="0.84669">
        <ele>158</ele>
        <time>2011-05-01T07:52:21Z</time>
      </trkpt>
      <trkpt lat="47.4559" lon="0.84666">
        <ele>158</ele>
        <time>2011-05-01T07:52:22Z</time>
      </trkpt>
      <trkpt lat="47.45586" lon="0.84662">
        <ele>158</ele>
        <time>2011-05-01T07:52:23Z</time>
      </trkpt>
      <trkpt lat="47.45578" lon="0.84657">
        <ele>158</ele>
        <time>2011-05-01T07:52:25Z</time>
      </trkpt>
      <trkpt lat="47.4557" lon="0.8465">
        <ele>158</ele>
        <time>2011-05-01T07:52:27Z</time>
      </trkpt>
      <trkpt lat="47.45565" lon="0.84647">
        <ele>158</ele>
        <time>2011-05-01T07:52:28Z</time>
      </trkpt>
      <trkpt lat="47.45561" lon="0.84644">
        <ele>158</ele>
        <time>2011-05-01T07:52:29Z</time>
      </trkpt>
      <trkpt lat="47.45557" lon="0.8464">
        <ele>158</ele>
        <time>2011-05-01T07:52:30Z</time>
      </trkpt>
      <trkpt lat="47.45552" lon="0.84638">
        <ele>158</ele>
        <time>2011-05-01T07:52:31Z</time>
      </trkpt>
      <trkpt lat="47.45548" lon="0.84634">
        <ele>158</ele>
        <time>2011-05-01T07:52:32Z</time>
      </trkpt>
      <trkpt lat="47.4554" lon="0.84631">
        <ele>159</ele>
        <time>2011-05-01T07:52:34Z</time>
      </trkpt>
      <trkpt lat="47.45534" lon="0.84629">
        <ele>159</ele>
        <time>2011-05-01T07:52:35Z</time>
      </trkpt>
      <trkpt lat="47.45529" lon="0.84628">
        <ele>158</ele>
        <time>2011-05-01T07:52:36Z</time>
      </trkpt>
      <trkpt lat="47.45524" lon="0.84629">
        <ele>158</ele>
        <time>2011-05-01T07:52:37Z</time>
      </trkpt>
      <trkpt lat="47.45515" lon="0.84629">
        <ele>158</ele>
        <time>2011-05-01T07:52:39Z</time>
      </trkpt>
      <trkpt lat="47.4551" lon="0.84627">
        <ele>158</ele>
        <time>2011-05-01T07:52:40Z</time>
      </trkpt>
      <trkpt lat="47.45505" lon="0.84625">
        <ele>157</ele>
        <time>2011-05-01T07:52:41Z</time>
      </trkpt>
      <trkpt lat="47.45496" lon="0.84621">
        <ele>157</ele>
        <time>2011-05-01T07:52:43Z</time>
      </trkpt>
      <trkpt lat="47.45491" lon="0.84619">
        <ele>157</ele>
        <time>2011-05-01T07:52:44Z</time>
      </trkpt>
      <trkpt lat="47.45485" lon="0.84617">
        <ele>157</ele>
        <time>2011-05-01T07:52:45Z</time>
      </trkpt>
      <trkpt lat="47.4548" lon="0.84614">
        <ele>157</ele>
        <time>2011-05-01T07:52:46Z</time>
      </trkpt>
      <trkpt lat="47.45475" lon="0.84611">
        <ele>156</ele>
        <time>2011-05-01T07:52:47Z</time>
      </trkpt>
      <trkpt lat="47.4547" lon="0.84608">
        <ele>156</ele>
        <time>2011-05-01T07:52:48Z</time>
      </trkpt>
      <trkpt lat="47.45466" lon="0.84605">
        <ele>155</ele>
        <time>2011-05-01T07:52:49Z</time>
      </trkpt>
      <trkpt lat="47.45461" lon="0.84603">
        <ele>155</ele>
        <time>2011-05-01T07:52:50Z</time>
      </trkpt>
      <trkpt lat="47.45455" lon="0.84599">
        <ele>155</ele>
        <time>2011-05-01T07:52:51Z</time>
      </trkpt>
      <trkpt lat="47.4545" lon="0.84596">
        <ele>155</ele>
        <time>2011-05-01T07:52:52Z</time>
      </trkpt>
      <trkpt lat="47.45445" lon="0.84591">
        <ele>154</ele>
        <time>2011-05-01T07:52:53Z</time>
      </trkpt>
      <trkpt lat="47.4544" lon="0.84586">
        <ele>155</ele>
        <time>2011-05-01T07:52:54Z</time>
      </trkpt>
      <trkpt lat="47.45435" lon="0.84581">
        <ele>155</ele>
        <time>2011-05-01T07:52:55Z</time>
      </trkpt>
      <trkpt lat="47.4543" lon="0.84576">
        <ele>155</ele>
        <time>2011-05-01T07:52:56Z</time>
      </trkpt>
      <trkpt lat="47.45425" lon="0.84572">
        <ele>155</ele>
        <time>2011-05-01T07:52:57Z</time>
      </trkpt>
      <trkpt lat="47.45419" lon="0.84567">
        <ele>155</ele>
        <time>2011-05-01T07:52:58Z</time>
      </trkpt>
      <trkpt lat="47.45415" lon="0.84561">
        <ele>155</ele>
        <time>2011-05-01T07:52:59Z</time>
      </trkpt>
      <trkpt lat="47.45409" lon="0.84556">
        <ele>155</ele>
        <time>2011-05-01T07:53:00Z</time>
      </trkpt>
      <trkpt lat="47.45404" lon="0.8455">
        <ele>155</ele>
        <time>2011-05-01T07:53:01Z</time>
      </trkpt>
      <trkpt lat="47.45398" lon="0.84544">
        <ele>155</ele>
        <time>2011-05-01T07:53:02Z</time>
      </trkpt>
      <trkpt lat="47.45393" lon="0.84537">
        <ele>155</ele>
        <time>2011-05-01T07:53:03Z</time>
      </trkpt>
      <trkpt lat="47.45387" lon="0.84532">
        <ele>155</ele>
        <time>2011-05-01T07:53:04Z</time>
      </trkpt>
      <trkpt lat="47.45381" lon="0.84526">
        <ele>154</ele>
        <time>2011-05-01T07:53:05Z</time>
      </trkpt>
      <trkpt lat="47.45374" lon="0.8452">
        <ele>154</ele>
        <time>2011-05-01T07:53:06Z</time>
      </trkpt>
      <trkpt lat="47.45369" lon="0.84515">
        <ele>154</ele>
        <time>2011-05-01T07:53:07Z</time>
      </trkpt>
      <trkpt lat="47.45362" lon="0.84509">
        <ele>154</ele>
        <time>2011-05-01T07:53:08Z</time>
      </trkpt>
      <trkpt lat="47.45357" lon="0.84504">
        <ele>155</ele>
        <time>2011-05-01T07:53:09Z</time>
      </trkpt>
      <trkpt lat="47.45349" lon="0.845">
        <ele>156</ele>
        <time>2011-05-01T07:53:10Z</time>
      </trkpt>
      <trkpt lat="47.45342" lon="0.84496">
        <ele>156</ele>
        <time>2011-05-01T07:53:11Z</time>
      </trkpt>
      <trkpt lat="47.45335" lon="0.84493">
        <ele>156</ele>
        <time>2011-05-01T07:53:12Z</time>
      </trkpt>
      <trkpt lat="47.45328" lon="0.8449">
        <ele>156</ele>
        <time>2011-05-01T07:53:13Z</time>
      </trkpt>
      <trkpt lat="47.45321" lon="0.84485">
        <ele>157</ele>
        <time>2011-05-01T07:53:14Z</time>
      </trkpt>
      <trkpt lat="47.45314" lon="0.8448">
        <ele>156</ele>
        <time>2011-05-01T07:53:15Z</time>
      </trkpt>
      <trkpt lat="47.45307" lon="0.84476">
        <ele>156</ele>
        <time>2011-05-01T07:53:16Z</time>
      </trkpt>
      <trkpt lat="47.453" lon="0.8447">
        <ele>156</ele>
        <time>2011-05-01T07:53:17Z</time>
      </trkpt>
      <trkpt lat="47.45293" lon="0.84464">
        <ele>156</ele>
        <time>2011-05-01T07:53:18Z</time>
      </trkpt>
      <trkpt lat="47.45287" lon="0.84458">
        <ele>155</ele>
        <time>2011-05-01T07:53:19Z</time>
      </trkpt>
      <trkpt lat="47.4528" lon="0.84453">
        <ele>155</ele>
        <time>2011-05-01T07:53:20Z</time>
      </trkpt>
      <trkpt lat="47.45274" lon="0.84448">
        <ele>155</ele>
        <time>2011-05-01T07:53:21Z</time>
      </trkpt>
      <trkpt lat="47.45266" lon="0.84442">
        <ele>155</ele>
        <time>2011-05-01T07:53:22Z</time>
      </trkpt>
      <trkpt lat="47.4526" lon="0.84439">
        <ele>155</ele>
        <time>2011-05-01T07:53:23Z</time>
      </trkpt>
      <trkpt lat="47.45253" lon="0.84434">
        <ele>155</ele>
        <time>2011-05-01T07:53:24Z</time>
      </trkpt>
      <trkpt lat="47.45247" lon="0.84429">
        <ele>155</ele>
        <time>2011-05-01T07:53:25Z</time>
      </trkpt>
      <trkpt lat="47.45241" lon="0.84424">
        <ele>155</ele>
        <time>2011-05-01T07:53:26Z</time>
      </trkpt>
      <trkpt lat="47.45235" lon="0.84419">
        <ele>155</ele>
        <time>2011-05-01T07:53:27Z</time>
      </trkpt>
      <trkpt lat="47.4523" lon="0.84412">
        <ele>155</ele>
        <time>2011-05-01T07:53:28Z</time>
      </trkpt>
      <trkpt lat="47.45228" lon="0.84402">
        <ele>155</ele>
        <time>2011-05-01T07:53:29Z</time>
      </trkpt>
      <trkpt lat="47.45226" lon="0.84392">
        <ele>156</ele>
        <time>2011-05-01T07:53:30Z</time>
      </trkpt>
      <trkpt lat="47.45224" lon="0.84383">
        <ele>156</ele>
        <time>2011-05-01T07:53:31Z</time>
      </trkpt>
      <trkpt lat="47.45221" lon="0.84373">
        <ele>156</ele>
        <time>2011-05-01T07:53:32Z</time>
      </trkpt>
      <trkpt lat="47.45219" lon="0.84364">
        <ele>156</ele>
        <time>2011-05-01T07:53:33Z</time>
      </trkpt>
      <trkpt lat="47.45216" lon="0.84354">
        <ele>156</ele>
        <time>2011-05-01T07:53:34Z</time>
      </trkpt>
      <trkpt lat="47.45213" lon="0.84344">
        <ele>156</ele>
        <time>2011-05-01T07:53:35Z</time>
      </trkpt>
      <trkpt lat="47.4521" lon="0.84335">
        <ele>156</ele>
        <time>2011-05-01T07:53:36Z</time>
      </trkpt>
      <trkpt lat="47.45206" lon="0.84325">
        <ele>156</ele>
        <time>2011-05-01T07:53:37Z</time>
      </trkpt>
      <trkpt lat="47.45204" lon="0.84316">
        <ele>156</ele>
        <time>2011-05-01T07:53:38Z</time>
      </trkpt>
      <trkpt lat="47.45201" lon="0.84307">
        <ele>156</ele>
        <time>2011-05-01T07:53:39Z</time>
      </trkpt>
      <trkpt lat="47.45198" lon="0.84298">
        <ele>156</ele>
        <time>2011-05-01T07:53:40Z</time>
      </trkpt>
      <trkpt lat="47.45195" lon="0.84289">
        <ele>156</ele>
        <time>2011-05-01T07:53:41Z</time>
      </trkpt>
      <trkpt lat="47.45191" lon="0.84281">
        <ele>156</ele>
        <time>2011-05-01T07:53:42Z</time>
      </trkpt>
      <trkpt lat="47.45188" lon="0.84273">
        <ele>156</ele>
        <time>2011-05-01T07:53:43Z</time>
      </trkpt>
      <trkpt lat="47.45187" lon="0.84264">
        <ele>156</ele>
        <time>2011-05-01T07:53:44Z</time>
      </trkpt>
      <trkpt lat="47.45183" lon="0.84255">
        <ele>156</ele>
        <time>2011-05-01T07:53:45Z</time>
      </trkpt>
      <trkpt lat="47.45178" lon="0.84246">
        <ele>154</ele>
        <time>2011-05-01T07:53:46Z</time>
      </trkpt>
      <trkpt lat="47.45174" lon="0.84238">
        <ele>153</ele>
        <time>2011-05-01T07:53:47Z</time>
      </trkpt>
      <trkpt lat="47.45168" lon="0.84229">
        <ele>152</ele>
        <time>2011-05-01T07:53:48Z</time>
      </trkpt>
      <trkpt lat="47.45162" lon="0.84223">
        <ele>151</ele>
        <time>2011-05-01T07:53:49Z</time>
      </trkpt>
      <trkpt lat="47.45154" lon="0.84217">
        <ele>151</ele>
        <time>2011-05-01T07:53:50Z</time>
      </trkpt>
      <trkpt lat="47.45145" lon="0.84213">
        <ele>151</ele>
        <time>2011-05-01T07:53:51Z</time>
      </trkpt>
      <trkpt lat="47.45137" lon="0.8421">
        <ele>151</ele>
        <time>2011-05-01T07:53:52Z</time>
      </trkpt>
      <trkpt lat="47.45127" lon="0.84207">
        <ele>151</ele>
        <time>2011-05-01T07:53:53Z</time>
      </trkpt>
      <trkpt lat="47.45115" lon="0.84206">
        <ele>150</ele>
        <time>2011-05-01T07:53:54Z</time>
      </trkpt>
      <trkpt lat="47.45104" lon="0.84208">
        <ele>150</ele>
        <time>2011-05-01T07:53:55Z</time>
      </trkpt>
      <trkpt lat="47.45093" lon="0.8421">
        <ele>150</ele>
        <time>2011-05-01T07:53:56Z</time>
      </trkpt>
      <trkpt lat="47.45082" lon="0.84214">
        <ele>150</ele>
        <time>2011-05-01T07:53:57Z</time>
      </trkpt>
      <trkpt lat="47.45071" lon="0.84217">
        <ele>150</ele>
        <time>2011-05-01T07:53:58Z</time>
      </trkpt>
      <trkpt lat="47.45064" lon="0.84224">
        <ele>150</ele>
        <time>2011-05-01T07:53:59Z</time>
      </trkpt>
      <trkpt lat="47.45054" lon="0.84229">
        <ele>150</ele>
        <time>2011-05-01T07:54:00Z</time>
      </trkpt>
      <trkpt lat="47.45044" lon="0.84233">
        <ele>150</ele>
        <time>2011-05-01T07:54:01Z</time>
      </trkpt>
      <trkpt lat="47.45036" lon="0.84232">
        <ele>150</ele>
        <time>2011-05-01T07:54:02Z</time>
      </trkpt>
      <trkpt lat="47.45028" lon="0.84229">
        <ele>150</ele>
        <time>2011-05-01T07:54:03Z</time>
      </trkpt>
      <trkpt lat="47.45021" lon="0.84225">
        <ele>149</ele>
        <time>2011-05-01T07:54:04Z</time>
      </trkpt>
      <trkpt lat="47.45014" lon="0.84219">
        <ele>149</ele>
        <time>2011-05-01T07:54:05Z</time>
      </trkpt>
      <trkpt lat="47.45006" lon="0.84218">
        <ele>149</ele>
        <time>2011-05-01T07:54:06Z</time>
      </trkpt>
      <trkpt lat="47.44999" lon="0.84215">
        <ele>149</ele>
        <time>2011-05-01T07:54:07Z</time>
      </trkpt>
      <trkpt lat="47.44991" lon="0.84213">
        <ele>149</ele>
        <time>2011-05-01T07:54:08Z</time>
      </trkpt>
      <trkpt lat="47.44983" lon="0.84212">
        <ele>149</ele>
        <time>2011-05-01T07:54:09Z</time>
      </trkpt>
      <trkpt lat="47.44974" lon="0.84212">
        <ele>148</ele>
        <time>2011-05-01T07:54:10Z</time>
      </trkpt>
      <trkpt lat="47.44966" lon="0.84212">
        <ele>147</ele>
        <time>2011-05-01T07:54:11Z</time>
      </trkpt>
      <trkpt lat="47.44957" lon="0.84212">
        <ele>147</ele>
        <time>2011-05-01T07:54:12Z</time>
      </trkpt>
      <trkpt lat="47.44949" lon="0.84213">
        <ele>147</ele>
        <time>2011-05-01T07:54:13Z</time>
      </trkpt>
      <trkpt lat="47.44941" lon="0.84216">
        <ele>146</ele>
        <time>2011-05-01T07:54:14Z</time>
      </trkpt>
      <trkpt lat="47.44936" lon="0.8422">
        <ele>146</ele>
        <time>2011-05-01T07:54:15Z</time>
      </trkpt>
      <trkpt lat="47.44928" lon="0.84222">
        <ele>145</ele>
        <time>2011-05-01T07:54:16Z</time>
      </trkpt>
      <trkpt lat="47.44922" lon="0.84226">
        <ele>144</ele>
        <time>2011-05-01T07:54:17Z</time>
      </trkpt>
      <trkpt lat="47.44916" lon="0.8423">
        <ele>144</ele>
        <time>2011-05-01T07:54:18Z</time>
      </trkpt>
      <trkpt lat="47.44912" lon="0.84236">
        <ele>145</ele>
        <time>2011-05-01T07:54:19Z</time>
      </trkpt>
      <trkpt lat="47.44906" lon="0.84257">
        <ele>144</ele>
        <time>2011-05-01T07:54:21Z</time>
      </trkpt>
      <trkpt lat="47.44901" lon="0.84268">
        <ele>142</ele>
        <time>2011-05-01T07:54:22Z</time>
      </trkpt>
      <trkpt lat="47.44894" lon="0.84277">
        <ele>141</ele>
        <time>2011-05-01T07:54:23Z</time>
      </trkpt>
      <trkpt lat="47.44891" lon="0.84288">
        <ele>140</ele>
        <time>2011-05-01T07:54:24Z</time>
      </trkpt>
      <trkpt lat="47.44888" lon="0.84298">
        <ele>139</ele>
        <time>2011-05-01T07:54:25Z</time>
      </trkpt>
      <trkpt lat="47.44885" lon="0.84307">
        <ele>138</ele>
        <time>2011-05-01T07:54:26Z</time>
      </trkpt>
      <trkpt lat="47.44882" lon="0.84318">
        <ele>138</ele>
        <time>2011-05-01T07:54:27Z</time>
      </trkpt>
      <trkpt lat="47.4488" lon="0.84329">
        <ele>137</ele>
        <time>2011-05-01T07:54:28Z</time>
      </trkpt>
      <trkpt lat="47.44876" lon="0.84339">
        <ele>137</ele>
        <time>2011-05-01T07:54:29Z</time>
      </trkpt>
      <trkpt lat="47.44873" lon="0.84351">
        <ele>137</ele>
        <time>2011-05-01T07:54:30Z</time>
      </trkpt>
      <trkpt lat="47.44871" lon="0.84363">
        <ele>136</ele>
        <time>2011-05-01T07:54:31Z</time>
      </trkpt>
      <trkpt lat="47.44869" lon="0.84374">
        <ele>136</ele>
        <time>2011-05-01T07:54:32Z</time>
      </trkpt>
      <trkpt lat="47.44866" lon="0.84384">
        <ele>136</ele>
        <time>2011-05-01T07:54:33Z</time>
      </trkpt>
      <trkpt lat="47.44864" lon="0.84395">
        <ele>136</ele>
        <time>2011-05-01T07:54:34Z</time>
      </trkpt>
      <trkpt lat="47.44863" lon="0.84404">
        <ele>135</ele>
        <time>2011-05-01T07:54:35Z</time>
      </trkpt>
      <trkpt lat="47.44863" lon="0.84413">
        <ele>134</ele>
        <time>2011-05-01T07:54:36Z</time>
      </trkpt>
      <trkpt lat="47.44862" lon="0.84424">
        <ele>134</ele>
        <time>2011-05-01T07:54:37Z</time>
      </trkpt>
      <trkpt lat="47.44862" lon="0.84433">
        <ele>134</ele>
        <time>2011-05-01T07:54:38Z</time>
      </trkpt>
      <trkpt lat="47.44862" lon="0.84441">
        <ele>133</ele>
        <time>2011-05-01T07:54:39Z</time>
      </trkpt>
      <trkpt lat="47.44863" lon="0.8445">
        <ele>132</ele>
        <time>2011-05-01T07:54:40Z</time>
      </trkpt>
      <trkpt lat="47.44862" lon="0.84458">
        <ele>132</ele>
        <time>2011-05-01T07:54:41Z</time>
      </trkpt>
      <trkpt lat="47.4486" lon="0.84466">
        <ele>131</ele>
        <time>2011-05-01T07:54:42Z</time>
      </trkpt>
      <trkpt lat="47.44857" lon="0.84473">
        <ele>130</ele>
        <time>2011-05-01T07:54:43Z</time>
      </trkpt>
      <trkpt lat="47.4485" lon="0.84475">
        <ele>129</ele>
        <time>2011-05-01T07:54:44Z</time>
      </trkpt>
      <trkpt lat="47.44843" lon="0.84477">
        <ele>128</ele>
        <time>2011-05-01T07:54:45Z</time>
      </trkpt>
      <trkpt lat="47.44836" lon="0.84478">
        <ele>128</ele>
        <time>2011-05-01T07:54:46Z</time>
      </trkpt>
      <trkpt lat="47.44829" lon="0.8448">
        <ele>127</ele>
        <time>2011-05-01T07:54:47Z</time>
      </trkpt>
      <trkpt lat="47.44821" lon="0.84483">
        <ele>127</ele>
        <time>2011-05-01T07:54:48Z</time>
      </trkpt>
      <trkpt lat="47.44813" lon="0.84485">
        <ele>127</ele>
        <time>2011-05-01T07:54:49Z</time>
      </trkpt>
      <trkpt lat="47.44804" lon="0.84485">
        <ele>127</ele>
        <time>2011-05-01T07:54:50Z</time>
      </trkpt>
      <trkpt lat="47.44796" lon="0.84487">
        <ele>126</ele>
        <time>2011-05-01T07:54:51Z</time>
      </trkpt>
      <trkpt lat="47.4479" lon="0.84488">
        <ele>126</ele>
        <time>2011-05-01T07:54:52Z</time>
      </trkpt>
      <trkpt lat="47.44785" lon="0.8449">
        <ele>126</ele>
        <time>2011-05-01T07:54:53Z</time>
      </trkpt>
      <trkpt lat="47.44777" lon="0.84492">
        <ele>126</ele>
        <time>2011-05-01T07:54:55Z</time>
      </trkpt>
      <trkpt lat="47.44768" lon="0.84493">
        <ele>126</ele>
        <time>2011-05-01T07:54:57Z</time>
      </trkpt>
      <trkpt lat="47.4476" lon="0.8449">
        <ele>126</ele>
        <time>2011-05-01T07:54:59Z</time>
      </trkpt>
      <trkpt lat="47.44756" lon="0.84487">
        <ele>125</ele>
        <time>2011-05-01T07:55:00Z</time>
      </trkpt>
      <trkpt lat="47.4475" lon="0.84488">
        <ele>125</ele>
        <time>2011-05-01T07:55:01Z</time>
      </trkpt>
      <trkpt lat="47.44742" lon="0.84488">
        <ele>125</ele>
        <time>2011-05-01T07:55:02Z</time>
      </trkpt>
      <trkpt lat="47.44736" lon="0.84487">
        <ele>126</ele>
        <time>2011-05-01T07:55:03Z</time>
      </trkpt>
      <trkpt lat="47.4473" lon="0.84487">
        <ele>126</ele>
        <time>2011-05-01T07:55:04Z</time>
      </trkpt>
      <trkpt lat="47.44722" lon="0.84485">
        <ele>125</ele>
        <time>2011-05-01T07:55:05Z</time>
      </trkpt>
      <trkpt lat="47.44716" lon="0.84482">
        <ele>125</ele>
        <time>2011-05-01T07:55:06Z</time>
      </trkpt>
      <trkpt lat="47.44709" lon="0.8448">
        <ele>125</ele>
        <time>2011-05-01T07:55:07Z</time>
      </trkpt>
      <trkpt lat="47.44701" lon="0.84479">
        <ele>126</ele>
        <time>2011-05-01T07:55:08Z</time>
      </trkpt>
      <trkpt lat="47.44694" lon="0.84478">
        <ele>126</ele>
        <time>2011-05-01T07:55:09Z</time>
      </trkpt>
      <trkpt lat="47.44687" lon="0.84474">
        <ele>127</ele>
        <time>2011-05-01T07:55:10Z</time>
      </trkpt>
      <trkpt lat="47.4468" lon="0.84474">
        <ele>127</ele>
        <time>2011-05-01T07:55:11Z</time>
      </trkpt>
      <trkpt lat="47.44673" lon="0.84474">
        <ele>127</ele>
        <time>2011-05-01T07:55:12Z</time>
      </trkpt>
      <trkpt lat="47.44666" lon="0.84474">
        <ele>127</ele>
        <time>2011-05-01T07:55:13Z</time>
      </trkpt>
      <trkpt lat="47.44659" lon="0.84471">
        <ele>127</ele>
        <time>2011-05-01T07:55:14Z</time>
      </trkpt>
      <trkpt lat="47.44652" lon="0.84469">
        <ele>126</ele>
        <time>2011-05-01T07:55:15Z</time>
      </trkpt>
      <trkpt lat="47.44645" lon="0.84467">
        <ele>126</ele>
        <time>2011-05-01T07:55:16Z</time>
      </trkpt>
      <trkpt lat="47.44639" lon="0.84465">
        <ele>126</ele>
        <time>2011-05-01T07:55:17Z</time>
      </trkpt>
      <trkpt lat="47.44631" lon="0.84464">
        <ele>126</ele>
        <time>2011-05-01T07:55:18Z</time>
      </trkpt>
      <trkpt lat="47.44625" lon="0.84464">
        <ele>126</ele>
        <time>2011-05-01T07:55:19Z</time>
      </trkpt>
      <trkpt lat="47.44619" lon="0.84461">
        <ele>126</ele>
        <time>2011-05-01T07:55:20Z</time>
      </trkpt>
      <trkpt lat="47.44613" lon="0.8446">
        <ele>126</ele>
        <time>2011-05-01T07:55:21Z</time>
      </trkpt>
      <trkpt lat="47.44606" lon="0.84458">
        <ele>126</ele>
        <time>2011-05-01T07:55:22Z</time>
      </trkpt>
      <trkpt lat="47.446" lon="0.84457">
        <ele>126</ele>
        <time>2011-05-01T07:55:23Z</time>
      </trkpt>
      <trkpt lat="47.44593" lon="0.84456">
        <ele>125</ele>
        <time>2011-05-01T07:55:24Z</time>
      </trkpt>
      <trkpt lat="47.44587" lon="0.84454">
        <ele>126</ele>
        <time>2011-05-01T07:55:25Z</time>
      </trkpt>
      <trkpt lat="47.4458" lon="0.84451">
        <ele>126</ele>
        <time>2011-05-01T07:55:26Z</time>
      </trkpt>
      <trkpt lat="47.44576" lon="0.8445">
        <ele>127</ele>
        <time>2011-05-01T07:55:27Z</time>
      </trkpt>
      <trkpt lat="47.4457" lon="0.84448">
        <ele>127</ele>
        <time>2011-05-01T07:55:28Z</time>
      </trkpt>
      <trkpt lat="47.44565" lon="0.84447">
        <ele>127</ele>
        <time>2011-05-01T07:55:29Z</time>
      </trkpt>
      <trkpt lat="47.4456" lon="0.84444">
        <ele>128</ele>
        <time>2011-05-01T07:55:30Z</time>
      </trkpt>
      <trkpt lat="47.44555" lon="0.84443">
        <ele>128</ele>
        <time>2011-05-01T07:55:31Z</time>
      </trkpt>
      <trkpt lat="47.44549" lon="0.84441">
        <ele>128</ele>
        <time>2011-05-01T07:55:32Z</time>
      </trkpt>
      <trkpt lat="47.44544" lon="0.84439">
        <ele>128</ele>
        <time>2011-05-01T07:55:33Z</time>
      </trkpt>
      <trkpt lat="47.4454" lon="0.84438">
        <ele>128</ele>
        <time>2011-05-01T07:55:34Z</time>
      </trkpt>
      <trkpt lat="47.44534" lon="0.84436">
        <ele>127</ele>
        <time>2011-05-01T07:55:35Z</time>
      </trkpt>
      <trkpt lat="47.44528" lon="0.84435">
        <ele>127</ele>
        <time>2011-05-01T07:55:36Z</time>
      </trkpt>
      <trkpt lat="47.44519" lon="0.84432">
        <ele>127</ele>
        <time>2011-05-01T07:55:38Z</time>
      </trkpt>
      <trkpt lat="47.44513" lon="0.8443">
        <ele>127</ele>
        <time>2011-05-01T07:55:39Z</time>
      </trkpt>
      <trkpt lat="47.44504" lon="0.84429">
        <ele>126</ele>
        <time>2011-05-01T07:55:41Z</time>
      </trkpt>
      <trkpt lat="47.44495" lon="0.84425">
        <ele>127</ele>
        <time>2011-05-01T07:55:43Z</time>
      </trkpt>
      <trkpt lat="47.4449" lon="0.84425">
        <ele>127</ele>
        <time>2011-05-01T07:55:44Z</time>
      </trkpt>
      <trkpt lat="47.44482" lon="0.84423">
        <ele>126</ele>
        <time>2011-05-01T07:55:46Z</time>
      </trkpt>
      <trkpt lat="47.44473" lon="0.84421">
        <ele>126</ele>
        <time>2011-05-01T07:55:48Z</time>
      </trkpt>
      <trkpt lat="47.44468" lon="0.84419">
        <ele>128</ele>
        <time>2011-05-01T07:55:50Z</time>
      </trkpt>
      <trkpt lat="47.44462" lon="0.84416">
        <ele>128</ele>
        <time>2011-05-01T07:55:52Z</time>
      </trkpt>
      <trkpt lat="47.44456" lon="0.84413">
        <ele>130</ele>
        <time>2011-05-01T07:55:54Z</time>
      </trkpt>
      <trkpt lat="47.4445" lon="0.84411">
        <ele>130</ele>
        <time>2011-05-01T07:55:56Z</time>
      </trkpt>
      <trkpt lat="47.44444" lon="0.84413">
        <ele>131</ele>
        <time>2011-05-01T07:55:58Z</time>
      </trkpt>
      <trkpt lat="47.4444" lon="0.8442">
        <ele>133</ele>
        <time>2011-05-01T07:56:00Z</time>
      </trkpt>
      <trkpt lat="47.44439" lon="0.84429">
        <ele>133</ele>
        <time>2011-05-01T07:56:02Z</time>
      </trkpt>
      <trkpt lat="47.44438" lon="0.84438">
        <ele>134</ele>
        <time>2011-05-01T07:56:04Z</time>
      </trkpt>
      <trkpt lat="47.44436" lon="0.84447">
        <ele>134</ele>
        <time>2011-05-01T07:56:06Z</time>
      </trkpt>
      <trkpt lat="47.44434" lon="0.84457">
        <ele>135</ele>
        <time>2011-05-01T07:56:08Z</time>
      </trkpt>
      <trkpt lat="47.44432" lon="0.84468">
        <ele>135</ele>
        <time>2011-05-01T07:56:10Z</time>
      </trkpt>
      <trkpt lat="47.4443" lon="0.8448">
        <ele>134</ele>
        <time>2011-05-01T07:56:12Z</time>
      </trkpt>
      <trkpt lat="47.44427" lon="0.84491">
        <ele>135</ele>
        <time>2011-05-01T07:56:14Z</time>
      </trkpt>
      <trkpt lat="47.44425" lon="0.84504">
        <ele>135</ele>
        <time>2011-05-01T07:56:16Z</time>
      </trkpt>
      <trkpt lat="47.44423" lon="0.84515">
        <ele>136</ele>
        <time>2011-05-01T07:56:18Z</time>
      </trkpt>
      <trkpt lat="47.4442" lon="0.84527">
        <ele>136</ele>
        <time>2011-05-01T07:56:20Z</time>
      </trkpt>
      <trkpt lat="47.44418" lon="0.84539">
        <ele>137</ele>
        <time>2011-05-01T07:56:22Z</time>
      </trkpt>
      <trkpt lat="47.44416" lon="0.84551">
        <ele>137</ele>
        <time>2011-05-01T07:56:24Z</time>
      </trkpt>
      <trkpt lat="47.44414" lon="0.84564">
        <ele>138</ele>
        <time>2011-05-01T07:56:26Z</time>
      </trkpt>
      <trkpt lat="47.44411" lon="0.84576">
        <ele>138</ele>
        <time>2011-05-01T07:56:28Z</time>
      </trkpt>
      <trkpt lat="47.4441" lon="0.84583">
        <ele>138</ele>
        <time>2011-05-01T07:56:29Z</time>
      </trkpt>
      <trkpt lat="47.4441" lon="0.84591">
        <ele>138</ele>
        <time>2011-05-01T07:56:30Z</time>
      </trkpt>
      <trkpt lat="47.44409" lon="0.84598">
        <ele>138</ele>
        <time>2011-05-01T07:56:31Z</time>
      </trkpt>
      <trkpt lat="47.44408" lon="0.84611">
        <ele>137</ele>
        <time>2011-05-01T07:56:33Z</time>
      </trkpt>
      <trkpt lat="47.44408" lon="0.84618">
        <ele>138</ele>
        <time>2011-05-01T07:56:34Z</time>
      </trkpt>
      <trkpt lat="47.44408" lon="0.84625">
        <ele>138</ele>
        <time>2011-05-01T07:56:35Z</time>
      </trkpt>
      <trkpt lat="47.44408" lon="0.84632">
        <ele>138</ele>
        <time>2011-05-01T07:56:36Z</time>
      </trkpt>
      <trkpt lat="47.44407" lon="0.8464">
        <ele>138</ele>
        <time>2011-05-01T07:56:37Z</time>
      </trkpt>
      <trkpt lat="47.44407" lon="0.84647">
        <ele>138</ele>
        <time>2011-05-01T07:56:38Z</time>
      </trkpt>
      <trkpt lat="47.44406" lon="0.84653">
        <ele>138</ele>
        <time>2011-05-01T07:56:39Z</time>
      </trkpt>
      <trkpt lat="47.44402" lon="0.84663">
        <ele>140</ele>
        <time>2011-05-01T07:56:41Z</time>
      </trkpt>
      <trkpt lat="47.44396" lon="0.84667">
        <ele>140</ele>
        <time>2011-05-01T07:56:43Z</time>
      </trkpt>
      <trkpt lat="47.4439" lon="0.84668">
        <ele>141</ele>
        <time>2011-05-01T07:56:46Z</time>
      </trkpt>
      <trkpt lat="47.44385" lon="0.84666">
        <ele>141</ele>
        <time>2011-05-01T07:56:48Z</time>
      </trkpt>
      <trkpt lat="47.4438" lon="0.84662">
        <ele>141</ele>
        <time>2011-05-01T07:56:50Z</time>
      </trkpt>
      <trkpt lat="47.44375" lon="0.84657">
        <ele>142</ele>
        <time>2011-05-01T07:56:52Z</time>
      </trkpt>
      <trkpt lat="47.44368" lon="0.8465">
        <ele>141</ele>
        <time>2011-05-01T07:56:54Z</time>
      </trkpt>
      <trkpt lat="47.44361" lon="0.84645">
        <ele>141</ele>
        <time>2011-05-01T07:56:56Z</time>
      </trkpt>
      <trkpt lat="47.44353" lon="0.84641">
        <ele>142</ele>
        <time>2011-05-01T07:56:58Z</time>
      </trkpt>
      <trkpt lat="47.44346" lon="0.8464">
        <ele>142</ele>
        <time>2011-05-01T07:57:00Z</time>
      </trkpt>
      <trkpt lat="47.44341" lon="0.84639">
        <ele>143</ele>
        <time>2011-05-01T07:57:02Z</time>
      </trkpt>
      <trkpt lat="47.44335" lon="0.84637">
        <ele>144</ele>
        <time>2011-05-01T07:57:04Z</time>
      </trkpt>
      <trkpt lat="47.44329" lon="0.84636">
        <ele>144</ele>
        <time>2011-05-01T07:57:06Z</time>
      </trkpt>
      <trkpt lat="47.44323" lon="0.84636">
        <ele>143</ele>
        <time>2011-05-01T07:57:08Z</time>
      </trkpt>
      <trkpt lat="47.44316" lon="0.84636">
        <ele>144</ele>
        <time>2011-05-01T07:57:10Z</time>
      </trkpt>
      <trkpt lat="47.4431" lon="0.84635">
        <ele>143</ele>
        <time>2011-05-01T07:57:12Z</time>
      </trkpt>
      <trkpt lat="47.44304" lon="0.84634">
        <ele>143</ele>
        <time>2011-05-01T07:57:14Z</time>
      </trkpt>
      <trkpt lat="47.44298" lon="0.84633">
        <ele>143</ele>
        <time>2011-05-01T07:57:16Z</time>
      </trkpt>
      <trkpt lat="47.44292" lon="0.84633">
        <ele>144</ele>
        <time>2011-05-01T07:57:18Z</time>
      </trkpt>
      <trkpt lat="47.44286" lon="0.84633">
        <ele>143</ele>
        <time>2011-05-01T07:57:20Z</time>
      </trkpt>
      <trkpt lat="47.4428" lon="0.84633">
        <ele>144</ele>
        <time>2011-05-01T07:57:22Z</time>
      </trkpt>
      <trkpt lat="47.44274" lon="0.84634">
        <ele>144</ele>
        <time>2011-05-01T07:57:24Z</time>
      </trkpt>
      <trkpt lat="47.44268" lon="0.84635">
        <ele>144</ele>
        <time>2011-05-01T07:57:26Z</time>
      </trkpt>
      <trkpt lat="47.44261" lon="0.84635">
        <ele>144</ele>
        <time>2011-05-01T07:57:28Z</time>
      </trkpt>
      <trkpt lat="47.44255" lon="0.84636">
        <ele>144</ele>
        <time>2011-05-01T07:57:30Z</time>
      </trkpt>
      <trkpt lat="47.44249" lon="0.84636">
        <ele>145</ele>
        <time>2011-05-01T07:57:32Z</time>
      </trkpt>
      <trkpt lat="47.44242" lon="0.84637">
        <ele>145</ele>
        <time>2011-05-01T07:57:34Z</time>
      </trkpt>
      <trkpt lat="47.44236" lon="0.84638">
        <ele>146</ele>
        <time>2011-05-01T07:57:36Z</time>
      </trkpt>
      <trkpt lat="47.44231" lon="0.84638">
        <ele>146</ele>
        <time>2011-05-01T07:57:38Z</time>
      </trkpt>
      <trkpt lat="47.44225" lon="0.84639">
        <ele>146</ele>
        <time>2011-05-01T07:57:40Z</time>
      </trkpt>
      <trkpt lat="47.44218" lon="0.84639">
        <ele>146</ele>
        <time>2011-05-01T07:57:42Z</time>
      </trkpt>
      <trkpt lat="47.44212" lon="0.8464">
        <ele>147</ele>
        <time>2011-05-01T07:57:44Z</time>
      </trkpt>
      <trkpt lat="47.44205" lon="0.8464">
        <ele>147</ele>
        <time>2011-05-01T07:57:46Z</time>
      </trkpt>
      <trkpt lat="47.44199" lon="0.84641">
        <ele>147</ele>
        <time>2011-05-01T07:57:48Z</time>
      </trkpt>
      <trkpt lat="47.44193" lon="0.84641">
        <ele>148</ele>
        <time>2011-05-01T07:57:50Z</time>
      </trkpt>
      <trkpt lat="47.44187" lon="0.84642">
        <ele>148</ele>
        <time>2011-05-01T07:57:52Z</time>
      </trkpt>
      <trkpt lat="47.44181" lon="0.84644">
        <ele>149</ele>
        <time>2011-05-01T07:57:55Z</time>
      </trkpt>
      <trkpt lat="47.44176" lon="0.84645">
        <ele>149</ele>
        <time>2011-05-01T07:57:57Z</time>
      </trkpt>
      <trkpt lat="47.4417" lon="0.84648">
        <ele>149</ele>
        <time>2011-05-01T07:57:59Z</time>
      </trkpt>
      <trkpt lat="47.44164" lon="0.8465">
        <ele>149</ele>
        <time>2011-05-01T07:58:01Z</time>
      </trkpt>
      <trkpt lat="47.44157" lon="0.84652">
        <ele>150</ele>
        <time>2011-05-01T07:58:03Z</time>
      </trkpt>
      <trkpt lat="47.4415" lon="0.84654">
        <ele>150</ele>
        <time>2011-05-01T07:58:05Z</time>
      </trkpt>
      <trkpt lat="47.44142" lon="0.84657">
        <ele>150</ele>
        <time>2011-05-01T07:58:07Z</time>
      </trkpt>
      <trkpt lat="47.44136" lon="0.84661">
        <ele>151</ele>
        <time>2011-05-01T07:58:09Z</time>
      </trkpt>
      <trkpt lat="47.4413" lon="0.84668">
        <ele>151</ele>
        <time>2011-05-01T07:58:11Z</time>
      </trkpt>
      <trkpt lat="47.44125" lon="0.84676">
        <ele>152</ele>
        <time>2011-05-01T07:58:13Z</time>
      </trkpt>
      <trkpt lat="47.4412" lon="0.84685">
        <ele>152</ele>
        <time>2011-05-01T07:58:15Z</time>
      </trkpt>
      <trkpt lat="47.44116" lon="0.84694">
        <ele>152</ele>
        <time>2011-05-01T07:58:17Z</time>
      </trkpt>
      <trkpt lat="47.44111" lon="0.84703">
        <ele>152</ele>
        <time>2011-05-01T07:58:19Z</time>
      </trkpt>
      <trkpt lat="47.44106" lon="0.84712">
        <ele>153</ele>
        <time>2011-05-01T07:58:21Z</time>
      </trkpt>
      <trkpt lat="47.44101" lon="0.84721">
        <ele>153</ele>
        <time>2011-05-01T07:58:23Z</time>
      </trkpt>
      <trkpt lat="47.44096" lon="0.84731">
        <ele>153</ele>
        <time>2011-05-01T07:58:25Z</time>
      </trkpt>
      <trkpt lat="47.44093" lon="0.84737">
        <ele>153</ele>
        <time>2011-05-01T07:58:26Z</time>
      </trkpt>
      <trkpt lat="47.4409" lon="0.84742">
        <ele>153</ele>
        <time>2011-05-01T07:58:27Z</time>
      </trkpt>
      <trkpt lat="47.44085" lon="0.84752">
        <ele>153</ele>
        <time>2011-05-01T07:58:29Z</time>
      </trkpt>
      <trkpt lat="47.44082" lon="0.84758">
        <ele>153</ele>
        <time>2011-05-01T07:58:30Z</time>
      </trkpt>
      <trkpt lat="47.44077" lon="0.84768">
        <ele>153</ele>
        <time>2011-05-01T07:58:32Z</time>
      </trkpt>
      <trkpt lat="47.44072" lon="0.84778">
        <ele>153</ele>
        <time>2011-05-01T07:58:34Z</time>
      </trkpt>
      <trkpt lat="47.44069" lon="0.84784">
        <ele>153</ele>
        <time>2011-05-01T07:58:35Z</time>
      </trkpt>
      <trkpt lat="47.44066" lon="0.84789">
        <ele>153</ele>
        <time>2011-05-01T07:58:36Z</time>
      </trkpt>
      <trkpt lat="47.44064" lon="0.84795">
        <ele>153</ele>
        <time>2011-05-01T07:58:37Z</time>
      </trkpt>
      <trkpt lat="47.44062" lon="0.84802">
        <ele>152</ele>
        <time>2011-05-01T07:58:38Z</time>
      </trkpt>
      <trkpt lat="47.4406" lon="0.84808">
        <ele>152</ele>
        <time>2011-05-01T07:58:39Z</time>
      </trkpt>
      <trkpt lat="47.44057" lon="0.84815">
        <ele>152</ele>
        <time>2011-05-01T07:58:40Z</time>
      </trkpt>
      <trkpt lat="47.44054" lon="0.84823">
        <ele>152</ele>
        <time>2011-05-01T07:58:41Z</time>
      </trkpt>
      <trkpt lat="47.44051" lon="0.84831">
        <ele>152</ele>
        <time>2011-05-01T07:58:42Z</time>
      </trkpt>
      <trkpt lat="47.44048" lon="0.84838">
        <ele>152</ele>
        <time>2011-05-01T07:58:43Z</time>
      </trkpt>
      <trkpt lat="47.44045" lon="0.84845">
        <ele>152</ele>
        <time>2011-05-01T07:58:44Z</time>
      </trkpt>
      <trkpt lat="47.44043" lon="0.84854">
        <ele>152</ele>
        <time>2011-05-01T07:58:45Z</time>
      </trkpt>
      <trkpt lat="47.44041" lon="0.84863">
        <ele>151</ele>
        <time>2011-05-01T07:58:46Z</time>
      </trkpt>
      <trkpt lat="47.44038" lon="0.84872">
        <ele>151</ele>
        <time>2011-05-01T07:58:47Z</time>
      </trkpt>
      <trkpt lat="47.44036" lon="0.84881">
        <ele>150</ele>
        <time>2011-05-01T07:58:48Z</time>
      </trkpt>
      <trkpt lat="47.44033" lon="0.84889">
        <ele>150</ele>
        <time>2011-05-01T07:58:49Z</time>
      </trkpt>
      <trkpt lat="47.4403" lon="0.84897">
        <ele>150</ele>
        <time>2011-05-01T07:58:50Z</time>
      </trkpt>
      <trkpt lat="47.44028" lon="0.84906">
        <ele>150</ele>
        <time>2011-05-01T07:58:51Z</time>
      </trkpt>
      <trkpt lat="47.44026" lon="0.84914">
        <ele>149</ele>
        <time>2011-05-01T07:58:52Z</time>
      </trkpt>
      <trkpt lat="47.44024" lon="0.84924">
        <ele>149</ele>
        <time>2011-05-01T07:58:53Z</time>
      </trkpt>
      <trkpt lat="47.44021" lon="0.84932">
        <ele>148</ele>
        <time>2011-05-01T07:58:54Z</time>
      </trkpt>
      <trkpt lat="47.44018" lon="0.84941">
        <ele>148</ele>
        <time>2011-05-01T07:58:55Z</time>
      </trkpt>
      <trkpt lat="47.44014" lon="0.8495">
        <ele>147</ele>
        <time>2011-05-01T07:58:56Z</time>
      </trkpt>
      <trkpt lat="47.4401" lon="0.84959">
        <ele>147</ele>
        <time>2011-05-01T07:58:57Z</time>
      </trkpt>
      <trkpt lat="47.44006" lon="0.84968">
        <ele>147</ele>
        <time>2011-05-01T07:58:58Z</time>
      </trkpt>
      <trkpt lat="47.44002" lon="0.84977">
        <ele>147</ele>
        <time>2011-05-01T07:58:59Z</time>
      </trkpt>
      <trkpt lat="47.43998" lon="0.84986">
        <ele>146</ele>
        <time>2011-05-01T07:59:00Z</time>
      </trkpt>
      <trkpt lat="47.43994" lon="0.84993">
        <ele>146</ele>
        <time>2011-05-01T07:59:01Z</time>
      </trkpt>
      <trkpt lat="47.43991" lon="0.85002">
        <ele>145</ele>
        <time>2011-05-01T07:59:03Z</time>
      </trkpt>
      <trkpt lat="47.43991" lon="0.8501">
        <ele>145</ele>
        <time>2011-05-01T07:59:06Z</time>
      </trkpt>
      <trkpt lat="47.43994" lon="0.85017">
        <ele>145</ele>
        <time>2011-05-01T07:59:08Z</time>
      </trkpt>
      <trkpt lat="47.44" lon="0.85025">
        <ele>145</ele>
        <time>2011-05-01T07:59:10Z</time>
      </trkpt>
      <trkpt lat="47.44004" lon="0.85029">
        <ele>144</ele>
        <time>2011-05-01T07:59:11Z</time>
      </trkpt>
      <trkpt lat="47.44008" lon="0.85034">
        <ele>144</ele>
        <time>2011-05-01T07:59:12Z</time>
      </trkpt>
      <trkpt lat="47.44012" lon="0.85039">
        <ele>144</ele>
        <time>2011-05-01T07:59:13Z</time>
      </trkpt>
      <trkpt lat="47.44017" lon="0.85045">
        <ele>144</ele>
        <time>2011-05-01T07:59:14Z</time>
      </trkpt>
      <trkpt lat="47.44022" lon="0.8505">
        <ele>143</ele>
        <time>2011-05-01T07:59:15Z</time>
      </trkpt>
      <trkpt lat="47.44027" lon="0.85056">
        <ele>143</ele>
        <time>2011-05-01T07:59:16Z</time>
      </trkpt>
      <trkpt lat="47.44033" lon="0.85061">
        <ele>143</ele>
        <time>2011-05-01T07:59:17Z</time>
      </trkpt>
      <trkpt lat="47.44038" lon="0.85067">
        <ele>143</ele>
        <time>2011-05-01T07:59:18Z</time>
      </trkpt>
      <trkpt lat="47.44043" lon="0.85073">
        <ele>143</ele>
        <time>2011-05-01T07:59:19Z</time>
      </trkpt>
      <trkpt lat="47.44048" lon="0.8508">
        <ele>143</ele>
        <time>2011-05-01T07:59:20Z</time>
      </trkpt>
      <trkpt lat="47.44052" lon="0.85086">
        <ele>143</ele>
        <time>2011-05-01T07:59:21Z</time>
      </trkpt>
      <trkpt lat="47.44056" lon="0.85091">
        <ele>143</ele>
        <time>2011-05-01T07:59:22Z</time>
      </trkpt>
      <trkpt lat="47.44061" lon="0.85097">
        <ele>143</ele>
        <time>2011-05-01T07:59:23Z</time>
      </trkpt>
      <trkpt lat="47.44064" lon="0.85103">
        <ele>144</ele>
        <time>2011-05-01T07:59:24Z</time>
      </trkpt>
      <trkpt lat="47.44068" lon="0.85108">
        <ele>144</ele>
        <time>2011-05-01T07:59:25Z</time>
      </trkpt>
      <trkpt lat="47.44072" lon="0.85113">
        <ele>144</ele>
        <time>2011-05-01T07:59:26Z</time>
      </trkpt>
      <trkpt lat="47.44076" lon="0.85118">
        <ele>144</ele>
        <time>2011-05-01T07:59:27Z</time>
      </trkpt>
      <trkpt lat="47.4408" lon="0.85124">
        <ele>145</ele>
        <time>2011-05-01T07:59:28Z</time>
      </trkpt>
      <trkpt lat="47.44084" lon="0.85129">
        <ele>145</ele>
        <time>2011-05-01T07:59:29Z</time>
      </trkpt>
      <trkpt lat="47.44087" lon="0.85135">
        <ele>145</ele>
        <time>2011-05-01T07:59:30Z</time>
      </trkpt>
      <trkpt lat="47.44091" lon="0.8514">
        <ele>145</ele>
        <time>2011-05-01T07:59:31Z</time>
      </trkpt>
      <trkpt lat="47.44094" lon="0.85146">
        <ele>145</ele>
        <time>2011-05-01T07:59:32Z</time>
      </trkpt>
      <trkpt lat="47.44096" lon="0.85153">
        <ele>145</ele>
        <time>2011-05-01T07:59:33Z</time>
      </trkpt>
      <trkpt lat="47.44099" lon="0.85161">
        <ele>145</ele>
        <time>2011-05-01T07:59:34Z</time>
      </trkpt>
      <trkpt lat="47.44102" lon="0.85168">
        <ele>145</ele>
        <time>2011-05-01T07:59:35Z</time>
      </trkpt>
      <trkpt lat="47.44104" lon="0.85176">
        <ele>145</ele>
        <time>2011-05-01T07:59:36Z</time>
      </trkpt>
      <trkpt lat="47.44105" lon="0.85183">
        <ele>145</ele>
        <time>2011-05-01T07:59:37Z</time>
      </trkpt>
      <trkpt lat="47.44106" lon="0.85191">
        <ele>145</ele>
        <time>2011-05-01T07:59:38Z</time>
      </trkpt>
      <trkpt lat="47.44107" lon="0.85199">
        <ele>145</ele>
        <time>2011-05-01T07:59:39Z</time>
      </trkpt>
      <trkpt lat="47.44107" lon="0.85206">
        <ele>144</ele>
        <time>2011-05-01T07:59:40Z</time>
      </trkpt>
      <trkpt lat="47.44107" lon="0.85215">
        <ele>144</ele>
        <time>2011-05-01T07:59:41Z</time>
      </trkpt>
      <trkpt lat="47.44107" lon="0.85224">
        <ele>144</ele>
        <time>2011-05-01T07:59:42Z</time>
      </trkpt>
      <trkpt lat="47.44106" lon="0.85233">
        <ele>143</ele>
        <time>2011-05-01T07:59:43Z</time>
      </trkpt>
      <trkpt lat="47.44106" lon="0.85242">
        <ele>143</ele>
        <time>2011-05-01T07:59:44Z</time>
      </trkpt>
      <trkpt lat="47.44105" lon="0.85252">
        <ele>142</ele>
        <time>2011-05-01T07:59:45Z</time>
      </trkpt>
      <trkpt lat="47.44104" lon="0.85262">
        <ele>142</ele>
        <time>2011-05-01T07:59:46Z</time>
      </trkpt>
      <trkpt lat="47.44105" lon="0.8527">
        <ele>142</ele>
        <time>2011-05-01T07:59:47Z</time>
      </trkpt>
      <trkpt lat="47.44108" lon="0.85276">
        <ele>142</ele>
        <time>2011-05-01T07:59:48Z</time>
      </trkpt>
      <trkpt lat="47.44113" lon="0.85281">
        <ele>142</ele>
        <time>2011-05-01T07:59:49Z</time>
      </trkpt>
      <trkpt lat="47.44117" lon="0.85284">
        <ele>142</ele>
        <time>2011-05-01T07:59:50Z</time>
      </trkpt>
      <trkpt lat="47.44122" lon="0.85287">
        <ele>142</ele>
        <time>2011-05-01T07:59:51Z</time>
      </trkpt>
      <trkpt lat="47.44127" lon="0.85289">
        <ele>142</ele>
        <time>2011-05-01T07:59:52Z</time>
      </trkpt>
      <trkpt lat="47.44133" lon="0.85291">
        <ele>142</ele>
        <time>2011-05-01T07:59:53Z</time>
      </trkpt>
      <trkpt lat="47.44138" lon="0.85293">
        <ele>143</ele>
        <time>2011-05-01T07:59:54Z</time>
      </trkpt>
      <trkpt lat="47.44144" lon="0.85293">
        <ele>143</ele>
        <time>2011-05-01T07:59:55Z</time>
      </trkpt>
      <trkpt lat="47.4415" lon="0.85294">
        <ele>143</ele>
        <time>2011-05-01T07:59:56Z</time>
      </trkpt>
      <trkpt lat="47.44156" lon="0.85294">
        <ele>144</ele>
        <time>2011-05-01T07:59:57Z</time>
      </trkpt>
      <trkpt lat="47.44161" lon="0.85295">
        <ele>144</ele>
        <time>2011-05-01T07:59:58Z</time>
      </trkpt>
      <trkpt lat="47.44167" lon="0.85295">
        <ele>144</ele>
        <time>2011-05-01T07:59:59Z</time>
      </trkpt>
      <trkpt lat="47.44173" lon="0.85295">
        <ele>144</ele>
        <time>2011-05-01T08:00:00Z</time>
      </trkpt>
      <trkpt lat="47.44179" lon="0.85295">
        <ele>144</ele>
        <time>2011-05-01T08:00:01Z</time>
      </trkpt>
      <trkpt lat="47.44184" lon="0.85295">
        <ele>144</ele>
        <time>2011-05-01T08:00:02Z</time>
      </trkpt>
      <trkpt lat="47.44189" lon="0.85295">
        <ele>144</ele>
        <time>2011-05-01T08:00:03Z</time>
      </trkpt>
      <trkpt lat="47.44195" lon="0.85294">
        <ele>144</ele>
        <time>2011-05-01T08:00:04Z</time>
      </trkpt>
      <trkpt lat="47.442" lon="0.85294">
        <ele>144</ele>
        <time>2011-05-01T08:00:05Z</time>
      </trkpt>
      <trkpt lat="47.44204" lon="0.85294">
        <ele>144</ele>
        <time>2011-05-01T08:00:06Z</time>
      </trkpt>
      <trkpt lat="47.44209" lon="0.85294">
        <ele>144</ele>
        <time>2011-05-01T08:00:07Z</time>
      </trkpt>
      <trkpt lat="47.44214" lon="0.85294">
        <ele>144</ele>
        <time>2011-05-01T08:00:08Z</time>
      </trkpt>
      <trkpt lat="47.44219" lon="0.85294">
        <ele>144</ele>
        <time>2011-05-01T08:00:09Z</time>
      </trkpt>
      <trkpt lat="47.44225" lon="0.85293">
        <ele>143</ele>
        <time>2011-05-01T08:00:10Z</time>
      </trkpt>
      <trkpt lat="47.44231" lon="0.85294">
        <ele>143</ele>
        <time>2011-05-01T08:00:11Z</time>
      </trkpt>
      <trkpt lat="47.44236" lon="0.85294">
        <ele>143</ele>
        <time>2011-05-01T08:00:12Z</time>
      </trkpt>
      <trkpt lat="47.44242" lon="0.85293">
        <ele>143</ele>
        <time>2011-05-01T08:00:13Z</time>
      </trkpt>
      <trkpt lat="47.44248" lon="0.85292">
        <ele>143</ele>
        <time>2011-05-01T08:00:14Z</time>
      </trkpt>
      <trkpt lat="47.44254" lon="0.85292">
        <ele>143</ele>
        <time>2011-05-01T08:00:15Z</time>
      </trkpt>
      <trkpt lat="47.4426" lon="0.8529">
        <ele>142</ele>
        <time>2011-05-01T08:00:16Z</time>
      </trkpt>
      <trkpt lat="47.44266" lon="0.85289">
        <ele>142</ele>
        <time>2011-05-01T08:00:17Z</time>
      </trkpt>
      <trkpt lat="47.44271" lon="0.85288">
        <ele>143</ele>
        <time>2011-05-01T08:00:18Z</time>
      </trkpt>
      <trkpt lat="47.44277" lon="0.85287">
        <ele>143</ele>
        <time>2011-05-01T08:00:19Z</time>
      </trkpt>
      <trkpt lat="47.44284" lon="0.85287">
        <ele>143</ele>
        <time>2011-05-01T08:00:20Z</time>
      </trkpt>
      <trkpt lat="47.4429" lon="0.85287">
        <ele>143</ele>
        <time>2011-05-01T08:00:21Z</time>
      </trkpt>
      <trkpt lat="47.44296" lon="0.85289">
        <ele>143</ele>
        <time>2011-05-01T08:00:22Z</time>
      </trkpt>
      <trkpt lat="47.44302" lon="0.8529">
        <ele>143</ele>
        <time>2011-05-01T08:00:23Z</time>
      </trkpt>
      <trkpt lat="47.44307" lon="0.85294">
        <ele>143</ele>
        <time>2011-05-01T08:00:24Z</time>
      </trkpt>
      <trkpt lat="47.44311" lon="0.85299">
        <ele>142</ele>
        <time>2011-05-01T08:00:26Z</time>
      </trkpt>
      <trkpt lat="47.4431" lon="0.85306">
        <ele>142</ele>
        <time>2011-05-01T08:00:28Z</time>
      </trkpt>
      <trkpt lat="47.44307" lon="0.85313">
        <ele>142</ele>
        <time>2011-05-01T08:00:29Z</time>
      </trkpt>
      <trkpt lat="47.44305" lon="0.85319">
        <ele>142</ele>
        <time>2011-05-01T08:00:30Z</time>
      </trkpt>
      <trkpt lat="47.44302" lon="0.85324">
        <ele>142</ele>
        <time>2011-05-01T08:00:31Z</time>
      </trkpt>
      <trkpt lat="47.44298" lon="0.8533">
        <ele>142</ele>
        <time>2011-05-01T08:00:32Z</time>
      </trkpt>
      <trkpt lat="47.44294" lon="0.85337">
        <ele>142</ele>
        <time>2011-05-01T08:00:33Z</time>
      </trkpt>
      <trkpt lat="47.44291" lon="0.85344">
        <ele>142</ele>
        <time>2011-05-01T08:00:34Z</time>
      </trkpt>
      <trkpt lat="47.44286" lon="0.85353">
        <ele>142</ele>
        <time>2011-05-01T08:00:35Z</time>
      </trkpt>
      <trkpt lat="47.44284" lon="0.85363">
        <ele>142</ele>
        <time>2011-05-01T08:00:36Z</time>
      </trkpt>
      <trkpt lat="47.44282" lon="0.85375">
        <ele>142</ele>
        <time>2011-05-01T08:00:37Z</time>
      </trkpt>
      <trkpt lat="47.44279" lon="0.85387">
        <ele>140</ele>
        <time>2011-05-01T08:00:38Z</time>
      </trkpt>
      <trkpt lat="47.44278" lon="0.85402">
        <ele>139</ele>
        <time>2011-05-01T08:00:39Z</time>
      </trkpt>
      <trkpt lat="47.44277" lon="0.85414">
        <ele>138</ele>
        <time>2011-05-01T08:00:40Z</time>
      </trkpt>
      <trkpt lat="47.44276" lon="0.85429">
        <ele>137</ele>
        <time>2011-05-01T08:00:41Z</time>
      </trkpt>
      <trkpt lat="47.44276" lon="0.85442">
        <ele>137</ele>
        <time>2011-05-01T08:00:42Z</time>
      </trkpt>
      <trkpt lat="47.44275" lon="0.85457">
        <ele>136</ele>
        <time>2011-05-01T08:00:43Z</time>
      </trkpt>
      <trkpt lat="47.44275" lon="0.85471">
        <ele>134</ele>
        <time>2011-05-01T08:00:44Z</time>
      </trkpt>
      <trkpt lat="47.44275" lon="0.85485">
        <ele>133</ele>
        <time>2011-05-01T08:00:45Z</time>
      </trkpt>
      <trkpt lat="47.44274" lon="0.85499">
        <ele>132</ele>
        <time>2011-05-01T08:00:46Z</time>
      </trkpt>
      <trkpt lat="47.44272" lon="0.8551">
        <ele>130</ele>
        <time>2011-05-01T08:00:47Z</time>
      </trkpt>
      <trkpt lat="47.44271" lon="0.8552">
        <ele>129</ele>
        <time>2011-05-01T08:00:48Z</time>
      </trkpt>
      <trkpt lat="47.4427" lon="0.85527">
        <ele>129</ele>
        <time>2011-05-01T08:00:49Z</time>
      </trkpt>
      <trkpt lat="47.44269" lon="0.85537">
        <ele>128</ele>
        <time>2011-05-01T08:00:51Z</time>
      </trkpt>
      <trkpt lat="47.44266" lon="0.85544">
        <ele>127</ele>
        <time>2011-05-01T08:00:53Z</time>
      </trkpt>
      <trkpt lat="47.44259" lon="0.85545">
        <ele>127</ele>
        <time>2011-05-01T08:00:55Z</time>
      </trkpt>
      <trkpt lat="47.4425" lon="0.85544">
        <ele>126</ele>
        <time>2011-05-01T08:00:57Z</time>
      </trkpt>
      <trkpt lat="47.44246" lon="0.85543">
        <ele>126</ele>
        <time>2011-05-01T08:00:58Z</time>
      </trkpt>
      <trkpt lat="47.44241" lon="0.85542">
        <ele>126</ele>
        <time>2011-05-01T08:00:59Z</time>
      </trkpt>
      <trkpt lat="47.44236" lon="0.85541">
        <ele>125</ele>
        <time>2011-05-01T08:01:00Z</time>
      </trkpt>
      <trkpt lat="47.44231" lon="0.8554">
        <ele>125</ele>
        <time>2011-05-01T08:01:01Z</time>
      </trkpt>
      <trkpt lat="47.44226" lon="0.8554">
        <ele>125</ele>
        <time>2011-05-01T08:01:02Z</time>
      </trkpt>
      <trkpt lat="47.44221" lon="0.85538">
        <ele>125</ele>
        <time>2011-05-01T08:01:03Z</time>
      </trkpt>
      <trkpt lat="47.44216" lon="0.85538">
        <ele>125</ele>
        <time>2011-05-01T08:01:04Z</time>
      </trkpt>
      <trkpt lat="47.4421" lon="0.85538">
        <ele>125</ele>
        <time>2011-05-01T08:01:05Z</time>
      </trkpt>
      <trkpt lat="47.44205" lon="0.85538">
        <ele>124</ele>
        <time>2011-05-01T08:01:06Z</time>
      </trkpt>
      <trkpt lat="47.44196" lon="0.85537">
        <ele>124</ele>
        <time>2011-05-01T08:01:08Z</time>
      </trkpt>
      <trkpt lat="47.44192" lon="0.85538">
        <ele>124</ele>
        <time>2011-05-01T08:01:09Z</time>
      </trkpt>
      <trkpt lat="47.44187" lon="0.85538">
        <ele>124</ele>
        <time>2011-05-01T08:01:10Z</time>
      </trkpt>
      <trkpt lat="47.44182" lon="0.85538">
        <ele>124</ele>
        <time>2011-05-01T08:01:11Z</time>
      </trkpt>
      <trkpt lat="47.44176" lon="0.85538">
        <ele>124</ele>
        <time>2011-05-01T08:01:12Z</time>
      </trkpt>
      <trkpt lat="47.44171" lon="0.85539">
        <ele>124</ele>
        <time>2011-05-01T08:01:13Z</time>
      </trkpt>
      <trkpt lat="47.44165" lon="0.8554">
        <ele>123</ele>
        <time>2011-05-01T08:01:14Z</time>
      </trkpt>
      <trkpt lat="47.44159" lon="0.8554">
        <ele>123</ele>
        <time>2011-05-01T08:01:15Z</time>
      </trkpt>
      <trkpt lat="47.44153" lon="0.85542">
        <ele>122</ele>
        <time>2011-05-01T08:01:16Z</time>
      </trkpt>
      <trkpt lat="47.44147" lon="0.85542">
        <ele>121</ele>
        <time>2011-05-01T08:01:17Z</time>
      </trkpt>
      <trkpt lat="47.44142" lon="0.85539">
        <ele>121</ele>
        <time>2011-05-01T08:01:18Z</time>
      </trkpt>
      <trkpt lat="47.44136" lon="0.85535">
        <ele>121</ele>
        <time>2011-05-01T08:01:19Z</time>
      </trkpt>
      <trkpt lat="47.44131" lon="0.85531">
        <ele>121</ele>
        <time>2011-05-01T08:01:20Z</time>
      </trkpt>
      <trkpt lat="47.44126" lon="0.85526">
        <ele>121</ele>
        <time>2011-05-01T08:01:21Z</time>
      </trkpt>
      <trkpt lat="47.44121" lon="0.85522">
        <ele>121</ele>
        <time>2011-05-01T08:01:22Z</time>
      </trkpt>
      <trkpt lat="47.44116" lon="0.85518">
        <ele>121</ele>
        <time>2011-05-01T08:01:23Z</time>
      </trkpt>
      <trkpt lat="47.4411" lon="0.85514">
        <ele>121</ele>
        <time>2011-05-01T08:01:24Z</time>
      </trkpt>
      <trkpt lat="47.44107" lon="0.85509">
        <ele>121</ele>
        <time>2011-05-01T08:01:25Z</time>
      </trkpt>
      <trkpt lat="47.44101" lon="0.85506">
        <ele>119</ele>
        <time>2011-05-01T08:01:26Z</time>
      </trkpt>
      <trkpt lat="47.44097" lon="0.855">
        <ele>120</ele>
        <time>2011-05-01T08:01:27Z</time>
      </trkpt>
      <trkpt lat="47.44092" lon="0.85493">
        <ele>120</ele>
        <time>2011-05-01T08:01:28Z</time>
      </trkpt>
      <trkpt lat="47.44088" lon="0.85487">
        <ele>118</ele>
        <time>2011-05-01T08:01:29Z</time>
      </trkpt>
      <trkpt lat="47.44083" lon="0.85481">
        <ele>118</ele>
        <time>2011-05-01T08:01:30Z</time>
      </trkpt>
      <trkpt lat="47.44078" lon="0.85476">
        <ele>119</ele>
        <time>2011-05-01T08:01:31Z</time>
      </trkpt>
      <trkpt lat="47.44074" lon="0.85469">
        <ele>119</ele>
        <time>2011-05-01T08:01:32Z</time>
      </trkpt>
      <trkpt lat="47.44068" lon="0.85464">
        <ele>118</ele>
        <time>2011-05-01T08:01:33Z</time>
      </trkpt>
      <trkpt lat="47.44063" lon="0.85459">
        <ele>118</ele>
        <time>2011-05-01T08:01:34Z</time>
      </trkpt>
      <trkpt lat="47.44058" lon="0.85454">
        <ele>117</ele>
        <time>2011-05-01T08:01:35Z</time>
      </trkpt>
      <trkpt lat="47.44053" lon="0.85448">
        <ele>117</ele>
        <time>2011-05-01T08:01:36Z</time>
      </trkpt>
      <trkpt lat="47.44049" lon="0.85442">
        <ele>118</ele>
        <time>2011-05-01T08:01:37Z</time>
      </trkpt>
      <trkpt lat="47.44044" lon="0.85437">
        <ele>117</ele>
        <time>2011-05-01T08:01:38Z</time>
      </trkpt>
      <trkpt lat="47.4404" lon="0.8543">
        <ele>117</ele>
        <time>2011-05-01T08:01:39Z</time>
      </trkpt>
      <trkpt lat="47.44036" lon="0.85425">
        <ele>117</ele>
        <time>2011-05-01T08:01:40Z</time>
      </trkpt>
      <trkpt lat="47.44032" lon="0.85417">
        <ele>118</ele>
        <time>2011-05-01T08:01:41Z</time>
      </trkpt>
      <trkpt lat="47.44027" lon="0.85412">
        <ele>117</ele>
        <time>2011-05-01T08:01:42Z</time>
      </trkpt>
      <trkpt lat="47.44022" lon="0.85405">
        <ele>116</ele>
        <time>2011-05-01T08:01:43Z</time>
      </trkpt>
      <trkpt lat="47.44017" lon="0.85399">
        <ele>116</ele>
        <time>2011-05-01T08:01:44Z</time>
      </trkpt>
      <trkpt lat="47.44012" lon="0.85394">
        <ele>116</ele>
        <time>2011-05-01T08:01:45Z</time>
      </trkpt>
      <trkpt lat="47.44008" lon="0.85387">
        <ele>115</ele>
        <time>2011-05-01T08:01:46Z</time>
      </trkpt>
      <trkpt lat="47.44002" lon="0.85381">
        <ele>116</ele>
        <time>2011-05-01T08:01:47Z</time>
      </trkpt>
      <trkpt lat="47.43997" lon="0.85374">
        <ele>116</ele>
        <time>2011-05-01T08:01:48Z</time>
      </trkpt>
      <trkpt lat="47.43992" lon="0.85368">
        <ele>115</ele>
        <time>2011-05-01T08:01:49Z</time>
      </trkpt>
      <trkpt lat="47.43987" lon="0.85361">
        <ele>115</ele>
        <time>2011-05-01T08:01:50Z</time>
      </trkpt>
      <trkpt lat="47.43982" lon="0.85354">
        <ele>114</ele>
        <time>2011-05-01T08:01:51Z</time>
      </trkpt>
      <trkpt lat="47.43977" lon="0.85346">
        <ele>114</ele>
        <time>2011-05-01T08:01:52Z</time>
      </trkpt>
      <trkpt lat="47.43973" lon="0.8534">
        <ele>113</ele>
        <time>2011-05-01T08:01:53Z</time>
      </trkpt>
      <trkpt lat="47.43969" lon="0.85333">
        <ele>114</ele>
        <time>2011-05-01T08:01:54Z</time>
      </trkpt>
      <trkpt lat="47.43965" lon="0.85325">
        <ele>113</ele>
        <time>2011-05-01T08:01:55Z</time>
      </trkpt>
      <trkpt lat="47.43962" lon="0.85317">
        <ele>113</ele>
        <time>2011-05-01T08:01:56Z</time>
      </trkpt>
      <trkpt lat="47.43959" lon="0.8531">
        <ele>114</ele>
        <time>2011-05-01T08:01:57Z</time>
      </trkpt>
      <trkpt lat="47.43956" lon="0.85301">
        <ele>114</ele>
        <time>2011-05-01T08:01:58Z</time>
      </trkpt>
      <trkpt lat="47.43953" lon="0.85294">
        <ele>115</ele>
        <time>2011-05-01T08:01:59Z</time>
      </trkpt>
      <trkpt lat="47.4395" lon="0.85285">
        <ele>116</ele>
        <time>2011-05-01T08:02:00Z</time>
      </trkpt>
      <trkpt lat="47.43947" lon="0.85277">
        <ele>116</ele>
        <time>2011-05-01T08:02:01Z</time>
      </trkpt>
      <trkpt lat="47.43945" lon="0.85269">
        <ele>116</ele>
        <time>2011-05-01T08:02:02Z</time>
      </trkpt>
      <trkpt lat="47.43943" lon="0.85262">
        <ele>116</ele>
        <time>2011-05-01T08:02:03Z</time>
      </trkpt>
      <trkpt lat="47.4394" lon="0.85254">
        <ele>116</ele>
        <time>2011-05-01T08:02:04Z</time>
      </trkpt>
      <trkpt lat="47.43937" lon="0.85248">
        <ele>117</ele>
        <time>2011-05-01T08:02:05Z</time>
      </trkpt>
      <trkpt lat="47.43934" lon="0.8524">
        <ele>117</ele>
        <time>2011-05-01T08:02:06Z</time>
      </trkpt>
      <trkpt lat="47.43932" lon="0.85232">
        <ele>116</ele>
        <time>2011-05-01T08:02:07Z</time>
      </trkpt>
      <trkpt lat="47.43927" lon="0.85227">
        <ele>116</ele>
        <time>2011-05-01T08:02:08Z</time>
      </trkpt>
      <trkpt lat="47.43922" lon="0.85221">
        <ele>116</ele>
        <time>2011-05-01T08:02:09Z</time>
      </trkpt>
      <trkpt lat="47.43918" lon="0.85215">
        <ele>117</ele>
        <time>2011-05-01T08:02:10Z</time>
      </trkpt>
      <trkpt lat="47.43915" lon="0.85209">
        <ele>116</ele>
        <time>2011-05-01T08:02:11Z</time>
      </trkpt>
      <trkpt lat="47.4391" lon="0.85203">
        <ele>116</ele>
        <time>2011-05-01T08:02:12Z</time>
      </trkpt>
      <trkpt lat="47.43905" lon="0.85197">
        <ele>116</ele>
        <time>2011-05-01T08:02:13Z</time>
      </trkpt>
      <trkpt lat="47.43901" lon="0.85192">
        <ele>116</ele>
        <time>2011-05-01T08:02:14Z</time>
      </trkpt>
      <trkpt lat="47.43896" lon="0.85187">
        <ele>116</ele>
        <time>2011-05-01T08:02:15Z</time>
      </trkpt>
      <trkpt lat="47.4389" lon="0.85182">
        <ele>116</ele>
        <time>2011-05-01T08:02:16Z</time>
      </trkpt>
      <trkpt lat="47.43886" lon="0.85177">
        <ele>116</ele>
        <time>2011-05-01T08:02:17Z</time>
      </trkpt>
      <trkpt lat="47.43881" lon="0.85171">
        <ele>116</ele>
        <time>2011-05-01T08:02:18Z</time>
      </trkpt>
      <trkpt lat="47.43877" lon="0.85166">
        <ele>116</ele>
        <time>2011-05-01T08:02:19Z</time>
      </trkpt>
      <trkpt lat="47.43873" lon="0.85161">
        <ele>116</ele>
        <time>2011-05-01T08:02:20Z</time>
      </trkpt>
      <trkpt lat="47.43868" lon="0.85156">
        <ele>116</ele>
        <time>2011-05-01T08:02:21Z</time>
      </trkpt>
      <trkpt lat="47.43864" lon="0.85151">
        <ele>116</ele>
        <time>2011-05-01T08:02:22Z</time>
      </trkpt>
      <trkpt lat="47.43859" lon="0.85146">
        <ele>116</ele>
        <time>2011-05-01T08:02:23Z</time>
      </trkpt>
      <trkpt lat="47.43855" lon="0.8514">
        <ele>116</ele>
        <time>2011-05-01T08:02:24Z</time>
      </trkpt>
      <trkpt lat="47.4385" lon="0.85135">
        <ele>117</ele>
        <time>2011-05-01T08:02:25Z</time>
      </trkpt>
      <trkpt lat="47.43846" lon="0.8513">
        <ele>117</ele>
        <time>2011-05-01T08:02:26Z</time>
      </trkpt>
      <trkpt lat="47.43841" lon="0.85125">
        <ele>117</ele>
        <time>2011-05-01T08:02:27Z</time>
      </trkpt>
      <trkpt lat="47.43836" lon="0.85119">
        <ele>117</ele>
        <time>2011-05-01T08:02:28Z</time>
      </trkpt>
      <trkpt lat="47.43832" lon="0.85114">
        <ele>117</ele>
        <time>2011-05-01T08:02:29Z</time>
      </trkpt>
      <trkpt lat="47.43827" lon="0.85108">
        <ele>117</ele>
        <time>2011-05-01T08:02:30Z</time>
      </trkpt>
      <trkpt lat="47.43822" lon="0.85102">
        <ele>117</ele>
        <time>2011-05-01T08:02:31Z</time>
      </trkpt>
      <trkpt lat="47.43818" lon="0.85097">
        <ele>116</ele>
        <time>2011-05-01T08:02:32Z</time>
      </trkpt>
      <trkpt lat="47.43813" lon="0.85091">
        <ele>116</ele>
        <time>2011-05-01T08:02:33Z</time>
      </trkpt>
      <trkpt lat="47.43808" lon="0.85087">
        <ele>116</ele>
        <time>2011-05-01T08:02:34Z</time>
      </trkpt>
      <trkpt lat="47.43803" lon="0.85082">
        <ele>116</ele>
        <time>2011-05-01T08:02:35Z</time>
      </trkpt>
      <trkpt lat="47.43798" lon="0.85078">
        <ele>115</ele>
        <time>2011-05-01T08:02:36Z</time>
      </trkpt>
      <trkpt lat="47.43792" lon="0.85074">
        <ele>115</ele>
        <time>2011-05-01T08:02:37Z</time>
      </trkpt>
      <trkpt lat="47.43787" lon="0.8507">
        <ele>115</ele>
        <time>2011-05-01T08:02:38Z</time>
      </trkpt>
      <trkpt lat="47.43782" lon="0.85066">
        <ele>115</ele>
        <time>2011-05-01T08:02:39Z</time>
      </trkpt>
      <trkpt lat="47.43776" lon="0.85061">
        <ele>115</ele>
        <time>2011-05-01T08:02:40Z</time>
      </trkpt>
      <trkpt lat="47.43771" lon="0.85057">
        <ele>115</ele>
        <time>2011-05-01T08:02:41Z</time>
      </trkpt>
      <trkpt lat="47.43766" lon="0.85052">
        <ele>115</ele>
        <time>2011-05-01T08:02:42Z</time>
      </trkpt>
      <trkpt lat="47.43761" lon="0.85048">
        <ele>116</ele>
        <time>2011-05-01T08:02:43Z</time>
      </trkpt>
      <trkpt lat="47.43756" lon="0.85043">
        <ele>116</ele>
        <time>2011-05-01T08:02:44Z</time>
      </trkpt>
      <trkpt lat="47.4375" lon="0.85038">
        <ele>116</ele>
        <time>2011-05-01T08:02:45Z</time>
      </trkpt>
      <trkpt lat="47.43744" lon="0.85034">
        <ele>116</ele>
        <time>2011-05-01T08:02:46Z</time>
      </trkpt>
      <trkpt lat="47.43739" lon="0.85028">
        <ele>116</ele>
        <time>2011-05-01T08:02:47Z</time>
      </trkpt>
      <trkpt lat="47.43733" lon="0.85022">
        <ele>116</ele>
        <time>2011-05-01T08:02:48Z</time>
      </trkpt>
      <trkpt lat="47.43728" lon="0.85017">
        <ele>115</ele>
        <time>2011-05-01T08:02:49Z</time>
      </trkpt>
      <trkpt lat="47.43722" lon="0.85013">
        <ele>115</ele>
        <time>2011-05-01T08:02:50Z</time>
      </trkpt>
      <trkpt lat="47.43716" lon="0.85009">
        <ele>115</ele>
        <time>2011-05-01T08:02:51Z</time>
      </trkpt>
      <trkpt lat="47.4371" lon="0.85006">
        <ele>116</ele>
        <time>2011-05-01T08:02:52Z</time>
      </trkpt>
      <trkpt lat="47.43704" lon="0.85001">
        <ele>116</ele>
        <time>2011-05-01T08:02:53Z</time>
      </trkpt>
      <trkpt lat="47.43698" lon="0.84997">
        <ele>116</ele>
        <time>2011-05-01T08:02:54Z</time>
      </trkpt>
      <trkpt lat="47.43693" lon="0.84992">
        <ele>116</ele>
        <time>2011-05-01T08:02:55Z</time>
      </trkpt>
      <trkpt lat="47.43687" lon="0.84987">
        <ele>116</ele>
        <time>2011-05-01T08:02:56Z</time>
      </trkpt>
      <trkpt lat="47.43682" lon="0.84982">
        <ele>116</ele>
        <time>2011-05-01T08:02:57Z</time>
      </trkpt>
      <trkpt lat="47.43676" lon="0.84977">
        <ele>116</ele>
        <time>2011-05-01T08:02:58Z</time>
      </trkpt>
      <trkpt lat="47.43671" lon="0.84972">
        <ele>116</ele>
        <time>2011-05-01T08:02:59Z</time>
      </trkpt>
      <trkpt lat="47.43665" lon="0.84967">
        <ele>116</ele>
        <time>2011-05-01T08:03:00Z</time>
      </trkpt>
      <trkpt lat="47.4366" lon="0.84962">
        <ele>115</ele>
        <time>2011-05-01T08:03:01Z</time>
      </trkpt>
      <trkpt lat="47.43655" lon="0.84956">
        <ele>115</ele>
        <time>2011-05-01T08:03:02Z</time>
      </trkpt>
      <trkpt lat="47.4365" lon="0.84949">
        <ele>115</ele>
        <time>2011-05-01T08:03:03Z</time>
      </trkpt>
      <trkpt lat="47.43646" lon="0.84943">
        <ele>115</ele>
        <time>2011-05-01T08:03:04Z</time>
      </trkpt>
      <trkpt lat="47.43642" lon="0.84936">
        <ele>114</ele>
        <time>2011-05-01T08:03:05Z</time>
      </trkpt>
      <trkpt lat="47.43637" lon="0.84929">
        <ele>113</ele>
        <time>2011-05-01T08:03:06Z</time>
      </trkpt>
      <trkpt lat="47.43633" lon="0.84922">
        <ele>112</ele>
        <time>2011-05-01T08:03:07Z</time>
      </trkpt>
      <trkpt lat="47.43628" lon="0.84917">
        <ele>112</ele>
        <time>2011-05-01T08:03:08Z</time>
      </trkpt>
      <trkpt lat="47.43622" lon="0.84916">
        <ele>112</ele>
        <time>2011-05-01T08:03:09Z</time>
      </trkpt>
      <trkpt lat="47.43615" lon="0.84921">
        <ele>112</ele>
        <time>2011-05-01T08:03:10Z</time>
      </trkpt>
      <trkpt lat="47.43608" lon="0.84926">
        <ele>111</ele>
        <time>2011-05-01T08:03:11Z</time>
      </trkpt>
      <trkpt lat="47.436" lon="0.8493">
        <ele>111</ele>
        <time>2011-05-01T08:03:12Z</time>
      </trkpt>
      <trkpt lat="47.43593" lon="0.84935">
        <ele>110</ele>
        <time>2011-05-01T08:03:13Z</time>
      </trkpt>
      <trkpt lat="47.43586" lon="0.84941">
        <ele>110</ele>
        <time>2011-05-01T08:03:14Z</time>
      </trkpt>
      <trkpt lat="47.43578" lon="0.84946">
        <ele>110</ele>
        <time>2011-05-01T08:03:15Z</time>
      </trkpt>
      <trkpt lat="47.43571" lon="0.84952">
        <ele>109</ele>
        <time>2011-05-01T08:03:16Z</time>
      </trkpt>
      <trkpt lat="47.43565" lon="0.84959">
        <ele>109</ele>
        <time>2011-05-01T08:03:17Z</time>
      </trkpt>
      <trkpt lat="47.43558" lon="0.84966">
        <ele>109</ele>
        <time>2011-05-01T08:03:18Z</time>
      </trkpt>
      <trkpt lat="47.43552" lon="0.84972">
        <ele>110</ele>
        <time>2011-05-01T08:03:19Z</time>
      </trkpt>
      <trkpt lat="47.43547" lon="0.8498">
        <ele>110</ele>
        <time>2011-05-01T08:03:20Z</time>
      </trkpt>
      <trkpt lat="47.43541" lon="0.84988">
        <ele>109</ele>
        <time>2011-05-01T08:03:21Z</time>
      </trkpt>
      <trkpt lat="47.43536" lon="0.84998">
        <ele>109</ele>
        <time>2011-05-01T08:03:22Z</time>
      </trkpt>
      <trkpt lat="47.43533" lon="0.85007">
        <ele>109</ele>
        <time>2011-05-01T08:03:23Z</time>
      </trkpt>
      <trkpt lat="47.43531" lon="0.85017">
        <ele>110</ele>
        <time>2011-05-01T08:03:24Z</time>
      </trkpt>
      <trkpt lat="47.43529" lon="0.85028">
        <ele>110</ele>
        <time>2011-05-01T08:03:25Z</time>
      </trkpt>
      <trkpt lat="47.43527" lon="0.85039">
        <ele>110</ele>
        <time>2011-05-01T08:03:26Z</time>
      </trkpt>
      <trkpt lat="47.43526" lon="0.8505">
        <ele>110</ele>
        <time>2011-05-01T08:03:27Z</time>
      </trkpt>
      <trkpt lat="47.43524" lon="0.85061">
        <ele>110</ele>
        <time>2011-05-01T08:03:28Z</time>
      </trkpt>
      <trkpt lat="47.43522" lon="0.85072">
        <ele>110</ele>
        <time>2011-05-01T08:03:29Z</time>
      </trkpt>
      <trkpt lat="47.43521" lon="0.85084">
        <ele>110</ele>
        <time>2011-05-01T08:03:30Z</time>
      </trkpt>
      <trkpt lat="47.43519" lon="0.85095">
        <ele>110</ele>
        <time>2011-05-01T08:03:31Z</time>
      </trkpt>
      <trkpt lat="47.43518" lon="0.85107">
        <ele>110</ele>
        <time>2011-05-01T08:03:32Z</time>
      </trkpt>
      <trkpt lat="47.43516" lon="0.85119">
        <ele>110</ele>
        <time>2011-05-01T08:03:33Z</time>
      </trkpt>
      <trkpt lat="47.43514" lon="0.85131">
        <ele>110</ele>
        <time>2011-05-01T08:03:34Z</time>
      </trkpt>
      <trkpt lat="47.43511" lon="0.85142">
        <ele>110</ele>
        <time>2011-05-01T08:03:35Z</time>
      </trkpt>
      <trkpt lat="47.43509" lon="0.85154">
        <ele>110</ele>
        <time>2011-05-01T08:03:36Z</time>
      </trkpt>
      <trkpt lat="47.43507" lon="0.85166">
        <ele>109</ele>
        <time>2011-05-01T08:03:37Z</time>
      </trkpt>
      <trkpt lat="47.43504" lon="0.85177">
        <ele>109</ele>
        <time>2011-05-01T08:03:38Z</time>
      </trkpt>
      <trkpt lat="47.43502" lon="0.85188">
        <ele>109</ele>
        <time>2011-05-01T08:03:39Z</time>
      </trkpt>
      <trkpt lat="47.43498" lon="0.85199">
        <ele>109</ele>
        <time>2011-05-01T08:03:40Z</time>
      </trkpt>
      <trkpt lat="47.43495" lon="0.85209">
        <ele>109</ele>
        <time>2011-05-01T08:03:41Z</time>
      </trkpt>
      <trkpt lat="47.43492" lon="0.85219">
        <ele>108</ele>
        <time>2011-05-01T08:03:42Z</time>
      </trkpt>
      <trkpt lat="47.43489" lon="0.8523">
        <ele>108</ele>
        <time>2011-05-01T08:03:43Z</time>
      </trkpt>
      <trkpt lat="47.43486" lon="0.8524">
        <ele>108</ele>
        <time>2011-05-01T08:03:44Z</time>
      </trkpt>
      <trkpt lat="47.43484" lon="0.8525">
        <ele>107</ele>
        <time>2011-05-01T08:03:45Z</time>
      </trkpt>
      <trkpt lat="47.43481" lon="0.8526">
        <ele>108</ele>
        <time>2011-05-01T08:03:46Z</time>
      </trkpt>
      <trkpt lat="47.43479" lon="0.85271">
        <ele>108</ele>
        <time>2011-05-01T08:03:47Z</time>
      </trkpt>
      <trkpt lat="47.43477" lon="0.85281">
        <ele>108</ele>
        <time>2011-05-01T08:03:48Z</time>
      </trkpt>
      <trkpt lat="47.43474" lon="0.85292">
        <ele>109</ele>
        <time>2011-05-01T08:03:49Z</time>
      </trkpt>
      <trkpt lat="47.43473" lon="0.85303">
        <ele>109</ele>
        <time>2011-05-01T08:03:50Z</time>
      </trkpt>
      <trkpt lat="47.43472" lon="0.85314">
        <ele>109</ele>
        <time>2011-05-01T08:03:51Z</time>
      </trkpt>
      <trkpt lat="47.43469" lon="0.85324">
        <ele>109</ele>
        <time>2011-05-01T08:03:52Z</time>
      </trkpt>
      <trkpt lat="47.43466" lon="0.85333">
        <ele>109</ele>
        <time>2011-05-01T08:03:53Z</time>
      </trkpt>
      <trkpt lat="47.43464" lon="0.85341">
        <ele>109</ele>
        <time>2011-05-01T08:03:54Z</time>
      </trkpt>
      <trkpt lat="47.43461" lon="0.8535">
        <ele>108</ele>
        <time>2011-05-01T08:03:55Z</time>
      </trkpt>
      <trkpt lat="47.43459" lon="0.85358">
        <ele>108</ele>
        <time>2011-05-01T08:03:57Z</time>
      </trkpt>
      <trkpt lat="47.43457" lon="0.85366">
        <ele>107</ele>
        <time>2011-05-01T08:04:00Z</time>
      </trkpt>
      <trkpt lat="47.43453" lon="0.8537">
        <ele>107</ele>
        <time>2011-05-01T08:04:02Z</time>
      </trkpt>
      <trkpt lat="47.43447" lon="0.85376">
        <ele>107</ele>
        <time>2011-05-01T08:04:04Z</time>
      </trkpt>
      <trkpt lat="47.43445" lon="0.85388">
        <ele>107</ele>
        <time>2011-05-01T08:04:06Z</time>
      </trkpt>
      <trkpt lat="47.43444" lon="0.85394">
        <ele>107</ele>
        <time>2011-05-01T08:04:07Z</time>
      </trkpt>
      <trkpt lat="47.43445" lon="0.85403">
        <ele>107</ele>
        <time>2011-05-01T08:04:08Z</time>
      </trkpt>
      <trkpt lat="47.43448" lon="0.85411">
        <ele>107</ele>
        <time>2011-05-01T08:04:09Z</time>
      </trkpt>
      <trkpt lat="47.43451" lon="0.85419">
        <ele>107</ele>
        <time>2011-05-01T08:04:10Z</time>
      </trkpt>
      <trkpt lat="47.43454" lon="0.85427">
        <ele>107</ele>
        <time>2011-05-01T08:04:11Z</time>
      </trkpt>
      <trkpt lat="47.43458" lon="0.85435">
        <ele>107</ele>
        <time>2011-05-01T08:04:12Z</time>
      </trkpt>
      <trkpt lat="47.43461" lon="0.85443">
        <ele>106</ele>
        <time>2011-05-01T08:04:13Z</time>
      </trkpt>
      <trkpt lat="47.43464" lon="0.8545">
        <ele>106</ele>
        <time>2011-05-01T08:04:14Z</time>
      </trkpt>
      <trkpt lat="47.43467" lon="0.85457">
        <ele>106</ele>
        <time>2011-05-01T08:04:15Z</time>
      </trkpt>
      <trkpt lat="47.4347" lon="0.85463">
        <ele>106</ele>
        <time>2011-05-01T08:04:16Z</time>
      </trkpt>
      <trkpt lat="47.43474" lon="0.8547">
        <ele>106</ele>
        <time>2011-05-01T08:04:17Z</time>
      </trkpt>
      <trkpt lat="47.43478" lon="0.85476">
        <ele>106</ele>
        <time>2011-05-01T08:04:18Z</time>
      </trkpt>
      <trkpt lat="47.43481" lon="0.85481">
        <ele>106</ele>
        <time>2011-05-01T08:04:19Z</time>
      </trkpt>
      <trkpt lat="47.43484" lon="0.85489">
        <ele>106</ele>
        <time>2011-05-01T08:04:20Z</time>
      </trkpt>
      <trkpt lat="47.43487" lon="0.85496">
        <ele>106</ele>
        <time>2011-05-01T08:04:21Z</time>
      </trkpt>
      <trkpt lat="47.43489" lon="0.85503">
        <ele>106</ele>
        <time>2011-05-01T08:04:22Z</time>
      </trkpt>
      <trkpt lat="47.43491" lon="0.85511">
        <ele>106</ele>
        <time>2011-05-01T08:04:23Z</time>
      </trkpt>
      <trkpt lat="47.43494" lon="0.85518">
        <ele>106</ele>
        <time>2011-05-01T08:04:24Z</time>
      </trkpt>
      <trkpt lat="47.43495" lon="0.85525">
        <ele>106</ele>
        <time>2011-05-01T08:04:25Z</time>
      </trkpt>
      <trkpt lat="47.43496" lon="0.85532">
        <ele>106</ele>
        <time>2011-05-01T08:04:26Z</time>
      </trkpt>
      <trkpt lat="47.43499" lon="0.85543">
        <ele>107</ele>
        <time>2011-05-01T08:04:28Z</time>
      </trkpt>
      <trkpt lat="47.43503" lon="0.85552">
        <ele>109</ele>
        <time>2011-05-01T08:04:30Z</time>
      </trkpt>
      <trkpt lat="47.43506" lon="0.85561">
        <ele>108</ele>
        <time>2011-05-01T08:04:32Z</time>
      </trkpt>
      <trkpt lat="47.43513" lon="0.85567">
        <ele>109</ele>
        <time>2011-05-01T08:04:34Z</time>
      </trkpt>
      <trkpt lat="47.43518" lon="0.8557">
        <ele>109</ele>
        <time>2011-05-01T08:04:35Z</time>
      </trkpt>
      <trkpt lat="47.43522" lon="0.85573">
        <ele>110</ele>
        <time>2011-05-01T08:04:36Z</time>
      </trkpt>
      <trkpt lat="47.43528" lon="0.85576">
        <ele>111</ele>
        <time>2011-05-01T08:04:37Z</time>
      </trkpt>
      <trkpt lat="47.43533" lon="0.8558">
        <ele>111</ele>
        <time>2011-05-01T08:04:38Z</time>
      </trkpt>
      <trkpt lat="47.43538" lon="0.85585">
        <ele>111</ele>
        <time>2011-05-01T08:04:39Z</time>
      </trkpt>
      <trkpt lat="47.43542" lon="0.8559">
        <ele>111</ele>
        <time>2011-05-01T08:04:40Z</time>
      </trkpt>
      <trkpt lat="47.43546" lon="0.85595">
        <ele>111</ele>
        <time>2011-05-01T08:04:41Z</time>
      </trkpt>
      <trkpt lat="47.4355" lon="0.856">
        <ele>111</ele>
        <time>2011-05-01T08:04:42Z</time>
      </trkpt>
      <trkpt lat="47.43554" lon="0.85604">
        <ele>110</ele>
        <time>2011-05-01T08:04:43Z</time>
      </trkpt>
      <trkpt lat="47.43559" lon="0.85608">
        <ele>110</ele>
        <time>2011-05-01T08:04:44Z</time>
      </trkpt>
      <trkpt lat="47.43564" lon="0.85612">
        <ele>110</ele>
        <time>2011-05-01T08:04:45Z</time>
      </trkpt>
      <trkpt lat="47.43568" lon="0.85616">
        <ele>110</ele>
        <time>2011-05-01T08:04:46Z</time>
      </trkpt>
      <trkpt lat="47.43572" lon="0.85619">
        <ele>110</ele>
        <time>2011-05-01T08:04:47Z</time>
      </trkpt>
      <trkpt lat="47.43576" lon="0.85622">
        <ele>109</ele>
        <time>2011-05-01T08:04:48Z</time>
      </trkpt>
      <trkpt lat="47.43585" lon="0.85628">
        <ele>109</ele>
        <time>2011-05-01T08:04:50Z</time>
      </trkpt>
      <trkpt lat="47.43589" lon="0.85633">
        <ele>109</ele>
        <time>2011-05-01T08:04:51Z</time>
      </trkpt>
      <trkpt lat="47.43595" lon="0.85643">
        <ele>109</ele>
        <time>2011-05-01T08:04:53Z</time>
      </trkpt>
      <trkpt lat="47.436" lon="0.85647">
        <ele>109</ele>
        <time>2011-05-01T08:04:54Z</time>
      </trkpt>
      <trkpt lat="47.43604" lon="0.85652">
        <ele>110</ele>
        <time>2011-05-01T08:04:55Z</time>
      </trkpt>
      <trkpt lat="47.43609" lon="0.85657">
        <ele>110</ele>
        <time>2011-05-01T08:04:56Z</time>
      </trkpt>
      <trkpt lat="47.43612" lon="0.85662">
        <ele>109</ele>
        <time>2011-05-01T08:04:57Z</time>
      </trkpt>
      <trkpt lat="47.43619" lon="0.85666">
        <ele>109</ele>
        <time>2011-05-01T08:04:58Z</time>
      </trkpt>
      <trkpt lat="47.43623" lon="0.85672">
        <ele>108</ele>
        <time>2011-05-01T08:04:59Z</time>
      </trkpt>
      <trkpt lat="47.43627" lon="0.85679">
        <ele>107</ele>
        <time>2011-05-01T08:05:00Z</time>
      </trkpt>
      <trkpt lat="47.43631" lon="0.85684">
        <ele>107</ele>
        <time>2011-05-01T08:05:01Z</time>
      </trkpt>
      <trkpt lat="47.43637" lon="0.85688">
        <ele>107</ele>
        <time>2011-05-01T08:05:02Z</time>
      </trkpt>
      <trkpt lat="47.43642" lon="0.85694">
        <ele>107</ele>
        <time>2011-05-01T08:05:03Z</time>
      </trkpt>
      <trkpt lat="47.43646" lon="0.857">
        <ele>106</ele>
        <time>2011-05-01T08:05:04Z</time>
      </trkpt>
      <trkpt lat="47.4365" lon="0.85706">
        <ele>106</ele>
        <time>2011-05-01T08:05:05Z</time>
      </trkpt>
      <trkpt lat="47.43656" lon="0.85711">
        <ele>106</ele>
        <time>2011-05-01T08:05:06Z</time>
      </trkpt>
      <trkpt lat="47.43661" lon="0.85716">
        <ele>106</ele>
        <time>2011-05-01T08:05:07Z</time>
      </trkpt>
      <trkpt lat="47.43666" lon="0.85721">
        <ele>106</ele>
        <time>2011-05-01T08:05:08Z</time>
      </trkpt>
      <trkpt lat="47.43671" lon="0.85725">
        <ele>107</ele>
        <time>2011-05-01T08:05:09Z</time>
      </trkpt>
      <trkpt lat="47.43674" lon="0.8573">
        <ele>107</ele>
        <time>2011-05-01T08:05:10Z</time>
      </trkpt>
      <trkpt lat="47.43678" lon="0.85735">
        <ele>106</ele>
        <time>2011-05-01T08:05:11Z</time>
      </trkpt>
      <trkpt lat="47.43682" lon="0.85738">
        <ele>107</ele>
        <time>2011-05-01T08:05:12Z</time>
      </trkpt>
      <trkpt lat="47.43687" lon="0.85743">
        <ele>107</ele>
        <time>2011-05-01T08:05:14Z</time>
      </trkpt>
      <trkpt lat="47.43692" lon="0.85749">
        <ele>106</ele>
        <time>2011-05-01T08:05:16Z</time>
      </trkpt>
      <trkpt lat="47.43696" lon="0.85752">
        <ele>106</ele>
        <time>2011-05-01T08:05:17Z</time>
      </trkpt>
      <trkpt lat="47.43703" lon="0.85761">
        <ele>107</ele>
        <time>2011-05-01T08:05:19Z</time>
      </trkpt>
      <trkpt lat="47.43708" lon="0.85765">
        <ele>106</ele>
        <time>2011-05-01T08:05:20Z</time>
      </trkpt>
      <trkpt lat="47.43712" lon="0.85768">
        <ele>107</ele>
        <time>2011-05-01T08:05:21Z</time>
      </trkpt>
      <trkpt lat="47.43717" lon="0.85772">
        <ele>107</ele>
        <time>2011-05-01T08:05:22Z</time>
      </trkpt>
      <trkpt lat="47.43721" lon="0.85775">
        <ele>107</ele>
        <time>2011-05-01T08:05:23Z</time>
      </trkpt>
      <trkpt lat="47.43726" lon="0.8578">
        <ele>107</ele>
        <time>2011-05-01T08:05:24Z</time>
      </trkpt>
      <trkpt lat="47.43731" lon="0.85784">
        <ele>107</ele>
        <time>2011-05-01T08:05:25Z</time>
      </trkpt>
      <trkpt lat="47.43735" lon="0.85789">
        <ele>107</ele>
        <time>2011-05-01T08:05:26Z</time>
      </trkpt>
      <trkpt lat="47.4374" lon="0.85794">
        <ele>107</ele>
        <time>2011-05-01T08:05:27Z</time>
      </trkpt>
      <trkpt lat="47.43744" lon="0.85798">
        <ele>108</ele>
        <time>2011-05-01T08:05:28Z</time>
      </trkpt>
      <trkpt lat="47.43749" lon="0.85803">
        <ele>108</ele>
        <time>2011-05-01T08:05:29Z</time>
      </trkpt>
      <trkpt lat="47.43753" lon="0.85808">
        <ele>108</ele>
        <time>2011-05-01T08:05:30Z</time>
      </trkpt>
      <trkpt lat="47.43758" lon="0.85813">
        <ele>108</ele>
        <time>2011-05-01T08:05:31Z</time>
      </trkpt>
      <trkpt lat="47.43762" lon="0.85817">
        <ele>108</ele>
        <time>2011-05-01T08:05:32Z</time>
      </trkpt>
      <trkpt lat="47.43767" lon="0.85823">
        <ele>108</ele>
        <time>2011-05-01T08:05:33Z</time>
      </trkpt>
      <trkpt lat="47.43771" lon="0.85827">
        <ele>108</ele>
        <time>2011-05-01T08:05:34Z</time>
      </trkpt>
      <trkpt lat="47.43776" lon="0.85832">
        <ele>108</ele>
        <time>2011-05-01T08:05:35Z</time>
      </trkpt>
      <trkpt lat="47.4378" lon="0.85837">
        <ele>108</ele>
        <time>2011-05-01T08:05:36Z</time>
      </trkpt>
      <trkpt lat="47.43784" lon="0.85841">
        <ele>108</ele>
        <time>2011-05-01T08:05:37Z</time>
      </trkpt>
      <trkpt lat="47.43789" lon="0.85846">
        <ele>108</ele>
        <time>2011-05-01T08:05:38Z</time>
      </trkpt>
      <trkpt lat="47.43793" lon="0.85849">
        <ele>108</ele>
        <time>2011-05-01T08:05:39Z</time>
      </trkpt>
      <trkpt lat="47.43798" lon="0.85854">
        <ele>108</ele>
        <time>2011-05-01T08:05:40Z</time>
      </trkpt>
      <trkpt lat="47.43803" lon="0.85857">
        <ele>108</ele>
        <time>2011-05-01T08:05:41Z</time>
      </trkpt>
      <trkpt lat="47.43808" lon="0.85861">
        <ele>107</ele>
        <time>2011-05-01T08:05:42Z</time>
      </trkpt>
      <trkpt lat="47.43812" lon="0.85866">
        <ele>107</ele>
        <time>2011-05-01T08:05:43Z</time>
      </trkpt>
      <trkpt lat="47.43817" lon="0.8587">
        <ele>107</ele>
        <time>2011-05-01T08:05:44Z</time>
      </trkpt>
      <trkpt lat="47.43821" lon="0.85874">
        <ele>107</ele>
        <time>2011-05-01T08:05:45Z</time>
      </trkpt>
      <trkpt lat="47.43827" lon="0.85879">
        <ele>107</ele>
        <time>2011-05-01T08:05:46Z</time>
      </trkpt>
      <trkpt lat="47.43832" lon="0.85882">
        <ele>106</ele>
        <time>2011-05-01T08:05:47Z</time>
      </trkpt>
      <trkpt lat="47.43836" lon="0.85885">
        <ele>105</ele>
        <time>2011-05-01T08:05:48Z</time>
      </trkpt>
      <trkpt lat="47.43841" lon="0.85889">
        <ele>105</ele>
        <time>2011-05-01T08:05:50Z</time>
      </trkpt>
      <trkpt lat="47.43846" lon="0.85895">
        <ele>105</ele>
        <time>2011-05-01T08:05:52Z</time>
      </trkpt>
      <trkpt lat="47.4385" lon="0.859">
        <ele>105</ele>
        <time>2011-05-01T08:05:53Z</time>
      </trkpt>
      <trkpt lat="47.43854" lon="0.85904">
        <ele>106</ele>
        <time>2011-05-01T08:05:54Z</time>
      </trkpt>
      <trkpt lat="47.43857" lon="0.85909">
        <ele>106</ele>
        <time>2011-05-01T08:05:55Z</time>
      </trkpt>
      <trkpt lat="47.43862" lon="0.85912">
        <ele>107</ele>
        <time>2011-05-01T08:05:56Z</time>
      </trkpt>
      <trkpt lat="47.43866" lon="0.85914">
        <ele>108</ele>
        <time>2011-05-01T08:05:57Z</time>
      </trkpt>
      <trkpt lat="47.43873" lon="0.85921">
        <ele>108</ele>
        <time>2011-05-01T08:05:59Z</time>
      </trkpt>
      <trkpt lat="47.4388" lon="0.8593">
        <ele>109</ele>
        <time>2011-05-01T08:06:01Z</time>
      </trkpt>
      <trkpt lat="47.43884" lon="0.85934">
        <ele>109</ele>
        <time>2011-05-01T08:06:02Z</time>
      </trkpt>
      <trkpt lat="47.43888" lon="0.85938">
        <ele>109</ele>
        <time>2011-05-01T08:06:03Z</time>
      </trkpt>
      <trkpt lat="47.43892" lon="0.85942">
        <ele>109</ele>
        <time>2011-05-01T08:06:04Z</time>
      </trkpt>
      <trkpt lat="47.43896" lon="0.85946">
        <ele>109</ele>
        <time>2011-05-01T08:06:05Z</time>
      </trkpt>
      <trkpt lat="47.43901" lon="0.85951">
        <ele>109</ele>
        <time>2011-05-01T08:06:06Z</time>
      </trkpt>
      <trkpt lat="47.43905" lon="0.85956">
        <ele>110</ele>
        <time>2011-05-01T08:06:07Z</time>
      </trkpt>
      <trkpt lat="47.43909" lon="0.8596">
        <ele>109</ele>
        <time>2011-05-01T08:06:08Z</time>
      </trkpt>
      <trkpt lat="47.43914" lon="0.85965">
        <ele>109</ele>
        <time>2011-05-01T08:06:09Z</time>
      </trkpt>
      <trkpt lat="47.43917" lon="0.85969">
        <ele>109</ele>
        <time>2011-05-01T08:06:10Z</time>
      </trkpt>
      <trkpt lat="47.43922" lon="0.85973">
        <ele>109</ele>
        <time>2011-05-01T08:06:11Z</time>
      </trkpt>
      <trkpt lat="47.43926" lon="0.85976">
        <ele>109</ele>
        <time>2011-05-01T08:06:12Z</time>
      </trkpt>
      <trkpt lat="47.43931" lon="0.8598">
        <ele>109</ele>
        <time>2011-05-01T08:06:13Z</time>
      </trkpt>
      <trkpt lat="47.43936" lon="0.85985">
        <ele>109</ele>
        <time>2011-05-01T08:06:14Z</time>
      </trkpt>
      <trkpt lat="47.43942" lon="0.85989">
        <ele>109</ele>
        <time>2011-05-01T08:06:15Z</time>
      </trkpt>
      <trkpt lat="47.43946" lon="0.85993">
        <ele>109</ele>
        <time>2011-05-01T08:06:16Z</time>
      </trkpt>
      <trkpt lat="47.4395" lon="0.85996">
        <ele>109</ele>
        <time>2011-05-01T08:06:17Z</time>
      </trkpt>
      <trkpt lat="47.43955" lon="0.85998">
        <ele>109</ele>
        <time>2011-05-01T08:06:18Z</time>
      </trkpt>
      <trkpt lat="47.43959" lon="0.86002">
        <ele>108</ele>
        <time>2011-05-01T08:06:19Z</time>
      </trkpt>
      <trkpt lat="47.43964" lon="0.86006">
        <ele>109</ele>
        <time>2011-05-01T08:06:20Z</time>
      </trkpt>
      <trkpt lat="47.43969" lon="0.86009">
        <ele>108</ele>
        <time>2011-05-01T08:06:21Z</time>
      </trkpt>
      <trkpt lat="47.43974" lon="0.86012">
        <ele>109</ele>
        <time>2011-05-01T08:06:22Z</time>
      </trkpt>
      <trkpt lat="47.43979" lon="0.86018">
        <ele>109</ele>
        <time>2011-05-01T08:06:23Z</time>
      </trkpt>
      <trkpt lat="47.43984" lon="0.86022">
        <ele>109</ele>
        <time>2011-05-01T08:06:24Z</time>
      </trkpt>
      <trkpt lat="47.4399" lon="0.86025">
        <ele>109</ele>
        <time>2011-05-01T08:06:25Z</time>
      </trkpt>
      <trkpt lat="47.43995" lon="0.86029">
        <ele>109</ele>
        <time>2011-05-01T08:06:26Z</time>
      </trkpt>
      <trkpt lat="47.44" lon="0.86034">
        <ele>109</ele>
        <time>2011-05-01T08:06:27Z</time>
      </trkpt>
      <trkpt lat="47.44005" lon="0.8604">
        <ele>109</ele>
        <time>2011-05-01T08:06:28Z</time>
      </trkpt>
      <trkpt lat="47.4401" lon="0.86045">
        <ele>109</ele>
        <time>2011-05-01T08:06:29Z</time>
      </trkpt>
      <trkpt lat="47.44016" lon="0.8605">
        <ele>109</ele>
        <time>2011-05-01T08:06:30Z</time>
      </trkpt>
      <trkpt lat="47.44021" lon="0.86054">
        <ele>109</ele>
        <time>2011-05-01T08:06:31Z</time>
      </trkpt>
      <trkpt lat="47.44026" lon="0.86059">
        <ele>109</ele>
        <time>2011-05-01T08:06:32Z</time>
      </trkpt>
      <trkpt lat="47.44029" lon="0.86064">
        <ele>109</ele>
        <time>2011-05-01T08:06:33Z</time>
      </trkpt>
      <trkpt lat="47.4403" lon="0.8607">
        <ele>109</ele>
        <time>2011-05-01T08:06:34Z</time>
      </trkpt>
      <trkpt lat="47.44034" lon="0.86077">
        <ele>109</ele>
        <time>2011-05-01T08:06:36Z</time>
      </trkpt>
      <trkpt lat="47.44039" lon="0.86085">
        <ele>108</ele>
        <time>2011-05-01T08:06:38Z</time>
      </trkpt>
      <trkpt lat="47.44043" lon="0.86094">
        <ele>108</ele>
        <time>2011-05-01T08:06:40Z</time>
      </trkpt>
      <trkpt lat="47.4405" lon="0.86102">
        <ele>108</ele>
        <time>2011-05-01T08:06:42Z</time>
      </trkpt>
      <trkpt lat="47.44055" lon="0.86105">
        <ele>108</ele>
        <time>2011-05-01T08:06:43Z</time>
      </trkpt>
      <trkpt lat="47.44062" lon="0.86114">
        <ele>107</ele>
        <time>2011-05-01T08:06:45Z</time>
      </trkpt>
      <trkpt lat="47.44069" lon="0.86121">
        <ele>108</ele>
        <time>2011-05-01T08:06:47Z</time>
      </trkpt>
      <trkpt lat="47.44076" lon="0.8613">
        <ele>108</ele>
        <time>2011-05-01T08:06:49Z</time>
      </trkpt>
      <trkpt lat="47.4408" lon="0.86135">
        <ele>108</ele>
        <time>2011-05-01T08:06:50Z</time>
      </trkpt>
      <trkpt lat="47.44087" lon="0.86143">
        <ele>108</ele>
        <time>2011-05-01T08:06:52Z</time>
      </trkpt>
      <trkpt lat="47.44092" lon="0.86147">
        <ele>108</ele>
        <time>2011-05-01T08:06:53Z</time>
      </trkpt>
      <trkpt lat="47.44096" lon="0.8615">
        <ele>108</ele>
        <time>2011-05-01T08:06:54Z</time>
      </trkpt>
      <trkpt lat="47.441" lon="0.86156">
        <ele>108</ele>
        <time>2011-05-01T08:06:55Z</time>
      </trkpt>
      <trkpt lat="47.44103" lon="0.86162">
        <ele>109</ele>
        <time>2011-05-01T08:06:56Z</time>
      </trkpt>
      <trkpt lat="47.44107" lon="0.86166">
        <ele>108</ele>
        <time>2011-05-01T08:06:57Z</time>
      </trkpt>
      <trkpt lat="47.44112" lon="0.8617">
        <ele>108</ele>
        <time>2011-05-01T08:06:58Z</time>
      </trkpt>
      <trkpt lat="47.44116" lon="0.86175">
        <ele>108</ele>
        <time>2011-05-01T08:06:59Z</time>
      </trkpt>
      <trkpt lat="47.44123" lon="0.86184">
        <ele>108</ele>
        <time>2011-05-01T08:07:01Z</time>
      </trkpt>
      <trkpt lat="47.4413" lon="0.86193">
        <ele>108</ele>
        <time>2011-05-01T08:07:03Z</time>
      </trkpt>
      <trkpt lat="47.44135" lon="0.86198">
        <ele>108</ele>
        <time>2011-05-01T08:07:04Z</time>
      </trkpt>
      <trkpt lat="47.44139" lon="0.86202">
        <ele>107</ele>
        <time>2011-05-01T08:07:05Z</time>
      </trkpt>
      <trkpt lat="47.44143" lon="0.86207">
        <ele>108</ele>
        <time>2011-05-01T08:07:06Z</time>
      </trkpt>
      <trkpt lat="47.44147" lon="0.86214">
        <ele>109</ele>
        <time>2011-05-01T08:07:07Z</time>
      </trkpt>
      <trkpt lat="47.44151" lon="0.86218">
        <ele>108</ele>
        <time>2011-05-01T08:07:08Z</time>
      </trkpt>
      <trkpt lat="47.44158" lon="0.86227">
        <ele>108</ele>
        <time>2011-05-01T08:07:10Z</time>
      </trkpt>
      <trkpt lat="47.44162" lon="0.86231">
        <ele>108</ele>
        <time>2011-05-01T08:07:11Z</time>
      </trkpt>
      <trkpt lat="47.44167" lon="0.86236">
        <ele>108</ele>
        <time>2011-05-01T08:07:12Z</time>
      </trkpt>
      <trkpt lat="47.44171" lon="0.86239">
        <ele>108</ele>
        <time>2011-05-01T08:07:13Z</time>
      </trkpt>
      <trkpt lat="47.44175" lon="0.86244">
        <ele>108</ele>
        <time>2011-05-01T08:07:14Z</time>
      </trkpt>
      <trkpt lat="47.44179" lon="0.86248">
        <ele>108</ele>
        <time>2011-05-01T08:07:15Z</time>
      </trkpt>
      <trkpt lat="47.44183" lon="0.86253">
        <ele>108</ele>
        <time>2011-05-01T08:07:16Z</time>
      </trkpt>
      <trkpt lat="47.44188" lon="0.86258">
        <ele>109</ele>
        <time>2011-05-01T08:07:17Z</time>
      </trkpt>
      <trkpt lat="47.44193" lon="0.86263">
        <ele>109</ele>
        <time>2011-05-01T08:07:18Z</time>
      </trkpt>
      <trkpt lat="47.44197" lon="0.86267">
        <ele>109</ele>
        <time>2011-05-01T08:07:19Z</time>
      </trkpt>
      <trkpt lat="47.44202" lon="0.86272">
        <ele>110</ele>
        <time>2011-05-01T08:07:20Z</time>
      </trkpt>
      <trkpt lat="47.44208" lon="0.86276">
        <ele>110</ele>
        <time>2011-05-01T08:07:21Z</time>
      </trkpt>
      <trkpt lat="47.44212" lon="0.8628">
        <ele>111</ele>
        <time>2011-05-01T08:07:22Z</time>
      </trkpt>
      <trkpt lat="47.44217" lon="0.86284">
        <ele>110</ele>
        <time>2011-05-01T08:07:23Z</time>
      </trkpt>
      <trkpt lat="47.44222" lon="0.86288">
        <ele>109</ele>
        <time>2011-05-01T08:07:24Z</time>
      </trkpt>
      <trkpt lat="47.44227" lon="0.86294">
        <ele>109</ele>
        <time>2011-05-01T08:07:25Z</time>
      </trkpt>
      <trkpt lat="47.44231" lon="0.86298">
        <ele>109</ele>
        <time>2011-05-01T08:07:26Z</time>
      </trkpt>
      <trkpt lat="47.44236" lon="0.86303">
        <ele>109</ele>
        <time>2011-05-01T08:07:27Z</time>
      </trkpt>
      <trkpt lat="47.4424" lon="0.86308">
        <ele>109</ele>
        <time>2011-05-01T08:07:28Z</time>
      </trkpt>
      <trkpt lat="47.44245" lon="0.86312">
        <ele>109</ele>
        <time>2011-05-01T08:07:29Z</time>
      </trkpt>
      <trkpt lat="47.44249" lon="0.86317">
        <ele>109</ele>
        <time>2011-05-01T08:07:30Z</time>
      </trkpt>
      <trkpt lat="47.44253" lon="0.86322">
        <ele>109</ele>
        <time>2011-05-01T08:07:31Z</time>
      </trkpt>
      <trkpt lat="47.44256" lon="0.86326">
        <ele>109</ele>
        <time>2011-05-01T08:07:32Z</time>
      </trkpt>
      <trkpt lat="47.4426" lon="0.86331">
        <ele>109</ele>
        <time>2011-05-01T08:07:33Z</time>
      </trkpt>
      <trkpt lat="47.44261" lon="0.86338">
        <ele>109</ele>
        <time>2011-05-01T08:07:34Z</time>
      </trkpt>
      <trkpt lat="47.44261" lon="0.8635">
        <ele>109</ele>
        <time>2011-05-01T08:07:36Z</time>
      </trkpt>
      <trkpt lat="47.44258" lon="0.86358">
        <ele>109</ele>
        <time>2011-05-01T08:07:37Z</time>
      </trkpt>
      <trkpt lat="47.44255" lon="0.86365">
        <ele>109</ele>
        <time>2011-05-01T08:07:38Z</time>
      </trkpt>
      <trkpt lat="47.44251" lon="0.86372">
        <ele>109</ele>
        <time>2011-05-01T08:07:39Z</time>
      </trkpt>
      <trkpt lat="47.44247" lon="0.86379">
        <ele>109</ele>
        <time>2011-05-01T08:07:40Z</time>
      </trkpt>
      <trkpt lat="47.44243" lon="0.86387">
        <ele>109</ele>
        <time>2011-05-01T08:07:41Z</time>
      </trkpt>
      <trkpt lat="47.44239" lon="0.86394">
        <ele>109</ele>
        <time>2011-05-01T08:07:42Z</time>
      </trkpt>
      <trkpt lat="47.44235" lon="0.86402">
        <ele>109</ele>
        <time>2011-05-01T08:07:43Z</time>
      </trkpt>
      <trkpt lat="47.4423" lon="0.8641">
        <ele>109</ele>
        <time>2011-05-01T08:07:44Z</time>
      </trkpt>
      <trkpt lat="47.44226" lon="0.86419">
        <ele>109</ele>
        <time>2011-05-01T08:07:45Z</time>
      </trkpt>
      <trkpt lat="47.44221" lon="0.86427">
        <ele>109</ele>
        <time>2011-05-01T08:07:46Z</time>
      </trkpt>
      <trkpt lat="47.44217" lon="0.86435">
        <ele>109</ele>
        <time>2011-05-01T08:07:47Z</time>
      </trkpt>
      <trkpt lat="47.44212" lon="0.86442">
        <ele>109</ele>
        <time>2011-05-01T08:07:48Z</time>
      </trkpt>
      <trkpt lat="47.44208" lon="0.86449">
        <ele>108</ele>
        <time>2011-05-01T08:07:49Z</time>
      </trkpt>
      <trkpt lat="47.44203" lon="0.86456">
        <ele>108</ele>
        <time>2011-05-01T08:07:50Z</time>
      </trkpt>
      <trkpt lat="47.44197" lon="0.8646">
        <ele>108</ele>
        <time>2011-05-01T08:07:51Z</time>
      </trkpt>
      <trkpt lat="47.4419" lon="0.86463">
        <ele>108</ele>
        <time>2011-05-01T08:07:52Z</time>
      </trkpt>
      <trkpt lat="47.44183" lon="0.86465">
        <ele>108</ele>
        <time>2011-05-01T08:07:53Z</time>
      </trkpt>
      <trkpt lat="47.44176" lon="0.86467">
        <ele>108</ele>
        <time>2011-05-01T08:07:54Z</time>
      </trkpt>
      <trkpt lat="47.44169" lon="0.86469">
        <ele>108</ele>
        <time>2011-05-01T08:07:55Z</time>
      </trkpt>
      <trkpt lat="47.44162" lon="0.86472">
        <ele>108</ele>
        <time>2011-05-01T08:07:56Z</time>
      </trkpt>
      <trkpt lat="47.44157" lon="0.86477">
        <ele>108</ele>
        <time>2011-05-01T08:07:57Z</time>
      </trkpt>
      <trkpt lat="47.44152" lon="0.86484">
        <ele>108</ele>
        <time>2011-05-01T08:07:58Z</time>
      </trkpt>
      <trkpt lat="47.44149" lon="0.8649">
        <ele>107</ele>
        <time>2011-05-01T08:07:59Z</time>
      </trkpt>
      <trkpt lat="47.44145" lon="0.86498">
        <ele>107</ele>
        <time>2011-05-01T08:08:00Z</time>
      </trkpt>
      <trkpt lat="47.44142" lon="0.86504">
        <ele>107</ele>
        <time>2011-05-01T08:08:01Z</time>
      </trkpt>
      <trkpt lat="47.44138" lon="0.86511">
        <ele>107</ele>
        <time>2011-05-01T08:08:02Z</time>
      </trkpt>
      <trkpt lat="47.44135" lon="0.86518">
        <ele>107</ele>
        <time>2011-05-01T08:08:03Z</time>
      </trkpt>
      <trkpt lat="47.44131" lon="0.86524">
        <ele>107</ele>
        <time>2011-05-01T08:08:04Z</time>
      </trkpt>
      <trkpt lat="47.44128" lon="0.86529">
        <ele>107</ele>
        <time>2011-05-01T08:08:05Z</time>
      </trkpt>
      <trkpt lat="47.44124" lon="0.86533">
        <ele>107</ele>
        <time>2011-05-01T08:08:06Z</time>
      </trkpt>
      <trkpt lat="47.4412" lon="0.86538">
        <ele>107</ele>
        <time>2011-05-01T08:08:08Z</time>
      </trkpt>
      <trkpt lat="47.44117" lon="0.86544">
        <ele>107</ele>
        <time>2011-05-01T08:08:10Z</time>
      </trkpt>
      <trkpt lat="47.44114" lon="0.86552">
        <ele>107</ele>
        <time>2011-05-01T08:08:13Z</time>
      </trkpt>
      <trkpt lat="47.44108" lon="0.8656">
        <ele>107</ele>
        <time>2011-05-01T08:08:15Z</time>
      </trkpt>
      <trkpt lat="47.44105" lon="0.86565">
        <ele>107</ele>
        <time>2011-05-01T08:08:16Z</time>
      </trkpt>
      <trkpt lat="47.44102" lon="0.86572">
        <ele>106</ele>
        <time>2011-05-01T08:08:17Z</time>
      </trkpt>
      <trkpt lat="47.441" lon="0.86578">
        <ele>106</ele>
        <time>2011-05-01T08:08:18Z</time>
      </trkpt>
      <trkpt lat="47.44098" lon="0.86586">
        <ele>106</ele>
        <time>2011-05-01T08:08:19Z</time>
      </trkpt>
      <trkpt lat="47.44093" lon="0.86592">
        <ele>106</ele>
        <time>2011-05-01T08:08:20Z</time>
      </trkpt>
      <trkpt lat="47.4409" lon="0.86601">
        <ele>106</ele>
        <time>2011-05-01T08:08:21Z</time>
      </trkpt>
      <trkpt lat="47.44087" lon="0.86609">
        <ele>106</ele>
        <time>2011-05-01T08:08:22Z</time>
      </trkpt>
      <trkpt lat="47.44084" lon="0.86618">
        <ele>105</ele>
        <time>2011-05-01T08:08:23Z</time>
      </trkpt>
      <trkpt lat="47.44082" lon="0.86626">
        <ele>105</ele>
        <time>2011-05-01T08:08:24Z</time>
      </trkpt>
      <trkpt lat="47.44079" lon="0.86635">
        <ele>105</ele>
        <time>2011-05-01T08:08:25Z</time>
      </trkpt>
      <trkpt lat="47.44075" lon="0.86641">
        <ele>105</ele>
        <time>2011-05-01T08:08:26Z</time>
      </trkpt>
      <trkpt lat="47.44071" lon="0.86648">
        <ele>105</ele>
        <time>2011-05-01T08:08:27Z</time>
      </trkpt>
      <trkpt lat="47.44066" lon="0.86651">
        <ele>105</ele>
        <time>2011-05-01T08:08:28Z</time>
      </trkpt>
      <trkpt lat="47.44062" lon="0.86651">
        <ele>105</ele>
        <time>2011-05-01T08:08:29Z</time>
      </trkpt>
      <trkpt lat="47.44056" lon="0.86649">
        <ele>104</ele>
        <time>2011-05-01T08:08:30Z</time>
      </trkpt>
      <trkpt lat="47.44053" lon="0.86643">
        <ele>104</ele>
        <time>2011-05-01T08:08:31Z</time>
      </trkpt>
      <trkpt lat="47.4405" lon="0.86637">
        <ele>103</ele>
        <time>2011-05-01T08:08:32Z</time>
      </trkpt>
      <trkpt lat="47.44047" lon="0.8663">
        <ele>103</ele>
        <time>2011-05-01T08:08:33Z</time>
      </trkpt>
      <trkpt lat="47.44043" lon="0.86624">
        <ele>103</ele>
        <time>2011-05-01T08:08:34Z</time>
      </trkpt>
      <trkpt lat="47.44039" lon="0.86617">
        <ele>103</ele>
        <time>2011-05-01T08:08:35Z</time>
      </trkpt>
      <trkpt lat="47.44034" lon="0.86611">
        <ele>102</ele>
        <time>2011-05-01T08:08:36Z</time>
      </trkpt>
      <trkpt lat="47.4403" lon="0.86603">
        <ele>102</ele>
        <time>2011-05-01T08:08:37Z</time>
      </trkpt>
      <trkpt lat="47.44027" lon="0.86597">
        <ele>102</ele>
        <time>2011-05-01T08:08:38Z</time>
      </trkpt>
      <trkpt lat="47.44022" lon="0.8659">
        <ele>102</ele>
        <time>2011-05-01T08:08:39Z</time>
      </trkpt>
      <trkpt lat="47.44018" lon="0.86584">
        <ele>101</ele>
        <time>2011-05-01T08:08:40Z</time>
      </trkpt>
      <trkpt lat="47.44014" lon="0.86576">
        <ele>101</ele>
        <time>2011-05-01T08:08:41Z</time>
      </trkpt>
      <trkpt lat="47.44009" lon="0.86569">
        <ele>101</ele>
        <time>2011-05-01T08:08:42Z</time>
      </trkpt>
      <trkpt lat="47.44004" lon="0.86561">
        <ele>101</ele>
        <time>2011-05-01T08:08:43Z</time>
      </trkpt>
      <trkpt lat="47.44" lon="0.86552">
        <ele>101</ele>
        <time>2011-05-01T08:08:44Z</time>
      </trkpt>
      <trkpt lat="47.43995" lon="0.86545">
        <ele>101</ele>
        <time>2011-05-01T08:08:45Z</time>
      </trkpt>
      <trkpt lat="47.4399" lon="0.86538">
        <ele>102</ele>
        <time>2011-05-01T08:08:46Z</time>
      </trkpt>
      <trkpt lat="47.43986" lon="0.8653">
        <ele>102</ele>
        <time>2011-05-01T08:08:47Z</time>
      </trkpt>
      <trkpt lat="47.43983" lon="0.86523">
        <ele>102</ele>
        <time>2011-05-01T08:08:48Z</time>
      </trkpt>
      <trkpt lat="47.43979" lon="0.86516">
        <ele>102</ele>
        <time>2011-05-01T08:08:49Z</time>
      </trkpt>
      <trkpt lat="47.43976" lon="0.86508">
        <ele>102</ele>
        <time>2011-05-01T08:08:50Z</time>
      </trkpt>
      <trkpt lat="47.4397" lon="0.86502">
        <ele>103</ele>
        <time>2011-05-01T08:08:51Z</time>
      </trkpt>
      <trkpt lat="47.43963" lon="0.865">
        <ele>102</ele>
        <time>2011-05-01T08:08:52Z</time>
      </trkpt>
      <trkpt lat="47.43956" lon="0.865">
        <ele>102</ele>
        <time>2011-05-01T08:08:53Z</time>
      </trkpt>
      <trkpt lat="47.43951" lon="0.86502">
        <ele>103</ele>
        <time>2011-05-01T08:08:54Z</time>
      </trkpt>
      <trkpt lat="47.43945" lon="0.86507">
        <ele>102</ele>
        <time>2011-05-01T08:08:55Z</time>
      </trkpt>
      <trkpt lat="47.43939" lon="0.8651">
        <ele>102</ele>
        <time>2011-05-01T08:08:56Z</time>
      </trkpt>
      <trkpt lat="47.43935" lon="0.86517">
        <ele>102</ele>
        <time>2011-05-01T08:08:57Z</time>
      </trkpt>
      <trkpt lat="47.43931" lon="0.86525">
        <ele>102</ele>
        <time>2011-05-01T08:08:58Z</time>
      </trkpt>
      <trkpt lat="47.43927" lon="0.86533">
        <ele>102</ele>
        <time>2011-05-01T08:08:59Z</time>
      </trkpt>
      <trkpt lat="47.43923" lon="0.86541">
        <ele>102</ele>
        <time>2011-05-01T08:09:00Z</time>
      </trkpt>
      <trkpt lat="47.43919" lon="0.86548">
        <ele>103</ele>
        <time>2011-05-01T08:09:01Z</time>
      </trkpt>
      <trkpt lat="47.43915" lon="0.86556">
        <ele>103</ele>
        <time>2011-05-01T08:09:02Z</time>
      </trkpt>
      <trkpt lat="47.43912" lon="0.86565">
        <ele>104</ele>
        <time>2011-05-01T08:09:03Z</time>
      </trkpt>
      <trkpt lat="47.43908" lon="0.86572">
        <ele>104</ele>
        <time>2011-05-01T08:09:04Z</time>
      </trkpt>
      <trkpt lat="47.43904" lon="0.86579">
        <ele>104</ele>
        <time>2011-05-01T08:09:05Z</time>
      </trkpt>
      <trkpt lat="47.43901" lon="0.86588">
        <ele>104</ele>
        <time>2011-05-01T08:09:06Z</time>
      </trkpt>
      <trkpt lat="47.43898" lon="0.86594">
        <ele>104</ele>
        <time>2011-05-01T08:09:07Z</time>
      </trkpt>
      <trkpt lat="47.43894" lon="0.86602">
        <ele>104</ele>
        <time>2011-05-01T08:09:08Z</time>
      </trkpt>
      <trkpt lat="47.4389" lon="0.86608">
        <ele>105</ele>
        <time>2011-05-01T08:09:09Z</time>
      </trkpt>
      <trkpt lat="47.43886" lon="0.86615">
        <ele>105</ele>
        <time>2011-05-01T08:09:10Z</time>
      </trkpt>
      <trkpt lat="47.43882" lon="0.86621">
        <ele>104</ele>
        <time>2011-05-01T08:09:11Z</time>
      </trkpt>
      <trkpt lat="47.43878" lon="0.86628">
        <ele>105</ele>
        <time>2011-05-01T08:09:12Z</time>
      </trkpt>
      <trkpt lat="47.43875" lon="0.86635">
        <ele>105</ele>
        <time>2011-05-01T08:09:13Z</time>
      </trkpt>
      <trkpt lat="47.43872" lon="0.86641">
        <ele>105</ele>
        <time>2011-05-01T08:09:14Z</time>
      </trkpt>
      <trkpt lat="47.43868" lon="0.86647">
        <ele>105</ele>
        <time>2011-05-01T08:09:15Z</time>
      </trkpt>
      <trkpt lat="47.43865" lon="0.86653">
        <ele>106</ele>
        <time>2011-05-01T08:09:16Z</time>
      </trkpt>
      <trkpt lat="47.43861" lon="0.86659">
        <ele>106</ele>
        <time>2011-05-01T08:09:17Z</time>
      </trkpt>
      <trkpt lat="47.43857" lon="0.86665">
        <ele>106</ele>
        <time>2011-05-01T08:09:18Z</time>
      </trkpt>
      <trkpt lat="47.43854" lon="0.86672">
        <ele>106</ele>
        <time>2011-05-01T08:09:19Z</time>
      </trkpt>
      <trkpt lat="47.43851" lon="0.86677">
        <ele>107</ele>
        <time>2011-05-01T08:09:20Z</time>
      </trkpt>
      <trkpt lat="47.43848" lon="0.86681">
        <ele>107</ele>
        <time>2011-05-01T08:09:21Z</time>
      </trkpt>
      <trkpt lat="47.43842" lon="0.86691">
        <ele>107</ele>
        <time>2011-05-01T08:09:23Z</time>
      </trkpt>
      <trkpt lat="47.4384" lon="0.86697">
        <ele>107</ele>
        <time>2011-05-01T08:09:24Z</time>
      </trkpt>
      <trkpt lat="47.43837" lon="0.86702">
        <ele>106</ele>
        <time>2011-05-01T08:09:25Z</time>
      </trkpt>
      <trkpt lat="47.43834" lon="0.86708">
        <ele>107</ele>
        <time>2011-05-01T08:09:26Z</time>
      </trkpt>
      <trkpt lat="47.43831" lon="0.86713">
        <ele>107</ele>
        <time>2011-05-01T08:09:27Z</time>
      </trkpt>
      <trkpt lat="47.43825" lon="0.86722">
        <ele>107</ele>
        <time>2011-05-01T08:09:29Z</time>
      </trkpt>
      <trkpt lat="47.43822" lon="0.86728">
        <ele>107</ele>
        <time>2011-05-01T08:09:30Z</time>
      </trkpt>
      <trkpt lat="47.43817" lon="0.86737">
        <ele>107</ele>
        <time>2011-05-01T08:09:32Z</time>
      </trkpt>
      <trkpt lat="47.43814" lon="0.86743">
        <ele>108</ele>
        <time>2011-05-01T08:09:33Z</time>
      </trkpt>
      <trkpt lat="47.43811" lon="0.86748">
        <ele>108</ele>
        <time>2011-05-01T08:09:34Z</time>
      </trkpt>
      <trkpt lat="47.43806" lon="0.86759">
        <ele>108</ele>
        <time>2011-05-01T08:09:36Z</time>
      </trkpt>
      <trkpt lat="47.43803" lon="0.86764">
        <ele>108</ele>
        <time>2011-05-01T08:09:37Z</time>
      </trkpt>
      <trkpt lat="47.43797" lon="0.86773">
        <ele>109</ele>
        <time>2011-05-01T08:09:39Z</time>
      </trkpt>
      <trkpt lat="47.43792" lon="0.86783">
        <ele>109</ele>
        <time>2011-05-01T08:09:41Z</time>
      </trkpt>
      <trkpt lat="47.43785" lon="0.86792">
        <ele>109</ele>
        <time>2011-05-01T08:09:43Z</time>
      </trkpt>
      <trkpt lat="47.4378" lon="0.868">
        <ele>109</ele>
        <time>2011-05-01T08:09:45Z</time>
      </trkpt>
      <trkpt lat="47.43774" lon="0.86808">
        <ele>110</ele>
        <time>2011-05-01T08:09:47Z</time>
      </trkpt>
      <trkpt lat="47.43771" lon="0.86813">
        <ele>110</ele>
        <time>2011-05-01T08:09:48Z</time>
      </trkpt>
      <trkpt lat="47.43767" lon="0.86821">
        <ele>110</ele>
        <time>2011-05-01T08:09:50Z</time>
      </trkpt>
      <trkpt lat="47.43763" lon="0.8683">
        <ele>110</ele>
        <time>2011-05-01T08:09:52Z</time>
      </trkpt>
      <trkpt lat="47.43765" lon="0.86838">
        <ele>110</ele>
        <time>2011-05-01T08:09:54Z</time>
      </trkpt>
      <trkpt lat="47.43769" lon="0.86843">
        <ele>111</ele>
        <time>2011-05-01T08:09:56Z</time>
      </trkpt>
      <trkpt lat="47.43773" lon="0.86848">
        <ele>111</ele>
        <time>2011-05-01T08:09:58Z</time>
      </trkpt>
      <trkpt lat="47.43777" lon="0.86855">
        <ele>111</ele>
        <time>2011-05-01T08:10:01Z</time>
      </trkpt>
      <trkpt lat="47.43782" lon="0.8686">
        <ele>111</ele>
        <time>2011-05-01T08:10:03Z</time>
      </trkpt>
      <trkpt lat="47.43785" lon="0.86865">
        <ele>111</ele>
        <time>2011-05-01T08:10:05Z</time>
      </trkpt>
      <trkpt lat="47.43789" lon="0.86874">
        <ele>111</ele>
        <time>2011-05-01T08:10:08Z</time>
      </trkpt>
      <trkpt lat="47.4379" lon="0.86884">
        <ele>111</ele>
        <time>2011-05-01T08:10:11Z</time>
      </trkpt>
      <trkpt lat="47.4379" lon="0.86891">
        <ele>111</ele>
        <time>2011-05-01T08:10:13Z</time>
      </trkpt>
      <trkpt lat="47.43793" lon="0.86896">
        <ele>111</ele>
        <time>2011-05-01T08:10:15Z</time>
      </trkpt>
      <trkpt lat="47.43796" lon="0.86903">
        <ele>111</ele>
        <time>2011-05-01T08:10:18Z</time>
      </trkpt>
      <trkpt lat="47.43798" lon="0.86911">
        <ele>111</ele>
        <time>2011-05-01T08:10:21Z</time>
      </trkpt>
      <trkpt lat="47.43799" lon="0.8692">
        <ele>111</ele>
        <time>2011-05-01T08:10:24Z</time>
      </trkpt>
      <trkpt lat="47.43801" lon="0.86929">
        <ele>111</ele>
        <time>2011-05-01T08:10:27Z</time>
      </trkpt>
      <trkpt lat="47.43804" lon="0.86934">
        <ele>111</ele>
        <time>2011-05-01T08:10:30Z</time>
      </trkpt>
      <trkpt lat="47.43806" lon="0.86942">
        <ele>111</ele>
        <time>2011-05-01T08:10:33Z</time>
      </trkpt>
      <trkpt lat="47.43805" lon="0.8695">
        <ele>111</ele>
        <time>2011-05-01T08:10:36Z</time>
      </trkpt>
      <trkpt lat="47.43806" lon="0.8696">
        <ele>112</ele>
        <time>2011-05-01T08:10:39Z</time>
      </trkpt>
      <trkpt lat="47.43806" lon="0.86968">
        <ele>112</ele>
        <time>2011-05-01T08:10:42Z</time>
      </trkpt>
      <trkpt lat="47.43806" lon="0.86976">
        <ele>113</ele>
        <time>2011-05-01T08:10:45Z</time>
      </trkpt>
      <trkpt lat="47.43806" lon="0.86984">
        <ele>113</ele>
        <time>2011-05-01T08:10:48Z</time>
      </trkpt>
      <trkpt lat="47.43805" lon="0.8699">
        <ele>113</ele>
        <time>2011-05-01T08:10:51Z</time>
      </trkpt>
      <trkpt lat="47.43806" lon="0.86997">
        <ele>114</ele>
        <time>2011-05-01T08:10:54Z</time>
      </trkpt>
      <trkpt lat="47.43805" lon="0.87006">
        <ele>114</ele>
        <time>2011-05-01T08:10:58Z</time>
      </trkpt>
      <trkpt lat="47.43806" lon="0.87014">
        <ele>115</ele>
        <time>2011-05-01T08:11:01Z</time>
      </trkpt>
      <trkpt lat="47.43807" lon="0.87021">
        <ele>116</ele>
        <time>2011-05-01T08:11:04Z</time>
      </trkpt>
      <trkpt lat="47.43808" lon="0.87027">
        <ele>117</ele>
        <time>2011-05-01T08:11:07Z</time>
      </trkpt>
      <trkpt lat="47.43807" lon="0.87035">
        <ele>122</ele>
        <time>2011-05-01T08:11:11Z</time>
      </trkpt>
      <trkpt lat="47.43807" lon="0.87043">
        <ele>123</ele>
        <time>2011-05-01T08:11:15Z</time>
      </trkpt>
      <trkpt lat="47.43806" lon="0.8705">
        <ele>125</ele>
        <time>2011-05-01T08:11:19Z</time>
      </trkpt>
      <trkpt lat="47.43806" lon="0.87058">
        <ele>128</ele>
        <time>2011-05-01T08:11:23Z</time>
      </trkpt>
      <trkpt lat="47.43805" lon="0.87067">
        <ele>131</ele>
        <time>2011-05-01T08:11:27Z</time>
      </trkpt>
      <trkpt lat="47.43805" lon="0.87074">
        <ele>132</ele>
        <time>2011-05-01T08:11:31Z</time>
      </trkpt>
      <trkpt lat="47.43806" lon="0.8708">
        <ele>133</ele>
        <time>2011-05-01T08:11:34Z</time>
      </trkpt>
      <trkpt lat="47.43803" lon="0.87088">
        <ele>134</ele>
        <time>2011-05-01T08:11:37Z</time>
      </trkpt>
      <trkpt lat="47.43801" lon="0.87094">
        <ele>136</ele>
        <time>2011-05-01T08:11:40Z</time>
      </trkpt>
      <trkpt lat="47.43798" lon="0.87102">
        <ele>136</ele>
        <time>2011-05-01T08:11:44Z</time>
      </trkpt>
      <trkpt lat="47.43797" lon="0.87108">
        <ele>137</ele>
        <time>2011-05-01T08:11:46Z</time>
      </trkpt>
      <trkpt lat="47.43793" lon="0.87112">
        <ele>136</ele>
        <time>2011-05-01T08:11:48Z</time>
      </trkpt>
      <trkpt lat="47.43791" lon="0.87119">
        <ele>137</ele>
        <time>2011-05-01T08:11:51Z</time>
      </trkpt>
      <trkpt lat="47.4379" lon="0.87128">
        <ele>139</ele>
        <time>2011-05-01T08:11:54Z</time>
      </trkpt>
      <trkpt lat="47.43788" lon="0.87136">
        <ele>139</ele>
        <time>2011-05-01T08:11:57Z</time>
      </trkpt>
      <trkpt lat="47.43785" lon="0.87143">
        <ele>140</ele>
        <time>2011-05-01T08:11:59Z</time>
      </trkpt>
      <trkpt lat="47.43783" lon="0.87151">
        <ele>143</ele>
        <time>2011-05-01T08:12:02Z</time>
      </trkpt>
      <trkpt lat="47.43782" lon="0.87157">
        <ele>143</ele>
        <time>2011-05-01T08:12:04Z</time>
      </trkpt>
      <trkpt lat="47.43781" lon="0.87166">
        <ele>143</ele>
        <time>2011-05-01T08:12:07Z</time>
      </trkpt>
      <trkpt lat="47.43779" lon="0.87174">
        <ele>144</ele>
        <time>2011-05-01T08:12:09Z</time>
      </trkpt>
      <trkpt lat="47.43778" lon="0.8718">
        <ele>144</ele>
        <time>2011-05-01T08:12:11Z</time>
      </trkpt>
      <trkpt lat="47.43777" lon="0.87187">
        <ele>145</ele>
        <time>2011-05-01T08:12:13Z</time>
      </trkpt>
      <trkpt lat="47.43776" lon="0.87199">
        <ele>144</ele>
        <time>2011-05-01T08:12:16Z</time>
      </trkpt>
      <trkpt lat="47.43776" lon="0.87206">
        <ele>145</ele>
        <time>2011-05-01T08:12:18Z</time>
      </trkpt>
      <trkpt lat="47.43776" lon="0.87215">
        <ele>146</ele>
        <time>2011-05-01T08:12:20Z</time>
      </trkpt>
      <trkpt lat="47.43776" lon="0.87224">
        <ele>147</ele>
        <time>2011-05-01T08:12:22Z</time>
      </trkpt>
      <trkpt lat="47.43775" lon="0.87233">
        <ele>147</ele>
        <time>2011-05-01T08:12:24Z</time>
      </trkpt>
      <trkpt lat="47.43776" lon="0.87242">
        <ele>147</ele>
        <time>2011-05-01T08:12:26Z</time>
      </trkpt>
      <trkpt lat="47.43776" lon="0.87251">
        <ele>147</ele>
        <time>2011-05-01T08:12:28Z</time>
      </trkpt>
      <trkpt lat="47.43776" lon="0.8726">
        <ele>148</ele>
        <time>2011-05-01T08:12:30Z</time>
      </trkpt>
      <trkpt lat="47.43778" lon="0.8727">
        <ele>147</ele>
        <time>2011-05-01T08:12:32Z</time>
      </trkpt>
      <trkpt lat="47.4378" lon="0.8728">
        <ele>148</ele>
        <time>2011-05-01T08:12:34Z</time>
      </trkpt>
      <trkpt lat="47.43782" lon="0.8729">
        <ele>149</ele>
        <time>2011-05-01T08:12:36Z</time>
      </trkpt>
      <trkpt lat="47.43784" lon="0.87299">
        <ele>149</ele>
        <time>2011-05-01T08:12:38Z</time>
      </trkpt>
      <trkpt lat="47.43786" lon="0.87309">
        <ele>149</ele>
        <time>2011-05-01T08:12:40Z</time>
      </trkpt>
      <trkpt lat="47.43789" lon="0.87318">
        <ele>149</ele>
        <time>2011-05-01T08:12:42Z</time>
      </trkpt>
      <trkpt lat="47.43792" lon="0.87327">
        <ele>150</ele>
        <time>2011-05-01T08:12:44Z</time>
      </trkpt>
      <trkpt lat="47.43794" lon="0.87337">
        <ele>150</ele>
        <time>2011-05-01T08:12:46Z</time>
      </trkpt>
      <trkpt lat="47.43797" lon="0.87346">
        <ele>150</ele>
        <time>2011-05-01T08:12:48Z</time>
      </trkpt>
      <trkpt lat="47.43799" lon="0.87356">
        <ele>151</ele>
        <time>2011-05-01T08:12:50Z</time>
      </trkpt>
      <trkpt lat="47.43801" lon="0.87365">
        <ele>151</ele>
        <time>2011-05-01T08:12:52Z</time>
      </trkpt>
      <trkpt lat="47.43803" lon="0.87374">
        <ele>151</ele>
        <time>2011-05-01T08:12:54Z</time>
      </trkpt>
      <trkpt lat="47.43805" lon="0.87384">
        <ele>152</ele>
        <time>2011-05-01T08:12:56Z</time>
      </trkpt>
      <trkpt lat="47.43807" lon="0.87394">
        <ele>151</ele>
        <time>2011-05-01T08:12:58Z</time>
      </trkpt>
      <trkpt lat="47.4381" lon="0.87404">
        <ele>152</ele>
        <time>2011-05-01T08:13:00Z</time>
      </trkpt>
      <trkpt lat="47.43812" lon="0.87414">
        <ele>152</ele>
        <time>2011-05-01T08:13:02Z</time>
      </trkpt>
      <trkpt lat="47.43813" lon="0.87424">
        <ele>152</ele>
        <time>2011-05-01T08:13:04Z</time>
      </trkpt>
      <trkpt lat="47.43815" lon="0.87433">
        <ele>153</ele>
        <time>2011-05-01T08:13:06Z</time>
      </trkpt>
      <trkpt lat="47.43818" lon="0.87442">
        <ele>153</ele>
        <time>2011-05-01T08:13:08Z</time>
      </trkpt>
      <trkpt lat="47.43819" lon="0.87452">
        <ele>152</ele>
        <time>2011-05-01T08:13:10Z</time>
      </trkpt>
      <trkpt lat="47.4382" lon="0.87463">
        <ele>152</ele>
        <time>2011-05-01T08:13:12Z</time>
      </trkpt>
      <trkpt lat="47.43821" lon="0.87475">
        <ele>153</ele>
        <time>2011-05-01T08:13:14Z</time>
      </trkpt>
      <trkpt lat="47.43823" lon="0.87487">
        <ele>153</ele>
        <time>2011-05-01T08:13:16Z</time>
      </trkpt>
      <trkpt lat="47.43825" lon="0.87498">
        <ele>153</ele>
        <time>2011-05-01T08:13:18Z</time>
      </trkpt>
      <trkpt lat="47.43826" lon="0.8751">
        <ele>154</ele>
        <time>2011-05-01T08:13:20Z</time>
      </trkpt>
      <trkpt lat="47.43827" lon="0.87516">
        <ele>154</ele>
        <time>2011-05-01T08:13:21Z</time>
      </trkpt>
      <trkpt lat="47.43829" lon="0.87528">
        <ele>154</ele>
        <time>2011-05-01T08:13:23Z</time>
      </trkpt>
      <trkpt lat="47.43831" lon="0.8754">
        <ele>154</ele>
        <time>2011-05-01T08:13:25Z</time>
      </trkpt>
      <trkpt lat="47.43832" lon="0.87547">
        <ele>154</ele>
        <time>2011-05-01T08:13:26Z</time>
      </trkpt>
      <trkpt lat="47.43834" lon="0.87559">
        <ele>154</ele>
        <time>2011-05-01T08:13:28Z</time>
      </trkpt>
      <trkpt lat="47.43836" lon="0.87571">
        <ele>154</ele>
        <time>2011-05-01T08:13:30Z</time>
      </trkpt>
      <trkpt lat="47.43837" lon="0.87578">
        <ele>154</ele>
        <time>2011-05-01T08:13:31Z</time>
      </trkpt>
      <trkpt lat="47.43839" lon="0.87589">
        <ele>155</ele>
        <time>2011-05-01T08:13:33Z</time>
      </trkpt>
      <trkpt lat="47.43842" lon="0.87601">
        <ele>154</ele>
        <time>2011-05-01T08:13:35Z</time>
      </trkpt>
      <trkpt lat="47.43845" lon="0.87613">
        <ele>155</ele>
        <time>2011-05-01T08:13:37Z</time>
      </trkpt>
      <trkpt lat="47.43849" lon="0.87624">
        <ele>155</ele>
        <time>2011-05-01T08:13:39Z</time>
      </trkpt>
      <trkpt lat="47.43852" lon="0.87637">
        <ele>155</ele>
        <time>2011-05-01T08:13:41Z</time>
      </trkpt>
      <trkpt lat="47.43856" lon="0.87648">
        <ele>155</ele>
        <time>2011-05-01T08:13:43Z</time>
      </trkpt>
      <trkpt lat="47.43859" lon="0.87659">
        <ele>155</ele>
        <time>2011-05-01T08:13:45Z</time>
      </trkpt>
      <trkpt lat="47.43862" lon="0.8767">
        <ele>155</ele>
        <time>2011-05-01T08:13:47Z</time>
      </trkpt>
      <trkpt lat="47.43865" lon="0.87682">
        <ele>155</ele>
        <time>2011-05-01T08:13:49Z</time>
      </trkpt>
      <trkpt lat="47.43868" lon="0.87694">
        <ele>156</ele>
        <time>2011-05-01T08:13:51Z</time>
      </trkpt>
      <trkpt lat="47.4387" lon="0.877">
        <ele>156</ele>
        <time>2011-05-01T08:13:52Z</time>
      </trkpt>
      <trkpt lat="47.43873" lon="0.87711">
        <ele>156</ele>
        <time>2011-05-01T08:13:54Z</time>
      </trkpt>
      <trkpt lat="47.43876" lon="0.87723">
        <ele>156</ele>
        <time>2011-05-01T08:13:56Z</time>
      </trkpt>
      <trkpt lat="47.43878" lon="0.87729">
        <ele>157</ele>
        <time>2011-05-01T08:13:57Z</time>
      </trkpt>
      <trkpt lat="47.4388" lon="0.87736">
        <ele>157</ele>
        <time>2011-05-01T08:13:58Z</time>
      </trkpt>
      <trkpt lat="47.43881" lon="0.87742">
        <ele>157</ele>
        <time>2011-05-01T08:13:59Z</time>
      </trkpt>
      <trkpt lat="47.43883" lon="0.8775">
        <ele>157</ele>
        <time>2011-05-01T08:14:00Z</time>
      </trkpt>
      <trkpt lat="47.43884" lon="0.87756">
        <ele>157</ele>
        <time>2011-05-01T08:14:01Z</time>
      </trkpt>
      <trkpt lat="47.43886" lon="0.87763">
        <ele>157</ele>
        <time>2011-05-01T08:14:02Z</time>
      </trkpt>
      <trkpt lat="47.43887" lon="0.8777">
        <ele>157</ele>
        <time>2011-05-01T08:14:03Z</time>
      </trkpt>
      <trkpt lat="47.43889" lon="0.87777">
        <ele>157</ele>
        <time>2011-05-01T08:14:04Z</time>
      </trkpt>
      <trkpt lat="47.43891" lon="0.87783">
        <ele>156</ele>
        <time>2011-05-01T08:14:05Z</time>
      </trkpt>
      <trkpt lat="47.43893" lon="0.8779">
        <ele>156</ele>
        <time>2011-05-01T08:14:06Z</time>
      </trkpt>
      <trkpt lat="47.43894" lon="0.87797">
        <ele>157</ele>
        <time>2011-05-01T08:14:07Z</time>
      </trkpt>
      <trkpt lat="47.43896" lon="0.87804">
        <ele>157</ele>
        <time>2011-05-01T08:14:08Z</time>
      </trkpt>
      <trkpt lat="47.43898" lon="0.8781">
        <ele>157</ele>
        <time>2011-05-01T08:14:09Z</time>
      </trkpt>
      <trkpt lat="47.439" lon="0.87816">
        <ele>157</ele>
        <time>2011-05-01T08:14:10Z</time>
      </trkpt>
      <trkpt lat="47.43901" lon="0.87823">
        <ele>157</ele>
        <time>2011-05-01T08:14:11Z</time>
      </trkpt>
      <trkpt lat="47.43904" lon="0.87835">
        <ele>157</ele>
        <time>2011-05-01T08:14:13Z</time>
      </trkpt>
      <trkpt lat="47.43905" lon="0.87842">
        <ele>156</ele>
        <time>2011-05-01T08:14:14Z</time>
      </trkpt>
      <trkpt lat="47.43906" lon="0.87849">
        <ele>156</ele>
        <time>2011-05-01T08:14:15Z</time>
      </trkpt>
      <trkpt lat="47.43908" lon="0.87856">
        <ele>157</ele>
        <time>2011-05-01T08:14:16Z</time>
      </trkpt>
      <trkpt lat="47.4391" lon="0.87863">
        <ele>157</ele>
        <time>2011-05-01T08:14:17Z</time>
      </trkpt>
      <trkpt lat="47.43912" lon="0.8787">
        <ele>157</ele>
        <time>2011-05-01T08:14:18Z</time>
      </trkpt>
      <trkpt lat="47.43913" lon="0.87877">
        <ele>157</ele>
        <time>2011-05-01T08:14:19Z</time>
      </trkpt>
      <trkpt lat="47.43914" lon="0.87884">
        <ele>158</ele>
        <time>2011-05-01T08:14:20Z</time>
      </trkpt>
      <trkpt lat="47.43916" lon="0.87892">
        <ele>158</ele>
        <time>2011-05-01T08:14:21Z</time>
      </trkpt>
      <trkpt lat="47.43917" lon="0.87899">
        <ele>158</ele>
        <time>2011-05-01T08:14:22Z</time>
      </trkpt>
      <trkpt lat="47.43919" lon="0.87907">
        <ele>158</ele>
        <time>2011-05-01T08:14:23Z</time>
      </trkpt>
      <trkpt lat="47.43921" lon="0.87914">
        <ele>158</ele>
        <time>2011-05-01T08:14:24Z</time>
      </trkpt>
      <trkpt lat="47.43923" lon="0.8792">
        <ele>158</ele>
        <time>2011-05-01T08:14:25Z</time>
      </trkpt>
      <trkpt lat="47.43925" lon="0.87928">
        <ele>158</ele>
        <time>2011-05-01T08:14:26Z</time>
      </trkpt>
      <trkpt lat="47.43927" lon="0.87935">
        <ele>158</ele>
        <time>2011-05-01T08:14:27Z</time>
      </trkpt>
      <trkpt lat="47.43929" lon="0.87942">
        <ele>158</ele>
        <time>2011-05-01T08:14:28Z</time>
      </trkpt>
      <trkpt lat="47.43932" lon="0.87949">
        <ele>158</ele>
        <time>2011-05-01T08:14:29Z</time>
      </trkpt>
      <trkpt lat="47.43934" lon="0.87955">
        <ele>157</ele>
        <time>2011-05-01T08:14:30Z</time>
      </trkpt>
      <trkpt lat="47.43937" lon="0.87962">
        <ele>157</ele>
        <time>2011-05-01T08:14:31Z</time>
      </trkpt>
      <trkpt lat="47.43939" lon="0.87969">
        <ele>157</ele>
        <time>2011-05-01T08:14:32Z</time>
      </trkpt>
      <trkpt lat="47.43941" lon="0.87976">
        <ele>157</ele>
        <time>2011-05-01T08:14:33Z</time>
      </trkpt>
      <trkpt lat="47.43943" lon="0.87983">
        <ele>157</ele>
        <time>2011-05-01T08:14:34Z</time>
      </trkpt>
      <trkpt lat="47.43946" lon="0.87989">
        <ele>157</ele>
        <time>2011-05-01T08:14:35Z</time>
      </trkpt>
      <trkpt lat="47.43947" lon="0.87996">
        <ele>157</ele>
        <time>2011-05-01T08:14:36Z</time>
      </trkpt>
      <trkpt lat="47.4395" lon="0.88003">
        <ele>157</ele>
        <time>2011-05-01T08:14:37Z</time>
      </trkpt>
      <trkpt lat="47.43951" lon="0.8801">
        <ele>157</ele>
        <time>2011-05-01T08:14:38Z</time>
      </trkpt>
      <trkpt lat="47.43952" lon="0.88018">
        <ele>157</ele>
        <time>2011-05-01T08:14:39Z</time>
      </trkpt>
      <trkpt lat="47.43953" lon="0.88026">
        <ele>157</ele>
        <time>2011-05-01T08:14:40Z</time>
      </trkpt>
      <trkpt lat="47.43954" lon="0.88034">
        <ele>157</ele>
        <time>2011-05-01T08:14:41Z</time>
      </trkpt>
      <trkpt lat="47.43954" lon="0.88042">
        <ele>158</ele>
        <time>2011-05-01T08:14:42Z</time>
      </trkpt>
      <trkpt lat="47.43954" lon="0.8805">
        <ele>158</ele>
        <time>2011-05-01T08:14:43Z</time>
      </trkpt>
      <trkpt lat="47.43955" lon="0.88058">
        <ele>157</ele>
        <time>2011-05-01T08:14:44Z</time>
      </trkpt>
      <trkpt lat="47.43955" lon="0.88066">
        <ele>157</ele>
        <time>2011-05-01T08:14:45Z</time>
      </trkpt>
      <trkpt lat="47.43955" lon="0.88072">
        <ele>157</ele>
        <time>2011-05-01T08:14:46Z</time>
      </trkpt>
      <trkpt lat="47.43955" lon="0.8808">
        <ele>157</ele>
        <time>2011-05-01T08:14:47Z</time>
      </trkpt>
      <trkpt lat="47.43954" lon="0.88088">
        <ele>157</ele>
        <time>2011-05-01T08:14:48Z</time>
      </trkpt>
      <trkpt lat="47.43955" lon="0.88096">
        <ele>157</ele>
        <time>2011-05-01T08:14:49Z</time>
      </trkpt>
      <trkpt lat="47.43954" lon="0.88102">
        <ele>157</ele>
        <time>2011-05-01T08:14:50Z</time>
      </trkpt>
      <trkpt lat="47.43953" lon="0.8811">
        <ele>157</ele>
        <time>2011-05-01T08:14:51Z</time>
      </trkpt>
      <trkpt lat="47.43953" lon="0.88118">
        <ele>157</ele>
        <time>2011-05-01T08:14:52Z</time>
      </trkpt>
      <trkpt lat="47.43952" lon="0.88126">
        <ele>157</ele>
        <time>2011-05-01T08:14:53Z</time>
      </trkpt>
      <trkpt lat="47.43952" lon="0.88133">
        <ele>157</ele>
        <time>2011-05-01T08:14:54Z</time>
      </trkpt>
      <trkpt lat="47.4395" lon="0.8814">
        <ele>157</ele>
        <time>2011-05-01T08:14:55Z</time>
      </trkpt>
      <trkpt lat="47.43949" lon="0.88148">
        <ele>157</ele>
        <time>2011-05-01T08:14:56Z</time>
      </trkpt>
      <trkpt lat="47.43947" lon="0.88154">
        <ele>157</ele>
        <time>2011-05-01T08:14:57Z</time>
      </trkpt>
      <trkpt lat="47.43945" lon="0.88162">
        <ele>157</ele>
        <time>2011-05-01T08:14:58Z</time>
      </trkpt>
      <trkpt lat="47.43944" lon="0.8817">
        <ele>157</ele>
        <time>2011-05-01T08:14:59Z</time>
      </trkpt>
      <trkpt lat="47.43942" lon="0.88178">
        <ele>158</ele>
        <time>2011-05-01T08:15:00Z</time>
      </trkpt>
      <trkpt lat="47.43942" lon="0.88187">
        <ele>158</ele>
        <time>2011-05-01T08:15:01Z</time>
      </trkpt>
      <trkpt lat="47.43943" lon="0.88195">
        <ele>158</ele>
        <time>2011-05-01T08:15:02Z</time>
      </trkpt>
      <trkpt lat="47.43943" lon="0.88202">
        <ele>158</ele>
        <time>2011-05-01T08:15:03Z</time>
      </trkpt>
      <trkpt lat="47.43945" lon="0.88209">
        <ele>158</ele>
        <time>2011-05-01T08:15:04Z</time>
      </trkpt>
      <trkpt lat="47.43945" lon="0.88224">
        <ele>159</ele>
        <time>2011-05-01T08:15:06Z</time>
      </trkpt>
      <trkpt lat="47.43946" lon="0.88231">
        <ele>158</ele>
        <time>2011-05-01T08:15:07Z</time>
      </trkpt>
      <trkpt lat="47.43947" lon="0.88238">
        <ele>158</ele>
        <time>2011-05-01T08:15:08Z</time>
      </trkpt>
      <trkpt lat="47.43948" lon="0.88245">
        <ele>158</ele>
        <time>2011-05-01T08:15:09Z</time>
      </trkpt>
      <trkpt lat="47.4395" lon="0.88252">
        <ele>158</ele>
        <time>2011-05-01T08:15:10Z</time>
      </trkpt>
      <trkpt lat="47.4395" lon="0.8826">
        <ele>158</ele>
        <time>2011-05-01T08:15:11Z</time>
      </trkpt>
      <trkpt lat="47.4395" lon="0.88268">
        <ele>158</ele>
        <time>2011-05-01T08:15:12Z</time>
      </trkpt>
      <trkpt lat="47.4395" lon="0.88275">
        <ele>158</ele>
        <time>2011-05-01T08:15:13Z</time>
      </trkpt>
      <trkpt lat="47.43951" lon="0.88283">
        <ele>157</ele>
        <time>2011-05-01T08:15:14Z</time>
      </trkpt>
      <trkpt lat="47.43952" lon="0.88291">
        <ele>157</ele>
        <time>2011-05-01T08:15:15Z</time>
      </trkpt>
      <trkpt lat="47.43953" lon="0.88299">
        <ele>157</ele>
        <time>2011-05-01T08:15:16Z</time>
      </trkpt>
      <trkpt lat="47.43954" lon="0.88307">
        <ele>157</ele>
        <time>2011-05-01T08:15:17Z</time>
      </trkpt>
      <trkpt lat="47.43955" lon="0.88315">
        <ele>157</ele>
        <time>2011-05-01T08:15:18Z</time>
      </trkpt>
      <trkpt lat="47.43956" lon="0.88323">
        <ele>157</ele>
        <time>2011-05-01T08:15:19Z</time>
      </trkpt>
      <trkpt lat="47.43956" lon="0.8833">
        <ele>157</ele>
        <time>2011-05-01T08:15:20Z</time>
      </trkpt>
      <trkpt lat="47.43956" lon="0.88338">
        <ele>158</ele>
        <time>2011-05-01T08:15:21Z</time>
      </trkpt>
      <trkpt lat="47.43957" lon="0.88346">
        <ele>158</ele>
        <time>2011-05-01T08:15:22Z</time>
      </trkpt>
      <trkpt lat="47.43959" lon="0.88352">
        <ele>157</ele>
        <time>2011-05-01T08:15:23Z</time>
      </trkpt>
      <trkpt lat="47.4396" lon="0.88359">
        <ele>157</ele>
        <time>2011-05-01T08:15:24Z</time>
      </trkpt>
      <trkpt lat="47.43961" lon="0.88366">
        <ele>157</ele>
        <time>2011-05-01T08:15:25Z</time>
      </trkpt>
      <trkpt lat="47.43963" lon="0.88379">
        <ele>157</ele>
        <time>2011-05-01T08:15:27Z</time>
      </trkpt>
      <trkpt lat="47.43965" lon="0.88387">
        <ele>157</ele>
        <time>2011-05-01T08:15:28Z</time>
      </trkpt>
      <trkpt lat="47.43965" lon="0.88395">
        <ele>158</ele>
        <time>2011-05-01T08:15:29Z</time>
      </trkpt>
      <trkpt lat="47.43966" lon="0.88402">
        <ele>158</ele>
        <time>2011-05-01T08:15:30Z</time>
      </trkpt>
      <trkpt lat="47.43967" lon="0.8841">
        <ele>158</ele>
        <time>2011-05-01T08:15:31Z</time>
      </trkpt>
      <trkpt lat="47.43968" lon="0.88418">
        <ele>159</ele>
        <time>2011-05-01T08:15:32Z</time>
      </trkpt>
      <trkpt lat="47.43969" lon="0.88425">
        <ele>159</ele>
        <time>2011-05-01T08:15:33Z</time>
      </trkpt>
      <trkpt lat="47.4397" lon="0.88434">
        <ele>159</ele>
        <time>2011-05-01T08:15:34Z</time>
      </trkpt>
      <trkpt lat="47.4397" lon="0.88442">
        <ele>158</ele>
        <time>2011-05-01T08:15:35Z</time>
      </trkpt>
      <trkpt lat="47.43971" lon="0.8845">
        <ele>158</ele>
        <time>2011-05-01T08:15:36Z</time>
      </trkpt>
      <trkpt lat="47.43972" lon="0.88458">
        <ele>158</ele>
        <time>2011-05-01T08:15:37Z</time>
      </trkpt>
      <trkpt lat="47.43973" lon="0.88465">
        <ele>158</ele>
        <time>2011-05-01T08:15:38Z</time>
      </trkpt>
      <trkpt lat="47.43975" lon="0.88473">
        <ele>158</ele>
        <time>2011-05-01T08:15:39Z</time>
      </trkpt>
      <trkpt lat="47.43976" lon="0.88481">
        <ele>158</ele>
        <time>2011-05-01T08:15:40Z</time>
      </trkpt>
      <trkpt lat="47.43977" lon="0.88487">
        <ele>158</ele>
        <time>2011-05-01T08:15:41Z</time>
      </trkpt>
      <trkpt lat="47.43977" lon="0.88495">
        <ele>158</ele>
        <time>2011-05-01T08:15:42Z</time>
      </trkpt>
      <trkpt lat="47.43978" lon="0.88503">
        <ele>159</ele>
        <time>2011-05-01T08:15:43Z</time>
      </trkpt>
      <trkpt lat="47.43979" lon="0.88511">
        <ele>158</ele>
        <time>2011-05-01T08:15:44Z</time>
      </trkpt>
      <trkpt lat="47.43981" lon="0.88519">
        <ele>159</ele>
        <time>2011-05-01T08:15:45Z</time>
      </trkpt>
      <trkpt lat="47.43981" lon="0.88527">
        <ele>159</ele>
        <time>2011-05-01T08:15:46Z</time>
      </trkpt>
      <trkpt lat="47.43982" lon="0.88535">
        <ele>159</ele>
        <time>2011-05-01T08:15:47Z</time>
      </trkpt>
      <trkpt lat="47.43983" lon="0.88543">
        <ele>160</ele>
        <time>2011-05-01T08:15:48Z</time>
      </trkpt>
      <trkpt lat="47.43984" lon="0.88552">
        <ele>159</ele>
        <time>2011-05-01T08:15:49Z</time>
      </trkpt>
      <trkpt lat="47.43985" lon="0.8856">
        <ele>159</ele>
        <time>2011-05-01T08:15:50Z</time>
      </trkpt>
      <trkpt lat="47.43986" lon="0.88567">
        <ele>160</ele>
        <time>2011-05-01T08:15:51Z</time>
      </trkpt>
      <trkpt lat="47.43987" lon="0.88575">
        <ele>160</ele>
        <time>2011-05-01T08:15:52Z</time>
      </trkpt>
      <trkpt lat="47.43987" lon="0.88584">
        <ele>160</ele>
        <time>2011-05-01T08:15:53Z</time>
      </trkpt>
      <trkpt lat="47.43987" lon="0.88592">
        <ele>160</ele>
        <time>2011-05-01T08:15:54Z</time>
      </trkpt>
      <trkpt lat="47.43986" lon="0.88599">
        <ele>160</ele>
        <time>2011-05-01T08:15:55Z</time>
      </trkpt>
      <trkpt lat="47.43985" lon="0.88607">
        <ele>160</ele>
        <time>2011-05-01T08:15:56Z</time>
      </trkpt>
      <trkpt lat="47.43984" lon="0.88615">
        <ele>160</ele>
        <time>2011-05-01T08:15:57Z</time>
      </trkpt>
      <trkpt lat="47.43982" lon="0.88623">
        <ele>160</ele>
        <time>2011-05-01T08:15:58Z</time>
      </trkpt>
      <trkpt lat="47.4398" lon="0.88631">
        <ele>160</ele>
        <time>2011-05-01T08:15:59Z</time>
      </trkpt>
      <trkpt lat="47.43978" lon="0.88638">
        <ele>160</ele>
        <time>2011-05-01T08:16:00Z</time>
      </trkpt>
      <trkpt lat="47.43975" lon="0.88646">
        <ele>160</ele>
        <time>2011-05-01T08:16:01Z</time>
      </trkpt>
      <trkpt lat="47.43973" lon="0.88653">
        <ele>160</ele>
        <time>2011-05-01T08:16:02Z</time>
      </trkpt>
      <trkpt lat="47.43971" lon="0.88661">
        <ele>160</ele>
        <time>2011-05-01T08:16:03Z</time>
      </trkpt>
      <trkpt lat="47.43969" lon="0.88669">
        <ele>160</ele>
        <time>2011-05-01T08:16:04Z</time>
      </trkpt>
      <trkpt lat="47.43968" lon="0.88678">
        <ele>160</ele>
        <time>2011-05-01T08:16:05Z</time>
      </trkpt>
      <trkpt lat="47.43967" lon="0.88686">
        <ele>160</ele>
        <time>2011-05-01T08:16:06Z</time>
      </trkpt>
      <trkpt lat="47.43966" lon="0.88695">
        <ele>160</ele>
        <time>2011-05-01T08:16:07Z</time>
      </trkpt>
      <trkpt lat="47.43967" lon="0.88703">
        <ele>159</ele>
        <time>2011-05-01T08:16:08Z</time>
      </trkpt>
      <trkpt lat="47.43967" lon="0.88711">
        <ele>159</ele>
        <time>2011-05-01T08:16:09Z</time>
      </trkpt>
      <trkpt lat="47.43968" lon="0.8872">
        <ele>158</ele>
        <time>2011-05-01T08:16:10Z</time>
      </trkpt>
      <trkpt lat="47.43969" lon="0.88728">
        <ele>158</ele>
        <time>2011-05-01T08:16:11Z</time>
      </trkpt>
      <trkpt lat="47.4397" lon="0.88738">
        <ele>158</ele>
        <time>2011-05-01T08:16:12Z</time>
      </trkpt>
      <trkpt lat="47.4397" lon="0.88746">
        <ele>158</ele>
        <time>2011-05-01T08:16:13Z</time>
      </trkpt>
      <trkpt lat="47.43972" lon="0.88755">
        <ele>158</ele>
        <time>2011-05-01T08:16:14Z</time>
      </trkpt>
      <trkpt lat="47.43973" lon="0.88764">
        <ele>158</ele>
        <time>2011-05-01T08:16:15Z</time>
      </trkpt>
      <trkpt lat="47.43974" lon="0.88772">
        <ele>158</ele>
        <time>2011-05-01T08:16:16Z</time>
      </trkpt>
      <trkpt lat="47.43975" lon="0.88781">
        <ele>158</ele>
        <time>2011-05-01T08:16:17Z</time>
      </trkpt>
      <trkpt lat="47.43976" lon="0.8879">
        <ele>158</ele>
        <time>2011-05-01T08:16:18Z</time>
      </trkpt>
      <trkpt lat="47.43977" lon="0.88798">
        <ele>158</ele>
        <time>2011-05-01T08:16:19Z</time>
      </trkpt>
      <trkpt lat="47.43977" lon="0.88806">
        <ele>158</ele>
        <time>2011-05-01T08:16:20Z</time>
      </trkpt>
      <trkpt lat="47.43978" lon="0.88815">
        <ele>158</ele>
        <time>2011-05-01T08:16:21Z</time>
      </trkpt>
      <trkpt lat="47.4398" lon="0.88824">
        <ele>158</ele>
        <time>2011-05-01T08:16:22Z</time>
      </trkpt>
      <trkpt lat="47.43981" lon="0.88833">
        <ele>158</ele>
        <time>2011-05-01T08:16:23Z</time>
      </trkpt>
      <trkpt lat="47.43982" lon="0.88842">
        <ele>158</ele>
        <time>2011-05-01T08:16:24Z</time>
      </trkpt>
      <trkpt lat="47.43982" lon="0.8885">
        <ele>158</ele>
        <time>2011-05-01T08:16:25Z</time>
      </trkpt>
      <trkpt lat="47.43983" lon="0.88859">
        <ele>158</ele>
        <time>2011-05-01T08:16:26Z</time>
      </trkpt>
      <trkpt lat="47.43984" lon="0.88867">
        <ele>158</ele>
        <time>2011-05-01T08:16:27Z</time>
      </trkpt>
      <trkpt lat="47.43986" lon="0.88876">
        <ele>158</ele>
        <time>2011-05-01T08:16:28Z</time>
      </trkpt>
      <trkpt lat="47.43987" lon="0.88884">
        <ele>158</ele>
        <time>2011-05-01T08:16:29Z</time>
      </trkpt>
      <trkpt lat="47.43988" lon="0.88891">
        <ele>158</ele>
        <time>2011-05-01T08:16:30Z</time>
      </trkpt>
      <trkpt lat="47.43989" lon="0.88898">
        <ele>158</ele>
        <time>2011-05-01T08:16:31Z</time>
      </trkpt>
      <trkpt lat="47.43991" lon="0.88906">
        <ele>158</ele>
        <time>2011-05-01T08:16:32Z</time>
      </trkpt>
      <trkpt lat="47.43994" lon="0.88912">
        <ele>158</ele>
        <time>2011-05-01T08:16:33Z</time>
      </trkpt>
      <trkpt lat="47.44" lon="0.88919">
        <ele>158</ele>
        <time>2011-05-01T08:16:35Z</time>
      </trkpt>
      <trkpt lat="47.44005" lon="0.88918">
        <ele>158</ele>
        <time>2011-05-01T08:16:36Z</time>
      </trkpt>
      <trkpt lat="47.44014" lon="0.88914">
        <ele>158</ele>
        <time>2011-05-01T08:16:38Z</time>
      </trkpt>
      <trkpt lat="47.44019" lon="0.8891">
        <ele>157</ele>
        <time>2011-05-01T08:16:39Z</time>
      </trkpt>
      <trkpt lat="47.44023" lon="0.88908">
        <ele>157</ele>
        <time>2011-05-01T08:16:40Z</time>
      </trkpt>
      <trkpt lat="47.44028" lon="0.88906">
        <ele>157</ele>
        <time>2011-05-01T08:16:41Z</time>
      </trkpt>
      <trkpt lat="47.44035" lon="0.88904">
        <ele>157</ele>
        <time>2011-05-01T08:16:42Z</time>
      </trkpt>
      <trkpt lat="47.44041" lon="0.88902">
        <ele>157</ele>
        <time>2011-05-01T08:16:43Z</time>
      </trkpt>
      <trkpt lat="47.44046" lon="0.88901">
        <ele>156</ele>
        <time>2011-05-01T08:16:44Z</time>
      </trkpt>
      <trkpt lat="47.44052" lon="0.889">
        <ele>156</ele>
        <time>2011-05-01T08:16:45Z</time>
      </trkpt>
      <trkpt lat="47.44063" lon="0.88898">
        <ele>156</ele>
        <time>2011-05-01T08:16:47Z</time>
      </trkpt>
      <trkpt lat="47.44069" lon="0.88896">
        <ele>156</ele>
        <time>2011-05-01T08:16:48Z</time>
      </trkpt>
      <trkpt lat="47.44074" lon="0.88895">
        <ele>156</ele>
        <time>2011-05-01T08:16:49Z</time>
      </trkpt>
      <trkpt lat="47.44079" lon="0.88894">
        <ele>156</ele>
        <time>2011-05-01T08:16:50Z</time>
      </trkpt>
      <trkpt lat="47.44084" lon="0.88893">
        <ele>155</ele>
        <time>2011-05-01T08:16:51Z</time>
      </trkpt>
      <trkpt lat="47.4409" lon="0.88891">
        <ele>155</ele>
        <time>2011-05-01T08:16:52Z</time>
      </trkpt>
      <trkpt lat="47.44098" lon="0.88891">
        <ele>155</ele>
        <time>2011-05-01T08:16:53Z</time>
      </trkpt>
      <trkpt lat="47.44107" lon="0.88894">
        <ele>155</ele>
        <time>2011-05-01T08:16:54Z</time>
      </trkpt>
      <trkpt lat="47.44113" lon="0.88899">
        <ele>156</ele>
        <time>2011-05-01T08:16:55Z</time>
      </trkpt>
      <trkpt lat="47.44118" lon="0.88907">
        <ele>156</ele>
        <time>2011-05-01T08:16:56Z</time>
      </trkpt>
      <trkpt lat="47.44122" lon="0.88914">
        <ele>156</ele>
        <time>2011-05-01T08:16:57Z</time>
      </trkpt>
      <trkpt lat="47.44126" lon="0.8892">
        <ele>156</ele>
        <time>2011-05-01T08:16:58Z</time>
      </trkpt>
      <trkpt lat="47.4413" lon="0.88929">
        <ele>156</ele>
        <time>2011-05-01T08:16:59Z</time>
      </trkpt>
      <trkpt lat="47.44134" lon="0.88938">
        <ele>156</ele>
        <time>2011-05-01T08:17:00Z</time>
      </trkpt>
      <trkpt lat="47.44139" lon="0.88945">
        <ele>156</ele>
        <time>2011-05-01T08:17:01Z</time>
      </trkpt>
      <trkpt lat="47.44144" lon="0.88954">
        <ele>156</ele>
        <time>2011-05-01T08:17:02Z</time>
      </trkpt>
      <trkpt lat="47.44146" lon="0.88963">
        <ele>155</ele>
        <time>2011-05-01T08:17:03Z</time>
      </trkpt>
      <trkpt lat="47.44151" lon="0.88971">
        <ele>155</ele>
        <time>2011-05-01T08:17:04Z</time>
      </trkpt>
      <trkpt lat="47.44155" lon="0.88982">
        <ele>155</ele>
        <time>2011-05-01T08:17:05Z</time>
      </trkpt>
      <trkpt lat="47.44161" lon="0.8899">
        <ele>155</ele>
        <time>2011-05-01T08:17:06Z</time>
      </trkpt>
      <trkpt lat="47.44164" lon="0.89">
        <ele>155</ele>
        <time>2011-05-01T08:17:07Z</time>
      </trkpt>
      <trkpt lat="47.44168" lon="0.8901">
        <ele>155</ele>
        <time>2011-05-01T08:17:08Z</time>
      </trkpt>
      <trkpt lat="47.44172" lon="0.89019">
        <ele>155</ele>
        <time>2011-05-01T08:17:09Z</time>
      </trkpt>
      <trkpt lat="47.44176" lon="0.89028">
        <ele>155</ele>
        <time>2011-05-01T08:17:10Z</time>
      </trkpt>
      <trkpt lat="47.44181" lon="0.89039">
        <ele>155</ele>
        <time>2011-05-01T08:17:11Z</time>
      </trkpt>
      <trkpt lat="47.44186" lon="0.89049">
        <ele>155</ele>
        <time>2011-05-01T08:17:12Z</time>
      </trkpt>
      <trkpt lat="47.44189" lon="0.8906">
        <ele>155</ele>
        <time>2011-05-01T08:17:13Z</time>
      </trkpt>
      <trkpt lat="47.44194" lon="0.89071">
        <ele>155</ele>
        <time>2011-05-01T08:17:14Z</time>
      </trkpt>
      <trkpt lat="47.44197" lon="0.89085">
        <ele>154</ele>
        <time>2011-05-01T08:17:15Z</time>
      </trkpt>
      <trkpt lat="47.44201" lon="0.891">
        <ele>153</ele>
        <time>2011-05-01T08:17:16Z</time>
      </trkpt>
      <trkpt lat="47.44203" lon="0.89113">
        <ele>153</ele>
        <time>2011-05-01T08:17:17Z</time>
      </trkpt>
      <trkpt lat="47.44206" lon="0.89126">
        <ele>152</ele>
        <time>2011-05-01T08:17:18Z</time>
      </trkpt>
      <trkpt lat="47.4421" lon="0.89138">
        <ele>152</ele>
        <time>2011-05-01T08:17:19Z</time>
      </trkpt>
      <trkpt lat="47.4421" lon="0.89151">
        <ele>152</ele>
        <time>2011-05-01T08:17:20Z</time>
      </trkpt>
      <trkpt lat="47.44212" lon="0.89161">
        <ele>151</ele>
        <time>2011-05-01T08:17:21Z</time>
      </trkpt>
      <trkpt lat="47.44213" lon="0.89172">
        <ele>152</ele>
        <time>2011-05-01T08:17:22Z</time>
      </trkpt>
      <trkpt lat="47.44214" lon="0.89179">
        <ele>151</ele>
        <time>2011-05-01T08:17:23Z</time>
      </trkpt>
      <trkpt lat="47.44216" lon="0.89186">
        <ele>151</ele>
        <time>2011-05-01T08:17:24Z</time>
      </trkpt>
      <trkpt lat="47.44216" lon="0.89194">
        <ele>151</ele>
        <time>2011-05-01T08:17:25Z</time>
      </trkpt>
      <trkpt lat="47.44216" lon="0.89202">
        <ele>151</ele>
        <time>2011-05-01T08:17:26Z</time>
      </trkpt>
      <trkpt lat="47.44214" lon="0.89208">
        <ele>151</ele>
        <time>2011-05-01T08:17:27Z</time>
      </trkpt>
      <trkpt lat="47.44214" lon="0.89215">
        <ele>152</ele>
        <time>2011-05-01T08:17:28Z</time>
      </trkpt>
      <trkpt lat="47.44212" lon="0.89223">
        <ele>152</ele>
        <time>2011-05-01T08:17:29Z</time>
      </trkpt>
      <trkpt lat="47.44211" lon="0.89232">
        <ele>152</ele>
        <time>2011-05-01T08:17:30Z</time>
      </trkpt>
      <trkpt lat="47.44212" lon="0.89238">
        <ele>152</ele>
        <time>2011-05-01T08:17:31Z</time>
      </trkpt>
      <trkpt lat="47.44214" lon="0.89246">
        <ele>152</ele>
        <time>2011-05-01T08:17:32Z</time>
      </trkpt>
      <trkpt lat="47.44214" lon="0.89254">
        <ele>151</ele>
        <time>2011-05-01T08:17:33Z</time>
      </trkpt>
      <trkpt lat="47.44217" lon="0.8926">
        <ele>151</ele>
        <time>2011-05-01T08:17:34Z</time>
      </trkpt>
      <trkpt lat="47.44219" lon="0.89266">
        <ele>151</ele>
        <time>2011-05-01T08:17:35Z</time>
      </trkpt>
      <trkpt lat="47.4422" lon="0.89274">
        <ele>151</ele>
        <time>2011-05-01T08:17:36Z</time>
      </trkpt>
      <trkpt lat="47.44225" lon="0.89284">
        <ele>150</ele>
        <time>2011-05-01T08:17:38Z</time>
      </trkpt>
      <trkpt lat="47.44231" lon="0.89294">
        <ele>149</ele>
        <time>2011-05-01T08:17:40Z</time>
      </trkpt>
      <trkpt lat="47.44236" lon="0.89303">
        <ele>148</ele>
        <time>2011-05-01T08:17:42Z</time>
      </trkpt>
      <trkpt lat="47.44241" lon="0.8931">
        <ele>148</ele>
        <time>2011-05-01T08:17:44Z</time>
      </trkpt>
      <trkpt lat="47.44243" lon="0.89317">
        <ele>149</ele>
        <time>2011-05-01T08:17:46Z</time>
      </trkpt>
      <trkpt lat="47.44245" lon="0.89323">
        <ele>149</ele>
        <time>2011-05-01T08:17:49Z</time>
      </trkpt>
      <trkpt lat="47.44246" lon="0.89332">
        <ele>150</ele>
        <time>2011-05-01T08:17:51Z</time>
      </trkpt>
      <trkpt lat="47.44247" lon="0.89342">
        <ele>150</ele>
        <time>2011-05-01T08:17:53Z</time>
      </trkpt>
      <trkpt lat="47.44254" lon="0.89341">
        <ele>151</ele>
        <time>2011-05-01T08:17:54Z</time>
      </trkpt>
      <trkpt lat="47.44259" lon="0.89344">
        <ele>151</ele>
        <time>2011-05-01T08:17:56Z</time>
      </trkpt>
      <trkpt lat="47.44266" lon="0.89345">
        <ele>151</ele>
        <time>2011-05-01T08:17:58Z</time>
      </trkpt>
      <trkpt lat="47.44271" lon="0.89349">
        <ele>153</ele>
        <time>2011-05-01T08:18:00Z</time>
      </trkpt>
      <trkpt lat="47.44276" lon="0.89352">
        <ele>154</ele>
        <time>2011-05-01T08:18:02Z</time>
      </trkpt>
      <trkpt lat="47.44283" lon="0.89354">
        <ele>154</ele>
        <time>2011-05-01T08:18:04Z</time>
      </trkpt>
      <trkpt lat="47.44288" lon="0.89356">
        <ele>155</ele>
        <time>2011-05-01T08:18:06Z</time>
      </trkpt>
      <trkpt lat="47.44293" lon="0.89357">
        <ele>156</ele>
        <time>2011-05-01T08:18:08Z</time>
      </trkpt>
      <trkpt lat="47.44299" lon="0.89359">
        <ele>157</ele>
        <time>2011-05-01T08:18:10Z</time>
      </trkpt>
      <trkpt lat="47.44305" lon="0.8936">
        <ele>157</ele>
        <time>2011-05-01T08:18:12Z</time>
      </trkpt>
      <trkpt lat="47.44311" lon="0.89363">
        <ele>158</ele>
        <time>2011-05-01T08:18:14Z</time>
      </trkpt>
      <trkpt lat="47.44316" lon="0.89363">
        <ele>158</ele>
        <time>2011-05-01T08:18:16Z</time>
      </trkpt>
      <trkpt lat="47.44321" lon="0.89366">
        <ele>158</ele>
        <time>2011-05-01T08:18:18Z</time>
      </trkpt>
      <trkpt lat="47.44323" lon="0.89373">
        <ele>158</ele>
        <time>2011-05-01T08:18:21Z</time>
      </trkpt>
      <trkpt lat="47.44321" lon="0.89384">
        <ele>158</ele>
        <time>2011-05-01T08:18:24Z</time>
      </trkpt>
      <trkpt lat="47.4432" lon="0.89393">
        <ele>158</ele>
        <time>2011-05-01T08:18:26Z</time>
      </trkpt>
      <trkpt lat="47.44318" lon="0.89403">
        <ele>159</ele>
        <time>2011-05-01T08:18:28Z</time>
      </trkpt>
      <trkpt lat="47.44318" lon="0.89414">
        <ele>159</ele>
        <time>2011-05-01T08:18:30Z</time>
      </trkpt>
      <trkpt lat="47.44317" lon="0.89425">
        <ele>160</ele>
        <time>2011-05-01T08:18:32Z</time>
      </trkpt>
      <trkpt lat="47.44318" lon="0.89438">
        <ele>160</ele>
        <time>2011-05-01T08:18:34Z</time>
      </trkpt>
      <trkpt lat="47.44318" lon="0.8945">
        <ele>160</ele>
        <time>2011-05-01T08:18:36Z</time>
      </trkpt>
      <trkpt lat="47.44319" lon="0.89461">
        <ele>160</ele>
        <time>2011-05-01T08:18:38Z</time>
      </trkpt>
      <trkpt lat="47.44319" lon="0.89472">
        <ele>160</ele>
        <time>2011-05-01T08:18:40Z</time>
      </trkpt>
      <trkpt lat="47.44318" lon="0.89483">
        <ele>160</ele>
        <time>2011-05-01T08:18:42Z</time>
      </trkpt>
      <trkpt lat="47.44318" lon="0.89493">
        <ele>160</ele>
        <time>2011-05-01T08:18:44Z</time>
      </trkpt>
      <trkpt lat="47.44318" lon="0.89504">
        <ele>160</ele>
        <time>2011-05-01T08:18:46Z</time>
      </trkpt>
      <trkpt lat="47.44318" lon="0.89516">
        <ele>160</ele>
        <time>2011-05-01T08:18:48Z</time>
      </trkpt>
      <trkpt lat="47.44316" lon="0.89528">
        <ele>160</ele>
        <time>2011-05-01T08:18:50Z</time>
      </trkpt>
      <trkpt lat="47.44315" lon="0.8954">
        <ele>160</ele>
        <time>2011-05-01T08:18:52Z</time>
      </trkpt>
      <trkpt lat="47.44314" lon="0.89553">
        <ele>159</ele>
        <time>2011-05-01T08:18:54Z</time>
      </trkpt>
      <trkpt lat="47.44313" lon="0.89565">
        <ele>158</ele>
        <time>2011-05-01T08:18:56Z</time>
      </trkpt>
      <trkpt lat="47.44312" lon="0.89576">
        <ele>159</ele>
        <time>2011-05-01T08:18:58Z</time>
      </trkpt>
      <trkpt lat="47.4431" lon="0.89586">
        <ele>159</ele>
        <time>2011-05-01T08:19:00Z</time>
      </trkpt>
      <trkpt lat="47.44308" lon="0.89596">
        <ele>159</ele>
        <time>2011-05-01T08:19:02Z</time>
      </trkpt>
      <trkpt lat="47.44307" lon="0.89606">
        <ele>159</ele>
        <time>2011-05-01T08:19:04Z</time>
      </trkpt>
      <trkpt lat="47.44306" lon="0.89616">
        <ele>159</ele>
        <time>2011-05-01T08:19:06Z</time>
      </trkpt>
      <trkpt lat="47.44305" lon="0.89626">
        <ele>159</ele>
        <time>2011-05-01T08:19:08Z</time>
      </trkpt>
      <trkpt lat="47.44304" lon="0.89636">
        <ele>159</ele>
        <time>2011-05-01T08:19:10Z</time>
      </trkpt>
      <trkpt lat="47.44303" lon="0.89648">
        <ele>159</ele>
        <time>2011-05-01T08:19:12Z</time>
      </trkpt>
      <trkpt lat="47.44302" lon="0.8966">
        <ele>159</ele>
        <time>2011-05-01T08:19:14Z</time>
      </trkpt>
      <trkpt lat="47.44303" lon="0.89673">
        <ele>158</ele>
        <time>2011-05-01T08:19:16Z</time>
      </trkpt>
      <trkpt lat="47.44303" lon="0.89681">
        <ele>159</ele>
        <time>2011-05-01T08:19:17Z</time>
      </trkpt>
      <trkpt lat="47.44304" lon="0.89695">
        <ele>158</ele>
        <time>2011-05-01T08:19:19Z</time>
      </trkpt>
      <trkpt lat="47.44305" lon="0.89708">
        <ele>158</ele>
        <time>2011-05-01T08:19:21Z</time>
      </trkpt>
      <trkpt lat="47.44307" lon="0.8972">
        <ele>158</ele>
        <time>2011-05-01T08:19:23Z</time>
      </trkpt>
      <trkpt lat="47.44308" lon="0.89727">
        <ele>158</ele>
        <time>2011-05-01T08:19:24Z</time>
      </trkpt>
      <trkpt lat="47.4431" lon="0.89733">
        <ele>158</ele>
        <time>2011-05-01T08:19:25Z</time>
      </trkpt>
      <trkpt lat="47.44314" lon="0.89744">
        <ele>158</ele>
        <time>2011-05-01T08:19:27Z</time>
      </trkpt>
      <trkpt lat="47.44318" lon="0.89756">
        <ele>159</ele>
        <time>2011-05-01T08:19:29Z</time>
      </trkpt>
      <trkpt lat="47.44318" lon="0.89768">
        <ele>158</ele>
        <time>2011-05-01T08:19:31Z</time>
      </trkpt>
      <trkpt lat="47.44319" lon="0.89774">
        <ele>158</ele>
        <time>2011-05-01T08:19:32Z</time>
      </trkpt>
      <trkpt lat="47.44318" lon="0.89781">
        <ele>158</ele>
        <time>2011-05-01T08:19:33Z</time>
      </trkpt>
      <trkpt lat="47.44316" lon="0.89787">
        <ele>158</ele>
        <time>2011-05-01T08:19:34Z</time>
      </trkpt>
      <trkpt lat="47.44314" lon="0.89794">
        <ele>158</ele>
        <time>2011-05-01T08:19:35Z</time>
      </trkpt>
      <trkpt lat="47.44312" lon="0.898">
        <ele>157</ele>
        <time>2011-05-01T08:19:36Z</time>
      </trkpt>
      <trkpt lat="47.44308" lon="0.89805">
        <ele>157</ele>
        <time>2011-05-01T08:19:37Z</time>
      </trkpt>
      <trkpt lat="47.44305" lon="0.8981">
        <ele>157</ele>
        <time>2011-05-01T08:19:38Z</time>
      </trkpt>
      <trkpt lat="47.44302" lon="0.89817">
        <ele>157</ele>
        <time>2011-05-01T08:19:39Z</time>
      </trkpt>
      <trkpt lat="47.44299" lon="0.89822">
        <ele>157</ele>
        <time>2011-05-01T08:19:40Z</time>
      </trkpt>
      <trkpt lat="47.44296" lon="0.89828">
        <ele>157</ele>
        <time>2011-05-01T08:19:41Z</time>
      </trkpt>
      <trkpt lat="47.44292" lon="0.89834">
        <ele>158</ele>
        <time>2011-05-01T08:19:42Z</time>
      </trkpt>
      <trkpt lat="47.44291" lon="0.8984">
        <ele>158</ele>
        <time>2011-05-01T08:19:43Z</time>
      </trkpt>
      <trkpt lat="47.44289" lon="0.89848">
        <ele>159</ele>
        <time>2011-05-01T08:19:44Z</time>
      </trkpt>
      <trkpt lat="47.44284" lon="0.8986">
        <ele>159</ele>
        <time>2011-05-01T08:19:46Z</time>
      </trkpt>
      <trkpt lat="47.44282" lon="0.89866">
        <ele>159</ele>
        <time>2011-05-01T08:19:47Z</time>
      </trkpt>
      <trkpt lat="47.44277" lon="0.89876">
        <ele>159</ele>
        <time>2011-05-01T08:19:49Z</time>
      </trkpt>
      <trkpt lat="47.44274" lon="0.89882">
        <ele>159</ele>
        <time>2011-05-01T08:19:50Z</time>
      </trkpt>
      <trkpt lat="47.44272" lon="0.89889">
        <ele>158</ele>
        <time>2011-05-01T08:19:51Z</time>
      </trkpt>
      <trkpt lat="47.4427" lon="0.89897">
        <ele>159</ele>
        <time>2011-05-01T08:19:52Z</time>
      </trkpt>
      <trkpt lat="47.44267" lon="0.89902">
        <ele>159</ele>
        <time>2011-05-01T08:19:53Z</time>
      </trkpt>
      <trkpt lat="47.44266" lon="0.89909">
        <ele>159</ele>
        <time>2011-05-01T08:19:54Z</time>
      </trkpt>
      <trkpt lat="47.44264" lon="0.89916">
        <ele>159</ele>
        <time>2011-05-01T08:19:55Z</time>
      </trkpt>
      <trkpt lat="47.44261" lon="0.89922">
        <ele>159</ele>
        <time>2011-05-01T08:19:56Z</time>
      </trkpt>
      <trkpt lat="47.44258" lon="0.89927">
        <ele>159</ele>
        <time>2011-05-01T08:19:57Z</time>
      </trkpt>
      <trkpt lat="47.44255" lon="0.89933">
        <ele>160</ele>
        <time>2011-05-01T08:19:58Z</time>
      </trkpt>
      <trkpt lat="47.44252" lon="0.8994">
        <ele>160</ele>
        <time>2011-05-01T08:19:59Z</time>
      </trkpt>
      <trkpt lat="47.44249" lon="0.89947">
        <ele>160</ele>
        <time>2011-05-01T08:20:00Z</time>
      </trkpt>
      <trkpt lat="47.44247" lon="0.89954">
        <ele>160</ele>
        <time>2011-05-01T08:20:01Z</time>
      </trkpt>
      <trkpt lat="47.44246" lon="0.89961">
        <ele>160</ele>
        <time>2011-05-01T08:20:02Z</time>
      </trkpt>
      <trkpt lat="47.44243" lon="0.89968">
        <ele>160</ele>
        <time>2011-05-01T08:20:03Z</time>
      </trkpt>
      <trkpt lat="47.44239" lon="0.89977">
        <ele>159</ele>
        <time>2011-05-01T08:20:04Z</time>
      </trkpt>
      <trkpt lat="47.44238" lon="0.89988">
        <ele>159</ele>
        <time>2011-05-01T08:20:05Z</time>
      </trkpt>
      <trkpt lat="47.44236" lon="0.89999">
        <ele>158</ele>
        <time>2011-05-01T08:20:06Z</time>
      </trkpt>
      <trkpt lat="47.44238" lon="0.9001">
        <ele>157</ele>
        <time>2011-05-01T08:20:07Z</time>
      </trkpt>
      <trkpt lat="47.44238" lon="0.90019">
        <ele>157</ele>
        <time>2011-05-01T08:20:08Z</time>
      </trkpt>
      <trkpt lat="47.44238" lon="0.90028">
        <ele>157</ele>
        <time>2011-05-01T08:20:09Z</time>
      </trkpt>
      <trkpt lat="47.4424" lon="0.90037">
        <ele>154</ele>
        <time>2011-05-01T08:20:10Z</time>
      </trkpt>
      <trkpt lat="47.4424" lon="0.90048">
        <ele>151</ele>
        <time>2011-05-01T08:20:11Z</time>
      </trkpt>
      <trkpt lat="47.44239" lon="0.90057">
        <ele>151</ele>
        <time>2011-05-01T08:20:12Z</time>
      </trkpt>
      <trkpt lat="47.44237" lon="0.90067">
        <ele>151</ele>
        <time>2011-05-01T08:20:13Z</time>
      </trkpt>
      <trkpt lat="47.44233" lon="0.90076">
        <ele>151</ele>
        <time>2011-05-01T08:20:14Z</time>
      </trkpt>
      <trkpt lat="47.44231" lon="0.90083">
        <ele>152</ele>
        <time>2011-05-01T08:20:15Z</time>
      </trkpt>
      <trkpt lat="47.44227" lon="0.9009">
        <ele>151</ele>
        <time>2011-05-01T08:20:16Z</time>
      </trkpt>
      <trkpt lat="47.44225" lon="0.90098">
        <ele>152</ele>
        <time>2011-05-01T08:20:17Z</time>
      </trkpt>
      <trkpt lat="47.44222" lon="0.90106">
        <ele>153</ele>
        <time>2011-05-01T08:20:18Z</time>
      </trkpt>
      <trkpt lat="47.44219" lon="0.90112">
        <ele>154</ele>
        <time>2011-05-01T08:20:19Z</time>
      </trkpt>
      <trkpt lat="47.44216" lon="0.90119">
        <ele>154</ele>
        <time>2011-05-01T08:20:20Z</time>
      </trkpt>
      <trkpt lat="47.44212" lon="0.90124">
        <ele>154</ele>
        <time>2011-05-01T08:20:21Z</time>
      </trkpt>
      <trkpt lat="47.44209" lon="0.9013">
        <ele>155</ele>
        <time>2011-05-01T08:20:22Z</time>
      </trkpt>
      <trkpt lat="47.44206" lon="0.90136">
        <ele>155</ele>
        <time>2011-05-01T08:20:23Z</time>
      </trkpt>
      <trkpt lat="47.44208" lon="0.90148">
        <ele>155</ele>
        <time>2011-05-01T08:20:25Z</time>
      </trkpt>
      <trkpt lat="47.44214" lon="0.90155">
        <ele>155</ele>
        <time>2011-05-01T08:20:27Z</time>
      </trkpt>
      <trkpt lat="47.44219" lon="0.90159">
        <ele>154</ele>
        <time>2011-05-01T08:20:28Z</time>
      </trkpt>
      <trkpt lat="47.44223" lon="0.90162">
        <ele>154</ele>
        <time>2011-05-01T08:20:29Z</time>
      </trkpt>
      <trkpt lat="47.44228" lon="0.90166">
        <ele>154</ele>
        <time>2011-05-01T08:20:30Z</time>
      </trkpt>
      <trkpt lat="47.44234" lon="0.90169">
        <ele>154</ele>
        <time>2011-05-01T08:20:31Z</time>
      </trkpt>
      <trkpt lat="47.44239" lon="0.90173">
        <ele>153</ele>
        <time>2011-05-01T08:20:32Z</time>
      </trkpt>
      <trkpt lat="47.44244" lon="0.90177">
        <ele>153</ele>
        <time>2011-05-01T08:20:33Z</time>
      </trkpt>
      <trkpt lat="47.44249" lon="0.90181">
        <ele>153</ele>
        <time>2011-05-01T08:20:34Z</time>
      </trkpt>
      <trkpt lat="47.44255" lon="0.90185">
        <ele>153</ele>
        <time>2011-05-01T08:20:35Z</time>
      </trkpt>
      <trkpt lat="47.4426" lon="0.90189">
        <ele>152</ele>
        <time>2011-05-01T08:20:36Z</time>
      </trkpt>
      <trkpt lat="47.44265" lon="0.90193">
        <ele>152</ele>
        <time>2011-05-01T08:20:37Z</time>
      </trkpt>
      <trkpt lat="47.4427" lon="0.90197">
        <ele>152</ele>
        <time>2011-05-01T08:20:38Z</time>
      </trkpt>
      <trkpt lat="47.44276" lon="0.902">
        <ele>153</ele>
        <time>2011-05-01T08:20:39Z</time>
      </trkpt>
      <trkpt lat="47.44281" lon="0.90204">
        <ele>153</ele>
        <time>2011-05-01T08:20:40Z</time>
      </trkpt>
      <trkpt lat="47.44286" lon="0.90207">
        <ele>153</ele>
        <time>2011-05-01T08:20:41Z</time>
      </trkpt>
      <trkpt lat="47.44292" lon="0.90211">
        <ele>153</ele>
        <time>2011-05-01T08:20:42Z</time>
      </trkpt>
      <trkpt lat="47.44297" lon="0.90215">
        <ele>152</ele>
        <time>2011-05-01T08:20:43Z</time>
      </trkpt>
      <trkpt lat="47.44302" lon="0.90219">
        <ele>153</ele>
        <time>2011-05-01T08:20:44Z</time>
      </trkpt>
      <trkpt lat="47.44308" lon="0.90224">
        <ele>153</ele>
        <time>2011-05-01T08:20:45Z</time>
      </trkpt>
      <trkpt lat="47.44313" lon="0.90229">
        <ele>153</ele>
        <time>2011-05-01T08:20:46Z</time>
      </trkpt>
      <trkpt lat="47.44319" lon="0.90233">
        <ele>153</ele>
        <time>2011-05-01T08:20:47Z</time>
      </trkpt>
      <trkpt lat="47.44324" lon="0.90237">
        <ele>153</ele>
        <time>2011-05-01T08:20:48Z</time>
      </trkpt>
      <trkpt lat="47.4433" lon="0.9024">
        <ele>152</ele>
        <time>2011-05-01T08:20:49Z</time>
      </trkpt>
      <trkpt lat="47.44336" lon="0.90242">
        <ele>152</ele>
        <time>2011-05-01T08:20:50Z</time>
      </trkpt>
      <trkpt lat="47.44343" lon="0.90244">
        <ele>152</ele>
        <time>2011-05-01T08:20:51Z</time>
      </trkpt>
      <trkpt lat="47.4435" lon="0.90242">
        <ele>151</ele>
        <time>2011-05-01T08:20:52Z</time>
      </trkpt>
      <trkpt lat="47.44357" lon="0.90238">
        <ele>150</ele>
        <time>2011-05-01T08:20:53Z</time>
      </trkpt>
      <trkpt lat="47.44363" lon="0.9023">
        <ele>150</ele>
        <time>2011-05-01T08:20:54Z</time>
      </trkpt>
      <trkpt lat="47.44368" lon="0.90221">
        <ele>150</ele>
        <time>2011-05-01T08:20:55Z</time>
      </trkpt>
      <trkpt lat="47.44372" lon="0.90211">
        <ele>150</ele>
        <time>2011-05-01T08:20:56Z</time>
      </trkpt>
      <trkpt lat="47.44378" lon="0.90202">
        <ele>150</ele>
        <time>2011-05-01T08:20:57Z</time>
      </trkpt>
      <trkpt lat="47.44382" lon="0.90194">
        <ele>150</ele>
        <time>2011-05-01T08:20:58Z</time>
      </trkpt>
      <trkpt lat="47.44387" lon="0.90186">
        <ele>150</ele>
        <time>2011-05-01T08:20:59Z</time>
      </trkpt>
      <trkpt lat="47.4439" lon="0.90176">
        <ele>150</ele>
        <time>2011-05-01T08:21:00Z</time>
      </trkpt>
      <trkpt lat="47.44395" lon="0.90167">
        <ele>151</ele>
        <time>2011-05-01T08:21:01Z</time>
      </trkpt>
      <trkpt lat="47.44398" lon="0.90159">
        <ele>150</ele>
        <time>2011-05-01T08:21:02Z</time>
      </trkpt>
      <trkpt lat="47.44402" lon="0.90151">
        <ele>150</ele>
        <time>2011-05-01T08:21:03Z</time>
      </trkpt>
      <trkpt lat="47.44407" lon="0.90145">
        <ele>150</ele>
        <time>2011-05-01T08:21:04Z</time>
      </trkpt>
      <trkpt lat="47.44411" lon="0.9014">
        <ele>150</ele>
        <time>2011-05-01T08:21:05Z</time>
      </trkpt>
      <trkpt lat="47.44414" lon="0.90132">
        <ele>150</ele>
        <time>2011-05-01T08:21:06Z</time>
      </trkpt>
      <trkpt lat="47.44417" lon="0.90126">
        <ele>150</ele>
        <time>2011-05-01T08:21:07Z</time>
      </trkpt>
      <trkpt lat="47.44421" lon="0.90121">
        <ele>150</ele>
        <time>2011-05-01T08:21:08Z</time>
      </trkpt>
      <trkpt lat="47.44423" lon="0.90115">
        <ele>150</ele>
        <time>2011-05-01T08:21:09Z</time>
      </trkpt>
      <trkpt lat="47.4443" lon="0.90109">
        <ele>150</ele>
        <time>2011-05-01T08:21:10Z</time>
      </trkpt>
      <trkpt lat="47.44433" lon="0.90104">
        <ele>150</ele>
        <time>2011-05-01T08:21:11Z</time>
      </trkpt>
      <trkpt lat="47.4444" lon="0.90104">
        <ele>150</ele>
        <time>2011-05-01T08:21:12Z</time>
      </trkpt>
      <trkpt lat="47.44445" lon="0.90102">
        <ele>150</ele>
        <time>2011-05-01T08:21:13Z</time>
      </trkpt>
      <trkpt lat="47.44452" lon="0.90102">
        <ele>150</ele>
        <time>2011-05-01T08:21:14Z</time>
      </trkpt>
      <trkpt lat="47.44458" lon="0.90099">
        <ele>150</ele>
        <time>2011-05-01T08:21:15Z</time>
      </trkpt>
      <trkpt lat="47.44466" lon="0.90095">
        <ele>150</ele>
        <time>2011-05-01T08:21:16Z</time>
      </trkpt>
      <trkpt lat="47.44476" lon="0.9009">
        <ele>151</ele>
        <time>2011-05-01T08:21:17Z</time>
      </trkpt>
      <trkpt lat="47.44486" lon="0.90085">
        <ele>150</ele>
        <time>2011-05-01T08:21:18Z</time>
      </trkpt>
      <trkpt lat="47.44495" lon="0.9008">
        <ele>150</ele>
        <time>2011-05-01T08:21:19Z</time>
      </trkpt>
      <trkpt lat="47.44505" lon="0.90072">
        <ele>150</ele>
        <time>2011-05-01T08:21:20Z</time>
      </trkpt>
      <trkpt lat="47.44518" lon="0.90062">
        <ele>149</ele>
        <time>2011-05-01T08:21:21Z</time>
      </trkpt>
      <trkpt lat="47.44529" lon="0.90055">
        <ele>148</ele>
        <time>2011-05-01T08:21:22Z</time>
      </trkpt>
      <trkpt lat="47.44539" lon="0.90048">
        <ele>147</ele>
        <time>2011-05-01T08:21:23Z</time>
      </trkpt>
      <trkpt lat="47.44548" lon="0.90042">
        <ele>147</ele>
        <time>2011-05-01T08:21:24Z</time>
      </trkpt>
      <trkpt lat="47.44553" lon="0.90035">
        <ele>148</ele>
        <time>2011-05-01T08:21:25Z</time>
      </trkpt>
      <trkpt lat="47.44561" lon="0.90031">
        <ele>148</ele>
        <time>2011-05-01T08:21:26Z</time>
      </trkpt>
      <trkpt lat="47.44569" lon="0.90028">
        <ele>148</ele>
        <time>2011-05-01T08:21:27Z</time>
      </trkpt>
      <trkpt lat="47.44576" lon="0.90028">
        <ele>147</ele>
        <time>2011-05-01T08:21:28Z</time>
      </trkpt>
      <trkpt lat="47.44582" lon="0.90024">
        <ele>146</ele>
        <time>2011-05-01T08:21:29Z</time>
      </trkpt>
      <trkpt lat="47.44592" lon="0.90022">
        <ele>146</ele>
        <time>2011-05-01T08:21:30Z</time>
      </trkpt>
      <trkpt lat="47.44601" lon="0.90021">
        <ele>146</ele>
        <time>2011-05-01T08:21:31Z</time>
      </trkpt>
      <trkpt lat="47.44609" lon="0.90019">
        <ele>145</ele>
        <time>2011-05-01T08:21:32Z</time>
      </trkpt>
      <trkpt lat="47.44616" lon="0.90015">
        <ele>145</ele>
        <time>2011-05-01T08:21:33Z</time>
      </trkpt>
      <trkpt lat="47.44624" lon="0.90012">
        <ele>146</ele>
        <time>2011-05-01T08:21:34Z</time>
      </trkpt>
      <trkpt lat="47.44631" lon="0.90009">
        <ele>145</ele>
        <time>2011-05-01T08:21:35Z</time>
      </trkpt>
      <trkpt lat="47.4464" lon="0.90004">
        <ele>146</ele>
        <time>2011-05-01T08:21:37Z</time>
      </trkpt>
      <trkpt lat="47.44646" lon="0.89999">
        <ele>146</ele>
        <time>2011-05-01T08:21:38Z</time>
      </trkpt>
      <trkpt lat="47.44651" lon="0.89998">
        <ele>145</ele>
        <time>2011-05-01T08:21:39Z</time>
      </trkpt>
      <trkpt lat="47.44658" lon="0.89991">
        <ele>146</ele>
        <time>2011-05-01T08:21:41Z</time>
      </trkpt>
      <trkpt lat="47.44659" lon="0.89983">
        <ele>146</ele>
        <time>2011-05-01T08:21:43Z</time>
      </trkpt>
      <trkpt lat="47.44658" lon="0.89972">
        <ele>146</ele>
        <time>2011-05-01T08:21:45Z</time>
      </trkpt>
      <trkpt lat="47.44656" lon="0.89961">
        <ele>146</ele>
        <time>2011-05-01T08:21:47Z</time>
      </trkpt>
      <trkpt lat="47.44654" lon="0.89954">
        <ele>146</ele>
        <time>2011-05-01T08:21:48Z</time>
      </trkpt>
      <trkpt lat="47.44652" lon="0.89941">
        <ele>146</ele>
        <time>2011-05-01T08:21:50Z</time>
      </trkpt>
      <trkpt lat="47.4465" lon="0.8993">
        <ele>146</ele>
        <time>2011-05-01T08:21:52Z</time>
      </trkpt>
      <trkpt lat="47.44648" lon="0.89923">
        <ele>147</ele>
        <time>2011-05-01T08:21:53Z</time>
      </trkpt>
      <trkpt lat="47.44646" lon="0.8991">
        <ele>147</ele>
        <time>2011-05-01T08:21:55Z</time>
      </trkpt>
      <trkpt lat="47.44646" lon="0.89899">
        <ele>147</ele>
        <time>2011-05-01T08:21:57Z</time>
      </trkpt>
      <trkpt lat="47.44652" lon="0.89892">
        <ele>146</ele>
        <time>2011-05-01T08:21:59Z</time>
      </trkpt>
      <trkpt lat="47.44656" lon="0.89889">
        <ele>145</ele>
        <time>2011-05-01T08:22:00Z</time>
      </trkpt>
      <trkpt lat="47.4466" lon="0.89885">
        <ele>145</ele>
        <time>2011-05-01T08:22:01Z</time>
      </trkpt>
      <trkpt lat="47.44662" lon="0.89879">
        <ele>145</ele>
        <time>2011-05-01T08:22:02Z</time>
      </trkpt>
      <trkpt lat="47.44664" lon="0.89872">
        <ele>145</ele>
        <time>2011-05-01T08:22:03Z</time>
      </trkpt>
      <trkpt lat="47.44661" lon="0.89865">
        <ele>145</ele>
        <time>2011-05-01T08:22:04Z</time>
      </trkpt>
      <trkpt lat="47.44657" lon="0.89854">
        <ele>145</ele>
        <time>2011-05-01T08:22:06Z</time>
      </trkpt>
      <trkpt lat="47.44651" lon="0.89843">
        <ele>146</ele>
        <time>2011-05-01T08:22:08Z</time>
      </trkpt>
      <trkpt lat="47.44646" lon="0.89833">
        <ele>146</ele>
        <time>2011-05-01T08:22:10Z</time>
      </trkpt>
      <trkpt lat="47.44642" lon="0.89823">
        <ele>146</ele>
        <time>2011-05-01T08:22:12Z</time>
      </trkpt>
      <trkpt lat="47.4464" lon="0.89816">
        <ele>145</ele>
        <time>2011-05-01T08:22:13Z</time>
      </trkpt>
      <trkpt lat="47.44636" lon="0.89806">
        <ele>146</ele>
        <time>2011-05-01T08:22:15Z</time>
      </trkpt>
      <trkpt lat="47.44635" lon="0.89799">
        <ele>146</ele>
        <time>2011-05-01T08:22:16Z</time>
      </trkpt>
      <trkpt lat="47.44631" lon="0.89788">
        <ele>146</ele>
        <time>2011-05-01T08:22:18Z</time>
      </trkpt>
      <trkpt lat="47.44628" lon="0.89778">
        <ele>147</ele>
        <time>2011-05-01T08:22:20Z</time>
      </trkpt>
      <trkpt lat="47.44625" lon="0.89769">
        <ele>147</ele>
        <time>2011-05-01T08:22:22Z</time>
      </trkpt>
      <trkpt lat="47.44622" lon="0.89761">
        <ele>148</ele>
        <time>2011-05-01T08:22:24Z</time>
      </trkpt>
      <trkpt lat="47.4462" lon="0.89752">
        <ele>148</ele>
        <time>2011-05-01T08:22:26Z</time>
      </trkpt>
      <trkpt lat="47.44616" lon="0.89743">
        <ele>149</ele>
        <time>2011-05-01T08:22:28Z</time>
      </trkpt>
      <trkpt lat="47.44613" lon="0.89735">
        <ele>150</ele>
        <time>2011-05-01T08:22:30Z</time>
      </trkpt>
      <trkpt lat="47.44608" lon="0.89726">
        <ele>150</ele>
        <time>2011-05-01T08:22:32Z</time>
      </trkpt>
      <trkpt lat="47.44606" lon="0.89717">
        <ele>151</ele>
        <time>2011-05-01T08:22:34Z</time>
      </trkpt>
      <trkpt lat="47.44606" lon="0.89709">
        <ele>152</ele>
        <time>2011-05-01T08:22:36Z</time>
      </trkpt>
      <trkpt lat="47.4461" lon="0.89704">
        <ele>151</ele>
        <time>2011-05-01T08:22:38Z</time>
      </trkpt>
      <trkpt lat="47.44618" lon="0.89702">
        <ele>151</ele>
        <time>2011-05-01T08:22:40Z</time>
      </trkpt>
      <trkpt lat="47.44626" lon="0.89699">
        <ele>150</ele>
        <time>2011-05-01T08:22:42Z</time>
      </trkpt>
      <trkpt lat="47.44631" lon="0.89697">
        <ele>150</ele>
        <time>2011-05-01T08:22:43Z</time>
      </trkpt>
      <trkpt lat="47.4464" lon="0.89695">
        <ele>151</ele>
        <time>2011-05-01T08:22:45Z</time>
      </trkpt>
      <trkpt lat="47.44645" lon="0.89694">
        <ele>151</ele>
        <time>2011-05-01T08:22:46Z</time>
      </trkpt>
      <trkpt lat="47.44654" lon="0.89691">
        <ele>151</ele>
        <time>2011-05-01T08:22:48Z</time>
      </trkpt>
      <trkpt lat="47.44659" lon="0.89691">
        <ele>151</ele>
        <time>2011-05-01T08:22:49Z</time>
      </trkpt>
      <trkpt lat="47.44663" lon="0.89689">
        <ele>151</ele>
        <time>2011-05-01T08:22:50Z</time>
      </trkpt>
      <trkpt lat="47.4467" lon="0.89683">
        <ele>151</ele>
        <time>2011-05-01T08:22:52Z</time>
      </trkpt>
      <trkpt lat="47.44669" lon="0.89671">
        <ele>152</ele>
        <time>2011-05-01T08:22:54Z</time>
      </trkpt>
      <trkpt lat="47.44667" lon="0.89664">
        <ele>152</ele>
        <time>2011-05-01T08:22:55Z</time>
      </trkpt>
      <trkpt lat="47.44665" lon="0.89651">
        <ele>152</ele>
        <time>2011-05-01T08:22:57Z</time>
      </trkpt>
      <trkpt lat="47.44663" lon="0.89638">
        <ele>152</ele>
        <time>2011-05-01T08:22:59Z</time>
      </trkpt>
      <trkpt lat="47.44661" lon="0.89625">
        <ele>153</ele>
        <time>2011-05-01T08:23:01Z</time>
      </trkpt>
      <trkpt lat="47.44659" lon="0.89613">
        <ele>154</ele>
        <time>2011-05-01T08:23:03Z</time>
      </trkpt>
      <trkpt lat="47.44657" lon="0.896">
        <ele>154</ele>
        <time>2011-05-01T08:23:05Z</time>
      </trkpt>
      <trkpt lat="47.44655" lon="0.89588">
        <ele>155</ele>
        <time>2011-05-01T08:23:07Z</time>
      </trkpt>
      <trkpt lat="47.44653" lon="0.89576">
        <ele>155</ele>
        <time>2011-05-01T08:23:09Z</time>
      </trkpt>
      <trkpt lat="47.44651" lon="0.89564">
        <ele>155</ele>
        <time>2011-05-01T08:23:11Z</time>
      </trkpt>
      <trkpt lat="47.4465" lon="0.89551">
        <ele>156</ele>
        <time>2011-05-01T08:23:13Z</time>
      </trkpt>
      <trkpt lat="47.44648" lon="0.89538">
        <ele>155</ele>
        <time>2011-05-01T08:23:15Z</time>
      </trkpt>
      <trkpt lat="47.44648" lon="0.89531">
        <ele>155</ele>
        <time>2011-05-01T08:23:16Z</time>
      </trkpt>
      <trkpt lat="47.44648" lon="0.89524">
        <ele>155</ele>
        <time>2011-05-01T08:23:17Z</time>
      </trkpt>
      <trkpt lat="47.44646" lon="0.89511">
        <ele>155</ele>
        <time>2011-05-01T08:23:19Z</time>
      </trkpt>
      <trkpt lat="47.44646" lon="0.89498">
        <ele>155</ele>
        <time>2011-05-01T08:23:21Z</time>
      </trkpt>
      <trkpt lat="47.44645" lon="0.89491">
        <ele>155</ele>
        <time>2011-05-01T08:23:22Z</time>
      </trkpt>
      <trkpt lat="47.44645" lon="0.89483">
        <ele>155</ele>
        <time>2011-05-01T08:23:23Z</time>
      </trkpt>
      <trkpt lat="47.44644" lon="0.89476">
        <ele>155</ele>
        <time>2011-05-01T08:23:24Z</time>
      </trkpt>
      <trkpt lat="47.44643" lon="0.89469">
        <ele>154</ele>
        <time>2011-05-01T08:23:25Z</time>
      </trkpt>
      <trkpt lat="47.44642" lon="0.89461">
        <ele>154</ele>
        <time>2011-05-01T08:23:26Z</time>
      </trkpt>
      <trkpt lat="47.44642" lon="0.89454">
        <ele>154</ele>
        <time>2011-05-01T08:23:27Z</time>
      </trkpt>
      <trkpt lat="47.44642" lon="0.89446">
        <ele>154</ele>
        <time>2011-05-01T08:23:28Z</time>
      </trkpt>
      <trkpt lat="47.44641" lon="0.89439">
        <ele>155</ele>
        <time>2011-05-01T08:23:29Z</time>
      </trkpt>
      <trkpt lat="47.44639" lon="0.8943">
        <ele>155</ele>
        <time>2011-05-01T08:23:30Z</time>
      </trkpt>
      <trkpt lat="47.44638" lon="0.89422">
        <ele>155</ele>
        <time>2011-05-01T08:23:31Z</time>
      </trkpt>
      <trkpt lat="47.44637" lon="0.89414">
        <ele>154</ele>
        <time>2011-05-01T08:23:32Z</time>
      </trkpt>
      <trkpt lat="47.44637" lon="0.89404">
        <ele>155</ele>
        <time>2011-05-01T08:23:33Z</time>
      </trkpt>
      <trkpt lat="47.44637" lon="0.89395">
        <ele>155</ele>
        <time>2011-05-01T08:23:34Z</time>
      </trkpt>
      <trkpt lat="47.44637" lon="0.89388">
        <ele>155</ele>
        <time>2011-05-01T08:23:35Z</time>
      </trkpt>
      <trkpt lat="47.44638" lon="0.89379">
        <ele>155</ele>
        <time>2011-05-01T08:23:36Z</time>
      </trkpt>
      <trkpt lat="47.44637" lon="0.89368">
        <ele>155</ele>
        <time>2011-05-01T08:23:37Z</time>
      </trkpt>
      <trkpt lat="47.44637" lon="0.89358">
        <ele>155</ele>
        <time>2011-05-01T08:23:38Z</time>
      </trkpt>
      <trkpt lat="47.44638" lon="0.89349">
        <ele>154</ele>
        <time>2011-05-01T08:23:39Z</time>
      </trkpt>
      <trkpt lat="47.4464" lon="0.89335">
        <ele>154</ele>
        <time>2011-05-01T08:23:41Z</time>
      </trkpt>
      <trkpt lat="47.44645" lon="0.89332">
        <ele>154</ele>
        <time>2011-05-01T08:23:42Z</time>
      </trkpt>
      <trkpt lat="47.4465" lon="0.8933">
        <ele>154</ele>
        <time>2011-05-01T08:23:43Z</time>
      </trkpt>
      <trkpt lat="47.44655" lon="0.89329">
        <ele>154</ele>
        <time>2011-05-01T08:23:44Z</time>
      </trkpt>
      <trkpt lat="47.44661" lon="0.89327">
        <ele>153</ele>
        <time>2011-05-01T08:23:45Z</time>
      </trkpt>
      <trkpt lat="47.44668" lon="0.89328">
        <ele>153</ele>
        <time>2011-05-01T08:23:46Z</time>
      </trkpt>
      <trkpt lat="47.44675" lon="0.8933">
        <ele>153</ele>
        <time>2011-05-01T08:23:47Z</time>
      </trkpt>
      <trkpt lat="47.44683" lon="0.89332">
        <ele>153</ele>
        <time>2011-05-01T08:23:48Z</time>
      </trkpt>
      <trkpt lat="47.4469" lon="0.89336">
        <ele>153</ele>
        <time>2011-05-01T08:23:49Z</time>
      </trkpt>
      <trkpt lat="47.44696" lon="0.8934">
        <ele>153</ele>
        <time>2011-05-01T08:23:50Z</time>
      </trkpt>
      <trkpt lat="47.44704" lon="0.89343">
        <ele>153</ele>
        <time>2011-05-01T08:23:51Z</time>
      </trkpt>
      <trkpt lat="47.44714" lon="0.89344">
        <ele>153</ele>
        <time>2011-05-01T08:23:52Z</time>
      </trkpt>
      <trkpt lat="47.44723" lon="0.8935">
        <ele>153</ele>
        <time>2011-05-01T08:23:53Z</time>
      </trkpt>
      <trkpt lat="47.44731" lon="0.89354">
        <ele>153</ele>
        <time>2011-05-01T08:23:54Z</time>
      </trkpt>
      <trkpt lat="47.44744" lon="0.89354">
        <ele>153</ele>
        <time>2011-05-01T08:23:55Z</time>
      </trkpt>
      <trkpt lat="47.44756" lon="0.89354">
        <ele>153</ele>
        <time>2011-05-01T08:23:56Z</time>
      </trkpt>
      <trkpt lat="47.44772" lon="0.89351">
        <ele>152</ele>
        <time>2011-05-01T08:23:57Z</time>
      </trkpt>
      <trkpt lat="47.44788" lon="0.89345">
        <ele>152</ele>
        <time>2011-05-01T08:23:58Z</time>
      </trkpt>
      <trkpt lat="47.44807" lon="0.89338">
        <ele>151</ele>
        <time>2011-05-01T08:23:59Z</time>
      </trkpt>
      <trkpt lat="47.44825" lon="0.89332">
        <ele>149</ele>
        <time>2011-05-01T08:24:00Z</time>
      </trkpt>
      <trkpt lat="47.44843" lon="0.89324">
        <ele>148</ele>
        <time>2011-05-01T08:24:01Z</time>
      </trkpt>
      <trkpt lat="47.44853" lon="0.89322">
        <ele>146</ele>
        <time>2011-05-01T08:24:02Z</time>
      </trkpt>
      <trkpt lat="47.44863" lon="0.8932">
        <ele>144</ele>
        <time>2011-05-01T08:24:03Z</time>
      </trkpt>
      <trkpt lat="47.44867" lon="0.89316">
        <ele>142</ele>
        <time>2011-05-01T08:24:04Z</time>
      </trkpt>
      <trkpt lat="47.44872" lon="0.89313">
        <ele>141</ele>
        <time>2011-05-01T08:24:05Z</time>
      </trkpt>
      <trkpt lat="47.44875" lon="0.89301">
        <ele>140</ele>
        <time>2011-05-01T08:24:07Z</time>
      </trkpt>
      <trkpt lat="47.44874" lon="0.89292">
        <ele>138</ele>
        <time>2011-05-01T08:24:08Z</time>
      </trkpt>
      <trkpt lat="47.44874" lon="0.89285">
        <ele>137</ele>
        <time>2011-05-01T08:24:09Z</time>
      </trkpt>
      <trkpt lat="47.44876" lon="0.89276">
        <ele>135</ele>
        <time>2011-05-01T08:24:10Z</time>
      </trkpt>
      <trkpt lat="47.44876" lon="0.89267">
        <ele>134</ele>
        <time>2011-05-01T08:24:11Z</time>
      </trkpt>
      <trkpt lat="47.44876" lon="0.89257">
        <ele>133</ele>
        <time>2011-05-01T08:24:12Z</time>
      </trkpt>
      <trkpt lat="47.44876" lon="0.89247">
        <ele>132</ele>
        <time>2011-05-01T08:24:13Z</time>
      </trkpt>
      <trkpt lat="47.44876" lon="0.89237">
        <ele>132</ele>
        <time>2011-05-01T08:24:14Z</time>
      </trkpt>
      <trkpt lat="47.44877" lon="0.89227">
        <ele>131</ele>
        <time>2011-05-01T08:24:15Z</time>
      </trkpt>
      <trkpt lat="47.44878" lon="0.89217">
        <ele>131</ele>
        <time>2011-05-01T08:24:16Z</time>
      </trkpt>
      <trkpt lat="47.44879" lon="0.89207">
        <ele>131</ele>
        <time>2011-05-01T08:24:17Z</time>
      </trkpt>
      <trkpt lat="47.44881" lon="0.89197">
        <ele>131</ele>
        <time>2011-05-01T08:24:18Z</time>
      </trkpt>
      <trkpt lat="47.44883" lon="0.89188">
        <ele>131</ele>
        <time>2011-05-01T08:24:19Z</time>
      </trkpt>
      <trkpt lat="47.44886" lon="0.89177">
        <ele>131</ele>
        <time>2011-05-01T08:24:20Z</time>
      </trkpt>
      <trkpt lat="47.4489" lon="0.89167">
        <ele>131</ele>
        <time>2011-05-01T08:24:21Z</time>
      </trkpt>
      <trkpt lat="47.44894" lon="0.89156">
        <ele>130</ele>
        <time>2011-05-01T08:24:22Z</time>
      </trkpt>
      <trkpt lat="47.44897" lon="0.89146">
        <ele>129</ele>
        <time>2011-05-01T08:24:23Z</time>
      </trkpt>
      <trkpt lat="47.449" lon="0.89136">
        <ele>128</ele>
        <time>2011-05-01T08:24:24Z</time>
      </trkpt>
      <trkpt lat="47.44903" lon="0.89126">
        <ele>127</ele>
        <time>2011-05-01T08:24:25Z</time>
      </trkpt>
      <trkpt lat="47.44905" lon="0.89115">
        <ele>127</ele>
        <time>2011-05-01T08:24:26Z</time>
      </trkpt>
      <trkpt lat="47.44908" lon="0.89104">
        <ele>127</ele>
        <time>2011-05-01T08:24:27Z</time>
      </trkpt>
      <trkpt lat="47.44909" lon="0.89094">
        <ele>126</ele>
        <time>2011-05-01T08:24:28Z</time>
      </trkpt>
      <trkpt lat="47.4491" lon="0.89084">
        <ele>126</ele>
        <time>2011-05-01T08:24:29Z</time>
      </trkpt>
      <trkpt lat="47.44912" lon="0.89073">
        <ele>126</ele>
        <time>2011-05-01T08:24:30Z</time>
      </trkpt>
      <trkpt lat="47.44912" lon="0.89061">
        <ele>127</ele>
        <time>2011-05-01T08:24:31Z</time>
      </trkpt>
      <trkpt lat="47.44914" lon="0.8905">
        <ele>127</ele>
        <time>2011-05-01T08:24:32Z</time>
      </trkpt>
      <trkpt lat="47.44914" lon="0.89039">
        <ele>126</ele>
        <time>2011-05-01T08:24:33Z</time>
      </trkpt>
      <trkpt lat="47.44917" lon="0.89028">
        <ele>127</ele>
        <time>2011-05-01T08:24:34Z</time>
      </trkpt>
      <trkpt lat="47.4492" lon="0.89017">
        <ele>126</ele>
        <time>2011-05-01T08:24:35Z</time>
      </trkpt>
      <trkpt lat="47.44921" lon="0.89006">
        <ele>126</ele>
        <time>2011-05-01T08:24:36Z</time>
      </trkpt>
      <trkpt lat="47.44922" lon="0.88995">
        <ele>125</ele>
        <time>2011-05-01T08:24:37Z</time>
      </trkpt>
      <trkpt lat="47.44924" lon="0.88984">
        <ele>124</ele>
        <time>2011-05-01T08:24:38Z</time>
      </trkpt>
      <trkpt lat="47.44924" lon="0.88973">
        <ele>124</ele>
        <time>2011-05-01T08:24:39Z</time>
      </trkpt>
      <trkpt lat="47.44925" lon="0.88962">
        <ele>123</ele>
        <time>2011-05-01T08:24:40Z</time>
      </trkpt>
      <trkpt lat="47.44925" lon="0.88951">
        <ele>123</ele>
        <time>2011-05-01T08:24:41Z</time>
      </trkpt>
      <trkpt lat="47.44928" lon="0.88939">
        <ele>124</ele>
        <time>2011-05-01T08:24:42Z</time>
      </trkpt>
      <trkpt lat="47.44928" lon="0.88929">
        <ele>123</ele>
        <time>2011-05-01T08:24:43Z</time>
      </trkpt>
      <trkpt lat="47.44929" lon="0.88918">
        <ele>124</ele>
        <time>2011-05-01T08:24:44Z</time>
      </trkpt>
      <trkpt lat="47.4493" lon="0.88908">
        <ele>124</ele>
        <time>2011-05-01T08:24:45Z</time>
      </trkpt>
      <trkpt lat="47.44931" lon="0.88898">
        <ele>124</ele>
        <time>2011-05-01T08:24:46Z</time>
      </trkpt>
      <trkpt lat="47.44932" lon="0.88887">
        <ele>124</ele>
        <time>2011-05-01T08:24:47Z</time>
      </trkpt>
      <trkpt lat="47.44934" lon="0.88877">
        <ele>124</ele>
        <time>2011-05-01T08:24:48Z</time>
      </trkpt>
      <trkpt lat="47.44937" lon="0.88867">
        <ele>125</ele>
        <time>2011-05-01T08:24:49Z</time>
      </trkpt>
      <trkpt lat="47.44938" lon="0.88857">
        <ele>125</ele>
        <time>2011-05-01T08:24:50Z</time>
      </trkpt>
      <trkpt lat="47.44941" lon="0.88849">
        <ele>125</ele>
        <time>2011-05-01T08:24:51Z</time>
      </trkpt>
      <trkpt lat="47.44945" lon="0.88841">
        <ele>125</ele>
        <time>2011-05-01T08:24:52Z</time>
      </trkpt>
      <trkpt lat="47.44948" lon="0.88834">
        <ele>125</ele>
        <time>2011-05-01T08:24:53Z</time>
      </trkpt>
      <trkpt lat="47.44952" lon="0.88826">
        <ele>126</ele>
        <time>2011-05-01T08:24:54Z</time>
      </trkpt>
      <trkpt lat="47.44957" lon="0.88819">
        <ele>126</ele>
        <time>2011-05-01T08:24:55Z</time>
      </trkpt>
      <trkpt lat="47.44962" lon="0.88812">
        <ele>125</ele>
        <time>2011-05-01T08:24:56Z</time>
      </trkpt>
      <trkpt lat="47.44968" lon="0.88804">
        <ele>125</ele>
        <time>2011-05-01T08:24:57Z</time>
      </trkpt>
      <trkpt lat="47.44972" lon="0.88797">
        <ele>125</ele>
        <time>2011-05-01T08:24:58Z</time>
      </trkpt>
      <trkpt lat="47.44977" lon="0.88789">
        <ele>125</ele>
        <time>2011-05-01T08:24:59Z</time>
      </trkpt>
      <trkpt lat="47.44982" lon="0.88781">
        <ele>125</ele>
        <time>2011-05-01T08:25:01Z</time>
      </trkpt>
      <trkpt lat="47.44986" lon="0.8878">
        <ele>124</ele>
        <time>2011-05-01T08:25:04Z</time>
      </trkpt>
      <trkpt lat="47.44986" lon="0.88788">
        <ele>125</ele>
        <time>2011-05-01T08:25:06Z</time>
      </trkpt>
      <trkpt lat="47.44989" lon="0.88799">
        <ele>125</ele>
        <time>2011-05-01T08:25:08Z</time>
      </trkpt>
      <trkpt lat="47.44992" lon="0.88809">
        <ele>125</ele>
        <time>2011-05-01T08:25:10Z</time>
      </trkpt>
      <trkpt lat="47.44995" lon="0.8882">
        <ele>125</ele>
        <time>2011-05-01T08:25:12Z</time>
      </trkpt>
      <trkpt lat="47.44997" lon="0.8883">
        <ele>125</ele>
        <time>2011-05-01T08:25:14Z</time>
      </trkpt>
      <trkpt lat="47.44998" lon="0.8884">
        <ele>124</ele>
        <time>2011-05-01T08:25:16Z</time>
      </trkpt>
      <trkpt lat="47.45" lon="0.88851">
        <ele>125</ele>
        <time>2011-05-01T08:25:18Z</time>
      </trkpt>
      <trkpt lat="47.45003" lon="0.88861">
        <ele>126</ele>
        <time>2011-05-01T08:25:20Z</time>
      </trkpt>
      <trkpt lat="47.45003" lon="0.8887">
        <ele>127</ele>
        <time>2011-05-01T08:25:22Z</time>
      </trkpt>
      <trkpt lat="47.45004" lon="0.88879">
        <ele>127</ele>
        <time>2011-05-01T08:25:24Z</time>
      </trkpt>
      <trkpt lat="47.45005" lon="0.88889">
        <ele>127</ele>
        <time>2011-05-01T08:25:26Z</time>
      </trkpt>
      <trkpt lat="47.45007" lon="0.88898">
        <ele>128</ele>
        <time>2011-05-01T08:25:28Z</time>
      </trkpt>
      <trkpt lat="47.4501" lon="0.88906">
        <ele>128</ele>
        <time>2011-05-01T08:25:30Z</time>
      </trkpt>
      <trkpt lat="47.45013" lon="0.88914">
        <ele>128</ele>
        <time>2011-05-01T08:25:32Z</time>
      </trkpt>
      <trkpt lat="47.45016" lon="0.88922">
        <ele>128</ele>
        <time>2011-05-01T08:25:34Z</time>
      </trkpt>
      <trkpt lat="47.45018" lon="0.88929">
        <ele>128</ele>
        <time>2011-05-01T08:25:36Z</time>
      </trkpt>
      <trkpt lat="47.45021" lon="0.88935">
        <ele>129</ele>
        <time>2011-05-01T08:25:38Z</time>
      </trkpt>
      <trkpt lat="47.45024" lon="0.88942">
        <ele>129</ele>
        <time>2011-05-01T08:25:40Z</time>
      </trkpt>
      <trkpt lat="47.45028" lon="0.88948">
        <ele>130</ele>
        <time>2011-05-01T08:25:42Z</time>
      </trkpt>
      <trkpt lat="47.45032" lon="0.88955">
        <ele>131</ele>
        <time>2011-05-01T08:25:44Z</time>
      </trkpt>
      <trkpt lat="47.45036" lon="0.88962">
        <ele>131</ele>
        <time>2011-05-01T08:25:46Z</time>
      </trkpt>
      <trkpt lat="47.4504" lon="0.88969">
        <ele>132</ele>
        <time>2011-05-01T08:25:48Z</time>
      </trkpt>
      <trkpt lat="47.45044" lon="0.88975">
        <ele>133</ele>
        <time>2011-05-01T08:25:50Z</time>
      </trkpt>
      <trkpt lat="47.45048" lon="0.88981">
        <ele>133</ele>
        <time>2011-05-01T08:25:52Z</time>
      </trkpt>
      <trkpt lat="47.45052" lon="0.88988">
        <ele>132</ele>
        <time>2011-05-01T08:25:54Z</time>
      </trkpt>
      <trkpt lat="47.45056" lon="0.88994">
        <ele>133</ele>
        <time>2011-05-01T08:25:56Z</time>
      </trkpt>
      <trkpt lat="47.4506" lon="0.89">
        <ele>133</ele>
        <time>2011-05-01T08:25:58Z</time>
      </trkpt>
      <trkpt lat="47.45064" lon="0.89007">
        <ele>134</ele>
        <time>2011-05-01T08:26:00Z</time>
      </trkpt>
      <trkpt lat="47.45068" lon="0.89014">
        <ele>135</ele>
        <time>2011-05-01T08:26:02Z</time>
      </trkpt>
      <trkpt lat="47.45072" lon="0.89021">
        <ele>135</ele>
        <time>2011-05-01T08:26:04Z</time>
      </trkpt>
      <trkpt lat="47.45077" lon="0.89028">
        <ele>135</ele>
        <time>2011-05-01T08:26:06Z</time>
      </trkpt>
      <trkpt lat="47.45081" lon="0.89034">
        <ele>135</ele>
        <time>2011-05-01T08:26:08Z</time>
      </trkpt>
      <trkpt lat="47.45086" lon="0.8904">
        <ele>133</ele>
        <time>2011-05-01T08:26:10Z</time>
      </trkpt>
      <trkpt lat="47.4509" lon="0.89048">
        <ele>134</ele>
        <time>2011-05-01T08:26:12Z</time>
      </trkpt>
      <trkpt lat="47.45091" lon="0.89057">
        <ele>135</ele>
        <time>2011-05-01T08:26:14Z</time>
      </trkpt>
      <trkpt lat="47.45092" lon="0.89066">
        <ele>136</ele>
        <time>2011-05-01T08:26:16Z</time>
      </trkpt>
      <trkpt lat="47.45092" lon="0.89076">
        <ele>136</ele>
        <time>2011-05-01T08:26:18Z</time>
      </trkpt>
      <trkpt lat="47.45092" lon="0.89084">
        <ele>136</ele>
        <time>2011-05-01T08:26:20Z</time>
      </trkpt>
      <trkpt lat="47.45093" lon="0.89093">
        <ele>136</ele>
        <time>2011-05-01T08:26:22Z</time>
      </trkpt>
      <trkpt lat="47.45094" lon="0.89103">
        <ele>137</ele>
        <time>2011-05-01T08:26:24Z</time>
      </trkpt>
      <trkpt lat="47.45094" lon="0.89112">
        <ele>137</ele>
        <time>2011-05-01T08:26:26Z</time>
      </trkpt>
      <trkpt lat="47.45094" lon="0.89121">
        <ele>139</ele>
        <time>2011-05-01T08:26:28Z</time>
      </trkpt>
      <trkpt lat="47.45095" lon="0.89128">
        <ele>139</ele>
        <time>2011-05-01T08:26:30Z</time>
      </trkpt>
      <trkpt lat="47.45096" lon="0.89136">
        <ele>139</ele>
        <time>2011-05-01T08:26:32Z</time>
      </trkpt>
      <trkpt lat="47.45096" lon="0.89144">
        <ele>140</ele>
        <time>2011-05-01T08:26:34Z</time>
      </trkpt>
      <trkpt lat="47.45098" lon="0.89153">
        <ele>141</ele>
        <time>2011-05-01T08:26:36Z</time>
      </trkpt>
      <trkpt lat="47.45099" lon="0.89161">
        <ele>141</ele>
        <time>2011-05-01T08:26:38Z</time>
      </trkpt>
      <trkpt lat="47.45101" lon="0.89168">
        <ele>141</ele>
        <time>2011-05-01T08:26:40Z</time>
      </trkpt>
      <trkpt lat="47.45103" lon="0.89177">
        <ele>141</ele>
        <time>2011-05-01T08:26:42Z</time>
      </trkpt>
      <trkpt lat="47.45105" lon="0.89186">
        <ele>140</ele>
        <time>2011-05-01T08:26:44Z</time>
      </trkpt>
      <trkpt lat="47.45106" lon="0.89193">
        <ele>140</ele>
        <time>2011-05-01T08:26:46Z</time>
      </trkpt>
      <trkpt lat="47.45107" lon="0.89203">
        <ele>140</ele>
        <time>2011-05-01T08:26:48Z</time>
      </trkpt>
      <trkpt lat="47.45109" lon="0.89211">
        <ele>140</ele>
        <time>2011-05-01T08:26:50Z</time>
      </trkpt>
      <trkpt lat="47.45111" lon="0.8922">
        <ele>139</ele>
        <time>2011-05-01T08:26:52Z</time>
      </trkpt>
      <trkpt lat="47.45112" lon="0.89228">
        <ele>138</ele>
        <time>2011-05-01T08:26:54Z</time>
      </trkpt>
      <trkpt lat="47.45112" lon="0.89235">
        <ele>138</ele>
        <time>2011-05-01T08:26:56Z</time>
      </trkpt>
      <trkpt lat="47.45112" lon="0.89244">
        <ele>136</ele>
        <time>2011-05-01T08:26:58Z</time>
      </trkpt>
      <trkpt lat="47.45111" lon="0.89253">
        <ele>138</ele>
        <time>2011-05-01T08:27:00Z</time>
      </trkpt>
      <trkpt lat="47.45111" lon="0.89261">
        <ele>139</ele>
        <time>2011-05-01T08:27:02Z</time>
      </trkpt>
      <trkpt lat="47.4511" lon="0.89269">
        <ele>140</ele>
        <time>2011-05-01T08:27:04Z</time>
      </trkpt>
      <trkpt lat="47.45109" lon="0.89279">
        <ele>141</ele>
        <time>2011-05-01T08:27:06Z</time>
      </trkpt>
      <trkpt lat="47.45109" lon="0.8929">
        <ele>141</ele>
        <time>2011-05-01T08:27:08Z</time>
      </trkpt>
      <trkpt lat="47.45109" lon="0.89299">
        <ele>142</ele>
        <time>2011-05-01T08:27:10Z</time>
      </trkpt>
      <trkpt lat="47.45109" lon="0.8931">
        <ele>142</ele>
        <time>2011-05-01T08:27:12Z</time>
      </trkpt>
      <trkpt lat="47.45108" lon="0.89318">
        <ele>142</ele>
        <time>2011-05-01T08:27:14Z</time>
      </trkpt>
      <trkpt lat="47.45109" lon="0.89327">
        <ele>142</ele>
        <time>2011-05-01T08:27:16Z</time>
      </trkpt>
      <trkpt lat="47.45109" lon="0.89337">
        <ele>143</ele>
        <time>2011-05-01T08:27:18Z</time>
      </trkpt>
      <trkpt lat="47.4511" lon="0.89349">
        <ele>144</ele>
        <time>2011-05-01T08:27:20Z</time>
      </trkpt>
      <trkpt lat="47.45111" lon="0.89358">
        <ele>144</ele>
        <time>2011-05-01T08:27:22Z</time>
      </trkpt>
      <trkpt lat="47.45112" lon="0.8937">
        <ele>146</ele>
        <time>2011-05-01T08:27:24Z</time>
      </trkpt>
      <trkpt lat="47.45111" lon="0.89381">
        <ele>148</ele>
        <time>2011-05-01T08:27:26Z</time>
      </trkpt>
      <trkpt lat="47.45111" lon="0.89393">
        <ele>149</ele>
        <time>2011-05-01T08:27:28Z</time>
      </trkpt>
      <trkpt lat="47.4511" lon="0.89405">
        <ele>150</ele>
        <time>2011-05-01T08:27:30Z</time>
      </trkpt>
      <trkpt lat="47.4511" lon="0.89415">
        <ele>150</ele>
        <time>2011-05-01T08:27:32Z</time>
      </trkpt>
      <trkpt lat="47.4511" lon="0.89425">
        <ele>150</ele>
        <time>2011-05-01T08:27:34Z</time>
      </trkpt>
      <trkpt lat="47.45109" lon="0.89436">
        <ele>150</ele>
        <time>2011-05-01T08:27:36Z</time>
      </trkpt>
      <trkpt lat="47.45108" lon="0.89445">
        <ele>148</ele>
        <time>2011-05-01T08:27:38Z</time>
      </trkpt>
      <trkpt lat="47.45107" lon="0.89454">
        <ele>148</ele>
        <time>2011-05-01T08:27:40Z</time>
      </trkpt>
      <trkpt lat="47.45106" lon="0.89461">
        <ele>148</ele>
        <time>2011-05-01T08:27:41Z</time>
      </trkpt>
      <trkpt lat="47.45106" lon="0.89474">
        <ele>148</ele>
        <time>2011-05-01T08:27:43Z</time>
      </trkpt>
      <trkpt lat="47.45106" lon="0.89485">
        <ele>148</ele>
        <time>2011-05-01T08:27:45Z</time>
      </trkpt>
      <trkpt lat="47.45105" lon="0.89497">
        <ele>150</ele>
        <time>2011-05-01T08:27:47Z</time>
      </trkpt>
      <trkpt lat="47.45106" lon="0.89507">
        <ele>150</ele>
        <time>2011-05-01T08:27:49Z</time>
      </trkpt>
      <trkpt lat="47.45105" lon="0.89516">
        <ele>150</ele>
        <time>2011-05-01T08:27:51Z</time>
      </trkpt>
      <trkpt lat="47.45105" lon="0.89526">
        <ele>150</ele>
        <time>2011-05-01T08:27:53Z</time>
      </trkpt>
      <trkpt lat="47.45106" lon="0.89536">
        <ele>149</ele>
        <time>2011-05-01T08:27:55Z</time>
      </trkpt>
      <trkpt lat="47.45106" lon="0.89546">
        <ele>150</ele>
        <time>2011-05-01T08:27:57Z</time>
      </trkpt>
      <trkpt lat="47.45106" lon="0.89555">
        <ele>150</ele>
        <time>2011-05-01T08:27:59Z</time>
      </trkpt>
      <trkpt lat="47.45107" lon="0.89565">
        <ele>150</ele>
        <time>2011-05-01T08:28:01Z</time>
      </trkpt>
      <trkpt lat="47.45106" lon="0.89577">
        <ele>150</ele>
        <time>2011-05-01T08:28:03Z</time>
      </trkpt>
      <trkpt lat="47.45107" lon="0.89588">
        <ele>149</ele>
        <time>2011-05-01T08:28:05Z</time>
      </trkpt>
      <trkpt lat="47.45107" lon="0.896">
        <ele>149</ele>
        <time>2011-05-01T08:28:07Z</time>
      </trkpt>
      <trkpt lat="47.45106" lon="0.89612">
        <ele>150</ele>
        <time>2011-05-01T08:28:09Z</time>
      </trkpt>
      <trkpt lat="47.45106" lon="0.89622">
        <ele>151</ele>
        <time>2011-05-01T08:28:11Z</time>
      </trkpt>
      <trkpt lat="47.45103" lon="0.89634">
        <ele>151</ele>
        <time>2011-05-01T08:28:13Z</time>
      </trkpt>
      <trkpt lat="47.45099" lon="0.89651">
        <ele>151</ele>
        <time>2011-05-01T08:28:16Z</time>
      </trkpt>
      <trkpt lat="47.45096" lon="0.89662">
        <ele>151</ele>
        <time>2011-05-01T08:28:18Z</time>
      </trkpt>
      <trkpt lat="47.45093" lon="0.89673">
        <ele>151</ele>
        <time>2011-05-01T08:28:20Z</time>
      </trkpt>
      <trkpt lat="47.4509" lon="0.89684">
        <ele>151</ele>
        <time>2011-05-01T08:28:22Z</time>
      </trkpt>
      <trkpt lat="47.45091" lon="0.89696">
        <ele>151</ele>
        <time>2011-05-01T08:28:24Z</time>
      </trkpt>
      <trkpt lat="47.45093" lon="0.89707">
        <ele>152</ele>
        <time>2011-05-01T08:28:26Z</time>
      </trkpt>
      <trkpt lat="47.45095" lon="0.89718">
        <ele>153</ele>
        <time>2011-05-01T08:28:28Z</time>
      </trkpt>
      <trkpt lat="47.45098" lon="0.8973">
        <ele>153</ele>
        <time>2011-05-01T08:28:30Z</time>
      </trkpt>
      <trkpt lat="47.451" lon="0.89742">
        <ele>154</ele>
        <time>2011-05-01T08:28:32Z</time>
      </trkpt>
      <trkpt lat="47.45101" lon="0.89748">
        <ele>154</ele>
        <time>2011-05-01T08:28:33Z</time>
      </trkpt>
      <trkpt lat="47.45103" lon="0.8976">
        <ele>155</ele>
        <time>2011-05-01T08:28:35Z</time>
      </trkpt>
      <trkpt lat="47.45106" lon="0.89772">
        <ele>155</ele>
        <time>2011-05-01T08:28:37Z</time>
      </trkpt>
      <trkpt lat="47.45108" lon="0.89784">
        <ele>155</ele>
        <time>2011-05-01T08:28:39Z</time>
      </trkpt>
      <trkpt lat="47.4511" lon="0.89796">
        <ele>156</ele>
        <time>2011-05-01T08:28:41Z</time>
      </trkpt>
      <trkpt lat="47.45111" lon="0.89802">
        <ele>156</ele>
        <time>2011-05-01T08:28:42Z</time>
      </trkpt>
      <trkpt lat="47.45114" lon="0.89814">
        <ele>156</ele>
        <time>2011-05-01T08:28:44Z</time>
      </trkpt>
      <trkpt lat="47.45115" lon="0.89825">
        <ele>156</ele>
        <time>2011-05-01T08:28:46Z</time>
      </trkpt>
      <trkpt lat="47.45117" lon="0.89836">
        <ele>157</ele>
        <time>2011-05-01T08:28:48Z</time>
      </trkpt>
      <trkpt lat="47.45119" lon="0.89846">
        <ele>157</ele>
        <time>2011-05-01T08:28:50Z</time>
      </trkpt>
      <trkpt lat="47.4512" lon="0.89858">
        <ele>157</ele>
        <time>2011-05-01T08:28:52Z</time>
      </trkpt>
      <trkpt lat="47.45123" lon="0.89869">
        <ele>156</ele>
        <time>2011-05-01T08:28:54Z</time>
      </trkpt>
      <trkpt lat="47.45125" lon="0.89875">
        <ele>156</ele>
        <time>2011-05-01T08:28:55Z</time>
      </trkpt>
      <trkpt lat="47.45128" lon="0.89887">
        <ele>155</ele>
        <time>2011-05-01T08:28:57Z</time>
      </trkpt>
      <trkpt lat="47.45129" lon="0.89894">
        <ele>155</ele>
        <time>2011-05-01T08:28:58Z</time>
      </trkpt>
      <trkpt lat="47.4513" lon="0.899">
        <ele>155</ele>
        <time>2011-05-01T08:28:59Z</time>
      </trkpt>
      <trkpt lat="47.45132" lon="0.89912">
        <ele>155</ele>
        <time>2011-05-01T08:29:01Z</time>
      </trkpt>
      <trkpt lat="47.45133" lon="0.89919">
        <ele>155</ele>
        <time>2011-05-01T08:29:02Z</time>
      </trkpt>
      <trkpt lat="47.45134" lon="0.89925">
        <ele>155</ele>
        <time>2011-05-01T08:29:03Z</time>
      </trkpt>
      <trkpt lat="47.45137" lon="0.89938">
        <ele>155</ele>
        <time>2011-05-01T08:29:05Z</time>
      </trkpt>
      <trkpt lat="47.45138" lon="0.89945">
        <ele>155</ele>
        <time>2011-05-01T08:29:06Z</time>
      </trkpt>
      <trkpt lat="47.4514" lon="0.89951">
        <ele>155</ele>
        <time>2011-05-01T08:29:07Z</time>
      </trkpt>
      <trkpt lat="47.45142" lon="0.89958">
        <ele>155</ele>
        <time>2011-05-01T08:29:08Z</time>
      </trkpt>
      <trkpt lat="47.45144" lon="0.89964">
        <ele>155</ele>
        <time>2011-05-01T08:29:09Z</time>
      </trkpt>
      <trkpt lat="47.45147" lon="0.89976">
        <ele>156</ele>
        <time>2011-05-01T08:29:11Z</time>
      </trkpt>
      <trkpt lat="47.45151" lon="0.89988">
        <ele>155</ele>
        <time>2011-05-01T08:29:13Z</time>
      </trkpt>
      <trkpt lat="47.45156" lon="0.90006">
        <ele>155</ele>
        <time>2011-05-01T08:29:16Z</time>
      </trkpt>
      <trkpt lat="47.45159" lon="0.90012">
        <ele>155</ele>
        <time>2011-05-01T08:29:17Z</time>
      </trkpt>
      <trkpt lat="47.45161" lon="0.90019">
        <ele>155</ele>
        <time>2011-05-01T08:29:18Z</time>
      </trkpt>
      <trkpt lat="47.45164" lon="0.90024">
        <ele>156</ele>
        <time>2011-05-01T08:29:19Z</time>
      </trkpt>
      <trkpt lat="47.45166" lon="0.9003">
        <ele>155</ele>
        <time>2011-05-01T08:29:20Z</time>
      </trkpt>
      <trkpt lat="47.45167" lon="0.90037">
        <ele>155</ele>
        <time>2011-05-01T08:29:21Z</time>
      </trkpt>
      <trkpt lat="47.45169" lon="0.90044">
        <ele>155</ele>
        <time>2011-05-01T08:29:22Z</time>
      </trkpt>
      <trkpt lat="47.45173" lon="0.90057">
        <ele>155</ele>
        <time>2011-05-01T08:29:24Z</time>
      </trkpt>
      <trkpt lat="47.45175" lon="0.90064">
        <ele>155</ele>
        <time>2011-05-01T08:29:25Z</time>
      </trkpt>
      <trkpt lat="47.45178" lon="0.90071">
        <ele>155</ele>
        <time>2011-05-01T08:29:26Z</time>
      </trkpt>
      <trkpt lat="47.4518" lon="0.90078">
        <ele>155</ele>
        <time>2011-05-01T08:29:27Z</time>
      </trkpt>
      <trkpt lat="47.45182" lon="0.9009">
        <ele>155</ele>
        <time>2011-05-01T08:29:29Z</time>
      </trkpt>
      <trkpt lat="47.45184" lon="0.90098">
        <ele>155</ele>
        <time>2011-05-01T08:29:30Z</time>
      </trkpt>
      <trkpt lat="47.45185" lon="0.90104">
        <ele>155</ele>
        <time>2011-05-01T08:29:31Z</time>
      </trkpt>
      <trkpt lat="47.45186" lon="0.90111">
        <ele>156</ele>
        <time>2011-05-01T08:29:32Z</time>
      </trkpt>
      <trkpt lat="47.45187" lon="0.90117">
        <ele>156</ele>
        <time>2011-05-01T08:29:33Z</time>
      </trkpt>
      <trkpt lat="47.45188" lon="0.90124">
        <ele>156</ele>
        <time>2011-05-01T08:29:34Z</time>
      </trkpt>
      <trkpt lat="47.45189" lon="0.90131">
        <ele>156</ele>
        <time>2011-05-01T08:29:35Z</time>
      </trkpt>
      <trkpt lat="47.4519" lon="0.90138">
        <ele>156</ele>
        <time>2011-05-01T08:29:36Z</time>
      </trkpt>
      <trkpt lat="47.45191" lon="0.90145">
        <ele>156</ele>
        <time>2011-05-01T08:29:37Z</time>
      </trkpt>
      <trkpt lat="47.45191" lon="0.90152">
        <ele>156</ele>
        <time>2011-05-01T08:29:38Z</time>
      </trkpt>
      <trkpt lat="47.45192" lon="0.9016">
        <ele>156</ele>
        <time>2011-05-01T08:29:39Z</time>
      </trkpt>
      <trkpt lat="47.45192" lon="0.90167">
        <ele>156</ele>
        <time>2011-05-01T08:29:40Z</time>
      </trkpt>
      <trkpt lat="47.45192" lon="0.90181">
        <ele>156</ele>
        <time>2011-05-01T08:29:42Z</time>
      </trkpt>
      <trkpt lat="47.45193" lon="0.90188">
        <ele>156</ele>
        <time>2011-05-01T08:29:43Z</time>
      </trkpt>
      <trkpt lat="47.45194" lon="0.90196">
        <ele>157</ele>
        <time>2011-05-01T08:29:44Z</time>
      </trkpt>
      <trkpt lat="47.45193" lon="0.90203">
        <ele>157</ele>
        <time>2011-05-01T08:29:45Z</time>
      </trkpt>
      <trkpt lat="47.45192" lon="0.9021">
        <ele>158</ele>
        <time>2011-05-01T08:29:46Z</time>
      </trkpt>
      <trkpt lat="47.45192" lon="0.90218">
        <ele>158</ele>
        <time>2011-05-01T08:29:47Z</time>
      </trkpt>
      <trkpt lat="47.45191" lon="0.90225">
        <ele>158</ele>
        <time>2011-05-01T08:29:48Z</time>
      </trkpt>
      <trkpt lat="47.45191" lon="0.90233">
        <ele>158</ele>
        <time>2011-05-01T08:29:49Z</time>
      </trkpt>
      <trkpt lat="47.4519" lon="0.9024">
        <ele>158</ele>
        <time>2011-05-01T08:29:50Z</time>
      </trkpt>
      <trkpt lat="47.45189" lon="0.90247">
        <ele>158</ele>
        <time>2011-05-01T08:29:51Z</time>
      </trkpt>
      <trkpt lat="47.45188" lon="0.90255">
        <ele>158</ele>
        <time>2011-05-01T08:29:52Z</time>
      </trkpt>
      <trkpt lat="47.45187" lon="0.90263">
        <ele>158</ele>
        <time>2011-05-01T08:29:53Z</time>
      </trkpt>
      <trkpt lat="47.45186" lon="0.9027">
        <ele>157</ele>
        <time>2011-05-01T08:29:54Z</time>
      </trkpt>
      <trkpt lat="47.45183" lon="0.90283">
        <ele>157</ele>
        <time>2011-05-01T08:29:56Z</time>
      </trkpt>
      <trkpt lat="47.45182" lon="0.9029">
        <ele>157</ele>
        <time>2011-05-01T08:29:57Z</time>
      </trkpt>
      <trkpt lat="47.4518" lon="0.90297">
        <ele>157</ele>
        <time>2011-05-01T08:29:58Z</time>
      </trkpt>
      <trkpt lat="47.45178" lon="0.90305">
        <ele>157</ele>
        <time>2011-05-01T08:29:59Z</time>
      </trkpt>
      <trkpt lat="47.45177" lon="0.90312">
        <ele>157</ele>
        <time>2011-05-01T08:30:00Z</time>
      </trkpt>
      <trkpt lat="47.45175" lon="0.90318">
        <ele>157</ele>
        <time>2011-05-01T08:30:01Z</time>
      </trkpt>
      <trkpt lat="47.45173" lon="0.90326">
        <ele>156</ele>
        <time>2011-05-01T08:30:02Z</time>
      </trkpt>
      <trkpt lat="47.45172" lon="0.90334">
        <ele>156</ele>
        <time>2011-05-01T08:30:03Z</time>
      </trkpt>
      <trkpt lat="47.4517" lon="0.90341">
        <ele>157</ele>
        <time>2011-05-01T08:30:04Z</time>
      </trkpt>
      <trkpt lat="47.45169" lon="0.90349">
        <ele>158</ele>
        <time>2011-05-01T08:30:05Z</time>
      </trkpt>
      <trkpt lat="47.45167" lon="0.90356">
        <ele>158</ele>
        <time>2011-05-01T08:30:06Z</time>
      </trkpt>
      <trkpt lat="47.45166" lon="0.90364">
        <ele>157</ele>
        <time>2011-05-01T08:30:07Z</time>
      </trkpt>
      <trkpt lat="47.45165" lon="0.90372">
        <ele>158</ele>
        <time>2011-05-01T08:30:08Z</time>
      </trkpt>
      <trkpt lat="47.45163" lon="0.90379">
        <ele>158</ele>
        <time>2011-05-01T08:30:09Z</time>
      </trkpt>
      <trkpt lat="47.45162" lon="0.90387">
        <ele>157</ele>
        <time>2011-05-01T08:30:10Z</time>
      </trkpt>
      <trkpt lat="47.4516" lon="0.90395">
        <ele>157</ele>
        <time>2011-05-01T08:30:11Z</time>
      </trkpt>
      <trkpt lat="47.45158" lon="0.90403">
        <ele>158</ele>
        <time>2011-05-01T08:30:12Z</time>
      </trkpt>
      <trkpt lat="47.45156" lon="0.90412">
        <ele>157</ele>
        <time>2011-05-01T08:30:13Z</time>
      </trkpt>
      <trkpt lat="47.45155" lon="0.90419">
        <ele>157</ele>
        <time>2011-05-01T08:30:14Z</time>
      </trkpt>
      <trkpt lat="47.45151" lon="0.90436">
        <ele>157</ele>
        <time>2011-05-01T08:30:16Z</time>
      </trkpt>
      <trkpt lat="47.45148" lon="0.90444">
        <ele>157</ele>
        <time>2011-05-01T08:30:17Z</time>
      </trkpt>
      <trkpt lat="47.45146" lon="0.90452">
        <ele>157</ele>
        <time>2011-05-01T08:30:18Z</time>
      </trkpt>
      <trkpt lat="47.45144" lon="0.90461">
        <ele>156</ele>
        <time>2011-05-01T08:30:19Z</time>
      </trkpt>
      <trkpt lat="47.45142" lon="0.90469">
        <ele>156</ele>
        <time>2011-05-01T08:30:20Z</time>
      </trkpt>
      <trkpt lat="47.4514" lon="0.90476">
        <ele>156</ele>
        <time>2011-05-01T08:30:21Z</time>
      </trkpt>
      <trkpt lat="47.45138" lon="0.90484">
        <ele>156</ele>
        <time>2011-05-01T08:30:22Z</time>
      </trkpt>
      <trkpt lat="47.45136" lon="0.90491">
        <ele>156</ele>
        <time>2011-05-01T08:30:23Z</time>
      </trkpt>
      <trkpt lat="47.45134" lon="0.90499">
        <ele>156</ele>
        <time>2011-05-01T08:30:24Z</time>
      </trkpt>
      <trkpt lat="47.45133" lon="0.9051">
        <ele>155</ele>
        <time>2011-05-01T08:30:26Z</time>
      </trkpt>
      <trkpt lat="47.45136" lon="0.90516">
        <ele>156</ele>
        <time>2011-05-01T08:30:28Z</time>
      </trkpt>
      <trkpt lat="47.45142" lon="0.90516">
        <ele>156</ele>
        <time>2011-05-01T08:30:30Z</time>
      </trkpt>
      <trkpt lat="47.45151" lon="0.90514">
        <ele>156</ele>
        <time>2011-05-01T08:30:32Z</time>
      </trkpt>
      <trkpt lat="47.45156" lon="0.90514">
        <ele>156</ele>
        <time>2011-05-01T08:30:33Z</time>
      </trkpt>
      <trkpt lat="47.45165" lon="0.90513">
        <ele>156</ele>
        <time>2011-05-01T08:30:35Z</time>
      </trkpt>
      <trkpt lat="47.4517" lon="0.90513">
        <ele>157</ele>
        <time>2011-05-01T08:30:36Z</time>
      </trkpt>
      <trkpt lat="47.45175" lon="0.90512">
        <ele>157</ele>
        <time>2011-05-01T08:30:37Z</time>
      </trkpt>
      <trkpt lat="47.4518" lon="0.90511">
        <ele>157</ele>
        <time>2011-05-01T08:30:38Z</time>
      </trkpt>
      <trkpt lat="47.45188" lon="0.90508">
        <ele>157</ele>
        <time>2011-05-01T08:30:40Z</time>
      </trkpt>
      <trkpt lat="47.45195" lon="0.90506">
        <ele>158</ele>
        <time>2011-05-01T08:30:42Z</time>
      </trkpt>
      <trkpt lat="47.45203" lon="0.90506">
        <ele>158</ele>
        <time>2011-05-01T08:30:44Z</time>
      </trkpt>
      <trkpt lat="47.4521" lon="0.90503">
        <ele>157</ele>
        <time>2011-05-01T08:30:46Z</time>
      </trkpt>
      <trkpt lat="47.45218" lon="0.905">
        <ele>158</ele>
        <time>2011-05-01T08:30:48Z</time>
      </trkpt>
      <trkpt lat="47.45226" lon="0.90499">
        <ele>158</ele>
        <time>2011-05-01T08:30:50Z</time>
      </trkpt>
      <trkpt lat="47.45234" lon="0.90497">
        <ele>158</ele>
        <time>2011-05-01T08:30:52Z</time>
      </trkpt>
      <trkpt lat="47.45242" lon="0.90496">
        <ele>158</ele>
        <time>2011-05-01T08:30:54Z</time>
      </trkpt>
      <trkpt lat="47.4525" lon="0.90494">
        <ele>158</ele>
        <time>2011-05-01T08:30:56Z</time>
      </trkpt>
      <trkpt lat="47.45258" lon="0.90492">
        <ele>158</ele>
        <time>2011-05-01T08:30:58Z</time>
      </trkpt>
      <trkpt lat="47.45267" lon="0.90492">
        <ele>158</ele>
        <time>2011-05-01T08:31:00Z</time>
      </trkpt>
      <trkpt lat="47.45276" lon="0.90491">
        <ele>158</ele>
        <time>2011-05-01T08:31:02Z</time>
      </trkpt>
      <trkpt lat="47.45284" lon="0.90491">
        <ele>157</ele>
        <time>2011-05-01T08:31:04Z</time>
      </trkpt>
      <trkpt lat="47.45293" lon="0.90493">
        <ele>157</ele>
        <time>2011-05-01T08:31:06Z</time>
      </trkpt>
      <trkpt lat="47.45298" lon="0.90493">
        <ele>158</ele>
        <time>2011-05-01T08:31:07Z</time>
      </trkpt>
      <trkpt lat="47.45306" lon="0.90496">
        <ele>158</ele>
        <time>2011-05-01T08:31:09Z</time>
      </trkpt>
      <trkpt lat="47.45314" lon="0.90498">
        <ele>158</ele>
        <time>2011-05-01T08:31:11Z</time>
      </trkpt>
      <trkpt lat="47.45321" lon="0.90501">
        <ele>158</ele>
        <time>2011-05-01T08:31:13Z</time>
      </trkpt>
      <trkpt lat="47.45329" lon="0.90506">
        <ele>158</ele>
        <time>2011-05-01T08:31:15Z</time>
      </trkpt>
      <trkpt lat="47.45337" lon="0.90508">
        <ele>158</ele>
        <time>2011-05-01T08:31:17Z</time>
      </trkpt>
      <trkpt lat="47.45345" lon="0.90513">
        <ele>158</ele>
        <time>2011-05-01T08:31:19Z</time>
      </trkpt>
      <trkpt lat="47.45352" lon="0.90513">
        <ele>159</ele>
        <time>2011-05-01T08:31:21Z</time>
      </trkpt>
      <trkpt lat="47.4536" lon="0.90513">
        <ele>159</ele>
        <time>2011-05-01T08:31:23Z</time>
      </trkpt>
      <trkpt lat="47.45367" lon="0.90514">
        <ele>159</ele>
        <time>2011-05-01T08:31:25Z</time>
      </trkpt>
      <trkpt lat="47.45372" lon="0.90514">
        <ele>160</ele>
        <time>2011-05-01T08:31:26Z</time>
      </trkpt>
      <trkpt lat="47.45379" lon="0.90514">
        <ele>159</ele>
        <time>2011-05-01T08:31:27Z</time>
      </trkpt>
      <trkpt lat="47.45388" lon="0.90513">
        <ele>158</ele>
        <time>2011-05-01T08:31:29Z</time>
      </trkpt>
      <trkpt lat="47.45398" lon="0.90513">
        <ele>157</ele>
        <time>2011-05-01T08:31:31Z</time>
      </trkpt>
      <trkpt lat="47.45406" lon="0.90515">
        <ele>157</ele>
        <time>2011-05-01T08:31:33Z</time>
      </trkpt>
      <trkpt lat="47.45412" lon="0.90515">
        <ele>156</ele>
        <time>2011-05-01T08:31:34Z</time>
      </trkpt>
      <trkpt lat="47.45417" lon="0.90516">
        <ele>157</ele>
        <time>2011-05-01T08:31:35Z</time>
      </trkpt>
      <trkpt lat="47.45423" lon="0.90516">
        <ele>156</ele>
        <time>2011-05-01T08:31:36Z</time>
      </trkpt>
      <trkpt lat="47.45428" lon="0.90516">
        <ele>156</ele>
        <time>2011-05-01T08:31:37Z</time>
      </trkpt>
      <trkpt lat="47.45433" lon="0.90513">
        <ele>156</ele>
        <time>2011-05-01T08:31:38Z</time>
      </trkpt>
      <trkpt lat="47.45438" lon="0.90511">
        <ele>156</ele>
        <time>2011-05-01T08:31:39Z</time>
      </trkpt>
      <trkpt lat="47.45443" lon="0.90509">
        <ele>155</ele>
        <time>2011-05-01T08:31:40Z</time>
      </trkpt>
      <trkpt lat="47.45448" lon="0.90505">
        <ele>155</ele>
        <time>2011-05-01T08:31:41Z</time>
      </trkpt>
      <trkpt lat="47.45453" lon="0.90503">
        <ele>155</ele>
        <time>2011-05-01T08:31:42Z</time>
      </trkpt>
      <trkpt lat="47.45458" lon="0.90501">
        <ele>155</ele>
        <time>2011-05-01T08:31:43Z</time>
      </trkpt>
      <trkpt lat="47.45462" lon="0.90499">
        <ele>155</ele>
        <time>2011-05-01T08:31:44Z</time>
      </trkpt>
      <trkpt lat="47.45467" lon="0.90497">
        <ele>155</ele>
        <time>2011-05-01T08:31:45Z</time>
      </trkpt>
      <trkpt lat="47.45472" lon="0.90495">
        <ele>155</ele>
        <time>2011-05-01T08:31:46Z</time>
      </trkpt>
      <trkpt lat="47.45477" lon="0.90493">
        <ele>156</ele>
        <time>2011-05-01T08:31:47Z</time>
      </trkpt>
      <trkpt lat="47.45487" lon="0.9049">
        <ele>156</ele>
        <time>2011-05-01T08:31:49Z</time>
      </trkpt>
      <trkpt lat="47.45496" lon="0.90489">
        <ele>156</ele>
        <time>2011-05-01T08:31:51Z</time>
      </trkpt>
      <trkpt lat="47.455" lon="0.90486">
        <ele>157</ele>
        <time>2011-05-01T08:31:52Z</time>
      </trkpt>
      <trkpt lat="47.45505" lon="0.90484">
        <ele>158</ele>
        <time>2011-05-01T08:31:53Z</time>
      </trkpt>
      <trkpt lat="47.45509" lon="0.90482">
        <ele>157</ele>
        <time>2011-05-01T08:31:54Z</time>
      </trkpt>
      <trkpt lat="47.45518" lon="0.90479">
        <ele>157</ele>
        <time>2011-05-01T08:31:56Z</time>
      </trkpt>
      <trkpt lat="47.45522" lon="0.90476">
        <ele>157</ele>
        <time>2011-05-01T08:31:57Z</time>
      </trkpt>
      <trkpt lat="47.45532" lon="0.90473">
        <ele>157</ele>
        <time>2011-05-01T08:31:59Z</time>
      </trkpt>
      <trkpt lat="47.45536" lon="0.90472">
        <ele>158</ele>
        <time>2011-05-01T08:32:00Z</time>
      </trkpt>
      <trkpt lat="47.45541" lon="0.90469">
        <ele>157</ele>
        <time>2011-05-01T08:32:01Z</time>
      </trkpt>
      <trkpt lat="47.45546" lon="0.90468">
        <ele>157</ele>
        <time>2011-05-01T08:32:02Z</time>
      </trkpt>
      <trkpt lat="47.45551" lon="0.90466">
        <ele>157</ele>
        <time>2011-05-01T08:32:03Z</time>
      </trkpt>
      <trkpt lat="47.45556" lon="0.90464">
        <ele>158</ele>
        <time>2011-05-01T08:32:04Z</time>
      </trkpt>
      <trkpt lat="47.45562" lon="0.90462">
        <ele>158</ele>
        <time>2011-05-01T08:32:05Z</time>
      </trkpt>
      <trkpt lat="47.45566" lon="0.90462">
        <ele>158</ele>
        <time>2011-05-01T08:32:06Z</time>
      </trkpt>
      <trkpt lat="47.45572" lon="0.90459">
        <ele>158</ele>
        <time>2011-05-01T08:32:07Z</time>
      </trkpt>
      <trkpt lat="47.45577" lon="0.90456">
        <ele>158</ele>
        <time>2011-05-01T08:32:08Z</time>
      </trkpt>
      <trkpt lat="47.45583" lon="0.90454">
        <ele>158</ele>
        <time>2011-05-01T08:32:09Z</time>
      </trkpt>
      <trkpt lat="47.45588" lon="0.90451">
        <ele>158</ele>
        <time>2011-05-01T08:32:10Z</time>
      </trkpt>
      <trkpt lat="47.45594" lon="0.90448">
        <ele>158</ele>
        <time>2011-05-01T08:32:11Z</time>
      </trkpt>
      <trkpt lat="47.45599" lon="0.90445">
        <ele>157</ele>
        <time>2011-05-01T08:32:12Z</time>
      </trkpt>
      <trkpt lat="47.45605" lon="0.90442">
        <ele>158</ele>
        <time>2011-05-01T08:32:13Z</time>
      </trkpt>
      <trkpt lat="47.4561" lon="0.9044">
        <ele>158</ele>
        <time>2011-05-01T08:32:14Z</time>
      </trkpt>
      <trkpt lat="47.45619" lon="0.90436">
        <ele>158</ele>
        <time>2011-05-01T08:32:16Z</time>
      </trkpt>
      <trkpt lat="47.45625" lon="0.90434">
        <ele>158</ele>
        <time>2011-05-01T08:32:17Z</time>
      </trkpt>
      <trkpt lat="47.4563" lon="0.90431">
        <ele>158</ele>
        <time>2011-05-01T08:32:18Z</time>
      </trkpt>
      <trkpt lat="47.45634" lon="0.90427">
        <ele>158</ele>
        <time>2011-05-01T08:32:19Z</time>
      </trkpt>
      <trkpt lat="47.45641" lon="0.90424">
        <ele>158</ele>
        <time>2011-05-01T08:32:20Z</time>
      </trkpt>
      <trkpt lat="47.45648" lon="0.90423">
        <ele>157</ele>
        <time>2011-05-01T08:32:21Z</time>
      </trkpt>
      <trkpt lat="47.45653" lon="0.90421">
        <ele>157</ele>
        <time>2011-05-01T08:32:22Z</time>
      </trkpt>
      <trkpt lat="47.45658" lon="0.90419">
        <ele>157</ele>
        <time>2011-05-01T08:32:23Z</time>
      </trkpt>
      <trkpt lat="47.45662" lon="0.90416">
        <ele>157</ele>
        <time>2011-05-01T08:32:24Z</time>
      </trkpt>
      <trkpt lat="47.45667" lon="0.90413">
        <ele>157</ele>
        <time>2011-05-01T08:32:25Z</time>
      </trkpt>
      <trkpt lat="47.45671" lon="0.9041">
        <ele>157</ele>
        <time>2011-05-01T08:32:26Z</time>
      </trkpt>
      <trkpt lat="47.45677" lon="0.90408">
        <ele>158</ele>
        <time>2011-05-01T08:32:27Z</time>
      </trkpt>
      <trkpt lat="47.45682" lon="0.90407">
        <ele>158</ele>
        <time>2011-05-01T08:32:28Z</time>
      </trkpt>
      <trkpt lat="47.45688" lon="0.90405">
        <ele>158</ele>
        <time>2011-05-01T08:32:29Z</time>
      </trkpt>
      <trkpt lat="47.45694" lon="0.90403">
        <ele>159</ele>
        <time>2011-05-01T08:32:30Z</time>
      </trkpt>
      <trkpt lat="47.45699" lon="0.90399">
        <ele>158</ele>
        <time>2011-05-01T08:32:31Z</time>
      </trkpt>
      <trkpt lat="47.45705" lon="0.90396">
        <ele>159</ele>
        <time>2011-05-01T08:32:32Z</time>
      </trkpt>
      <trkpt lat="47.4571" lon="0.90392">
        <ele>160</ele>
        <time>2011-05-01T08:32:33Z</time>
      </trkpt>
      <trkpt lat="47.45715" lon="0.90387">
        <ele>160</ele>
        <time>2011-05-01T08:32:34Z</time>
      </trkpt>
      <trkpt lat="47.45719" lon="0.90383">
        <ele>161</ele>
        <time>2011-05-01T08:32:35Z</time>
      </trkpt>
      <trkpt lat="47.45725" lon="0.90379">
        <ele>161</ele>
        <time>2011-05-01T08:32:36Z</time>
      </trkpt>
      <trkpt lat="47.45728" lon="0.90375">
        <ele>161</ele>
        <time>2011-05-01T08:32:37Z</time>
      </trkpt>
      <trkpt lat="47.45733" lon="0.9037">
        <ele>161</ele>
        <time>2011-05-01T08:32:38Z</time>
      </trkpt>
      <trkpt lat="47.45738" lon="0.90365">
        <ele>160</ele>
        <time>2011-05-01T08:32:39Z</time>
      </trkpt>
      <trkpt lat="47.45741" lon="0.9036">
        <ele>160</ele>
        <time>2011-05-01T08:32:40Z</time>
      </trkpt>
      <trkpt lat="47.45745" lon="0.90354">
        <ele>161</ele>
        <time>2011-05-01T08:32:41Z</time>
      </trkpt>
      <trkpt lat="47.45749" lon="0.9035">
        <ele>161</ele>
        <time>2011-05-01T08:32:42Z</time>
      </trkpt>
      <trkpt lat="47.45754" lon="0.90344">
        <ele>160</ele>
        <time>2011-05-01T08:32:44Z</time>
      </trkpt>
      <trkpt lat="47.4576" lon="0.90348">
        <ele>160</ele>
        <time>2011-05-01T08:32:46Z</time>
      </trkpt>
      <trkpt lat="47.45764" lon="0.90358">
        <ele>160</ele>
        <time>2011-05-01T08:32:48Z</time>
      </trkpt>
      <trkpt lat="47.45768" lon="0.90362">
        <ele>160</ele>
        <time>2011-05-01T08:32:49Z</time>
      </trkpt>
      <trkpt lat="47.45771" lon="0.90368">
        <ele>160</ele>
        <time>2011-05-01T08:32:50Z</time>
      </trkpt>
      <trkpt lat="47.45773" lon="0.90373">
        <ele>159</ele>
        <time>2011-05-01T08:32:51Z</time>
      </trkpt>
      <trkpt lat="47.45777" lon="0.90379">
        <ele>159</ele>
        <time>2011-05-01T08:32:52Z</time>
      </trkpt>
      <trkpt lat="47.4578" lon="0.90384">
        <ele>159</ele>
        <time>2011-05-01T08:32:53Z</time>
      </trkpt>
      <trkpt lat="47.45783" lon="0.9039">
        <ele>159</ele>
        <time>2011-05-01T08:32:54Z</time>
      </trkpt>
      <trkpt lat="47.45786" lon="0.90396">
        <ele>159</ele>
        <time>2011-05-01T08:32:55Z</time>
      </trkpt>
      <trkpt lat="47.4579" lon="0.90402">
        <ele>159</ele>
        <time>2011-05-01T08:32:56Z</time>
      </trkpt>
      <trkpt lat="47.45792" lon="0.90408">
        <ele>159</ele>
        <time>2011-05-01T08:32:57Z</time>
      </trkpt>
      <trkpt lat="47.45795" lon="0.90414">
        <ele>160</ele>
        <time>2011-05-01T08:32:58Z</time>
      </trkpt>
      <trkpt lat="47.45799" lon="0.9042">
        <ele>160</ele>
        <time>2011-05-01T08:32:59Z</time>
      </trkpt>
      <trkpt lat="47.45802" lon="0.90426">
        <ele>160</ele>
        <time>2011-05-01T08:33:00Z</time>
      </trkpt>
      <trkpt lat="47.45805" lon="0.90433">
        <ele>161</ele>
        <time>2011-05-01T08:33:01Z</time>
      </trkpt>
      <trkpt lat="47.45809" lon="0.90439">
        <ele>161</ele>
        <time>2011-05-01T08:33:02Z</time>
      </trkpt>
      <trkpt lat="47.45812" lon="0.90445">
        <ele>161</ele>
        <time>2011-05-01T08:33:03Z</time>
      </trkpt>
      <trkpt lat="47.45815" lon="0.90451">
        <ele>162</ele>
        <time>2011-05-01T08:33:04Z</time>
      </trkpt>
      <trkpt lat="47.45818" lon="0.90457">
        <ele>162</ele>
        <time>2011-05-01T08:33:05Z</time>
      </trkpt>
      <trkpt lat="47.45822" lon="0.90463">
        <ele>162</ele>
        <time>2011-05-01T08:33:06Z</time>
      </trkpt>
      <trkpt lat="47.45827" lon="0.90469">
        <ele>162</ele>
        <time>2011-05-01T08:33:07Z</time>
      </trkpt>
      <trkpt lat="47.4583" lon="0.90475">
        <ele>162</ele>
        <time>2011-05-01T08:33:08Z</time>
      </trkpt>
      <trkpt lat="47.45833" lon="0.90482">
        <ele>162</ele>
        <time>2011-05-01T08:33:09Z</time>
      </trkpt>
      <trkpt lat="47.45837" lon="0.90487">
        <ele>162</ele>
        <time>2011-05-01T08:33:10Z</time>
      </trkpt>
      <trkpt lat="47.4584" lon="0.90493">
        <ele>162</ele>
        <time>2011-05-01T08:33:11Z</time>
      </trkpt>
      <trkpt lat="47.45844" lon="0.90499">
        <ele>163</ele>
        <time>2011-05-01T08:33:12Z</time>
      </trkpt>
      <trkpt lat="47.45848" lon="0.90505">
        <ele>162</ele>
        <time>2011-05-01T08:33:13Z</time>
      </trkpt>
      <trkpt lat="47.45851" lon="0.90511">
        <ele>163</ele>
        <time>2011-05-01T08:33:14Z</time>
      </trkpt>
      <trkpt lat="47.45858" lon="0.90523">
        <ele>163</ele>
        <time>2011-05-01T08:33:16Z</time>
      </trkpt>
      <trkpt lat="47.45862" lon="0.90528">
        <ele>163</ele>
        <time>2011-05-01T08:33:17Z</time>
      </trkpt>
      <trkpt lat="47.45866" lon="0.90534">
        <ele>163</ele>
        <time>2011-05-01T08:33:18Z</time>
      </trkpt>
      <trkpt lat="47.4587" lon="0.9054">
        <ele>163</ele>
        <time>2011-05-01T08:33:19Z</time>
      </trkpt>
      <trkpt lat="47.45874" lon="0.90546">
        <ele>163</ele>
        <time>2011-05-01T08:33:20Z</time>
      </trkpt>
      <trkpt lat="47.45878" lon="0.90552">
        <ele>163</ele>
        <time>2011-05-01T08:33:21Z</time>
      </trkpt>
      <trkpt lat="47.45881" lon="0.90558">
        <ele>164</ele>
        <time>2011-05-01T08:33:22Z</time>
      </trkpt>
      <trkpt lat="47.45884" lon="0.90564">
        <ele>164</ele>
        <time>2011-05-01T08:33:23Z</time>
      </trkpt>
      <trkpt lat="47.45888" lon="0.9057">
        <ele>164</ele>
        <time>2011-05-01T08:33:24Z</time>
      </trkpt>
      <trkpt lat="47.45892" lon="0.90576">
        <ele>163</ele>
        <time>2011-05-01T08:33:25Z</time>
      </trkpt>
      <trkpt lat="47.45896" lon="0.90582">
        <ele>163</ele>
        <time>2011-05-01T08:33:26Z</time>
      </trkpt>
      <trkpt lat="47.45899" lon="0.90588">
        <ele>163</ele>
        <time>2011-05-01T08:33:27Z</time>
      </trkpt>
      <trkpt lat="47.45902" lon="0.90594">
        <ele>163</ele>
        <time>2011-05-01T08:33:28Z</time>
      </trkpt>
      <trkpt lat="47.45904" lon="0.90602">
        <ele>164</ele>
        <time>2011-05-01T08:33:29Z</time>
      </trkpt>
      <trkpt lat="47.45906" lon="0.90609">
        <ele>164</ele>
        <time>2011-05-01T08:33:30Z</time>
      </trkpt>
      <trkpt lat="47.45908" lon="0.90616">
        <ele>164</ele>
        <time>2011-05-01T08:33:31Z</time>
      </trkpt>
      <trkpt lat="47.4591" lon="0.90624">
        <ele>164</ele>
        <time>2011-05-01T08:33:32Z</time>
      </trkpt>
      <trkpt lat="47.45911" lon="0.90631">
        <ele>164</ele>
        <time>2011-05-01T08:33:33Z</time>
      </trkpt>
      <trkpt lat="47.45913" lon="0.90639">
        <ele>164</ele>
        <time>2011-05-01T08:33:34Z</time>
      </trkpt>
      <trkpt lat="47.45914" lon="0.90646">
        <ele>164</ele>
        <time>2011-05-01T08:33:35Z</time>
      </trkpt>
      <trkpt lat="47.45915" lon="0.90654">
        <ele>164</ele>
        <time>2011-05-01T08:33:36Z</time>
      </trkpt>
      <trkpt lat="47.45916" lon="0.90661">
        <ele>164</ele>
        <time>2011-05-01T08:33:37Z</time>
      </trkpt>
      <trkpt lat="47.45918" lon="0.90668">
        <ele>165</ele>
        <time>2011-05-01T08:33:38Z</time>
      </trkpt>
      <trkpt lat="47.45918" lon="0.90675">
        <ele>164</ele>
        <time>2011-05-01T08:33:39Z</time>
      </trkpt>
      <trkpt lat="47.45918" lon="0.90683">
        <ele>165</ele>
        <time>2011-05-01T08:33:40Z</time>
      </trkpt>
      <trkpt lat="47.45917" lon="0.9069">
        <ele>165</ele>
        <time>2011-05-01T08:33:41Z</time>
      </trkpt>
      <trkpt lat="47.45917" lon="0.90697">
        <ele>165</ele>
        <time>2011-05-01T08:33:42Z</time>
      </trkpt>
      <trkpt lat="47.45916" lon="0.90705">
        <ele>165</ele>
        <time>2011-05-01T08:33:43Z</time>
      </trkpt>
      <trkpt lat="47.45915" lon="0.90712">
        <ele>165</ele>
        <time>2011-05-01T08:33:44Z</time>
      </trkpt>
      <trkpt lat="47.45914" lon="0.90719">
        <ele>165</ele>
        <time>2011-05-01T08:33:45Z</time>
      </trkpt>
      <trkpt lat="47.45912" lon="0.90727">
        <ele>164</ele>
        <time>2011-05-01T08:33:46Z</time>
      </trkpt>
      <trkpt lat="47.45911" lon="0.90735">
        <ele>164</ele>
        <time>2011-05-01T08:33:47Z</time>
      </trkpt>
      <trkpt lat="47.45908" lon="0.90743">
        <ele>164</ele>
        <time>2011-05-01T08:33:48Z</time>
      </trkpt>
      <trkpt lat="47.45906" lon="0.9075">
        <ele>164</ele>
        <time>2011-05-01T08:33:49Z</time>
      </trkpt>
      <trkpt lat="47.45904" lon="0.90758">
        <ele>164</ele>
        <time>2011-05-01T08:33:50Z</time>
      </trkpt>
      <trkpt lat="47.45902" lon="0.90765">
        <ele>164</ele>
        <time>2011-05-01T08:33:51Z</time>
      </trkpt>
      <trkpt lat="47.459" lon="0.90772">
        <ele>164</ele>
        <time>2011-05-01T08:33:52Z</time>
      </trkpt>
      <trkpt lat="47.45897" lon="0.90779">
        <ele>164</ele>
        <time>2011-05-01T08:33:53Z</time>
      </trkpt>
      <trkpt lat="47.45895" lon="0.90786">
        <ele>164</ele>
        <time>2011-05-01T08:33:54Z</time>
      </trkpt>
      <trkpt lat="47.45893" lon="0.90793">
        <ele>164</ele>
        <time>2011-05-01T08:33:55Z</time>
      </trkpt>
      <trkpt lat="47.45892" lon="0.90801">
        <ele>164</ele>
        <time>2011-05-01T08:33:56Z</time>
      </trkpt>
      <trkpt lat="47.45889" lon="0.90807">
        <ele>163</ele>
        <time>2011-05-01T08:33:57Z</time>
      </trkpt>
      <trkpt lat="47.45887" lon="0.90815">
        <ele>163</ele>
        <time>2011-05-01T08:33:58Z</time>
      </trkpt>
      <trkpt lat="47.45885" lon="0.90822">
        <ele>163</ele>
        <time>2011-05-01T08:33:59Z</time>
      </trkpt>
      <trkpt lat="47.45883" lon="0.9083">
        <ele>163</ele>
        <time>2011-05-01T08:34:00Z</time>
      </trkpt>
      <trkpt lat="47.45881" lon="0.90836">
        <ele>162</ele>
        <time>2011-05-01T08:34:01Z</time>
      </trkpt>
      <trkpt lat="47.4588" lon="0.90844">
        <ele>162</ele>
        <time>2011-05-01T08:34:02Z</time>
      </trkpt>
      <trkpt lat="47.45879" lon="0.9085">
        <ele>162</ele>
        <time>2011-05-01T08:34:03Z</time>
      </trkpt>
      <trkpt lat="47.45876" lon="0.90857">
        <ele>162</ele>
        <time>2011-05-01T08:34:04Z</time>
      </trkpt>
      <trkpt lat="47.45874" lon="0.90863">
        <ele>162</ele>
        <time>2011-05-01T08:34:05Z</time>
      </trkpt>
      <trkpt lat="47.45873" lon="0.90871">
        <ele>162</ele>
        <time>2011-05-01T08:34:06Z</time>
      </trkpt>
      <trkpt lat="47.4587" lon="0.90879">
        <ele>162</ele>
        <time>2011-05-01T08:34:07Z</time>
      </trkpt>
      <trkpt lat="47.45868" lon="0.90886">
        <ele>162</ele>
        <time>2011-05-01T08:34:08Z</time>
      </trkpt>
      <trkpt lat="47.45865" lon="0.90892">
        <ele>162</ele>
        <time>2011-05-01T08:34:09Z</time>
      </trkpt>
      <trkpt lat="47.45862" lon="0.909">
        <ele>162</ele>
        <time>2011-05-01T08:34:10Z</time>
      </trkpt>
      <trkpt lat="47.4586" lon="0.90907">
        <ele>162</ele>
        <time>2011-05-01T08:34:11Z</time>
      </trkpt>
      <trkpt lat="47.45858" lon="0.90913">
        <ele>162</ele>
        <time>2011-05-01T08:34:12Z</time>
      </trkpt>
      <trkpt lat="47.45855" lon="0.9092">
        <ele>162</ele>
        <time>2011-05-01T08:34:13Z</time>
      </trkpt>
      <trkpt lat="47.45852" lon="0.90927">
        <ele>161</ele>
        <time>2011-05-01T08:34:14Z</time>
      </trkpt>
      <trkpt lat="47.45849" lon="0.90934">
        <ele>160</ele>
        <time>2011-05-01T08:34:15Z</time>
      </trkpt>
      <trkpt lat="47.45846" lon="0.9094">
        <ele>160</ele>
        <time>2011-05-01T08:34:16Z</time>
      </trkpt>
      <trkpt lat="47.45843" lon="0.90947">
        <ele>160</ele>
        <time>2011-05-01T08:34:17Z</time>
      </trkpt>
      <trkpt lat="47.45839" lon="0.90953">
        <ele>160</ele>
        <time>2011-05-01T08:34:18Z</time>
      </trkpt>
      <trkpt lat="47.45837" lon="0.90959">
        <ele>159</ele>
        <time>2011-05-01T08:34:19Z</time>
      </trkpt>
      <trkpt lat="47.45834" lon="0.90964">
        <ele>159</ele>
        <time>2011-05-01T08:34:20Z</time>
      </trkpt>
      <trkpt lat="47.45832" lon="0.90971">
        <ele>159</ele>
        <time>2011-05-01T08:34:21Z</time>
      </trkpt>
      <trkpt lat="47.45831" lon="0.90978">
        <ele>159</ele>
        <time>2011-05-01T08:34:22Z</time>
      </trkpt>
      <trkpt lat="47.45832" lon="0.90985">
        <ele>159</ele>
        <time>2011-05-01T08:34:23Z</time>
      </trkpt>
      <trkpt lat="47.45835" lon="0.90992">
        <ele>159</ele>
        <time>2011-05-01T08:34:24Z</time>
      </trkpt>
      <trkpt lat="47.45837" lon="0.90998">
        <ele>159</ele>
        <time>2011-05-01T08:34:25Z</time>
      </trkpt>
      <trkpt lat="47.45839" lon="0.91004">
        <ele>159</ele>
        <time>2011-05-01T08:34:26Z</time>
      </trkpt>
      <trkpt lat="47.45841" lon="0.91012">
        <ele>159</ele>
        <time>2011-05-01T08:34:27Z</time>
      </trkpt>
      <trkpt lat="47.45841" lon="0.91026">
        <ele>159</ele>
        <time>2011-05-01T08:34:29Z</time>
      </trkpt>
      <trkpt lat="47.45839" lon="0.91033">
        <ele>159</ele>
        <time>2011-05-01T08:34:30Z</time>
      </trkpt>
      <trkpt lat="47.45837" lon="0.9104">
        <ele>159</ele>
        <time>2011-05-01T08:34:31Z</time>
      </trkpt>
      <trkpt lat="47.45835" lon="0.91048">
        <ele>159</ele>
        <time>2011-05-01T08:34:32Z</time>
      </trkpt>
      <trkpt lat="47.45831" lon="0.91052">
        <ele>159</ele>
        <time>2011-05-01T08:34:33Z</time>
      </trkpt>
      <trkpt lat="47.45826" lon="0.91057">
        <ele>159</ele>
        <time>2011-05-01T08:34:34Z</time>
      </trkpt>
      <trkpt lat="47.45822" lon="0.91062">
        <ele>158</ele>
        <time>2011-05-01T08:34:35Z</time>
      </trkpt>
      <trkpt lat="47.45818" lon="0.91068">
        <ele>159</ele>
        <time>2011-05-01T08:34:36Z</time>
      </trkpt>
      <trkpt lat="47.45815" lon="0.91073">
        <ele>159</ele>
        <time>2011-05-01T08:34:37Z</time>
      </trkpt>
      <trkpt lat="47.45812" lon="0.91079">
        <ele>159</ele>
        <time>2011-05-01T08:34:38Z</time>
      </trkpt>
      <trkpt lat="47.4581" lon="0.91086">
        <ele>159</ele>
        <time>2011-05-01T08:34:39Z</time>
      </trkpt>
      <trkpt lat="47.45808" lon="0.91094">
        <ele>158</ele>
        <time>2011-05-01T08:34:40Z</time>
      </trkpt>
      <trkpt lat="47.45807" lon="0.91101">
        <ele>158</ele>
        <time>2011-05-01T08:34:41Z</time>
      </trkpt>
      <trkpt lat="47.45805" lon="0.91108">
        <ele>159</ele>
        <time>2011-05-01T08:34:42Z</time>
      </trkpt>
      <trkpt lat="47.45802" lon="0.91115">
        <ele>159</ele>
        <time>2011-05-01T08:34:43Z</time>
      </trkpt>
      <trkpt lat="47.458" lon="0.91123">
        <ele>158</ele>
        <time>2011-05-01T08:34:44Z</time>
      </trkpt>
      <trkpt lat="47.45799" lon="0.9113">
        <ele>158</ele>
        <time>2011-05-01T08:34:45Z</time>
      </trkpt>
      <trkpt lat="47.45796" lon="0.91138">
        <ele>158</ele>
        <time>2011-05-01T08:34:46Z</time>
      </trkpt>
      <trkpt lat="47.45793" lon="0.9115">
        <ele>158</ele>
        <time>2011-05-01T08:34:48Z</time>
      </trkpt>
      <trkpt lat="47.45789" lon="0.91155">
        <ele>158</ele>
        <time>2011-05-01T08:34:49Z</time>
      </trkpt>
      <trkpt lat="47.45786" lon="0.91162">
        <ele>158</ele>
        <time>2011-05-01T08:34:50Z</time>
      </trkpt>
      <trkpt lat="47.45783" lon="0.91169">
        <ele>157</ele>
        <time>2011-05-01T08:34:51Z</time>
      </trkpt>
      <trkpt lat="47.4578" lon="0.91176">
        <ele>156</ele>
        <time>2011-05-01T08:34:52Z</time>
      </trkpt>
      <trkpt lat="47.45777" lon="0.91181">
        <ele>157</ele>
        <time>2011-05-01T08:34:53Z</time>
      </trkpt>
      <trkpt lat="47.45774" lon="0.91188">
        <ele>157</ele>
        <time>2011-05-01T08:34:54Z</time>
      </trkpt>
      <trkpt lat="47.45772" lon="0.91194">
        <ele>157</ele>
        <time>2011-05-01T08:34:55Z</time>
      </trkpt>
      <trkpt lat="47.45769" lon="0.912">
        <ele>157</ele>
        <time>2011-05-01T08:34:56Z</time>
      </trkpt>
      <trkpt lat="47.45766" lon="0.91206">
        <ele>157</ele>
        <time>2011-05-01T08:34:57Z</time>
      </trkpt>
      <trkpt lat="47.45763" lon="0.91212">
        <ele>157</ele>
        <time>2011-05-01T08:34:58Z</time>
      </trkpt>
      <trkpt lat="47.4576" lon="0.91218">
        <ele>157</ele>
        <time>2011-05-01T08:34:59Z</time>
      </trkpt>
      <trkpt lat="47.45756" lon="0.91223">
        <ele>158</ele>
        <time>2011-05-01T08:35:00Z</time>
      </trkpt>
      <trkpt lat="47.45754" lon="0.91229">
        <ele>158</ele>
        <time>2011-05-01T08:35:01Z</time>
      </trkpt>
      <trkpt lat="47.45747" lon="0.9124">
        <ele>158</ele>
        <time>2011-05-01T08:35:03Z</time>
      </trkpt>
      <trkpt lat="47.45742" lon="0.9125">
        <ele>159</ele>
        <time>2011-05-01T08:35:05Z</time>
      </trkpt>
      <trkpt lat="47.4574" lon="0.91257">
        <ele>159</ele>
        <time>2011-05-01T08:35:06Z</time>
      </trkpt>
      <trkpt lat="47.45736" lon="0.91263">
        <ele>158</ele>
        <time>2011-05-01T08:35:07Z</time>
      </trkpt>
      <trkpt lat="47.45733" lon="0.91268">
        <ele>158</ele>
        <time>2011-05-01T08:35:08Z</time>
      </trkpt>
      <trkpt lat="47.4573" lon="0.91273">
        <ele>159</ele>
        <time>2011-05-01T08:35:09Z</time>
      </trkpt>
      <trkpt lat="47.45728" lon="0.91279">
        <ele>160</ele>
        <time>2011-05-01T08:35:10Z</time>
      </trkpt>
      <trkpt lat="47.45725" lon="0.91284">
        <ele>159</ele>
        <time>2011-05-01T08:35:11Z</time>
      </trkpt>
      <trkpt lat="47.45722" lon="0.9129">
        <ele>159</ele>
        <time>2011-05-01T08:35:12Z</time>
      </trkpt>
      <trkpt lat="47.4572" lon="0.91296">
        <ele>159</ele>
        <time>2011-05-01T08:35:13Z</time>
      </trkpt>
      <trkpt lat="47.45715" lon="0.91308">
        <ele>159</ele>
        <time>2011-05-01T08:35:15Z</time>
      </trkpt>
      <trkpt lat="47.45712" lon="0.91313">
        <ele>159</ele>
        <time>2011-05-01T08:35:16Z</time>
      </trkpt>
      <trkpt lat="47.45708" lon="0.91318">
        <ele>159</ele>
        <time>2011-05-01T08:35:17Z</time>
      </trkpt>
      <trkpt lat="47.45702" lon="0.91326">
        <ele>158</ele>
        <time>2011-05-01T08:35:19Z</time>
      </trkpt>
      <trkpt lat="47.45699" lon="0.91332">
        <ele>158</ele>
        <time>2011-05-01T08:35:20Z</time>
      </trkpt>
      <trkpt lat="47.45695" lon="0.91337">
        <ele>158</ele>
        <time>2011-05-01T08:35:21Z</time>
      </trkpt>
      <trkpt lat="47.45692" lon="0.91342">
        <ele>158</ele>
        <time>2011-05-01T08:35:22Z</time>
      </trkpt>
      <trkpt lat="47.45689" lon="0.91347">
        <ele>158</ele>
        <time>2011-05-01T08:35:23Z</time>
      </trkpt>
      <trkpt lat="47.45686" lon="0.91353">
        <ele>158</ele>
        <time>2011-05-01T08:35:24Z</time>
      </trkpt>
      <trkpt lat="47.45681" lon="0.91363">
        <ele>158</ele>
        <time>2011-05-01T08:35:26Z</time>
      </trkpt>
      <trkpt lat="47.45675" lon="0.91372">
        <ele>158</ele>
        <time>2011-05-01T08:35:28Z</time>
      </trkpt>
      <trkpt lat="47.45669" lon="0.91382">
        <ele>158</ele>
        <time>2011-05-01T08:35:30Z</time>
      </trkpt>
      <trkpt lat="47.45665" lon="0.91387">
        <ele>158</ele>
        <time>2011-05-01T08:35:31Z</time>
      </trkpt>
      <trkpt lat="47.45661" lon="0.91391">
        <ele>158</ele>
        <time>2011-05-01T08:35:32Z</time>
      </trkpt>
      <trkpt lat="47.45657" lon="0.91396">
        <ele>158</ele>
        <time>2011-05-01T08:35:33Z</time>
      </trkpt>
      <trkpt lat="47.45653" lon="0.91401">
        <ele>159</ele>
        <time>2011-05-01T08:35:34Z</time>
      </trkpt>
      <trkpt lat="47.4565" lon="0.91406">
        <ele>158</ele>
        <time>2011-05-01T08:35:35Z</time>
      </trkpt>
      <trkpt lat="47.45647" lon="0.91411">
        <ele>158</ele>
        <time>2011-05-01T08:35:36Z</time>
      </trkpt>
      <trkpt lat="47.45643" lon="0.91417">
        <ele>158</ele>
        <time>2011-05-01T08:35:37Z</time>
      </trkpt>
      <trkpt lat="47.45638" lon="0.91422">
        <ele>158</ele>
        <time>2011-05-01T08:35:38Z</time>
      </trkpt>
      <trkpt lat="47.45632" lon="0.91432">
        <ele>158</ele>
        <time>2011-05-01T08:35:40Z</time>
      </trkpt>
      <trkpt lat="47.45628" lon="0.91437">
        <ele>158</ele>
        <time>2011-05-01T08:35:41Z</time>
      </trkpt>
      <trkpt lat="47.45625" lon="0.91442">
        <ele>157</ele>
        <time>2011-05-01T08:35:42Z</time>
      </trkpt>
      <trkpt lat="47.45622" lon="0.91447">
        <ele>158</ele>
        <time>2011-05-01T08:35:43Z</time>
      </trkpt>
      <trkpt lat="47.45616" lon="0.91458">
        <ele>158</ele>
        <time>2011-05-01T08:35:45Z</time>
      </trkpt>
      <trkpt lat="47.45614" lon="0.91464">
        <ele>158</ele>
        <time>2011-05-01T08:35:46Z</time>
      </trkpt>
      <trkpt lat="47.4561" lon="0.9147">
        <ele>158</ele>
        <time>2011-05-01T08:35:47Z</time>
      </trkpt>
      <trkpt lat="47.45604" lon="0.91482">
        <ele>158</ele>
        <time>2011-05-01T08:35:49Z</time>
      </trkpt>
      <trkpt lat="47.45599" lon="0.91492">
        <ele>158</ele>
        <time>2011-05-01T08:35:51Z</time>
      </trkpt>
      <trkpt lat="47.45596" lon="0.91499">
        <ele>158</ele>
        <time>2011-05-01T08:35:52Z</time>
      </trkpt>
      <trkpt lat="47.45593" lon="0.91505">
        <ele>158</ele>
        <time>2011-05-01T08:35:53Z</time>
      </trkpt>
      <trkpt lat="47.45589" lon="0.9151">
        <ele>158</ele>
        <time>2011-05-01T08:35:54Z</time>
      </trkpt>
      <trkpt lat="47.45586" lon="0.91516">
        <ele>157</ele>
        <time>2011-05-01T08:35:55Z</time>
      </trkpt>
      <trkpt lat="47.45582" lon="0.91523">
        <ele>157</ele>
        <time>2011-05-01T08:35:56Z</time>
      </trkpt>
      <trkpt lat="47.4558" lon="0.91529">
        <ele>157</ele>
        <time>2011-05-01T08:35:57Z</time>
      </trkpt>
      <trkpt lat="47.45576" lon="0.91535">
        <ele>157</ele>
        <time>2011-05-01T08:35:58Z</time>
      </trkpt>
      <trkpt lat="47.45573" lon="0.91542">
        <ele>157</ele>
        <time>2011-05-01T08:35:59Z</time>
      </trkpt>
      <trkpt lat="47.4557" lon="0.91548">
        <ele>157</ele>
        <time>2011-05-01T08:36:00Z</time>
      </trkpt>
      <trkpt lat="47.45566" lon="0.91554">
        <ele>157</ele>
        <time>2011-05-01T08:36:01Z</time>
      </trkpt>
      <trkpt lat="47.45563" lon="0.9156">
        <ele>157</ele>
        <time>2011-05-01T08:36:02Z</time>
      </trkpt>
      <trkpt lat="47.45559" lon="0.91565">
        <ele>157</ele>
        <time>2011-05-01T08:36:03Z</time>
      </trkpt>
      <trkpt lat="47.45556" lon="0.91571">
        <ele>157</ele>
        <time>2011-05-01T08:36:04Z</time>
      </trkpt>
      <trkpt lat="47.45552" lon="0.91577">
        <ele>157</ele>
        <time>2011-05-01T08:36:05Z</time>
      </trkpt>
      <trkpt lat="47.45549" lon="0.91583">
        <ele>157</ele>
        <time>2011-05-01T08:36:06Z</time>
      </trkpt>
      <trkpt lat="47.45546" lon="0.91589">
        <ele>157</ele>
        <time>2011-05-01T08:36:07Z</time>
      </trkpt>
      <trkpt lat="47.45541" lon="0.91595">
        <ele>157</ele>
        <time>2011-05-01T08:36:08Z</time>
      </trkpt>
      <trkpt lat="47.45537" lon="0.91601">
        <ele>157</ele>
        <time>2011-05-01T08:36:09Z</time>
      </trkpt>
      <trkpt lat="47.45533" lon="0.91607">
        <ele>157</ele>
        <time>2011-05-01T08:36:10Z</time>
      </trkpt>
      <trkpt lat="47.4553" lon="0.91614">
        <ele>157</ele>
        <time>2011-05-01T08:36:11Z</time>
      </trkpt>
      <trkpt lat="47.45526" lon="0.91619">
        <ele>157</ele>
        <time>2011-05-01T08:36:12Z</time>
      </trkpt>
      <trkpt lat="47.45522" lon="0.91625">
        <ele>157</ele>
        <time>2011-05-01T08:36:13Z</time>
      </trkpt>
      <trkpt lat="47.45519" lon="0.9163">
        <ele>157</ele>
        <time>2011-05-01T08:36:14Z</time>
      </trkpt>
      <trkpt lat="47.45515" lon="0.91636">
        <ele>157</ele>
        <time>2011-05-01T08:36:15Z</time>
      </trkpt>
      <trkpt lat="47.45512" lon="0.91641">
        <ele>156</ele>
        <time>2011-05-01T08:36:16Z</time>
      </trkpt>
      <trkpt lat="47.45508" lon="0.91647">
        <ele>156</ele>
        <time>2011-05-01T08:36:17Z</time>
      </trkpt>
      <trkpt lat="47.45504" lon="0.91653">
        <ele>157</ele>
        <time>2011-05-01T08:36:18Z</time>
      </trkpt>
      <trkpt lat="47.455" lon="0.91658">
        <ele>157</ele>
        <time>2011-05-01T08:36:19Z</time>
      </trkpt>
      <trkpt lat="47.45497" lon="0.91663">
        <ele>156</ele>
        <time>2011-05-01T08:36:20Z</time>
      </trkpt>
      <trkpt lat="47.45493" lon="0.91669">
        <ele>157</ele>
        <time>2011-05-01T08:36:21Z</time>
      </trkpt>
      <trkpt lat="47.45489" lon="0.91675">
        <ele>156</ele>
        <time>2011-05-01T08:36:22Z</time>
      </trkpt>
      <trkpt lat="47.45486" lon="0.9168">
        <ele>156</ele>
        <time>2011-05-01T08:36:23Z</time>
      </trkpt>
      <trkpt lat="47.45482" lon="0.91686">
        <ele>156</ele>
        <time>2011-05-01T08:36:24Z</time>
      </trkpt>
      <trkpt lat="47.45478" lon="0.91692">
        <ele>156</ele>
        <time>2011-05-01T08:36:25Z</time>
      </trkpt>
      <trkpt lat="47.45475" lon="0.91697">
        <ele>156</ele>
        <time>2011-05-01T08:36:26Z</time>
      </trkpt>
      <trkpt lat="47.45471" lon="0.91703">
        <ele>156</ele>
        <time>2011-05-01T08:36:27Z</time>
      </trkpt>
      <trkpt lat="47.45468" lon="0.91708">
        <ele>156</ele>
        <time>2011-05-01T08:36:28Z</time>
      </trkpt>
      <trkpt lat="47.45464" lon="0.91715">
        <ele>156</ele>
        <time>2011-05-01T08:36:29Z</time>
      </trkpt>
      <trkpt lat="47.45461" lon="0.91721">
        <ele>156</ele>
        <time>2011-05-01T08:36:30Z</time>
      </trkpt>
      <trkpt lat="47.45459" lon="0.91729">
        <ele>156</ele>
        <time>2011-05-01T08:36:31Z</time>
      </trkpt>
      <trkpt lat="47.45456" lon="0.91736">
        <ele>156</ele>
        <time>2011-05-01T08:36:32Z</time>
      </trkpt>
      <trkpt lat="47.45453" lon="0.91742">
        <ele>156</ele>
        <time>2011-05-01T08:36:33Z</time>
      </trkpt>
      <trkpt lat="47.45451" lon="0.91749">
        <ele>156</ele>
        <time>2011-05-01T08:36:34Z</time>
      </trkpt>
      <trkpt lat="47.45448" lon="0.91756">
        <ele>156</ele>
        <time>2011-05-01T08:36:35Z</time>
      </trkpt>
      <trkpt lat="47.45445" lon="0.91764">
        <ele>156</ele>
        <time>2011-05-01T08:36:36Z</time>
      </trkpt>
      <trkpt lat="47.45443" lon="0.91771">
        <ele>156</ele>
        <time>2011-05-01T08:36:37Z</time>
      </trkpt>
      <trkpt lat="47.4544" lon="0.91777">
        <ele>156</ele>
        <time>2011-05-01T08:36:38Z</time>
      </trkpt>
      <trkpt lat="47.45438" lon="0.91785">
        <ele>156</ele>
        <time>2011-05-01T08:36:39Z</time>
      </trkpt>
      <trkpt lat="47.45434" lon="0.91792">
        <ele>156</ele>
        <time>2011-05-01T08:36:40Z</time>
      </trkpt>
      <trkpt lat="47.45431" lon="0.91799">
        <ele>156</ele>
        <time>2011-05-01T08:36:41Z</time>
      </trkpt>
      <trkpt lat="47.45429" lon="0.91807">
        <ele>156</ele>
        <time>2011-05-01T08:36:42Z</time>
      </trkpt>
      <trkpt lat="47.45426" lon="0.91812">
        <ele>156</ele>
        <time>2011-05-01T08:36:43Z</time>
      </trkpt>
      <trkpt lat="47.45424" lon="0.91819">
        <ele>155</ele>
        <time>2011-05-01T08:36:44Z</time>
      </trkpt>
      <trkpt lat="47.4542" lon="0.91826">
        <ele>155</ele>
        <time>2011-05-01T08:36:45Z</time>
      </trkpt>
      <trkpt lat="47.45417" lon="0.91833">
        <ele>155</ele>
        <time>2011-05-01T08:36:46Z</time>
      </trkpt>
      <trkpt lat="47.45414" lon="0.9184">
        <ele>155</ele>
        <time>2011-05-01T08:36:47Z</time>
      </trkpt>
      <trkpt lat="47.45411" lon="0.91847">
        <ele>155</ele>
        <time>2011-05-01T08:36:48Z</time>
      </trkpt>
      <trkpt lat="47.45408" lon="0.91854">
        <ele>155</ele>
        <time>2011-05-01T08:36:49Z</time>
      </trkpt>
      <trkpt lat="47.45405" lon="0.91862">
        <ele>154</ele>
        <time>2011-05-01T08:36:50Z</time>
      </trkpt>
      <trkpt lat="47.45402" lon="0.9187">
        <ele>153</ele>
        <time>2011-05-01T08:36:51Z</time>
      </trkpt>
      <trkpt lat="47.454" lon="0.91878">
        <ele>152</ele>
        <time>2011-05-01T08:36:52Z</time>
      </trkpt>
      <trkpt lat="47.45398" lon="0.91886">
        <ele>152</ele>
        <time>2011-05-01T08:36:53Z</time>
      </trkpt>
      <trkpt lat="47.45395" lon="0.91892">
        <ele>153</ele>
        <time>2011-05-01T08:36:54Z</time>
      </trkpt>
      <trkpt lat="47.45393" lon="0.91899">
        <ele>153</ele>
        <time>2011-05-01T08:36:55Z</time>
      </trkpt>
      <trkpt lat="47.4539" lon="0.91904">
        <ele>152</ele>
        <time>2011-05-01T08:36:56Z</time>
      </trkpt>
      <trkpt lat="47.45383" lon="0.91911">
        <ele>153</ele>
        <time>2011-05-01T08:36:58Z</time>
      </trkpt>
      <trkpt lat="47.45375" lon="0.91916">
        <ele>153</ele>
        <time>2011-05-01T08:37:00Z</time>
      </trkpt>
      <trkpt lat="47.45368" lon="0.91917">
        <ele>152</ele>
        <time>2011-05-01T08:37:02Z</time>
      </trkpt>
      <trkpt lat="47.45362" lon="0.91918">
        <ele>152</ele>
        <time>2011-05-01T08:37:04Z</time>
      </trkpt>
      <trkpt lat="47.45357" lon="0.91919">
        <ele>153</ele>
        <time>2011-05-01T08:37:06Z</time>
      </trkpt>
      <trkpt lat="47.45351" lon="0.9192">
        <ele>153</ele>
        <time>2011-05-01T08:37:08Z</time>
      </trkpt>
      <trkpt lat="47.45346" lon="0.91921">
        <ele>153</ele>
        <time>2011-05-01T08:37:10Z</time>
      </trkpt>
      <trkpt lat="47.4534" lon="0.91921">
        <ele>153</ele>
        <time>2011-05-01T08:37:13Z</time>
      </trkpt>
      <trkpt lat="47.45334" lon="0.91924">
        <ele>154</ele>
        <time>2011-05-01T08:37:15Z</time>
      </trkpt>
      <trkpt lat="47.45326" lon="0.91926">
        <ele>154</ele>
        <time>2011-05-01T08:37:17Z</time>
      </trkpt>
      <trkpt lat="47.45318" lon="0.91928">
        <ele>154</ele>
        <time>2011-05-01T08:37:19Z</time>
      </trkpt>
      <trkpt lat="47.45313" lon="0.91929">
        <ele>154</ele>
        <time>2011-05-01T08:37:20Z</time>
      </trkpt>
      <trkpt lat="47.45308" lon="0.9193">
        <ele>154</ele>
        <time>2011-05-01T08:37:21Z</time>
      </trkpt>
      <trkpt lat="47.45303" lon="0.91932">
        <ele>154</ele>
        <time>2011-05-01T08:37:22Z</time>
      </trkpt>
      <trkpt lat="47.45298" lon="0.91934">
        <ele>154</ele>
        <time>2011-05-01T08:37:23Z</time>
      </trkpt>
      <trkpt lat="47.4529" lon="0.91939">
        <ele>154</ele>
        <time>2011-05-01T08:37:25Z</time>
      </trkpt>
      <trkpt lat="47.45285" lon="0.91941">
        <ele>154</ele>
        <time>2011-05-01T08:37:26Z</time>
      </trkpt>
      <trkpt lat="47.45278" lon="0.91945">
        <ele>154</ele>
        <time>2011-05-01T08:37:28Z</time>
      </trkpt>
      <trkpt lat="47.45271" lon="0.91948">
        <ele>154</ele>
        <time>2011-05-01T08:37:30Z</time>
      </trkpt>
      <trkpt lat="47.45267" lon="0.91951">
        <ele>154</ele>
        <time>2011-05-01T08:37:32Z</time>
      </trkpt>
      <trkpt lat="47.45273" lon="0.9195">
        <ele>156</ele>
        <time>2011-05-01T08:38:02Z</time>
      </trkpt>
      <trkpt lat="47.4528" lon="0.91946">
        <ele>156</ele>
        <time>2011-05-01T08:38:04Z</time>
      </trkpt>
      <trkpt lat="47.45285" lon="0.91944">
        <ele>156</ele>
        <time>2011-05-01T08:38:05Z</time>
      </trkpt>
      <trkpt lat="47.45289" lon="0.91941">
        <ele>156</ele>
        <time>2011-05-01T08:38:06Z</time>
      </trkpt>
      <trkpt lat="47.45293" lon="0.91939">
        <ele>156</ele>
        <time>2011-05-01T08:38:07Z</time>
      </trkpt>
      <trkpt lat="47.45302" lon="0.91935">
        <ele>155</ele>
        <time>2011-05-01T08:38:09Z</time>
      </trkpt>
      <trkpt lat="47.45307" lon="0.91933">
        <ele>155</ele>
        <time>2011-05-01T08:38:10Z</time>
      </trkpt>
      <trkpt lat="47.45311" lon="0.91932">
        <ele>155</ele>
        <time>2011-05-01T08:38:11Z</time>
      </trkpt>
      <trkpt lat="47.45316" lon="0.9193">
        <ele>155</ele>
        <time>2011-05-01T08:38:12Z</time>
      </trkpt>
      <trkpt lat="47.45324" lon="0.91928">
        <ele>155</ele>
        <time>2011-05-01T08:38:14Z</time>
      </trkpt>
      <trkpt lat="47.45334" lon="0.91926">
        <ele>155</ele>
        <time>2011-05-01T08:38:16Z</time>
      </trkpt>
      <trkpt lat="47.45342" lon="0.91924">
        <ele>155</ele>
        <time>2011-05-01T08:38:18Z</time>
      </trkpt>
      <trkpt lat="47.45347" lon="0.91922">
        <ele>155</ele>
        <time>2011-05-01T08:38:19Z</time>
      </trkpt>
      <trkpt lat="47.45352" lon="0.91921">
        <ele>155</ele>
        <time>2011-05-01T08:38:20Z</time>
      </trkpt>
      <trkpt lat="47.45361" lon="0.91918">
        <ele>155</ele>
        <time>2011-05-01T08:38:22Z</time>
      </trkpt>
      <trkpt lat="47.45366" lon="0.91917">
        <ele>155</ele>
        <time>2011-05-01T08:38:23Z</time>
      </trkpt>
      <trkpt lat="47.45375" lon="0.91914">
        <ele>155</ele>
        <time>2011-05-01T08:38:25Z</time>
      </trkpt>
      <trkpt lat="47.4538" lon="0.91914">
        <ele>155</ele>
        <time>2011-05-01T08:38:26Z</time>
      </trkpt>
      <trkpt lat="47.45389" lon="0.9191">
        <ele>156</ele>
        <time>2011-05-01T08:38:28Z</time>
      </trkpt>
      <trkpt lat="47.45393" lon="0.91907">
        <ele>156</ele>
        <time>2011-05-01T08:38:29Z</time>
      </trkpt>
      <trkpt lat="47.45398" lon="0.91896">
        <ele>156</ele>
        <time>2011-05-01T08:38:31Z</time>
      </trkpt>
      <trkpt lat="47.45401" lon="0.9189">
        <ele>156</ele>
        <time>2011-05-01T08:38:32Z</time>
      </trkpt>
      <trkpt lat="47.45403" lon="0.91883">
        <ele>156</ele>
        <time>2011-05-01T08:38:33Z</time>
      </trkpt>
      <trkpt lat="47.45405" lon="0.91876">
        <ele>156</ele>
        <time>2011-05-01T08:38:34Z</time>
      </trkpt>
      <trkpt lat="47.45407" lon="0.9187">
        <ele>156</ele>
        <time>2011-05-01T08:38:35Z</time>
      </trkpt>
      <trkpt lat="47.45409" lon="0.91864">
        <ele>157</ele>
        <time>2011-05-01T08:38:36Z</time>
      </trkpt>
      <trkpt lat="47.45412" lon="0.91857">
        <ele>157</ele>
        <time>2011-05-01T08:38:37Z</time>
      </trkpt>
      <trkpt lat="47.45415" lon="0.91845">
        <ele>156</ele>
        <time>2011-05-01T08:38:39Z</time>
      </trkpt>
      <trkpt lat="47.45417" lon="0.91839">
        <ele>156</ele>
        <time>2011-05-01T08:38:40Z</time>
      </trkpt>
      <trkpt lat="47.4542" lon="0.91832">
        <ele>156</ele>
        <time>2011-05-01T08:38:41Z</time>
      </trkpt>
      <trkpt lat="47.45423" lon="0.91826">
        <ele>156</ele>
        <time>2011-05-01T08:38:42Z</time>
      </trkpt>
      <trkpt lat="47.45425" lon="0.9182">
        <ele>156</ele>
        <time>2011-05-01T08:38:43Z</time>
      </trkpt>
      <trkpt lat="47.45427" lon="0.91813">
        <ele>156</ele>
        <time>2011-05-01T08:38:44Z</time>
      </trkpt>
      <trkpt lat="47.4543" lon="0.91807">
        <ele>156</ele>
        <time>2011-05-01T08:38:45Z</time>
      </trkpt>
      <trkpt lat="47.45432" lon="0.91801">
        <ele>156</ele>
        <time>2011-05-01T08:38:46Z</time>
      </trkpt>
      <trkpt lat="47.45434" lon="0.91794">
        <ele>156</ele>
        <time>2011-05-01T08:38:47Z</time>
      </trkpt>
      <trkpt lat="47.45437" lon="0.91787">
        <ele>156</ele>
        <time>2011-05-01T08:38:48Z</time>
      </trkpt>
      <trkpt lat="47.4544" lon="0.9178">
        <ele>156</ele>
        <time>2011-05-01T08:38:49Z</time>
      </trkpt>
      <trkpt lat="47.45442" lon="0.91773">
        <ele>156</ele>
        <time>2011-05-01T08:38:50Z</time>
      </trkpt>
      <trkpt lat="47.45445" lon="0.91766">
        <ele>156</ele>
        <time>2011-05-01T08:38:51Z</time>
      </trkpt>
      <trkpt lat="47.45447" lon="0.91759">
        <ele>156</ele>
        <time>2011-05-01T08:38:52Z</time>
      </trkpt>
      <trkpt lat="47.45449" lon="0.91752">
        <ele>156</ele>
        <time>2011-05-01T08:38:53Z</time>
      </trkpt>
      <trkpt lat="47.45452" lon="0.91745">
        <ele>156</ele>
        <time>2011-05-01T08:38:54Z</time>
      </trkpt>
      <trkpt lat="47.45454" lon="0.91738">
        <ele>156</ele>
        <time>2011-05-01T08:38:55Z</time>
      </trkpt>
      <trkpt lat="47.45454" lon="0.9173">
        <ele>155</ele>
        <time>2011-05-01T08:38:56Z</time>
      </trkpt>
      <trkpt lat="47.45456" lon="0.91723">
        <ele>155</ele>
        <time>2011-05-01T08:38:57Z</time>
      </trkpt>
      <trkpt lat="47.45459" lon="0.91716">
        <ele>155</ele>
        <time>2011-05-01T08:38:58Z</time>
      </trkpt>
      <trkpt lat="47.45462" lon="0.91711">
        <ele>155</ele>
        <time>2011-05-01T08:38:59Z</time>
      </trkpt>
      <trkpt lat="47.45465" lon="0.91705">
        <ele>155</ele>
        <time>2011-05-01T08:39:00Z</time>
      </trkpt>
      <trkpt lat="47.45467" lon="0.91699">
        <ele>154</ele>
        <time>2011-05-01T08:39:01Z</time>
      </trkpt>
      <trkpt lat="47.4547" lon="0.91692">
        <ele>155</ele>
        <time>2011-05-01T08:39:02Z</time>
      </trkpt>
      <trkpt lat="47.45475" lon="0.91687">
        <ele>154</ele>
        <time>2011-05-01T08:39:03Z</time>
      </trkpt>
      <trkpt lat="47.4548" lon="0.91681">
        <ele>155</ele>
        <time>2011-05-01T08:39:04Z</time>
      </trkpt>
      <trkpt lat="47.45485" lon="0.91676">
        <ele>155</ele>
        <time>2011-05-01T08:39:05Z</time>
      </trkpt>
      <trkpt lat="47.45489" lon="0.9167">
        <ele>155</ele>
        <time>2011-05-01T08:39:06Z</time>
      </trkpt>
      <trkpt lat="47.45493" lon="0.91667">
        <ele>155</ele>
        <time>2011-05-01T08:39:07Z</time>
      </trkpt>
      <trkpt lat="47.45498" lon="0.91661">
        <ele>155</ele>
        <time>2011-05-01T08:39:08Z</time>
      </trkpt>
      <trkpt lat="47.45503" lon="0.91656">
        <ele>155</ele>
        <time>2011-05-01T08:39:09Z</time>
      </trkpt>
      <trkpt lat="47.45508" lon="0.9165">
        <ele>155</ele>
        <time>2011-05-01T08:39:10Z</time>
      </trkpt>
      <trkpt lat="47.45513" lon="0.91644">
        <ele>156</ele>
        <time>2011-05-01T08:39:11Z</time>
      </trkpt>
      <trkpt lat="47.45518" lon="0.91638">
        <ele>156</ele>
        <time>2011-05-01T08:39:12Z</time>
      </trkpt>
      <trkpt lat="47.45521" lon="0.91632">
        <ele>156</ele>
        <time>2011-05-01T08:39:13Z</time>
      </trkpt>
      <trkpt lat="47.45526" lon="0.91626">
        <ele>156</ele>
        <time>2011-05-01T08:39:14Z</time>
      </trkpt>
      <trkpt lat="47.45531" lon="0.9162">
        <ele>157</ele>
        <time>2011-05-01T08:39:15Z</time>
      </trkpt>
      <trkpt lat="47.45535" lon="0.91615">
        <ele>158</ele>
        <time>2011-05-01T08:39:16Z</time>
      </trkpt>
      <trkpt lat="47.45539" lon="0.91608">
        <ele>158</ele>
        <time>2011-05-01T08:39:17Z</time>
      </trkpt>
      <trkpt lat="47.45543" lon="0.91602">
        <ele>158</ele>
        <time>2011-05-01T08:39:18Z</time>
      </trkpt>
      <trkpt lat="47.45546" lon="0.91596">
        <ele>158</ele>
        <time>2011-05-01T08:39:19Z</time>
      </trkpt>
      <trkpt lat="47.45551" lon="0.9159">
        <ele>158</ele>
        <time>2011-05-01T08:39:20Z</time>
      </trkpt>
      <trkpt lat="47.45556" lon="0.91584">
        <ele>158</ele>
        <time>2011-05-01T08:39:21Z</time>
      </trkpt>
      <trkpt lat="47.45559" lon="0.91578">
        <ele>157</ele>
        <time>2011-05-01T08:39:22Z</time>
      </trkpt>
      <trkpt lat="47.45563" lon="0.91573">
        <ele>157</ele>
        <time>2011-05-01T08:39:23Z</time>
      </trkpt>
      <trkpt lat="47.45567" lon="0.91567">
        <ele>157</ele>
        <time>2011-05-01T08:39:24Z</time>
      </trkpt>
      <trkpt lat="47.45571" lon="0.91562">
        <ele>157</ele>
        <time>2011-05-01T08:39:25Z</time>
      </trkpt>
      <trkpt lat="47.45574" lon="0.91556">
        <ele>157</ele>
        <time>2011-05-01T08:39:26Z</time>
      </trkpt>
      <trkpt lat="47.45578" lon="0.9155">
        <ele>157</ele>
        <time>2011-05-01T08:39:27Z</time>
      </trkpt>
      <trkpt lat="47.4558" lon="0.91544">
        <ele>157</ele>
        <time>2011-05-01T08:39:28Z</time>
      </trkpt>
      <trkpt lat="47.45584" lon="0.91538">
        <ele>157</ele>
        <time>2011-05-01T08:39:29Z</time>
      </trkpt>
      <trkpt lat="47.45587" lon="0.91534">
        <ele>157</ele>
        <time>2011-05-01T08:39:30Z</time>
      </trkpt>
      <trkpt lat="47.45592" lon="0.91522">
        <ele>156</ele>
        <time>2011-05-01T08:39:32Z</time>
      </trkpt>
      <trkpt lat="47.45589" lon="0.91513">
        <ele>157</ele>
        <time>2011-05-01T08:39:33Z</time>
      </trkpt>
      <trkpt lat="47.45585" lon="0.91503">
        <ele>157</ele>
        <time>2011-05-01T08:39:35Z</time>
      </trkpt>
      <trkpt lat="47.45576" lon="0.91498">
        <ele>157</ele>
        <time>2011-05-01T08:39:37Z</time>
      </trkpt>
      <trkpt lat="47.45566" lon="0.91492">
        <ele>157</ele>
        <time>2011-05-01T08:39:39Z</time>
      </trkpt>
      <trkpt lat="47.45561" lon="0.91489">
        <ele>157</ele>
        <time>2011-05-01T08:39:40Z</time>
      </trkpt>
      <trkpt lat="47.45556" lon="0.91485">
        <ele>157</ele>
        <time>2011-05-01T08:39:41Z</time>
      </trkpt>
      <trkpt lat="47.45551" lon="0.9148">
        <ele>157</ele>
        <time>2011-05-01T08:39:42Z</time>
      </trkpt>
      <trkpt lat="47.45546" lon="0.91475">
        <ele>157</ele>
        <time>2011-05-01T08:39:43Z</time>
      </trkpt>
      <trkpt lat="47.4554" lon="0.91471">
        <ele>157</ele>
        <time>2011-05-01T08:39:44Z</time>
      </trkpt>
      <trkpt lat="47.45535" lon="0.91468">
        <ele>158</ele>
        <time>2011-05-01T08:39:45Z</time>
      </trkpt>
      <trkpt lat="47.4553" lon="0.91464">
        <ele>158</ele>
        <time>2011-05-01T08:39:46Z</time>
      </trkpt>
      <trkpt lat="47.45524" lon="0.91459">
        <ele>157</ele>
        <time>2011-05-01T08:39:47Z</time>
      </trkpt>
      <trkpt lat="47.45518" lon="0.91454">
        <ele>158</ele>
        <time>2011-05-01T08:39:48Z</time>
      </trkpt>
      <trkpt lat="47.45512" lon="0.91449">
        <ele>158</ele>
        <time>2011-05-01T08:39:49Z</time>
      </trkpt>
      <trkpt lat="47.45506" lon="0.91443">
        <ele>158</ele>
        <time>2011-05-01T08:39:50Z</time>
      </trkpt>
      <trkpt lat="47.45499" lon="0.91438">
        <ele>157</ele>
        <time>2011-05-01T08:39:51Z</time>
      </trkpt>
      <trkpt lat="47.45493" lon="0.91433">
        <ele>157</ele>
        <time>2011-05-01T08:39:52Z</time>
      </trkpt>
      <trkpt lat="47.45488" lon="0.91428">
        <ele>157</ele>
        <time>2011-05-01T08:39:53Z</time>
      </trkpt>
      <trkpt lat="47.45481" lon="0.91422">
        <ele>157</ele>
        <time>2011-05-01T08:39:54Z</time>
      </trkpt>
      <trkpt lat="47.45475" lon="0.91417">
        <ele>157</ele>
        <time>2011-05-01T08:39:55Z</time>
      </trkpt>
      <trkpt lat="47.45468" lon="0.91411">
        <ele>157</ele>
        <time>2011-05-01T08:39:56Z</time>
      </trkpt>
      <trkpt lat="47.45462" lon="0.91406">
        <ele>156</ele>
        <time>2011-05-01T08:39:57Z</time>
      </trkpt>
      <trkpt lat="47.45455" lon="0.914">
        <ele>156</ele>
        <time>2011-05-01T08:39:58Z</time>
      </trkpt>
      <trkpt lat="47.45449" lon="0.91394">
        <ele>156</ele>
        <time>2011-05-01T08:39:59Z</time>
      </trkpt>
      <trkpt lat="47.45443" lon="0.91388">
        <ele>156</ele>
        <time>2011-05-01T08:40:00Z</time>
      </trkpt>
      <trkpt lat="47.45436" lon="0.91381">
        <ele>156</ele>
        <time>2011-05-01T08:40:01Z</time>
      </trkpt>
      <trkpt lat="47.4543" lon="0.91375">
        <ele>157</ele>
        <time>2011-05-01T08:40:02Z</time>
      </trkpt>
      <trkpt lat="47.45423" lon="0.91369">
        <ele>157</ele>
        <time>2011-05-01T08:40:03Z</time>
      </trkpt>
      <trkpt lat="47.45418" lon="0.91365">
        <ele>157</ele>
        <time>2011-05-01T08:40:04Z</time>
      </trkpt>
      <trkpt lat="47.45414" lon="0.9136">
        <ele>157</ele>
        <time>2011-05-01T08:40:05Z</time>
      </trkpt>
      <trkpt lat="47.45409" lon="0.91356">
        <ele>157</ele>
        <time>2011-05-01T08:40:06Z</time>
      </trkpt>
      <trkpt lat="47.45405" lon="0.91351">
        <ele>157</ele>
        <time>2011-05-01T08:40:07Z</time>
      </trkpt>
      <trkpt lat="47.454" lon="0.91347">
        <ele>156</ele>
        <time>2011-05-01T08:40:08Z</time>
      </trkpt>
      <trkpt lat="47.45395" lon="0.91343">
        <ele>156</ele>
        <time>2011-05-01T08:40:09Z</time>
      </trkpt>
      <trkpt lat="47.45389" lon="0.91338">
        <ele>156</ele>
        <time>2011-05-01T08:40:10Z</time>
      </trkpt>
      <trkpt lat="47.45384" lon="0.91336">
        <ele>156</ele>
        <time>2011-05-01T08:40:11Z</time>
      </trkpt>
      <trkpt lat="47.45377" lon="0.91331">
        <ele>156</ele>
        <time>2011-05-01T08:40:12Z</time>
      </trkpt>
      <trkpt lat="47.45371" lon="0.91325">
        <ele>156</ele>
        <time>2011-05-01T08:40:13Z</time>
      </trkpt>
      <trkpt lat="47.45364" lon="0.91318">
        <ele>155</ele>
        <time>2011-05-01T08:40:14Z</time>
      </trkpt>
      <trkpt lat="47.45352" lon="0.91307">
        <ele>155</ele>
        <time>2011-05-01T08:40:16Z</time>
      </trkpt>
      <trkpt lat="47.45346" lon="0.91302">
        <ele>155</ele>
        <time>2011-05-01T08:40:17Z</time>
      </trkpt>
      <trkpt lat="47.4534" lon="0.91296">
        <ele>155</ele>
        <time>2011-05-01T08:40:18Z</time>
      </trkpt>
      <trkpt lat="47.45335" lon="0.9129">
        <ele>155</ele>
        <time>2011-05-01T08:40:19Z</time>
      </trkpt>
      <trkpt lat="47.4533" lon="0.91286">
        <ele>154</ele>
        <time>2011-05-01T08:40:20Z</time>
      </trkpt>
      <trkpt lat="47.45324" lon="0.91279">
        <ele>154</ele>
        <time>2011-05-01T08:40:21Z</time>
      </trkpt>
      <trkpt lat="47.45318" lon="0.91276">
        <ele>154</ele>
        <time>2011-05-01T08:40:22Z</time>
      </trkpt>
      <trkpt lat="47.45313" lon="0.91272">
        <ele>154</ele>
        <time>2011-05-01T08:40:23Z</time>
      </trkpt>
      <trkpt lat="47.45308" lon="0.91268">
        <ele>153</ele>
        <time>2011-05-01T08:40:24Z</time>
      </trkpt>
      <trkpt lat="47.45302" lon="0.91264">
        <ele>153</ele>
        <time>2011-05-01T08:40:25Z</time>
      </trkpt>
      <trkpt lat="47.45296" lon="0.9126">
        <ele>153</ele>
        <time>2011-05-01T08:40:26Z</time>
      </trkpt>
      <trkpt lat="47.4529" lon="0.91256">
        <ele>153</ele>
        <time>2011-05-01T08:40:27Z</time>
      </trkpt>
      <trkpt lat="47.45284" lon="0.9125">
        <ele>152</ele>
        <time>2011-05-01T08:40:28Z</time>
      </trkpt>
      <trkpt lat="47.45278" lon="0.91244">
        <ele>152</ele>
        <time>2011-05-01T08:40:29Z</time>
      </trkpt>
      <trkpt lat="47.45272" lon="0.91237">
        <ele>152</ele>
        <time>2011-05-01T08:40:30Z</time>
      </trkpt>
      <trkpt lat="47.45266" lon="0.91232">
        <ele>152</ele>
        <time>2011-05-01T08:40:31Z</time>
      </trkpt>
      <trkpt lat="47.45261" lon="0.91228">
        <ele>152</ele>
        <time>2011-05-01T08:40:32Z</time>
      </trkpt>
      <trkpt lat="47.45255" lon="0.91224">
        <ele>152</ele>
        <time>2011-05-01T08:40:33Z</time>
      </trkpt>
      <trkpt lat="47.4525" lon="0.9122">
        <ele>152</ele>
        <time>2011-05-01T08:40:34Z</time>
      </trkpt>
      <trkpt lat="47.45245" lon="0.91218">
        <ele>153</ele>
        <time>2011-05-01T08:40:35Z</time>
      </trkpt>
      <trkpt lat="47.4524" lon="0.91215">
        <ele>153</ele>
        <time>2011-05-01T08:40:36Z</time>
      </trkpt>
      <trkpt lat="47.45235" lon="0.91212">
        <ele>152</ele>
        <time>2011-05-01T08:40:37Z</time>
      </trkpt>
      <trkpt lat="47.4523" lon="0.91211">
        <ele>152</ele>
        <time>2011-05-01T08:40:38Z</time>
      </trkpt>
      <trkpt lat="47.45225" lon="0.91207">
        <ele>152</ele>
        <time>2011-05-01T08:40:39Z</time>
      </trkpt>
      <trkpt lat="47.45219" lon="0.91205">
        <ele>152</ele>
        <time>2011-05-01T08:40:40Z</time>
      </trkpt>
      <trkpt lat="47.45213" lon="0.91202">
        <ele>152</ele>
        <time>2011-05-01T08:40:41Z</time>
      </trkpt>
      <trkpt lat="47.45208" lon="0.91199">
        <ele>152</ele>
        <time>2011-05-01T08:40:42Z</time>
      </trkpt>
      <trkpt lat="47.45202" lon="0.91196">
        <ele>152</ele>
        <time>2011-05-01T08:40:43Z</time>
      </trkpt>
      <trkpt lat="47.45195" lon="0.91192">
        <ele>152</ele>
        <time>2011-05-01T08:40:44Z</time>
      </trkpt>
      <trkpt lat="47.45188" lon="0.9119">
        <ele>152</ele>
        <time>2011-05-01T08:40:45Z</time>
      </trkpt>
      <trkpt lat="47.45182" lon="0.91186">
        <ele>153</ele>
        <time>2011-05-01T08:40:46Z</time>
      </trkpt>
      <trkpt lat="47.45175" lon="0.91183">
        <ele>153</ele>
        <time>2011-05-01T08:40:47Z</time>
      </trkpt>
      <trkpt lat="47.45167" lon="0.9118">
        <ele>153</ele>
        <time>2011-05-01T08:40:48Z</time>
      </trkpt>
      <trkpt lat="47.4516" lon="0.91176">
        <ele>153</ele>
        <time>2011-05-01T08:40:49Z</time>
      </trkpt>
      <trkpt lat="47.45153" lon="0.91172">
        <ele>153</ele>
        <time>2011-05-01T08:40:50Z</time>
      </trkpt>
      <trkpt lat="47.45147" lon="0.91167">
        <ele>153</ele>
        <time>2011-05-01T08:40:51Z</time>
      </trkpt>
      <trkpt lat="47.45139" lon="0.9116">
        <ele>153</ele>
        <time>2011-05-01T08:40:52Z</time>
      </trkpt>
      <trkpt lat="47.45133" lon="0.91153">
        <ele>153</ele>
        <time>2011-05-01T08:40:53Z</time>
      </trkpt>
      <trkpt lat="47.45128" lon="0.91146">
        <ele>153</ele>
        <time>2011-05-01T08:40:54Z</time>
      </trkpt>
      <trkpt lat="47.45122" lon="0.91141">
        <ele>153</ele>
        <time>2011-05-01T08:40:55Z</time>
      </trkpt>
      <trkpt lat="47.45117" lon="0.91133">
        <ele>153</ele>
        <time>2011-05-01T08:40:56Z</time>
      </trkpt>
      <trkpt lat="47.45113" lon="0.91127">
        <ele>153</ele>
        <time>2011-05-01T08:40:57Z</time>
      </trkpt>
      <trkpt lat="47.45108" lon="0.9112">
        <ele>153</ele>
        <time>2011-05-01T08:40:58Z</time>
      </trkpt>
      <trkpt lat="47.45103" lon="0.91111">
        <ele>153</ele>
        <time>2011-05-01T08:40:59Z</time>
      </trkpt>
      <trkpt lat="47.45098" lon="0.91103">
        <ele>153</ele>
        <time>2011-05-01T08:41:00Z</time>
      </trkpt>
      <trkpt lat="47.45093" lon="0.91096">
        <ele>153</ele>
        <time>2011-05-01T08:41:01Z</time>
      </trkpt>
      <trkpt lat="47.45087" lon="0.91088">
        <ele>153</ele>
        <time>2011-05-01T08:41:02Z</time>
      </trkpt>
      <trkpt lat="47.45082" lon="0.91081">
        <ele>153</ele>
        <time>2011-05-01T08:41:03Z</time>
      </trkpt>
      <trkpt lat="47.45077" lon="0.91076">
        <ele>153</ele>
        <time>2011-05-01T08:41:04Z</time>
      </trkpt>
      <trkpt lat="47.45072" lon="0.91071">
        <ele>153</ele>
        <time>2011-05-01T08:41:05Z</time>
      </trkpt>
      <trkpt lat="47.45065" lon="0.91065">
        <ele>153</ele>
        <time>2011-05-01T08:41:06Z</time>
      </trkpt>
      <trkpt lat="47.45059" lon="0.91059">
        <ele>154</ele>
        <time>2011-05-01T08:41:07Z</time>
      </trkpt>
      <trkpt lat="47.45054" lon="0.91054">
        <ele>154</ele>
        <time>2011-05-01T08:41:08Z</time>
      </trkpt>
      <trkpt lat="47.45048" lon="0.91049">
        <ele>154</ele>
        <time>2011-05-01T08:41:09Z</time>
      </trkpt>
      <trkpt lat="47.45043" lon="0.91044">
        <ele>154</ele>
        <time>2011-05-01T08:41:10Z</time>
      </trkpt>
      <trkpt lat="47.45038" lon="0.91038">
        <ele>154</ele>
        <time>2011-05-01T08:41:11Z</time>
      </trkpt>
      <trkpt lat="47.4503" lon="0.9103">
        <ele>155</ele>
        <time>2011-05-01T08:41:13Z</time>
      </trkpt>
      <trkpt lat="47.45023" lon="0.9102">
        <ele>154</ele>
        <time>2011-05-01T08:41:15Z</time>
      </trkpt>
      <trkpt lat="47.45019" lon="0.91015">
        <ele>154</ele>
        <time>2011-05-01T08:41:16Z</time>
      </trkpt>
      <trkpt lat="47.45013" lon="0.91011">
        <ele>154</ele>
        <time>2011-05-01T08:41:17Z</time>
      </trkpt>
      <trkpt lat="47.45008" lon="0.91007">
        <ele>154</ele>
        <time>2011-05-01T08:41:18Z</time>
      </trkpt>
      <trkpt lat="47.45004" lon="0.91004">
        <ele>154</ele>
        <time>2011-05-01T08:41:19Z</time>
      </trkpt>
      <trkpt lat="47.44998" lon="0.91">
        <ele>154</ele>
        <time>2011-05-01T08:41:20Z</time>
      </trkpt>
      <trkpt lat="47.44991" lon="0.90996">
        <ele>153</ele>
        <time>2011-05-01T08:41:21Z</time>
      </trkpt>
      <trkpt lat="47.44985" lon="0.90991">
        <ele>153</ele>
        <time>2011-05-01T08:41:22Z</time>
      </trkpt>
      <trkpt lat="47.44981" lon="0.90988">
        <ele>154</ele>
        <time>2011-05-01T08:41:23Z</time>
      </trkpt>
      <trkpt lat="47.44975" lon="0.90983">
        <ele>154</ele>
        <time>2011-05-01T08:41:24Z</time>
      </trkpt>
      <trkpt lat="47.44971" lon="0.90978">
        <ele>154</ele>
        <time>2011-05-01T08:41:25Z</time>
      </trkpt>
      <trkpt lat="47.44966" lon="0.90975">
        <ele>154</ele>
        <time>2011-05-01T08:41:26Z</time>
      </trkpt>
      <trkpt lat="47.44961" lon="0.9097">
        <ele>155</ele>
        <time>2011-05-01T08:41:27Z</time>
      </trkpt>
      <trkpt lat="47.44956" lon="0.90966">
        <ele>155</ele>
        <time>2011-05-01T08:41:28Z</time>
      </trkpt>
      <trkpt lat="47.4495" lon="0.90963">
        <ele>155</ele>
        <time>2011-05-01T08:41:29Z</time>
      </trkpt>
      <trkpt lat="47.44944" lon="0.90959">
        <ele>155</ele>
        <time>2011-05-01T08:41:30Z</time>
      </trkpt>
      <trkpt lat="47.44939" lon="0.90955">
        <ele>155</ele>
        <time>2011-05-01T08:41:31Z</time>
      </trkpt>
      <trkpt lat="47.44931" lon="0.90949">
        <ele>155</ele>
        <time>2011-05-01T08:41:32Z</time>
      </trkpt>
      <trkpt lat="47.44926" lon="0.90945">
        <ele>155</ele>
        <time>2011-05-01T08:41:33Z</time>
      </trkpt>
      <trkpt lat="47.44922" lon="0.90942">
        <ele>155</ele>
        <time>2011-05-01T08:41:34Z</time>
      </trkpt>
      <trkpt lat="47.44917" lon="0.90937">
        <ele>155</ele>
        <time>2011-05-01T08:41:35Z</time>
      </trkpt>
      <trkpt lat="47.44911" lon="0.90933">
        <ele>155</ele>
        <time>2011-05-01T08:41:36Z</time>
      </trkpt>
      <trkpt lat="47.44907" lon="0.9093">
        <ele>155</ele>
        <time>2011-05-01T08:41:37Z</time>
      </trkpt>
      <trkpt lat="47.44901" lon="0.90922">
        <ele>155</ele>
        <time>2011-05-01T08:41:39Z</time>
      </trkpt>
      <trkpt lat="47.44897" lon="0.90918">
        <ele>156</ele>
        <time>2011-05-01T08:41:40Z</time>
      </trkpt>
      <trkpt lat="47.44892" lon="0.90916">
        <ele>156</ele>
        <time>2011-05-01T08:41:41Z</time>
      </trkpt>
      <trkpt lat="47.44888" lon="0.90911">
        <ele>157</ele>
        <time>2011-05-01T08:41:42Z</time>
      </trkpt>
      <trkpt lat="47.44884" lon="0.90909">
        <ele>157</ele>
        <time>2011-05-01T08:41:43Z</time>
      </trkpt>
      <trkpt lat="47.44878" lon="0.90905">
        <ele>157</ele>
        <time>2011-05-01T08:41:44Z</time>
      </trkpt>
      <trkpt lat="47.44873" lon="0.909">
        <ele>157</ele>
        <time>2011-05-01T08:41:45Z</time>
      </trkpt>
      <trkpt lat="47.44869" lon="0.90897">
        <ele>157</ele>
        <time>2011-05-01T08:41:46Z</time>
      </trkpt>
      <trkpt lat="47.44863" lon="0.90893">
        <ele>158</ele>
        <time>2011-05-01T08:41:47Z</time>
      </trkpt>
      <trkpt lat="47.44857" lon="0.90889">
        <ele>158</ele>
        <time>2011-05-01T08:41:48Z</time>
      </trkpt>
      <trkpt lat="47.44853" lon="0.90885">
        <ele>158</ele>
        <time>2011-05-01T08:41:49Z</time>
      </trkpt>
      <trkpt lat="47.44848" lon="0.90881">
        <ele>158</ele>
        <time>2011-05-01T08:41:50Z</time>
      </trkpt>
      <trkpt lat="47.44841" lon="0.90875">
        <ele>159</ele>
        <time>2011-05-01T08:41:52Z</time>
      </trkpt>
      <trkpt lat="47.44834" lon="0.90868">
        <ele>159</ele>
        <time>2011-05-01T08:41:54Z</time>
      </trkpt>
      <trkpt lat="47.44827" lon="0.9086">
        <ele>159</ele>
        <time>2011-05-01T08:41:56Z</time>
      </trkpt>
      <trkpt lat="47.44822" lon="0.90857">
        <ele>159</ele>
        <time>2011-05-01T08:41:57Z</time>
      </trkpt>
      <trkpt lat="47.44815" lon="0.90852">
        <ele>159</ele>
        <time>2011-05-01T08:41:59Z</time>
      </trkpt>
      <trkpt lat="47.44807" lon="0.90847">
        <ele>160</ele>
        <time>2011-05-01T08:42:01Z</time>
      </trkpt>
      <trkpt lat="47.44804" lon="0.90842">
        <ele>161</ele>
        <time>2011-05-01T08:42:02Z</time>
      </trkpt>
      <trkpt lat="47.44799" lon="0.9084">
        <ele>161</ele>
        <time>2011-05-01T08:42:03Z</time>
      </trkpt>
      <trkpt lat="47.44796" lon="0.90835">
        <ele>161</ele>
        <time>2011-05-01T08:42:04Z</time>
      </trkpt>
      <trkpt lat="47.4479" lon="0.90828">
        <ele>162</ele>
        <time>2011-05-01T08:42:06Z</time>
      </trkpt>
      <trkpt lat="47.44783" lon="0.90824">
        <ele>161</ele>
        <time>2011-05-01T08:42:08Z</time>
      </trkpt>
      <trkpt lat="47.44778" lon="0.90821">
        <ele>162</ele>
        <time>2011-05-01T08:42:09Z</time>
      </trkpt>
      <trkpt lat="47.44773" lon="0.90817">
        <ele>163</ele>
        <time>2011-05-01T08:42:11Z</time>
      </trkpt>
      <trkpt lat="47.44764" lon="0.90813">
        <ele>164</ele>
        <time>2011-05-01T08:42:13Z</time>
      </trkpt>
      <trkpt lat="47.44753" lon="0.90804">
        <ele>165</ele>
        <time>2011-05-01T08:42:16Z</time>
      </trkpt>
      <trkpt lat="47.44749" lon="0.90801">
        <ele>165</ele>
        <time>2011-05-01T08:42:17Z</time>
      </trkpt>
      <trkpt lat="47.44744" lon="0.90797">
        <ele>165</ele>
        <time>2011-05-01T08:42:18Z</time>
      </trkpt>
      <trkpt lat="47.4474" lon="0.90793">
        <ele>165</ele>
        <time>2011-05-01T08:42:19Z</time>
      </trkpt>
      <trkpt lat="47.44733" lon="0.90788">
        <ele>165</ele>
        <time>2011-05-01T08:42:21Z</time>
      </trkpt>
      <trkpt lat="47.44727" lon="0.90784">
        <ele>164</ele>
        <time>2011-05-01T08:42:22Z</time>
      </trkpt>
      <trkpt lat="47.44719" lon="0.9078">
        <ele>165</ele>
        <time>2011-05-01T08:42:24Z</time>
      </trkpt>
      <trkpt lat="47.44714" lon="0.90776">
        <ele>165</ele>
        <time>2011-05-01T08:42:25Z</time>
      </trkpt>
      <trkpt lat="47.44708" lon="0.90772">
        <ele>165</ele>
        <time>2011-05-01T08:42:26Z</time>
      </trkpt>
      <trkpt lat="47.44699" lon="0.90768">
        <ele>165</ele>
        <time>2011-05-01T08:42:28Z</time>
      </trkpt>
      <trkpt lat="47.44694" lon="0.90762">
        <ele>165</ele>
        <time>2011-05-01T08:42:29Z</time>
      </trkpt>
      <trkpt lat="47.44689" lon="0.90758">
        <ele>165</ele>
        <time>2011-05-01T08:42:30Z</time>
      </trkpt>
      <trkpt lat="47.44683" lon="0.90755">
        <ele>164</ele>
        <time>2011-05-01T08:42:31Z</time>
      </trkpt>
      <trkpt lat="47.44675" lon="0.90748">
        <ele>165</ele>
        <time>2011-05-01T08:42:33Z</time>
      </trkpt>
      <trkpt lat="47.44671" lon="0.90744">
        <ele>165</ele>
        <time>2011-05-01T08:42:34Z</time>
      </trkpt>
      <trkpt lat="47.44666" lon="0.90741">
        <ele>165</ele>
        <time>2011-05-01T08:42:35Z</time>
      </trkpt>
      <trkpt lat="47.44658" lon="0.90737">
        <ele>165</ele>
        <time>2011-05-01T08:42:37Z</time>
      </trkpt>
      <trkpt lat="47.44654" lon="0.90733">
        <ele>166</ele>
        <time>2011-05-01T08:42:38Z</time>
      </trkpt>
      <trkpt lat="47.44647" lon="0.90727">
        <ele>167</ele>
        <time>2011-05-01T08:42:40Z</time>
      </trkpt>
      <trkpt lat="47.44643" lon="0.90724">
        <ele>167</ele>
        <time>2011-05-01T08:42:41Z</time>
      </trkpt>
      <trkpt lat="47.44634" lon="0.90719">
        <ele>166</ele>
        <time>2011-05-01T08:42:43Z</time>
      </trkpt>
      <trkpt lat="47.44625" lon="0.90713">
        <ele>166</ele>
        <time>2011-05-01T08:42:45Z</time>
      </trkpt>
      <trkpt lat="47.4462" lon="0.9071">
        <ele>166</ele>
        <time>2011-05-01T08:42:46Z</time>
      </trkpt>
      <trkpt lat="47.44615" lon="0.90708">
        <ele>165</ele>
        <time>2011-05-01T08:42:47Z</time>
      </trkpt>
      <trkpt lat="47.44608" lon="0.90702">
        <ele>166</ele>
        <time>2011-05-01T08:42:49Z</time>
      </trkpt>
      <trkpt lat="47.44604" lon="0.90697">
        <ele>166</ele>
        <time>2011-05-01T08:42:50Z</time>
      </trkpt>
      <trkpt lat="47.44599" lon="0.90694">
        <ele>166</ele>
        <time>2011-05-01T08:42:51Z</time>
      </trkpt>
      <trkpt lat="47.4459" lon="0.90688">
        <ele>167</ele>
        <time>2011-05-01T08:42:53Z</time>
      </trkpt>
      <trkpt lat="47.44583" lon="0.90685">
        <ele>166</ele>
        <time>2011-05-01T08:42:54Z</time>
      </trkpt>
      <trkpt lat="47.44577" lon="0.90681">
        <ele>167</ele>
        <time>2011-05-01T08:42:55Z</time>
      </trkpt>
      <trkpt lat="47.44573" lon="0.90676">
        <ele>167</ele>
        <time>2011-05-01T08:42:56Z</time>
      </trkpt>
      <trkpt lat="47.44567" lon="0.90674">
        <ele>166</ele>
        <time>2011-05-01T08:42:57Z</time>
      </trkpt>
      <trkpt lat="47.4456" lon="0.90669">
        <ele>166</ele>
        <time>2011-05-01T08:42:58Z</time>
      </trkpt>
      <trkpt lat="47.44555" lon="0.90666">
        <ele>166</ele>
        <time>2011-05-01T08:42:59Z</time>
      </trkpt>
      <trkpt lat="47.44547" lon="0.90661">
        <ele>165</ele>
        <time>2011-05-01T08:43:00Z</time>
      </trkpt>
      <trkpt lat="47.44541" lon="0.90657">
        <ele>164</ele>
        <time>2011-05-01T08:43:01Z</time>
      </trkpt>
      <trkpt lat="47.44534" lon="0.90653">
        <ele>164</ele>
        <time>2011-05-01T08:43:02Z</time>
      </trkpt>
      <trkpt lat="47.44528" lon="0.90648">
        <ele>163</ele>
        <time>2011-05-01T08:43:03Z</time>
      </trkpt>
      <trkpt lat="47.44521" lon="0.90645">
        <ele>163</ele>
        <time>2011-05-01T08:43:04Z</time>
      </trkpt>
      <trkpt lat="47.44516" lon="0.90641">
        <ele>164</ele>
        <time>2011-05-01T08:43:05Z</time>
      </trkpt>
      <trkpt lat="47.4451" lon="0.90637">
        <ele>163</ele>
        <time>2011-05-01T08:43:06Z</time>
      </trkpt>
      <trkpt lat="47.44504" lon="0.90634">
        <ele>163</ele>
        <time>2011-05-01T08:43:07Z</time>
      </trkpt>
      <trkpt lat="47.445" lon="0.9063">
        <ele>163</ele>
        <time>2011-05-01T08:43:08Z</time>
      </trkpt>
      <trkpt lat="47.44495" lon="0.90625">
        <ele>163</ele>
        <time>2011-05-01T08:43:09Z</time>
      </trkpt>
      <trkpt lat="47.44489" lon="0.90623">
        <ele>163</ele>
        <time>2011-05-01T08:43:10Z</time>
      </trkpt>
      <trkpt lat="47.44483" lon="0.9062">
        <ele>163</ele>
        <time>2011-05-01T08:43:11Z</time>
      </trkpt>
      <trkpt lat="47.44477" lon="0.90617">
        <ele>163</ele>
        <time>2011-05-01T08:43:12Z</time>
      </trkpt>
      <trkpt lat="47.44472" lon="0.90613">
        <ele>162</ele>
        <time>2011-05-01T08:43:13Z</time>
      </trkpt>
      <trkpt lat="47.44467" lon="0.90609">
        <ele>163</ele>
        <time>2011-05-01T08:43:14Z</time>
      </trkpt>
      <trkpt lat="47.44462" lon="0.90604">
        <ele>163</ele>
        <time>2011-05-01T08:43:15Z</time>
      </trkpt>
      <trkpt lat="47.44457" lon="0.906">
        <ele>163</ele>
        <time>2011-05-01T08:43:16Z</time>
      </trkpt>
      <trkpt lat="47.44451" lon="0.90596">
        <ele>162</ele>
        <time>2011-05-01T08:43:17Z</time>
      </trkpt>
      <trkpt lat="47.44444" lon="0.90593">
        <ele>162</ele>
        <time>2011-05-01T08:43:18Z</time>
      </trkpt>
      <trkpt lat="47.44439" lon="0.90588">
        <ele>163</ele>
        <time>2011-05-01T08:43:19Z</time>
      </trkpt>
      <trkpt lat="47.44432" lon="0.90585">
        <ele>162</ele>
        <time>2011-05-01T08:43:20Z</time>
      </trkpt>
      <trkpt lat="47.44426" lon="0.90579">
        <ele>162</ele>
        <time>2011-05-01T08:43:21Z</time>
      </trkpt>
      <trkpt lat="47.4442" lon="0.90574">
        <ele>162</ele>
        <time>2011-05-01T08:43:22Z</time>
      </trkpt>
      <trkpt lat="47.44414" lon="0.9057">
        <ele>162</ele>
        <time>2011-05-01T08:43:23Z</time>
      </trkpt>
      <trkpt lat="47.44408" lon="0.90565">
        <ele>161</ele>
        <time>2011-05-01T08:43:24Z</time>
      </trkpt>
      <trkpt lat="47.44402" lon="0.9056">
        <ele>161</ele>
        <time>2011-05-01T08:43:25Z</time>
      </trkpt>
      <trkpt lat="47.44396" lon="0.90556">
        <ele>161</ele>
        <time>2011-05-01T08:43:26Z</time>
      </trkpt>
      <trkpt lat="47.4439" lon="0.90551">
        <ele>161</ele>
        <time>2011-05-01T08:43:27Z</time>
      </trkpt>
      <trkpt lat="47.44382" lon="0.90545">
        <ele>161</ele>
        <time>2011-05-01T08:43:28Z</time>
      </trkpt>
      <trkpt lat="47.44375" lon="0.9054">
        <ele>161</ele>
        <time>2011-05-01T08:43:29Z</time>
      </trkpt>
      <trkpt lat="47.44369" lon="0.90536">
        <ele>162</ele>
        <time>2011-05-01T08:43:30Z</time>
      </trkpt>
      <trkpt lat="47.44363" lon="0.9053">
        <ele>162</ele>
        <time>2011-05-01T08:43:31Z</time>
      </trkpt>
      <trkpt lat="47.44355" lon="0.90524">
        <ele>162</ele>
        <time>2011-05-01T08:43:32Z</time>
      </trkpt>
      <trkpt lat="47.44348" lon="0.9052">
        <ele>162</ele>
        <time>2011-05-01T08:43:33Z</time>
      </trkpt>
      <trkpt lat="47.44342" lon="0.90515">
        <ele>163</ele>
        <time>2011-05-01T08:43:34Z</time>
      </trkpt>
      <trkpt lat="47.44335" lon="0.90512">
        <ele>162</ele>
        <time>2011-05-01T08:43:35Z</time>
      </trkpt>
      <trkpt lat="47.44328" lon="0.90507">
        <ele>162</ele>
        <time>2011-05-01T08:43:36Z</time>
      </trkpt>
      <trkpt lat="47.44322" lon="0.90507">
        <ele>163</ele>
        <time>2011-05-01T08:43:37Z</time>
      </trkpt>
      <trkpt lat="47.44315" lon="0.90504">
        <ele>162</ele>
        <time>2011-05-01T08:43:38Z</time>
      </trkpt>
      <trkpt lat="47.44309" lon="0.90502">
        <ele>162</ele>
        <time>2011-05-01T08:43:39Z</time>
      </trkpt>
      <trkpt lat="47.44304" lon="0.90499">
        <ele>162</ele>
        <time>2011-05-01T08:43:40Z</time>
      </trkpt>
      <trkpt lat="47.44298" lon="0.90494">
        <ele>162</ele>
        <time>2011-05-01T08:43:41Z</time>
      </trkpt>
      <trkpt lat="47.4429" lon="0.90489">
        <ele>161</ele>
        <time>2011-05-01T08:43:42Z</time>
      </trkpt>
      <trkpt lat="47.44283" lon="0.90481">
        <ele>160</ele>
        <time>2011-05-01T08:43:43Z</time>
      </trkpt>
      <trkpt lat="47.44279" lon="0.90476">
        <ele>160</ele>
        <time>2011-05-01T08:43:44Z</time>
      </trkpt>
      <trkpt lat="47.44274" lon="0.90467">
        <ele>160</ele>
        <time>2011-05-01T08:43:45Z</time>
      </trkpt>
      <trkpt lat="47.44268" lon="0.90458">
        <ele>160</ele>
        <time>2011-05-01T08:43:46Z</time>
      </trkpt>
      <trkpt lat="47.44263" lon="0.90451">
        <ele>161</ele>
        <time>2011-05-01T08:43:47Z</time>
      </trkpt>
      <trkpt lat="47.44258" lon="0.90442">
        <ele>160</ele>
        <time>2011-05-01T08:43:48Z</time>
      </trkpt>
      <trkpt lat="47.44252" lon="0.90433">
        <ele>158</ele>
        <time>2011-05-01T08:43:49Z</time>
      </trkpt>
      <trkpt lat="47.44247" lon="0.90427">
        <ele>156</ele>
        <time>2011-05-01T08:43:50Z</time>
      </trkpt>
      <trkpt lat="47.44241" lon="0.90422">
        <ele>155</ele>
        <time>2011-05-01T08:43:51Z</time>
      </trkpt>
      <trkpt lat="47.44236" lon="0.90416">
        <ele>155</ele>
        <time>2011-05-01T08:43:52Z</time>
      </trkpt>
      <trkpt lat="47.44232" lon="0.90411">
        <ele>155</ele>
        <time>2011-05-01T08:43:53Z</time>
      </trkpt>
      <trkpt lat="47.44227" lon="0.90407">
        <ele>155</ele>
        <time>2011-05-01T08:43:54Z</time>
      </trkpt>
      <trkpt lat="47.44224" lon="0.90403">
        <ele>156</ele>
        <time>2011-05-01T08:43:55Z</time>
      </trkpt>
      <trkpt lat="47.44218" lon="0.90398">
        <ele>156</ele>
        <time>2011-05-01T08:43:56Z</time>
      </trkpt>
      <trkpt lat="47.44214" lon="0.90394">
        <ele>156</ele>
        <time>2011-05-01T08:43:57Z</time>
      </trkpt>
      <trkpt lat="47.44211" lon="0.90389">
        <ele>157</ele>
        <time>2011-05-01T08:43:58Z</time>
      </trkpt>
      <trkpt lat="47.44208" lon="0.90384">
        <ele>156</ele>
        <time>2011-05-01T08:43:59Z</time>
      </trkpt>
      <trkpt lat="47.44204" lon="0.9038">
        <ele>156</ele>
        <time>2011-05-01T08:44:00Z</time>
      </trkpt>
      <trkpt lat="47.44197" lon="0.90371">
        <ele>157</ele>
        <time>2011-05-01T08:44:02Z</time>
      </trkpt>
      <trkpt lat="47.4419" lon="0.90362">
        <ele>157</ele>
        <time>2011-05-01T08:44:04Z</time>
      </trkpt>
      <trkpt lat="47.44187" lon="0.90358">
        <ele>157</ele>
        <time>2011-05-01T08:44:05Z</time>
      </trkpt>
      <trkpt lat="47.44183" lon="0.90352">
        <ele>157</ele>
        <time>2011-05-01T08:44:06Z</time>
      </trkpt>
      <trkpt lat="47.44175" lon="0.90345">
        <ele>157</ele>
        <time>2011-05-01T08:44:08Z</time>
      </trkpt>
      <trkpt lat="47.44171" lon="0.9034">
        <ele>157</ele>
        <time>2011-05-01T08:44:09Z</time>
      </trkpt>
      <trkpt lat="47.44167" lon="0.90336">
        <ele>157</ele>
        <time>2011-05-01T08:44:10Z</time>
      </trkpt>
      <trkpt lat="47.4416" lon="0.90334">
        <ele>156</ele>
        <time>2011-05-01T08:44:12Z</time>
      </trkpt>
      <trkpt lat="47.44156" lon="0.90331">
        <ele>156</ele>
        <time>2011-05-01T08:44:13Z</time>
      </trkpt>
      <trkpt lat="47.44147" lon="0.90329">
        <ele>155</ele>
        <time>2011-05-01T08:44:15Z</time>
      </trkpt>
      <trkpt lat="47.44143" lon="0.90327">
        <ele>155</ele>
        <time>2011-05-01T08:44:16Z</time>
      </trkpt>
      <trkpt lat="47.44136" lon="0.9032">
        <ele>155</ele>
        <time>2011-05-01T08:44:18Z</time>
      </trkpt>
      <trkpt lat="47.44129" lon="0.90314">
        <ele>155</ele>
        <time>2011-05-01T08:44:20Z</time>
      </trkpt>
      <trkpt lat="47.4412" lon="0.90308">
        <ele>155</ele>
        <time>2011-05-01T08:44:22Z</time>
      </trkpt>
      <trkpt lat="47.44113" lon="0.903">
        <ele>155</ele>
        <time>2011-05-01T08:44:24Z</time>
      </trkpt>
      <trkpt lat="47.44109" lon="0.90296">
        <ele>155</ele>
        <time>2011-05-01T08:44:25Z</time>
      </trkpt>
      <trkpt lat="47.44106" lon="0.9029">
        <ele>155</ele>
        <time>2011-05-01T08:44:26Z</time>
      </trkpt>
      <trkpt lat="47.441" lon="0.90295">
        <ele>155</ele>
        <time>2011-05-01T08:44:28Z</time>
      </trkpt>
      <trkpt lat="47.44093" lon="0.90288">
        <ele>154</ele>
        <time>2011-05-01T08:44:30Z</time>
      </trkpt>
      <trkpt lat="47.44088" lon="0.90284">
        <ele>155</ele>
        <time>2011-05-01T08:44:31Z</time>
      </trkpt>
      <trkpt lat="47.44085" lon="0.90277">
        <ele>155</ele>
        <time>2011-05-01T08:44:32Z</time>
      </trkpt>
      <trkpt lat="47.44077" lon="0.90272">
        <ele>156</ele>
        <time>2011-05-01T08:44:34Z</time>
      </trkpt>
      <trkpt lat="47.44069" lon="0.90263">
        <ele>156</ele>
        <time>2011-05-01T08:44:36Z</time>
      </trkpt>
      <trkpt lat="47.44062" lon="0.90256">
        <ele>157</ele>
        <time>2011-05-01T08:44:38Z</time>
      </trkpt>
      <trkpt lat="47.44054" lon="0.90249">
        <ele>157</ele>
        <time>2011-05-01T08:44:40Z</time>
      </trkpt>
      <trkpt lat="47.44046" lon="0.90242">
        <ele>158</ele>
        <time>2011-05-01T08:44:42Z</time>
      </trkpt>
      <trkpt lat="47.44042" lon="0.90239">
        <ele>158</ele>
        <time>2011-05-01T08:44:43Z</time>
      </trkpt>
      <trkpt lat="47.44037" lon="0.90241">
        <ele>158</ele>
        <time>2011-05-01T08:44:44Z</time>
      </trkpt>
      <trkpt lat="47.44027" lon="0.90243">
        <ele>158</ele>
        <time>2011-05-01T08:44:46Z</time>
      </trkpt>
      <trkpt lat="47.44019" lon="0.90249">
        <ele>158</ele>
        <time>2011-05-01T08:44:48Z</time>
      </trkpt>
      <trkpt lat="47.44015" lon="0.90252">
        <ele>158</ele>
        <time>2011-05-01T08:44:49Z</time>
      </trkpt>
      <trkpt lat="47.44011" lon="0.90257">
        <ele>158</ele>
        <time>2011-05-01T08:44:50Z</time>
      </trkpt>
      <trkpt lat="47.44008" lon="0.90263">
        <ele>157</ele>
        <time>2011-05-01T08:44:51Z</time>
      </trkpt>
      <trkpt lat="47.44004" lon="0.90275">
        <ele>158</ele>
        <time>2011-05-01T08:44:53Z</time>
      </trkpt>
      <trkpt lat="47.44002" lon="0.90282">
        <ele>158</ele>
        <time>2011-05-01T08:44:54Z</time>
      </trkpt>
      <trkpt lat="47.44002" lon="0.90288">
        <ele>158</ele>
        <time>2011-05-01T08:44:55Z</time>
      </trkpt>
      <trkpt lat="47.44002" lon="0.90296">
        <ele>157</ele>
        <time>2011-05-01T08:44:56Z</time>
      </trkpt>
      <trkpt lat="47.44003" lon="0.90303">
        <ele>157</ele>
        <time>2011-05-01T08:44:57Z</time>
      </trkpt>
      <trkpt lat="47.44004" lon="0.9031">
        <ele>157</ele>
        <time>2011-05-01T08:44:58Z</time>
      </trkpt>
      <trkpt lat="47.44005" lon="0.90324">
        <ele>156</ele>
        <time>2011-05-01T08:45:00Z</time>
      </trkpt>
      <trkpt lat="47.44006" lon="0.90332">
        <ele>156</ele>
        <time>2011-05-01T08:45:01Z</time>
      </trkpt>
      <trkpt lat="47.44006" lon="0.90339">
        <ele>156</ele>
        <time>2011-05-01T08:45:02Z</time>
      </trkpt>
      <trkpt lat="47.44006" lon="0.90348">
        <ele>156</ele>
        <time>2011-05-01T08:45:03Z</time>
      </trkpt>
      <trkpt lat="47.44005" lon="0.90356">
        <ele>156</ele>
        <time>2011-05-01T08:45:04Z</time>
      </trkpt>
      <trkpt lat="47.44003" lon="0.90364">
        <ele>157</ele>
        <time>2011-05-01T08:45:05Z</time>
      </trkpt>
      <trkpt lat="47.43999" lon="0.90371">
        <ele>156</ele>
        <time>2011-05-01T08:45:06Z</time>
      </trkpt>
      <trkpt lat="47.43995" lon="0.90378">
        <ele>156</ele>
        <time>2011-05-01T08:45:07Z</time>
      </trkpt>
      <trkpt lat="47.4399" lon="0.90384">
        <ele>156</ele>
        <time>2011-05-01T08:45:08Z</time>
      </trkpt>
      <trkpt lat="47.43985" lon="0.9039">
        <ele>157</ele>
        <time>2011-05-01T08:45:09Z</time>
      </trkpt>
      <trkpt lat="47.4398" lon="0.90395">
        <ele>157</ele>
        <time>2011-05-01T08:45:10Z</time>
      </trkpt>
      <trkpt lat="47.43974" lon="0.904">
        <ele>157</ele>
        <time>2011-05-01T08:45:11Z</time>
      </trkpt>
      <trkpt lat="47.43968" lon="0.90404">
        <ele>157</ele>
        <time>2011-05-01T08:45:12Z</time>
      </trkpt>
      <trkpt lat="47.43963" lon="0.90408">
        <ele>157</ele>
        <time>2011-05-01T08:45:13Z</time>
      </trkpt>
      <trkpt lat="47.43957" lon="0.90411">
        <ele>157</ele>
        <time>2011-05-01T08:45:14Z</time>
      </trkpt>
      <trkpt lat="47.43951" lon="0.90414">
        <ele>157</ele>
        <time>2011-05-01T08:45:15Z</time>
      </trkpt>
      <trkpt lat="47.43945" lon="0.90418">
        <ele>157</ele>
        <time>2011-05-01T08:45:16Z</time>
      </trkpt>
      <trkpt lat="47.43939" lon="0.90422">
        <ele>157</ele>
        <time>2011-05-01T08:45:17Z</time>
      </trkpt>
      <trkpt lat="47.43933" lon="0.90424">
        <ele>157</ele>
        <time>2011-05-01T08:45:18Z</time>
      </trkpt>
      <trkpt lat="47.43927" lon="0.90428">
        <ele>157</ele>
        <time>2011-05-01T08:45:19Z</time>
      </trkpt>
      <trkpt lat="47.4392" lon="0.90431">
        <ele>157</ele>
        <time>2011-05-01T08:45:20Z</time>
      </trkpt>
      <trkpt lat="47.43914" lon="0.90434">
        <ele>157</ele>
        <time>2011-05-01T08:45:21Z</time>
      </trkpt>
      <trkpt lat="47.43907" lon="0.90437">
        <ele>157</ele>
        <time>2011-05-01T08:45:22Z</time>
      </trkpt>
      <trkpt lat="47.43901" lon="0.9044">
        <ele>157</ele>
        <time>2011-05-01T08:45:23Z</time>
      </trkpt>
      <trkpt lat="47.43894" lon="0.90442">
        <ele>157</ele>
        <time>2011-05-01T08:45:24Z</time>
      </trkpt>
      <trkpt lat="47.43887" lon="0.90445">
        <ele>157</ele>
        <time>2011-05-01T08:45:25Z</time>
      </trkpt>
      <trkpt lat="47.43881" lon="0.90448">
        <ele>157</ele>
        <time>2011-05-01T08:45:26Z</time>
      </trkpt>
      <trkpt lat="47.43874" lon="0.90451">
        <ele>157</ele>
        <time>2011-05-01T08:45:27Z</time>
      </trkpt>
      <trkpt lat="47.43868" lon="0.90453">
        <ele>156</ele>
        <time>2011-05-01T08:45:28Z</time>
      </trkpt>
      <trkpt lat="47.43861" lon="0.90455">
        <ele>156</ele>
        <time>2011-05-01T08:45:29Z</time>
      </trkpt>
      <trkpt lat="47.43854" lon="0.90456">
        <ele>156</ele>
        <time>2011-05-01T08:45:30Z</time>
      </trkpt>
      <trkpt lat="47.43847" lon="0.90458">
        <ele>156</ele>
        <time>2011-05-01T08:45:31Z</time>
      </trkpt>
      <trkpt lat="47.4384" lon="0.90459">
        <ele>156</ele>
        <time>2011-05-01T08:45:32Z</time>
      </trkpt>
      <trkpt lat="47.43833" lon="0.90461">
        <ele>155</ele>
        <time>2011-05-01T08:45:33Z</time>
      </trkpt>
      <trkpt lat="47.43826" lon="0.90463">
        <ele>155</ele>
        <time>2011-05-01T08:45:34Z</time>
      </trkpt>
      <trkpt lat="47.43819" lon="0.90464">
        <ele>156</ele>
        <time>2011-05-01T08:45:35Z</time>
      </trkpt>
      <trkpt lat="47.43812" lon="0.90466">
        <ele>155</ele>
        <time>2011-05-01T08:45:36Z</time>
      </trkpt>
      <trkpt lat="47.43806" lon="0.90467">
        <ele>155</ele>
        <time>2011-05-01T08:45:37Z</time>
      </trkpt>
      <trkpt lat="47.43799" lon="0.90468">
        <ele>156</ele>
        <time>2011-05-01T08:45:38Z</time>
      </trkpt>
      <trkpt lat="47.43792" lon="0.90469">
        <ele>156</ele>
        <time>2011-05-01T08:45:39Z</time>
      </trkpt>
      <trkpt lat="47.43786" lon="0.90469">
        <ele>156</ele>
        <time>2011-05-01T08:45:40Z</time>
      </trkpt>
      <trkpt lat="47.4378" lon="0.9047">
        <ele>156</ele>
        <time>2011-05-01T08:45:41Z</time>
      </trkpt>
      <trkpt lat="47.43774" lon="0.90471">
        <ele>156</ele>
        <time>2011-05-01T08:45:42Z</time>
      </trkpt>
      <trkpt lat="47.43767" lon="0.90471">
        <ele>156</ele>
        <time>2011-05-01T08:45:43Z</time>
      </trkpt>
      <trkpt lat="47.43761" lon="0.90471">
        <ele>156</ele>
        <time>2011-05-01T08:45:44Z</time>
      </trkpt>
      <trkpt lat="47.43755" lon="0.90472">
        <ele>156</ele>
        <time>2011-05-01T08:45:45Z</time>
      </trkpt>
      <trkpt lat="47.43749" lon="0.90472">
        <ele>156</ele>
        <time>2011-05-01T08:45:46Z</time>
      </trkpt>
      <trkpt lat="47.43743" lon="0.90474">
        <ele>156</ele>
        <time>2011-05-01T08:45:47Z</time>
      </trkpt>
      <trkpt lat="47.43737" lon="0.90474">
        <ele>156</ele>
        <time>2011-05-01T08:45:48Z</time>
      </trkpt>
      <trkpt lat="47.4373" lon="0.90475">
        <ele>156</ele>
        <time>2011-05-01T08:45:49Z</time>
      </trkpt>
      <trkpt lat="47.43723" lon="0.90475">
        <ele>156</ele>
        <time>2011-05-01T08:45:50Z</time>
      </trkpt>
      <trkpt lat="47.43716" lon="0.90476">
        <ele>156</ele>
        <time>2011-05-01T08:45:51Z</time>
      </trkpt>
      <trkpt lat="47.43709" lon="0.90476">
        <ele>156</ele>
        <time>2011-05-01T08:45:52Z</time>
      </trkpt>
      <trkpt lat="47.43702" lon="0.90476">
        <ele>156</ele>
        <time>2011-05-01T08:45:53Z</time>
      </trkpt>
      <trkpt lat="47.43694" lon="0.90476">
        <ele>156</ele>
        <time>2011-05-01T08:45:54Z</time>
      </trkpt>
      <trkpt lat="47.43687" lon="0.90476">
        <ele>156</ele>
        <time>2011-05-01T08:45:55Z</time>
      </trkpt>
      <trkpt lat="47.4368" lon="0.90477">
        <ele>156</ele>
        <time>2011-05-01T08:45:56Z</time>
      </trkpt>
      <trkpt lat="47.43673" lon="0.90477">
        <ele>156</ele>
        <time>2011-05-01T08:45:57Z</time>
      </trkpt>
      <trkpt lat="47.43667" lon="0.90479">
        <ele>155</ele>
        <time>2011-05-01T08:45:58Z</time>
      </trkpt>
      <trkpt lat="47.4366" lon="0.90481">
        <ele>155</ele>
        <time>2011-05-01T08:45:59Z</time>
      </trkpt>
      <trkpt lat="47.43654" lon="0.90484">
        <ele>156</ele>
        <time>2011-05-01T08:46:00Z</time>
      </trkpt>
      <trkpt lat="47.43648" lon="0.90489">
        <ele>155</ele>
        <time>2011-05-01T08:46:01Z</time>
      </trkpt>
      <trkpt lat="47.43643" lon="0.90494">
        <ele>156</ele>
        <time>2011-05-01T08:46:02Z</time>
      </trkpt>
      <trkpt lat="47.43641" lon="0.90504">
        <ele>156</ele>
        <time>2011-05-01T08:46:03Z</time>
      </trkpt>
      <trkpt lat="47.4364" lon="0.90514">
        <ele>155</ele>
        <time>2011-05-01T08:46:04Z</time>
      </trkpt>
      <trkpt lat="47.43641" lon="0.90523">
        <ele>156</ele>
        <time>2011-05-01T08:46:05Z</time>
      </trkpt>
      <trkpt lat="47.43641" lon="0.90534">
        <ele>156</ele>
        <time>2011-05-01T08:46:06Z</time>
      </trkpt>
      <trkpt lat="47.43641" lon="0.90543">
        <ele>156</ele>
        <time>2011-05-01T08:46:07Z</time>
      </trkpt>
      <trkpt lat="47.43642" lon="0.90553">
        <ele>156</ele>
        <time>2011-05-01T08:46:08Z</time>
      </trkpt>
      <trkpt lat="47.43642" lon="0.90563">
        <ele>157</ele>
        <time>2011-05-01T08:46:09Z</time>
      </trkpt>
      <trkpt lat="47.43642" lon="0.90573">
        <ele>157</ele>
        <time>2011-05-01T08:46:10Z</time>
      </trkpt>
      <trkpt lat="47.43641" lon="0.90582">
        <ele>157</ele>
        <time>2011-05-01T08:46:11Z</time>
      </trkpt>
      <trkpt lat="47.4364" lon="0.90592">
        <ele>157</ele>
        <time>2011-05-01T08:46:12Z</time>
      </trkpt>
      <trkpt lat="47.43638" lon="0.90601">
        <ele>157</ele>
        <time>2011-05-01T08:46:13Z</time>
      </trkpt>
      <trkpt lat="47.43636" lon="0.90611">
        <ele>157</ele>
        <time>2011-05-01T08:46:14Z</time>
      </trkpt>
      <trkpt lat="47.43634" lon="0.9062">
        <ele>157</ele>
        <time>2011-05-01T08:46:15Z</time>
      </trkpt>
      <trkpt lat="47.43631" lon="0.9063">
        <ele>158</ele>
        <time>2011-05-01T08:46:16Z</time>
      </trkpt>
      <trkpt lat="47.43629" lon="0.90639">
        <ele>157</ele>
        <time>2011-05-01T08:46:17Z</time>
      </trkpt>
      <trkpt lat="47.43626" lon="0.90647">
        <ele>157</ele>
        <time>2011-05-01T08:46:18Z</time>
      </trkpt>
      <trkpt lat="47.43623" lon="0.90656">
        <ele>157</ele>
        <time>2011-05-01T08:46:19Z</time>
      </trkpt>
      <trkpt lat="47.4362" lon="0.90666">
        <ele>158</ele>
        <time>2011-05-01T08:46:20Z</time>
      </trkpt>
      <trkpt lat="47.43616" lon="0.90675">
        <ele>158</ele>
        <time>2011-05-01T08:46:21Z</time>
      </trkpt>
      <trkpt lat="47.43613" lon="0.90684">
        <ele>158</ele>
        <time>2011-05-01T08:46:22Z</time>
      </trkpt>
      <trkpt lat="47.4361" lon="0.90692">
        <ele>158</ele>
        <time>2011-05-01T08:46:23Z</time>
      </trkpt>
      <trkpt lat="47.43607" lon="0.90702">
        <ele>158</ele>
        <time>2011-05-01T08:46:24Z</time>
      </trkpt>
      <trkpt lat="47.43604" lon="0.90711">
        <ele>158</ele>
        <time>2011-05-01T08:46:25Z</time>
      </trkpt>
      <trkpt lat="47.436" lon="0.90719">
        <ele>158</ele>
        <time>2011-05-01T08:46:26Z</time>
      </trkpt>
      <trkpt lat="47.43597" lon="0.90728">
        <ele>158</ele>
        <time>2011-05-01T08:46:27Z</time>
      </trkpt>
      <trkpt lat="47.43593" lon="0.90737">
        <ele>158</ele>
        <time>2011-05-01T08:46:28Z</time>
      </trkpt>
      <trkpt lat="47.4359" lon="0.90746">
        <ele>158</ele>
        <time>2011-05-01T08:46:29Z</time>
      </trkpt>
      <trkpt lat="47.43587" lon="0.90754">
        <ele>158</ele>
        <time>2011-05-01T08:46:30Z</time>
      </trkpt>
      <trkpt lat="47.43585" lon="0.90762">
        <ele>158</ele>
        <time>2011-05-01T08:46:31Z</time>
      </trkpt>
      <trkpt lat="47.43584" lon="0.90769">
        <ele>159</ele>
        <time>2011-05-01T08:46:32Z</time>
      </trkpt>
      <trkpt lat="47.43581" lon="0.90776">
        <ele>159</ele>
        <time>2011-05-01T08:46:33Z</time>
      </trkpt>
      <trkpt lat="47.43577" lon="0.9078">
        <ele>158</ele>
        <time>2011-05-01T08:46:34Z</time>
      </trkpt>
      <trkpt lat="47.43571" lon="0.90783">
        <ele>159</ele>
        <time>2011-05-01T08:46:35Z</time>
      </trkpt>
      <trkpt lat="47.43565" lon="0.90786">
        <ele>159</ele>
        <time>2011-05-01T08:46:36Z</time>
      </trkpt>
      <trkpt lat="47.4356" lon="0.9079">
        <ele>158</ele>
        <time>2011-05-01T08:46:37Z</time>
      </trkpt>
      <trkpt lat="47.43555" lon="0.90794">
        <ele>158</ele>
        <time>2011-05-01T08:46:38Z</time>
      </trkpt>
      <trkpt lat="47.4355" lon="0.90797">
        <ele>158</ele>
        <time>2011-05-01T08:46:39Z</time>
      </trkpt>
      <trkpt lat="47.43545" lon="0.90802">
        <ele>158</ele>
        <time>2011-05-01T08:46:40Z</time>
      </trkpt>
      <trkpt lat="47.43539" lon="0.90805">
        <ele>158</ele>
        <time>2011-05-01T08:46:41Z</time>
      </trkpt>
      <trkpt lat="47.43534" lon="0.90809">
        <ele>158</ele>
        <time>2011-05-01T08:46:42Z</time>
      </trkpt>
      <trkpt lat="47.43528" lon="0.90812">
        <ele>158</ele>
        <time>2011-05-01T08:46:43Z</time>
      </trkpt>
      <trkpt lat="47.43522" lon="0.90816">
        <ele>158</ele>
        <time>2011-05-01T08:46:44Z</time>
      </trkpt>
      <trkpt lat="47.43516" lon="0.9082">
        <ele>159</ele>
        <time>2011-05-01T08:46:45Z</time>
      </trkpt>
      <trkpt lat="47.4351" lon="0.90823">
        <ele>159</ele>
        <time>2011-05-01T08:46:46Z</time>
      </trkpt>
      <trkpt lat="47.43504" lon="0.90827">
        <ele>159</ele>
        <time>2011-05-01T08:46:47Z</time>
      </trkpt>
      <trkpt lat="47.43498" lon="0.90831">
        <ele>159</ele>
        <time>2011-05-01T08:46:48Z</time>
      </trkpt>
      <trkpt lat="47.43492" lon="0.90835">
        <ele>159</ele>
        <time>2011-05-01T08:46:49Z</time>
      </trkpt>
      <trkpt lat="47.43486" lon="0.90839">
        <ele>158</ele>
        <time>2011-05-01T08:46:50Z</time>
      </trkpt>
      <trkpt lat="47.4348" lon="0.90844">
        <ele>158</ele>
        <time>2011-05-01T08:46:51Z</time>
      </trkpt>
      <trkpt lat="47.43475" lon="0.9085">
        <ele>157</ele>
        <time>2011-05-01T08:46:52Z</time>
      </trkpt>
      <trkpt lat="47.4347" lon="0.90854">
        <ele>157</ele>
        <time>2011-05-01T08:46:53Z</time>
      </trkpt>
      <trkpt lat="47.43464" lon="0.9086">
        <ele>157</ele>
        <time>2011-05-01T08:46:54Z</time>
      </trkpt>
      <trkpt lat="47.43459" lon="0.90866">
        <ele>157</ele>
        <time>2011-05-01T08:46:55Z</time>
      </trkpt>
      <trkpt lat="47.43454" lon="0.90872">
        <ele>157</ele>
        <time>2011-05-01T08:46:56Z</time>
      </trkpt>
      <trkpt lat="47.43448" lon="0.90878">
        <ele>157</ele>
        <time>2011-05-01T08:46:57Z</time>
      </trkpt>
      <trkpt lat="47.43444" lon="0.90884">
        <ele>157</ele>
        <time>2011-05-01T08:46:58Z</time>
      </trkpt>
      <trkpt lat="47.43438" lon="0.90889">
        <ele>157</ele>
        <time>2011-05-01T08:46:59Z</time>
      </trkpt>
      <trkpt lat="47.43434" lon="0.90896">
        <ele>157</ele>
        <time>2011-05-01T08:47:00Z</time>
      </trkpt>
      <trkpt lat="47.43429" lon="0.90901">
        <ele>157</ele>
        <time>2011-05-01T08:47:01Z</time>
      </trkpt>
      <trkpt lat="47.43423" lon="0.90906">
        <ele>157</ele>
        <time>2011-05-01T08:47:02Z</time>
      </trkpt>
      <trkpt lat="47.43417" lon="0.9091">
        <ele>157</ele>
        <time>2011-05-01T08:47:03Z</time>
      </trkpt>
      <trkpt lat="47.43412" lon="0.90914">
        <ele>157</ele>
        <time>2011-05-01T08:47:04Z</time>
      </trkpt>
      <trkpt lat="47.43406" lon="0.90918">
        <ele>156</ele>
        <time>2011-05-01T08:47:05Z</time>
      </trkpt>
      <trkpt lat="47.43399" lon="0.90922">
        <ele>156</ele>
        <time>2011-05-01T08:47:06Z</time>
      </trkpt>
      <trkpt lat="47.43393" lon="0.90925">
        <ele>156</ele>
        <time>2011-05-01T08:47:07Z</time>
      </trkpt>
      <trkpt lat="47.43386" lon="0.90927">
        <ele>156</ele>
        <time>2011-05-01T08:47:08Z</time>
      </trkpt>
      <trkpt lat="47.43379" lon="0.90932">
        <ele>155</ele>
        <time>2011-05-01T08:47:09Z</time>
      </trkpt>
      <trkpt lat="47.43373" lon="0.90935">
        <ele>155</ele>
        <time>2011-05-01T08:47:10Z</time>
      </trkpt>
      <trkpt lat="47.43366" lon="0.90939">
        <ele>155</ele>
        <time>2011-05-01T08:47:11Z</time>
      </trkpt>
      <trkpt lat="47.4336" lon="0.90944">
        <ele>155</ele>
        <time>2011-05-01T08:47:12Z</time>
      </trkpt>
      <trkpt lat="47.43353" lon="0.90948">
        <ele>155</ele>
        <time>2011-05-01T08:47:13Z</time>
      </trkpt>
      <trkpt lat="47.43346" lon="0.90953">
        <ele>155</ele>
        <time>2011-05-01T08:47:14Z</time>
      </trkpt>
      <trkpt lat="47.43332" lon="0.90961">
        <ele>155</ele>
        <time>2011-05-01T08:47:16Z</time>
      </trkpt>
      <trkpt lat="47.43325" lon="0.90965">
        <ele>155</ele>
        <time>2011-05-01T08:47:17Z</time>
      </trkpt>
      <trkpt lat="47.43319" lon="0.90969">
        <ele>155</ele>
        <time>2011-05-01T08:47:18Z</time>
      </trkpt>
      <trkpt lat="47.43312" lon="0.90972">
        <ele>155</ele>
        <time>2011-05-01T08:47:19Z</time>
      </trkpt>
      <trkpt lat="47.43305" lon="0.90977">
        <ele>154</ele>
        <time>2011-05-01T08:47:20Z</time>
      </trkpt>
      <trkpt lat="47.43299" lon="0.9098">
        <ele>154</ele>
        <time>2011-05-01T08:47:21Z</time>
      </trkpt>
      <trkpt lat="47.43292" lon="0.90984">
        <ele>155</ele>
        <time>2011-05-01T08:47:22Z</time>
      </trkpt>
      <trkpt lat="47.43285" lon="0.90987">
        <ele>155</ele>
        <time>2011-05-01T08:47:23Z</time>
      </trkpt>
      <trkpt lat="47.43278" lon="0.9099">
        <ele>155</ele>
        <time>2011-05-01T08:47:24Z</time>
      </trkpt>
      <trkpt lat="47.43272" lon="0.90992">
        <ele>155</ele>
        <time>2011-05-01T08:47:25Z</time>
      </trkpt>
      <trkpt lat="47.43265" lon="0.90994">
        <ele>155</ele>
        <time>2011-05-01T08:47:26Z</time>
      </trkpt>
      <trkpt lat="47.43258" lon="0.90996">
        <ele>155</ele>
        <time>2011-05-01T08:47:27Z</time>
      </trkpt>
      <trkpt lat="47.43251" lon="0.90998">
        <ele>155</ele>
        <time>2011-05-01T08:47:28Z</time>
      </trkpt>
      <trkpt lat="47.43245" lon="0.90999">
        <ele>155</ele>
        <time>2011-05-01T08:47:29Z</time>
      </trkpt>
      <trkpt lat="47.43238" lon="0.91001">
        <ele>155</ele>
        <time>2011-05-01T08:47:30Z</time>
      </trkpt>
      <trkpt lat="47.43231" lon="0.91003">
        <ele>155</ele>
        <time>2011-05-01T08:47:31Z</time>
      </trkpt>
      <trkpt lat="47.43224" lon="0.91004">
        <ele>155</ele>
        <time>2011-05-01T08:47:32Z</time>
      </trkpt>
      <trkpt lat="47.43218" lon="0.91006">
        <ele>155</ele>
        <time>2011-05-01T08:47:33Z</time>
      </trkpt>
      <trkpt lat="47.43212" lon="0.91008">
        <ele>155</ele>
        <time>2011-05-01T08:47:34Z</time>
      </trkpt>
      <trkpt lat="47.43205" lon="0.9101">
        <ele>155</ele>
        <time>2011-05-01T08:47:35Z</time>
      </trkpt>
      <trkpt lat="47.43198" lon="0.91013">
        <ele>155</ele>
        <time>2011-05-01T08:47:36Z</time>
      </trkpt>
      <trkpt lat="47.43193" lon="0.91016">
        <ele>155</ele>
        <time>2011-05-01T08:47:37Z</time>
      </trkpt>
      <trkpt lat="47.43186" lon="0.9102">
        <ele>155</ele>
        <time>2011-05-01T08:47:38Z</time>
      </trkpt>
      <trkpt lat="47.4318" lon="0.91024">
        <ele>155</ele>
        <time>2011-05-01T08:47:39Z</time>
      </trkpt>
      <trkpt lat="47.43175" lon="0.91029">
        <ele>155</ele>
        <time>2011-05-01T08:47:40Z</time>
      </trkpt>
      <trkpt lat="47.4317" lon="0.91034">
        <ele>155</ele>
        <time>2011-05-01T08:47:41Z</time>
      </trkpt>
      <trkpt lat="47.43165" lon="0.91038">
        <ele>155</ele>
        <time>2011-05-01T08:47:42Z</time>
      </trkpt>
      <trkpt lat="47.43159" lon="0.91043">
        <ele>155</ele>
        <time>2011-05-01T08:47:43Z</time>
      </trkpt>
      <trkpt lat="47.43154" lon="0.91048">
        <ele>155</ele>
        <time>2011-05-01T08:47:44Z</time>
      </trkpt>
      <trkpt lat="47.43148" lon="0.91053">
        <ele>155</ele>
        <time>2011-05-01T08:47:45Z</time>
      </trkpt>
      <trkpt lat="47.43142" lon="0.91058">
        <ele>155</ele>
        <time>2011-05-01T08:47:46Z</time>
      </trkpt>
      <trkpt lat="47.43137" lon="0.91063">
        <ele>155</ele>
        <time>2011-05-01T08:47:47Z</time>
      </trkpt>
      <trkpt lat="47.43132" lon="0.91067">
        <ele>155</ele>
        <time>2011-05-01T08:47:48Z</time>
      </trkpt>
      <trkpt lat="47.43126" lon="0.91072">
        <ele>155</ele>
        <time>2011-05-01T08:47:49Z</time>
      </trkpt>
      <trkpt lat="47.43119" lon="0.91076">
        <ele>155</ele>
        <time>2011-05-01T08:47:50Z</time>
      </trkpt>
      <trkpt lat="47.43113" lon="0.91081">
        <ele>155</ele>
        <time>2011-05-01T08:47:51Z</time>
      </trkpt>
      <trkpt lat="47.43106" lon="0.91086">
        <ele>155</ele>
        <time>2011-05-01T08:47:52Z</time>
      </trkpt>
      <trkpt lat="47.431" lon="0.91091">
        <ele>155</ele>
        <time>2011-05-01T08:47:53Z</time>
      </trkpt>
      <trkpt lat="47.43094" lon="0.91096">
        <ele>155</ele>
        <time>2011-05-01T08:47:54Z</time>
      </trkpt>
      <trkpt lat="47.43088" lon="0.91102">
        <ele>155</ele>
        <time>2011-05-01T08:47:55Z</time>
      </trkpt>
      <trkpt lat="47.43082" lon="0.91106">
        <ele>155</ele>
        <time>2011-05-01T08:47:56Z</time>
      </trkpt>
      <trkpt lat="47.43076" lon="0.91111">
        <ele>155</ele>
        <time>2011-05-01T08:47:57Z</time>
      </trkpt>
      <trkpt lat="47.43071" lon="0.91119">
        <ele>155</ele>
        <time>2011-05-01T08:47:59Z</time>
      </trkpt>
      <trkpt lat="47.4307" lon="0.91129">
        <ele>155</ele>
        <time>2011-05-01T08:48:01Z</time>
      </trkpt>
      <trkpt lat="47.43075" lon="0.91137">
        <ele>155</ele>
        <time>2011-05-01T08:48:03Z</time>
      </trkpt>
      <trkpt lat="47.43083" lon="0.91141">
        <ele>156</ele>
        <time>2011-05-01T08:48:05Z</time>
      </trkpt>
      <trkpt lat="47.43088" lon="0.91143">
        <ele>156</ele>
        <time>2011-05-01T08:48:06Z</time>
      </trkpt>
      <trkpt lat="47.43093" lon="0.91146">
        <ele>156</ele>
        <time>2011-05-01T08:48:07Z</time>
      </trkpt>
      <trkpt lat="47.43099" lon="0.91148">
        <ele>156</ele>
        <time>2011-05-01T08:48:08Z</time>
      </trkpt>
      <trkpt lat="47.43105" lon="0.9115">
        <ele>156</ele>
        <time>2011-05-01T08:48:09Z</time>
      </trkpt>
      <trkpt lat="47.4311" lon="0.91155">
        <ele>157</ele>
        <time>2011-05-01T08:48:10Z</time>
      </trkpt>
      <trkpt lat="47.43115" lon="0.91158">
        <ele>157</ele>
        <time>2011-05-01T08:48:11Z</time>
      </trkpt>
      <trkpt lat="47.4312" lon="0.91162">
        <ele>157</ele>
        <time>2011-05-01T08:48:12Z</time>
      </trkpt>
      <trkpt lat="47.43126" lon="0.91167">
        <ele>157</ele>
        <time>2011-05-01T08:48:13Z</time>
      </trkpt>
      <trkpt lat="47.4313" lon="0.9117">
        <ele>158</ele>
        <time>2011-05-01T08:48:14Z</time>
      </trkpt>
      <trkpt lat="47.43136" lon="0.91175">
        <ele>158</ele>
        <time>2011-05-01T08:48:15Z</time>
      </trkpt>
      <trkpt lat="47.43141" lon="0.91179">
        <ele>158</ele>
        <time>2011-05-01T08:48:16Z</time>
      </trkpt>
      <trkpt lat="47.43145" lon="0.91185">
        <ele>158</ele>
        <time>2011-05-01T08:48:17Z</time>
      </trkpt>
      <trkpt lat="47.43149" lon="0.91192">
        <ele>158</ele>
        <time>2011-05-01T08:48:18Z</time>
      </trkpt>
      <trkpt lat="47.4315" lon="0.912">
        <ele>158</ele>
        <time>2011-05-01T08:48:19Z</time>
      </trkpt>
      <trkpt lat="47.4315" lon="0.9121">
        <ele>158</ele>
        <time>2011-05-01T08:48:20Z</time>
      </trkpt>
      <trkpt lat="47.43151" lon="0.91219">
        <ele>158</ele>
        <time>2011-05-01T08:48:21Z</time>
      </trkpt>
      <trkpt lat="47.43152" lon="0.91228">
        <ele>158</ele>
        <time>2011-05-01T08:48:22Z</time>
      </trkpt>
      <trkpt lat="47.43152" lon="0.91237">
        <ele>158</ele>
        <time>2011-05-01T08:48:23Z</time>
      </trkpt>
      <trkpt lat="47.43154" lon="0.91247">
        <ele>158</ele>
        <time>2011-05-01T08:48:24Z</time>
      </trkpt>
      <trkpt lat="47.43154" lon="0.91257">
        <ele>157</ele>
        <time>2011-05-01T08:48:25Z</time>
      </trkpt>
      <trkpt lat="47.43154" lon="0.91266">
        <ele>157</ele>
        <time>2011-05-01T08:48:26Z</time>
      </trkpt>
      <trkpt lat="47.43154" lon="0.91276">
        <ele>156</ele>
        <time>2011-05-01T08:48:27Z</time>
      </trkpt>
      <trkpt lat="47.43152" lon="0.91285">
        <ele>156</ele>
        <time>2011-05-01T08:48:28Z</time>
      </trkpt>
      <trkpt lat="47.4315" lon="0.91295">
        <ele>156</ele>
        <time>2011-05-01T08:48:29Z</time>
      </trkpt>
      <trkpt lat="47.43149" lon="0.91304">
        <ele>156</ele>
        <time>2011-05-01T08:48:30Z</time>
      </trkpt>
      <trkpt lat="47.43148" lon="0.91314">
        <ele>156</ele>
        <time>2011-05-01T08:48:31Z</time>
      </trkpt>
      <trkpt lat="47.43146" lon="0.91323">
        <ele>155</ele>
        <time>2011-05-01T08:48:32Z</time>
      </trkpt>
      <trkpt lat="47.43146" lon="0.91333">
        <ele>155</ele>
        <time>2011-05-01T08:48:33Z</time>
      </trkpt>
      <trkpt lat="47.43147" lon="0.91343">
        <ele>155</ele>
        <time>2011-05-01T08:48:34Z</time>
      </trkpt>
      <trkpt lat="47.43149" lon="0.91353">
        <ele>154</ele>
        <time>2011-05-01T08:48:35Z</time>
      </trkpt>
      <trkpt lat="47.4315" lon="0.91363">
        <ele>154</ele>
        <time>2011-05-01T08:48:36Z</time>
      </trkpt>
      <trkpt lat="47.43152" lon="0.91373">
        <ele>154</ele>
        <time>2011-05-01T08:48:37Z</time>
      </trkpt>
      <trkpt lat="47.43154" lon="0.91382">
        <ele>154</ele>
        <time>2011-05-01T08:48:38Z</time>
      </trkpt>
      <trkpt lat="47.43156" lon="0.91391">
        <ele>153</ele>
        <time>2011-05-01T08:48:39Z</time>
      </trkpt>
      <trkpt lat="47.43158" lon="0.91402">
        <ele>154</ele>
        <time>2011-05-01T08:48:40Z</time>
      </trkpt>
      <trkpt lat="47.4316" lon="0.91412">
        <ele>154</ele>
        <time>2011-05-01T08:48:41Z</time>
      </trkpt>
      <trkpt lat="47.43162" lon="0.91421">
        <ele>155</ele>
        <time>2011-05-01T08:48:42Z</time>
      </trkpt>
      <trkpt lat="47.43164" lon="0.91432">
        <ele>156</ele>
        <time>2011-05-01T08:48:43Z</time>
      </trkpt>
      <trkpt lat="47.43165" lon="0.91441">
        <ele>156</ele>
        <time>2011-05-01T08:48:44Z</time>
      </trkpt>
      <trkpt lat="47.43166" lon="0.91451">
        <ele>156</ele>
        <time>2011-05-01T08:48:45Z</time>
      </trkpt>
      <trkpt lat="47.43168" lon="0.91461">
        <ele>156</ele>
        <time>2011-05-01T08:48:46Z</time>
      </trkpt>
      <trkpt lat="47.4317" lon="0.91471">
        <ele>156</ele>
        <time>2011-05-01T08:48:47Z</time>
      </trkpt>
      <trkpt lat="47.43171" lon="0.91481">
        <ele>156</ele>
        <time>2011-05-01T08:48:48Z</time>
      </trkpt>
      <trkpt lat="47.43173" lon="0.91491">
        <ele>156</ele>
        <time>2011-05-01T08:48:49Z</time>
      </trkpt>
      <trkpt lat="47.43173" lon="0.91501">
        <ele>157</ele>
        <time>2011-05-01T08:48:50Z</time>
      </trkpt>
      <trkpt lat="47.43174" lon="0.91512">
        <ele>157</ele>
        <time>2011-05-01T08:48:51Z</time>
      </trkpt>
      <trkpt lat="47.43176" lon="0.91522">
        <ele>157</ele>
        <time>2011-05-01T08:48:52Z</time>
      </trkpt>
      <trkpt lat="47.43177" lon="0.91533">
        <ele>157</ele>
        <time>2011-05-01T08:48:53Z</time>
      </trkpt>
      <trkpt lat="47.43179" lon="0.91543">
        <ele>157</ele>
        <time>2011-05-01T08:48:54Z</time>
      </trkpt>
      <trkpt lat="47.4318" lon="0.91553">
        <ele>157</ele>
        <time>2011-05-01T08:48:55Z</time>
      </trkpt>
      <trkpt lat="47.43182" lon="0.91562">
        <ele>157</ele>
        <time>2011-05-01T08:48:56Z</time>
      </trkpt>
      <trkpt lat="47.43183" lon="0.91571">
        <ele>157</ele>
        <time>2011-05-01T08:48:57Z</time>
      </trkpt>
      <trkpt lat="47.43182" lon="0.91579">
        <ele>157</ele>
        <time>2011-05-01T08:48:58Z</time>
      </trkpt>
      <trkpt lat="47.43177" lon="0.91584">
        <ele>156</ele>
        <time>2011-05-01T08:48:59Z</time>
      </trkpt>
      <trkpt lat="47.43172" lon="0.91587">
        <ele>156</ele>
        <time>2011-05-01T08:49:00Z</time>
      </trkpt>
      <trkpt lat="47.43165" lon="0.9159">
        <ele>156</ele>
        <time>2011-05-01T08:49:01Z</time>
      </trkpt>
      <trkpt lat="47.43158" lon="0.91593">
        <ele>155</ele>
        <time>2011-05-01T08:49:02Z</time>
      </trkpt>
      <trkpt lat="47.43151" lon="0.91595">
        <ele>154</ele>
        <time>2011-05-01T08:49:03Z</time>
      </trkpt>
      <trkpt lat="47.43144" lon="0.91597">
        <ele>154</ele>
        <time>2011-05-01T08:49:04Z</time>
      </trkpt>
      <trkpt lat="47.43136" lon="0.916">
        <ele>154</ele>
        <time>2011-05-01T08:49:05Z</time>
      </trkpt>
      <trkpt lat="47.4313" lon="0.91602">
        <ele>153</ele>
        <time>2011-05-01T08:49:06Z</time>
      </trkpt>
      <trkpt lat="47.43124" lon="0.91602">
        <ele>152</ele>
        <time>2011-05-01T08:49:07Z</time>
      </trkpt>
      <trkpt lat="47.43118" lon="0.91601">
        <ele>152</ele>
        <time>2011-05-01T08:49:08Z</time>
      </trkpt>
      <trkpt lat="47.43112" lon="0.91597">
        <ele>151</ele>
        <time>2011-05-01T08:49:09Z</time>
      </trkpt>
      <trkpt lat="47.43105" lon="0.91595">
        <ele>151</ele>
        <time>2011-05-01T08:49:10Z</time>
      </trkpt>
      <trkpt lat="47.43099" lon="0.91593">
        <ele>150</ele>
        <time>2011-05-01T08:49:11Z</time>
      </trkpt>
      <trkpt lat="47.43092" lon="0.91593">
        <ele>150</ele>
        <time>2011-05-01T08:49:12Z</time>
      </trkpt>
      <trkpt lat="47.43085" lon="0.91595">
        <ele>150</ele>
        <time>2011-05-01T08:49:13Z</time>
      </trkpt>
      <trkpt lat="47.43077" lon="0.91597">
        <ele>149</ele>
        <time>2011-05-01T08:49:14Z</time>
      </trkpt>
      <trkpt lat="47.4307" lon="0.91598">
        <ele>148</ele>
        <time>2011-05-01T08:49:15Z</time>
      </trkpt>
      <trkpt lat="47.43062" lon="0.91601">
        <ele>147</ele>
        <time>2011-05-01T08:49:16Z</time>
      </trkpt>
      <trkpt lat="47.43053" lon="0.91602">
        <ele>146</ele>
        <time>2011-05-01T08:49:17Z</time>
      </trkpt>
      <trkpt lat="47.43045" lon="0.91604">
        <ele>145</ele>
        <time>2011-05-01T08:49:18Z</time>
      </trkpt>
      <trkpt lat="47.43035" lon="0.91605">
        <ele>144</ele>
        <time>2011-05-01T08:49:19Z</time>
      </trkpt>
      <trkpt lat="47.43025" lon="0.91608">
        <ele>143</ele>
        <time>2011-05-01T08:49:20Z</time>
      </trkpt>
      <trkpt lat="47.43016" lon="0.9161">
        <ele>141</ele>
        <time>2011-05-01T08:49:21Z</time>
      </trkpt>
      <trkpt lat="47.43008" lon="0.91614">
        <ele>141</ele>
        <time>2011-05-01T08:49:22Z</time>
      </trkpt>
      <trkpt lat="47.43002" lon="0.91619">
        <ele>140</ele>
        <time>2011-05-01T08:49:23Z</time>
      </trkpt>
      <trkpt lat="47.42996" lon="0.91627">
        <ele>140</ele>
        <time>2011-05-01T08:49:24Z</time>
      </trkpt>
      <trkpt lat="47.42992" lon="0.91636">
        <ele>140</ele>
        <time>2011-05-01T08:49:25Z</time>
      </trkpt>
      <trkpt lat="47.42987" lon="0.91645">
        <ele>140</ele>
        <time>2011-05-01T08:49:26Z</time>
      </trkpt>
      <trkpt lat="47.42982" lon="0.91653">
        <ele>140</ele>
        <time>2011-05-01T08:49:27Z</time>
      </trkpt>
      <trkpt lat="47.42976" lon="0.91658">
        <ele>139</ele>
        <time>2011-05-01T08:49:28Z</time>
      </trkpt>
      <trkpt lat="47.4297" lon="0.91663">
        <ele>139</ele>
        <time>2011-05-01T08:49:29Z</time>
      </trkpt>
      <trkpt lat="47.42962" lon="0.91667">
        <ele>139</ele>
        <time>2011-05-01T08:49:30Z</time>
      </trkpt>
      <trkpt lat="47.42956" lon="0.91671">
        <ele>139</ele>
        <time>2011-05-01T08:49:31Z</time>
      </trkpt>
      <trkpt lat="47.4295" lon="0.91675">
        <ele>139</ele>
        <time>2011-05-01T08:49:32Z</time>
      </trkpt>
      <trkpt lat="47.42942" lon="0.91675">
        <ele>138</ele>
        <time>2011-05-01T08:49:33Z</time>
      </trkpt>
      <trkpt lat="47.42935" lon="0.91674">
        <ele>139</ele>
        <time>2011-05-01T08:49:34Z</time>
      </trkpt>
      <trkpt lat="47.42929" lon="0.91672">
        <ele>139</ele>
        <time>2011-05-01T08:49:35Z</time>
      </trkpt>
      <trkpt lat="47.42922" lon="0.91669">
        <ele>139</ele>
        <time>2011-05-01T08:49:36Z</time>
      </trkpt>
      <trkpt lat="47.42916" lon="0.91662">
        <ele>139</ele>
        <time>2011-05-01T08:49:37Z</time>
      </trkpt>
      <trkpt lat="47.42909" lon="0.91655">
        <ele>138</ele>
        <time>2011-05-01T08:49:38Z</time>
      </trkpt>
      <trkpt lat="47.42904" lon="0.91649">
        <ele>139</ele>
        <time>2011-05-01T08:49:39Z</time>
      </trkpt>
      <trkpt lat="47.42898" lon="0.91643">
        <ele>138</ele>
        <time>2011-05-01T08:49:40Z</time>
      </trkpt>
      <trkpt lat="47.42893" lon="0.91636">
        <ele>138</ele>
        <time>2011-05-01T08:49:41Z</time>
      </trkpt>
      <trkpt lat="47.42886" lon="0.91629">
        <ele>137</ele>
        <time>2011-05-01T08:49:42Z</time>
      </trkpt>
      <trkpt lat="47.42879" lon="0.91622">
        <ele>137</ele>
        <time>2011-05-01T08:49:43Z</time>
      </trkpt>
      <trkpt lat="47.42872" lon="0.91614">
        <ele>137</ele>
        <time>2011-05-01T08:49:44Z</time>
      </trkpt>
      <trkpt lat="47.42866" lon="0.9161">
        <ele>136</ele>
        <time>2011-05-01T08:49:45Z</time>
      </trkpt>
      <trkpt lat="47.42858" lon="0.91602">
        <ele>136</ele>
        <time>2011-05-01T08:49:46Z</time>
      </trkpt>
      <trkpt lat="47.42852" lon="0.91596">
        <ele>136</ele>
        <time>2011-05-01T08:49:47Z</time>
      </trkpt>
      <trkpt lat="47.42846" lon="0.91589">
        <ele>135</ele>
        <time>2011-05-01T08:49:48Z</time>
      </trkpt>
      <trkpt lat="47.42839" lon="0.91583">
        <ele>135</ele>
        <time>2011-05-01T08:49:49Z</time>
      </trkpt>
      <trkpt lat="47.42833" lon="0.91575">
        <ele>134</ele>
        <time>2011-05-01T08:49:50Z</time>
      </trkpt>
      <trkpt lat="47.42828" lon="0.91568">
        <ele>134</ele>
        <time>2011-05-01T08:49:51Z</time>
      </trkpt>
      <trkpt lat="47.42822" lon="0.91561">
        <ele>134</ele>
        <time>2011-05-01T08:49:52Z</time>
      </trkpt>
      <trkpt lat="47.42816" lon="0.91554">
        <ele>134</ele>
        <time>2011-05-01T08:49:53Z</time>
      </trkpt>
      <trkpt lat="47.4281" lon="0.91546">
        <ele>134</ele>
        <time>2011-05-01T08:49:54Z</time>
      </trkpt>
      <trkpt lat="47.42805" lon="0.91539">
        <ele>134</ele>
        <time>2011-05-01T08:49:55Z</time>
      </trkpt>
      <trkpt lat="47.42799" lon="0.91531">
        <ele>134</ele>
        <time>2011-05-01T08:49:56Z</time>
      </trkpt>
      <trkpt lat="47.42793" lon="0.91523">
        <ele>134</ele>
        <time>2011-05-01T08:49:57Z</time>
      </trkpt>
      <trkpt lat="47.42788" lon="0.91516">
        <ele>134</ele>
        <time>2011-05-01T08:49:58Z</time>
      </trkpt>
      <trkpt lat="47.42782" lon="0.91508">
        <ele>134</ele>
        <time>2011-05-01T08:49:59Z</time>
      </trkpt>
      <trkpt lat="47.42777" lon="0.91501">
        <ele>133</ele>
        <time>2011-05-01T08:50:00Z</time>
      </trkpt>
      <trkpt lat="47.42772" lon="0.91494">
        <ele>133</ele>
        <time>2011-05-01T08:50:01Z</time>
      </trkpt>
      <trkpt lat="47.42767" lon="0.91486">
        <ele>133</ele>
        <time>2011-05-01T08:50:02Z</time>
      </trkpt>
      <trkpt lat="47.42762" lon="0.91479">
        <ele>133</ele>
        <time>2011-05-01T08:50:03Z</time>
      </trkpt>
      <trkpt lat="47.42756" lon="0.91471">
        <ele>133</ele>
        <time>2011-05-01T08:50:04Z</time>
      </trkpt>
      <trkpt lat="47.42751" lon="0.91463">
        <ele>133</ele>
        <time>2011-05-01T08:50:05Z</time>
      </trkpt>
      <trkpt lat="47.42746" lon="0.91455">
        <ele>132</ele>
        <time>2011-05-01T08:50:06Z</time>
      </trkpt>
      <trkpt lat="47.42741" lon="0.91447">
        <ele>132</ele>
        <time>2011-05-01T08:50:07Z</time>
      </trkpt>
      <trkpt lat="47.42736" lon="0.91439">
        <ele>131</ele>
        <time>2011-05-01T08:50:08Z</time>
      </trkpt>
      <trkpt lat="47.42731" lon="0.9143">
        <ele>131</ele>
        <time>2011-05-01T08:50:09Z</time>
      </trkpt>
      <trkpt lat="47.42726" lon="0.9142">
        <ele>131</ele>
        <time>2011-05-01T08:50:10Z</time>
      </trkpt>
      <trkpt lat="47.42722" lon="0.91411">
        <ele>130</ele>
        <time>2011-05-01T08:50:11Z</time>
      </trkpt>
      <trkpt lat="47.42717" lon="0.91402">
        <ele>130</ele>
        <time>2011-05-01T08:50:12Z</time>
      </trkpt>
      <trkpt lat="47.42712" lon="0.91392">
        <ele>130</ele>
        <time>2011-05-01T08:50:13Z</time>
      </trkpt>
      <trkpt lat="47.42709" lon="0.91384">
        <ele>130</ele>
        <time>2011-05-01T08:50:14Z</time>
      </trkpt>
      <trkpt lat="47.427" lon="0.91366">
        <ele>129</ele>
        <time>2011-05-01T08:50:16Z</time>
      </trkpt>
      <trkpt lat="47.42694" lon="0.91357">
        <ele>130</ele>
        <time>2011-05-01T08:50:17Z</time>
      </trkpt>
      <trkpt lat="47.4269" lon="0.91347">
        <ele>129</ele>
        <time>2011-05-01T08:50:18Z</time>
      </trkpt>
      <trkpt lat="47.42684" lon="0.91338">
        <ele>130</ele>
        <time>2011-05-01T08:50:19Z</time>
      </trkpt>
      <trkpt lat="47.42677" lon="0.91329">
        <ele>129</ele>
        <time>2011-05-01T08:50:20Z</time>
      </trkpt>
      <trkpt lat="47.4267" lon="0.91319">
        <ele>128</ele>
        <time>2011-05-01T08:50:21Z</time>
      </trkpt>
      <trkpt lat="47.42665" lon="0.9131">
        <ele>127</ele>
        <time>2011-05-01T08:50:22Z</time>
      </trkpt>
      <trkpt lat="47.42659" lon="0.91299">
        <ele>127</ele>
        <time>2011-05-01T08:50:23Z</time>
      </trkpt>
      <trkpt lat="47.42653" lon="0.91288">
        <ele>127</ele>
        <time>2011-05-01T08:50:24Z</time>
      </trkpt>
      <trkpt lat="47.42648" lon="0.91278">
        <ele>127</ele>
        <time>2011-05-01T08:50:25Z</time>
      </trkpt>
      <trkpt lat="47.42639" lon="0.91266">
        <ele>126</ele>
        <time>2011-05-01T08:50:26Z</time>
      </trkpt>
      <trkpt lat="47.42633" lon="0.91255">
        <ele>126</ele>
        <time>2011-05-01T08:50:27Z</time>
      </trkpt>
      <trkpt lat="47.42627" lon="0.91243">
        <ele>125</ele>
        <time>2011-05-01T08:50:28Z</time>
      </trkpt>
      <trkpt lat="47.42622" lon="0.9123">
        <ele>125</ele>
        <time>2011-05-01T08:50:29Z</time>
      </trkpt>
      <trkpt lat="47.42618" lon="0.91216">
        <ele>124</ele>
        <time>2011-05-01T08:50:30Z</time>
      </trkpt>
      <trkpt lat="47.42615" lon="0.91202">
        <ele>123</ele>
        <time>2011-05-01T08:50:31Z</time>
      </trkpt>
      <trkpt lat="47.42612" lon="0.91187">
        <ele>123</ele>
        <time>2011-05-01T08:50:32Z</time>
      </trkpt>
      <trkpt lat="47.42608" lon="0.91172">
        <ele>122</ele>
        <time>2011-05-01T08:50:33Z</time>
      </trkpt>
      <trkpt lat="47.42603" lon="0.91159">
        <ele>123</ele>
        <time>2011-05-01T08:50:34Z</time>
      </trkpt>
      <trkpt lat="47.42598" lon="0.9115">
        <ele>123</ele>
        <time>2011-05-01T08:50:35Z</time>
      </trkpt>
      <trkpt lat="47.42594" lon="0.91141">
        <ele>123</ele>
        <time>2011-05-01T08:50:36Z</time>
      </trkpt>
      <trkpt lat="47.4259" lon="0.91135">
        <ele>123</ele>
        <time>2011-05-01T08:50:37Z</time>
      </trkpt>
      <trkpt lat="47.42586" lon="0.91128">
        <ele>123</ele>
        <time>2011-05-01T08:50:38Z</time>
      </trkpt>
      <trkpt lat="47.42588" lon="0.91118">
        <ele>123</ele>
        <time>2011-05-01T08:50:40Z</time>
      </trkpt>
      <trkpt lat="47.4259" lon="0.9111">
        <ele>123</ele>
        <time>2011-05-01T08:50:42Z</time>
      </trkpt>
      <trkpt lat="47.42596" lon="0.9111">
        <ele>122</ele>
        <time>2011-05-01T08:50:45Z</time>
      </trkpt>
      <trkpt lat="47.42599" lon="0.91116">
        <ele>121</ele>
        <time>2011-05-01T08:50:47Z</time>
      </trkpt>
      <trkpt lat="47.42604" lon="0.91125">
        <ele>122</ele>
        <time>2011-05-01T08:50:49Z</time>
      </trkpt>
      <trkpt lat="47.42608" lon="0.91134">
        <ele>122</ele>
        <time>2011-05-01T08:50:51Z</time>
      </trkpt>
      <trkpt lat="47.42613" lon="0.91141">
        <ele>123</ele>
        <time>2011-05-01T08:50:53Z</time>
      </trkpt>
      <trkpt lat="47.42618" lon="0.91147">
        <ele>123</ele>
        <time>2011-05-01T08:50:55Z</time>
      </trkpt>
      <trkpt lat="47.42624" lon="0.91153">
        <ele>125</ele>
        <time>2011-05-01T08:50:57Z</time>
      </trkpt>
      <trkpt lat="47.42628" lon="0.91157">
        <ele>126</ele>
        <time>2011-05-01T08:50:59Z</time>
      </trkpt>
      <trkpt lat="47.42635" lon="0.9116">
        <ele>126</ele>
        <time>2011-05-01T08:51:01Z</time>
      </trkpt>
      <trkpt lat="47.42642" lon="0.91162">
        <ele>126</ele>
        <time>2011-05-01T08:51:03Z</time>
      </trkpt>
      <trkpt lat="47.42649" lon="0.91163">
        <ele>125</ele>
        <time>2011-05-01T08:51:05Z</time>
      </trkpt>
      <trkpt lat="47.42656" lon="0.91164">
        <ele>125</ele>
        <time>2011-05-01T08:51:07Z</time>
      </trkpt>
      <trkpt lat="47.42665" lon="0.91164">
        <ele>125</ele>
        <time>2011-05-01T08:51:09Z</time>
      </trkpt>
      <trkpt lat="47.42673" lon="0.91162">
        <ele>125</ele>
        <time>2011-05-01T08:51:11Z</time>
      </trkpt>
      <trkpt lat="47.42675" lon="0.91152">
        <ele>125</ele>
        <time>2011-05-01T08:51:13Z</time>
      </trkpt>
      <trkpt lat="47.42676" lon="0.91145">
        <ele>125</ele>
        <time>2011-05-01T08:51:14Z</time>
      </trkpt>
      <trkpt lat="47.42676" lon="0.91133">
        <ele>126</ele>
        <time>2011-05-01T08:51:16Z</time>
      </trkpt>
      <trkpt lat="47.42676" lon="0.91123">
        <ele>128</ele>
        <time>2011-05-01T08:51:18Z</time>
      </trkpt>
      <trkpt lat="47.42678" lon="0.91112">
        <ele>128</ele>
        <time>2011-05-01T08:51:20Z</time>
      </trkpt>
      <trkpt lat="47.4268" lon="0.91101">
        <ele>128</ele>
        <time>2011-05-01T08:51:22Z</time>
      </trkpt>
      <trkpt lat="47.42681" lon="0.9109">
        <ele>130</ele>
        <time>2011-05-01T08:51:24Z</time>
      </trkpt>
      <trkpt lat="47.42681" lon="0.91079">
        <ele>131</ele>
        <time>2011-05-01T08:51:26Z</time>
      </trkpt>
      <trkpt lat="47.42681" lon="0.91066">
        <ele>132</ele>
        <time>2011-05-01T08:51:28Z</time>
      </trkpt>
      <trkpt lat="47.4268" lon="0.91055">
        <ele>132</ele>
        <time>2011-05-01T08:51:30Z</time>
      </trkpt>
      <trkpt lat="47.42678" lon="0.91044">
        <ele>132</ele>
        <time>2011-05-01T08:51:32Z</time>
      </trkpt>
      <trkpt lat="47.42676" lon="0.91034">
        <ele>133</ele>
        <time>2011-05-01T08:51:34Z</time>
      </trkpt>
      <trkpt lat="47.42674" lon="0.91023">
        <ele>133</ele>
        <time>2011-05-01T08:51:36Z</time>
      </trkpt>
      <trkpt lat="47.42672" lon="0.91013">
        <ele>133</ele>
        <time>2011-05-01T08:51:38Z</time>
      </trkpt>
      <trkpt lat="47.4267" lon="0.91001">
        <ele>134</ele>
        <time>2011-05-01T08:51:40Z</time>
      </trkpt>
      <trkpt lat="47.42669" lon="0.9099">
        <ele>134</ele>
        <time>2011-05-01T08:51:42Z</time>
      </trkpt>
      <trkpt lat="47.42668" lon="0.90979">
        <ele>135</ele>
        <time>2011-05-01T08:51:44Z</time>
      </trkpt>
      <trkpt lat="47.42667" lon="0.90968">
        <ele>135</ele>
        <time>2011-05-01T08:51:46Z</time>
      </trkpt>
      <trkpt lat="47.42666" lon="0.90956">
        <ele>135</ele>
        <time>2011-05-01T08:51:48Z</time>
      </trkpt>
      <trkpt lat="47.42664" lon="0.90944">
        <ele>136</ele>
        <time>2011-05-01T08:51:50Z</time>
      </trkpt>
      <trkpt lat="47.42663" lon="0.90938">
        <ele>136</ele>
        <time>2011-05-01T08:51:51Z</time>
      </trkpt>
      <trkpt lat="47.42662" lon="0.90931">
        <ele>137</ele>
        <time>2011-05-01T08:51:52Z</time>
      </trkpt>
      <trkpt lat="47.4266" lon="0.90924">
        <ele>137</ele>
        <time>2011-05-01T08:51:53Z</time>
      </trkpt>
      <trkpt lat="47.42659" lon="0.90917">
        <ele>138</ele>
        <time>2011-05-01T08:51:54Z</time>
      </trkpt>
      <trkpt lat="47.42658" lon="0.9091">
        <ele>138</ele>
        <time>2011-05-01T08:51:55Z</time>
      </trkpt>
      <trkpt lat="47.42657" lon="0.90902">
        <ele>137</ele>
        <time>2011-05-01T08:51:56Z</time>
      </trkpt>
      <trkpt lat="47.42656" lon="0.90895">
        <ele>137</ele>
        <time>2011-05-01T08:51:57Z</time>
      </trkpt>
      <trkpt lat="47.42654" lon="0.90887">
        <ele>138</ele>
        <time>2011-05-01T08:51:58Z</time>
      </trkpt>
      <trkpt lat="47.42654" lon="0.90879">
        <ele>138</ele>
        <time>2011-05-01T08:51:59Z</time>
      </trkpt>
      <trkpt lat="47.42652" lon="0.90872">
        <ele>138</ele>
        <time>2011-05-01T08:52:00Z</time>
      </trkpt>
      <trkpt lat="47.42652" lon="0.90865">
        <ele>140</ele>
        <time>2011-05-01T08:52:01Z</time>
      </trkpt>
      <trkpt lat="47.42651" lon="0.90857">
        <ele>140</ele>
        <time>2011-05-01T08:52:02Z</time>
      </trkpt>
      <trkpt lat="47.4265" lon="0.90849">
        <ele>140</ele>
        <time>2011-05-01T08:52:03Z</time>
      </trkpt>
      <trkpt lat="47.4265" lon="0.90842">
        <ele>141</ele>
        <time>2011-05-01T08:52:04Z</time>
      </trkpt>
      <trkpt lat="47.42649" lon="0.90834">
        <ele>141</ele>
        <time>2011-05-01T08:52:05Z</time>
      </trkpt>
      <trkpt lat="47.42649" lon="0.90826">
        <ele>142</ele>
        <time>2011-05-01T08:52:06Z</time>
      </trkpt>
      <trkpt lat="47.42648" lon="0.90819">
        <ele>142</ele>
        <time>2011-05-01T08:52:07Z</time>
      </trkpt>
      <trkpt lat="47.42647" lon="0.90812">
        <ele>143</ele>
        <time>2011-05-01T08:52:08Z</time>
      </trkpt>
      <trkpt lat="47.42646" lon="0.90804">
        <ele>143</ele>
        <time>2011-05-01T08:52:09Z</time>
      </trkpt>
      <trkpt lat="47.42646" lon="0.90796">
        <ele>143</ele>
        <time>2011-05-01T08:52:10Z</time>
      </trkpt>
      <trkpt lat="47.42645" lon="0.90788">
        <ele>143</ele>
        <time>2011-05-01T08:52:11Z</time>
      </trkpt>
      <trkpt lat="47.42644" lon="0.90779">
        <ele>143</ele>
        <time>2011-05-01T08:52:12Z</time>
      </trkpt>
      <trkpt lat="47.42644" lon="0.9077">
        <ele>143</ele>
        <time>2011-05-01T08:52:13Z</time>
      </trkpt>
      <trkpt lat="47.42643" lon="0.90762">
        <ele>143</ele>
        <time>2011-05-01T08:52:14Z</time>
      </trkpt>
      <trkpt lat="47.42642" lon="0.90754">
        <ele>143</ele>
        <time>2011-05-01T08:52:15Z</time>
      </trkpt>
      <trkpt lat="47.42641" lon="0.90746">
        <ele>143</ele>
        <time>2011-05-01T08:52:16Z</time>
      </trkpt>
      <trkpt lat="47.4264" lon="0.90738">
        <ele>143</ele>
        <time>2011-05-01T08:52:17Z</time>
      </trkpt>
      <trkpt lat="47.42638" lon="0.90731">
        <ele>143</ele>
        <time>2011-05-01T08:52:18Z</time>
      </trkpt>
      <trkpt lat="47.42637" lon="0.90722">
        <ele>143</ele>
        <time>2011-05-01T08:52:19Z</time>
      </trkpt>
      <trkpt lat="47.42637" lon="0.90714">
        <ele>142</ele>
        <time>2011-05-01T08:52:20Z</time>
      </trkpt>
      <trkpt lat="47.42636" lon="0.90707">
        <ele>142</ele>
        <time>2011-05-01T08:52:21Z</time>
      </trkpt>
      <trkpt lat="47.42634" lon="0.90698">
        <ele>142</ele>
        <time>2011-05-01T08:52:22Z</time>
      </trkpt>
      <trkpt lat="47.42633" lon="0.9069">
        <ele>142</ele>
        <time>2011-05-01T08:52:23Z</time>
      </trkpt>
      <trkpt lat="47.42631" lon="0.90681">
        <ele>142</ele>
        <time>2011-05-01T08:52:24Z</time>
      </trkpt>
      <trkpt lat="47.4263" lon="0.90673">
        <ele>141</ele>
        <time>2011-05-01T08:52:25Z</time>
      </trkpt>
      <trkpt lat="47.42628" lon="0.90664">
        <ele>141</ele>
        <time>2011-05-01T08:52:26Z</time>
      </trkpt>
      <trkpt lat="47.42627" lon="0.90655">
        <ele>141</ele>
        <time>2011-05-01T08:52:27Z</time>
      </trkpt>
      <trkpt lat="47.42624" lon="0.90647">
        <ele>141</ele>
        <time>2011-05-01T08:52:28Z</time>
      </trkpt>
      <trkpt lat="47.42625" lon="0.9064">
        <ele>141</ele>
        <time>2011-05-01T08:52:29Z</time>
      </trkpt>
      <trkpt lat="47.42624" lon="0.90632">
        <ele>141</ele>
        <time>2011-05-01T08:52:30Z</time>
      </trkpt>
      <trkpt lat="47.42626" lon="0.90624">
        <ele>140</ele>
        <time>2011-05-01T08:52:31Z</time>
      </trkpt>
      <trkpt lat="47.42627" lon="0.90616">
        <ele>140</ele>
        <time>2011-05-01T08:52:32Z</time>
      </trkpt>
      <trkpt lat="47.42628" lon="0.90607">
        <ele>140</ele>
        <time>2011-05-01T08:52:33Z</time>
      </trkpt>
      <trkpt lat="47.4263" lon="0.90598">
        <ele>140</ele>
        <time>2011-05-01T08:52:34Z</time>
      </trkpt>
      <trkpt lat="47.42629" lon="0.90589">
        <ele>139</ele>
        <time>2011-05-01T08:52:35Z</time>
      </trkpt>
      <trkpt lat="47.4263" lon="0.9058">
        <ele>139</ele>
        <time>2011-05-01T08:52:36Z</time>
      </trkpt>
      <trkpt lat="47.42632" lon="0.90572">
        <ele>140</ele>
        <time>2011-05-01T08:52:37Z</time>
      </trkpt>
      <trkpt lat="47.42634" lon="0.90564">
        <ele>140</ele>
        <time>2011-05-01T08:52:38Z</time>
      </trkpt>
      <trkpt lat="47.42635" lon="0.90556">
        <ele>140</ele>
        <time>2011-05-01T08:52:39Z</time>
      </trkpt>
      <trkpt lat="47.42637" lon="0.9055">
        <ele>139</ele>
        <time>2011-05-01T08:52:40Z</time>
      </trkpt>
      <trkpt lat="47.42646" lon="0.90543">
        <ele>140</ele>
        <time>2011-05-01T08:52:42Z</time>
      </trkpt>
      <trkpt lat="47.42652" lon="0.90541">
        <ele>140</ele>
        <time>2011-05-01T08:52:43Z</time>
      </trkpt>
      <trkpt lat="47.42659" lon="0.90539">
        <ele>140</ele>
        <time>2011-05-01T08:52:44Z</time>
      </trkpt>
      <trkpt lat="47.42665" lon="0.90537">
        <ele>140</ele>
        <time>2011-05-01T08:52:45Z</time>
      </trkpt>
      <trkpt lat="47.42672" lon="0.90536">
        <ele>140</ele>
        <time>2011-05-01T08:52:46Z</time>
      </trkpt>
      <trkpt lat="47.42677" lon="0.90537">
        <ele>140</ele>
        <time>2011-05-01T08:52:47Z</time>
      </trkpt>
      <trkpt lat="47.42682" lon="0.90536">
        <ele>140</ele>
        <time>2011-05-01T08:52:48Z</time>
      </trkpt>
      <trkpt lat="47.42687" lon="0.90536">
        <ele>140</ele>
        <time>2011-05-01T08:52:49Z</time>
      </trkpt>
      <trkpt lat="47.42692" lon="0.90536">
        <ele>140</ele>
        <time>2011-05-01T08:52:50Z</time>
      </trkpt>
      <trkpt lat="47.42698" lon="0.90534">
        <ele>140</ele>
        <time>2011-05-01T08:52:51Z</time>
      </trkpt>
      <trkpt lat="47.42703" lon="0.90533">
        <ele>140</ele>
        <time>2011-05-01T08:52:52Z</time>
      </trkpt>
      <trkpt lat="47.42709" lon="0.9053">
        <ele>141</ele>
        <time>2011-05-01T08:52:53Z</time>
      </trkpt>
      <trkpt lat="47.42715" lon="0.90529">
        <ele>141</ele>
        <time>2011-05-01T08:52:54Z</time>
      </trkpt>
      <trkpt lat="47.4272" lon="0.90527">
        <ele>140</ele>
        <time>2011-05-01T08:52:55Z</time>
      </trkpt>
      <trkpt lat="47.42725" lon="0.90526">
        <ele>141</ele>
        <time>2011-05-01T08:52:56Z</time>
      </trkpt>
      <trkpt lat="47.42731" lon="0.90523">
        <ele>141</ele>
        <time>2011-05-01T08:52:57Z</time>
      </trkpt>
      <trkpt lat="47.42736" lon="0.90523">
        <ele>141</ele>
        <time>2011-05-01T08:52:58Z</time>
      </trkpt>
      <trkpt lat="47.42742" lon="0.90521">
        <ele>141</ele>
        <time>2011-05-01T08:52:59Z</time>
      </trkpt>
      <trkpt lat="47.42746" lon="0.90519">
        <ele>141</ele>
        <time>2011-05-01T08:53:00Z</time>
      </trkpt>
      <trkpt lat="47.42751" lon="0.90517">
        <ele>141</ele>
        <time>2011-05-01T08:53:01Z</time>
      </trkpt>
      <trkpt lat="47.42758" lon="0.90512">
        <ele>140</ele>
        <time>2011-05-01T08:53:03Z</time>
      </trkpt>
      <trkpt lat="47.42758" lon="0.90501">
        <ele>138</ele>
        <time>2011-05-01T08:53:05Z</time>
      </trkpt>
      <trkpt lat="47.42755" lon="0.90496">
        <ele>138</ele>
        <time>2011-05-01T08:53:06Z</time>
      </trkpt>
      <trkpt lat="47.4275" lon="0.90483">
        <ele>137</ele>
        <time>2011-05-01T08:53:08Z</time>
      </trkpt>
      <trkpt lat="47.42747" lon="0.90476">
        <ele>137</ele>
        <time>2011-05-01T08:53:09Z</time>
      </trkpt>
      <trkpt lat="47.42744" lon="0.90469">
        <ele>137</ele>
        <time>2011-05-01T08:53:10Z</time>
      </trkpt>
      <trkpt lat="47.42742" lon="0.90461">
        <ele>137</ele>
        <time>2011-05-01T08:53:11Z</time>
      </trkpt>
      <trkpt lat="47.42739" lon="0.90453">
        <ele>137</ele>
        <time>2011-05-01T08:53:12Z</time>
      </trkpt>
      <trkpt lat="47.42735" lon="0.90445">
        <ele>136</ele>
        <time>2011-05-01T08:53:13Z</time>
      </trkpt>
      <trkpt lat="47.42732" lon="0.90436">
        <ele>136</ele>
        <time>2011-05-01T08:53:14Z</time>
      </trkpt>
      <trkpt lat="47.42726" lon="0.90418">
        <ele>135</ele>
        <time>2011-05-01T08:53:16Z</time>
      </trkpt>
      <trkpt lat="47.42722" lon="0.9041">
        <ele>135</ele>
        <time>2011-05-01T08:53:17Z</time>
      </trkpt>
      <trkpt lat="47.42716" lon="0.90401">
        <ele>135</ele>
        <time>2011-05-01T08:53:18Z</time>
      </trkpt>
      <trkpt lat="47.42711" lon="0.90392">
        <ele>134</ele>
        <time>2011-05-01T08:53:19Z</time>
      </trkpt>
      <trkpt lat="47.42706" lon="0.90384">
        <ele>134</ele>
        <time>2011-05-01T08:53:20Z</time>
      </trkpt>
      <trkpt lat="47.427" lon="0.90374">
        <ele>134</ele>
        <time>2011-05-01T08:53:21Z</time>
      </trkpt>
      <trkpt lat="47.42694" lon="0.90364">
        <ele>134</ele>
        <time>2011-05-01T08:53:22Z</time>
      </trkpt>
      <trkpt lat="47.42687" lon="0.90353">
        <ele>134</ele>
        <time>2011-05-01T08:53:23Z</time>
      </trkpt>
      <trkpt lat="47.42682" lon="0.90343">
        <ele>134</ele>
        <time>2011-05-01T08:53:24Z</time>
      </trkpt>
      <trkpt lat="47.42679" lon="0.90335">
        <ele>134</ele>
        <time>2011-05-01T08:53:25Z</time>
      </trkpt>
      <trkpt lat="47.42674" lon="0.90326">
        <ele>134</ele>
        <time>2011-05-01T08:53:26Z</time>
      </trkpt>
      <trkpt lat="47.42671" lon="0.90317">
        <ele>133</ele>
        <time>2011-05-01T08:53:27Z</time>
      </trkpt>
      <trkpt lat="47.42666" lon="0.90307">
        <ele>133</ele>
        <time>2011-05-01T08:53:28Z</time>
      </trkpt>
      <trkpt lat="47.42664" lon="0.90299">
        <ele>133</ele>
        <time>2011-05-01T08:53:29Z</time>
      </trkpt>
      <trkpt lat="47.42662" lon="0.9029">
        <ele>132</ele>
        <time>2011-05-01T08:53:30Z</time>
      </trkpt>
      <trkpt lat="47.42659" lon="0.9028">
        <ele>132</ele>
        <time>2011-05-01T08:53:31Z</time>
      </trkpt>
      <trkpt lat="47.42657" lon="0.90273">
        <ele>131</ele>
        <time>2011-05-01T08:53:32Z</time>
      </trkpt>
      <trkpt lat="47.42655" lon="0.90265">
        <ele>130</ele>
        <time>2011-05-01T08:53:33Z</time>
      </trkpt>
      <trkpt lat="47.42653" lon="0.90255">
        <ele>129</ele>
        <time>2011-05-01T08:53:34Z</time>
      </trkpt>
      <trkpt lat="47.4265" lon="0.90244">
        <ele>129</ele>
        <time>2011-05-01T08:53:35Z</time>
      </trkpt>
      <trkpt lat="47.42649" lon="0.90234">
        <ele>128</ele>
        <time>2011-05-01T08:53:36Z</time>
      </trkpt>
      <trkpt lat="47.42649" lon="0.90225">
        <ele>127</ele>
        <time>2011-05-01T08:53:37Z</time>
      </trkpt>
      <trkpt lat="47.42649" lon="0.90214">
        <ele>126</ele>
        <time>2011-05-01T08:53:38Z</time>
      </trkpt>
      <trkpt lat="47.42651" lon="0.90206">
        <ele>125</ele>
        <time>2011-05-01T08:53:39Z</time>
      </trkpt>
      <trkpt lat="47.42654" lon="0.90197">
        <ele>125</ele>
        <time>2011-05-01T08:53:40Z</time>
      </trkpt>
      <trkpt lat="47.42658" lon="0.90188">
        <ele>124</ele>
        <time>2011-05-01T08:53:41Z</time>
      </trkpt>
      <trkpt lat="47.42661" lon="0.9018">
        <ele>124</ele>
        <time>2011-05-01T08:53:42Z</time>
      </trkpt>
      <trkpt lat="47.42665" lon="0.90172">
        <ele>124</ele>
        <time>2011-05-01T08:53:43Z</time>
      </trkpt>
      <trkpt lat="47.42668" lon="0.90165">
        <ele>123</ele>
        <time>2011-05-01T08:53:44Z</time>
      </trkpt>
      <trkpt lat="47.42673" lon="0.90157">
        <ele>123</ele>
        <time>2011-05-01T08:53:45Z</time>
      </trkpt>
      <trkpt lat="47.42677" lon="0.9015">
        <ele>123</ele>
        <time>2011-05-01T08:53:46Z</time>
      </trkpt>
      <trkpt lat="47.42682" lon="0.90142">
        <ele>122</ele>
        <time>2011-05-01T08:53:47Z</time>
      </trkpt>
      <trkpt lat="47.42689" lon="0.90136">
        <ele>122</ele>
        <time>2011-05-01T08:53:48Z</time>
      </trkpt>
      <trkpt lat="47.42694" lon="0.9013">
        <ele>123</ele>
        <time>2011-05-01T08:53:49Z</time>
      </trkpt>
      <trkpt lat="47.42699" lon="0.90123">
        <ele>123</ele>
        <time>2011-05-01T08:53:50Z</time>
      </trkpt>
      <trkpt lat="47.42702" lon="0.90118">
        <ele>123</ele>
        <time>2011-05-01T08:53:51Z</time>
      </trkpt>
      <trkpt lat="47.42707" lon="0.90112">
        <ele>123</ele>
        <time>2011-05-01T08:53:52Z</time>
      </trkpt>
      <trkpt lat="47.42711" lon="0.90106">
        <ele>123</ele>
        <time>2011-05-01T08:53:53Z</time>
      </trkpt>
      <trkpt lat="47.42715" lon="0.90101">
        <ele>123</ele>
        <time>2011-05-01T08:53:54Z</time>
      </trkpt>
      <trkpt lat="47.42718" lon="0.90095">
        <ele>123</ele>
        <time>2011-05-01T08:53:55Z</time>
      </trkpt>
      <trkpt lat="47.42722" lon="0.9009">
        <ele>123</ele>
        <time>2011-05-01T08:53:56Z</time>
      </trkpt>
      <trkpt lat="47.42726" lon="0.90086">
        <ele>122</ele>
        <time>2011-05-01T08:53:57Z</time>
      </trkpt>
      <trkpt lat="47.42729" lon="0.9008">
        <ele>122</ele>
        <time>2011-05-01T08:53:58Z</time>
      </trkpt>
      <trkpt lat="47.42734" lon="0.90076">
        <ele>122</ele>
        <time>2011-05-01T08:53:59Z</time>
      </trkpt>
      <trkpt lat="47.42738" lon="0.90071">
        <ele>122</ele>
        <time>2011-05-01T08:54:00Z</time>
      </trkpt>
      <trkpt lat="47.42743" lon="0.90066">
        <ele>122</ele>
        <time>2011-05-01T08:54:01Z</time>
      </trkpt>
      <trkpt lat="47.42747" lon="0.90061">
        <ele>122</ele>
        <time>2011-05-01T08:54:02Z</time>
      </trkpt>
      <trkpt lat="47.42752" lon="0.90056">
        <ele>122</ele>
        <time>2011-05-01T08:54:03Z</time>
      </trkpt>
      <trkpt lat="47.42756" lon="0.9005">
        <ele>122</ele>
        <time>2011-05-01T08:54:04Z</time>
      </trkpt>
      <trkpt lat="47.42761" lon="0.90043">
        <ele>121</ele>
        <time>2011-05-01T08:54:05Z</time>
      </trkpt>
      <trkpt lat="47.42766" lon="0.90037">
        <ele>121</ele>
        <time>2011-05-01T08:54:06Z</time>
      </trkpt>
      <trkpt lat="47.4277" lon="0.90031">
        <ele>121</ele>
        <time>2011-05-01T08:54:07Z</time>
      </trkpt>
      <trkpt lat="47.42776" lon="0.90026">
        <ele>121</ele>
        <time>2011-05-01T08:54:08Z</time>
      </trkpt>
      <trkpt lat="47.42782" lon="0.90022">
        <ele>121</ele>
        <time>2011-05-01T08:54:09Z</time>
      </trkpt>
      <trkpt lat="47.42787" lon="0.90018">
        <ele>121</ele>
        <time>2011-05-01T08:54:10Z</time>
      </trkpt>
      <trkpt lat="47.42792" lon="0.90014">
        <ele>121</ele>
        <time>2011-05-01T08:54:11Z</time>
      </trkpt>
      <trkpt lat="47.42797" lon="0.90011">
        <ele>121</ele>
        <time>2011-05-01T08:54:12Z</time>
      </trkpt>
      <trkpt lat="47.42802" lon="0.90007">
        <ele>121</ele>
        <time>2011-05-01T08:54:13Z</time>
      </trkpt>
      <trkpt lat="47.42805" lon="0.90001">
        <ele>121</ele>
        <time>2011-05-01T08:54:14Z</time>
      </trkpt>
      <trkpt lat="47.42818" lon="0.89986">
        <ele>120</ele>
        <time>2011-05-01T08:54:17Z</time>
      </trkpt>
      <trkpt lat="47.42823" lon="0.89982">
        <ele>120</ele>
        <time>2011-05-01T08:54:18Z</time>
      </trkpt>
      <trkpt lat="47.42828" lon="0.89976">
        <ele>120</ele>
        <time>2011-05-01T08:54:19Z</time>
      </trkpt>
      <trkpt lat="47.42834" lon="0.89971">
        <ele>119</ele>
        <time>2011-05-01T08:54:20Z</time>
      </trkpt>
      <trkpt lat="47.42841" lon="0.89968">
        <ele>119</ele>
        <time>2011-05-01T08:54:21Z</time>
      </trkpt>
      <trkpt lat="47.42844" lon="0.89963">
        <ele>119</ele>
        <time>2011-05-01T08:54:22Z</time>
      </trkpt>
      <trkpt lat="47.4285" lon="0.89959">
        <ele>119</ele>
        <time>2011-05-01T08:54:23Z</time>
      </trkpt>
      <trkpt lat="47.42855" lon="0.89955">
        <ele>119</ele>
        <time>2011-05-01T08:54:24Z</time>
      </trkpt>
      <trkpt lat="47.4286" lon="0.89952">
        <ele>119</ele>
        <time>2011-05-01T08:54:25Z</time>
      </trkpt>
      <trkpt lat="47.42869" lon="0.89946">
        <ele>119</ele>
        <time>2011-05-01T08:54:27Z</time>
      </trkpt>
      <trkpt lat="47.42874" lon="0.89943">
        <ele>120</ele>
        <time>2011-05-01T08:54:28Z</time>
      </trkpt>
      <trkpt lat="47.42879" lon="0.8994">
        <ele>120</ele>
        <time>2011-05-01T08:54:29Z</time>
      </trkpt>
      <trkpt lat="47.42888" lon="0.89941">
        <ele>120</ele>
        <time>2011-05-01T08:54:31Z</time>
      </trkpt>
      <trkpt lat="47.42893" lon="0.89943">
        <ele>120</ele>
        <time>2011-05-01T08:54:32Z</time>
      </trkpt>
      <trkpt lat="47.42898" lon="0.89945">
        <ele>120</ele>
        <time>2011-05-01T08:54:33Z</time>
      </trkpt>
      <trkpt lat="47.42902" lon="0.89947">
        <ele>121</ele>
        <time>2011-05-01T08:54:34Z</time>
      </trkpt>
      <trkpt lat="47.42907" lon="0.89951">
        <ele>121</ele>
        <time>2011-05-01T08:54:35Z</time>
      </trkpt>
      <trkpt lat="47.42911" lon="0.89954">
        <ele>121</ele>
        <time>2011-05-01T08:54:36Z</time>
      </trkpt>
      <trkpt lat="47.42915" lon="0.89958">
        <ele>121</ele>
        <time>2011-05-01T08:54:37Z</time>
      </trkpt>
      <trkpt lat="47.42922" lon="0.89963">
        <ele>121</ele>
        <time>2011-05-01T08:54:39Z</time>
      </trkpt>
      <trkpt lat="47.42926" lon="0.89967">
        <ele>122</ele>
        <time>2011-05-01T08:54:40Z</time>
      </trkpt>
      <trkpt lat="47.42933" lon="0.89972">
        <ele>122</ele>
        <time>2011-05-01T08:54:42Z</time>
      </trkpt>
      <trkpt lat="47.42937" lon="0.89975">
        <ele>123</ele>
        <time>2011-05-01T08:54:43Z</time>
      </trkpt>
      <trkpt lat="47.42943" lon="0.89978">
        <ele>123</ele>
        <time>2011-05-01T08:54:44Z</time>
      </trkpt>
      <trkpt lat="47.4295" lon="0.89983">
        <ele>123</ele>
        <time>2011-05-01T08:54:46Z</time>
      </trkpt>
      <trkpt lat="47.42955" lon="0.8999">
        <ele>122</ele>
        <time>2011-05-01T08:54:48Z</time>
      </trkpt>
      <trkpt lat="47.42962" lon="0.89996">
        <ele>123</ele>
        <time>2011-05-01T08:54:50Z</time>
      </trkpt>
      <trkpt lat="47.42967" lon="0.90002">
        <ele>123</ele>
        <time>2011-05-01T08:54:52Z</time>
      </trkpt>
      <trkpt lat="47.42975" lon="0.9001">
        <ele>124</ele>
        <time>2011-05-01T08:54:54Z</time>
      </trkpt>
      <trkpt lat="47.42979" lon="0.90014">
        <ele>124</ele>
        <time>2011-05-01T08:54:55Z</time>
      </trkpt>
      <trkpt lat="47.42983" lon="0.90019">
        <ele>125</ele>
        <time>2011-05-01T08:54:56Z</time>
      </trkpt>
      <trkpt lat="47.4299" lon="0.90026">
        <ele>125</ele>
        <time>2011-05-01T08:54:58Z</time>
      </trkpt>
      <trkpt lat="47.42994" lon="0.90032">
        <ele>125</ele>
        <time>2011-05-01T08:54:59Z</time>
      </trkpt>
      <trkpt lat="47.42998" lon="0.90037">
        <ele>125</ele>
        <time>2011-05-01T08:55:00Z</time>
      </trkpt>
      <trkpt lat="47.43002" lon="0.9005">
        <ele>125</ele>
        <time>2011-05-01T08:55:02Z</time>
      </trkpt>
      <trkpt lat="47.43006" lon="0.90059">
        <ele>126</ele>
        <time>2011-05-01T08:55:04Z</time>
      </trkpt>
      <trkpt lat="47.43012" lon="0.90068">
        <ele>127</ele>
        <time>2011-05-01T08:55:06Z</time>
      </trkpt>
      <trkpt lat="47.43014" lon="0.90074">
        <ele>127</ele>
        <time>2011-05-01T08:55:07Z</time>
      </trkpt>
      <trkpt lat="47.43017" lon="0.9008">
        <ele>126</ele>
        <time>2011-05-01T08:55:08Z</time>
      </trkpt>
      <trkpt lat="47.43022" lon="0.90085">
        <ele>127</ele>
        <time>2011-05-01T08:55:09Z</time>
      </trkpt>
      <trkpt lat="47.43025" lon="0.90088">
        <ele>127</ele>
        <time>2011-05-01T08:55:10Z</time>
      </trkpt>
      <trkpt lat="47.43029" lon="0.90093">
        <ele>127</ele>
        <time>2011-05-01T08:55:11Z</time>
      </trkpt>
      <trkpt lat="47.43035" lon="0.90102">
        <ele>127</ele>
        <time>2011-05-01T08:55:13Z</time>
      </trkpt>
      <trkpt lat="47.43039" lon="0.90113">
        <ele>127</ele>
        <time>2011-05-01T08:55:15Z</time>
      </trkpt>
      <trkpt lat="47.43043" lon="0.90124">
        <ele>127</ele>
        <time>2011-05-01T08:55:17Z</time>
      </trkpt>
      <trkpt lat="47.43047" lon="0.90128">
        <ele>127</ele>
        <time>2011-05-01T08:55:18Z</time>
      </trkpt>
      <trkpt lat="47.4305" lon="0.90132">
        <ele>127</ele>
        <time>2011-05-01T08:55:19Z</time>
      </trkpt>
      <trkpt lat="47.43054" lon="0.90138">
        <ele>127</ele>
        <time>2011-05-01T08:55:20Z</time>
      </trkpt>
      <trkpt lat="47.43058" lon="0.90143">
        <ele>126</ele>
        <time>2011-05-01T08:55:21Z</time>
      </trkpt>
      <trkpt lat="47.43063" lon="0.90147">
        <ele>127</ele>
        <time>2011-05-01T08:55:22Z</time>
      </trkpt>
      <trkpt lat="47.4307" lon="0.90155">
        <ele>127</ele>
        <time>2011-05-01T08:55:24Z</time>
      </trkpt>
      <trkpt lat="47.43074" lon="0.90158">
        <ele>127</ele>
        <time>2011-05-01T08:55:25Z</time>
      </trkpt>
      <trkpt lat="47.43078" lon="0.90162">
        <ele>128</ele>
        <time>2011-05-01T08:55:27Z</time>
      </trkpt>
      <trkpt lat="47.43084" lon="0.90165">
        <ele>129</ele>
        <time>2011-05-01T08:55:29Z</time>
      </trkpt>
      <trkpt lat="47.43092" lon="0.90166">
        <ele>130</ele>
        <time>2011-05-01T08:55:32Z</time>
      </trkpt>
      <trkpt lat="47.43097" lon="0.90164">
        <ele>130</ele>
        <time>2011-05-01T08:55:33Z</time>
      </trkpt>
      <trkpt lat="47.43103" lon="0.90162">
        <ele>131</ele>
        <time>2011-05-01T08:55:35Z</time>
      </trkpt>
      <trkpt lat="47.43108" lon="0.90161">
        <ele>131</ele>
        <time>2011-05-01T08:55:36Z</time>
      </trkpt>
      <trkpt lat="47.43116" lon="0.90156">
        <ele>131</ele>
        <time>2011-05-01T08:55:38Z</time>
      </trkpt>
      <trkpt lat="47.43125" lon="0.90154">
        <ele>131</ele>
        <time>2011-05-01T08:55:40Z</time>
      </trkpt>
      <trkpt lat="47.43132" lon="0.90153">
        <ele>131</ele>
        <time>2011-05-01T08:55:42Z</time>
      </trkpt>
      <trkpt lat="47.43141" lon="0.90152">
        <ele>131</ele>
        <time>2011-05-01T08:55:44Z</time>
      </trkpt>
      <trkpt lat="47.43149" lon="0.90151">
        <ele>131</ele>
        <time>2011-05-01T08:55:46Z</time>
      </trkpt>
      <trkpt lat="47.43157" lon="0.90153">
        <ele>131</ele>
        <time>2011-05-01T08:55:48Z</time>
      </trkpt>
      <trkpt lat="47.43163" lon="0.90156">
        <ele>132</ele>
        <time>2011-05-01T08:55:50Z</time>
      </trkpt>
      <trkpt lat="47.43171" lon="0.90155">
        <ele>134</ele>
        <time>2011-05-01T08:55:52Z</time>
      </trkpt>
      <trkpt lat="47.43176" lon="0.90155">
        <ele>134</ele>
        <time>2011-05-01T08:55:53Z</time>
      </trkpt>
      <trkpt lat="47.43183" lon="0.90155">
        <ele>135</ele>
        <time>2011-05-01T08:55:55Z</time>
      </trkpt>
      <trkpt lat="47.43188" lon="0.90155">
        <ele>137</ele>
        <time>2011-05-01T08:55:57Z</time>
      </trkpt>
      <trkpt lat="47.43193" lon="0.90157">
        <ele>139</ele>
        <time>2011-05-01T08:55:59Z</time>
      </trkpt>
      <trkpt lat="47.432" lon="0.9016">
        <ele>139</ele>
        <time>2011-05-01T08:56:01Z</time>
      </trkpt>
      <trkpt lat="47.43206" lon="0.90163">
        <ele>140</ele>
        <time>2011-05-01T08:56:03Z</time>
      </trkpt>
      <trkpt lat="47.43214" lon="0.90166">
        <ele>140</ele>
        <time>2011-05-01T08:56:05Z</time>
      </trkpt>
      <trkpt lat="47.43222" lon="0.90169">
        <ele>141</ele>
        <time>2011-05-01T08:56:07Z</time>
      </trkpt>
      <trkpt lat="47.43227" lon="0.90173">
        <ele>142</ele>
        <time>2011-05-01T08:56:09Z</time>
      </trkpt>
      <trkpt lat="47.43232" lon="0.90176">
        <ele>142</ele>
        <time>2011-05-01T08:56:11Z</time>
      </trkpt>
      <trkpt lat="47.43238" lon="0.9018">
        <ele>143</ele>
        <time>2011-05-01T08:56:13Z</time>
      </trkpt>
      <trkpt lat="47.43244" lon="0.90184">
        <ele>145</ele>
        <time>2011-05-01T08:56:15Z</time>
      </trkpt>
      <trkpt lat="47.43249" lon="0.90189">
        <ele>145</ele>
        <time>2011-05-01T08:56:17Z</time>
      </trkpt>
      <trkpt lat="47.43255" lon="0.90192">
        <ele>146</ele>
        <time>2011-05-01T08:56:19Z</time>
      </trkpt>
      <trkpt lat="47.4326" lon="0.90194">
        <ele>146</ele>
        <time>2011-05-01T08:56:21Z</time>
      </trkpt>
      <trkpt lat="47.43266" lon="0.90196">
        <ele>147</ele>
        <time>2011-05-01T08:56:23Z</time>
      </trkpt>
      <trkpt lat="47.43272" lon="0.90197">
        <ele>148</ele>
        <time>2011-05-01T08:56:25Z</time>
      </trkpt>
      <trkpt lat="47.43277" lon="0.90198">
        <ele>149</ele>
        <time>2011-05-01T08:56:27Z</time>
      </trkpt>
      <trkpt lat="47.43283" lon="0.90197">
        <ele>150</ele>
        <time>2011-05-01T08:56:29Z</time>
      </trkpt>
      <trkpt lat="47.43288" lon="0.90195">
        <ele>150</ele>
        <time>2011-05-01T08:56:31Z</time>
      </trkpt>
      <trkpt lat="47.43292" lon="0.90191">
        <ele>151</ele>
        <time>2011-05-01T08:56:33Z</time>
      </trkpt>
      <trkpt lat="47.43298" lon="0.90188">
        <ele>154</ele>
        <time>2011-05-01T08:56:35Z</time>
      </trkpt>
      <trkpt lat="47.43304" lon="0.90186">
        <ele>154</ele>
        <time>2011-05-01T08:56:37Z</time>
      </trkpt>
      <trkpt lat="47.43309" lon="0.90176">
        <ele>155</ele>
        <time>2011-05-01T08:56:39Z</time>
      </trkpt>
      <trkpt lat="47.43312" lon="0.90169">
        <ele>157</ele>
        <time>2011-05-01T08:56:41Z</time>
      </trkpt>
      <trkpt lat="47.43314" lon="0.9016">
        <ele>155</ele>
        <time>2011-05-01T08:56:43Z</time>
      </trkpt>
      <trkpt lat="47.43319" lon="0.9015">
        <ele>154</ele>
        <time>2011-05-01T08:56:45Z</time>
      </trkpt>
      <trkpt lat="47.43321" lon="0.9014">
        <ele>153</ele>
        <time>2011-05-01T08:56:47Z</time>
      </trkpt>
      <trkpt lat="47.43325" lon="0.90136">
        <ele>152</ele>
        <time>2011-05-01T08:56:48Z</time>
      </trkpt>
      <trkpt lat="47.4333" lon="0.90129">
        <ele>153</ele>
        <time>2011-05-01T08:56:50Z</time>
      </trkpt>
      <trkpt lat="47.43336" lon="0.90122">
        <ele>153</ele>
        <time>2011-05-01T08:56:52Z</time>
      </trkpt>
      <trkpt lat="47.43342" lon="0.90114">
        <ele>152</ele>
        <time>2011-05-01T08:56:54Z</time>
      </trkpt>
      <trkpt lat="47.43348" lon="0.90105">
        <ele>154</ele>
        <time>2011-05-01T08:56:56Z</time>
      </trkpt>
      <trkpt lat="47.43352" lon="0.901">
        <ele>153</ele>
        <time>2011-05-01T08:56:57Z</time>
      </trkpt>
      <trkpt lat="47.43356" lon="0.9009">
        <ele>153</ele>
        <time>2011-05-01T08:56:59Z</time>
      </trkpt>
      <trkpt lat="47.43362" lon="0.90081">
        <ele>154</ele>
        <time>2011-05-01T08:57:01Z</time>
      </trkpt>
      <trkpt lat="47.43368" lon="0.90072">
        <ele>154</ele>
        <time>2011-05-01T08:57:03Z</time>
      </trkpt>
      <trkpt lat="47.43373" lon="0.90063">
        <ele>154</ele>
        <time>2011-05-01T08:57:05Z</time>
      </trkpt>
      <trkpt lat="47.43379" lon="0.90053">
        <ele>154</ele>
        <time>2011-05-01T08:57:07Z</time>
      </trkpt>
      <trkpt lat="47.43382" lon="0.90048">
        <ele>154</ele>
        <time>2011-05-01T08:57:08Z</time>
      </trkpt>
      <trkpt lat="47.43386" lon="0.90043">
        <ele>154</ele>
        <time>2011-05-01T08:57:09Z</time>
      </trkpt>
      <trkpt lat="47.4339" lon="0.90033">
        <ele>155</ele>
        <time>2011-05-01T08:57:11Z</time>
      </trkpt>
      <trkpt lat="47.43393" lon="0.90028">
        <ele>155</ele>
        <time>2011-05-01T08:57:12Z</time>
      </trkpt>
      <trkpt lat="47.43399" lon="0.90019">
        <ele>155</ele>
        <time>2011-05-01T08:57:14Z</time>
      </trkpt>
      <trkpt lat="47.43403" lon="0.90014">
        <ele>155</ele>
        <time>2011-05-01T08:57:15Z</time>
      </trkpt>
      <trkpt lat="47.43408" lon="0.90008">
        <ele>155</ele>
        <time>2011-05-01T08:57:16Z</time>
      </trkpt>
      <trkpt lat="47.43411" lon="0.90003">
        <ele>156</ele>
        <time>2011-05-01T08:57:17Z</time>
      </trkpt>
      <trkpt lat="47.43415" lon="0.89998">
        <ele>156</ele>
        <time>2011-05-01T08:57:18Z</time>
      </trkpt>
      <trkpt lat="47.43419" lon="0.89993">
        <ele>156</ele>
        <time>2011-05-01T08:57:19Z</time>
      </trkpt>
      <trkpt lat="47.43423" lon="0.89988">
        <ele>156</ele>
        <time>2011-05-01T08:57:20Z</time>
      </trkpt>
      <trkpt lat="47.43426" lon="0.89983">
        <ele>156</ele>
        <time>2011-05-01T08:57:21Z</time>
      </trkpt>
      <trkpt lat="47.4343" lon="0.89978">
        <ele>156</ele>
        <time>2011-05-01T08:57:22Z</time>
      </trkpt>
      <trkpt lat="47.43434" lon="0.89972">
        <ele>156</ele>
        <time>2011-05-01T08:57:23Z</time>
      </trkpt>
      <trkpt lat="47.43437" lon="0.89967">
        <ele>156</ele>
        <time>2011-05-01T08:57:24Z</time>
      </trkpt>
      <trkpt lat="47.43441" lon="0.89962">
        <ele>156</ele>
        <time>2011-05-01T08:57:25Z</time>
      </trkpt>
      <trkpt lat="47.43444" lon="0.89958">
        <ele>156</ele>
        <time>2011-05-01T08:57:26Z</time>
      </trkpt>
      <trkpt lat="47.43448" lon="0.89952">
        <ele>156</ele>
        <time>2011-05-01T08:57:27Z</time>
      </trkpt>
      <trkpt lat="47.43452" lon="0.89946">
        <ele>156</ele>
        <time>2011-05-01T08:57:28Z</time>
      </trkpt>
      <trkpt lat="47.43454" lon="0.8994">
        <ele>156</ele>
        <time>2011-05-01T08:57:29Z</time>
      </trkpt>
      <trkpt lat="47.43458" lon="0.89934">
        <ele>156</ele>
        <time>2011-05-01T08:57:30Z</time>
      </trkpt>
      <trkpt lat="47.43462" lon="0.89928">
        <ele>156</ele>
        <time>2011-05-01T08:57:31Z</time>
      </trkpt>
      <trkpt lat="47.43465" lon="0.89923">
        <ele>156</ele>
        <time>2011-05-01T08:57:32Z</time>
      </trkpt>
      <trkpt lat="47.43469" lon="0.89917">
        <ele>156</ele>
        <time>2011-05-01T08:57:33Z</time>
      </trkpt>
      <trkpt lat="47.43473" lon="0.89912">
        <ele>156</ele>
        <time>2011-05-01T08:57:34Z</time>
      </trkpt>
      <trkpt lat="47.43477" lon="0.89906">
        <ele>156</ele>
        <time>2011-05-01T08:57:35Z</time>
      </trkpt>
      <trkpt lat="47.4348" lon="0.89902">
        <ele>156</ele>
        <time>2011-05-01T08:57:36Z</time>
      </trkpt>
      <trkpt lat="47.43483" lon="0.89897">
        <ele>156</ele>
        <time>2011-05-01T08:57:37Z</time>
      </trkpt>
      <trkpt lat="47.43487" lon="0.89892">
        <ele>156</ele>
        <time>2011-05-01T08:57:38Z</time>
      </trkpt>
      <trkpt lat="47.43484" lon="0.89884">
        <ele>155</ele>
        <time>2011-05-01T08:57:39Z</time>
      </trkpt>
      <trkpt lat="47.43482" lon="0.89878">
        <ele>154</ele>
        <time>2011-05-01T08:57:40Z</time>
      </trkpt>
      <trkpt lat="47.43478" lon="0.89872">
        <ele>154</ele>
        <time>2011-05-01T08:57:41Z</time>
      </trkpt>
      <trkpt lat="47.43474" lon="0.89867">
        <ele>154</ele>
        <time>2011-05-01T08:57:42Z</time>
      </trkpt>
      <trkpt lat="47.4347" lon="0.89861">
        <ele>155</ele>
        <time>2011-05-01T08:57:43Z</time>
      </trkpt>
      <trkpt lat="47.43467" lon="0.89854">
        <ele>154</ele>
        <time>2011-05-01T08:57:44Z</time>
      </trkpt>
      <trkpt lat="47.43463" lon="0.89847">
        <ele>154</ele>
        <time>2011-05-01T08:57:45Z</time>
      </trkpt>
      <trkpt lat="47.43459" lon="0.8984">
        <ele>154</ele>
        <time>2011-05-01T08:57:46Z</time>
      </trkpt>
      <trkpt lat="47.43456" lon="0.89832">
        <ele>153</ele>
        <time>2011-05-01T08:57:47Z</time>
      </trkpt>
      <trkpt lat="47.43451" lon="0.89825">
        <ele>153</ele>
        <time>2011-05-01T08:57:48Z</time>
      </trkpt>
      <trkpt lat="47.43446" lon="0.89818">
        <ele>153</ele>
        <time>2011-05-01T08:57:49Z</time>
      </trkpt>
      <trkpt lat="47.43441" lon="0.89812">
        <ele>153</ele>
        <time>2011-05-01T08:57:50Z</time>
      </trkpt>
      <trkpt lat="47.43436" lon="0.89806">
        <ele>152</ele>
        <time>2011-05-01T08:57:51Z</time>
      </trkpt>
      <trkpt lat="47.43431" lon="0.898">
        <ele>152</ele>
        <time>2011-05-01T08:57:52Z</time>
      </trkpt>
      <trkpt lat="47.43425" lon="0.89795">
        <ele>152</ele>
        <time>2011-05-01T08:57:53Z</time>
      </trkpt>
      <trkpt lat="47.4342" lon="0.8979">
        <ele>152</ele>
        <time>2011-05-01T08:57:54Z</time>
      </trkpt>
      <trkpt lat="47.43414" lon="0.89785">
        <ele>152</ele>
        <time>2011-05-01T08:57:55Z</time>
      </trkpt>
      <trkpt lat="47.43409" lon="0.89782">
        <ele>152</ele>
        <time>2011-05-01T08:57:56Z</time>
      </trkpt>
      <trkpt lat="47.43402" lon="0.89778">
        <ele>152</ele>
        <time>2011-05-01T08:57:57Z</time>
      </trkpt>
      <trkpt lat="47.43396" lon="0.89775">
        <ele>152</ele>
        <time>2011-05-01T08:57:58Z</time>
      </trkpt>
      <trkpt lat="47.43391" lon="0.89769">
        <ele>152</ele>
        <time>2011-05-01T08:57:59Z</time>
      </trkpt>
      <trkpt lat="47.43386" lon="0.89765">
        <ele>152</ele>
        <time>2011-05-01T08:58:00Z</time>
      </trkpt>
      <trkpt lat="47.43382" lon="0.89761">
        <ele>152</ele>
        <time>2011-05-01T08:58:01Z</time>
      </trkpt>
      <trkpt lat="47.43377" lon="0.89757">
        <ele>152</ele>
        <time>2011-05-01T08:58:02Z</time>
      </trkpt>
      <trkpt lat="47.43371" lon="0.89752">
        <ele>151</ele>
        <time>2011-05-01T08:58:03Z</time>
      </trkpt>
      <trkpt lat="47.43366" lon="0.89746">
        <ele>151</ele>
        <time>2011-05-01T08:58:04Z</time>
      </trkpt>
      <trkpt lat="47.43362" lon="0.89741">
        <ele>151</ele>
        <time>2011-05-01T08:58:05Z</time>
      </trkpt>
      <trkpt lat="47.43357" lon="0.89734">
        <ele>151</ele>
        <time>2011-05-01T08:58:06Z</time>
      </trkpt>
      <trkpt lat="47.43354" lon="0.89729">
        <ele>151</ele>
        <time>2011-05-01T08:58:07Z</time>
      </trkpt>
      <trkpt lat="47.43347" lon="0.89724">
        <ele>151</ele>
        <time>2011-05-01T08:58:08Z</time>
      </trkpt>
      <trkpt lat="47.43342" lon="0.89718">
        <ele>151</ele>
        <time>2011-05-01T08:58:09Z</time>
      </trkpt>
      <trkpt lat="47.43336" lon="0.89713">
        <ele>151</ele>
        <time>2011-05-01T08:58:10Z</time>
      </trkpt>
      <trkpt lat="47.43331" lon="0.89708">
        <ele>151</ele>
        <time>2011-05-01T08:58:11Z</time>
      </trkpt>
      <trkpt lat="47.43325" lon="0.89704">
        <ele>151</ele>
        <time>2011-05-01T08:58:12Z</time>
      </trkpt>
      <trkpt lat="47.43319" lon="0.89701">
        <ele>151</ele>
        <time>2011-05-01T08:58:13Z</time>
      </trkpt>
      <trkpt lat="47.43313" lon="0.89698">
        <ele>151</ele>
        <time>2011-05-01T08:58:14Z</time>
      </trkpt>
      <trkpt lat="47.43307" lon="0.89694">
        <ele>150</ele>
        <time>2011-05-01T08:58:15Z</time>
      </trkpt>
      <trkpt lat="47.433" lon="0.89691">
        <ele>150</ele>
        <time>2011-05-01T08:58:16Z</time>
      </trkpt>
      <trkpt lat="47.43295" lon="0.89689">
        <ele>150</ele>
        <time>2011-05-01T08:58:17Z</time>
      </trkpt>
      <trkpt lat="47.43289" lon="0.89687">
        <ele>150</ele>
        <time>2011-05-01T08:58:18Z</time>
      </trkpt>
      <trkpt lat="47.43283" lon="0.89684">
        <ele>150</ele>
        <time>2011-05-01T08:58:19Z</time>
      </trkpt>
      <trkpt lat="47.43278" lon="0.89683">
        <ele>150</ele>
        <time>2011-05-01T08:58:20Z</time>
      </trkpt>
      <trkpt lat="47.43272" lon="0.89681">
        <ele>150</ele>
        <time>2011-05-01T08:58:21Z</time>
      </trkpt>
      <trkpt lat="47.43267" lon="0.89679">
        <ele>150</ele>
        <time>2011-05-01T08:58:22Z</time>
      </trkpt>
      <trkpt lat="47.43261" lon="0.89678">
        <ele>150</ele>
        <time>2011-05-01T08:58:23Z</time>
      </trkpt>
      <trkpt lat="47.43255" lon="0.89676">
        <ele>150</ele>
        <time>2011-05-01T08:58:24Z</time>
      </trkpt>
      <trkpt lat="47.4325" lon="0.89675">
        <ele>150</ele>
        <time>2011-05-01T08:58:25Z</time>
      </trkpt>
      <trkpt lat="47.43244" lon="0.89674">
        <ele>150</ele>
        <time>2011-05-01T08:58:26Z</time>
      </trkpt>
      <trkpt lat="47.43238" lon="0.89674">
        <ele>150</ele>
        <time>2011-05-01T08:58:27Z</time>
      </trkpt>
      <trkpt lat="47.43233" lon="0.89672">
        <ele>151</ele>
        <time>2011-05-01T08:58:28Z</time>
      </trkpt>
      <trkpt lat="47.43228" lon="0.8967">
        <ele>150</ele>
        <time>2011-05-01T08:58:29Z</time>
      </trkpt>
      <trkpt lat="47.43222" lon="0.89668">
        <ele>150</ele>
        <time>2011-05-01T08:58:30Z</time>
      </trkpt>
      <trkpt lat="47.43217" lon="0.89667">
        <ele>149</ele>
        <time>2011-05-01T08:58:31Z</time>
      </trkpt>
      <trkpt lat="47.43211" lon="0.89666">
        <ele>150</ele>
        <time>2011-05-01T08:58:32Z</time>
      </trkpt>
      <trkpt lat="47.43206" lon="0.89665">
        <ele>150</ele>
        <time>2011-05-01T08:58:33Z</time>
      </trkpt>
      <trkpt lat="47.43201" lon="0.89665">
        <ele>150</ele>
        <time>2011-05-01T08:58:34Z</time>
      </trkpt>
      <trkpt lat="47.43195" lon="0.89664">
        <ele>149</ele>
        <time>2011-05-01T08:58:35Z</time>
      </trkpt>
      <trkpt lat="47.4319" lon="0.89662">
        <ele>149</ele>
        <time>2011-05-01T08:58:36Z</time>
      </trkpt>
      <trkpt lat="47.43185" lon="0.89661">
        <ele>149</ele>
        <time>2011-05-01T08:58:37Z</time>
      </trkpt>
      <trkpt lat="47.43179" lon="0.8966">
        <ele>149</ele>
        <time>2011-05-01T08:58:38Z</time>
      </trkpt>
      <trkpt lat="47.43173" lon="0.89659">
        <ele>149</ele>
        <time>2011-05-01T08:58:39Z</time>
      </trkpt>
      <trkpt lat="47.43168" lon="0.89659">
        <ele>149</ele>
        <time>2011-05-01T08:58:40Z</time>
      </trkpt>
      <trkpt lat="47.43163" lon="0.89657">
        <ele>148</ele>
        <time>2011-05-01T08:58:41Z</time>
      </trkpt>
      <trkpt lat="47.43156" lon="0.89655">
        <ele>149</ele>
        <time>2011-05-01T08:58:42Z</time>
      </trkpt>
      <trkpt lat="47.43151" lon="0.89653">
        <ele>149</ele>
        <time>2011-05-01T08:58:43Z</time>
      </trkpt>
      <trkpt lat="47.43146" lon="0.89652">
        <ele>148</ele>
        <time>2011-05-01T08:58:44Z</time>
      </trkpt>
      <trkpt lat="47.43141" lon="0.89651">
        <ele>148</ele>
        <time>2011-05-01T08:58:45Z</time>
      </trkpt>
      <trkpt lat="47.43136" lon="0.89648">
        <ele>148</ele>
        <time>2011-05-01T08:58:46Z</time>
      </trkpt>
      <trkpt lat="47.4313" lon="0.89645">
        <ele>148</ele>
        <time>2011-05-01T08:58:47Z</time>
      </trkpt>
      <trkpt lat="47.43126" lon="0.89642">
        <ele>148</ele>
        <time>2011-05-01T08:58:48Z</time>
      </trkpt>
      <trkpt lat="47.4312" lon="0.89638">
        <ele>148</ele>
        <time>2011-05-01T08:58:49Z</time>
      </trkpt>
      <trkpt lat="47.43114" lon="0.89634">
        <ele>148</ele>
        <time>2011-05-01T08:58:50Z</time>
      </trkpt>
      <trkpt lat="47.43108" lon="0.89631">
        <ele>148</ele>
        <time>2011-05-01T08:58:51Z</time>
      </trkpt>
      <trkpt lat="47.43103" lon="0.89626">
        <ele>148</ele>
        <time>2011-05-01T08:58:52Z</time>
      </trkpt>
      <trkpt lat="47.43098" lon="0.89624">
        <ele>149</ele>
        <time>2011-05-01T08:58:53Z</time>
      </trkpt>
      <trkpt lat="47.43093" lon="0.8962">
        <ele>149</ele>
        <time>2011-05-01T08:58:54Z</time>
      </trkpt>
      <trkpt lat="47.43088" lon="0.89616">
        <ele>148</ele>
        <time>2011-05-01T08:58:55Z</time>
      </trkpt>
      <trkpt lat="47.43083" lon="0.89613">
        <ele>148</ele>
        <time>2011-05-01T08:58:56Z</time>
      </trkpt>
      <trkpt lat="47.43077" lon="0.89608">
        <ele>148</ele>
        <time>2011-05-01T08:58:57Z</time>
      </trkpt>
      <trkpt lat="47.43072" lon="0.89604">
        <ele>148</ele>
        <time>2011-05-01T08:58:58Z</time>
      </trkpt>
      <trkpt lat="47.43066" lon="0.896">
        <ele>149</ele>
        <time>2011-05-01T08:58:59Z</time>
      </trkpt>
      <trkpt lat="47.43061" lon="0.89598">
        <ele>148</ele>
        <time>2011-05-01T08:59:00Z</time>
      </trkpt>
      <trkpt lat="47.43055" lon="0.89596">
        <ele>149</ele>
        <time>2011-05-01T08:59:01Z</time>
      </trkpt>
      <trkpt lat="47.43049" lon="0.89593">
        <ele>150</ele>
        <time>2011-05-01T08:59:02Z</time>
      </trkpt>
      <trkpt lat="47.43043" lon="0.89589">
        <ele>151</ele>
        <time>2011-05-01T08:59:03Z</time>
      </trkpt>
      <trkpt lat="47.43038" lon="0.89586">
        <ele>151</ele>
        <time>2011-05-01T08:59:04Z</time>
      </trkpt>
      <trkpt lat="47.43032" lon="0.89582">
        <ele>151</ele>
        <time>2011-05-01T08:59:05Z</time>
      </trkpt>
      <trkpt lat="47.43028" lon="0.89579">
        <ele>151</ele>
        <time>2011-05-01T08:59:06Z</time>
      </trkpt>
      <trkpt lat="47.43023" lon="0.89575">
        <ele>151</ele>
        <time>2011-05-01T08:59:07Z</time>
      </trkpt>
      <trkpt lat="47.43018" lon="0.89572">
        <ele>152</ele>
        <time>2011-05-01T08:59:08Z</time>
      </trkpt>
      <trkpt lat="47.43013" lon="0.89569">
        <ele>152</ele>
        <time>2011-05-01T08:59:09Z</time>
      </trkpt>
      <trkpt lat="47.43008" lon="0.89567">
        <ele>152</ele>
        <time>2011-05-01T08:59:10Z</time>
      </trkpt>
      <trkpt lat="47.42999" lon="0.89563">
        <ele>152</ele>
        <time>2011-05-01T08:59:12Z</time>
      </trkpt>
      <trkpt lat="47.42994" lon="0.89559">
        <ele>152</ele>
        <time>2011-05-01T08:59:13Z</time>
      </trkpt>
      <trkpt lat="47.42989" lon="0.89556">
        <ele>152</ele>
        <time>2011-05-01T08:59:14Z</time>
      </trkpt>
      <trkpt lat="47.42985" lon="0.89552">
        <ele>153</ele>
        <time>2011-05-01T08:59:15Z</time>
      </trkpt>
      <trkpt lat="47.4298" lon="0.89549">
        <ele>152</ele>
        <time>2011-05-01T08:59:16Z</time>
      </trkpt>
      <trkpt lat="47.42975" lon="0.89546">
        <ele>152</ele>
        <time>2011-05-01T08:59:17Z</time>
      </trkpt>
      <trkpt lat="47.42971" lon="0.89542">
        <ele>153</ele>
        <time>2011-05-01T08:59:18Z</time>
      </trkpt>
      <trkpt lat="47.42966" lon="0.89538">
        <ele>153</ele>
        <time>2011-05-01T08:59:19Z</time>
      </trkpt>
      <trkpt lat="47.42962" lon="0.89535">
        <ele>153</ele>
        <time>2011-05-01T08:59:20Z</time>
      </trkpt>
      <trkpt lat="47.42957" lon="0.89531">
        <ele>154</ele>
        <time>2011-05-01T08:59:21Z</time>
      </trkpt>
      <trkpt lat="47.42954" lon="0.89526">
        <ele>154</ele>
        <time>2011-05-01T08:59:22Z</time>
      </trkpt>
      <trkpt lat="47.4295" lon="0.8952">
        <ele>154</ele>
        <time>2011-05-01T08:59:23Z</time>
      </trkpt>
      <trkpt lat="47.42948" lon="0.89514">
        <ele>154</ele>
        <time>2011-05-01T08:59:24Z</time>
      </trkpt>
      <trkpt lat="47.42944" lon="0.89507">
        <ele>154</ele>
        <time>2011-05-01T08:59:25Z</time>
      </trkpt>
      <trkpt lat="47.42942" lon="0.89501">
        <ele>154</ele>
        <time>2011-05-01T08:59:26Z</time>
      </trkpt>
      <trkpt lat="47.42938" lon="0.89494">
        <ele>155</ele>
        <time>2011-05-01T08:59:27Z</time>
      </trkpt>
      <trkpt lat="47.42936" lon="0.89485">
        <ele>155</ele>
        <time>2011-05-01T08:59:28Z</time>
      </trkpt>
      <trkpt lat="47.42935" lon="0.89478">
        <ele>155</ele>
        <time>2011-05-01T08:59:29Z</time>
      </trkpt>
      <trkpt lat="47.42932" lon="0.8947">
        <ele>155</ele>
        <time>2011-05-01T08:59:30Z</time>
      </trkpt>
      <trkpt lat="47.42931" lon="0.89462">
        <ele>154</ele>
        <time>2011-05-01T08:59:31Z</time>
      </trkpt>
      <trkpt lat="47.42929" lon="0.89455">
        <ele>155</ele>
        <time>2011-05-01T08:59:32Z</time>
      </trkpt>
      <trkpt lat="47.42928" lon="0.89448">
        <ele>155</ele>
        <time>2011-05-01T08:59:33Z</time>
      </trkpt>
      <trkpt lat="47.42926" lon="0.8944">
        <ele>155</ele>
        <time>2011-05-01T08:59:34Z</time>
      </trkpt>
      <trkpt lat="47.42924" lon="0.89433">
        <ele>156</ele>
        <time>2011-05-01T08:59:35Z</time>
      </trkpt>
      <trkpt lat="47.42922" lon="0.89425">
        <ele>156</ele>
        <time>2011-05-01T08:59:36Z</time>
      </trkpt>
      <trkpt lat="47.42921" lon="0.89416">
        <ele>156</ele>
        <time>2011-05-01T08:59:37Z</time>
      </trkpt>
      <trkpt lat="47.42919" lon="0.89408">
        <ele>156</ele>
        <time>2011-05-01T08:59:38Z</time>
      </trkpt>
      <trkpt lat="47.42917" lon="0.89401">
        <ele>156</ele>
        <time>2011-05-01T08:59:39Z</time>
      </trkpt>
      <trkpt lat="47.42915" lon="0.89393">
        <ele>156</ele>
        <time>2011-05-01T08:59:40Z</time>
      </trkpt>
      <trkpt lat="47.42913" lon="0.89384">
        <ele>156</ele>
        <time>2011-05-01T08:59:41Z</time>
      </trkpt>
      <trkpt lat="47.42912" lon="0.89376">
        <ele>156</ele>
        <time>2011-05-01T08:59:42Z</time>
      </trkpt>
      <trkpt lat="47.4291" lon="0.89369">
        <ele>157</ele>
        <time>2011-05-01T08:59:43Z</time>
      </trkpt>
      <trkpt lat="47.42909" lon="0.89362">
        <ele>157</ele>
        <time>2011-05-01T08:59:44Z</time>
      </trkpt>
      <trkpt lat="47.42907" lon="0.89354">
        <ele>157</ele>
        <time>2011-05-01T08:59:45Z</time>
      </trkpt>
      <trkpt lat="47.42905" lon="0.89348">
        <ele>157</ele>
        <time>2011-05-01T08:59:46Z</time>
      </trkpt>
      <trkpt lat="47.42904" lon="0.8934">
        <ele>158</ele>
        <time>2011-05-01T08:59:47Z</time>
      </trkpt>
      <trkpt lat="47.42902" lon="0.89332">
        <ele>158</ele>
        <time>2011-05-01T08:59:48Z</time>
      </trkpt>
      <trkpt lat="47.429" lon="0.89323">
        <ele>159</ele>
        <time>2011-05-01T08:59:49Z</time>
      </trkpt>
      <trkpt lat="47.42899" lon="0.89315">
        <ele>159</ele>
        <time>2011-05-01T08:59:50Z</time>
      </trkpt>
      <trkpt lat="47.42897" lon="0.89306">
        <ele>158</ele>
        <time>2011-05-01T08:59:51Z</time>
      </trkpt>
      <trkpt lat="47.42895" lon="0.89298">
        <ele>159</ele>
        <time>2011-05-01T08:59:52Z</time>
      </trkpt>
      <trkpt lat="47.42893" lon="0.8929">
        <ele>159</ele>
        <time>2011-05-01T08:59:53Z</time>
      </trkpt>
      <trkpt lat="47.42891" lon="0.8928">
        <ele>159</ele>
        <time>2011-05-01T08:59:54Z</time>
      </trkpt>
      <trkpt lat="47.4289" lon="0.89272">
        <ele>159</ele>
        <time>2011-05-01T08:59:55Z</time>
      </trkpt>
      <trkpt lat="47.42889" lon="0.89263">
        <ele>158</ele>
        <time>2011-05-01T08:59:56Z</time>
      </trkpt>
      <trkpt lat="47.42887" lon="0.89255">
        <ele>158</ele>
        <time>2011-05-01T08:59:57Z</time>
      </trkpt>
      <trkpt lat="47.42885" lon="0.89246">
        <ele>157</ele>
        <time>2011-05-01T08:59:58Z</time>
      </trkpt>
      <trkpt lat="47.42884" lon="0.89238">
        <ele>157</ele>
        <time>2011-05-01T08:59:59Z</time>
      </trkpt>
      <trkpt lat="47.42882" lon="0.89228">
        <ele>157</ele>
        <time>2011-05-01T09:00:00Z</time>
      </trkpt>
      <trkpt lat="47.4288" lon="0.89219">
        <ele>157</ele>
        <time>2011-05-01T09:00:01Z</time>
      </trkpt>
      <trkpt lat="47.42878" lon="0.89209">
        <ele>157</ele>
        <time>2011-05-01T09:00:02Z</time>
      </trkpt>
      <trkpt lat="47.42876" lon="0.892">
        <ele>157</ele>
        <time>2011-05-01T09:00:03Z</time>
      </trkpt>
      <trkpt lat="47.42874" lon="0.8919">
        <ele>156</ele>
        <time>2011-05-01T09:00:04Z</time>
      </trkpt>
      <trkpt lat="47.42872" lon="0.89181">
        <ele>157</ele>
        <time>2011-05-01T09:00:05Z</time>
      </trkpt>
      <trkpt lat="47.42871" lon="0.89172">
        <ele>157</ele>
        <time>2011-05-01T09:00:06Z</time>
      </trkpt>
      <trkpt lat="47.4287" lon="0.89162">
        <ele>157</ele>
        <time>2011-05-01T09:00:07Z</time>
      </trkpt>
      <trkpt lat="47.42868" lon="0.89153">
        <ele>157</ele>
        <time>2011-05-01T09:00:08Z</time>
      </trkpt>
      <trkpt lat="47.42866" lon="0.89144">
        <ele>157</ele>
        <time>2011-05-01T09:00:09Z</time>
      </trkpt>
      <trkpt lat="47.42865" lon="0.89135">
        <ele>157</ele>
        <time>2011-05-01T09:00:10Z</time>
      </trkpt>
      <trkpt lat="47.42864" lon="0.89126">
        <ele>156</ele>
        <time>2011-05-01T09:00:11Z</time>
      </trkpt>
      <trkpt lat="47.42864" lon="0.89118">
        <ele>156</ele>
        <time>2011-05-01T09:00:12Z</time>
      </trkpt>
      <trkpt lat="47.42865" lon="0.8911">
        <ele>156</ele>
        <time>2011-05-01T09:00:13Z</time>
      </trkpt>
      <trkpt lat="47.42867" lon="0.89102">
        <ele>156</ele>
        <time>2011-05-01T09:00:14Z</time>
      </trkpt>
      <trkpt lat="47.42873" lon="0.89098">
        <ele>156</ele>
        <time>2011-05-01T09:00:15Z</time>
      </trkpt>
      <trkpt lat="47.42879" lon="0.89091">
        <ele>156</ele>
        <time>2011-05-01T09:00:16Z</time>
      </trkpt>
      <trkpt lat="47.42884" lon="0.89084">
        <ele>156</ele>
        <time>2011-05-01T09:00:17Z</time>
      </trkpt>
      <trkpt lat="47.4288" lon="0.89073">
        <ele>156</ele>
        <time>2011-05-01T09:00:18Z</time>
      </trkpt>
      <trkpt lat="47.4288" lon="0.89064">
        <ele>156</ele>
        <time>2011-05-01T09:00:19Z</time>
      </trkpt>
      <trkpt lat="47.42879" lon="0.89054">
        <ele>156</ele>
        <time>2011-05-01T09:00:20Z</time>
      </trkpt>
      <trkpt lat="47.42878" lon="0.89044">
        <ele>156</ele>
        <time>2011-05-01T09:00:21Z</time>
      </trkpt>
      <trkpt lat="47.42877" lon="0.89035">
        <ele>155</ele>
        <time>2011-05-01T09:00:22Z</time>
      </trkpt>
      <trkpt lat="47.42879" lon="0.89026">
        <ele>155</ele>
        <time>2011-05-01T09:00:23Z</time>
      </trkpt>
      <trkpt lat="47.42884" lon="0.89018">
        <ele>155</ele>
        <time>2011-05-01T09:00:24Z</time>
      </trkpt>
      <trkpt lat="47.42886" lon="0.8901">
        <ele>155</ele>
        <time>2011-05-01T09:00:25Z</time>
      </trkpt>
      <trkpt lat="47.42891" lon="0.89002">
        <ele>155</ele>
        <time>2011-05-01T09:00:26Z</time>
      </trkpt>
      <trkpt lat="47.42895" lon="0.88993">
        <ele>154</ele>
        <time>2011-05-01T09:00:27Z</time>
      </trkpt>
      <trkpt lat="47.42901" lon="0.88986">
        <ele>154</ele>
        <time>2011-05-01T09:00:28Z</time>
      </trkpt>
      <trkpt lat="47.42906" lon="0.88977">
        <ele>154</ele>
        <time>2011-05-01T09:00:29Z</time>
      </trkpt>
      <trkpt lat="47.4291" lon="0.88967">
        <ele>154</ele>
        <time>2011-05-01T09:00:30Z</time>
      </trkpt>
      <trkpt lat="47.42916" lon="0.88958">
        <ele>154</ele>
        <time>2011-05-01T09:00:31Z</time>
      </trkpt>
      <trkpt lat="47.42921" lon="0.8895">
        <ele>154</ele>
        <time>2011-05-01T09:00:32Z</time>
      </trkpt>
      <trkpt lat="47.42926" lon="0.88942">
        <ele>154</ele>
        <time>2011-05-01T09:00:33Z</time>
      </trkpt>
      <trkpt lat="47.4293" lon="0.88933">
        <ele>153</ele>
        <time>2011-05-01T09:00:34Z</time>
      </trkpt>
      <trkpt lat="47.42935" lon="0.88924">
        <ele>153</ele>
        <time>2011-05-01T09:00:35Z</time>
      </trkpt>
      <trkpt lat="47.42935" lon="0.88915">
        <ele>153</ele>
        <time>2011-05-01T09:00:36Z</time>
      </trkpt>
      <trkpt lat="47.42935" lon="0.88904">
        <ele>152</ele>
        <time>2011-05-01T09:00:37Z</time>
      </trkpt>
      <trkpt lat="47.42931" lon="0.88892">
        <ele>152</ele>
        <time>2011-05-01T09:00:38Z</time>
      </trkpt>
      <trkpt lat="47.42926" lon="0.8888">
        <ele>150</ele>
        <time>2011-05-01T09:00:39Z</time>
      </trkpt>
      <trkpt lat="47.42925" lon="0.8887">
        <ele>150</ele>
        <time>2011-05-01T09:00:40Z</time>
      </trkpt>
      <trkpt lat="47.42923" lon="0.88859">
        <ele>149</ele>
        <time>2011-05-01T09:00:41Z</time>
      </trkpt>
      <trkpt lat="47.42922" lon="0.88848">
        <ele>148</ele>
        <time>2011-05-01T09:00:42Z</time>
      </trkpt>
      <trkpt lat="47.42918" lon="0.88835">
        <ele>148</ele>
        <time>2011-05-01T09:00:43Z</time>
      </trkpt>
      <trkpt lat="47.42916" lon="0.88822">
        <ele>148</ele>
        <time>2011-05-01T09:00:44Z</time>
      </trkpt>
      <trkpt lat="47.42912" lon="0.88809">
        <ele>149</ele>
        <time>2011-05-01T09:00:45Z</time>
      </trkpt>
      <trkpt lat="47.42905" lon="0.88796">
        <ele>149</ele>
        <time>2011-05-01T09:00:46Z</time>
      </trkpt>
      <trkpt lat="47.42898" lon="0.88783">
        <ele>149</ele>
        <time>2011-05-01T09:00:47Z</time>
      </trkpt>
      <trkpt lat="47.42893" lon="0.88772">
        <ele>149</ele>
        <time>2011-05-01T09:00:48Z</time>
      </trkpt>
      <trkpt lat="47.42887" lon="0.88762">
        <ele>149</ele>
        <time>2011-05-01T09:00:49Z</time>
      </trkpt>
      <trkpt lat="47.4288" lon="0.88755">
        <ele>148</ele>
        <time>2011-05-01T09:00:50Z</time>
      </trkpt>
      <trkpt lat="47.42873" lon="0.88744">
        <ele>148</ele>
        <time>2011-05-01T09:00:51Z</time>
      </trkpt>
      <trkpt lat="47.42866" lon="0.88736">
        <ele>148</ele>
        <time>2011-05-01T09:00:52Z</time>
      </trkpt>
      <trkpt lat="47.42857" lon="0.88727">
        <ele>148</ele>
        <time>2011-05-01T09:00:53Z</time>
      </trkpt>
      <trkpt lat="47.42849" lon="0.88719">
        <ele>148</ele>
        <time>2011-05-01T09:00:54Z</time>
      </trkpt>
      <trkpt lat="47.42839" lon="0.88713">
        <ele>149</ele>
        <time>2011-05-01T09:00:55Z</time>
      </trkpt>
      <trkpt lat="47.42832" lon="0.88706">
        <ele>148</ele>
        <time>2011-05-01T09:00:56Z</time>
      </trkpt>
      <trkpt lat="47.42823" lon="0.88702">
        <ele>148</ele>
        <time>2011-05-01T09:00:57Z</time>
      </trkpt>
      <trkpt lat="47.42815" lon="0.88697">
        <ele>148</ele>
        <time>2011-05-01T09:00:58Z</time>
      </trkpt>
      <trkpt lat="47.42807" lon="0.88691">
        <ele>148</ele>
        <time>2011-05-01T09:00:59Z</time>
      </trkpt>
      <trkpt lat="47.42796" lon="0.88686">
        <ele>148</ele>
        <time>2011-05-01T09:01:00Z</time>
      </trkpt>
      <trkpt lat="47.42784" lon="0.8868">
        <ele>147</ele>
        <time>2011-05-01T09:01:01Z</time>
      </trkpt>
      <trkpt lat="47.42772" lon="0.88677">
        <ele>146</ele>
        <time>2011-05-01T09:01:02Z</time>
      </trkpt>
      <trkpt lat="47.42761" lon="0.88674">
        <ele>145</ele>
        <time>2011-05-01T09:01:03Z</time>
      </trkpt>
      <trkpt lat="47.42748" lon="0.88672">
        <ele>145</ele>
        <time>2011-05-01T09:01:04Z</time>
      </trkpt>
      <trkpt lat="47.42736" lon="0.88673">
        <ele>144</ele>
        <time>2011-05-01T09:01:05Z</time>
      </trkpt>
      <trkpt lat="47.42723" lon="0.88673">
        <ele>143</ele>
        <time>2011-05-01T09:01:06Z</time>
      </trkpt>
      <trkpt lat="47.42715" lon="0.88685">
        <ele>141</ele>
        <time>2011-05-01T09:01:07Z</time>
      </trkpt>
      <trkpt lat="47.42706" lon="0.88692">
        <ele>141</ele>
        <time>2011-05-01T09:01:08Z</time>
      </trkpt>
      <trkpt lat="47.42695" lon="0.88698">
        <ele>139</ele>
        <time>2011-05-01T09:01:09Z</time>
      </trkpt>
      <trkpt lat="47.42685" lon="0.88705">
        <ele>139</ele>
        <time>2011-05-01T09:01:10Z</time>
      </trkpt>
      <trkpt lat="47.42675" lon="0.8871">
        <ele>139</ele>
        <time>2011-05-01T09:01:11Z</time>
      </trkpt>
      <trkpt lat="47.42664" lon="0.88714">
        <ele>140</ele>
        <time>2011-05-01T09:01:12Z</time>
      </trkpt>
      <trkpt lat="47.42655" lon="0.88723">
        <ele>139</ele>
        <time>2011-05-01T09:01:13Z</time>
      </trkpt>
      <trkpt lat="47.42644" lon="0.88731">
        <ele>139</ele>
        <time>2011-05-01T09:01:14Z</time>
      </trkpt>
      <trkpt lat="47.42636" lon="0.88738">
        <ele>138</ele>
        <time>2011-05-01T09:01:15Z</time>
      </trkpt>
      <trkpt lat="47.42619" lon="0.8875">
        <ele>135</ele>
        <time>2011-05-01T09:01:17Z</time>
      </trkpt>
      <trkpt lat="47.4261" lon="0.88758">
        <ele>133</ele>
        <time>2011-05-01T09:01:18Z</time>
      </trkpt>
      <trkpt lat="47.42602" lon="0.88763">
        <ele>132</ele>
        <time>2011-05-01T09:01:19Z</time>
      </trkpt>
      <trkpt lat="47.42593" lon="0.88773">
        <ele>131</ele>
        <time>2011-05-01T09:01:20Z</time>
      </trkpt>
      <trkpt lat="47.42586" lon="0.8878">
        <ele>130</ele>
        <time>2011-05-01T09:01:21Z</time>
      </trkpt>
      <trkpt lat="47.42577" lon="0.88787">
        <ele>130</ele>
        <time>2011-05-01T09:01:22Z</time>
      </trkpt>
      <trkpt lat="47.42569" lon="0.88793">
        <ele>129</ele>
        <time>2011-05-01T09:01:23Z</time>
      </trkpt>
      <trkpt lat="47.4256" lon="0.88799">
        <ele>128</ele>
        <time>2011-05-01T09:01:24Z</time>
      </trkpt>
      <trkpt lat="47.4255" lon="0.88805">
        <ele>127</ele>
        <time>2011-05-01T09:01:25Z</time>
      </trkpt>
      <trkpt lat="47.42542" lon="0.88811">
        <ele>127</ele>
        <time>2011-05-01T09:01:26Z</time>
      </trkpt>
      <trkpt lat="47.42532" lon="0.88818">
        <ele>127</ele>
        <time>2011-05-01T09:01:27Z</time>
      </trkpt>
      <trkpt lat="47.42524" lon="0.88824">
        <ele>127</ele>
        <time>2011-05-01T09:01:28Z</time>
      </trkpt>
      <trkpt lat="47.42516" lon="0.88831">
        <ele>126</ele>
        <time>2011-05-01T09:01:29Z</time>
      </trkpt>
      <trkpt lat="47.42508" lon="0.88835">
        <ele>126</ele>
        <time>2011-05-01T09:01:30Z</time>
      </trkpt>
      <trkpt lat="47.425" lon="0.88841">
        <ele>125</ele>
        <time>2011-05-01T09:01:31Z</time>
      </trkpt>
      <trkpt lat="47.42494" lon="0.88848">
        <ele>125</ele>
        <time>2011-05-01T09:01:32Z</time>
      </trkpt>
      <trkpt lat="47.42487" lon="0.88856">
        <ele>125</ele>
        <time>2011-05-01T09:01:33Z</time>
      </trkpt>
      <trkpt lat="47.42479" lon="0.88861">
        <ele>124</ele>
        <time>2011-05-01T09:01:34Z</time>
      </trkpt>
      <trkpt lat="47.42471" lon="0.88866">
        <ele>124</ele>
        <time>2011-05-01T09:01:35Z</time>
      </trkpt>
      <trkpt lat="47.42462" lon="0.88872">
        <ele>123</ele>
        <time>2011-05-01T09:01:36Z</time>
      </trkpt>
      <trkpt lat="47.42454" lon="0.88876">
        <ele>123</ele>
        <time>2011-05-01T09:01:37Z</time>
      </trkpt>
      <trkpt lat="47.42449" lon="0.88879">
        <ele>123</ele>
        <time>2011-05-01T09:01:38Z</time>
      </trkpt>
      <trkpt lat="47.42444" lon="0.88881">
        <ele>123</ele>
        <time>2011-05-01T09:01:39Z</time>
      </trkpt>
      <trkpt lat="47.42438" lon="0.8888">
        <ele>123</ele>
        <time>2011-05-01T09:01:41Z</time>
      </trkpt>
      <trkpt lat="47.42437" lon="0.8887">
        <ele>123</ele>
        <time>2011-05-01T09:01:44Z</time>
      </trkpt>
      <trkpt lat="47.42431" lon="0.8886">
        <ele>122</ele>
        <time>2011-05-01T09:01:46Z</time>
      </trkpt>
      <trkpt lat="47.42426" lon="0.88853">
        <ele>121</ele>
        <time>2011-05-01T09:01:48Z</time>
      </trkpt>
      <trkpt lat="47.42422" lon="0.88848">
        <ele>121</ele>
        <time>2011-05-01T09:01:50Z</time>
      </trkpt>
      <trkpt lat="47.42418" lon="0.88842">
        <ele>121</ele>
        <time>2011-05-01T09:01:52Z</time>
      </trkpt>
      <trkpt lat="47.42414" lon="0.88836">
        <ele>121</ele>
        <time>2011-05-01T09:01:54Z</time>
      </trkpt>
      <trkpt lat="47.42408" lon="0.88829">
        <ele>121</ele>
        <time>2011-05-01T09:01:57Z</time>
      </trkpt>
      <trkpt lat="47.42405" lon="0.88822">
        <ele>121</ele>
        <time>2011-05-01T09:01:59Z</time>
      </trkpt>
      <trkpt lat="47.42401" lon="0.88813">
        <ele>121</ele>
        <time>2011-05-01T09:02:01Z</time>
      </trkpt>
      <trkpt lat="47.42396" lon="0.88806">
        <ele>121</ele>
        <time>2011-05-01T09:02:03Z</time>
      </trkpt>
      <trkpt lat="47.42394" lon="0.88797">
        <ele>121</ele>
        <time>2011-05-01T09:02:06Z</time>
      </trkpt>
      <trkpt lat="47.42391" lon="0.8879">
        <ele>122</ele>
        <time>2011-05-01T09:02:08Z</time>
      </trkpt>
      <trkpt lat="47.42387" lon="0.88782">
        <ele>122</ele>
        <time>2011-05-01T09:02:11Z</time>
      </trkpt>
      <trkpt lat="47.42382" lon="0.88779">
        <ele>122</ele>
        <time>2011-05-01T09:02:14Z</time>
      </trkpt>
      <trkpt lat="47.42378" lon="0.88774">
        <ele>123</ele>
        <time>2011-05-01T09:02:18Z</time>
      </trkpt>
      <trkpt lat="47.42375" lon="0.88766">
        <ele>124</ele>
        <time>2011-05-01T09:02:22Z</time>
      </trkpt>
      <trkpt lat="47.42372" lon="0.88758">
        <ele>124</ele>
        <time>2011-05-01T09:02:25Z</time>
      </trkpt>
      <trkpt lat="47.42369" lon="0.88754">
        <ele>125</ele>
        <time>2011-05-01T09:02:27Z</time>
      </trkpt>
      <trkpt lat="47.42367" lon="0.88747">
        <ele>125</ele>
        <time>2011-05-01T09:02:29Z</time>
      </trkpt>
      <trkpt lat="47.42365" lon="0.88737">
        <ele>125</ele>
        <time>2011-05-01T09:02:32Z</time>
      </trkpt>
      <trkpt lat="47.42363" lon="0.88731">
        <ele>127</ele>
        <time>2011-05-01T09:02:34Z</time>
      </trkpt>
      <trkpt lat="47.42362" lon="0.88723">
        <ele>128</ele>
        <time>2011-05-01T09:02:36Z</time>
      </trkpt>
      <trkpt lat="47.4236" lon="0.88716">
        <ele>130</ele>
        <time>2011-05-01T09:02:38Z</time>
      </trkpt>
      <trkpt lat="47.42357" lon="0.88707">
        <ele>133</ele>
        <time>2011-05-01T09:02:40Z</time>
      </trkpt>
      <trkpt lat="47.42357" lon="0.88697">
        <ele>134</ele>
        <time>2011-05-01T09:02:43Z</time>
      </trkpt>
      <trkpt lat="47.42355" lon="0.8869">
        <ele>135</ele>
        <time>2011-05-01T09:02:45Z</time>
      </trkpt>
      <trkpt lat="47.42355" lon="0.88679">
        <ele>136</ele>
        <time>2011-05-01T09:02:48Z</time>
      </trkpt>
      <trkpt lat="47.42354" lon="0.8867">
        <ele>137</ele>
        <time>2011-05-01T09:02:50Z</time>
      </trkpt>
      <trkpt lat="47.42354" lon="0.88659">
        <ele>137</ele>
        <time>2011-05-01T09:02:52Z</time>
      </trkpt>
      <trkpt lat="47.42352" lon="0.8865">
        <ele>137</ele>
        <time>2011-05-01T09:02:54Z</time>
      </trkpt>
      <trkpt lat="47.4235" lon="0.88641">
        <ele>138</ele>
        <time>2011-05-01T09:02:56Z</time>
      </trkpt>
      <trkpt lat="47.42348" lon="0.88632">
        <ele>140</ele>
        <time>2011-05-01T09:02:58Z</time>
      </trkpt>
      <trkpt lat="47.42347" lon="0.88623">
        <ele>141</ele>
        <time>2011-05-01T09:03:00Z</time>
      </trkpt>
      <trkpt lat="47.42345" lon="0.88613">
        <ele>142</ele>
        <time>2011-05-01T09:03:02Z</time>
      </trkpt>
      <trkpt lat="47.42343" lon="0.88601">
        <ele>143</ele>
        <time>2011-05-01T09:03:04Z</time>
      </trkpt>
      <trkpt lat="47.42341" lon="0.88588">
        <ele>144</ele>
        <time>2011-05-01T09:03:06Z</time>
      </trkpt>
      <trkpt lat="47.42339" lon="0.88576">
        <ele>144</ele>
        <time>2011-05-01T09:03:08Z</time>
      </trkpt>
      <trkpt lat="47.42338" lon="0.88564">
        <ele>145</ele>
        <time>2011-05-01T09:03:10Z</time>
      </trkpt>
      <trkpt lat="47.42338" lon="0.88551">
        <ele>145</ele>
        <time>2011-05-01T09:03:12Z</time>
      </trkpt>
      <trkpt lat="47.42337" lon="0.88544">
        <ele>145</ele>
        <time>2011-05-01T09:03:13Z</time>
      </trkpt>
      <trkpt lat="47.42335" lon="0.88531">
        <ele>146</ele>
        <time>2011-05-01T09:03:15Z</time>
      </trkpt>
      <trkpt lat="47.42336" lon="0.88524">
        <ele>145</ele>
        <time>2011-05-01T09:03:16Z</time>
      </trkpt>
      <trkpt lat="47.42335" lon="0.88511">
        <ele>145</ele>
        <time>2011-05-01T09:03:18Z</time>
      </trkpt>
      <trkpt lat="47.42335" lon="0.88504">
        <ele>147</ele>
        <time>2011-05-01T09:03:19Z</time>
      </trkpt>
      <trkpt lat="47.42334" lon="0.88497">
        <ele>147</ele>
        <time>2011-05-01T09:03:20Z</time>
      </trkpt>
      <trkpt lat="47.42335" lon="0.88483">
        <ele>148</ele>
        <time>2011-05-01T09:03:22Z</time>
      </trkpt>
      <trkpt lat="47.42334" lon="0.88476">
        <ele>149</ele>
        <time>2011-05-01T09:03:23Z</time>
      </trkpt>
      <trkpt lat="47.42333" lon="0.88468">
        <ele>149</ele>
        <time>2011-05-01T09:03:24Z</time>
      </trkpt>
      <trkpt lat="47.42331" lon="0.88462">
        <ele>150</ele>
        <time>2011-05-01T09:03:25Z</time>
      </trkpt>
      <trkpt lat="47.4233" lon="0.88448">
        <ele>150</ele>
        <time>2011-05-01T09:03:27Z</time>
      </trkpt>
      <trkpt lat="47.4233" lon="0.88441">
        <ele>150</ele>
        <time>2011-05-01T09:03:28Z</time>
      </trkpt>
      <trkpt lat="47.4233" lon="0.88434">
        <ele>150</ele>
        <time>2011-05-01T09:03:29Z</time>
      </trkpt>
      <trkpt lat="47.42329" lon="0.88426">
        <ele>150</ele>
        <time>2011-05-01T09:03:30Z</time>
      </trkpt>
      <trkpt lat="47.42328" lon="0.8842">
        <ele>150</ele>
        <time>2011-05-01T09:03:31Z</time>
      </trkpt>
      <trkpt lat="47.42327" lon="0.88412">
        <ele>150</ele>
        <time>2011-05-01T09:03:32Z</time>
      </trkpt>
      <trkpt lat="47.42327" lon="0.88404">
        <ele>150</ele>
        <time>2011-05-01T09:03:33Z</time>
      </trkpt>
      <trkpt lat="47.42328" lon="0.88396">
        <ele>150</ele>
        <time>2011-05-01T09:03:34Z</time>
      </trkpt>
      <trkpt lat="47.4233" lon="0.88389">
        <ele>150</ele>
        <time>2011-05-01T09:03:35Z</time>
      </trkpt>
      <trkpt lat="47.42331" lon="0.88381">
        <ele>150</ele>
        <time>2011-05-01T09:03:36Z</time>
      </trkpt>
      <trkpt lat="47.42332" lon="0.88373">
        <ele>149</ele>
        <time>2011-05-01T09:03:37Z</time>
      </trkpt>
      <trkpt lat="47.42334" lon="0.88366">
        <ele>149</ele>
        <time>2011-05-01T09:03:38Z</time>
      </trkpt>
      <trkpt lat="47.42338" lon="0.88359">
        <ele>149</ele>
        <time>2011-05-01T09:03:39Z</time>
      </trkpt>
      <trkpt lat="47.4234" lon="0.88351">
        <ele>149</ele>
        <time>2011-05-01T09:03:40Z</time>
      </trkpt>
      <trkpt lat="47.42343" lon="0.88345">
        <ele>149</ele>
        <time>2011-05-01T09:03:41Z</time>
      </trkpt>
      <trkpt lat="47.42351" lon="0.88337">
        <ele>148</ele>
        <time>2011-05-01T09:03:43Z</time>
      </trkpt>
      <trkpt lat="47.42359" lon="0.88334">
        <ele>148</ele>
        <time>2011-05-01T09:03:45Z</time>
      </trkpt>
      <trkpt lat="47.42364" lon="0.88332">
        <ele>148</ele>
        <time>2011-05-01T09:03:46Z</time>
      </trkpt>
      <trkpt lat="47.42372" lon="0.88329">
        <ele>148</ele>
        <time>2011-05-01T09:03:48Z</time>
      </trkpt>
      <trkpt lat="47.4238" lon="0.88326">
        <ele>147</ele>
        <time>2011-05-01T09:03:50Z</time>
      </trkpt>
      <trkpt lat="47.42382" lon="0.88318">
        <ele>147</ele>
        <time>2011-05-01T09:03:51Z</time>
      </trkpt>
      <trkpt lat="47.42387" lon="0.88311">
        <ele>147</ele>
        <time>2011-05-01T09:03:53Z</time>
      </trkpt>
      <trkpt lat="47.4239" lon="0.88305">
        <ele>146</ele>
        <time>2011-05-01T09:03:55Z</time>
      </trkpt>
      <trkpt lat="47.42384" lon="0.88302">
        <ele>145</ele>
        <time>2011-05-01T09:03:56Z</time>
      </trkpt>
      <trkpt lat="47.42377" lon="0.88297">
        <ele>144</ele>
        <time>2011-05-01T09:03:58Z</time>
      </trkpt>
      <trkpt lat="47.42372" lon="0.88294">
        <ele>143</ele>
        <time>2011-05-01T09:03:59Z</time>
      </trkpt>
      <trkpt lat="47.42366" lon="0.88291">
        <ele>143</ele>
        <time>2011-05-01T09:04:00Z</time>
      </trkpt>
      <trkpt lat="47.4236" lon="0.88288">
        <ele>142</ele>
        <time>2011-05-01T09:04:01Z</time>
      </trkpt>
      <trkpt lat="47.42353" lon="0.88283">
        <ele>141</ele>
        <time>2011-05-01T09:04:02Z</time>
      </trkpt>
      <trkpt lat="47.42346" lon="0.88278">
        <ele>141</ele>
        <time>2011-05-01T09:04:03Z</time>
      </trkpt>
      <trkpt lat="47.42339" lon="0.88274">
        <ele>140</ele>
        <time>2011-05-01T09:04:04Z</time>
      </trkpt>
      <trkpt lat="47.42333" lon="0.88271">
        <ele>138</ele>
        <time>2011-05-01T09:04:05Z</time>
      </trkpt>
      <trkpt lat="47.42328" lon="0.88268">
        <ele>138</ele>
        <time>2011-05-01T09:04:06Z</time>
      </trkpt>
      <trkpt lat="47.42322" lon="0.88264">
        <ele>138</ele>
        <time>2011-05-01T09:04:07Z</time>
      </trkpt>
      <trkpt lat="47.42314" lon="0.88261">
        <ele>137</ele>
        <time>2011-05-01T09:04:09Z</time>
      </trkpt>
      <trkpt lat="47.42311" lon="0.88252">
        <ele>137</ele>
        <time>2011-05-01T09:04:11Z</time>
      </trkpt>
      <trkpt lat="47.42313" lon="0.88242">
        <ele>137</ele>
        <time>2011-05-01T09:04:13Z</time>
      </trkpt>
      <trkpt lat="47.42318" lon="0.88236">
        <ele>137</ele>
        <time>2011-05-01T09:04:15Z</time>
      </trkpt>
      <trkpt lat="47.42325" lon="0.88228">
        <ele>137</ele>
        <time>2011-05-01T09:04:17Z</time>
      </trkpt>
      <trkpt lat="47.42328" lon="0.88221">
        <ele>137</ele>
        <time>2011-05-01T09:04:19Z</time>
      </trkpt>
      <trkpt lat="47.42332" lon="0.88212">
        <ele>139</ele>
        <time>2011-05-01T09:04:21Z</time>
      </trkpt>
      <trkpt lat="47.42338" lon="0.88204">
        <ele>140</ele>
        <time>2011-05-01T09:04:23Z</time>
      </trkpt>
      <trkpt lat="47.42343" lon="0.88197">
        <ele>139</ele>
        <time>2011-05-01T09:04:25Z</time>
      </trkpt>
      <trkpt lat="47.42348" lon="0.8819">
        <ele>140</ele>
        <time>2011-05-01T09:04:27Z</time>
      </trkpt>
      <trkpt lat="47.42353" lon="0.88188">
        <ele>141</ele>
        <time>2011-05-01T09:04:29Z</time>
      </trkpt>
      <trkpt lat="47.42358" lon="0.88184">
        <ele>143</ele>
        <time>2011-05-01T09:04:31Z</time>
      </trkpt>
      <trkpt lat="47.42364" lon="0.88183">
        <ele>144</ele>
        <time>2011-05-01T09:04:33Z</time>
      </trkpt>
      <trkpt lat="47.4237" lon="0.88179">
        <ele>144</ele>
        <time>2011-05-01T09:04:35Z</time>
      </trkpt>
      <trkpt lat="47.42374" lon="0.88175">
        <ele>143</ele>
        <time>2011-05-01T09:04:37Z</time>
      </trkpt>
      <trkpt lat="47.4238" lon="0.88172">
        <ele>143</ele>
        <time>2011-05-01T09:04:39Z</time>
      </trkpt>
      <trkpt lat="47.42386" lon="0.88169">
        <ele>143</ele>
        <time>2011-05-01T09:04:41Z</time>
      </trkpt>
      <trkpt lat="47.42392" lon="0.88165">
        <ele>144</ele>
        <time>2011-05-01T09:04:43Z</time>
      </trkpt>
      <trkpt lat="47.42397" lon="0.8816">
        <ele>144</ele>
        <time>2011-05-01T09:04:45Z</time>
      </trkpt>
      <trkpt lat="47.42402" lon="0.88156">
        <ele>144</ele>
        <time>2011-05-01T09:04:47Z</time>
      </trkpt>
      <trkpt lat="47.42407" lon="0.88151">
        <ele>144</ele>
        <time>2011-05-01T09:04:49Z</time>
      </trkpt>
      <trkpt lat="47.42413" lon="0.88148">
        <ele>144</ele>
        <time>2011-05-01T09:04:51Z</time>
      </trkpt>
      <trkpt lat="47.42418" lon="0.88143">
        <ele>145</ele>
        <time>2011-05-01T09:04:53Z</time>
      </trkpt>
      <trkpt lat="47.42423" lon="0.88138">
        <ele>145</ele>
        <time>2011-05-01T09:04:55Z</time>
      </trkpt>
      <trkpt lat="47.42429" lon="0.88133">
        <ele>145</ele>
        <time>2011-05-01T09:04:57Z</time>
      </trkpt>
      <trkpt lat="47.42435" lon="0.88128">
        <ele>145</ele>
        <time>2011-05-01T09:04:59Z</time>
      </trkpt>
      <trkpt lat="47.4244" lon="0.88124">
        <ele>145</ele>
        <time>2011-05-01T09:05:01Z</time>
      </trkpt>
      <trkpt lat="47.42446" lon="0.88119">
        <ele>145</ele>
        <time>2011-05-01T09:05:03Z</time>
      </trkpt>
      <trkpt lat="47.42451" lon="0.88114">
        <ele>145</ele>
        <time>2011-05-01T09:05:05Z</time>
      </trkpt>
      <trkpt lat="47.42456" lon="0.88109">
        <ele>145</ele>
        <time>2011-05-01T09:05:07Z</time>
      </trkpt>
      <trkpt lat="47.4246" lon="0.88103">
        <ele>145</ele>
        <time>2011-05-01T09:05:09Z</time>
      </trkpt>
      <trkpt lat="47.42465" lon="0.88098">
        <ele>146</ele>
        <time>2011-05-01T09:05:11Z</time>
      </trkpt>
      <trkpt lat="47.4247" lon="0.88091">
        <ele>146</ele>
        <time>2011-05-01T09:05:13Z</time>
      </trkpt>
      <trkpt lat="47.42475" lon="0.88086">
        <ele>147</ele>
        <time>2011-05-01T09:05:15Z</time>
      </trkpt>
      <trkpt lat="47.42481" lon="0.8808">
        <ele>147</ele>
        <time>2011-05-01T09:05:17Z</time>
      </trkpt>
      <trkpt lat="47.42486" lon="0.88074">
        <ele>149</ele>
        <time>2011-05-01T09:05:19Z</time>
      </trkpt>
      <trkpt lat="47.4249" lon="0.88065">
        <ele>151</ele>
        <time>2011-05-01T09:05:21Z</time>
      </trkpt>
      <trkpt lat="47.4249" lon="0.88056">
        <ele>151</ele>
        <time>2011-05-01T09:05:23Z</time>
      </trkpt>
      <trkpt lat="47.42488" lon="0.88047">
        <ele>152</ele>
        <time>2011-05-01T09:05:25Z</time>
      </trkpt>
      <trkpt lat="47.42486" lon="0.88037">
        <ele>152</ele>
        <time>2011-05-01T09:05:27Z</time>
      </trkpt>
      <trkpt lat="47.42483" lon="0.88026">
        <ele>153</ele>
        <time>2011-05-01T09:05:29Z</time>
      </trkpt>
      <trkpt lat="47.42481" lon="0.88016">
        <ele>153</ele>
        <time>2011-05-01T09:05:31Z</time>
      </trkpt>
      <trkpt lat="47.42479" lon="0.88004">
        <ele>153</ele>
        <time>2011-05-01T09:05:33Z</time>
      </trkpt>
      <trkpt lat="47.42477" lon="0.87992">
        <ele>153</ele>
        <time>2011-05-01T09:05:35Z</time>
      </trkpt>
      <trkpt lat="47.42475" lon="0.87986">
        <ele>152</ele>
        <time>2011-05-01T09:05:36Z</time>
      </trkpt>
      <trkpt lat="47.42472" lon="0.87975">
        <ele>153</ele>
        <time>2011-05-01T09:05:38Z</time>
      </trkpt>
      <trkpt lat="47.42469" lon="0.87964">
        <ele>154</ele>
        <time>2011-05-01T09:05:40Z</time>
      </trkpt>
      <trkpt lat="47.42462" lon="0.87959">
        <ele>154</ele>
        <time>2011-05-01T09:05:42Z</time>
      </trkpt>
      <trkpt lat="47.42457" lon="0.87959">
        <ele>154</ele>
        <time>2011-05-01T09:05:43Z</time>
      </trkpt>
      <trkpt lat="47.42448" lon="0.87964">
        <ele>153</ele>
        <time>2011-05-01T09:05:45Z</time>
      </trkpt>
      <trkpt lat="47.42443" lon="0.87966">
        <ele>153</ele>
        <time>2011-05-01T09:05:46Z</time>
      </trkpt>
      <trkpt lat="47.42435" lon="0.8797">
        <ele>153</ele>
        <time>2011-05-01T09:05:48Z</time>
      </trkpt>
      <trkpt lat="47.4243" lon="0.87973">
        <ele>153</ele>
        <time>2011-05-01T09:05:49Z</time>
      </trkpt>
      <trkpt lat="47.42426" lon="0.87975">
        <ele>153</ele>
        <time>2011-05-01T09:05:50Z</time>
      </trkpt>
      <trkpt lat="47.42421" lon="0.87977">
        <ele>153</ele>
        <time>2011-05-01T09:05:51Z</time>
      </trkpt>
      <trkpt lat="47.42413" lon="0.87981">
        <ele>153</ele>
        <time>2011-05-01T09:05:53Z</time>
      </trkpt>
      <trkpt lat="47.42405" lon="0.87984">
        <ele>153</ele>
        <time>2011-05-01T09:05:55Z</time>
      </trkpt>
      <trkpt lat="47.42396" lon="0.87986">
        <ele>153</ele>
        <time>2011-05-01T09:05:57Z</time>
      </trkpt>
      <trkpt lat="47.42388" lon="0.87988">
        <ele>153</ele>
        <time>2011-05-01T09:05:59Z</time>
      </trkpt>
      <trkpt lat="47.42383" lon="0.87988">
        <ele>153</ele>
        <time>2011-05-01T09:06:00Z</time>
      </trkpt>
      <trkpt lat="47.42374" lon="0.8799">
        <ele>153</ele>
        <time>2011-05-01T09:06:02Z</time>
      </trkpt>
      <trkpt lat="47.42366" lon="0.87991">
        <ele>152</ele>
        <time>2011-05-01T09:06:04Z</time>
      </trkpt>
      <trkpt lat="47.42357" lon="0.87992">
        <ele>152</ele>
        <time>2011-05-01T09:06:06Z</time>
      </trkpt>
      <trkpt lat="47.42353" lon="0.87988">
        <ele>151</ele>
        <time>2011-05-01T09:06:07Z</time>
      </trkpt>
      <trkpt lat="47.42348" lon="0.87983">
        <ele>152</ele>
        <time>2011-05-01T09:06:09Z</time>
      </trkpt>
      <trkpt lat="47.42347" lon="0.87973">
        <ele>152</ele>
        <time>2011-05-01T09:06:11Z</time>
      </trkpt>
      <trkpt lat="47.42349" lon="0.87961">
        <ele>153</ele>
        <time>2011-05-01T09:06:13Z</time>
      </trkpt>
      <trkpt lat="47.4235" lon="0.87948">
        <ele>154</ele>
        <time>2011-05-01T09:06:15Z</time>
      </trkpt>
      <trkpt lat="47.42352" lon="0.87935">
        <ele>154</ele>
        <time>2011-05-01T09:06:17Z</time>
      </trkpt>
      <trkpt lat="47.42352" lon="0.87922">
        <ele>155</ele>
        <time>2011-05-01T09:06:19Z</time>
      </trkpt>
      <trkpt lat="47.42352" lon="0.87915">
        <ele>155</ele>
        <time>2011-05-01T09:06:20Z</time>
      </trkpt>
      <trkpt lat="47.42352" lon="0.87907">
        <ele>156</ele>
        <time>2011-05-01T09:06:21Z</time>
      </trkpt>
      <trkpt lat="47.42353" lon="0.879">
        <ele>155</ele>
        <time>2011-05-01T09:06:22Z</time>
      </trkpt>
      <trkpt lat="47.42352" lon="0.87893">
        <ele>155</ele>
        <time>2011-05-01T09:06:23Z</time>
      </trkpt>
      <trkpt lat="47.42352" lon="0.87885">
        <ele>156</ele>
        <time>2011-05-01T09:06:24Z</time>
      </trkpt>
      <trkpt lat="47.42352" lon="0.87877">
        <ele>156</ele>
        <time>2011-05-01T09:06:25Z</time>
      </trkpt>
      <trkpt lat="47.42352" lon="0.87863">
        <ele>156</ele>
        <time>2011-05-01T09:06:27Z</time>
      </trkpt>
      <trkpt lat="47.42352" lon="0.87856">
        <ele>156</ele>
        <time>2011-05-01T09:06:28Z</time>
      </trkpt>
      <trkpt lat="47.42351" lon="0.87848">
        <ele>156</ele>
        <time>2011-05-01T09:06:29Z</time>
      </trkpt>
      <trkpt lat="47.4235" lon="0.87841">
        <ele>156</ele>
        <time>2011-05-01T09:06:30Z</time>
      </trkpt>
      <trkpt lat="47.42349" lon="0.87834">
        <ele>156</ele>
        <time>2011-05-01T09:06:31Z</time>
      </trkpt>
      <trkpt lat="47.42348" lon="0.87826">
        <ele>155</ele>
        <time>2011-05-01T09:06:32Z</time>
      </trkpt>
      <trkpt lat="47.42347" lon="0.87818">
        <ele>155</ele>
        <time>2011-05-01T09:06:33Z</time>
      </trkpt>
      <trkpt lat="47.42346" lon="0.8781">
        <ele>155</ele>
        <time>2011-05-01T09:06:34Z</time>
      </trkpt>
      <trkpt lat="47.42344" lon="0.87803">
        <ele>155</ele>
        <time>2011-05-01T09:06:35Z</time>
      </trkpt>
      <trkpt lat="47.42342" lon="0.87794">
        <ele>155</ele>
        <time>2011-05-01T09:06:36Z</time>
      </trkpt>
      <trkpt lat="47.42342" lon="0.87786">
        <ele>155</ele>
        <time>2011-05-01T09:06:37Z</time>
      </trkpt>
      <trkpt lat="47.42341" lon="0.87778">
        <ele>155</ele>
        <time>2011-05-01T09:06:38Z</time>
      </trkpt>
      <trkpt lat="47.42339" lon="0.8777">
        <ele>156</ele>
        <time>2011-05-01T09:06:39Z</time>
      </trkpt>
      <trkpt lat="47.42338" lon="0.87762">
        <ele>155</ele>
        <time>2011-05-01T09:06:40Z</time>
      </trkpt>
      <trkpt lat="47.42337" lon="0.87755">
        <ele>155</ele>
        <time>2011-05-01T09:06:41Z</time>
      </trkpt>
      <trkpt lat="47.42336" lon="0.87747">
        <ele>156</ele>
        <time>2011-05-01T09:06:42Z</time>
      </trkpt>
      <trkpt lat="47.42335" lon="0.87739">
        <ele>155</ele>
        <time>2011-05-01T09:06:43Z</time>
      </trkpt>
      <trkpt lat="47.42333" lon="0.87731">
        <ele>155</ele>
        <time>2011-05-01T09:06:44Z</time>
      </trkpt>
      <trkpt lat="47.42332" lon="0.87723">
        <ele>156</ele>
        <time>2011-05-01T09:06:45Z</time>
      </trkpt>
      <trkpt lat="47.42331" lon="0.87716">
        <ele>156</ele>
        <time>2011-05-01T09:06:46Z</time>
      </trkpt>
      <trkpt lat="47.42329" lon="0.87707">
        <ele>156</ele>
        <time>2011-05-01T09:06:47Z</time>
      </trkpt>
      <trkpt lat="47.42327" lon="0.87698">
        <ele>155</ele>
        <time>2011-05-01T09:06:48Z</time>
      </trkpt>
      <trkpt lat="47.42326" lon="0.8769">
        <ele>156</ele>
        <time>2011-05-01T09:06:49Z</time>
      </trkpt>
      <trkpt lat="47.42326" lon="0.87682">
        <ele>157</ele>
        <time>2011-05-01T09:06:50Z</time>
      </trkpt>
      <trkpt lat="47.42324" lon="0.87673">
        <ele>157</ele>
        <time>2011-05-01T09:06:51Z</time>
      </trkpt>
      <trkpt lat="47.42323" lon="0.87665">
        <ele>156</ele>
        <time>2011-05-01T09:06:52Z</time>
      </trkpt>
      <trkpt lat="47.42322" lon="0.87657">
        <ele>156</ele>
        <time>2011-05-01T09:06:53Z</time>
      </trkpt>
      <trkpt lat="47.42321" lon="0.87648">
        <ele>156</ele>
        <time>2011-05-01T09:06:54Z</time>
      </trkpt>
      <trkpt lat="47.4232" lon="0.87639">
        <ele>156</ele>
        <time>2011-05-01T09:06:55Z</time>
      </trkpt>
      <trkpt lat="47.42319" lon="0.8763">
        <ele>156</ele>
        <time>2011-05-01T09:06:56Z</time>
      </trkpt>
      <trkpt lat="47.42319" lon="0.87622">
        <ele>156</ele>
        <time>2011-05-01T09:06:57Z</time>
      </trkpt>
      <trkpt lat="47.42318" lon="0.87613">
        <ele>155</ele>
        <time>2011-05-01T09:06:58Z</time>
      </trkpt>
      <trkpt lat="47.42317" lon="0.87605">
        <ele>155</ele>
        <time>2011-05-01T09:06:59Z</time>
      </trkpt>
      <trkpt lat="47.42316" lon="0.87596">
        <ele>155</ele>
        <time>2011-05-01T09:07:00Z</time>
      </trkpt>
      <trkpt lat="47.42315" lon="0.87588">
        <ele>154</ele>
        <time>2011-05-01T09:07:01Z</time>
      </trkpt>
      <trkpt lat="47.42314" lon="0.87578">
        <ele>155</ele>
        <time>2011-05-01T09:07:02Z</time>
      </trkpt>
      <trkpt lat="47.42313" lon="0.87569">
        <ele>155</ele>
        <time>2011-05-01T09:07:03Z</time>
      </trkpt>
      <trkpt lat="47.42312" lon="0.8756">
        <ele>155</ele>
        <time>2011-05-01T09:07:04Z</time>
      </trkpt>
      <trkpt lat="47.42312" lon="0.87552">
        <ele>155</ele>
        <time>2011-05-01T09:07:05Z</time>
      </trkpt>
      <trkpt lat="47.42311" lon="0.87543">
        <ele>155</ele>
        <time>2011-05-01T09:07:06Z</time>
      </trkpt>
      <trkpt lat="47.42311" lon="0.87535">
        <ele>154</ele>
        <time>2011-05-01T09:07:07Z</time>
      </trkpt>
      <trkpt lat="47.4231" lon="0.87527">
        <ele>154</ele>
        <time>2011-05-01T09:07:08Z</time>
      </trkpt>
      <trkpt lat="47.42308" lon="0.87518">
        <ele>153</ele>
        <time>2011-05-01T09:07:09Z</time>
      </trkpt>
      <trkpt lat="47.42305" lon="0.87511">
        <ele>154</ele>
        <time>2011-05-01T09:07:10Z</time>
      </trkpt>
      <trkpt lat="47.42303" lon="0.87503">
        <ele>154</ele>
        <time>2011-05-01T09:07:11Z</time>
      </trkpt>
      <trkpt lat="47.42301" lon="0.87495">
        <ele>154</ele>
        <time>2011-05-01T09:07:12Z</time>
      </trkpt>
      <trkpt lat="47.42299" lon="0.87487">
        <ele>154</ele>
        <time>2011-05-01T09:07:13Z</time>
      </trkpt>
      <trkpt lat="47.42299" lon="0.8748">
        <ele>154</ele>
        <time>2011-05-01T09:07:14Z</time>
      </trkpt>
      <trkpt lat="47.42297" lon="0.87472">
        <ele>154</ele>
        <time>2011-05-01T09:07:15Z</time>
      </trkpt>
      <trkpt lat="47.42296" lon="0.87464">
        <ele>155</ele>
        <time>2011-05-01T09:07:16Z</time>
      </trkpt>
      <trkpt lat="47.42296" lon="0.87456">
        <ele>154</ele>
        <time>2011-05-01T09:07:17Z</time>
      </trkpt>
      <trkpt lat="47.42294" lon="0.87448">
        <ele>154</ele>
        <time>2011-05-01T09:07:18Z</time>
      </trkpt>
      <trkpt lat="47.42293" lon="0.8744">
        <ele>154</ele>
        <time>2011-05-01T09:07:19Z</time>
      </trkpt>
      <trkpt lat="47.42292" lon="0.87433">
        <ele>154</ele>
        <time>2011-05-01T09:07:20Z</time>
      </trkpt>
      <trkpt lat="47.42291" lon="0.87424">
        <ele>154</ele>
        <time>2011-05-01T09:07:21Z</time>
      </trkpt>
      <trkpt lat="47.4229" lon="0.87416">
        <ele>154</ele>
        <time>2011-05-01T09:07:22Z</time>
      </trkpt>
      <trkpt lat="47.42289" lon="0.87407">
        <ele>154</ele>
        <time>2011-05-01T09:07:23Z</time>
      </trkpt>
      <trkpt lat="47.42288" lon="0.87398">
        <ele>153</ele>
        <time>2011-05-01T09:07:24Z</time>
      </trkpt>
      <trkpt lat="47.42286" lon="0.87389">
        <ele>153</ele>
        <time>2011-05-01T09:07:25Z</time>
      </trkpt>
      <trkpt lat="47.42285" lon="0.8738">
        <ele>154</ele>
        <time>2011-05-01T09:07:26Z</time>
      </trkpt>
      <trkpt lat="47.42283" lon="0.87371">
        <ele>154</ele>
        <time>2011-05-01T09:07:27Z</time>
      </trkpt>
      <trkpt lat="47.42284" lon="0.87363">
        <ele>153</ele>
        <time>2011-05-01T09:07:28Z</time>
      </trkpt>
      <trkpt lat="47.42283" lon="0.87354">
        <ele>153</ele>
        <time>2011-05-01T09:07:29Z</time>
      </trkpt>
      <trkpt lat="47.42282" lon="0.87346">
        <ele>153</ele>
        <time>2011-05-01T09:07:30Z</time>
      </trkpt>
      <trkpt lat="47.42282" lon="0.87338">
        <ele>153</ele>
        <time>2011-05-01T09:07:31Z</time>
      </trkpt>
      <trkpt lat="47.42282" lon="0.8733">
        <ele>153</ele>
        <time>2011-05-01T09:07:32Z</time>
      </trkpt>
      <trkpt lat="47.42281" lon="0.87322">
        <ele>153</ele>
        <time>2011-05-01T09:07:33Z</time>
      </trkpt>
      <trkpt lat="47.4228" lon="0.87314">
        <ele>153</ele>
        <time>2011-05-01T09:07:34Z</time>
      </trkpt>
      <trkpt lat="47.4228" lon="0.87306">
        <ele>153</ele>
        <time>2011-05-01T09:07:35Z</time>
      </trkpt>
      <trkpt lat="47.42279" lon="0.87298">
        <ele>153</ele>
        <time>2011-05-01T09:07:36Z</time>
      </trkpt>
      <trkpt lat="47.42278" lon="0.8729">
        <ele>154</ele>
        <time>2011-05-01T09:07:37Z</time>
      </trkpt>
      <trkpt lat="47.42277" lon="0.87283">
        <ele>154</ele>
        <time>2011-05-01T09:07:38Z</time>
      </trkpt>
      <trkpt lat="47.42276" lon="0.87276">
        <ele>154</ele>
        <time>2011-05-01T09:07:39Z</time>
      </trkpt>
      <trkpt lat="47.4227" lon="0.87268">
        <ele>155</ele>
        <time>2011-05-01T09:07:41Z</time>
      </trkpt>
      <trkpt lat="47.42263" lon="0.87266">
        <ele>154</ele>
        <time>2011-05-01T09:07:43Z</time>
      </trkpt>
      <trkpt lat="47.42258" lon="0.87269">
        <ele>154</ele>
        <time>2011-05-01T09:07:44Z</time>
      </trkpt>
      <trkpt lat="47.42253" lon="0.87271">
        <ele>154</ele>
        <time>2011-05-01T09:07:45Z</time>
      </trkpt>
      <trkpt lat="47.42248" lon="0.87274">
        <ele>153</ele>
        <time>2011-05-01T09:07:46Z</time>
      </trkpt>
      <trkpt lat="47.42244" lon="0.87276">
        <ele>153</ele>
        <time>2011-05-01T09:07:47Z</time>
      </trkpt>
      <trkpt lat="47.42239" lon="0.87278">
        <ele>153</ele>
        <time>2011-05-01T09:07:48Z</time>
      </trkpt>
      <trkpt lat="47.42234" lon="0.87281">
        <ele>153</ele>
        <time>2011-05-01T09:07:49Z</time>
      </trkpt>
      <trkpt lat="47.42228" lon="0.87283">
        <ele>153</ele>
        <time>2011-05-01T09:07:50Z</time>
      </trkpt>
      <trkpt lat="47.42223" lon="0.87286">
        <ele>153</ele>
        <time>2011-05-01T09:07:51Z</time>
      </trkpt>
      <trkpt lat="47.42217" lon="0.87287">
        <ele>152</ele>
        <time>2011-05-01T09:07:52Z</time>
      </trkpt>
      <trkpt lat="47.42212" lon="0.8729">
        <ele>152</ele>
        <time>2011-05-01T09:07:53Z</time>
      </trkpt>
      <trkpt lat="47.42206" lon="0.87292">
        <ele>152</ele>
        <time>2011-05-01T09:07:54Z</time>
      </trkpt>
      <trkpt lat="47.42201" lon="0.87294">
        <ele>151</ele>
        <time>2011-05-01T09:07:55Z</time>
      </trkpt>
      <trkpt lat="47.42195" lon="0.87297">
        <ele>151</ele>
        <time>2011-05-01T09:07:56Z</time>
      </trkpt>
      <trkpt lat="47.4219" lon="0.87299">
        <ele>151</ele>
        <time>2011-05-01T09:07:57Z</time>
      </trkpt>
      <trkpt lat="47.42184" lon="0.87301">
        <ele>150</ele>
        <time>2011-05-01T09:07:58Z</time>
      </trkpt>
      <trkpt lat="47.42178" lon="0.87302">
        <ele>150</ele>
        <time>2011-05-01T09:07:59Z</time>
      </trkpt>
      <trkpt lat="47.42172" lon="0.87303">
        <ele>150</ele>
        <time>2011-05-01T09:08:00Z</time>
      </trkpt>
      <trkpt lat="47.42167" lon="0.87304">
        <ele>150</ele>
        <time>2011-05-01T09:08:01Z</time>
      </trkpt>
      <trkpt lat="47.42162" lon="0.87304">
        <ele>149</ele>
        <time>2011-05-01T09:08:02Z</time>
      </trkpt>
      <trkpt lat="47.42157" lon="0.87305">
        <ele>149</ele>
        <time>2011-05-01T09:08:03Z</time>
      </trkpt>
      <trkpt lat="47.42152" lon="0.87301">
        <ele>149</ele>
        <time>2011-05-01T09:08:04Z</time>
      </trkpt>
      <trkpt lat="47.42146" lon="0.87292">
        <ele>149</ele>
        <time>2011-05-01T09:08:06Z</time>
      </trkpt>
      <trkpt lat="47.42145" lon="0.87281">
        <ele>149</ele>
        <time>2011-05-01T09:08:08Z</time>
      </trkpt>
      <trkpt lat="47.42145" lon="0.87268">
        <ele>149</ele>
        <time>2011-05-01T09:08:10Z</time>
      </trkpt>
      <trkpt lat="47.42145" lon="0.87259">
        <ele>149</ele>
        <time>2011-05-01T09:08:11Z</time>
      </trkpt>
      <trkpt lat="47.42144" lon="0.87252">
        <ele>149</ele>
        <time>2011-05-01T09:08:12Z</time>
      </trkpt>
      <trkpt lat="47.42144" lon="0.87243">
        <ele>149</ele>
        <time>2011-05-01T09:08:13Z</time>
      </trkpt>
      <trkpt lat="47.42144" lon="0.87235">
        <ele>149</ele>
        <time>2011-05-01T09:08:14Z</time>
      </trkpt>
      <trkpt lat="47.42144" lon="0.87228">
        <ele>150</ele>
        <time>2011-05-01T09:08:15Z</time>
      </trkpt>
      <trkpt lat="47.42143" lon="0.87211">
        <ele>150</ele>
        <time>2011-05-01T09:08:17Z</time>
      </trkpt>
      <trkpt lat="47.42143" lon="0.87202">
        <ele>151</ele>
        <time>2011-05-01T09:08:18Z</time>
      </trkpt>
      <trkpt lat="47.42142" lon="0.87195">
        <ele>151</ele>
        <time>2011-05-01T09:08:19Z</time>
      </trkpt>
      <trkpt lat="47.42142" lon="0.87187">
        <ele>151</ele>
        <time>2011-05-01T09:08:20Z</time>
      </trkpt>
      <trkpt lat="47.42141" lon="0.87179">
        <ele>151</ele>
        <time>2011-05-01T09:08:21Z</time>
      </trkpt>
      <trkpt lat="47.42142" lon="0.8717">
        <ele>151</ele>
        <time>2011-05-01T09:08:22Z</time>
      </trkpt>
      <trkpt lat="47.42142" lon="0.87162">
        <ele>152</ele>
        <time>2011-05-01T09:08:23Z</time>
      </trkpt>
      <trkpt lat="47.42142" lon="0.87155">
        <ele>152</ele>
        <time>2011-05-01T09:08:24Z</time>
      </trkpt>
      <trkpt lat="47.42143" lon="0.87146">
        <ele>152</ele>
        <time>2011-05-01T09:08:25Z</time>
      </trkpt>
      <trkpt lat="47.42143" lon="0.8714">
        <ele>153</ele>
        <time>2011-05-01T09:08:26Z</time>
      </trkpt>
      <trkpt lat="47.42144" lon="0.87132">
        <ele>153</ele>
        <time>2011-05-01T09:08:27Z</time>
      </trkpt>
      <trkpt lat="47.42145" lon="0.87124">
        <ele>153</ele>
        <time>2011-05-01T09:08:28Z</time>
      </trkpt>
      <trkpt lat="47.42146" lon="0.87115">
        <ele>154</ele>
        <time>2011-05-01T09:08:29Z</time>
      </trkpt>
      <trkpt lat="47.42146" lon="0.87107">
        <ele>154</ele>
        <time>2011-05-01T09:08:30Z</time>
      </trkpt>
      <trkpt lat="47.42147" lon="0.87099">
        <ele>154</ele>
        <time>2011-05-01T09:08:31Z</time>
      </trkpt>
      <trkpt lat="47.42148" lon="0.8709">
        <ele>154</ele>
        <time>2011-05-01T09:08:32Z</time>
      </trkpt>
      <trkpt lat="47.42148" lon="0.87082">
        <ele>154</ele>
        <time>2011-05-01T09:08:33Z</time>
      </trkpt>
      <trkpt lat="47.42148" lon="0.87074">
        <ele>154</ele>
        <time>2011-05-01T09:08:34Z</time>
      </trkpt>
      <trkpt lat="47.42149" lon="0.87066">
        <ele>154</ele>
        <time>2011-05-01T09:08:35Z</time>
      </trkpt>
      <trkpt lat="47.42148" lon="0.87059">
        <ele>155</ele>
        <time>2011-05-01T09:08:36Z</time>
      </trkpt>
      <trkpt lat="47.42148" lon="0.8705">
        <ele>155</ele>
        <time>2011-05-01T09:08:37Z</time>
      </trkpt>
      <trkpt lat="47.42148" lon="0.87042">
        <ele>155</ele>
        <time>2011-05-01T09:08:38Z</time>
      </trkpt>
      <trkpt lat="47.42148" lon="0.87033">
        <ele>155</ele>
        <time>2011-05-01T09:08:39Z</time>
      </trkpt>
      <trkpt lat="47.42147" lon="0.87024">
        <ele>155</ele>
        <time>2011-05-01T09:08:40Z</time>
      </trkpt>
      <trkpt lat="47.42146" lon="0.87016">
        <ele>155</ele>
        <time>2011-05-01T09:08:41Z</time>
      </trkpt>
      <trkpt lat="47.42145" lon="0.87007">
        <ele>155</ele>
        <time>2011-05-01T09:08:42Z</time>
      </trkpt>
      <trkpt lat="47.42144" lon="0.86998">
        <ele>155</ele>
        <time>2011-05-01T09:08:43Z</time>
      </trkpt>
      <trkpt lat="47.42143" lon="0.8699">
        <ele>155</ele>
        <time>2011-05-01T09:08:44Z</time>
      </trkpt>
      <trkpt lat="47.42142" lon="0.8698">
        <ele>155</ele>
        <time>2011-05-01T09:08:45Z</time>
      </trkpt>
      <trkpt lat="47.42141" lon="0.86973">
        <ele>155</ele>
        <time>2011-05-01T09:08:46Z</time>
      </trkpt>
      <trkpt lat="47.42139" lon="0.86963">
        <ele>155</ele>
        <time>2011-05-01T09:08:47Z</time>
      </trkpt>
      <trkpt lat="47.42137" lon="0.86954">
        <ele>155</ele>
        <time>2011-05-01T09:08:48Z</time>
      </trkpt>
      <trkpt lat="47.42136" lon="0.86945">
        <ele>155</ele>
        <time>2011-05-01T09:08:49Z</time>
      </trkpt>
      <trkpt lat="47.42136" lon="0.86935">
        <ele>155</ele>
        <time>2011-05-01T09:08:50Z</time>
      </trkpt>
      <trkpt lat="47.42134" lon="0.86926">
        <ele>154</ele>
        <time>2011-05-01T09:08:51Z</time>
      </trkpt>
      <trkpt lat="47.42132" lon="0.86917">
        <ele>155</ele>
        <time>2011-05-01T09:08:52Z</time>
      </trkpt>
      <trkpt lat="47.4213" lon="0.86908">
        <ele>154</ele>
        <time>2011-05-01T09:08:53Z</time>
      </trkpt>
      <trkpt lat="47.42129" lon="0.86899">
        <ele>154</ele>
        <time>2011-05-01T09:08:54Z</time>
      </trkpt>
      <trkpt lat="47.42127" lon="0.8689">
        <ele>154</ele>
        <time>2011-05-01T09:08:55Z</time>
      </trkpt>
      <trkpt lat="47.42126" lon="0.86882">
        <ele>154</ele>
        <time>2011-05-01T09:08:56Z</time>
      </trkpt>
      <trkpt lat="47.42125" lon="0.86872">
        <ele>154</ele>
        <time>2011-05-01T09:08:57Z</time>
      </trkpt>
      <trkpt lat="47.42123" lon="0.86863">
        <ele>154</ele>
        <time>2011-05-01T09:08:58Z</time>
      </trkpt>
      <trkpt lat="47.42122" lon="0.86853">
        <ele>154</ele>
        <time>2011-05-01T09:08:59Z</time>
      </trkpt>
      <trkpt lat="47.42121" lon="0.86844">
        <ele>154</ele>
        <time>2011-05-01T09:09:00Z</time>
      </trkpt>
      <trkpt lat="47.42119" lon="0.86835">
        <ele>154</ele>
        <time>2011-05-01T09:09:01Z</time>
      </trkpt>
      <trkpt lat="47.42118" lon="0.86826">
        <ele>154</ele>
        <time>2011-05-01T09:09:02Z</time>
      </trkpt>
      <trkpt lat="47.42116" lon="0.86816">
        <ele>155</ele>
        <time>2011-05-01T09:09:03Z</time>
      </trkpt>
      <trkpt lat="47.42114" lon="0.86807">
        <ele>155</ele>
        <time>2011-05-01T09:09:04Z</time>
      </trkpt>
      <trkpt lat="47.42113" lon="0.86798">
        <ele>155</ele>
        <time>2011-05-01T09:09:05Z</time>
      </trkpt>
      <trkpt lat="47.42112" lon="0.86789">
        <ele>155</ele>
        <time>2011-05-01T09:09:06Z</time>
      </trkpt>
      <trkpt lat="47.42111" lon="0.86781">
        <ele>155</ele>
        <time>2011-05-01T09:09:07Z</time>
      </trkpt>
      <trkpt lat="47.4211" lon="0.86772">
        <ele>155</ele>
        <time>2011-05-01T09:09:08Z</time>
      </trkpt>
      <trkpt lat="47.42108" lon="0.86763">
        <ele>155</ele>
        <time>2011-05-01T09:09:09Z</time>
      </trkpt>
      <trkpt lat="47.42107" lon="0.86753">
        <ele>155</ele>
        <time>2011-05-01T09:09:10Z</time>
      </trkpt>
      <trkpt lat="47.42105" lon="0.86745">
        <ele>155</ele>
        <time>2011-05-01T09:09:11Z</time>
      </trkpt>
      <trkpt lat="47.42104" lon="0.86736">
        <ele>155</ele>
        <time>2011-05-01T09:09:12Z</time>
      </trkpt>
      <trkpt lat="47.42102" lon="0.86725">
        <ele>154</ele>
        <time>2011-05-01T09:09:13Z</time>
      </trkpt>
      <trkpt lat="47.421" lon="0.86716">
        <ele>154</ele>
        <time>2011-05-01T09:09:14Z</time>
      </trkpt>
      <trkpt lat="47.42099" lon="0.86708">
        <ele>154</ele>
        <time>2011-05-01T09:09:15Z</time>
      </trkpt>
      <trkpt lat="47.42097" lon="0.86698">
        <ele>154</ele>
        <time>2011-05-01T09:09:16Z</time>
      </trkpt>
      <trkpt lat="47.42096" lon="0.86689">
        <ele>153</ele>
        <time>2011-05-01T09:09:17Z</time>
      </trkpt>
      <trkpt lat="47.42094" lon="0.86679">
        <ele>153</ele>
        <time>2011-05-01T09:09:18Z</time>
      </trkpt>
      <trkpt lat="47.42093" lon="0.8667">
        <ele>153</ele>
        <time>2011-05-01T09:09:19Z</time>
      </trkpt>
      <trkpt lat="47.42092" lon="0.8666">
        <ele>152</ele>
        <time>2011-05-01T09:09:20Z</time>
      </trkpt>
      <trkpt lat="47.4209" lon="0.86651">
        <ele>153</ele>
        <time>2011-05-01T09:09:21Z</time>
      </trkpt>
      <trkpt lat="47.42089" lon="0.86642">
        <ele>153</ele>
        <time>2011-05-01T09:09:22Z</time>
      </trkpt>
      <trkpt lat="47.42087" lon="0.86632">
        <ele>153</ele>
        <time>2011-05-01T09:09:23Z</time>
      </trkpt>
      <trkpt lat="47.42087" lon="0.86623">
        <ele>152</ele>
        <time>2011-05-01T09:09:24Z</time>
      </trkpt>
      <trkpt lat="47.42086" lon="0.86612">
        <ele>152</ele>
        <time>2011-05-01T09:09:25Z</time>
      </trkpt>
      <trkpt lat="47.42085" lon="0.86603">
        <ele>152</ele>
        <time>2011-05-01T09:09:26Z</time>
      </trkpt>
      <trkpt lat="47.42085" lon="0.86594">
        <ele>152</ele>
        <time>2011-05-01T09:09:27Z</time>
      </trkpt>
      <trkpt lat="47.42084" lon="0.86584">
        <ele>152</ele>
        <time>2011-05-01T09:09:28Z</time>
      </trkpt>
      <trkpt lat="47.42083" lon="0.86576">
        <ele>152</ele>
        <time>2011-05-01T09:09:29Z</time>
      </trkpt>
      <trkpt lat="47.42083" lon="0.86567">
        <ele>152</ele>
        <time>2011-05-01T09:09:30Z</time>
      </trkpt>
      <trkpt lat="47.42082" lon="0.86558">
        <ele>152</ele>
        <time>2011-05-01T09:09:31Z</time>
      </trkpt>
      <trkpt lat="47.42081" lon="0.86548">
        <ele>153</ele>
        <time>2011-05-01T09:09:32Z</time>
      </trkpt>
      <trkpt lat="47.4208" lon="0.86539">
        <ele>153</ele>
        <time>2011-05-01T09:09:33Z</time>
      </trkpt>
      <trkpt lat="47.4208" lon="0.86531">
        <ele>153</ele>
        <time>2011-05-01T09:09:34Z</time>
      </trkpt>
      <trkpt lat="47.42079" lon="0.86523">
        <ele>153</ele>
        <time>2011-05-01T09:09:35Z</time>
      </trkpt>
      <trkpt lat="47.42078" lon="0.86516">
        <ele>153</ele>
        <time>2011-05-01T09:09:36Z</time>
      </trkpt>
      <trkpt lat="47.42077" lon="0.86508">
        <ele>153</ele>
        <time>2011-05-01T09:09:37Z</time>
      </trkpt>
      <trkpt lat="47.42075" lon="0.865">
        <ele>153</ele>
        <time>2011-05-01T09:09:38Z</time>
      </trkpt>
      <trkpt lat="47.42072" lon="0.86492">
        <ele>153</ele>
        <time>2011-05-01T09:09:39Z</time>
      </trkpt>
      <trkpt lat="47.42068" lon="0.86482">
        <ele>152</ele>
        <time>2011-05-01T09:09:40Z</time>
      </trkpt>
      <trkpt lat="47.42064" lon="0.86473">
        <ele>152</ele>
        <time>2011-05-01T09:09:41Z</time>
      </trkpt>
      <trkpt lat="47.42062" lon="0.86464">
        <ele>153</ele>
        <time>2011-05-01T09:09:42Z</time>
      </trkpt>
      <trkpt lat="47.4206" lon="0.86455">
        <ele>153</ele>
        <time>2011-05-01T09:09:43Z</time>
      </trkpt>
      <trkpt lat="47.42058" lon="0.86448">
        <ele>153</ele>
        <time>2011-05-01T09:09:44Z</time>
      </trkpt>
      <trkpt lat="47.42055" lon="0.86439">
        <ele>152</ele>
        <time>2011-05-01T09:09:45Z</time>
      </trkpt>
      <trkpt lat="47.42053" lon="0.8643">
        <ele>153</ele>
        <time>2011-05-01T09:09:46Z</time>
      </trkpt>
      <trkpt lat="47.42051" lon="0.86421">
        <ele>153</ele>
        <time>2011-05-01T09:09:47Z</time>
      </trkpt>
      <trkpt lat="47.42049" lon="0.86413">
        <ele>152</ele>
        <time>2011-05-01T09:09:48Z</time>
      </trkpt>
      <trkpt lat="47.42047" lon="0.86404">
        <ele>151</ele>
        <time>2011-05-01T09:09:49Z</time>
      </trkpt>
      <trkpt lat="47.42045" lon="0.86394">
        <ele>151</ele>
        <time>2011-05-01T09:09:50Z</time>
      </trkpt>
      <trkpt lat="47.42043" lon="0.86384">
        <ele>151</ele>
        <time>2011-05-01T09:09:51Z</time>
      </trkpt>
      <trkpt lat="47.42041" lon="0.86374">
        <ele>151</ele>
        <time>2011-05-01T09:09:52Z</time>
      </trkpt>
      <trkpt lat="47.42038" lon="0.86364">
        <ele>151</ele>
        <time>2011-05-01T09:09:53Z</time>
      </trkpt>
      <trkpt lat="47.42037" lon="0.86355">
        <ele>151</ele>
        <time>2011-05-01T09:09:54Z</time>
      </trkpt>
      <trkpt lat="47.42034" lon="0.86346">
        <ele>151</ele>
        <time>2011-05-01T09:09:55Z</time>
      </trkpt>
      <trkpt lat="47.42033" lon="0.86336">
        <ele>150</ele>
        <time>2011-05-01T09:09:56Z</time>
      </trkpt>
      <trkpt lat="47.42033" lon="0.86326">
        <ele>151</ele>
        <time>2011-05-01T09:09:57Z</time>
      </trkpt>
      <trkpt lat="47.42032" lon="0.86317">
        <ele>150</ele>
        <time>2011-05-01T09:09:58Z</time>
      </trkpt>
      <trkpt lat="47.42032" lon="0.86308">
        <ele>149</ele>
        <time>2011-05-01T09:09:59Z</time>
      </trkpt>
      <trkpt lat="47.42032" lon="0.86298">
        <ele>149</ele>
        <time>2011-05-01T09:10:00Z</time>
      </trkpt>
      <trkpt lat="47.42032" lon="0.86288">
        <ele>148</ele>
        <time>2011-05-01T09:10:01Z</time>
      </trkpt>
      <trkpt lat="47.42032" lon="0.86279">
        <ele>148</ele>
        <time>2011-05-01T09:10:02Z</time>
      </trkpt>
      <trkpt lat="47.42033" lon="0.8627">
        <ele>148</ele>
        <time>2011-05-01T09:10:03Z</time>
      </trkpt>
      <trkpt lat="47.42033" lon="0.86262">
        <ele>148</ele>
        <time>2011-05-01T09:10:04Z</time>
      </trkpt>
      <trkpt lat="47.42034" lon="0.86253">
        <ele>149</ele>
        <time>2011-05-01T09:10:05Z</time>
      </trkpt>
      <trkpt lat="47.42035" lon="0.86245">
        <ele>149</ele>
        <time>2011-05-01T09:10:06Z</time>
      </trkpt>
      <trkpt lat="47.42036" lon="0.86238">
        <ele>149</ele>
        <time>2011-05-01T09:10:07Z</time>
      </trkpt>
      <trkpt lat="47.42037" lon="0.8623">
        <ele>148</ele>
        <time>2011-05-01T09:10:08Z</time>
      </trkpt>
      <trkpt lat="47.42037" lon="0.86221">
        <ele>148</ele>
        <time>2011-05-01T09:10:09Z</time>
      </trkpt>
      <trkpt lat="47.42038" lon="0.86213">
        <ele>148</ele>
        <time>2011-05-01T09:10:10Z</time>
      </trkpt>
      <trkpt lat="47.42039" lon="0.86204">
        <ele>148</ele>
        <time>2011-05-01T09:10:11Z</time>
      </trkpt>
      <trkpt lat="47.42039" lon="0.86194">
        <ele>148</ele>
        <time>2011-05-01T09:10:12Z</time>
      </trkpt>
      <trkpt lat="47.42041" lon="0.86184">
        <ele>148</ele>
        <time>2011-05-01T09:10:13Z</time>
      </trkpt>
      <trkpt lat="47.42044" lon="0.86175">
        <ele>148</ele>
        <time>2011-05-01T09:10:14Z</time>
      </trkpt>
      <trkpt lat="47.42044" lon="0.86164">
        <ele>148</ele>
        <time>2011-05-01T09:10:15Z</time>
      </trkpt>
      <trkpt lat="47.42046" lon="0.86153">
        <ele>148</ele>
        <time>2011-05-01T09:10:16Z</time>
      </trkpt>
      <trkpt lat="47.42053" lon="0.86146">
        <ele>147</ele>
        <time>2011-05-01T09:10:17Z</time>
      </trkpt>
      <trkpt lat="47.42055" lon="0.86137">
        <ele>147</ele>
        <time>2011-05-01T09:10:18Z</time>
      </trkpt>
      <trkpt lat="47.42059" lon="0.86129">
        <ele>146</ele>
        <time>2011-05-01T09:10:19Z</time>
      </trkpt>
      <trkpt lat="47.42061" lon="0.86122">
        <ele>146</ele>
        <time>2011-05-01T09:10:20Z</time>
      </trkpt>
      <trkpt lat="47.42064" lon="0.86117">
        <ele>146</ele>
        <time>2011-05-01T09:10:21Z</time>
      </trkpt>
      <trkpt lat="47.42066" lon="0.86108">
        <ele>145</ele>
        <time>2011-05-01T09:10:23Z</time>
      </trkpt>
      <trkpt lat="47.42061" lon="0.86102">
        <ele>144</ele>
        <time>2011-05-01T09:10:25Z</time>
      </trkpt>
      <trkpt lat="47.42054" lon="0.86103">
        <ele>145</ele>
        <time>2011-05-01T09:10:27Z</time>
      </trkpt>
      <trkpt lat="47.42046" lon="0.86107">
        <ele>144</ele>
        <time>2011-05-01T09:10:29Z</time>
      </trkpt>
      <trkpt lat="47.42042" lon="0.8611">
        <ele>144</ele>
        <time>2011-05-01T09:10:30Z</time>
      </trkpt>
      <trkpt lat="47.42034" lon="0.86117">
        <ele>145</ele>
        <time>2011-05-01T09:10:32Z</time>
      </trkpt>
      <trkpt lat="47.42026" lon="0.86124">
        <ele>145</ele>
        <time>2011-05-01T09:10:34Z</time>
      </trkpt>
      <trkpt lat="47.42022" lon="0.86128">
        <ele>146</ele>
        <time>2011-05-01T09:10:35Z</time>
      </trkpt>
      <trkpt lat="47.42017" lon="0.86131">
        <ele>147</ele>
        <time>2011-05-01T09:10:36Z</time>
      </trkpt>
      <trkpt lat="47.42012" lon="0.86134">
        <ele>146</ele>
        <time>2011-05-01T09:10:37Z</time>
      </trkpt>
      <trkpt lat="47.42008" lon="0.86137">
        <ele>146</ele>
        <time>2011-05-01T09:10:38Z</time>
      </trkpt>
      <trkpt lat="47.42004" lon="0.86141">
        <ele>147</ele>
        <time>2011-05-01T09:10:39Z</time>
      </trkpt>
      <trkpt lat="47.42" lon="0.86144">
        <ele>147</ele>
        <time>2011-05-01T09:10:40Z</time>
      </trkpt>
      <trkpt lat="47.41995" lon="0.86148">
        <ele>148</ele>
        <time>2011-05-01T09:10:41Z</time>
      </trkpt>
      <trkpt lat="47.4199" lon="0.8615">
        <ele>148</ele>
        <time>2011-05-01T09:10:42Z</time>
      </trkpt>
      <trkpt lat="47.41986" lon="0.86154">
        <ele>148</ele>
        <time>2011-05-01T09:10:43Z</time>
      </trkpt>
      <trkpt lat="47.41982" lon="0.86156">
        <ele>148</ele>
        <time>2011-05-01T09:10:44Z</time>
      </trkpt>
      <trkpt lat="47.41978" lon="0.86159">
        <ele>148</ele>
        <time>2011-05-01T09:10:45Z</time>
      </trkpt>
      <trkpt lat="47.41973" lon="0.86162">
        <ele>148</ele>
        <time>2011-05-01T09:10:46Z</time>
      </trkpt>
      <trkpt lat="47.41968" lon="0.86164">
        <ele>148</ele>
        <time>2011-05-01T09:10:47Z</time>
      </trkpt>
      <trkpt lat="47.41964" lon="0.86165">
        <ele>149</ele>
        <time>2011-05-01T09:10:48Z</time>
      </trkpt>
      <trkpt lat="47.41959" lon="0.86167">
        <ele>149</ele>
        <time>2011-05-01T09:10:49Z</time>
      </trkpt>
      <trkpt lat="47.41953" lon="0.86169">
        <ele>149</ele>
        <time>2011-05-01T09:10:50Z</time>
      </trkpt>
      <trkpt lat="47.41949" lon="0.86172">
        <ele>149</ele>
        <time>2011-05-01T09:10:51Z</time>
      </trkpt>
      <trkpt lat="47.41944" lon="0.86174">
        <ele>149</ele>
        <time>2011-05-01T09:10:52Z</time>
      </trkpt>
      <trkpt lat="47.41939" lon="0.86177">
        <ele>149</ele>
        <time>2011-05-01T09:10:53Z</time>
      </trkpt>
      <trkpt lat="47.41934" lon="0.86179">
        <ele>149</ele>
        <time>2011-05-01T09:10:54Z</time>
      </trkpt>
      <trkpt lat="47.41929" lon="0.86182">
        <ele>149</ele>
        <time>2011-05-01T09:10:55Z</time>
      </trkpt>
      <trkpt lat="47.41924" lon="0.86185">
        <ele>149</ele>
        <time>2011-05-01T09:10:56Z</time>
      </trkpt>
      <trkpt lat="47.41919" lon="0.86187">
        <ele>149</ele>
        <time>2011-05-01T09:10:57Z</time>
      </trkpt>
      <trkpt lat="47.41914" lon="0.86191">
        <ele>148</ele>
        <time>2011-05-01T09:10:58Z</time>
      </trkpt>
      <trkpt lat="47.41908" lon="0.86194">
        <ele>148</ele>
        <time>2011-05-01T09:10:59Z</time>
      </trkpt>
      <trkpt lat="47.41903" lon="0.86197">
        <ele>148</ele>
        <time>2011-05-01T09:11:00Z</time>
      </trkpt>
      <trkpt lat="47.41897" lon="0.862">
        <ele>147</ele>
        <time>2011-05-01T09:11:01Z</time>
      </trkpt>
      <trkpt lat="47.41892" lon="0.86204">
        <ele>147</ele>
        <time>2011-05-01T09:11:02Z</time>
      </trkpt>
      <trkpt lat="47.41886" lon="0.86206">
        <ele>147</ele>
        <time>2011-05-01T09:11:03Z</time>
      </trkpt>
      <trkpt lat="47.4188" lon="0.86209">
        <ele>147</ele>
        <time>2011-05-01T09:11:04Z</time>
      </trkpt>
      <trkpt lat="47.41875" lon="0.86212">
        <ele>147</ele>
        <time>2011-05-01T09:11:05Z</time>
      </trkpt>
      <trkpt lat="47.4187" lon="0.86215">
        <ele>146</ele>
        <time>2011-05-01T09:11:06Z</time>
      </trkpt>
      <trkpt lat="47.41864" lon="0.86217">
        <ele>146</ele>
        <time>2011-05-01T09:11:07Z</time>
      </trkpt>
      <trkpt lat="47.41858" lon="0.8622">
        <ele>146</ele>
        <time>2011-05-01T09:11:08Z</time>
      </trkpt>
      <trkpt lat="47.41853" lon="0.86221">
        <ele>145</ele>
        <time>2011-05-01T09:11:09Z</time>
      </trkpt>
      <trkpt lat="47.41847" lon="0.86224">
        <ele>145</ele>
        <time>2011-05-01T09:11:10Z</time>
      </trkpt>
      <trkpt lat="47.41841" lon="0.86226">
        <ele>145</ele>
        <time>2011-05-01T09:11:11Z</time>
      </trkpt>
      <trkpt lat="47.41835" lon="0.86229">
        <ele>144</ele>
        <time>2011-05-01T09:11:12Z</time>
      </trkpt>
      <trkpt lat="47.41828" lon="0.86232">
        <ele>144</ele>
        <time>2011-05-01T09:11:13Z</time>
      </trkpt>
      <trkpt lat="47.41822" lon="0.86235">
        <ele>144</ele>
        <time>2011-05-01T09:11:14Z</time>
      </trkpt>
      <trkpt lat="47.41816" lon="0.86237">
        <ele>143</ele>
        <time>2011-05-01T09:11:15Z</time>
      </trkpt>
      <trkpt lat="47.4181" lon="0.8624">
        <ele>143</ele>
        <time>2011-05-01T09:11:16Z</time>
      </trkpt>
      <trkpt lat="47.41804" lon="0.86243">
        <ele>143</ele>
        <time>2011-05-01T09:11:17Z</time>
      </trkpt>
      <trkpt lat="47.41797" lon="0.86246">
        <ele>143</ele>
        <time>2011-05-01T09:11:18Z</time>
      </trkpt>
      <trkpt lat="47.41791" lon="0.86249">
        <ele>143</ele>
        <time>2011-05-01T09:11:19Z</time>
      </trkpt>
      <trkpt lat="47.41786" lon="0.86252">
        <ele>143</ele>
        <time>2011-05-01T09:11:20Z</time>
      </trkpt>
      <trkpt lat="47.4178" lon="0.86251">
        <ele>142</ele>
        <time>2011-05-01T09:11:21Z</time>
      </trkpt>
      <trkpt lat="47.41774" lon="0.8625">
        <ele>142</ele>
        <time>2011-05-01T09:11:22Z</time>
      </trkpt>
      <trkpt lat="47.41769" lon="0.86246">
        <ele>142</ele>
        <time>2011-05-01T09:11:23Z</time>
      </trkpt>
      <trkpt lat="47.41764" lon="0.8624">
        <ele>142</ele>
        <time>2011-05-01T09:11:24Z</time>
      </trkpt>
      <trkpt lat="47.4176" lon="0.86233">
        <ele>142</ele>
        <time>2011-05-01T09:11:25Z</time>
      </trkpt>
      <trkpt lat="47.4176" lon="0.86224">
        <ele>143</ele>
        <time>2011-05-01T09:11:26Z</time>
      </trkpt>
      <trkpt lat="47.41757" lon="0.86217">
        <ele>143</ele>
        <time>2011-05-01T09:11:27Z</time>
      </trkpt>
      <trkpt lat="47.41755" lon="0.86209">
        <ele>143</ele>
        <time>2011-05-01T09:11:28Z</time>
      </trkpt>
      <trkpt lat="47.41753" lon="0.86202">
        <ele>143</ele>
        <time>2011-05-01T09:11:29Z</time>
      </trkpt>
      <trkpt lat="47.41752" lon="0.86193">
        <ele>143</ele>
        <time>2011-05-01T09:11:30Z</time>
      </trkpt>
      <trkpt lat="47.41751" lon="0.86185">
        <ele>143</ele>
        <time>2011-05-01T09:11:31Z</time>
      </trkpt>
      <trkpt lat="47.4175" lon="0.86177">
        <ele>143</ele>
        <time>2011-05-01T09:11:32Z</time>
      </trkpt>
      <trkpt lat="47.41749" lon="0.86169">
        <ele>144</ele>
        <time>2011-05-01T09:11:33Z</time>
      </trkpt>
      <trkpt lat="47.41748" lon="0.86161">
        <ele>144</ele>
        <time>2011-05-01T09:11:34Z</time>
      </trkpt>
      <trkpt lat="47.41746" lon="0.86151">
        <ele>144</ele>
        <time>2011-05-01T09:11:35Z</time>
      </trkpt>
      <trkpt lat="47.41745" lon="0.86143">
        <ele>144</ele>
        <time>2011-05-01T09:11:36Z</time>
      </trkpt>
      <trkpt lat="47.41744" lon="0.86134">
        <ele>144</ele>
        <time>2011-05-01T09:11:37Z</time>
      </trkpt>
      <trkpt lat="47.41742" lon="0.86126">
        <ele>144</ele>
        <time>2011-05-01T09:11:38Z</time>
      </trkpt>
      <trkpt lat="47.4174" lon="0.86117">
        <ele>144</ele>
        <time>2011-05-01T09:11:39Z</time>
      </trkpt>
      <trkpt lat="47.41739" lon="0.86109">
        <ele>144</ele>
        <time>2011-05-01T09:11:40Z</time>
      </trkpt>
      <trkpt lat="47.41737" lon="0.861">
        <ele>145</ele>
        <time>2011-05-01T09:11:41Z</time>
      </trkpt>
      <trkpt lat="47.41736" lon="0.86092">
        <ele>145</ele>
        <time>2011-05-01T09:11:42Z</time>
      </trkpt>
      <trkpt lat="47.41734" lon="0.86084">
        <ele>145</ele>
        <time>2011-05-01T09:11:43Z</time>
      </trkpt>
      <trkpt lat="47.41732" lon="0.86075">
        <ele>145</ele>
        <time>2011-05-01T09:11:44Z</time>
      </trkpt>
      <trkpt lat="47.41731" lon="0.86066">
        <ele>145</ele>
        <time>2011-05-01T09:11:45Z</time>
      </trkpt>
      <trkpt lat="47.41729" lon="0.86058">
        <ele>145</ele>
        <time>2011-05-01T09:11:46Z</time>
      </trkpt>
      <trkpt lat="47.41728" lon="0.86048">
        <ele>145</ele>
        <time>2011-05-01T09:11:47Z</time>
      </trkpt>
      <trkpt lat="47.41726" lon="0.86039">
        <ele>145</ele>
        <time>2011-05-01T09:11:48Z</time>
      </trkpt>
      <trkpt lat="47.41724" lon="0.8603">
        <ele>145</ele>
        <time>2011-05-01T09:11:49Z</time>
      </trkpt>
      <trkpt lat="47.41723" lon="0.86022">
        <ele>145</ele>
        <time>2011-05-01T09:11:50Z</time>
      </trkpt>
      <trkpt lat="47.41721" lon="0.86014">
        <ele>145</ele>
        <time>2011-05-01T09:11:51Z</time>
      </trkpt>
      <trkpt lat="47.4172" lon="0.86005">
        <ele>144</ele>
        <time>2011-05-01T09:11:52Z</time>
      </trkpt>
      <trkpt lat="47.41718" lon="0.85996">
        <ele>144</ele>
        <time>2011-05-01T09:11:53Z</time>
      </trkpt>
      <trkpt lat="47.41716" lon="0.85988">
        <ele>144</ele>
        <time>2011-05-01T09:11:54Z</time>
      </trkpt>
      <trkpt lat="47.41715" lon="0.8598">
        <ele>144</ele>
        <time>2011-05-01T09:11:55Z</time>
      </trkpt>
      <trkpt lat="47.41712" lon="0.85972">
        <ele>144</ele>
        <time>2011-05-01T09:11:56Z</time>
      </trkpt>
      <trkpt lat="47.4171" lon="0.85964">
        <ele>145</ele>
        <time>2011-05-01T09:11:57Z</time>
      </trkpt>
      <trkpt lat="47.41708" lon="0.85956">
        <ele>144</ele>
        <time>2011-05-01T09:11:58Z</time>
      </trkpt>
      <trkpt lat="47.41708" lon="0.85947">
        <ele>144</ele>
        <time>2011-05-01T09:11:59Z</time>
      </trkpt>
      <trkpt lat="47.41706" lon="0.85938">
        <ele>145</ele>
        <time>2011-05-01T09:12:00Z</time>
      </trkpt>
      <trkpt lat="47.41704" lon="0.85929">
        <ele>144</ele>
        <time>2011-05-01T09:12:01Z</time>
      </trkpt>
      <trkpt lat="47.41702" lon="0.85922">
        <ele>144</ele>
        <time>2011-05-01T09:12:02Z</time>
      </trkpt>
      <trkpt lat="47.41701" lon="0.85914">
        <ele>144</ele>
        <time>2011-05-01T09:12:03Z</time>
      </trkpt>
      <trkpt lat="47.41701" lon="0.85906">
        <ele>145</ele>
        <time>2011-05-01T09:12:04Z</time>
      </trkpt>
      <trkpt lat="47.417" lon="0.85898">
        <ele>144</ele>
        <time>2011-05-01T09:12:05Z</time>
      </trkpt>
      <trkpt lat="47.41699" lon="0.8589">
        <ele>144</ele>
        <time>2011-05-01T09:12:06Z</time>
      </trkpt>
      <trkpt lat="47.41698" lon="0.85882">
        <ele>144</ele>
        <time>2011-05-01T09:12:07Z</time>
      </trkpt>
      <trkpt lat="47.41698" lon="0.85874">
        <ele>144</ele>
        <time>2011-05-01T09:12:08Z</time>
      </trkpt>
      <trkpt lat="47.41697" lon="0.85866">
        <ele>144</ele>
        <time>2011-05-01T09:12:09Z</time>
      </trkpt>
      <trkpt lat="47.41696" lon="0.85857">
        <ele>143</ele>
        <time>2011-05-01T09:12:10Z</time>
      </trkpt>
      <trkpt lat="47.41695" lon="0.85849">
        <ele>143</ele>
        <time>2011-05-01T09:12:11Z</time>
      </trkpt>
      <trkpt lat="47.41694" lon="0.85841">
        <ele>144</ele>
        <time>2011-05-01T09:12:12Z</time>
      </trkpt>
      <trkpt lat="47.41693" lon="0.85833">
        <ele>143</ele>
        <time>2011-05-01T09:12:13Z</time>
      </trkpt>
      <trkpt lat="47.41693" lon="0.85825">
        <ele>144</ele>
        <time>2011-05-01T09:12:14Z</time>
      </trkpt>
      <trkpt lat="47.41693" lon="0.85817">
        <ele>144</ele>
        <time>2011-05-01T09:12:15Z</time>
      </trkpt>
      <trkpt lat="47.41692" lon="0.85809">
        <ele>144</ele>
        <time>2011-05-01T09:12:16Z</time>
      </trkpt>
      <trkpt lat="47.41692" lon="0.858">
        <ele>145</ele>
        <time>2011-05-01T09:12:17Z</time>
      </trkpt>
      <trkpt lat="47.41691" lon="0.85792">
        <ele>145</ele>
        <time>2011-05-01T09:12:18Z</time>
      </trkpt>
      <trkpt lat="47.4169" lon="0.85784">
        <ele>145</ele>
        <time>2011-05-01T09:12:19Z</time>
      </trkpt>
      <trkpt lat="47.4169" lon="0.85776">
        <ele>145</ele>
        <time>2011-05-01T09:12:20Z</time>
      </trkpt>
      <trkpt lat="47.41689" lon="0.85767">
        <ele>145</ele>
        <time>2011-05-01T09:12:21Z</time>
      </trkpt>
      <trkpt lat="47.41688" lon="0.8576">
        <ele>145</ele>
        <time>2011-05-01T09:12:22Z</time>
      </trkpt>
      <trkpt lat="47.41688" lon="0.85751">
        <ele>145</ele>
        <time>2011-05-01T09:12:23Z</time>
      </trkpt>
      <trkpt lat="47.41688" lon="0.85742">
        <ele>145</ele>
        <time>2011-05-01T09:12:24Z</time>
      </trkpt>
      <trkpt lat="47.41688" lon="0.85735">
        <ele>145</ele>
        <time>2011-05-01T09:12:25Z</time>
      </trkpt>
      <trkpt lat="47.41688" lon="0.85727">
        <ele>145</ele>
        <time>2011-05-01T09:12:26Z</time>
      </trkpt>
      <trkpt lat="47.41687" lon="0.85718">
        <ele>145</ele>
        <time>2011-05-01T09:12:27Z</time>
      </trkpt>
      <trkpt lat="47.41687" lon="0.8571">
        <ele>145</ele>
        <time>2011-05-01T09:12:28Z</time>
      </trkpt>
      <trkpt lat="47.41686" lon="0.85702">
        <ele>145</ele>
        <time>2011-05-01T09:12:29Z</time>
      </trkpt>
      <trkpt lat="47.41686" lon="0.85693">
        <ele>145</ele>
        <time>2011-05-01T09:12:30Z</time>
      </trkpt>
      <trkpt lat="47.41686" lon="0.85684">
        <ele>145</ele>
        <time>2011-05-01T09:12:31Z</time>
      </trkpt>
      <trkpt lat="47.41685" lon="0.85675">
        <ele>145</ele>
        <time>2011-05-01T09:12:32Z</time>
      </trkpt>
      <trkpt lat="47.41684" lon="0.85667">
        <ele>146</ele>
        <time>2011-05-01T09:12:33Z</time>
      </trkpt>
      <trkpt lat="47.41683" lon="0.85658">
        <ele>146</ele>
        <time>2011-05-01T09:12:34Z</time>
      </trkpt>
      <trkpt lat="47.41682" lon="0.85649">
        <ele>146</ele>
        <time>2011-05-01T09:12:35Z</time>
      </trkpt>
      <trkpt lat="47.41681" lon="0.8564">
        <ele>145</ele>
        <time>2011-05-01T09:12:36Z</time>
      </trkpt>
      <trkpt lat="47.4168" lon="0.8563">
        <ele>145</ele>
        <time>2011-05-01T09:12:37Z</time>
      </trkpt>
      <trkpt lat="47.41677" lon="0.85622">
        <ele>145</ele>
        <time>2011-05-01T09:12:38Z</time>
      </trkpt>
      <trkpt lat="47.41675" lon="0.85614">
        <ele>145</ele>
        <time>2011-05-01T09:12:39Z</time>
      </trkpt>
      <trkpt lat="47.41672" lon="0.85606">
        <ele>145</ele>
        <time>2011-05-01T09:12:40Z</time>
      </trkpt>
      <trkpt lat="47.41669" lon="0.85598">
        <ele>145</ele>
        <time>2011-05-01T09:12:41Z</time>
      </trkpt>
      <trkpt lat="47.41666" lon="0.8559">
        <ele>145</ele>
        <time>2011-05-01T09:12:42Z</time>
      </trkpt>
      <trkpt lat="47.41663" lon="0.85584">
        <ele>145</ele>
        <time>2011-05-01T09:12:43Z</time>
      </trkpt>
      <trkpt lat="47.41658" lon="0.85578">
        <ele>145</ele>
        <time>2011-05-01T09:12:44Z</time>
      </trkpt>
      <trkpt lat="47.41654" lon="0.85572">
        <ele>146</ele>
        <time>2011-05-01T09:12:45Z</time>
      </trkpt>
      <trkpt lat="47.41649" lon="0.85566">
        <ele>146</ele>
        <time>2011-05-01T09:12:46Z</time>
      </trkpt>
      <trkpt lat="47.41644" lon="0.8556">
        <ele>146</ele>
        <time>2011-05-01T09:12:47Z</time>
      </trkpt>
      <trkpt lat="47.41639" lon="0.85554">
        <ele>146</ele>
        <time>2011-05-01T09:12:48Z</time>
      </trkpt>
      <trkpt lat="47.41633" lon="0.85549">
        <ele>145</ele>
        <time>2011-05-01T09:12:49Z</time>
      </trkpt>
      <trkpt lat="47.41628" lon="0.85544">
        <ele>145</ele>
        <time>2011-05-01T09:12:50Z</time>
      </trkpt>
      <trkpt lat="47.41623" lon="0.85538">
        <ele>145</ele>
        <time>2011-05-01T09:12:51Z</time>
      </trkpt>
      <trkpt lat="47.41619" lon="0.85533">
        <ele>145</ele>
        <time>2011-05-01T09:12:52Z</time>
      </trkpt>
      <trkpt lat="47.41614" lon="0.85528">
        <ele>145</ele>
        <time>2011-05-01T09:12:53Z</time>
      </trkpt>
      <trkpt lat="47.4161" lon="0.85523">
        <ele>145</ele>
        <time>2011-05-01T09:12:54Z</time>
      </trkpt>
      <trkpt lat="47.41606" lon="0.85518">
        <ele>145</ele>
        <time>2011-05-01T09:12:55Z</time>
      </trkpt>
      <trkpt lat="47.41603" lon="0.85514">
        <ele>145</ele>
        <time>2011-05-01T09:12:56Z</time>
      </trkpt>
      <trkpt lat="47.41599" lon="0.85508">
        <ele>145</ele>
        <time>2011-05-01T09:12:57Z</time>
      </trkpt>
      <trkpt lat="47.41596" lon="0.85503">
        <ele>144</ele>
        <time>2011-05-01T09:12:58Z</time>
      </trkpt>
      <trkpt lat="47.41593" lon="0.85497">
        <ele>144</ele>
        <time>2011-05-01T09:12:59Z</time>
      </trkpt>
      <trkpt lat="47.4159" lon="0.8549">
        <ele>144</ele>
        <time>2011-05-01T09:13:00Z</time>
      </trkpt>
      <trkpt lat="47.41585" lon="0.85482">
        <ele>144</ele>
        <time>2011-05-01T09:13:01Z</time>
      </trkpt>
      <trkpt lat="47.41582" lon="0.85475">
        <ele>144</ele>
        <time>2011-05-01T09:13:02Z</time>
      </trkpt>
      <trkpt lat="47.41578" lon="0.85468">
        <ele>144</ele>
        <time>2011-05-01T09:13:03Z</time>
      </trkpt>
      <trkpt lat="47.41576" lon="0.8546">
        <ele>144</ele>
        <time>2011-05-01T09:13:04Z</time>
      </trkpt>
      <trkpt lat="47.41574" lon="0.85451">
        <ele>143</ele>
        <time>2011-05-01T09:13:05Z</time>
      </trkpt>
      <trkpt lat="47.41572" lon="0.85441">
        <ele>143</ele>
        <time>2011-05-01T09:13:06Z</time>
      </trkpt>
      <trkpt lat="47.4157" lon="0.85433">
        <ele>143</ele>
        <time>2011-05-01T09:13:07Z</time>
      </trkpt>
      <trkpt lat="47.41568" lon="0.85424">
        <ele>142</ele>
        <time>2011-05-01T09:13:08Z</time>
      </trkpt>
      <trkpt lat="47.41567" lon="0.85415">
        <ele>143</ele>
        <time>2011-05-01T09:13:09Z</time>
      </trkpt>
      <trkpt lat="47.41566" lon="0.85406">
        <ele>142</ele>
        <time>2011-05-01T09:13:10Z</time>
      </trkpt>
      <trkpt lat="47.41564" lon="0.85397">
        <ele>141</ele>
        <time>2011-05-01T09:13:11Z</time>
      </trkpt>
      <trkpt lat="47.41563" lon="0.85388">
        <ele>141</ele>
        <time>2011-05-01T09:13:12Z</time>
      </trkpt>
      <trkpt lat="47.41561" lon="0.85378">
        <ele>141</ele>
        <time>2011-05-01T09:13:13Z</time>
      </trkpt>
      <trkpt lat="47.4156" lon="0.85368">
        <ele>141</ele>
        <time>2011-05-01T09:13:14Z</time>
      </trkpt>
      <trkpt lat="47.41558" lon="0.85358">
        <ele>140</ele>
        <time>2011-05-01T09:13:15Z</time>
      </trkpt>
      <trkpt lat="47.41557" lon="0.85348">
        <ele>140</ele>
        <time>2011-05-01T09:13:16Z</time>
      </trkpt>
      <trkpt lat="47.41555" lon="0.85337">
        <ele>139</ele>
        <time>2011-05-01T09:13:17Z</time>
      </trkpt>
      <trkpt lat="47.41554" lon="0.85325">
        <ele>138</ele>
        <time>2011-05-01T09:13:18Z</time>
      </trkpt>
      <trkpt lat="47.41552" lon="0.85314">
        <ele>137</ele>
        <time>2011-05-01T09:13:19Z</time>
      </trkpt>
      <trkpt lat="47.4155" lon="0.85302">
        <ele>137</ele>
        <time>2011-05-01T09:13:20Z</time>
      </trkpt>
      <trkpt lat="47.41548" lon="0.85291">
        <ele>136</ele>
        <time>2011-05-01T09:13:21Z</time>
      </trkpt>
      <trkpt lat="47.41546" lon="0.8528">
        <ele>136</ele>
        <time>2011-05-01T09:13:22Z</time>
      </trkpt>
      <trkpt lat="47.41544" lon="0.85271">
        <ele>136</ele>
        <time>2011-05-01T09:13:23Z</time>
      </trkpt>
      <trkpt lat="47.41542" lon="0.85261">
        <ele>136</ele>
        <time>2011-05-01T09:13:24Z</time>
      </trkpt>
      <trkpt lat="47.4154" lon="0.85252">
        <ele>136</ele>
        <time>2011-05-01T09:13:25Z</time>
      </trkpt>
      <trkpt lat="47.4154" lon="0.85244">
        <ele>135</ele>
        <time>2011-05-01T09:13:26Z</time>
      </trkpt>
      <trkpt lat="47.41539" lon="0.85236">
        <ele>135</ele>
        <time>2011-05-01T09:13:27Z</time>
      </trkpt>
      <trkpt lat="47.41539" lon="0.85226">
        <ele>134</ele>
        <time>2011-05-01T09:13:28Z</time>
      </trkpt>
      <trkpt lat="47.41539" lon="0.85214">
        <ele>134</ele>
        <time>2011-05-01T09:13:29Z</time>
      </trkpt>
      <trkpt lat="47.41544" lon="0.85202">
        <ele>133</ele>
        <time>2011-05-01T09:13:30Z</time>
      </trkpt>
      <trkpt lat="47.41547" lon="0.8519">
        <ele>133</ele>
        <time>2011-05-01T09:13:31Z</time>
      </trkpt>
      <trkpt lat="47.41551" lon="0.85178">
        <ele>132</ele>
        <time>2011-05-01T09:13:32Z</time>
      </trkpt>
      <trkpt lat="47.41553" lon="0.85168">
        <ele>132</ele>
        <time>2011-05-01T09:13:33Z</time>
      </trkpt>
      <trkpt lat="47.41556" lon="0.85158">
        <ele>131</ele>
        <time>2011-05-01T09:13:34Z</time>
      </trkpt>
      <trkpt lat="47.4156" lon="0.85149">
        <ele>131</ele>
        <time>2011-05-01T09:13:35Z</time>
      </trkpt>
      <trkpt lat="47.41563" lon="0.8514">
        <ele>131</ele>
        <time>2011-05-01T09:13:36Z</time>
      </trkpt>
      <trkpt lat="47.41568" lon="0.8513">
        <ele>131</ele>
        <time>2011-05-01T09:13:37Z</time>
      </trkpt>
      <trkpt lat="47.41574" lon="0.8512">
        <ele>131</ele>
        <time>2011-05-01T09:13:38Z</time>
      </trkpt>
      <trkpt lat="47.41578" lon="0.85111">
        <ele>131</ele>
        <time>2011-05-01T09:13:39Z</time>
      </trkpt>
      <trkpt lat="47.41583" lon="0.851">
        <ele>131</ele>
        <time>2011-05-01T09:13:40Z</time>
      </trkpt>
      <trkpt lat="47.41589" lon="0.85092">
        <ele>130</ele>
        <time>2011-05-01T09:13:41Z</time>
      </trkpt>
      <trkpt lat="47.41596" lon="0.85085">
        <ele>129</ele>
        <time>2011-05-01T09:13:42Z</time>
      </trkpt>
      <trkpt lat="47.41602" lon="0.85078">
        <ele>129</ele>
        <time>2011-05-01T09:13:43Z</time>
      </trkpt>
      <trkpt lat="47.41608" lon="0.85073">
        <ele>128</ele>
        <time>2011-05-01T09:13:44Z</time>
      </trkpt>
      <trkpt lat="47.41614" lon="0.85068">
        <ele>128</ele>
        <time>2011-05-01T09:13:45Z</time>
      </trkpt>
      <trkpt lat="47.41621" lon="0.85066">
        <ele>128</ele>
        <time>2011-05-01T09:13:46Z</time>
      </trkpt>
      <trkpt lat="47.41628" lon="0.85065">
        <ele>128</ele>
        <time>2011-05-01T09:13:47Z</time>
      </trkpt>
      <trkpt lat="47.41635" lon="0.85064">
        <ele>128</ele>
        <time>2011-05-01T09:13:48Z</time>
      </trkpt>
      <trkpt lat="47.41642" lon="0.85064">
        <ele>128</ele>
        <time>2011-05-01T09:13:49Z</time>
      </trkpt>
      <trkpt lat="47.4165" lon="0.85063">
        <ele>128</ele>
        <time>2011-05-01T09:13:50Z</time>
      </trkpt>
      <trkpt lat="47.41659" lon="0.85062">
        <ele>127</ele>
        <time>2011-05-01T09:13:51Z</time>
      </trkpt>
      <trkpt lat="47.41667" lon="0.85061">
        <ele>127</ele>
        <time>2011-05-01T09:13:52Z</time>
      </trkpt>
      <trkpt lat="47.41676" lon="0.85061">
        <ele>127</ele>
        <time>2011-05-01T09:13:53Z</time>
      </trkpt>
      <trkpt lat="47.41683" lon="0.8506">
        <ele>127</ele>
        <time>2011-05-01T09:13:54Z</time>
      </trkpt>
      <trkpt lat="47.41692" lon="0.85058">
        <ele>127</ele>
        <time>2011-05-01T09:13:55Z</time>
      </trkpt>
      <trkpt lat="47.41699" lon="0.85057">
        <ele>127</ele>
        <time>2011-05-01T09:13:56Z</time>
      </trkpt>
      <trkpt lat="47.41707" lon="0.85054">
        <ele>127</ele>
        <time>2011-05-01T09:13:57Z</time>
      </trkpt>
      <trkpt lat="47.41714" lon="0.85051">
        <ele>127</ele>
        <time>2011-05-01T09:13:58Z</time>
      </trkpt>
      <trkpt lat="47.41722" lon="0.85047">
        <ele>127</ele>
        <time>2011-05-01T09:13:59Z</time>
      </trkpt>
      <trkpt lat="47.41731" lon="0.85042">
        <ele>126</ele>
        <time>2011-05-01T09:14:00Z</time>
      </trkpt>
      <trkpt lat="47.41738" lon="0.85037">
        <ele>126</ele>
        <time>2011-05-01T09:14:01Z</time>
      </trkpt>
      <trkpt lat="47.41745" lon="0.85032">
        <ele>126</ele>
        <time>2011-05-01T09:14:02Z</time>
      </trkpt>
      <trkpt lat="47.41751" lon="0.85028">
        <ele>126</ele>
        <time>2011-05-01T09:14:03Z</time>
      </trkpt>
      <trkpt lat="47.41757" lon="0.85024">
        <ele>126</ele>
        <time>2011-05-01T09:14:04Z</time>
      </trkpt>
      <trkpt lat="47.41763" lon="0.8502">
        <ele>125</ele>
        <time>2011-05-01T09:14:06Z</time>
      </trkpt>
      <trkpt lat="47.41768" lon="0.8502">
        <ele>119</ele>
        <time>2011-05-01T09:14:09Z</time>
      </trkpt>
      <trkpt lat="47.41773" lon="0.85017">
        <ele>115</ele>
        <time>2011-05-01T09:14:14Z</time>
      </trkpt>
      <trkpt lat="47.41774" lon="0.85011">
        <ele>115</ele>
        <time>2011-05-01T09:14:16Z</time>
      </trkpt>
      <trkpt lat="47.41776" lon="0.85004">
        <ele>115</ele>
        <time>2011-05-01T09:14:20Z</time>
      </trkpt>
      <trkpt lat="47.4178" lon="0.84998">
        <ele>115</ele>
        <time>2011-05-01T09:14:24Z</time>
      </trkpt>
      <trkpt lat="47.41784" lon="0.84998">
        <ele>114</ele>
        <time>2011-05-01T09:14:27Z</time>
      </trkpt>
      <trkpt lat="47.41789" lon="0.85002">
        <ele>118</ele>
        <time>2011-05-01T09:14:30Z</time>
      </trkpt>
      <trkpt lat="47.41794" lon="0.85003">
        <ele>117</ele>
        <time>2011-05-01T09:14:33Z</time>
      </trkpt>
      <trkpt lat="47.41798" lon="0.85">
        <ele>117</ele>
        <time>2011-05-01T09:14:35Z</time>
      </trkpt>
      <trkpt lat="47.41802" lon="0.84995">
        <ele>117</ele>
        <time>2011-05-01T09:14:37Z</time>
      </trkpt>
      <trkpt lat="47.41805" lon="0.84986">
        <ele>117</ele>
        <time>2011-05-01T09:14:39Z</time>
      </trkpt>
      <trkpt lat="47.41809" lon="0.84979">
        <ele>117</ele>
        <time>2011-05-01T09:14:41Z</time>
      </trkpt>
      <trkpt lat="47.41814" lon="0.84973">
        <ele>118</ele>
        <time>2011-05-01T09:14:43Z</time>
      </trkpt>
      <trkpt lat="47.41819" lon="0.84968">
        <ele>117</ele>
        <time>2011-05-01T09:14:45Z</time>
      </trkpt>
      <trkpt lat="47.41826" lon="0.84965">
        <ele>117</ele>
        <time>2011-05-01T09:14:47Z</time>
      </trkpt>
      <trkpt lat="47.41835" lon="0.84965">
        <ele>118</ele>
        <time>2011-05-01T09:14:49Z</time>
      </trkpt>
      <trkpt lat="47.41844" lon="0.84962">
        <ele>119</ele>
        <time>2011-05-01T09:14:51Z</time>
      </trkpt>
      <trkpt lat="47.41851" lon="0.8496">
        <ele>118</ele>
        <time>2011-05-01T09:14:53Z</time>
      </trkpt>
      <trkpt lat="47.41857" lon="0.84959">
        <ele>118</ele>
        <time>2011-05-01T09:14:55Z</time>
      </trkpt>
      <trkpt lat="47.41866" lon="0.84958">
        <ele>118</ele>
        <time>2011-05-01T09:14:57Z</time>
      </trkpt>
      <trkpt lat="47.41872" lon="0.84957">
        <ele>118</ele>
        <time>2011-05-01T09:14:59Z</time>
      </trkpt>
      <trkpt lat="47.41879" lon="0.84956">
        <ele>118</ele>
        <time>2011-05-01T09:15:01Z</time>
      </trkpt>
      <trkpt lat="47.41885" lon="0.84954">
        <ele>118</ele>
        <time>2011-05-01T09:15:03Z</time>
      </trkpt>
      <trkpt lat="47.41893" lon="0.84953">
        <ele>118</ele>
        <time>2011-05-01T09:15:05Z</time>
      </trkpt>
      <trkpt lat="47.41902" lon="0.84951">
        <ele>118</ele>
        <time>2011-05-01T09:15:07Z</time>
      </trkpt>
      <trkpt lat="47.4191" lon="0.84948">
        <ele>118</ele>
        <time>2011-05-01T09:15:09Z</time>
      </trkpt>
      <trkpt lat="47.41915" lon="0.84946">
        <ele>118</ele>
        <time>2011-05-01T09:15:10Z</time>
      </trkpt>
      <trkpt lat="47.41919" lon="0.84943">
        <ele>118</ele>
        <time>2011-05-01T09:15:11Z</time>
      </trkpt>
      <trkpt lat="47.41924" lon="0.84942">
        <ele>118</ele>
        <time>2011-05-01T09:15:12Z</time>
      </trkpt>
      <trkpt lat="47.41929" lon="0.84941">
        <ele>118</ele>
        <time>2011-05-01T09:15:13Z</time>
      </trkpt>
      <trkpt lat="47.41935" lon="0.8494">
        <ele>118</ele>
        <time>2011-05-01T09:15:14Z</time>
      </trkpt>
      <trkpt lat="47.41941" lon="0.84938">
        <ele>118</ele>
        <time>2011-05-01T09:15:15Z</time>
      </trkpt>
      <trkpt lat="47.41947" lon="0.84938">
        <ele>118</ele>
        <time>2011-05-01T09:15:16Z</time>
      </trkpt>
      <trkpt lat="47.41953" lon="0.84936">
        <ele>117</ele>
        <time>2011-05-01T09:15:17Z</time>
      </trkpt>
      <trkpt lat="47.41958" lon="0.84934">
        <ele>118</ele>
        <time>2011-05-01T09:15:18Z</time>
      </trkpt>
      <trkpt lat="47.41964" lon="0.84933">
        <ele>117</ele>
        <time>2011-05-01T09:15:19Z</time>
      </trkpt>
      <trkpt lat="47.41969" lon="0.8493">
        <ele>117</ele>
        <time>2011-05-01T09:15:20Z</time>
      </trkpt>
      <trkpt lat="47.41974" lon="0.84928">
        <ele>117</ele>
        <time>2011-05-01T09:15:21Z</time>
      </trkpt>
      <trkpt lat="47.41984" lon="0.84927">
        <ele>118</ele>
        <time>2011-05-01T09:15:23Z</time>
      </trkpt>
      <trkpt lat="47.41988" lon="0.84924">
        <ele>117</ele>
        <time>2011-05-01T09:15:24Z</time>
      </trkpt>
      <trkpt lat="47.41993" lon="0.84922">
        <ele>117</ele>
        <time>2011-05-01T09:15:25Z</time>
      </trkpt>
      <trkpt lat="47.41998" lon="0.8492">
        <ele>117</ele>
        <time>2011-05-01T09:15:26Z</time>
      </trkpt>
      <trkpt lat="47.42004" lon="0.84919">
        <ele>117</ele>
        <time>2011-05-01T09:15:27Z</time>
      </trkpt>
      <trkpt lat="47.4201" lon="0.84918">
        <ele>116</ele>
        <time>2011-05-01T09:15:28Z</time>
      </trkpt>
      <trkpt lat="47.42016" lon="0.84916">
        <ele>116</ele>
        <time>2011-05-01T09:15:29Z</time>
      </trkpt>
      <trkpt lat="47.42022" lon="0.84912">
        <ele>116</ele>
        <time>2011-05-01T09:15:30Z</time>
      </trkpt>
      <trkpt lat="47.42028" lon="0.84911">
        <ele>116</ele>
        <time>2011-05-01T09:15:31Z</time>
      </trkpt>
      <trkpt lat="47.42034" lon="0.84908">
        <ele>116</ele>
        <time>2011-05-01T09:15:32Z</time>
      </trkpt>
      <trkpt lat="47.42039" lon="0.84905">
        <ele>116</ele>
        <time>2011-05-01T09:15:33Z</time>
      </trkpt>
      <trkpt lat="47.42047" lon="0.84903">
        <ele>116</ele>
        <time>2011-05-01T09:15:34Z</time>
      </trkpt>
      <trkpt lat="47.42054" lon="0.849">
        <ele>116</ele>
        <time>2011-05-01T09:15:35Z</time>
      </trkpt>
      <trkpt lat="47.42061" lon="0.84897">
        <ele>116</ele>
        <time>2011-05-01T09:15:36Z</time>
      </trkpt>
      <trkpt lat="47.42068" lon="0.84897">
        <ele>116</ele>
        <time>2011-05-01T09:15:37Z</time>
      </trkpt>
      <trkpt lat="47.42075" lon="0.84896">
        <ele>116</ele>
        <time>2011-05-01T09:15:38Z</time>
      </trkpt>
      <trkpt lat="47.42082" lon="0.84897">
        <ele>116</ele>
        <time>2011-05-01T09:15:39Z</time>
      </trkpt>
      <trkpt lat="47.42088" lon="0.84897">
        <ele>116</ele>
        <time>2011-05-01T09:15:40Z</time>
      </trkpt>
      <trkpt lat="47.42095" lon="0.84899">
        <ele>116</ele>
        <time>2011-05-01T09:15:41Z</time>
      </trkpt>
      <trkpt lat="47.42102" lon="0.84902">
        <ele>115</ele>
        <time>2011-05-01T09:15:42Z</time>
      </trkpt>
      <trkpt lat="47.42109" lon="0.84905">
        <ele>115</ele>
        <time>2011-05-01T09:15:43Z</time>
      </trkpt>
      <trkpt lat="47.42115" lon="0.84908">
        <ele>115</ele>
        <time>2011-05-01T09:15:44Z</time>
      </trkpt>
      <trkpt lat="47.42121" lon="0.84911">
        <ele>114</ele>
        <time>2011-05-01T09:15:45Z</time>
      </trkpt>
      <trkpt lat="47.42126" lon="0.84913">
        <ele>114</ele>
        <time>2011-05-01T09:15:46Z</time>
      </trkpt>
      <trkpt lat="47.4213" lon="0.84914">
        <ele>114</ele>
        <time>2011-05-01T09:15:47Z</time>
      </trkpt>
      <trkpt lat="47.42135" lon="0.84916">
        <ele>114</ele>
        <time>2011-05-01T09:15:48Z</time>
      </trkpt>
      <trkpt lat="47.42144" lon="0.84918">
        <ele>114</ele>
        <time>2011-05-01T09:15:50Z</time>
      </trkpt>
      <trkpt lat="47.4215" lon="0.84919">
        <ele>114</ele>
        <time>2011-05-01T09:15:51Z</time>
      </trkpt>
      <trkpt lat="47.42155" lon="0.8492">
        <ele>114</ele>
        <time>2011-05-01T09:15:52Z</time>
      </trkpt>
      <trkpt lat="47.42161" lon="0.84922">
        <ele>115</ele>
        <time>2011-05-01T09:15:53Z</time>
      </trkpt>
      <trkpt lat="47.42166" lon="0.84924">
        <ele>115</ele>
        <time>2011-05-01T09:15:54Z</time>
      </trkpt>
      <trkpt lat="47.42171" lon="0.84926">
        <ele>115</ele>
        <time>2011-05-01T09:15:55Z</time>
      </trkpt>
      <trkpt lat="47.42175" lon="0.84928">
        <ele>115</ele>
        <time>2011-05-01T09:15:56Z</time>
      </trkpt>
      <trkpt lat="47.42179" lon="0.84932">
        <ele>115</ele>
        <time>2011-05-01T09:15:57Z</time>
      </trkpt>
      <trkpt lat="47.42186" lon="0.84933">
        <ele>116</ele>
        <time>2011-05-01T09:15:59Z</time>
      </trkpt>
      <trkpt lat="47.4219" lon="0.84933">
        <ele>115</ele>
        <time>2011-05-01T09:16:00Z</time>
      </trkpt>
      <trkpt lat="47.42198" lon="0.84932">
        <ele>115</ele>
        <time>2011-05-01T09:16:01Z</time>
      </trkpt>
      <trkpt lat="47.42204" lon="0.84929">
        <ele>115</ele>
        <time>2011-05-01T09:16:02Z</time>
      </trkpt>
      <trkpt lat="47.4221" lon="0.84926">
        <ele>114</ele>
        <time>2011-05-01T09:16:03Z</time>
      </trkpt>
      <trkpt lat="47.42216" lon="0.84924">
        <ele>114</ele>
        <time>2011-05-01T09:16:04Z</time>
      </trkpt>
      <trkpt lat="47.42225" lon="0.84924">
        <ele>115</ele>
        <time>2011-05-01T09:16:05Z</time>
      </trkpt>
      <trkpt lat="47.42233" lon="0.84923">
        <ele>115</ele>
        <time>2011-05-01T09:16:06Z</time>
      </trkpt>
      <trkpt lat="47.42242" lon="0.84924">
        <ele>115</ele>
        <time>2011-05-01T09:16:07Z</time>
      </trkpt>
      <trkpt lat="47.42249" lon="0.84923">
        <ele>115</ele>
        <time>2011-05-01T09:16:08Z</time>
      </trkpt>
      <trkpt lat="47.42256" lon="0.84922">
        <ele>115</ele>
        <time>2011-05-01T09:16:09Z</time>
      </trkpt>
      <trkpt lat="47.42264" lon="0.84921">
        <ele>115</ele>
        <time>2011-05-01T09:16:10Z</time>
      </trkpt>
      <trkpt lat="47.42271" lon="0.8492">
        <ele>116</ele>
        <time>2011-05-01T09:16:11Z</time>
      </trkpt>
      <trkpt lat="47.42278" lon="0.84918">
        <ele>115</ele>
        <time>2011-05-01T09:16:12Z</time>
      </trkpt>
      <trkpt lat="47.42287" lon="0.84913">
        <ele>115</ele>
        <time>2011-05-01T09:16:13Z</time>
      </trkpt>
      <trkpt lat="47.42295" lon="0.84914">
        <ele>115</ele>
        <time>2011-05-01T09:16:14Z</time>
      </trkpt>
      <trkpt lat="47.42302" lon="0.84914">
        <ele>115</ele>
        <time>2011-05-01T09:16:15Z</time>
      </trkpt>
      <trkpt lat="47.4231" lon="0.84917">
        <ele>115</ele>
        <time>2011-05-01T09:16:16Z</time>
      </trkpt>
      <trkpt lat="47.42317" lon="0.84919">
        <ele>115</ele>
        <time>2011-05-01T09:16:17Z</time>
      </trkpt>
      <trkpt lat="47.42323" lon="0.84922">
        <ele>116</ele>
        <time>2011-05-01T09:16:18Z</time>
      </trkpt>
      <trkpt lat="47.42329" lon="0.84925">
        <ele>115</ele>
        <time>2011-05-01T09:16:19Z</time>
      </trkpt>
      <trkpt lat="47.42335" lon="0.84927">
        <ele>115</ele>
        <time>2011-05-01T09:16:20Z</time>
      </trkpt>
      <trkpt lat="47.42342" lon="0.8493">
        <ele>116</ele>
        <time>2011-05-01T09:16:21Z</time>
      </trkpt>
      <trkpt lat="47.42349" lon="0.84934">
        <ele>116</ele>
        <time>2011-05-01T09:16:22Z</time>
      </trkpt>
      <trkpt lat="47.42355" lon="0.84937">
        <ele>116</ele>
        <time>2011-05-01T09:16:23Z</time>
      </trkpt>
      <trkpt lat="47.42361" lon="0.84941">
        <ele>116</ele>
        <time>2011-05-01T09:16:24Z</time>
      </trkpt>
      <trkpt lat="47.42367" lon="0.84946">
        <ele>116</ele>
        <time>2011-05-01T09:16:25Z</time>
      </trkpt>
      <trkpt lat="47.42372" lon="0.84952">
        <ele>116</ele>
        <time>2011-05-01T09:16:26Z</time>
      </trkpt>
      <trkpt lat="47.42379" lon="0.84956">
        <ele>116</ele>
        <time>2011-05-01T09:16:27Z</time>
      </trkpt>
      <trkpt lat="47.42384" lon="0.84962">
        <ele>117</ele>
        <time>2011-05-01T09:16:28Z</time>
      </trkpt>
      <trkpt lat="47.42388" lon="0.84965">
        <ele>117</ele>
        <time>2011-05-01T09:16:29Z</time>
      </trkpt>
      <trkpt lat="47.42394" lon="0.8497">
        <ele>116</ele>
        <time>2011-05-01T09:16:30Z</time>
      </trkpt>
      <trkpt lat="47.42401" lon="0.84977">
        <ele>116</ele>
        <time>2011-05-01T09:16:32Z</time>
      </trkpt>
      <trkpt lat="47.42408" lon="0.84983">
        <ele>117</ele>
        <time>2011-05-01T09:16:34Z</time>
      </trkpt>
      <trkpt lat="47.42415" lon="0.84988">
        <ele>117</ele>
        <time>2011-05-01T09:16:36Z</time>
      </trkpt>
      <trkpt lat="47.4242" lon="0.84996">
        <ele>117</ele>
        <time>2011-05-01T09:16:38Z</time>
      </trkpt>
      <trkpt lat="47.42425" lon="0.85003">
        <ele>117</ele>
        <time>2011-05-01T09:16:40Z</time>
      </trkpt>
      <trkpt lat="47.42429" lon="0.85007">
        <ele>117</ele>
        <time>2011-05-01T09:16:42Z</time>
      </trkpt>
      <trkpt lat="47.42427" lon="0.85013">
        <ele>116</ele>
        <time>2011-05-01T09:16:44Z</time>
      </trkpt>
      <trkpt lat="47.42428" lon="0.85019">
        <ele>116</ele>
        <time>2011-05-01T09:16:46Z</time>
      </trkpt>
      <trkpt lat="47.42431" lon="0.85027">
        <ele>116</ele>
        <time>2011-05-01T09:16:49Z</time>
      </trkpt>
      <trkpt lat="47.42435" lon="0.85033">
        <ele>116</ele>
        <time>2011-05-01T09:16:52Z</time>
      </trkpt>
      <trkpt lat="47.42437" lon="0.8504">
        <ele>116</ele>
        <time>2011-05-01T09:16:55Z</time>
      </trkpt>
      <trkpt lat="47.42442" lon="0.85046">
        <ele>116</ele>
        <time>2011-05-01T09:16:58Z</time>
      </trkpt>
      <trkpt lat="47.42447" lon="0.85051">
        <ele>117</ele>
        <time>2011-05-01T09:17:01Z</time>
      </trkpt>
      <trkpt lat="47.42454" lon="0.85057">
        <ele>119</ele>
        <time>2011-05-01T09:17:04Z</time>
      </trkpt>
      <trkpt lat="47.42457" lon="0.85064">
        <ele>119</ele>
        <time>2011-05-01T09:17:07Z</time>
      </trkpt>
      <trkpt lat="47.42461" lon="0.85069">
        <ele>120</ele>
        <time>2011-05-01T09:17:10Z</time>
      </trkpt>
      <trkpt lat="47.42462" lon="0.85076">
        <ele>121</ele>
        <time>2011-05-01T09:17:15Z</time>
      </trkpt>
      <trkpt lat="47.42463" lon="0.85083">
        <ele>122</ele>
        <time>2011-05-01T09:17:24Z</time>
      </trkpt>
      <trkpt lat="47.42463" lon="0.85083">
        <ele>122</ele>
        <time>2011-05-01T09:17:24Z</time>
      </trkpt>
      <trkpt lat="47.42463" lon="0.85083">
        <ele>123</ele>
        <time>2011-05-01T09:17:28Z</time>
      </trkpt>
      <trkpt lat="47.42466" lon="0.85091">
        <ele>122</ele>
        <time>2011-05-01T09:17:39Z</time>
      </trkpt>
      <trkpt lat="47.42467" lon="0.85101">
        <ele>123</ele>
        <time>2011-05-01T09:17:42Z</time>
      </trkpt>
      <trkpt lat="47.42468" lon="0.85109">
        <ele>124</ele>
        <time>2011-05-01T09:17:44Z</time>
      </trkpt>
      <trkpt lat="47.4247" lon="0.85118">
        <ele>125</ele>
        <time>2011-05-01T09:17:46Z</time>
      </trkpt>
      <trkpt lat="47.42474" lon="0.85124">
        <ele>124</ele>
        <time>2011-05-01T09:17:49Z</time>
      </trkpt>
      <trkpt lat="47.42475" lon="0.85131">
        <ele>127</ele>
        <time>2011-05-01T09:17:53Z</time>
      </trkpt>
      <trkpt lat="47.42476" lon="0.85139">
        <ele>127</ele>
        <time>2011-05-01T09:17:56Z</time>
      </trkpt>
      <trkpt lat="47.42478" lon="0.85148">
        <ele>130</ele>
        <time>2011-05-01T09:18:00Z</time>
      </trkpt>
      <trkpt lat="47.4248" lon="0.85155">
        <ele>131</ele>
        <time>2011-05-01T09:18:03Z</time>
      </trkpt>
      <trkpt lat="47.42482" lon="0.85162">
        <ele>131</ele>
        <time>2011-05-01T09:18:07Z</time>
      </trkpt>
      <trkpt lat="47.42485" lon="0.85169">
        <ele>131</ele>
        <time>2011-05-01T09:18:10Z</time>
      </trkpt>
      <trkpt lat="47.42488" lon="0.85177">
        <ele>132</ele>
        <time>2011-05-01T09:18:14Z</time>
      </trkpt>
      <trkpt lat="47.4249" lon="0.85183">
        <ele>132</ele>
        <time>2011-05-01T09:18:17Z</time>
      </trkpt>
      <trkpt lat="47.42494" lon="0.8519">
        <ele>133</ele>
        <time>2011-05-01T09:18:20Z</time>
      </trkpt>
      <trkpt lat="47.42496" lon="0.85197">
        <ele>134</ele>
        <time>2011-05-01T09:18:23Z</time>
      </trkpt>
      <trkpt lat="47.425" lon="0.85205">
        <ele>134</ele>
        <time>2011-05-01T09:18:26Z</time>
      </trkpt>
      <trkpt lat="47.42501" lon="0.85212">
        <ele>135</ele>
        <time>2011-05-01T09:18:29Z</time>
      </trkpt>
      <trkpt lat="47.425" lon="0.85222">
        <ele>136</ele>
        <time>2011-05-01T09:18:33Z</time>
      </trkpt>
      <trkpt lat="47.42497" lon="0.85228">
        <ele>138</ele>
        <time>2011-05-01T09:18:36Z</time>
      </trkpt>
      <trkpt lat="47.42495" lon="0.85235">
        <ele>140</ele>
        <time>2011-05-01T09:18:38Z</time>
      </trkpt>
      <trkpt lat="47.42492" lon="0.8524">
        <ele>141</ele>
        <time>2011-05-01T09:18:40Z</time>
      </trkpt>
      <trkpt lat="47.42488" lon="0.85249">
        <ele>141</ele>
        <time>2011-05-01T09:18:43Z</time>
      </trkpt>
      <trkpt lat="47.42484" lon="0.85255">
        <ele>143</ele>
        <time>2011-05-01T09:18:45Z</time>
      </trkpt>
      <trkpt lat="47.42482" lon="0.85262">
        <ele>143</ele>
        <time>2011-05-01T09:18:47Z</time>
      </trkpt>
      <trkpt lat="47.4248" lon="0.85269">
        <ele>145</ele>
        <time>2011-05-01T09:18:49Z</time>
      </trkpt>
      <trkpt lat="47.42478" lon="0.85277">
        <ele>145</ele>
        <time>2011-05-01T09:18:51Z</time>
      </trkpt>
      <trkpt lat="47.42476" lon="0.85285">
        <ele>146</ele>
        <time>2011-05-01T09:18:53Z</time>
      </trkpt>
      <trkpt lat="47.42475" lon="0.85296">
        <ele>147</ele>
        <time>2011-05-01T09:18:55Z</time>
      </trkpt>
      <trkpt lat="47.42474" lon="0.85307">
        <ele>147</ele>
        <time>2011-05-01T09:18:57Z</time>
      </trkpt>
      <trkpt lat="47.42474" lon="0.85318">
        <ele>147</ele>
        <time>2011-05-01T09:18:59Z</time>
      </trkpt>
      <trkpt lat="47.42474" lon="0.8533">
        <ele>147</ele>
        <time>2011-05-01T09:19:01Z</time>
      </trkpt>
      <trkpt lat="47.42474" lon="0.85342">
        <ele>147</ele>
        <time>2011-05-01T09:19:03Z</time>
      </trkpt>
      <trkpt lat="47.42475" lon="0.85354">
        <ele>147</ele>
        <time>2011-05-01T09:19:05Z</time>
      </trkpt>
      <trkpt lat="47.42474" lon="0.85361">
        <ele>147</ele>
        <time>2011-05-01T09:19:06Z</time>
      </trkpt>
      <trkpt lat="47.42474" lon="0.85368">
        <ele>147</ele>
        <time>2011-05-01T09:19:07Z</time>
      </trkpt>
      <trkpt lat="47.42474" lon="0.85382">
        <ele>147</ele>
        <time>2011-05-01T09:19:09Z</time>
      </trkpt>
      <trkpt lat="47.42473" lon="0.85395">
        <ele>147</ele>
        <time>2011-05-01T09:19:11Z</time>
      </trkpt>
      <trkpt lat="47.42472" lon="0.85403">
        <ele>148</ele>
        <time>2011-05-01T09:19:12Z</time>
      </trkpt>
      <trkpt lat="47.42472" lon="0.8541">
        <ele>147</ele>
        <time>2011-05-01T09:19:13Z</time>
      </trkpt>
      <trkpt lat="47.42472" lon="0.85417">
        <ele>147</ele>
        <time>2011-05-01T09:19:14Z</time>
      </trkpt>
      <trkpt lat="47.42472" lon="0.85425">
        <ele>147</ele>
        <time>2011-05-01T09:19:15Z</time>
      </trkpt>
      <trkpt lat="47.42472" lon="0.85433">
        <ele>147</ele>
        <time>2011-05-01T09:19:16Z</time>
      </trkpt>
      <trkpt lat="47.42472" lon="0.85441">
        <ele>147</ele>
        <time>2011-05-01T09:19:17Z</time>
      </trkpt>
      <trkpt lat="47.42472" lon="0.85449">
        <ele>147</ele>
        <time>2011-05-01T09:19:18Z</time>
      </trkpt>
      <trkpt lat="47.42473" lon="0.85458">
        <ele>147</ele>
        <time>2011-05-01T09:19:19Z</time>
      </trkpt>
      <trkpt lat="47.42474" lon="0.85467">
        <ele>146</ele>
        <time>2011-05-01T09:19:20Z</time>
      </trkpt>
      <trkpt lat="47.42475" lon="0.85476">
        <ele>146</ele>
        <time>2011-05-01T09:19:21Z</time>
      </trkpt>
      <trkpt lat="47.42477" lon="0.85484">
        <ele>146</ele>
        <time>2011-05-01T09:19:22Z</time>
      </trkpt>
      <trkpt lat="47.42479" lon="0.85493">
        <ele>146</ele>
        <time>2011-05-01T09:19:23Z</time>
      </trkpt>
      <trkpt lat="47.4248" lon="0.85501">
        <ele>145</ele>
        <time>2011-05-01T09:19:24Z</time>
      </trkpt>
      <trkpt lat="47.42482" lon="0.85509">
        <ele>145</ele>
        <time>2011-05-01T09:19:25Z</time>
      </trkpt>
      <trkpt lat="47.42485" lon="0.85518">
        <ele>145</ele>
        <time>2011-05-01T09:19:26Z</time>
      </trkpt>
      <trkpt lat="47.42489" lon="0.85525">
        <ele>145</ele>
        <time>2011-05-01T09:19:27Z</time>
      </trkpt>
      <trkpt lat="47.42493" lon="0.85532">
        <ele>145</ele>
        <time>2011-05-01T09:19:28Z</time>
      </trkpt>
      <trkpt lat="47.42497" lon="0.85539">
        <ele>145</ele>
        <time>2011-05-01T09:19:29Z</time>
      </trkpt>
      <trkpt lat="47.42501" lon="0.85545">
        <ele>145</ele>
        <time>2011-05-01T09:19:30Z</time>
      </trkpt>
      <trkpt lat="47.42505" lon="0.85552">
        <ele>146</ele>
        <time>2011-05-01T09:19:31Z</time>
      </trkpt>
      <trkpt lat="47.42509" lon="0.85558">
        <ele>146</ele>
        <time>2011-05-01T09:19:32Z</time>
      </trkpt>
      <trkpt lat="47.42513" lon="0.85564">
        <ele>146</ele>
        <time>2011-05-01T09:19:33Z</time>
      </trkpt>
      <trkpt lat="47.42517" lon="0.85569">
        <ele>146</ele>
        <time>2011-05-01T09:19:34Z</time>
      </trkpt>
      <trkpt lat="47.42521" lon="0.85575">
        <ele>146</ele>
        <time>2011-05-01T09:19:35Z</time>
      </trkpt>
      <trkpt lat="47.42525" lon="0.8558">
        <ele>146</ele>
        <time>2011-05-01T09:19:36Z</time>
      </trkpt>
      <trkpt lat="47.42529" lon="0.85586">
        <ele>147</ele>
        <time>2011-05-01T09:19:37Z</time>
      </trkpt>
      <trkpt lat="47.42533" lon="0.85591">
        <ele>147</ele>
        <time>2011-05-01T09:19:38Z</time>
      </trkpt>
      <trkpt lat="47.42537" lon="0.85597">
        <ele>147</ele>
        <time>2011-05-01T09:19:39Z</time>
      </trkpt>
      <trkpt lat="47.42541" lon="0.85603">
        <ele>147</ele>
        <time>2011-05-01T09:19:40Z</time>
      </trkpt>
      <trkpt lat="47.42545" lon="0.85609">
        <ele>147</ele>
        <time>2011-05-01T09:19:41Z</time>
      </trkpt>
      <trkpt lat="47.42548" lon="0.85614">
        <ele>147</ele>
        <time>2011-05-01T09:19:42Z</time>
      </trkpt>
      <trkpt lat="47.42552" lon="0.8562">
        <ele>147</ele>
        <time>2011-05-01T09:19:43Z</time>
      </trkpt>
      <trkpt lat="47.42556" lon="0.85625">
        <ele>147</ele>
        <time>2011-05-01T09:19:44Z</time>
      </trkpt>
      <trkpt lat="47.4256" lon="0.85631">
        <ele>147</ele>
        <time>2011-05-01T09:19:45Z</time>
      </trkpt>
      <trkpt lat="47.42564" lon="0.85636">
        <ele>147</ele>
        <time>2011-05-01T09:19:46Z</time>
      </trkpt>
      <trkpt lat="47.42568" lon="0.85642">
        <ele>148</ele>
        <time>2011-05-01T09:19:47Z</time>
      </trkpt>
      <trkpt lat="47.42572" lon="0.85648">
        <ele>148</ele>
        <time>2011-05-01T09:19:48Z</time>
      </trkpt>
      <trkpt lat="47.42575" lon="0.85652">
        <ele>149</ele>
        <time>2011-05-01T09:19:49Z</time>
      </trkpt>
      <trkpt lat="47.42578" lon="0.85658">
        <ele>149</ele>
        <time>2011-05-01T09:19:50Z</time>
      </trkpt>
      <trkpt lat="47.42582" lon="0.85663">
        <ele>149</ele>
        <time>2011-05-01T09:19:51Z</time>
      </trkpt>
      <trkpt lat="47.42585" lon="0.85669">
        <ele>149</ele>
        <time>2011-05-01T09:19:52Z</time>
      </trkpt>
      <trkpt lat="47.42589" lon="0.85674">
        <ele>149</ele>
        <time>2011-05-01T09:19:53Z</time>
      </trkpt>
      <trkpt lat="47.42592" lon="0.8568">
        <ele>150</ele>
        <time>2011-05-01T09:19:54Z</time>
      </trkpt>
      <trkpt lat="47.42594" lon="0.85687">
        <ele>150</ele>
        <time>2011-05-01T09:19:55Z</time>
      </trkpt>
      <trkpt lat="47.42598" lon="0.85692">
        <ele>150</ele>
        <time>2011-05-01T09:19:56Z</time>
      </trkpt>
      <trkpt lat="47.42601" lon="0.85698">
        <ele>150</ele>
        <time>2011-05-01T09:19:57Z</time>
      </trkpt>
      <trkpt lat="47.42604" lon="0.85703">
        <ele>150</ele>
        <time>2011-05-01T09:19:58Z</time>
      </trkpt>
      <trkpt lat="47.42607" lon="0.85709">
        <ele>150</ele>
        <time>2011-05-01T09:19:59Z</time>
      </trkpt>
      <trkpt lat="47.42611" lon="0.85715">
        <ele>150</ele>
        <time>2011-05-01T09:20:00Z</time>
      </trkpt>
      <trkpt lat="47.42613" lon="0.85721">
        <ele>150</ele>
        <time>2011-05-01T09:20:01Z</time>
      </trkpt>
      <trkpt lat="47.42616" lon="0.85727">
        <ele>150</ele>
        <time>2011-05-01T09:20:02Z</time>
      </trkpt>
      <trkpt lat="47.4262" lon="0.85734">
        <ele>150</ele>
        <time>2011-05-01T09:20:03Z</time>
      </trkpt>
      <trkpt lat="47.42624" lon="0.85739">
        <ele>150</ele>
        <time>2011-05-01T09:20:04Z</time>
      </trkpt>
      <trkpt lat="47.42627" lon="0.85744">
        <ele>150</ele>
        <time>2011-05-01T09:20:05Z</time>
      </trkpt>
      <trkpt lat="47.42632" lon="0.85751">
        <ele>151</ele>
        <time>2011-05-01T09:20:06Z</time>
      </trkpt>
      <trkpt lat="47.42635" lon="0.85757">
        <ele>151</ele>
        <time>2011-05-01T09:20:07Z</time>
      </trkpt>
      <trkpt lat="47.42638" lon="0.85763">
        <ele>151</ele>
        <time>2011-05-01T09:20:08Z</time>
      </trkpt>
      <trkpt lat="47.42642" lon="0.8577">
        <ele>151</ele>
        <time>2011-05-01T09:20:09Z</time>
      </trkpt>
      <trkpt lat="47.42646" lon="0.85776">
        <ele>151</ele>
        <time>2011-05-01T09:20:10Z</time>
      </trkpt>
      <trkpt lat="47.42649" lon="0.85781">
        <ele>150</ele>
        <time>2011-05-01T09:20:11Z</time>
      </trkpt>
      <trkpt lat="47.42653" lon="0.85787">
        <ele>151</ele>
        <time>2011-05-01T09:20:12Z</time>
      </trkpt>
      <trkpt lat="47.42657" lon="0.85793">
        <ele>151</ele>
        <time>2011-05-01T09:20:13Z</time>
      </trkpt>
      <trkpt lat="47.4266" lon="0.85798">
        <ele>151</ele>
        <time>2011-05-01T09:20:14Z</time>
      </trkpt>
      <trkpt lat="47.42664" lon="0.85804">
        <ele>151</ele>
        <time>2011-05-01T09:20:15Z</time>
      </trkpt>
      <trkpt lat="47.42668" lon="0.8581">
        <ele>151</ele>
        <time>2011-05-01T09:20:16Z</time>
      </trkpt>
      <trkpt lat="47.42672" lon="0.85816">
        <ele>152</ele>
        <time>2011-05-01T09:20:17Z</time>
      </trkpt>
      <trkpt lat="47.42675" lon="0.85822">
        <ele>152</ele>
        <time>2011-05-01T09:20:18Z</time>
      </trkpt>
      <trkpt lat="47.42678" lon="0.85828">
        <ele>152</ele>
        <time>2011-05-01T09:20:19Z</time>
      </trkpt>
      <trkpt lat="47.42682" lon="0.85834">
        <ele>152</ele>
        <time>2011-05-01T09:20:20Z</time>
      </trkpt>
      <trkpt lat="47.42685" lon="0.8584">
        <ele>152</ele>
        <time>2011-05-01T09:20:21Z</time>
      </trkpt>
      <trkpt lat="47.42688" lon="0.85846">
        <ele>152</ele>
        <time>2011-05-01T09:20:22Z</time>
      </trkpt>
      <trkpt lat="47.42692" lon="0.85853">
        <ele>152</ele>
        <time>2011-05-01T09:20:23Z</time>
      </trkpt>
      <trkpt lat="47.42694" lon="0.85858">
        <ele>152</ele>
        <time>2011-05-01T09:20:24Z</time>
      </trkpt>
      <trkpt lat="47.42698" lon="0.85864">
        <ele>152</ele>
        <time>2011-05-01T09:20:25Z</time>
      </trkpt>
      <trkpt lat="47.42701" lon="0.8587">
        <ele>152</ele>
        <time>2011-05-01T09:20:26Z</time>
      </trkpt>
      <trkpt lat="47.42704" lon="0.85876">
        <ele>152</ele>
        <time>2011-05-01T09:20:27Z</time>
      </trkpt>
      <trkpt lat="47.42707" lon="0.85882">
        <ele>152</ele>
        <time>2011-05-01T09:20:28Z</time>
      </trkpt>
      <trkpt lat="47.4271" lon="0.85888">
        <ele>152</ele>
        <time>2011-05-01T09:20:29Z</time>
      </trkpt>
      <trkpt lat="47.42712" lon="0.85894">
        <ele>152</ele>
        <time>2011-05-01T09:20:30Z</time>
      </trkpt>
      <trkpt lat="47.42716" lon="0.85899">
        <ele>152</ele>
        <time>2011-05-01T09:20:31Z</time>
      </trkpt>
      <trkpt lat="47.42718" lon="0.85906">
        <ele>152</ele>
        <time>2011-05-01T09:20:32Z</time>
      </trkpt>
      <trkpt lat="47.42722" lon="0.85912">
        <ele>152</ele>
        <time>2011-05-01T09:20:33Z</time>
      </trkpt>
      <trkpt lat="47.42725" lon="0.85918">
        <ele>152</ele>
        <time>2011-05-01T09:20:34Z</time>
      </trkpt>
      <trkpt lat="47.42728" lon="0.85924">
        <ele>152</ele>
        <time>2011-05-01T09:20:35Z</time>
      </trkpt>
      <trkpt lat="47.42731" lon="0.85929">
        <ele>152</ele>
        <time>2011-05-01T09:20:36Z</time>
      </trkpt>
      <trkpt lat="47.42734" lon="0.85936">
        <ele>152</ele>
        <time>2011-05-01T09:20:37Z</time>
      </trkpt>
      <trkpt lat="47.42738" lon="0.85942">
        <ele>152</ele>
        <time>2011-05-01T09:20:38Z</time>
      </trkpt>
      <trkpt lat="47.42741" lon="0.85949">
        <ele>152</ele>
        <time>2011-05-01T09:20:39Z</time>
      </trkpt>
      <trkpt lat="47.42745" lon="0.85956">
        <ele>151</ele>
        <time>2011-05-01T09:20:40Z</time>
      </trkpt>
      <trkpt lat="47.42748" lon="0.85963">
        <ele>151</ele>
        <time>2011-05-01T09:20:41Z</time>
      </trkpt>
      <trkpt lat="47.42752" lon="0.8597">
        <ele>151</ele>
        <time>2011-05-01T09:20:42Z</time>
      </trkpt>
      <trkpt lat="47.42755" lon="0.85976">
        <ele>151</ele>
        <time>2011-05-01T09:20:43Z</time>
      </trkpt>
      <trkpt lat="47.42759" lon="0.85982">
        <ele>151</ele>
        <time>2011-05-01T09:20:44Z</time>
      </trkpt>
      <trkpt lat="47.42762" lon="0.85988">
        <ele>150</ele>
        <time>2011-05-01T09:20:45Z</time>
      </trkpt>
      <trkpt lat="47.42766" lon="0.85994">
        <ele>151</ele>
        <time>2011-05-01T09:20:46Z</time>
      </trkpt>
      <trkpt lat="47.42769" lon="0.86">
        <ele>151</ele>
        <time>2011-05-01T09:20:47Z</time>
      </trkpt>
      <trkpt lat="47.42774" lon="0.86006">
        <ele>151</ele>
        <time>2011-05-01T09:20:48Z</time>
      </trkpt>
      <trkpt lat="47.42777" lon="0.86011">
        <ele>151</ele>
        <time>2011-05-01T09:20:49Z</time>
      </trkpt>
      <trkpt lat="47.42781" lon="0.86017">
        <ele>151</ele>
        <time>2011-05-01T09:20:50Z</time>
      </trkpt>
      <trkpt lat="47.42785" lon="0.86022">
        <ele>151</ele>
        <time>2011-05-01T09:20:51Z</time>
      </trkpt>
      <trkpt lat="47.42789" lon="0.86026">
        <ele>151</ele>
        <time>2011-05-01T09:20:52Z</time>
      </trkpt>
      <trkpt lat="47.42792" lon="0.86032">
        <ele>151</ele>
        <time>2011-05-01T09:20:53Z</time>
      </trkpt>
      <trkpt lat="47.42796" lon="0.86038">
        <ele>151</ele>
        <time>2011-05-01T09:20:54Z</time>
      </trkpt>
      <trkpt lat="47.428" lon="0.86044">
        <ele>151</ele>
        <time>2011-05-01T09:20:55Z</time>
      </trkpt>
      <trkpt lat="47.42804" lon="0.86049">
        <ele>151</ele>
        <time>2011-05-01T09:20:56Z</time>
      </trkpt>
      <trkpt lat="47.42807" lon="0.86056">
        <ele>151</ele>
        <time>2011-05-01T09:20:57Z</time>
      </trkpt>
      <trkpt lat="47.4281" lon="0.86063">
        <ele>151</ele>
        <time>2011-05-01T09:20:58Z</time>
      </trkpt>
      <trkpt lat="47.42813" lon="0.8607">
        <ele>151</ele>
        <time>2011-05-01T09:20:59Z</time>
      </trkpt>
      <trkpt lat="47.42817" lon="0.86077">
        <ele>151</ele>
        <time>2011-05-01T09:21:00Z</time>
      </trkpt>
      <trkpt lat="47.4282" lon="0.86084">
        <ele>151</ele>
        <time>2011-05-01T09:21:01Z</time>
      </trkpt>
      <trkpt lat="47.42822" lon="0.86092">
        <ele>151</ele>
        <time>2011-05-01T09:21:02Z</time>
      </trkpt>
      <trkpt lat="47.42825" lon="0.86101">
        <ele>151</ele>
        <time>2011-05-01T09:21:03Z</time>
      </trkpt>
      <trkpt lat="47.42828" lon="0.86109">
        <ele>151</ele>
        <time>2011-05-01T09:21:04Z</time>
      </trkpt>
      <trkpt lat="47.4283" lon="0.86117">
        <ele>150</ele>
        <time>2011-05-01T09:21:05Z</time>
      </trkpt>
      <trkpt lat="47.42833" lon="0.86126">
        <ele>150</ele>
        <time>2011-05-01T09:21:06Z</time>
      </trkpt>
      <trkpt lat="47.42835" lon="0.86134">
        <ele>150</ele>
        <time>2011-05-01T09:21:07Z</time>
      </trkpt>
      <trkpt lat="47.42837" lon="0.86143">
        <ele>150</ele>
        <time>2011-05-01T09:21:08Z</time>
      </trkpt>
      <trkpt lat="47.4284" lon="0.86151">
        <ele>149</ele>
        <time>2011-05-01T09:21:09Z</time>
      </trkpt>
      <trkpt lat="47.42842" lon="0.86161">
        <ele>149</ele>
        <time>2011-05-01T09:21:10Z</time>
      </trkpt>
      <trkpt lat="47.42846" lon="0.8617">
        <ele>148</ele>
        <time>2011-05-01T09:21:11Z</time>
      </trkpt>
      <trkpt lat="47.42849" lon="0.86179">
        <ele>148</ele>
        <time>2011-05-01T09:21:12Z</time>
      </trkpt>
      <trkpt lat="47.42852" lon="0.86188">
        <ele>147</ele>
        <time>2011-05-01T09:21:13Z</time>
      </trkpt>
      <trkpt lat="47.42855" lon="0.86198">
        <ele>147</ele>
        <time>2011-05-01T09:21:14Z</time>
      </trkpt>
      <trkpt lat="47.42857" lon="0.86207">
        <ele>147</ele>
        <time>2011-05-01T09:21:15Z</time>
      </trkpt>
      <trkpt lat="47.42858" lon="0.86215">
        <ele>146</ele>
        <time>2011-05-01T09:21:16Z</time>
      </trkpt>
      <trkpt lat="47.42862" lon="0.86225">
        <ele>146</ele>
        <time>2011-05-01T09:21:18Z</time>
      </trkpt>
      <trkpt lat="47.42868" lon="0.86236">
        <ele>145</ele>
        <time>2011-05-01T09:21:20Z</time>
      </trkpt>
      <trkpt lat="47.42866" lon="0.86225">
        <ele>145</ele>
        <time>2011-05-01T09:21:21Z</time>
      </trkpt>
      <trkpt lat="47.42868" lon="0.86215">
        <ele>144</ele>
        <time>2011-05-01T09:21:22Z</time>
      </trkpt>
      <trkpt lat="47.42871" lon="0.86208">
        <ele>143</ele>
        <time>2011-05-01T09:21:23Z</time>
      </trkpt>
      <trkpt lat="47.42873" lon="0.86201">
        <ele>142</ele>
        <time>2011-05-01T09:21:24Z</time>
      </trkpt>
      <trkpt lat="47.42878" lon="0.86196">
        <ele>143</ele>
        <time>2011-05-01T09:21:25Z</time>
      </trkpt>
      <trkpt lat="47.42883" lon="0.86192">
        <ele>143</ele>
        <time>2011-05-01T09:21:26Z</time>
      </trkpt>
      <trkpt lat="47.42888" lon="0.86188">
        <ele>143</ele>
        <time>2011-05-01T09:21:27Z</time>
      </trkpt>
      <trkpt lat="47.42892" lon="0.86186">
        <ele>143</ele>
        <time>2011-05-01T09:21:28Z</time>
      </trkpt>
      <trkpt lat="47.42899" lon="0.86182">
        <ele>143</ele>
        <time>2011-05-01T09:21:29Z</time>
      </trkpt>
      <trkpt lat="47.42906" lon="0.8618">
        <ele>143</ele>
        <time>2011-05-01T09:21:30Z</time>
      </trkpt>
      <trkpt lat="47.42913" lon="0.86179">
        <ele>143</ele>
        <time>2011-05-01T09:21:31Z</time>
      </trkpt>
      <trkpt lat="47.4292" lon="0.86179">
        <ele>143</ele>
        <time>2011-05-01T09:21:32Z</time>
      </trkpt>
      <trkpt lat="47.42927" lon="0.86179">
        <ele>143</ele>
        <time>2011-05-01T09:21:33Z</time>
      </trkpt>
      <trkpt lat="47.42935" lon="0.86177">
        <ele>144</ele>
        <time>2011-05-01T09:21:34Z</time>
      </trkpt>
      <trkpt lat="47.42942" lon="0.86172">
        <ele>143</ele>
        <time>2011-05-01T09:21:35Z</time>
      </trkpt>
      <trkpt lat="47.42948" lon="0.86165">
        <ele>143</ele>
        <time>2011-05-01T09:21:36Z</time>
      </trkpt>
      <trkpt lat="47.42956" lon="0.86158">
        <ele>143</ele>
        <time>2011-05-01T09:21:37Z</time>
      </trkpt>
      <trkpt lat="47.42964" lon="0.86148">
        <ele>143</ele>
        <time>2011-05-01T09:21:38Z</time>
      </trkpt>
      <trkpt lat="47.4297" lon="0.86139">
        <ele>142</ele>
        <time>2011-05-01T09:21:39Z</time>
      </trkpt>
      <trkpt lat="47.42977" lon="0.86129">
        <ele>142</ele>
        <time>2011-05-01T09:21:40Z</time>
      </trkpt>
      <trkpt lat="47.42983" lon="0.86118">
        <ele>142</ele>
        <time>2011-05-01T09:21:41Z</time>
      </trkpt>
      <trkpt lat="47.4299" lon="0.86104">
        <ele>142</ele>
        <time>2011-05-01T09:21:42Z</time>
      </trkpt>
      <trkpt lat="47.42997" lon="0.8609">
        <ele>141</ele>
        <time>2011-05-01T09:21:43Z</time>
      </trkpt>
      <trkpt lat="47.43004" lon="0.86076">
        <ele>141</ele>
        <time>2011-05-01T09:21:44Z</time>
      </trkpt>
      <trkpt lat="47.43012" lon="0.86064">
        <ele>141</ele>
        <time>2011-05-01T09:21:45Z</time>
      </trkpt>
      <trkpt lat="47.43016" lon="0.86053">
        <ele>140</ele>
        <time>2011-05-01T09:21:46Z</time>
      </trkpt>
      <trkpt lat="47.43016" lon="0.86042">
        <ele>139</ele>
        <time>2011-05-01T09:21:47Z</time>
      </trkpt>
      <trkpt lat="47.43015" lon="0.86033">
        <ele>139</ele>
        <time>2011-05-01T09:21:48Z</time>
      </trkpt>
      <trkpt lat="47.43017" lon="0.86023">
        <ele>139</ele>
        <time>2011-05-01T09:21:49Z</time>
      </trkpt>
      <trkpt lat="47.43019" lon="0.86012">
        <ele>136</ele>
        <time>2011-05-01T09:21:51Z</time>
      </trkpt>
      <trkpt lat="47.43024" lon="0.86013">
        <ele>134</ele>
        <time>2011-05-01T09:21:54Z</time>
      </trkpt>
      <trkpt lat="47.43028" lon="0.86018">
        <ele>134</ele>
        <time>2011-05-01T09:21:55Z</time>
      </trkpt>
      <trkpt lat="47.43033" lon="0.86023">
        <ele>134</ele>
        <time>2011-05-01T09:21:56Z</time>
      </trkpt>
      <trkpt lat="47.43039" lon="0.86026">
        <ele>134</ele>
        <time>2011-05-01T09:21:57Z</time>
      </trkpt>
      <trkpt lat="47.43048" lon="0.86031">
        <ele>134</ele>
        <time>2011-05-01T09:21:58Z</time>
      </trkpt>
      <trkpt lat="47.43054" lon="0.86036">
        <ele>133</ele>
        <time>2011-05-01T09:21:59Z</time>
      </trkpt>
      <trkpt lat="47.4306" lon="0.86037">
        <ele>133</ele>
        <time>2011-05-01T09:22:00Z</time>
      </trkpt>
      <trkpt lat="47.43067" lon="0.86033">
        <ele>132</ele>
        <time>2011-05-01T09:22:01Z</time>
      </trkpt>
      <trkpt lat="47.43066" lon="0.86024">
        <ele>130</ele>
        <time>2011-05-01T09:22:02Z</time>
      </trkpt>
      <trkpt lat="47.43066" lon="0.86014">
        <ele>128</ele>
        <time>2011-05-01T09:22:03Z</time>
      </trkpt>
      <trkpt lat="47.43067" lon="0.86004">
        <ele>127</ele>
        <time>2011-05-01T09:22:04Z</time>
      </trkpt>
      <trkpt lat="47.43063" lon="0.85994">
        <ele>126</ele>
        <time>2011-05-01T09:22:05Z</time>
      </trkpt>
      <trkpt lat="47.4306" lon="0.85984">
        <ele>124</ele>
        <time>2011-05-01T09:22:06Z</time>
      </trkpt>
      <trkpt lat="47.43057" lon="0.85972">
        <ele>122</ele>
        <time>2011-05-01T09:22:07Z</time>
      </trkpt>
      <trkpt lat="47.43054" lon="0.85961">
        <ele>122</ele>
        <time>2011-05-01T09:22:08Z</time>
      </trkpt>
      <trkpt lat="47.43052" lon="0.8595">
        <ele>121</ele>
        <time>2011-05-01T09:22:09Z</time>
      </trkpt>
      <trkpt lat="47.4305" lon="0.8594">
        <ele>121</ele>
        <time>2011-05-01T09:22:10Z</time>
      </trkpt>
      <trkpt lat="47.43047" lon="0.85931">
        <ele>121</ele>
        <time>2011-05-01T09:22:11Z</time>
      </trkpt>
      <trkpt lat="47.43044" lon="0.85921">
        <ele>121</ele>
        <time>2011-05-01T09:22:12Z</time>
      </trkpt>
      <trkpt lat="47.43039" lon="0.85912">
        <ele>120</ele>
        <time>2011-05-01T09:22:13Z</time>
      </trkpt>
      <trkpt lat="47.43035" lon="0.85903">
        <ele>120</ele>
        <time>2011-05-01T09:22:14Z</time>
      </trkpt>
      <trkpt lat="47.43033" lon="0.85893">
        <ele>120</ele>
        <time>2011-05-01T09:22:15Z</time>
      </trkpt>
      <trkpt lat="47.43027" lon="0.85884">
        <ele>120</ele>
        <time>2011-05-01T09:22:16Z</time>
      </trkpt>
      <trkpt lat="47.43025" lon="0.85878">
        <ele>119</ele>
        <time>2011-05-01T09:22:18Z</time>
      </trkpt>
      <trkpt lat="47.43021" lon="0.85876">
        <ele>119</ele>
        <time>2011-05-01T09:22:20Z</time>
      </trkpt>
      <trkpt lat="47.43017" lon="0.85874">
        <ele>119</ele>
        <time>2011-05-01T09:22:23Z</time>
      </trkpt>
      <trkpt lat="47.43011" lon="0.8587">
        <ele>124</ele>
        <time>2011-05-01T09:22:26Z</time>
      </trkpt>
      <trkpt lat="47.43005" lon="0.85868">
        <ele>125</ele>
        <time>2011-05-01T09:22:29Z</time>
      </trkpt>
      <trkpt lat="47.43001" lon="0.85863">
        <ele>125</ele>
        <time>2011-05-01T09:22:31Z</time>
      </trkpt>
      <trkpt lat="47.42995" lon="0.85862">
        <ele>125</ele>
        <time>2011-05-01T09:22:33Z</time>
      </trkpt>
      <trkpt lat="47.4299" lon="0.85858">
        <ele>124</ele>
        <time>2011-05-01T09:22:35Z</time>
      </trkpt>
      <trkpt lat="47.42986" lon="0.85853">
        <ele>124</ele>
        <time>2011-05-01T09:22:38Z</time>
      </trkpt>
      <trkpt lat="47.4298" lon="0.85847">
        <ele>120</ele>
        <time>2011-05-01T09:22:40Z</time>
      </trkpt>
      <trkpt lat="47.42975" lon="0.85842">
        <ele>118</ele>
        <time>2011-05-01T09:22:42Z</time>
      </trkpt>
      <trkpt lat="47.4297" lon="0.85836">
        <ele>116</ele>
        <time>2011-05-01T09:22:44Z</time>
      </trkpt>
      <trkpt lat="47.42965" lon="0.8583">
        <ele>114</ele>
        <time>2011-05-01T09:22:46Z</time>
      </trkpt>
      <trkpt lat="47.42968" lon="0.8582">
        <ele>118</ele>
        <time>2011-05-01T09:22:48Z</time>
      </trkpt>
      <trkpt lat="47.42967" lon="0.85811">
        <ele>122</ele>
        <time>2011-05-01T09:22:50Z</time>
      </trkpt>
      <trkpt lat="47.42965" lon="0.85801">
        <ele>125</ele>
        <time>2011-05-01T09:22:52Z</time>
      </trkpt>
      <trkpt lat="47.42963" lon="0.8579">
        <ele>129</ele>
        <time>2011-05-01T09:22:54Z</time>
      </trkpt>
      <trkpt lat="47.42959" lon="0.8578">
        <ele>130</ele>
        <time>2011-05-01T09:22:56Z</time>
      </trkpt>
      <trkpt lat="47.42954" lon="0.8577">
        <ele>129</ele>
        <time>2011-05-01T09:22:58Z</time>
      </trkpt>
      <trkpt lat="47.4295" lon="0.85761">
        <ele>129</ele>
        <time>2011-05-01T09:23:00Z</time>
      </trkpt>
      <trkpt lat="47.42943" lon="0.85753">
        <ele>129</ele>
        <time>2011-05-01T09:23:02Z</time>
      </trkpt>
      <trkpt lat="47.42939" lon="0.8575">
        <ele>129</ele>
        <time>2011-05-01T09:23:03Z</time>
      </trkpt>
      <trkpt lat="47.42935" lon="0.85746">
        <ele>128</ele>
        <time>2011-05-01T09:23:04Z</time>
      </trkpt>
      <trkpt lat="47.42931" lon="0.85742">
        <ele>128</ele>
        <time>2011-05-01T09:23:05Z</time>
      </trkpt>
      <trkpt lat="47.42924" lon="0.85734">
        <ele>128</ele>
        <time>2011-05-01T09:23:07Z</time>
      </trkpt>
      <trkpt lat="47.42918" lon="0.85724">
        <ele>127</ele>
        <time>2011-05-01T09:23:09Z</time>
      </trkpt>
      <trkpt lat="47.42915" lon="0.85717">
        <ele>127</ele>
        <time>2011-05-01T09:23:10Z</time>
      </trkpt>
      <trkpt lat="47.42908" lon="0.85708">
        <ele>127</ele>
        <time>2011-05-01T09:23:12Z</time>
      </trkpt>
      <trkpt lat="47.42905" lon="0.857">
        <ele>128</ele>
        <time>2011-05-01T09:23:14Z</time>
      </trkpt>
      <trkpt lat="47.42901" lon="0.85693">
        <ele>128</ele>
        <time>2011-05-01T09:23:16Z</time>
      </trkpt>
      <trkpt lat="47.42894" lon="0.85686">
        <ele>128</ele>
        <time>2011-05-01T09:23:18Z</time>
      </trkpt>
      <trkpt lat="47.42888" lon="0.85682">
        <ele>128</ele>
        <time>2011-05-01T09:23:20Z</time>
      </trkpt>
      <trkpt lat="47.42883" lon="0.85676">
        <ele>129</ele>
        <time>2011-05-01T09:23:22Z</time>
      </trkpt>
      <trkpt lat="47.42876" lon="0.8567">
        <ele>128</ele>
        <time>2011-05-01T09:23:24Z</time>
      </trkpt>
      <trkpt lat="47.42872" lon="0.85666">
        <ele>128</ele>
        <time>2011-05-01T09:23:25Z</time>
      </trkpt>
      <trkpt lat="47.42866" lon="0.85661">
        <ele>128</ele>
        <time>2011-05-01T09:23:27Z</time>
      </trkpt>
      <trkpt lat="47.42863" lon="0.85656">
        <ele>128</ele>
        <time>2011-05-01T09:23:28Z</time>
      </trkpt>
      <trkpt lat="47.4286" lon="0.85652">
        <ele>128</ele>
        <time>2011-05-01T09:23:29Z</time>
      </trkpt>
      <trkpt lat="47.42855" lon="0.85646">
        <ele>129</ele>
        <time>2011-05-01T09:23:31Z</time>
      </trkpt>
      <trkpt lat="47.42855" lon="0.85637">
        <ele>129</ele>
        <time>2011-05-01T09:23:32Z</time>
      </trkpt>
      <trkpt lat="47.42852" lon="0.8563">
        <ele>129</ele>
        <time>2011-05-01T09:23:33Z</time>
      </trkpt>
      <trkpt lat="47.42849" lon="0.85624">
        <ele>128</ele>
        <time>2011-05-01T09:23:34Z</time>
      </trkpt>
      <trkpt lat="47.42845" lon="0.85616">
        <ele>127</ele>
        <time>2011-05-01T09:23:35Z</time>
      </trkpt>
      <trkpt lat="47.42843" lon="0.8561">
        <ele>128</ele>
        <time>2011-05-01T09:23:36Z</time>
      </trkpt>
      <trkpt lat="47.4284" lon="0.85603">
        <ele>128</ele>
        <time>2011-05-01T09:23:37Z</time>
      </trkpt>
      <trkpt lat="47.42834" lon="0.85594">
        <ele>128</ele>
        <time>2011-05-01T09:23:39Z</time>
      </trkpt>
      <trkpt lat="47.4283" lon="0.85588">
        <ele>129</ele>
        <time>2011-05-01T09:23:40Z</time>
      </trkpt>
      <trkpt lat="47.42826" lon="0.85583">
        <ele>128</ele>
        <time>2011-05-01T09:23:41Z</time>
      </trkpt>
      <trkpt lat="47.42821" lon="0.85573">
        <ele>127</ele>
        <time>2011-05-01T09:23:43Z</time>
      </trkpt>
      <trkpt lat="47.42814" lon="0.85564">
        <ele>127</ele>
        <time>2011-05-01T09:23:45Z</time>
      </trkpt>
      <trkpt lat="47.42812" lon="0.85557">
        <ele>127</ele>
        <time>2011-05-01T09:23:46Z</time>
      </trkpt>
      <trkpt lat="47.4281" lon="0.8555">
        <ele>127</ele>
        <time>2011-05-01T09:23:47Z</time>
      </trkpt>
      <trkpt lat="47.42806" lon="0.85541">
        <ele>127</ele>
        <time>2011-05-01T09:23:48Z</time>
      </trkpt>
      <trkpt lat="47.42803" lon="0.85533">
        <ele>126</ele>
        <time>2011-05-01T09:23:49Z</time>
      </trkpt>
      <trkpt lat="47.42798" lon="0.85524">
        <ele>126</ele>
        <time>2011-05-01T09:23:50Z</time>
      </trkpt>
      <trkpt lat="47.42794" lon="0.85515">
        <ele>126</ele>
        <time>2011-05-01T09:23:51Z</time>
      </trkpt>
      <trkpt lat="47.4279" lon="0.85503">
        <ele>126</ele>
        <time>2011-05-01T09:23:52Z</time>
      </trkpt>
      <trkpt lat="47.42784" lon="0.85493">
        <ele>126</ele>
        <time>2011-05-01T09:23:53Z</time>
      </trkpt>
      <trkpt lat="47.42778" lon="0.85484">
        <ele>126</ele>
        <time>2011-05-01T09:23:54Z</time>
      </trkpt>
      <trkpt lat="47.42774" lon="0.85476">
        <ele>126</ele>
        <time>2011-05-01T09:23:55Z</time>
      </trkpt>
      <trkpt lat="47.42769" lon="0.85468">
        <ele>126</ele>
        <time>2011-05-01T09:23:56Z</time>
      </trkpt>
      <trkpt lat="47.42766" lon="0.85463">
        <ele>126</ele>
        <time>2011-05-01T09:23:57Z</time>
      </trkpt>
      <trkpt lat="47.42759" lon="0.85451">
        <ele>126</ele>
        <time>2011-05-01T09:23:59Z</time>
      </trkpt>
      <trkpt lat="47.42754" lon="0.85446">
        <ele>126</ele>
        <time>2011-05-01T09:24:00Z</time>
      </trkpt>
      <trkpt lat="47.42751" lon="0.85439">
        <ele>126</ele>
        <time>2011-05-01T09:24:02Z</time>
      </trkpt>
      <trkpt lat="47.42747" lon="0.85429">
        <ele>126</ele>
        <time>2011-05-01T09:24:04Z</time>
      </trkpt>
      <trkpt lat="47.42743" lon="0.85415">
        <ele>128</ele>
        <time>2011-05-01T09:24:06Z</time>
      </trkpt>
      <trkpt lat="47.42741" lon="0.85409">
        <ele>129</ele>
        <time>2011-05-01T09:24:07Z</time>
      </trkpt>
      <trkpt lat="47.42738" lon="0.85401">
        <ele>130</ele>
        <time>2011-05-01T09:24:08Z</time>
      </trkpt>
      <trkpt lat="47.42736" lon="0.85394">
        <ele>131</ele>
        <time>2011-05-01T09:24:09Z</time>
      </trkpt>
      <trkpt lat="47.42733" lon="0.85388">
        <ele>131</ele>
        <time>2011-05-01T09:24:10Z</time>
      </trkpt>
      <trkpt lat="47.42731" lon="0.85381">
        <ele>131</ele>
        <time>2011-05-01T09:24:11Z</time>
      </trkpt>
      <trkpt lat="47.42727" lon="0.85375">
        <ele>132</ele>
        <time>2011-05-01T09:24:12Z</time>
      </trkpt>
      <trkpt lat="47.42724" lon="0.85368">
        <ele>132</ele>
        <time>2011-05-01T09:24:13Z</time>
      </trkpt>
      <trkpt lat="47.42717" lon="0.85362">
        <ele>133</ele>
        <time>2011-05-01T09:24:14Z</time>
      </trkpt>
      <trkpt lat="47.42713" lon="0.85357">
        <ele>132</ele>
        <time>2011-05-01T09:24:15Z</time>
      </trkpt>
      <trkpt lat="47.42709" lon="0.85352">
        <ele>132</ele>
        <time>2011-05-01T09:24:16Z</time>
      </trkpt>
      <trkpt lat="47.42703" lon="0.85343">
        <ele>132</ele>
        <time>2011-05-01T09:24:18Z</time>
      </trkpt>
      <trkpt lat="47.427" lon="0.85333">
        <ele>131</ele>
        <time>2011-05-01T09:24:20Z</time>
      </trkpt>
      <trkpt lat="47.42694" lon="0.85327">
        <ele>130</ele>
        <time>2011-05-01T09:24:21Z</time>
      </trkpt>
      <trkpt lat="47.42689" lon="0.85321">
        <ele>129</ele>
        <time>2011-05-01T09:24:22Z</time>
      </trkpt>
      <trkpt lat="47.42685" lon="0.85316">
        <ele>129</ele>
        <time>2011-05-01T09:24:23Z</time>
      </trkpt>
      <trkpt lat="47.42679" lon="0.85313">
        <ele>127</ele>
        <time>2011-05-01T09:24:24Z</time>
      </trkpt>
      <trkpt lat="47.42671" lon="0.85308">
        <ele>126</ele>
        <time>2011-05-01T09:24:26Z</time>
      </trkpt>
      <trkpt lat="47.42666" lon="0.85305">
        <ele>126</ele>
        <time>2011-05-01T09:24:27Z</time>
      </trkpt>
      <trkpt lat="47.42661" lon="0.85303">
        <ele>126</ele>
        <time>2011-05-01T09:24:28Z</time>
      </trkpt>
      <trkpt lat="47.42656" lon="0.853">
        <ele>126</ele>
        <time>2011-05-01T09:24:29Z</time>
      </trkpt>
      <trkpt lat="47.4265" lon="0.85295">
        <ele>124</ele>
        <time>2011-05-01T09:24:30Z</time>
      </trkpt>
      <trkpt lat="47.42646" lon="0.85293">
        <ele>124</ele>
        <time>2011-05-01T09:24:31Z</time>
      </trkpt>
      <trkpt lat="47.42641" lon="0.85289">
        <ele>123</ele>
        <time>2011-05-01T09:24:32Z</time>
      </trkpt>
      <trkpt lat="47.42635" lon="0.85284">
        <ele>123</ele>
        <time>2011-05-01T09:24:33Z</time>
      </trkpt>
      <trkpt lat="47.42632" lon="0.8528">
        <ele>123</ele>
        <time>2011-05-01T09:24:34Z</time>
      </trkpt>
      <trkpt lat="47.42626" lon="0.85275">
        <ele>123</ele>
        <time>2011-05-01T09:24:35Z</time>
      </trkpt>
      <trkpt lat="47.42618" lon="0.85265">
        <ele>123</ele>
        <time>2011-05-01T09:24:37Z</time>
      </trkpt>
      <trkpt lat="47.42614" lon="0.85258">
        <ele>122</ele>
        <time>2011-05-01T09:24:38Z</time>
      </trkpt>
      <trkpt lat="47.42606" lon="0.85251">
        <ele>121</ele>
        <time>2011-05-01T09:24:39Z</time>
      </trkpt>
      <trkpt lat="47.426" lon="0.85245">
        <ele>120</ele>
        <time>2011-05-01T09:24:40Z</time>
      </trkpt>
      <trkpt lat="47.42594" lon="0.85238">
        <ele>119</ele>
        <time>2011-05-01T09:24:41Z</time>
      </trkpt>
      <trkpt lat="47.42591" lon="0.85233">
        <ele>117</ele>
        <time>2011-05-01T09:24:42Z</time>
      </trkpt>
      <trkpt lat="47.42587" lon="0.85228">
        <ele>117</ele>
        <time>2011-05-01T09:24:43Z</time>
      </trkpt>
      <trkpt lat="47.42582" lon="0.85221">
        <ele>117</ele>
        <time>2011-05-01T09:24:44Z</time>
      </trkpt>
      <trkpt lat="47.42577" lon="0.85213">
        <ele>117</ele>
        <time>2011-05-01T09:24:45Z</time>
      </trkpt>
      <trkpt lat="47.42572" lon="0.85204">
        <ele>117</ele>
        <time>2011-05-01T09:24:46Z</time>
      </trkpt>
      <trkpt lat="47.42571" lon="0.85193">
        <ele>117</ele>
        <time>2011-05-01T09:24:47Z</time>
      </trkpt>
      <trkpt lat="47.42567" lon="0.85184">
        <ele>118</ele>
        <time>2011-05-01T09:24:48Z</time>
      </trkpt>
      <trkpt lat="47.42564" lon="0.85175">
        <ele>118</ele>
        <time>2011-05-01T09:24:49Z</time>
      </trkpt>
      <trkpt lat="47.42561" lon="0.85166">
        <ele>118</ele>
        <time>2011-05-01T09:24:50Z</time>
      </trkpt>
      <trkpt lat="47.4256" lon="0.85158">
        <ele>118</ele>
        <time>2011-05-01T09:24:51Z</time>
      </trkpt>
      <trkpt lat="47.42563" lon="0.85147">
        <ele>118</ele>
        <time>2011-05-01T09:24:53Z</time>
      </trkpt>
      <trkpt lat="47.42567" lon="0.85141">
        <ele>117</ele>
        <time>2011-05-01T09:24:54Z</time>
      </trkpt>
      <trkpt lat="47.42572" lon="0.8513">
        <ele>118</ele>
        <time>2011-05-01T09:24:56Z</time>
      </trkpt>
      <trkpt lat="47.42568" lon="0.8512">
        <ele>118</ele>
        <time>2011-05-01T09:24:58Z</time>
      </trkpt>
      <trkpt lat="47.42564" lon="0.85112">
        <ele>118</ele>
        <time>2011-05-01T09:25:00Z</time>
      </trkpt>
      <trkpt lat="47.42558" lon="0.85102">
        <ele>118</ele>
        <time>2011-05-01T09:25:02Z</time>
      </trkpt>
      <trkpt lat="47.42554" lon="0.85096">
        <ele>117</ele>
        <time>2011-05-01T09:25:03Z</time>
      </trkpt>
      <trkpt lat="47.4255" lon="0.8509">
        <ele>114</ele>
        <time>2011-05-01T09:25:04Z</time>
      </trkpt>
      <trkpt lat="47.42547" lon="0.85084">
        <ele>113</ele>
        <time>2011-05-01T09:25:05Z</time>
      </trkpt>
      <trkpt lat="47.42542" lon="0.85078">
        <ele>113</ele>
        <time>2011-05-01T09:25:06Z</time>
      </trkpt>
      <trkpt lat="47.42538" lon="0.85072">
        <ele>113</ele>
        <time>2011-05-01T09:25:07Z</time>
      </trkpt>
      <trkpt lat="47.42534" lon="0.85066">
        <ele>112</ele>
        <time>2011-05-01T09:25:08Z</time>
      </trkpt>
      <trkpt lat="47.4253" lon="0.85059">
        <ele>112</ele>
        <time>2011-05-01T09:25:09Z</time>
      </trkpt>
      <trkpt lat="47.42523" lon="0.85052">
        <ele>110</ele>
        <time>2011-05-01T09:25:10Z</time>
      </trkpt>
      <trkpt lat="47.42518" lon="0.85045">
        <ele>108</ele>
        <time>2011-05-01T09:25:11Z</time>
      </trkpt>
      <trkpt lat="47.42513" lon="0.85038">
        <ele>108</ele>
        <time>2011-05-01T09:25:12Z</time>
      </trkpt>
      <trkpt lat="47.42509" lon="0.85031">
        <ele>107</ele>
        <time>2011-05-01T09:25:13Z</time>
      </trkpt>
      <trkpt lat="47.42504" lon="0.85023">
        <ele>107</ele>
        <time>2011-05-01T09:25:14Z</time>
      </trkpt>
      <trkpt lat="47.42499" lon="0.85017">
        <ele>106</ele>
        <time>2011-05-01T09:25:15Z</time>
      </trkpt>
      <trkpt lat="47.42494" lon="0.85011">
        <ele>106</ele>
        <time>2011-05-01T09:25:16Z</time>
      </trkpt>
      <trkpt lat="47.4249" lon="0.85004">
        <ele>106</ele>
        <time>2011-05-01T09:25:17Z</time>
      </trkpt>
      <trkpt lat="47.42487" lon="0.84997">
        <ele>106</ele>
        <time>2011-05-01T09:25:18Z</time>
      </trkpt>
      <trkpt lat="47.42483" lon="0.84989">
        <ele>105</ele>
        <time>2011-05-01T09:25:19Z</time>
      </trkpt>
      <trkpt lat="47.4248" lon="0.84982">
        <ele>105</ele>
        <time>2011-05-01T09:25:20Z</time>
      </trkpt>
      <trkpt lat="47.42477" lon="0.84974">
        <ele>106</ele>
        <time>2011-05-01T09:25:21Z</time>
      </trkpt>
      <trkpt lat="47.42474" lon="0.84967">
        <ele>107</ele>
        <time>2011-05-01T09:25:22Z</time>
      </trkpt>
      <trkpt lat="47.4247" lon="0.84959">
        <ele>107</ele>
        <time>2011-05-01T09:25:23Z</time>
      </trkpt>
      <trkpt lat="47.42467" lon="0.84951">
        <ele>106</ele>
        <time>2011-05-01T09:25:24Z</time>
      </trkpt>
      <trkpt lat="47.42465" lon="0.84943">
        <ele>106</ele>
        <time>2011-05-01T09:25:25Z</time>
      </trkpt>
      <trkpt lat="47.42462" lon="0.84935">
        <ele>106</ele>
        <time>2011-05-01T09:25:26Z</time>
      </trkpt>
      <trkpt lat="47.42459" lon="0.84928">
        <ele>107</ele>
        <time>2011-05-01T09:25:27Z</time>
      </trkpt>
      <trkpt lat="47.42457" lon="0.8492">
        <ele>107</ele>
        <time>2011-05-01T09:25:28Z</time>
      </trkpt>
      <trkpt lat="47.42453" lon="0.84913">
        <ele>107</ele>
        <time>2011-05-01T09:25:29Z</time>
      </trkpt>
      <trkpt lat="47.42451" lon="0.84905">
        <ele>107</ele>
        <time>2011-05-01T09:25:30Z</time>
      </trkpt>
      <trkpt lat="47.42451" lon="0.84898">
        <ele>107</ele>
        <time>2011-05-01T09:25:31Z</time>
      </trkpt>
      <trkpt lat="47.42453" lon="0.84885">
        <ele>108</ele>
        <time>2011-05-01T09:25:33Z</time>
      </trkpt>
      <trkpt lat="47.42453" lon="0.84875">
        <ele>107</ele>
        <time>2011-05-01T09:25:35Z</time>
      </trkpt>
      <trkpt lat="47.42458" lon="0.84869">
        <ele>106</ele>
        <time>2011-05-01T09:25:37Z</time>
      </trkpt>
      <trkpt lat="47.42463" lon="0.84866">
        <ele>106</ele>
        <time>2011-05-01T09:25:38Z</time>
      </trkpt>
      <trkpt lat="47.42468" lon="0.84861">
        <ele>106</ele>
        <time>2011-05-01T09:25:39Z</time>
      </trkpt>
      <trkpt lat="47.42472" lon="0.84858">
        <ele>106</ele>
        <time>2011-05-01T09:25:40Z</time>
      </trkpt>
      <trkpt lat="47.42478" lon="0.84853">
        <ele>106</ele>
        <time>2011-05-01T09:25:41Z</time>
      </trkpt>
      <trkpt lat="47.42482" lon="0.8485">
        <ele>106</ele>
        <time>2011-05-01T09:25:42Z</time>
      </trkpt>
      <trkpt lat="47.42487" lon="0.84846">
        <ele>107</ele>
        <time>2011-05-01T09:25:43Z</time>
      </trkpt>
      <trkpt lat="47.42492" lon="0.84844">
        <ele>107</ele>
        <time>2011-05-01T09:25:44Z</time>
      </trkpt>
      <trkpt lat="47.42497" lon="0.8484">
        <ele>107</ele>
        <time>2011-05-01T09:25:45Z</time>
      </trkpt>
      <trkpt lat="47.42502" lon="0.84836">
        <ele>107</ele>
        <time>2011-05-01T09:25:46Z</time>
      </trkpt>
      <trkpt lat="47.42508" lon="0.84834">
        <ele>107</ele>
        <time>2011-05-01T09:25:47Z</time>
      </trkpt>
      <trkpt lat="47.42514" lon="0.84832">
        <ele>106</ele>
        <time>2011-05-01T09:25:48Z</time>
      </trkpt>
      <trkpt lat="47.4252" lon="0.84829">
        <ele>107</ele>
        <time>2011-05-01T09:25:49Z</time>
      </trkpt>
      <trkpt lat="47.42526" lon="0.84824">
        <ele>107</ele>
        <time>2011-05-01T09:25:50Z</time>
      </trkpt>
      <trkpt lat="47.42532" lon="0.84819">
        <ele>106</ele>
        <time>2011-05-01T09:25:51Z</time>
      </trkpt>
      <trkpt lat="47.42538" lon="0.84813">
        <ele>106</ele>
        <time>2011-05-01T09:25:52Z</time>
      </trkpt>
      <trkpt lat="47.42545" lon="0.84807">
        <ele>106</ele>
        <time>2011-05-01T09:25:53Z</time>
      </trkpt>
      <trkpt lat="47.4255" lon="0.84803">
        <ele>106</ele>
        <time>2011-05-01T09:25:54Z</time>
      </trkpt>
      <trkpt lat="47.42556" lon="0.84798">
        <ele>106</ele>
        <time>2011-05-01T09:25:55Z</time>
      </trkpt>
      <trkpt lat="47.4256" lon="0.84793">
        <ele>105</ele>
        <time>2011-05-01T09:25:56Z</time>
      </trkpt>
      <trkpt lat="47.42566" lon="0.84788">
        <ele>105</ele>
        <time>2011-05-01T09:25:57Z</time>
      </trkpt>
      <trkpt lat="47.42571" lon="0.84784">
        <ele>105</ele>
        <time>2011-05-01T09:25:58Z</time>
      </trkpt>
      <trkpt lat="47.42577" lon="0.8478">
        <ele>105</ele>
        <time>2011-05-01T09:25:59Z</time>
      </trkpt>
      <trkpt lat="47.42584" lon="0.84776">
        <ele>105</ele>
        <time>2011-05-01T09:26:00Z</time>
      </trkpt>
      <trkpt lat="47.4259" lon="0.84769">
        <ele>105</ele>
        <time>2011-05-01T09:26:01Z</time>
      </trkpt>
      <trkpt lat="47.42596" lon="0.84765">
        <ele>105</ele>
        <time>2011-05-01T09:26:02Z</time>
      </trkpt>
      <trkpt lat="47.426" lon="0.8476">
        <ele>105</ele>
        <time>2011-05-01T09:26:03Z</time>
      </trkpt>
      <trkpt lat="47.42606" lon="0.84756">
        <ele>105</ele>
        <time>2011-05-01T09:26:04Z</time>
      </trkpt>
      <trkpt lat="47.42613" lon="0.84752">
        <ele>104</ele>
        <time>2011-05-01T09:26:05Z</time>
      </trkpt>
      <trkpt lat="47.42619" lon="0.84751">
        <ele>104</ele>
        <time>2011-05-01T09:26:06Z</time>
      </trkpt>
      <trkpt lat="47.42626" lon="0.8475">
        <ele>104</ele>
        <time>2011-05-01T09:26:07Z</time>
      </trkpt>
      <trkpt lat="47.42634" lon="0.84751">
        <ele>104</ele>
        <time>2011-05-01T09:26:08Z</time>
      </trkpt>
      <trkpt lat="47.4264" lon="0.84753">
        <ele>104</ele>
        <time>2011-05-01T09:26:09Z</time>
      </trkpt>
      <trkpt lat="47.42646" lon="0.84754">
        <ele>104</ele>
        <time>2011-05-01T09:26:10Z</time>
      </trkpt>
      <trkpt lat="47.42651" lon="0.84756">
        <ele>105</ele>
        <time>2011-05-01T09:26:11Z</time>
      </trkpt>
      <trkpt lat="47.42656" lon="0.8476">
        <ele>104</ele>
        <time>2011-05-01T09:26:12Z</time>
      </trkpt>
      <trkpt lat="47.42661" lon="0.84763">
        <ele>104</ele>
        <time>2011-05-01T09:26:13Z</time>
      </trkpt>
      <trkpt lat="47.42666" lon="0.84766">
        <ele>104</ele>
        <time>2011-05-01T09:26:14Z</time>
      </trkpt>
      <trkpt lat="47.42671" lon="0.8477">
        <ele>105</ele>
        <time>2011-05-01T09:26:15Z</time>
      </trkpt>
      <trkpt lat="47.42676" lon="0.84773">
        <ele>105</ele>
        <time>2011-05-01T09:26:16Z</time>
      </trkpt>
      <trkpt lat="47.4268" lon="0.84776">
        <ele>105</ele>
        <time>2011-05-01T09:26:17Z</time>
      </trkpt>
      <trkpt lat="47.42689" lon="0.84779">
        <ele>105</ele>
        <time>2011-05-01T09:26:19Z</time>
      </trkpt>
      <trkpt lat="47.42695" lon="0.84782">
        <ele>105</ele>
        <time>2011-05-01T09:26:20Z</time>
      </trkpt>
      <trkpt lat="47.42705" lon="0.84787">
        <ele>105</ele>
        <time>2011-05-01T09:26:22Z</time>
      </trkpt>
      <trkpt lat="47.42715" lon="0.84788">
        <ele>105</ele>
        <time>2011-05-01T09:26:24Z</time>
      </trkpt>
      <trkpt lat="47.42723" lon="0.84784">
        <ele>105</ele>
        <time>2011-05-01T09:26:26Z</time>
      </trkpt>
      <trkpt lat="47.42725" lon="0.84776">
        <ele>105</ele>
        <time>2011-05-01T09:26:28Z</time>
      </trkpt>
      <trkpt lat="47.42731" lon="0.84768">
        <ele>105</ele>
        <time>2011-05-01T09:26:30Z</time>
      </trkpt>
      <trkpt lat="47.42734" lon="0.84763">
        <ele>106</ele>
        <time>2011-05-01T09:26:31Z</time>
      </trkpt>
      <trkpt lat="47.42739" lon="0.84752">
        <ele>104</ele>
        <time>2011-05-01T09:26:33Z</time>
      </trkpt>
      <trkpt lat="47.42742" lon="0.84746">
        <ele>104</ele>
        <time>2011-05-01T09:26:34Z</time>
      </trkpt>
      <trkpt lat="47.42745" lon="0.84741">
        <ele>105</ele>
        <time>2011-05-01T09:26:35Z</time>
      </trkpt>
      <trkpt lat="47.42751" lon="0.84733">
        <ele>103</ele>
        <time>2011-05-01T09:26:37Z</time>
      </trkpt>
      <trkpt lat="47.42755" lon="0.84723">
        <ele>103</ele>
        <time>2011-05-01T09:26:39Z</time>
      </trkpt>
      <trkpt lat="47.42761" lon="0.84715">
        <ele>102</ele>
        <time>2011-05-01T09:26:41Z</time>
      </trkpt>
      <trkpt lat="47.42768" lon="0.84707">
        <ele>101</ele>
        <time>2011-05-01T09:26:43Z</time>
      </trkpt>
      <trkpt lat="47.42772" lon="0.84701">
        <ele>101</ele>
        <time>2011-05-01T09:26:44Z</time>
      </trkpt>
      <trkpt lat="47.42776" lon="0.84697">
        <ele>102</ele>
        <time>2011-05-01T09:26:45Z</time>
      </trkpt>
      <trkpt lat="47.42784" lon="0.84698">
        <ele>101</ele>
        <time>2011-05-01T09:26:47Z</time>
      </trkpt>
      <trkpt lat="47.42792" lon="0.847">
        <ele>102</ele>
        <time>2011-05-01T09:26:49Z</time>
      </trkpt>
      <trkpt lat="47.42798" lon="0.84703">
        <ele>102</ele>
        <time>2011-05-01T09:26:51Z</time>
      </trkpt>
      <trkpt lat="47.42805" lon="0.84706">
        <ele>102</ele>
        <time>2011-05-01T09:26:53Z</time>
      </trkpt>
      <trkpt lat="47.42813" lon="0.8471">
        <ele>102</ele>
        <time>2011-05-01T09:26:55Z</time>
      </trkpt>
      <trkpt lat="47.42818" lon="0.84713">
        <ele>102</ele>
        <time>2011-05-01T09:26:56Z</time>
      </trkpt>
      <trkpt lat="47.42825" lon="0.84714">
        <ele>102</ele>
        <time>2011-05-01T09:26:58Z</time>
      </trkpt>
      <trkpt lat="47.4283" lon="0.84716">
        <ele>102</ele>
        <time>2011-05-01T09:26:59Z</time>
      </trkpt>
      <trkpt lat="47.42834" lon="0.84718">
        <ele>102</ele>
        <time>2011-05-01T09:27:00Z</time>
      </trkpt>
      <trkpt lat="47.42842" lon="0.84719">
        <ele>102</ele>
        <time>2011-05-01T09:27:02Z</time>
      </trkpt>
      <trkpt lat="47.42848" lon="0.84721">
        <ele>103</ele>
        <time>2011-05-01T09:27:04Z</time>
      </trkpt>
      <trkpt lat="47.42853" lon="0.84723">
        <ele>107</ele>
        <time>2011-05-01T09:27:26Z</time>
      </trkpt>
    </trkseg>
  </trk>
</gpx>